<?xml version="1.0" encoding="UTF-8" standalone="no" ?>
<gpx xmlns="http://www.topografix.com/GPX/1/1" xmlns:xsi="http://www.w3.org/2001/XMLSchema-instance" xsi:schemaLocation="http://www.topografix.com/GPX/1/1 http://www.topografix.com/GPX/1/1/gpx.xsd" version="1.1" creator="VisuGPX - https://www.visugpx.com">
  <metadata>
    <name>Turge de la Suffie </name>
    <desc><![CDATA[Montée simple depuis Le Laus. Arrêt a l antecime. ]]></desc>
  </metadata>
  <trk>
    <name><![CDATA[Trace 1772521631999]]></name>
    <trkseg>
      <trkpt lat="44.85606" lon="6.72689">
        <ele>1794.4</ele>
        <time>2026-03-03T07:07:11.999Z</time>
      </trkpt>
      <trkpt lat="44.85606" lon="6.72688">
        <ele>1794.8</ele>
        <time>2026-03-03T07:07:12.999Z</time>
      </trkpt>
      <trkpt lat="44.85605" lon="6.72689">
        <ele>1797.2</ele>
        <time>2026-03-03T07:07:34.999Z</time>
      </trkpt>
      <trkpt lat="44.85606" lon="6.7269">
        <ele>1797.1</ele>
        <time>2026-03-03T07:07:35.999Z</time>
      </trkpt>
      <trkpt lat="44.85606" lon="6.7269">
        <ele>1797</ele>
        <time>2026-03-03T07:07:36.999Z</time>
      </trkpt>
      <trkpt lat="44.85606" lon="6.72685">
        <ele>1798.5</ele>
        <time>2026-03-03T07:07:49.999Z</time>
      </trkpt>
      <trkpt lat="44.85605" lon="6.72684">
        <ele>1798.5</ele>
        <time>2026-03-03T07:07:50.999Z</time>
      </trkpt>
      <trkpt lat="44.85605" lon="6.72685">
        <ele>1798.5</ele>
        <time>2026-03-03T07:07:51.999Z</time>
      </trkpt>
      <trkpt lat="44.85606" lon="6.72686">
        <ele>1797.4</ele>
        <time>2026-03-03T07:08:56.999Z</time>
      </trkpt>
      <trkpt lat="44.85606" lon="6.72684">
        <ele>1797.5</ele>
        <time>2026-03-03T07:08:57.999Z</time>
      </trkpt>
      <trkpt lat="44.85606" lon="6.72683">
        <ele>1797.5</ele>
        <time>2026-03-03T07:08:58.999Z</time>
      </trkpt>
      <trkpt lat="44.85607" lon="6.72681">
        <ele>1797.4</ele>
        <time>2026-03-03T07:08:59.999Z</time>
      </trkpt>
      <trkpt lat="44.85607" lon="6.7268">
        <ele>1797.4</ele>
        <time>2026-03-03T07:09:00.999Z</time>
      </trkpt>
      <trkpt lat="44.85607" lon="6.72679">
        <ele>1797.4</ele>
        <time>2026-03-03T07:09:01.999Z</time>
      </trkpt>
      <trkpt lat="44.85607" lon="6.72677">
        <ele>1797.4</ele>
        <time>2026-03-03T07:09:02.999Z</time>
      </trkpt>
      <trkpt lat="44.85607" lon="6.72676">
        <ele>1797.4</ele>
        <time>2026-03-03T07:09:03.999Z</time>
      </trkpt>
      <trkpt lat="44.85604" lon="6.72687">
        <ele>1797.9</ele>
        <time>2026-03-03T07:11:35.000Z</time>
      </trkpt>
      <trkpt lat="44.85605" lon="6.72687">
        <ele>1797.6</ele>
        <time>2026-03-03T07:11:36.000Z</time>
      </trkpt>
      <trkpt lat="44.85605" lon="6.72688">
        <ele>1797.3</ele>
        <time>2026-03-03T07:11:37.000Z</time>
      </trkpt>
      <trkpt lat="44.85604" lon="6.72686">
        <ele>1801.1</ele>
        <time>2026-03-03T07:14:03.000Z</time>
      </trkpt>
      <trkpt lat="44.85603" lon="6.72686">
        <ele>1801.2</ele>
        <time>2026-03-03T07:14:04.000Z</time>
      </trkpt>
      <trkpt lat="44.85603" lon="6.72686">
        <ele>1801.3</ele>
        <time>2026-03-03T07:14:05.000Z</time>
      </trkpt>
      <trkpt lat="44.85602" lon="6.72687">
        <ele>1801.5</ele>
        <time>2026-03-03T07:14:06.000Z</time>
      </trkpt>
      <trkpt lat="44.85601" lon="6.72687">
        <ele>1801.5</ele>
        <time>2026-03-03T07:14:07.000Z</time>
      </trkpt>
      <trkpt lat="44.856" lon="6.72688">
        <ele>1801.6</ele>
        <time>2026-03-03T07:14:08.000Z</time>
      </trkpt>
      <trkpt lat="44.85599" lon="6.72689">
        <ele>1801.7</ele>
        <time>2026-03-03T07:14:09.000Z</time>
      </trkpt>
      <trkpt lat="44.85598" lon="6.7269">
        <ele>1801.8</ele>
        <time>2026-03-03T07:14:10.000Z</time>
      </trkpt>
      <trkpt lat="44.85597" lon="6.72691">
        <ele>1801.9</ele>
        <time>2026-03-03T07:14:11.000Z</time>
      </trkpt>
      <trkpt lat="44.85596" lon="6.72692">
        <ele>1802.3</ele>
        <time>2026-03-03T07:14:12.000Z</time>
      </trkpt>
      <trkpt lat="44.85595" lon="6.72693">
        <ele>1802.5</ele>
        <time>2026-03-03T07:14:13.000Z</time>
      </trkpt>
      <trkpt lat="44.85594" lon="6.72693">
        <ele>1802.5</ele>
        <time>2026-03-03T07:14:14.000Z</time>
      </trkpt>
      <trkpt lat="44.85594" lon="6.72693">
        <ele>1802.5</ele>
        <time>2026-03-03T07:14:15.000Z</time>
      </trkpt>
      <trkpt lat="44.85593" lon="6.72693">
        <ele>1802.7</ele>
        <time>2026-03-03T07:14:16.000Z</time>
      </trkpt>
      <trkpt lat="44.85592" lon="6.72693">
        <ele>1802.5</ele>
        <time>2026-03-03T07:14:17.000Z</time>
      </trkpt>
      <trkpt lat="44.85591" lon="6.72694">
        <ele>1802.5</ele>
        <time>2026-03-03T07:14:18.000Z</time>
      </trkpt>
      <trkpt lat="44.8559" lon="6.72694">
        <ele>1802.9</ele>
        <time>2026-03-03T07:14:19.000Z</time>
      </trkpt>
      <trkpt lat="44.85589" lon="6.72695">
        <ele>1803.1</ele>
        <time>2026-03-03T07:14:20.000Z</time>
      </trkpt>
      <trkpt lat="44.85589" lon="6.72696">
        <ele>1803.2</ele>
        <time>2026-03-03T07:14:21.000Z</time>
      </trkpt>
      <trkpt lat="44.85588" lon="6.72696">
        <ele>1803.2</ele>
        <time>2026-03-03T07:14:22.000Z</time>
      </trkpt>
      <trkpt lat="44.85587" lon="6.72697">
        <ele>1803.4</ele>
        <time>2026-03-03T07:14:23.000Z</time>
      </trkpt>
      <trkpt lat="44.85586" lon="6.72697">
        <ele>1803.6</ele>
        <time>2026-03-03T07:14:24.000Z</time>
      </trkpt>
      <trkpt lat="44.85584" lon="6.72698">
        <ele>1803.9</ele>
        <time>2026-03-03T07:14:25.000Z</time>
      </trkpt>
      <trkpt lat="44.85583" lon="6.72698">
        <ele>1804.1</ele>
        <time>2026-03-03T07:14:26.000Z</time>
      </trkpt>
      <trkpt lat="44.85582" lon="6.72698">
        <ele>1804.1</ele>
        <time>2026-03-03T07:14:27.000Z</time>
      </trkpt>
      <trkpt lat="44.85582" lon="6.72698">
        <ele>1804</ele>
        <time>2026-03-03T07:14:28.000Z</time>
      </trkpt>
      <trkpt lat="44.85581" lon="6.72699">
        <ele>1804.2</ele>
        <time>2026-03-03T07:14:29.000Z</time>
      </trkpt>
      <trkpt lat="44.8558" lon="6.72699">
        <ele>1804.2</ele>
        <time>2026-03-03T07:14:30.000Z</time>
      </trkpt>
      <trkpt lat="44.85579" lon="6.727">
        <ele>1804.1</ele>
        <time>2026-03-03T07:14:31.000Z</time>
      </trkpt>
      <trkpt lat="44.85578" lon="6.727">
        <ele>1803.9</ele>
        <time>2026-03-03T07:14:32.000Z</time>
      </trkpt>
      <trkpt lat="44.85577" lon="6.72701">
        <ele>1803.8</ele>
        <time>2026-03-03T07:14:33.000Z</time>
      </trkpt>
      <trkpt lat="44.85576" lon="6.72702">
        <ele>1803.8</ele>
        <time>2026-03-03T07:14:34.000Z</time>
      </trkpt>
      <trkpt lat="44.85575" lon="6.72703">
        <ele>1803.8</ele>
        <time>2026-03-03T07:14:35.000Z</time>
      </trkpt>
      <trkpt lat="44.85575" lon="6.72704">
        <ele>1803.7</ele>
        <time>2026-03-03T07:14:36.000Z</time>
      </trkpt>
      <trkpt lat="44.85574" lon="6.72705">
        <ele>1803.4</ele>
        <time>2026-03-03T07:14:37.000Z</time>
      </trkpt>
      <trkpt lat="44.85573" lon="6.72706">
        <ele>1803.3</ele>
        <time>2026-03-03T07:14:38.000Z</time>
      </trkpt>
      <trkpt lat="44.85572" lon="6.72706">
        <ele>1803.3</ele>
        <time>2026-03-03T07:14:39.000Z</time>
      </trkpt>
      <trkpt lat="44.85571" lon="6.72707">
        <ele>1803.3</ele>
        <time>2026-03-03T07:14:40.000Z</time>
      </trkpt>
      <trkpt lat="44.8557" lon="6.72707">
        <ele>1803.2</ele>
        <time>2026-03-03T07:14:41.000Z</time>
      </trkpt>
      <trkpt lat="44.85569" lon="6.72708">
        <ele>1803.1</ele>
        <time>2026-03-03T07:14:42.000Z</time>
      </trkpt>
      <trkpt lat="44.85568" lon="6.72709">
        <ele>1803.2</ele>
        <time>2026-03-03T07:14:43.000Z</time>
      </trkpt>
      <trkpt lat="44.85568" lon="6.72709">
        <ele>1803.1</ele>
        <time>2026-03-03T07:14:44.000Z</time>
      </trkpt>
      <trkpt lat="44.85567" lon="6.7271">
        <ele>1803.1</ele>
        <time>2026-03-03T07:14:45.000Z</time>
      </trkpt>
      <trkpt lat="44.85566" lon="6.7271">
        <ele>1803</ele>
        <time>2026-03-03T07:14:46.000Z</time>
      </trkpt>
      <trkpt lat="44.85565" lon="6.72711">
        <ele>1802.9</ele>
        <time>2026-03-03T07:14:47.000Z</time>
      </trkpt>
      <trkpt lat="44.85564" lon="6.72711">
        <ele>1802.8</ele>
        <time>2026-03-03T07:14:48.000Z</time>
      </trkpt>
      <trkpt lat="44.85563" lon="6.72711">
        <ele>1802.7</ele>
        <time>2026-03-03T07:14:49.000Z</time>
      </trkpt>
      <trkpt lat="44.85562" lon="6.72711">
        <ele>1802.5</ele>
        <time>2026-03-03T07:14:50.000Z</time>
      </trkpt>
      <trkpt lat="44.85561" lon="6.72712">
        <ele>1802.4</ele>
        <time>2026-03-03T07:14:51.000Z</time>
      </trkpt>
      <trkpt lat="44.8556" lon="6.72712">
        <ele>1802.2</ele>
        <time>2026-03-03T07:14:52.000Z</time>
      </trkpt>
      <trkpt lat="44.85559" lon="6.72712">
        <ele>1801.9</ele>
        <time>2026-03-03T07:14:53.000Z</time>
      </trkpt>
      <trkpt lat="44.85558" lon="6.72712">
        <ele>1801.6</ele>
        <time>2026-03-03T07:14:54.000Z</time>
      </trkpt>
      <trkpt lat="44.85557" lon="6.72713">
        <ele>1801.6</ele>
        <time>2026-03-03T07:14:55.000Z</time>
      </trkpt>
      <trkpt lat="44.85556" lon="6.72713">
        <ele>1801.6</ele>
        <time>2026-03-03T07:14:56.000Z</time>
      </trkpt>
      <trkpt lat="44.85555" lon="6.72713">
        <ele>1801.7</ele>
        <time>2026-03-03T07:14:57.000Z</time>
      </trkpt>
      <trkpt lat="44.85554" lon="6.72713">
        <ele>1801.3</ele>
        <time>2026-03-03T07:14:58.000Z</time>
      </trkpt>
      <trkpt lat="44.85553" lon="6.72714">
        <ele>1801</ele>
        <time>2026-03-03T07:14:59.000Z</time>
      </trkpt>
      <trkpt lat="44.85552" lon="6.72714">
        <ele>1801.1</ele>
        <time>2026-03-03T07:15:00.000Z</time>
      </trkpt>
      <trkpt lat="44.85551" lon="6.72714">
        <ele>1801.1</ele>
        <time>2026-03-03T07:15:01.000Z</time>
      </trkpt>
      <trkpt lat="44.85551" lon="6.72714">
        <ele>1801</ele>
        <time>2026-03-03T07:15:02.000Z</time>
      </trkpt>
      <trkpt lat="44.85551" lon="6.72714">
        <ele>1801.2</ele>
        <time>2026-03-03T07:15:03.000Z</time>
      </trkpt>
      <trkpt lat="44.8555" lon="6.72715">
        <ele>1801.2</ele>
        <time>2026-03-03T07:15:04.000Z</time>
      </trkpt>
      <trkpt lat="44.85549" lon="6.72715">
        <ele>1801.3</ele>
        <time>2026-03-03T07:15:05.000Z</time>
      </trkpt>
      <trkpt lat="44.85548" lon="6.72716">
        <ele>1801.3</ele>
        <time>2026-03-03T07:15:06.000Z</time>
      </trkpt>
      <trkpt lat="44.85548" lon="6.72716">
        <ele>1801.4</ele>
        <time>2026-03-03T07:15:07.000Z</time>
      </trkpt>
      <trkpt lat="44.85548" lon="6.72717">
        <ele>1801.5</ele>
        <time>2026-03-03T07:15:08.000Z</time>
      </trkpt>
      <trkpt lat="44.85547" lon="6.72717">
        <ele>1801.7</ele>
        <time>2026-03-03T07:15:09.000Z</time>
      </trkpt>
      <trkpt lat="44.85546" lon="6.72718">
        <ele>1801.8</ele>
        <time>2026-03-03T07:15:10.000Z</time>
      </trkpt>
      <trkpt lat="44.85545" lon="6.72718">
        <ele>1801.7</ele>
        <time>2026-03-03T07:15:11.000Z</time>
      </trkpt>
      <trkpt lat="44.85544" lon="6.72719">
        <ele>1801.9</ele>
        <time>2026-03-03T07:15:12.000Z</time>
      </trkpt>
      <trkpt lat="44.85542" lon="6.72719">
        <ele>1801.6</ele>
        <time>2026-03-03T07:15:13.000Z</time>
      </trkpt>
      <trkpt lat="44.85541" lon="6.72719">
        <ele>1801.4</ele>
        <time>2026-03-03T07:15:14.000Z</time>
      </trkpt>
      <trkpt lat="44.85541" lon="6.7272">
        <ele>1801.6</ele>
        <time>2026-03-03T07:15:15.000Z</time>
      </trkpt>
      <trkpt lat="44.8554" lon="6.7272">
        <ele>1801.7</ele>
        <time>2026-03-03T07:15:16.000Z</time>
      </trkpt>
      <trkpt lat="44.85539" lon="6.7272">
        <ele>1801.9</ele>
        <time>2026-03-03T07:15:17.000Z</time>
      </trkpt>
      <trkpt lat="44.85538" lon="6.7272">
        <ele>1801.9</ele>
        <time>2026-03-03T07:15:18.000Z</time>
      </trkpt>
      <trkpt lat="44.85536" lon="6.72719">
        <ele>1802.1</ele>
        <time>2026-03-03T07:15:19.000Z</time>
      </trkpt>
      <trkpt lat="44.85535" lon="6.72719">
        <ele>1802.3</ele>
        <time>2026-03-03T07:15:20.000Z</time>
      </trkpt>
      <trkpt lat="44.85534" lon="6.72719">
        <ele>1802.4</ele>
        <time>2026-03-03T07:15:21.000Z</time>
      </trkpt>
      <trkpt lat="44.85533" lon="6.72719">
        <ele>1802.3</ele>
        <time>2026-03-03T07:15:22.000Z</time>
      </trkpt>
      <trkpt lat="44.85532" lon="6.72719">
        <ele>1802.2</ele>
        <time>2026-03-03T07:15:23.000Z</time>
      </trkpt>
      <trkpt lat="44.85531" lon="6.72719">
        <ele>1802.3</ele>
        <time>2026-03-03T07:15:24.000Z</time>
      </trkpt>
      <trkpt lat="44.8553" lon="6.72719">
        <ele>1802.5</ele>
        <time>2026-03-03T07:15:25.000Z</time>
      </trkpt>
      <trkpt lat="44.8553" lon="6.7272">
        <ele>1802.5</ele>
        <time>2026-03-03T07:15:26.000Z</time>
      </trkpt>
      <trkpt lat="44.85529" lon="6.7272">
        <ele>1802.6</ele>
        <time>2026-03-03T07:15:27.000Z</time>
      </trkpt>
      <trkpt lat="44.85529" lon="6.7272">
        <ele>1802.9</ele>
        <time>2026-03-03T07:15:28.000Z</time>
      </trkpt>
      <trkpt lat="44.85528" lon="6.7272">
        <ele>1803.1</ele>
        <time>2026-03-03T07:15:29.000Z</time>
      </trkpt>
      <trkpt lat="44.85527" lon="6.7272">
        <ele>1803.4</ele>
        <time>2026-03-03T07:15:30.000Z</time>
      </trkpt>
      <trkpt lat="44.85526" lon="6.7272">
        <ele>1803.4</ele>
        <time>2026-03-03T07:15:31.000Z</time>
      </trkpt>
      <trkpt lat="44.85525" lon="6.7272">
        <ele>1803.4</ele>
        <time>2026-03-03T07:15:32.000Z</time>
      </trkpt>
      <trkpt lat="44.85524" lon="6.7272">
        <ele>1803.4</ele>
        <time>2026-03-03T07:15:33.000Z</time>
      </trkpt>
      <trkpt lat="44.85523" lon="6.7272">
        <ele>1803.4</ele>
        <time>2026-03-03T07:15:34.000Z</time>
      </trkpt>
      <trkpt lat="44.85523" lon="6.72721">
        <ele>1803.6</ele>
        <time>2026-03-03T07:15:35.000Z</time>
      </trkpt>
      <trkpt lat="44.85522" lon="6.72722">
        <ele>1803.8</ele>
        <time>2026-03-03T07:15:36.000Z</time>
      </trkpt>
      <trkpt lat="44.85521" lon="6.72723">
        <ele>1804</ele>
        <time>2026-03-03T07:15:37.000Z</time>
      </trkpt>
      <trkpt lat="44.8552" lon="6.72724">
        <ele>1804.3</ele>
        <time>2026-03-03T07:15:38.000Z</time>
      </trkpt>
      <trkpt lat="44.8552" lon="6.72726">
        <ele>1804.5</ele>
        <time>2026-03-03T07:15:39.000Z</time>
      </trkpt>
      <trkpt lat="44.85519" lon="6.72727">
        <ele>1804.6</ele>
        <time>2026-03-03T07:15:40.000Z</time>
      </trkpt>
      <trkpt lat="44.85518" lon="6.72728">
        <ele>1804.6</ele>
        <time>2026-03-03T07:15:41.000Z</time>
      </trkpt>
      <trkpt lat="44.85518" lon="6.72729">
        <ele>1804.5</ele>
        <time>2026-03-03T07:15:42.000Z</time>
      </trkpt>
      <trkpt lat="44.85518" lon="6.7273">
        <ele>1804.2</ele>
        <time>2026-03-03T07:15:43.000Z</time>
      </trkpt>
      <trkpt lat="44.85517" lon="6.72731">
        <ele>1804</ele>
        <time>2026-03-03T07:15:44.000Z</time>
      </trkpt>
      <trkpt lat="44.85517" lon="6.72731">
        <ele>1804</ele>
        <time>2026-03-03T07:15:45.000Z</time>
      </trkpt>
      <trkpt lat="44.85517" lon="6.72733">
        <ele>1804.1</ele>
        <time>2026-03-03T07:15:46.000Z</time>
      </trkpt>
      <trkpt lat="44.85517" lon="6.72734">
        <ele>1804.1</ele>
        <time>2026-03-03T07:15:47.000Z</time>
      </trkpt>
      <trkpt lat="44.85517" lon="6.72735">
        <ele>1804.2</ele>
        <time>2026-03-03T07:15:48.000Z</time>
      </trkpt>
      <trkpt lat="44.85516" lon="6.72736">
        <ele>1803.9</ele>
        <time>2026-03-03T07:15:49.000Z</time>
      </trkpt>
      <trkpt lat="44.85515" lon="6.72737">
        <ele>1803.7</ele>
        <time>2026-03-03T07:15:50.000Z</time>
      </trkpt>
      <trkpt lat="44.85515" lon="6.72738">
        <ele>1803.6</ele>
        <time>2026-03-03T07:15:51.000Z</time>
      </trkpt>
      <trkpt lat="44.85514" lon="6.72738">
        <ele>1803.3</ele>
        <time>2026-03-03T07:15:52.000Z</time>
      </trkpt>
      <trkpt lat="44.85513" lon="6.7274">
        <ele>1800.4</ele>
        <time>2026-03-03T07:19:40.000Z</time>
      </trkpt>
      <trkpt lat="44.85512" lon="6.72741">
        <ele>1800.4</ele>
        <time>2026-03-03T07:19:41.000Z</time>
      </trkpt>
      <trkpt lat="44.85511" lon="6.72741">
        <ele>1800.5</ele>
        <time>2026-03-03T07:19:42.000Z</time>
      </trkpt>
      <trkpt lat="44.85511" lon="6.72742">
        <ele>1800.6</ele>
        <time>2026-03-03T07:19:43.000Z</time>
      </trkpt>
      <trkpt lat="44.85511" lon="6.72743">
        <ele>1800.8</ele>
        <time>2026-03-03T07:19:44.000Z</time>
      </trkpt>
      <trkpt lat="44.8551" lon="6.72743">
        <ele>1800.7</ele>
        <time>2026-03-03T07:19:45.000Z</time>
      </trkpt>
      <trkpt lat="44.8551" lon="6.72744">
        <ele>1801</ele>
        <time>2026-03-03T07:19:46.000Z</time>
      </trkpt>
      <trkpt lat="44.8551" lon="6.72745">
        <ele>1801.3</ele>
        <time>2026-03-03T07:19:47.000Z</time>
      </trkpt>
      <trkpt lat="44.85509" lon="6.72744">
        <ele>1801.7</ele>
        <time>2026-03-03T07:19:48.000Z</time>
      </trkpt>
      <trkpt lat="44.85509" lon="6.72744">
        <ele>1802.2</ele>
        <time>2026-03-03T07:19:49.000Z</time>
      </trkpt>
      <trkpt lat="44.85508" lon="6.72746">
        <ele>1803.7</ele>
        <time>2026-03-03T07:20:36.000Z</time>
      </trkpt>
      <trkpt lat="44.85507" lon="6.72747">
        <ele>1803.7</ele>
        <time>2026-03-03T07:20:37.000Z</time>
      </trkpt>
      <trkpt lat="44.85506" lon="6.72748">
        <ele>1804</ele>
        <time>2026-03-03T07:20:38.000Z</time>
      </trkpt>
      <trkpt lat="44.85505" lon="6.72748">
        <ele>1803.9</ele>
        <time>2026-03-03T07:20:39.000Z</time>
      </trkpt>
      <trkpt lat="44.85504" lon="6.72749">
        <ele>1804</ele>
        <time>2026-03-03T07:20:40.000Z</time>
      </trkpt>
      <trkpt lat="44.85504" lon="6.7275">
        <ele>1804.1</ele>
        <time>2026-03-03T07:20:41.000Z</time>
      </trkpt>
      <trkpt lat="44.85504" lon="6.7275">
        <ele>1804</ele>
        <time>2026-03-03T07:20:42.000Z</time>
      </trkpt>
      <trkpt lat="44.85503" lon="6.7275">
        <ele>1804.3</ele>
        <time>2026-03-03T07:20:43.000Z</time>
      </trkpt>
      <trkpt lat="44.85502" lon="6.72751">
        <ele>1804.2</ele>
        <time>2026-03-03T07:20:44.000Z</time>
      </trkpt>
      <trkpt lat="44.85502" lon="6.72751">
        <ele>1804.3</ele>
        <time>2026-03-03T07:20:45.000Z</time>
      </trkpt>
      <trkpt lat="44.85502" lon="6.72752">
        <ele>1804.6</ele>
        <time>2026-03-03T07:20:46.000Z</time>
      </trkpt>
      <trkpt lat="44.85501" lon="6.72753">
        <ele>1804.7</ele>
        <time>2026-03-03T07:20:47.000Z</time>
      </trkpt>
      <trkpt lat="44.85501" lon="6.72753">
        <ele>1804.8</ele>
        <time>2026-03-03T07:20:48.000Z</time>
      </trkpt>
      <trkpt lat="44.85501" lon="6.72754">
        <ele>1804.9</ele>
        <time>2026-03-03T07:20:49.000Z</time>
      </trkpt>
      <trkpt lat="44.855" lon="6.72755">
        <ele>1805</ele>
        <time>2026-03-03T07:20:50.000Z</time>
      </trkpt>
      <trkpt lat="44.855" lon="6.72756">
        <ele>1805.1</ele>
        <time>2026-03-03T07:20:51.000Z</time>
      </trkpt>
      <trkpt lat="44.85499" lon="6.72757">
        <ele>1805</ele>
        <time>2026-03-03T07:20:52.000Z</time>
      </trkpt>
      <trkpt lat="44.85499" lon="6.72757">
        <ele>1804.9</ele>
        <time>2026-03-03T07:20:53.000Z</time>
      </trkpt>
      <trkpt lat="44.85498" lon="6.72758">
        <ele>1804.8</ele>
        <time>2026-03-03T07:20:54.000Z</time>
      </trkpt>
      <trkpt lat="44.85498" lon="6.72759">
        <ele>1804.8</ele>
        <time>2026-03-03T07:20:55.000Z</time>
      </trkpt>
      <trkpt lat="44.85497" lon="6.72759">
        <ele>1805.1</ele>
        <time>2026-03-03T07:20:56.000Z</time>
      </trkpt>
      <trkpt lat="44.85496" lon="6.7276">
        <ele>1805.3</ele>
        <time>2026-03-03T07:20:57.000Z</time>
      </trkpt>
      <trkpt lat="44.85495" lon="6.72761">
        <ele>1805.2</ele>
        <time>2026-03-03T07:20:58.000Z</time>
      </trkpt>
      <trkpt lat="44.85495" lon="6.72761">
        <ele>1805.1</ele>
        <time>2026-03-03T07:20:59.000Z</time>
      </trkpt>
      <trkpt lat="44.85494" lon="6.72761">
        <ele>1804.8</ele>
        <time>2026-03-03T07:21:00.000Z</time>
      </trkpt>
      <trkpt lat="44.85493" lon="6.72762">
        <ele>1804.6</ele>
        <time>2026-03-03T07:21:01.000Z</time>
      </trkpt>
      <trkpt lat="44.85493" lon="6.72762">
        <ele>1804.5</ele>
        <time>2026-03-03T07:21:02.000Z</time>
      </trkpt>
      <trkpt lat="44.85492" lon="6.72763">
        <ele>1804.2</ele>
        <time>2026-03-03T07:21:03.000Z</time>
      </trkpt>
      <trkpt lat="44.8549" lon="6.72764">
        <ele>1804.1</ele>
        <time>2026-03-03T07:21:04.000Z</time>
      </trkpt>
      <trkpt lat="44.8549" lon="6.72764">
        <ele>1804.2</ele>
        <time>2026-03-03T07:21:05.000Z</time>
      </trkpt>
      <trkpt lat="44.85489" lon="6.72765">
        <ele>1804.1</ele>
        <time>2026-03-03T07:21:06.000Z</time>
      </trkpt>
      <trkpt lat="44.85488" lon="6.72766">
        <ele>1804.1</ele>
        <time>2026-03-03T07:21:07.000Z</time>
      </trkpt>
      <trkpt lat="44.85488" lon="6.72766">
        <ele>1804.1</ele>
        <time>2026-03-03T07:21:08.000Z</time>
      </trkpt>
      <trkpt lat="44.85488" lon="6.72767">
        <ele>1804</ele>
        <time>2026-03-03T07:21:09.000Z</time>
      </trkpt>
      <trkpt lat="44.85488" lon="6.72768">
        <ele>1803.9</ele>
        <time>2026-03-03T07:21:10.000Z</time>
      </trkpt>
      <trkpt lat="44.85487" lon="6.72769">
        <ele>1803.8</ele>
        <time>2026-03-03T07:21:11.000Z</time>
      </trkpt>
      <trkpt lat="44.85486" lon="6.7277">
        <ele>1803.6</ele>
        <time>2026-03-03T07:21:12.000Z</time>
      </trkpt>
      <trkpt lat="44.85485" lon="6.72771">
        <ele>1803.4</ele>
        <time>2026-03-03T07:21:13.000Z</time>
      </trkpt>
      <trkpt lat="44.85484" lon="6.72772">
        <ele>1803.1</ele>
        <time>2026-03-03T07:21:14.000Z</time>
      </trkpt>
      <trkpt lat="44.85484" lon="6.72773">
        <ele>1803.1</ele>
        <time>2026-03-03T07:21:15.000Z</time>
      </trkpt>
      <trkpt lat="44.85483" lon="6.72774">
        <ele>1803.1</ele>
        <time>2026-03-03T07:21:16.000Z</time>
      </trkpt>
      <trkpt lat="44.85483" lon="6.72774">
        <ele>1803</ele>
        <time>2026-03-03T07:21:17.000Z</time>
      </trkpt>
      <trkpt lat="44.85482" lon="6.72774">
        <ele>1802.8</ele>
        <time>2026-03-03T07:21:18.000Z</time>
      </trkpt>
      <trkpt lat="44.85481" lon="6.72775">
        <ele>1802.7</ele>
        <time>2026-03-03T07:21:19.000Z</time>
      </trkpt>
      <trkpt lat="44.8548" lon="6.72776">
        <ele>1802.7</ele>
        <time>2026-03-03T07:21:20.000Z</time>
      </trkpt>
      <trkpt lat="44.8548" lon="6.72777">
        <ele>1802.5</ele>
        <time>2026-03-03T07:21:21.000Z</time>
      </trkpt>
      <trkpt lat="44.85479" lon="6.72777">
        <ele>1802.4</ele>
        <time>2026-03-03T07:21:22.000Z</time>
      </trkpt>
      <trkpt lat="44.85478" lon="6.72778">
        <ele>1802</ele>
        <time>2026-03-03T07:21:23.000Z</time>
      </trkpt>
      <trkpt lat="44.85478" lon="6.72778">
        <ele>1802.1</ele>
        <time>2026-03-03T07:21:24.000Z</time>
      </trkpt>
      <trkpt lat="44.85477" lon="6.72778">
        <ele>1802.2</ele>
        <time>2026-03-03T07:21:25.000Z</time>
      </trkpt>
      <trkpt lat="44.85476" lon="6.72779">
        <ele>1802.1</ele>
        <time>2026-03-03T07:21:26.000Z</time>
      </trkpt>
      <trkpt lat="44.85475" lon="6.72779">
        <ele>1801.8</ele>
        <time>2026-03-03T07:21:27.000Z</time>
      </trkpt>
      <trkpt lat="44.85475" lon="6.72781">
        <ele>1801.8</ele>
        <time>2026-03-03T07:21:28.000Z</time>
      </trkpt>
      <trkpt lat="44.85475" lon="6.72782">
        <ele>1801.7</ele>
        <time>2026-03-03T07:21:29.000Z</time>
      </trkpt>
      <trkpt lat="44.85474" lon="6.72782">
        <ele>1801.3</ele>
        <time>2026-03-03T07:21:30.000Z</time>
      </trkpt>
      <trkpt lat="44.85474" lon="6.72784">
        <ele>1801.2</ele>
        <time>2026-03-03T07:21:31.000Z</time>
      </trkpt>
      <trkpt lat="44.85473" lon="6.72784">
        <ele>1801.3</ele>
        <time>2026-03-03T07:21:32.000Z</time>
      </trkpt>
      <trkpt lat="44.85473" lon="6.72785">
        <ele>1801.5</ele>
        <time>2026-03-03T07:21:33.000Z</time>
      </trkpt>
      <trkpt lat="44.85472" lon="6.72786">
        <ele>1801.2</ele>
        <time>2026-03-03T07:21:34.000Z</time>
      </trkpt>
      <trkpt lat="44.85471" lon="6.72787">
        <ele>1800.9</ele>
        <time>2026-03-03T07:21:35.000Z</time>
      </trkpt>
      <trkpt lat="44.8547" lon="6.72787">
        <ele>1800.5</ele>
        <time>2026-03-03T07:21:36.000Z</time>
      </trkpt>
      <trkpt lat="44.85469" lon="6.72788">
        <ele>1800.6</ele>
        <time>2026-03-03T07:21:37.000Z</time>
      </trkpt>
      <trkpt lat="44.85468" lon="6.72789">
        <ele>1800.7</ele>
        <time>2026-03-03T07:21:38.000Z</time>
      </trkpt>
      <trkpt lat="44.85468" lon="6.72789">
        <ele>1801</ele>
        <time>2026-03-03T07:21:39.000Z</time>
      </trkpt>
      <trkpt lat="44.85467" lon="6.7279">
        <ele>1801</ele>
        <time>2026-03-03T07:21:40.000Z</time>
      </trkpt>
      <trkpt lat="44.85467" lon="6.7279">
        <ele>1801.2</ele>
        <time>2026-03-03T07:21:41.000Z</time>
      </trkpt>
      <trkpt lat="44.85467" lon="6.72791">
        <ele>1801.3</ele>
        <time>2026-03-03T07:21:42.000Z</time>
      </trkpt>
      <trkpt lat="44.85466" lon="6.72791">
        <ele>1801.3</ele>
        <time>2026-03-03T07:21:43.000Z</time>
      </trkpt>
      <trkpt lat="44.85465" lon="6.72791">
        <ele>1801.7</ele>
        <time>2026-03-03T07:21:44.000Z</time>
      </trkpt>
      <trkpt lat="44.85464" lon="6.72792">
        <ele>1801.6</ele>
        <time>2026-03-03T07:21:45.000Z</time>
      </trkpt>
      <trkpt lat="44.85463" lon="6.72793">
        <ele>1802.1</ele>
        <time>2026-03-03T07:21:46.000Z</time>
      </trkpt>
      <trkpt lat="44.85462" lon="6.72793">
        <ele>1802.3</ele>
        <time>2026-03-03T07:21:47.000Z</time>
      </trkpt>
      <trkpt lat="44.85462" lon="6.72795">
        <ele>1802.6</ele>
        <time>2026-03-03T07:21:48.000Z</time>
      </trkpt>
      <trkpt lat="44.85461" lon="6.72795">
        <ele>1802.8</ele>
        <time>2026-03-03T07:21:49.000Z</time>
      </trkpt>
      <trkpt lat="44.8546" lon="6.72795">
        <ele>1802.9</ele>
        <time>2026-03-03T07:21:50.000Z</time>
      </trkpt>
      <trkpt lat="44.85459" lon="6.72796">
        <ele>1802.9</ele>
        <time>2026-03-03T07:21:51.000Z</time>
      </trkpt>
      <trkpt lat="44.85459" lon="6.72796">
        <ele>1803</ele>
        <time>2026-03-03T07:21:52.000Z</time>
      </trkpt>
      <trkpt lat="44.85458" lon="6.72797">
        <ele>1803.1</ele>
        <time>2026-03-03T07:21:53.000Z</time>
      </trkpt>
      <trkpt lat="44.85457" lon="6.72798">
        <ele>1802.9</ele>
        <time>2026-03-03T07:21:54.000Z</time>
      </trkpt>
      <trkpt lat="44.85457" lon="6.72799">
        <ele>1803.1</ele>
        <time>2026-03-03T07:21:55.000Z</time>
      </trkpt>
      <trkpt lat="44.85457" lon="6.728">
        <ele>1803.3</ele>
        <time>2026-03-03T07:21:56.000Z</time>
      </trkpt>
      <trkpt lat="44.85456" lon="6.72801">
        <ele>1803.5</ele>
        <time>2026-03-03T07:21:57.000Z</time>
      </trkpt>
      <trkpt lat="44.85456" lon="6.72801">
        <ele>1803.8</ele>
        <time>2026-03-03T07:21:58.000Z</time>
      </trkpt>
      <trkpt lat="44.85455" lon="6.72801">
        <ele>1803.9</ele>
        <time>2026-03-03T07:21:59.000Z</time>
      </trkpt>
      <trkpt lat="44.85454" lon="6.72802">
        <ele>1803.9</ele>
        <time>2026-03-03T07:22:00.000Z</time>
      </trkpt>
      <trkpt lat="44.85453" lon="6.72803">
        <ele>1803.9</ele>
        <time>2026-03-03T07:22:01.000Z</time>
      </trkpt>
      <trkpt lat="44.85452" lon="6.72803">
        <ele>1804</ele>
        <time>2026-03-03T07:22:02.000Z</time>
      </trkpt>
      <trkpt lat="44.85451" lon="6.72804">
        <ele>1804</ele>
        <time>2026-03-03T07:22:03.000Z</time>
      </trkpt>
      <trkpt lat="44.85451" lon="6.72805">
        <ele>1804.1</ele>
        <time>2026-03-03T07:22:04.000Z</time>
      </trkpt>
      <trkpt lat="44.85451" lon="6.72806">
        <ele>1804.1</ele>
        <time>2026-03-03T07:22:05.000Z</time>
      </trkpt>
      <trkpt lat="44.8545" lon="6.72807">
        <ele>1804</ele>
        <time>2026-03-03T07:22:06.000Z</time>
      </trkpt>
      <trkpt lat="44.8545" lon="6.72808">
        <ele>1803.9</ele>
        <time>2026-03-03T07:22:07.000Z</time>
      </trkpt>
      <trkpt lat="44.8545" lon="6.72809">
        <ele>1803.8</ele>
        <time>2026-03-03T07:22:08.000Z</time>
      </trkpt>
      <trkpt lat="44.85449" lon="6.72809">
        <ele>1803.7</ele>
        <time>2026-03-03T07:22:09.000Z</time>
      </trkpt>
      <trkpt lat="44.85448" lon="6.72809">
        <ele>1803.7</ele>
        <time>2026-03-03T07:22:10.000Z</time>
      </trkpt>
      <trkpt lat="44.85447" lon="6.7281">
        <ele>1803.8</ele>
        <time>2026-03-03T07:22:11.000Z</time>
      </trkpt>
      <trkpt lat="44.85446" lon="6.7281">
        <ele>1804</ele>
        <time>2026-03-03T07:22:12.000Z</time>
      </trkpt>
      <trkpt lat="44.85446" lon="6.72811">
        <ele>1804.2</ele>
        <time>2026-03-03T07:22:13.000Z</time>
      </trkpt>
      <trkpt lat="44.85445" lon="6.72811">
        <ele>1804.1</ele>
        <time>2026-03-03T07:22:14.000Z</time>
      </trkpt>
      <trkpt lat="44.85444" lon="6.72812">
        <ele>1803.9</ele>
        <time>2026-03-03T07:22:15.000Z</time>
      </trkpt>
      <trkpt lat="44.85444" lon="6.72813">
        <ele>1803.5</ele>
        <time>2026-03-03T07:22:16.000Z</time>
      </trkpt>
      <trkpt lat="44.85443" lon="6.72813">
        <ele>1803.3</ele>
        <time>2026-03-03T07:22:17.000Z</time>
      </trkpt>
      <trkpt lat="44.85443" lon="6.72814">
        <ele>1803.2</ele>
        <time>2026-03-03T07:22:18.000Z</time>
      </trkpt>
      <trkpt lat="44.85442" lon="6.72814">
        <ele>1803.2</ele>
        <time>2026-03-03T07:22:19.000Z</time>
      </trkpt>
      <trkpt lat="44.85441" lon="6.72815">
        <ele>1803.3</ele>
        <time>2026-03-03T07:22:20.000Z</time>
      </trkpt>
      <trkpt lat="44.8544" lon="6.72816">
        <ele>1803.2</ele>
        <time>2026-03-03T07:22:21.000Z</time>
      </trkpt>
      <trkpt lat="44.8544" lon="6.72817">
        <ele>1803.4</ele>
        <time>2026-03-03T07:22:22.000Z</time>
      </trkpt>
      <trkpt lat="44.85439" lon="6.72817">
        <ele>1803.5</ele>
        <time>2026-03-03T07:22:23.000Z</time>
      </trkpt>
      <trkpt lat="44.85439" lon="6.72817">
        <ele>1803.6</ele>
        <time>2026-03-03T07:22:24.000Z</time>
      </trkpt>
      <trkpt lat="44.85438" lon="6.72818">
        <ele>1803.6</ele>
        <time>2026-03-03T07:22:25.000Z</time>
      </trkpt>
      <trkpt lat="44.85438" lon="6.72819">
        <ele>1803.7</ele>
        <time>2026-03-03T07:22:26.000Z</time>
      </trkpt>
      <trkpt lat="44.85437" lon="6.72819">
        <ele>1804.2</ele>
        <time>2026-03-03T07:22:27.000Z</time>
      </trkpt>
      <trkpt lat="44.85437" lon="6.7282">
        <ele>1804.1</ele>
        <time>2026-03-03T07:22:28.000Z</time>
      </trkpt>
      <trkpt lat="44.85436" lon="6.72821">
        <ele>1804.3</ele>
        <time>2026-03-03T07:22:29.000Z</time>
      </trkpt>
      <trkpt lat="44.85435" lon="6.72822">
        <ele>1804.2</ele>
        <time>2026-03-03T07:22:30.000Z</time>
      </trkpt>
      <trkpt lat="44.85434" lon="6.72823">
        <ele>1804.2</ele>
        <time>2026-03-03T07:22:31.000Z</time>
      </trkpt>
      <trkpt lat="44.85433" lon="6.72824">
        <ele>1804</ele>
        <time>2026-03-03T07:22:32.000Z</time>
      </trkpt>
      <trkpt lat="44.85433" lon="6.72824">
        <ele>1804.1</ele>
        <time>2026-03-03T07:22:33.000Z</time>
      </trkpt>
      <trkpt lat="44.85433" lon="6.72825">
        <ele>1803.9</ele>
        <time>2026-03-03T07:22:34.000Z</time>
      </trkpt>
      <trkpt lat="44.85432" lon="6.72826">
        <ele>1803.6</ele>
        <time>2026-03-03T07:22:35.000Z</time>
      </trkpt>
      <trkpt lat="44.85432" lon="6.72826">
        <ele>1803.5</ele>
        <time>2026-03-03T07:22:36.000Z</time>
      </trkpt>
      <trkpt lat="44.85431" lon="6.72827">
        <ele>1803.5</ele>
        <time>2026-03-03T07:22:37.000Z</time>
      </trkpt>
      <trkpt lat="44.8543" lon="6.72828">
        <ele>1803.3</ele>
        <time>2026-03-03T07:22:38.000Z</time>
      </trkpt>
      <trkpt lat="44.8543" lon="6.72828">
        <ele>1803.1</ele>
        <time>2026-03-03T07:22:39.000Z</time>
      </trkpt>
      <trkpt lat="44.85429" lon="6.72829">
        <ele>1803.2</ele>
        <time>2026-03-03T07:22:40.000Z</time>
      </trkpt>
      <trkpt lat="44.85428" lon="6.7283">
        <ele>1803.3</ele>
        <time>2026-03-03T07:22:41.000Z</time>
      </trkpt>
      <trkpt lat="44.85428" lon="6.72831">
        <ele>1803.3</ele>
        <time>2026-03-03T07:22:42.000Z</time>
      </trkpt>
      <trkpt lat="44.85427" lon="6.72832">
        <ele>1803.3</ele>
        <time>2026-03-03T07:22:43.000Z</time>
      </trkpt>
      <trkpt lat="44.85426" lon="6.72832">
        <ele>1803.2</ele>
        <time>2026-03-03T07:22:44.000Z</time>
      </trkpt>
      <trkpt lat="44.85426" lon="6.72833">
        <ele>1803.1</ele>
        <time>2026-03-03T07:22:45.000Z</time>
      </trkpt>
      <trkpt lat="44.85425" lon="6.72833">
        <ele>1803</ele>
        <time>2026-03-03T07:22:46.000Z</time>
      </trkpt>
      <trkpt lat="44.85424" lon="6.72833">
        <ele>1803</ele>
        <time>2026-03-03T07:22:47.000Z</time>
      </trkpt>
      <trkpt lat="44.85423" lon="6.72834">
        <ele>1803.2</ele>
        <time>2026-03-03T07:22:48.000Z</time>
      </trkpt>
      <trkpt lat="44.85423" lon="6.72834">
        <ele>1803.4</ele>
        <time>2026-03-03T07:22:49.000Z</time>
      </trkpt>
      <trkpt lat="44.85422" lon="6.72835">
        <ele>1803.5</ele>
        <time>2026-03-03T07:22:50.000Z</time>
      </trkpt>
      <trkpt lat="44.85421" lon="6.72836">
        <ele>1803.5</ele>
        <time>2026-03-03T07:22:51.000Z</time>
      </trkpt>
      <trkpt lat="44.85421" lon="6.72837">
        <ele>1803.8</ele>
        <time>2026-03-03T07:22:52.000Z</time>
      </trkpt>
      <trkpt lat="44.85421" lon="6.72838">
        <ele>1804.1</ele>
        <time>2026-03-03T07:22:53.000Z</time>
      </trkpt>
      <trkpt lat="44.85421" lon="6.7284">
        <ele>1804.4</ele>
        <time>2026-03-03T07:22:54.000Z</time>
      </trkpt>
      <trkpt lat="44.8542" lon="6.7284">
        <ele>1804.4</ele>
        <time>2026-03-03T07:22:55.000Z</time>
      </trkpt>
      <trkpt lat="44.8542" lon="6.72841">
        <ele>1804.6</ele>
        <time>2026-03-03T07:22:56.000Z</time>
      </trkpt>
      <trkpt lat="44.8542" lon="6.72842">
        <ele>1804.4</ele>
        <time>2026-03-03T07:22:57.000Z</time>
      </trkpt>
      <trkpt lat="44.85419" lon="6.72842">
        <ele>1804.4</ele>
        <time>2026-03-03T07:22:58.000Z</time>
      </trkpt>
      <trkpt lat="44.85418" lon="6.72843">
        <ele>1804.3</ele>
        <time>2026-03-03T07:22:59.000Z</time>
      </trkpt>
      <trkpt lat="44.85417" lon="6.72843">
        <ele>1804.3</ele>
        <time>2026-03-03T07:23:00.000Z</time>
      </trkpt>
      <trkpt lat="44.85417" lon="6.72844">
        <ele>1804.3</ele>
        <time>2026-03-03T07:23:01.000Z</time>
      </trkpt>
      <trkpt lat="44.85416" lon="6.72845">
        <ele>1804.3</ele>
        <time>2026-03-03T07:23:02.000Z</time>
      </trkpt>
      <trkpt lat="44.85416" lon="6.72846">
        <ele>1804.5</ele>
        <time>2026-03-03T07:23:03.000Z</time>
      </trkpt>
      <trkpt lat="44.85415" lon="6.72846">
        <ele>1804.7</ele>
        <time>2026-03-03T07:23:04.000Z</time>
      </trkpt>
      <trkpt lat="44.85414" lon="6.72847">
        <ele>1805</ele>
        <time>2026-03-03T07:23:05.000Z</time>
      </trkpt>
      <trkpt lat="44.85414" lon="6.72848">
        <ele>1805.1</ele>
        <time>2026-03-03T07:23:06.000Z</time>
      </trkpt>
      <trkpt lat="44.85414" lon="6.72848">
        <ele>1805.3</ele>
        <time>2026-03-03T07:23:07.000Z</time>
      </trkpt>
      <trkpt lat="44.85413" lon="6.72849">
        <ele>1805.4</ele>
        <time>2026-03-03T07:23:08.000Z</time>
      </trkpt>
      <trkpt lat="44.85412" lon="6.7285">
        <ele>1805.5</ele>
        <time>2026-03-03T07:23:09.000Z</time>
      </trkpt>
      <trkpt lat="44.85412" lon="6.7285">
        <ele>1805.6</ele>
        <time>2026-03-03T07:23:10.000Z</time>
      </trkpt>
      <trkpt lat="44.85411" lon="6.72851">
        <ele>1805.9</ele>
        <time>2026-03-03T07:23:11.000Z</time>
      </trkpt>
      <trkpt lat="44.8541" lon="6.72852">
        <ele>1806</ele>
        <time>2026-03-03T07:23:12.000Z</time>
      </trkpt>
      <trkpt lat="44.85409" lon="6.72852">
        <ele>1806.1</ele>
        <time>2026-03-03T07:23:13.000Z</time>
      </trkpt>
      <trkpt lat="44.85408" lon="6.72853">
        <ele>1806.4</ele>
        <time>2026-03-03T07:23:14.000Z</time>
      </trkpt>
      <trkpt lat="44.85408" lon="6.72854">
        <ele>1806.7</ele>
        <time>2026-03-03T07:23:15.000Z</time>
      </trkpt>
      <trkpt lat="44.85407" lon="6.72855">
        <ele>1806.8</ele>
        <time>2026-03-03T07:23:16.000Z</time>
      </trkpt>
      <trkpt lat="44.85407" lon="6.72856">
        <ele>1806.6</ele>
        <time>2026-03-03T07:23:17.000Z</time>
      </trkpt>
      <trkpt lat="44.85406" lon="6.72856">
        <ele>1806.7</ele>
        <time>2026-03-03T07:23:18.000Z</time>
      </trkpt>
      <trkpt lat="44.85405" lon="6.72857">
        <ele>1806.9</ele>
        <time>2026-03-03T07:23:19.000Z</time>
      </trkpt>
      <trkpt lat="44.85404" lon="6.72857">
        <ele>1807</ele>
        <time>2026-03-03T07:23:20.000Z</time>
      </trkpt>
      <trkpt lat="44.85404" lon="6.72858">
        <ele>1807.2</ele>
        <time>2026-03-03T07:23:21.000Z</time>
      </trkpt>
      <trkpt lat="44.85403" lon="6.72859">
        <ele>1807.4</ele>
        <time>2026-03-03T07:23:22.000Z</time>
      </trkpt>
      <trkpt lat="44.85403" lon="6.72859">
        <ele>1807.4</ele>
        <time>2026-03-03T07:23:23.000Z</time>
      </trkpt>
      <trkpt lat="44.85402" lon="6.7286">
        <ele>1807.5</ele>
        <time>2026-03-03T07:23:24.000Z</time>
      </trkpt>
      <trkpt lat="44.85402" lon="6.72861">
        <ele>1807.7</ele>
        <time>2026-03-03T07:23:25.000Z</time>
      </trkpt>
      <trkpt lat="44.85402" lon="6.72861">
        <ele>1807.8</ele>
        <time>2026-03-03T07:23:26.000Z</time>
      </trkpt>
      <trkpt lat="44.85401" lon="6.72862">
        <ele>1807.8</ele>
        <time>2026-03-03T07:23:27.000Z</time>
      </trkpt>
      <trkpt lat="44.85401" lon="6.72863">
        <ele>1807.8</ele>
        <time>2026-03-03T07:23:28.000Z</time>
      </trkpt>
      <trkpt lat="44.854" lon="6.72864">
        <ele>1808</ele>
        <time>2026-03-03T07:23:29.000Z</time>
      </trkpt>
      <trkpt lat="44.854" lon="6.72865">
        <ele>1808.3</ele>
        <time>2026-03-03T07:23:30.000Z</time>
      </trkpt>
      <trkpt lat="44.85399" lon="6.72866">
        <ele>1808.5</ele>
        <time>2026-03-03T07:23:31.000Z</time>
      </trkpt>
      <trkpt lat="44.85398" lon="6.72866">
        <ele>1808.6</ele>
        <time>2026-03-03T07:23:32.000Z</time>
      </trkpt>
      <trkpt lat="44.85398" lon="6.72867">
        <ele>1808.6</ele>
        <time>2026-03-03T07:23:33.000Z</time>
      </trkpt>
      <trkpt lat="44.85397" lon="6.72868">
        <ele>1808.6</ele>
        <time>2026-03-03T07:23:34.000Z</time>
      </trkpt>
      <trkpt lat="44.85396" lon="6.72869">
        <ele>1808.5</ele>
        <time>2026-03-03T07:23:35.000Z</time>
      </trkpt>
      <trkpt lat="44.85396" lon="6.7287">
        <ele>1808.4</ele>
        <time>2026-03-03T07:23:36.000Z</time>
      </trkpt>
      <trkpt lat="44.85395" lon="6.72871">
        <ele>1808.3</ele>
        <time>2026-03-03T07:23:37.000Z</time>
      </trkpt>
      <trkpt lat="44.85394" lon="6.72871">
        <ele>1808.4</ele>
        <time>2026-03-03T07:23:38.000Z</time>
      </trkpt>
      <trkpt lat="44.85394" lon="6.72872">
        <ele>1808.4</ele>
        <time>2026-03-03T07:23:39.000Z</time>
      </trkpt>
      <trkpt lat="44.85393" lon="6.72872">
        <ele>1808.6</ele>
        <time>2026-03-03T07:23:40.000Z</time>
      </trkpt>
      <trkpt lat="44.85393" lon="6.72873">
        <ele>1808.4</ele>
        <time>2026-03-03T07:23:41.000Z</time>
      </trkpt>
      <trkpt lat="44.85393" lon="6.72874">
        <ele>1808.5</ele>
        <time>2026-03-03T07:23:42.000Z</time>
      </trkpt>
      <trkpt lat="44.85392" lon="6.72875">
        <ele>1808.6</ele>
        <time>2026-03-03T07:23:43.000Z</time>
      </trkpt>
      <trkpt lat="44.85392" lon="6.72876">
        <ele>1808.6</ele>
        <time>2026-03-03T07:23:44.000Z</time>
      </trkpt>
      <trkpt lat="44.85391" lon="6.72877">
        <ele>1808.4</ele>
        <time>2026-03-03T07:23:45.000Z</time>
      </trkpt>
      <trkpt lat="44.8539" lon="6.72876">
        <ele>1808.2</ele>
        <time>2026-03-03T07:23:46.000Z</time>
      </trkpt>
      <trkpt lat="44.85389" lon="6.72877">
        <ele>1808.4</ele>
        <time>2026-03-03T07:23:47.000Z</time>
      </trkpt>
      <trkpt lat="44.85389" lon="6.72877">
        <ele>1808.4</ele>
        <time>2026-03-03T07:23:48.000Z</time>
      </trkpt>
      <trkpt lat="44.85388" lon="6.72878">
        <ele>1808.7</ele>
        <time>2026-03-03T07:23:49.000Z</time>
      </trkpt>
      <trkpt lat="44.85388" lon="6.72879">
        <ele>1808.8</ele>
        <time>2026-03-03T07:23:50.000Z</time>
      </trkpt>
      <trkpt lat="44.85387" lon="6.72879">
        <ele>1808.7</ele>
        <time>2026-03-03T07:23:51.000Z</time>
      </trkpt>
      <trkpt lat="44.85387" lon="6.7288">
        <ele>1808.6</ele>
        <time>2026-03-03T07:23:52.000Z</time>
      </trkpt>
      <trkpt lat="44.85386" lon="6.72881">
        <ele>1808.7</ele>
        <time>2026-03-03T07:23:53.000Z</time>
      </trkpt>
      <trkpt lat="44.85385" lon="6.72881">
        <ele>1808.7</ele>
        <time>2026-03-03T07:23:54.000Z</time>
      </trkpt>
      <trkpt lat="44.85385" lon="6.72882">
        <ele>1808.8</ele>
        <time>2026-03-03T07:23:55.000Z</time>
      </trkpt>
      <trkpt lat="44.85385" lon="6.72882">
        <ele>1808.7</ele>
        <time>2026-03-03T07:23:56.000Z</time>
      </trkpt>
      <trkpt lat="44.85384" lon="6.72883">
        <ele>1808.6</ele>
        <time>2026-03-03T07:23:57.000Z</time>
      </trkpt>
      <trkpt lat="44.85384" lon="6.72884">
        <ele>1808.5</ele>
        <time>2026-03-03T07:23:58.000Z</time>
      </trkpt>
      <trkpt lat="44.85383" lon="6.72885">
        <ele>1808.4</ele>
        <time>2026-03-03T07:23:59.000Z</time>
      </trkpt>
      <trkpt lat="44.85383" lon="6.72886">
        <ele>1808.3</ele>
        <time>2026-03-03T07:24:00.000Z</time>
      </trkpt>
      <trkpt lat="44.85382" lon="6.72887">
        <ele>1808.3</ele>
        <time>2026-03-03T07:24:01.000Z</time>
      </trkpt>
      <trkpt lat="44.85382" lon="6.72887">
        <ele>1808.4</ele>
        <time>2026-03-03T07:24:02.000Z</time>
      </trkpt>
      <trkpt lat="44.85381" lon="6.72888">
        <ele>1808.3</ele>
        <time>2026-03-03T07:24:03.000Z</time>
      </trkpt>
      <trkpt lat="44.8538" lon="6.72889">
        <ele>1808.5</ele>
        <time>2026-03-03T07:24:04.000Z</time>
      </trkpt>
      <trkpt lat="44.85379" lon="6.7289">
        <ele>1808.4</ele>
        <time>2026-03-03T07:24:05.000Z</time>
      </trkpt>
      <trkpt lat="44.85379" lon="6.72891">
        <ele>1808.3</ele>
        <time>2026-03-03T07:24:06.000Z</time>
      </trkpt>
      <trkpt lat="44.85378" lon="6.72892">
        <ele>1808.1</ele>
        <time>2026-03-03T07:24:07.000Z</time>
      </trkpt>
      <trkpt lat="44.85378" lon="6.72892">
        <ele>1808</ele>
        <time>2026-03-03T07:24:08.000Z</time>
      </trkpt>
      <trkpt lat="44.85377" lon="6.72893">
        <ele>1807.8</ele>
        <time>2026-03-03T07:24:09.000Z</time>
      </trkpt>
      <trkpt lat="44.85376" lon="6.72894">
        <ele>1807.8</ele>
        <time>2026-03-03T07:24:10.000Z</time>
      </trkpt>
      <trkpt lat="44.85376" lon="6.72896">
        <ele>1807.7</ele>
        <time>2026-03-03T07:24:11.000Z</time>
      </trkpt>
      <trkpt lat="44.85375" lon="6.72897">
        <ele>1807.6</ele>
        <time>2026-03-03T07:24:12.000Z</time>
      </trkpt>
      <trkpt lat="44.85374" lon="6.72897">
        <ele>1807.5</ele>
        <time>2026-03-03T07:24:13.000Z</time>
      </trkpt>
      <trkpt lat="44.85373" lon="6.72898">
        <ele>1807.5</ele>
        <time>2026-03-03T07:24:14.000Z</time>
      </trkpt>
      <trkpt lat="44.85373" lon="6.72898">
        <ele>1807.4</ele>
        <time>2026-03-03T07:24:15.000Z</time>
      </trkpt>
      <trkpt lat="44.85372" lon="6.72899">
        <ele>1807.3</ele>
        <time>2026-03-03T07:24:16.000Z</time>
      </trkpt>
      <trkpt lat="44.85372" lon="6.72899">
        <ele>1807.3</ele>
        <time>2026-03-03T07:24:17.000Z</time>
      </trkpt>
      <trkpt lat="44.85371" lon="6.729">
        <ele>1807.5</ele>
        <time>2026-03-03T07:24:18.000Z</time>
      </trkpt>
      <trkpt lat="44.85371" lon="6.72901">
        <ele>1807.7</ele>
        <time>2026-03-03T07:24:19.000Z</time>
      </trkpt>
      <trkpt lat="44.8537" lon="6.72903">
        <ele>1808.1</ele>
        <time>2026-03-03T07:24:20.999Z</time>
      </trkpt>
      <trkpt lat="44.8537" lon="6.72903">
        <ele>1808.2</ele>
        <time>2026-03-03T07:24:21.999Z</time>
      </trkpt>
      <trkpt lat="44.85369" lon="6.72904">
        <ele>1808.2</ele>
        <time>2026-03-03T07:24:22.999Z</time>
      </trkpt>
      <trkpt lat="44.85368" lon="6.72904">
        <ele>1808.2</ele>
        <time>2026-03-03T07:24:23.999Z</time>
      </trkpt>
      <trkpt lat="44.85368" lon="6.72904">
        <ele>1808.2</ele>
        <time>2026-03-03T07:24:24.999Z</time>
      </trkpt>
      <trkpt lat="44.85367" lon="6.72905">
        <ele>1808.1</ele>
        <time>2026-03-03T07:24:25.999Z</time>
      </trkpt>
      <trkpt lat="44.85367" lon="6.72906">
        <ele>1807.9</ele>
        <time>2026-03-03T07:24:26.999Z</time>
      </trkpt>
      <trkpt lat="44.85366" lon="6.72907">
        <ele>1808</ele>
        <time>2026-03-03T07:24:27.999Z</time>
      </trkpt>
      <trkpt lat="44.85365" lon="6.72908">
        <ele>1808.3</ele>
        <time>2026-03-03T07:24:28.999Z</time>
      </trkpt>
      <trkpt lat="44.85364" lon="6.72909">
        <ele>1808.6</ele>
        <time>2026-03-03T07:24:29.999Z</time>
      </trkpt>
      <trkpt lat="44.85364" lon="6.7291">
        <ele>1808.8</ele>
        <time>2026-03-03T07:24:30.999Z</time>
      </trkpt>
      <trkpt lat="44.85363" lon="6.7291">
        <ele>1808.8</ele>
        <time>2026-03-03T07:24:31.999Z</time>
      </trkpt>
      <trkpt lat="44.85363" lon="6.72911">
        <ele>1808.8</ele>
        <time>2026-03-03T07:24:32.999Z</time>
      </trkpt>
      <trkpt lat="44.85362" lon="6.72912">
        <ele>1808.6</ele>
        <time>2026-03-03T07:24:33.999Z</time>
      </trkpt>
      <trkpt lat="44.85362" lon="6.72912">
        <ele>1808.5</ele>
        <time>2026-03-03T07:24:34.999Z</time>
      </trkpt>
      <trkpt lat="44.85361" lon="6.72913">
        <ele>1808.5</ele>
        <time>2026-03-03T07:24:35.999Z</time>
      </trkpt>
      <trkpt lat="44.85361" lon="6.72913">
        <ele>1808.8</ele>
        <time>2026-03-03T07:24:36.999Z</time>
      </trkpt>
      <trkpt lat="44.8536" lon="6.72914">
        <ele>1809.1</ele>
        <time>2026-03-03T07:24:37.999Z</time>
      </trkpt>
      <trkpt lat="44.8536" lon="6.72916">
        <ele>1809</ele>
        <time>2026-03-03T07:24:38.999Z</time>
      </trkpt>
      <trkpt lat="44.85359" lon="6.72916">
        <ele>1808.9</ele>
        <time>2026-03-03T07:24:39.999Z</time>
      </trkpt>
      <trkpt lat="44.85359" lon="6.72917">
        <ele>1808.9</ele>
        <time>2026-03-03T07:24:40.999Z</time>
      </trkpt>
      <trkpt lat="44.85358" lon="6.72917">
        <ele>1808.9</ele>
        <time>2026-03-03T07:24:41.999Z</time>
      </trkpt>
      <trkpt lat="44.85357" lon="6.72919">
        <ele>1809.1</ele>
        <time>2026-03-03T07:24:42.999Z</time>
      </trkpt>
      <trkpt lat="44.85356" lon="6.7292">
        <ele>1809.2</ele>
        <time>2026-03-03T07:24:43.999Z</time>
      </trkpt>
      <trkpt lat="44.85355" lon="6.72921">
        <ele>1809.5</ele>
        <time>2026-03-03T07:24:44.999Z</time>
      </trkpt>
      <trkpt lat="44.85355" lon="6.72922">
        <ele>1809.7</ele>
        <time>2026-03-03T07:24:45.999Z</time>
      </trkpt>
      <trkpt lat="44.85354" lon="6.72923">
        <ele>1809.6</ele>
        <time>2026-03-03T07:24:46.999Z</time>
      </trkpt>
      <trkpt lat="44.85354" lon="6.72924">
        <ele>1809.4</ele>
        <time>2026-03-03T07:24:47.999Z</time>
      </trkpt>
      <trkpt lat="44.85353" lon="6.72924">
        <ele>1809.2</ele>
        <time>2026-03-03T07:24:48.999Z</time>
      </trkpt>
      <trkpt lat="44.85352" lon="6.72925">
        <ele>1809.2</ele>
        <time>2026-03-03T07:24:49.999Z</time>
      </trkpt>
      <trkpt lat="44.85352" lon="6.72925">
        <ele>1809.4</ele>
        <time>2026-03-03T07:24:50.999Z</time>
      </trkpt>
      <trkpt lat="44.85351" lon="6.72926">
        <ele>1809.6</ele>
        <time>2026-03-03T07:24:51.999Z</time>
      </trkpt>
      <trkpt lat="44.8535" lon="6.72927">
        <ele>1809.6</ele>
        <time>2026-03-03T07:24:52.999Z</time>
      </trkpt>
      <trkpt lat="44.8535" lon="6.72928">
        <ele>1809.6</ele>
        <time>2026-03-03T07:24:53.999Z</time>
      </trkpt>
      <trkpt lat="44.85349" lon="6.72928">
        <ele>1809.5</ele>
        <time>2026-03-03T07:24:54.999Z</time>
      </trkpt>
      <trkpt lat="44.85348" lon="6.72928">
        <ele>1809.4</ele>
        <time>2026-03-03T07:24:55.999Z</time>
      </trkpt>
      <trkpt lat="44.85347" lon="6.72929">
        <ele>1809.4</ele>
        <time>2026-03-03T07:24:56.999Z</time>
      </trkpt>
      <trkpt lat="44.85347" lon="6.72929">
        <ele>1809.4</ele>
        <time>2026-03-03T07:24:57.999Z</time>
      </trkpt>
      <trkpt lat="44.85346" lon="6.7293">
        <ele>1809.4</ele>
        <time>2026-03-03T07:24:58.999Z</time>
      </trkpt>
      <trkpt lat="44.85346" lon="6.72931">
        <ele>1809.3</ele>
        <time>2026-03-03T07:24:59.999Z</time>
      </trkpt>
      <trkpt lat="44.85345" lon="6.72932">
        <ele>1809.4</ele>
        <time>2026-03-03T07:25:00.999Z</time>
      </trkpt>
      <trkpt lat="44.85344" lon="6.72933">
        <ele>1809.4</ele>
        <time>2026-03-03T07:25:01.999Z</time>
      </trkpt>
      <trkpt lat="44.85344" lon="6.72934">
        <ele>1809.3</ele>
        <time>2026-03-03T07:25:02.999Z</time>
      </trkpt>
      <trkpt lat="44.85343" lon="6.72935">
        <ele>1809.2</ele>
        <time>2026-03-03T07:25:03.999Z</time>
      </trkpt>
      <trkpt lat="44.85342" lon="6.72935">
        <ele>1809.3</ele>
        <time>2026-03-03T07:25:04.999Z</time>
      </trkpt>
      <trkpt lat="44.85342" lon="6.72937">
        <ele>1809.5</ele>
        <time>2026-03-03T07:25:05.999Z</time>
      </trkpt>
      <trkpt lat="44.85341" lon="6.72937">
        <ele>1809.4</ele>
        <time>2026-03-03T07:25:06.999Z</time>
      </trkpt>
      <trkpt lat="44.85341" lon="6.72937">
        <ele>1809.3</ele>
        <time>2026-03-03T07:25:07.999Z</time>
      </trkpt>
      <trkpt lat="44.8534" lon="6.72939">
        <ele>1809</ele>
        <time>2026-03-03T07:25:08.999Z</time>
      </trkpt>
      <trkpt lat="44.85339" lon="6.7294">
        <ele>1808.9</ele>
        <time>2026-03-03T07:25:09.999Z</time>
      </trkpt>
      <trkpt lat="44.85338" lon="6.7294">
        <ele>1808.9</ele>
        <time>2026-03-03T07:25:10.999Z</time>
      </trkpt>
      <trkpt lat="44.85337" lon="6.72941">
        <ele>1808.9</ele>
        <time>2026-03-03T07:25:11.999Z</time>
      </trkpt>
      <trkpt lat="44.85337" lon="6.72941">
        <ele>1809</ele>
        <time>2026-03-03T07:25:12.999Z</time>
      </trkpt>
      <trkpt lat="44.85336" lon="6.72941">
        <ele>1809</ele>
        <time>2026-03-03T07:25:13.999Z</time>
      </trkpt>
      <trkpt lat="44.85336" lon="6.72942">
        <ele>1809.1</ele>
        <time>2026-03-03T07:25:14.999Z</time>
      </trkpt>
      <trkpt lat="44.85335" lon="6.72942">
        <ele>1809.1</ele>
        <time>2026-03-03T07:25:15.999Z</time>
      </trkpt>
      <trkpt lat="44.85334" lon="6.72943">
        <ele>1809.1</ele>
        <time>2026-03-03T07:25:16.999Z</time>
      </trkpt>
      <trkpt lat="44.85334" lon="6.72944">
        <ele>1809.3</ele>
        <time>2026-03-03T07:25:17.999Z</time>
      </trkpt>
      <trkpt lat="44.85333" lon="6.72944">
        <ele>1809.4</ele>
        <time>2026-03-03T07:25:18.999Z</time>
      </trkpt>
      <trkpt lat="44.85333" lon="6.72945">
        <ele>1809.4</ele>
        <time>2026-03-03T07:25:19.999Z</time>
      </trkpt>
      <trkpt lat="44.85332" lon="6.72947">
        <ele>1809.3</ele>
        <time>2026-03-03T07:25:20.999Z</time>
      </trkpt>
      <trkpt lat="44.85331" lon="6.72947">
        <ele>1809.1</ele>
        <time>2026-03-03T07:25:21.999Z</time>
      </trkpt>
      <trkpt lat="44.85331" lon="6.72948">
        <ele>1808.9</ele>
        <time>2026-03-03T07:25:22.999Z</time>
      </trkpt>
      <trkpt lat="44.85331" lon="6.7295">
        <ele>1808.8</ele>
        <time>2026-03-03T07:25:23.999Z</time>
      </trkpt>
      <trkpt lat="44.85331" lon="6.72951">
        <ele>1808.7</ele>
        <time>2026-03-03T07:25:24.999Z</time>
      </trkpt>
      <trkpt lat="44.85331" lon="6.72951">
        <ele>1808.5</ele>
        <time>2026-03-03T07:25:25.999Z</time>
      </trkpt>
      <trkpt lat="44.8533" lon="6.72952">
        <ele>1808.1</ele>
        <time>2026-03-03T07:25:26.999Z</time>
      </trkpt>
      <trkpt lat="44.8533" lon="6.72953">
        <ele>1808</ele>
        <time>2026-03-03T07:25:27.999Z</time>
      </trkpt>
      <trkpt lat="44.85329" lon="6.72954">
        <ele>1807.9</ele>
        <time>2026-03-03T07:25:28.999Z</time>
      </trkpt>
      <trkpt lat="44.85328" lon="6.72955">
        <ele>1807.7</ele>
        <time>2026-03-03T07:25:29.999Z</time>
      </trkpt>
      <trkpt lat="44.85327" lon="6.72956">
        <ele>1807.7</ele>
        <time>2026-03-03T07:25:30.999Z</time>
      </trkpt>
      <trkpt lat="44.85326" lon="6.72957">
        <ele>1807.8</ele>
        <time>2026-03-03T07:25:31.999Z</time>
      </trkpt>
      <trkpt lat="44.85326" lon="6.72958">
        <ele>1807.7</ele>
        <time>2026-03-03T07:25:32.999Z</time>
      </trkpt>
      <trkpt lat="44.85325" lon="6.72959">
        <ele>1807.9</ele>
        <time>2026-03-03T07:25:33.999Z</time>
      </trkpt>
      <trkpt lat="44.85325" lon="6.72959">
        <ele>1808</ele>
        <time>2026-03-03T07:25:34.999Z</time>
      </trkpt>
      <trkpt lat="44.85324" lon="6.7296">
        <ele>1808.3</ele>
        <time>2026-03-03T07:25:35.999Z</time>
      </trkpt>
      <trkpt lat="44.85324" lon="6.7296">
        <ele>1808.2</ele>
        <time>2026-03-03T07:25:36.999Z</time>
      </trkpt>
      <trkpt lat="44.85323" lon="6.72961">
        <ele>1808</ele>
        <time>2026-03-03T07:25:37.999Z</time>
      </trkpt>
      <trkpt lat="44.85322" lon="6.72962">
        <ele>1807.9</ele>
        <time>2026-03-03T07:25:38.999Z</time>
      </trkpt>
      <trkpt lat="44.85322" lon="6.72963">
        <ele>1807.7</ele>
        <time>2026-03-03T07:25:39.999Z</time>
      </trkpt>
      <trkpt lat="44.85321" lon="6.72964">
        <ele>1807.8</ele>
        <time>2026-03-03T07:25:40.999Z</time>
      </trkpt>
      <trkpt lat="44.85321" lon="6.72965">
        <ele>1807.8</ele>
        <time>2026-03-03T07:25:41.999Z</time>
      </trkpt>
      <trkpt lat="44.8532" lon="6.72966">
        <ele>1808</ele>
        <time>2026-03-03T07:25:42.999Z</time>
      </trkpt>
      <trkpt lat="44.8532" lon="6.72967">
        <ele>1808</ele>
        <time>2026-03-03T07:25:43.999Z</time>
      </trkpt>
      <trkpt lat="44.85319" lon="6.72968">
        <ele>1808</ele>
        <time>2026-03-03T07:25:44.999Z</time>
      </trkpt>
      <trkpt lat="44.85318" lon="6.72968">
        <ele>1808.1</ele>
        <time>2026-03-03T07:25:45.999Z</time>
      </trkpt>
      <trkpt lat="44.85318" lon="6.72969">
        <ele>1808.1</ele>
        <time>2026-03-03T07:25:46.999Z</time>
      </trkpt>
      <trkpt lat="44.85317" lon="6.7297">
        <ele>1808.2</ele>
        <time>2026-03-03T07:25:47.999Z</time>
      </trkpt>
      <trkpt lat="44.85317" lon="6.72971">
        <ele>1808.3</ele>
        <time>2026-03-03T07:25:48.999Z</time>
      </trkpt>
      <trkpt lat="44.85316" lon="6.72973">
        <ele>1808.6</ele>
        <time>2026-03-03T07:25:49.999Z</time>
      </trkpt>
      <trkpt lat="44.85316" lon="6.72974">
        <ele>1808.9</ele>
        <time>2026-03-03T07:25:50.999Z</time>
      </trkpt>
      <trkpt lat="44.85315" lon="6.72975">
        <ele>1809</ele>
        <time>2026-03-03T07:25:51.999Z</time>
      </trkpt>
      <trkpt lat="44.85315" lon="6.72976">
        <ele>1809.1</ele>
        <time>2026-03-03T07:25:52.999Z</time>
      </trkpt>
      <trkpt lat="44.85314" lon="6.72976">
        <ele>1809.1</ele>
        <time>2026-03-03T07:25:53.999Z</time>
      </trkpt>
      <trkpt lat="44.85314" lon="6.72976">
        <ele>1808.9</ele>
        <time>2026-03-03T07:25:54.999Z</time>
      </trkpt>
      <trkpt lat="44.85314" lon="6.72977">
        <ele>1808.9</ele>
        <time>2026-03-03T07:25:55.999Z</time>
      </trkpt>
      <trkpt lat="44.85313" lon="6.72978">
        <ele>1809</ele>
        <time>2026-03-03T07:25:56.999Z</time>
      </trkpt>
      <trkpt lat="44.85313" lon="6.72979">
        <ele>1809.2</ele>
        <time>2026-03-03T07:25:57.999Z</time>
      </trkpt>
      <trkpt lat="44.85313" lon="6.7298">
        <ele>1809.4</ele>
        <time>2026-03-03T07:25:58.999Z</time>
      </trkpt>
      <trkpt lat="44.85313" lon="6.72981">
        <ele>1809.5</ele>
        <time>2026-03-03T07:25:59.999Z</time>
      </trkpt>
      <trkpt lat="44.85312" lon="6.72982">
        <ele>1809.6</ele>
        <time>2026-03-03T07:26:00.999Z</time>
      </trkpt>
      <trkpt lat="44.85311" lon="6.72983">
        <ele>1809.6</ele>
        <time>2026-03-03T07:26:01.999Z</time>
      </trkpt>
      <trkpt lat="44.85311" lon="6.72983">
        <ele>1809.7</ele>
        <time>2026-03-03T07:26:02.999Z</time>
      </trkpt>
      <trkpt lat="44.85311" lon="6.72983">
        <ele>1809.7</ele>
        <time>2026-03-03T07:26:03.999Z</time>
      </trkpt>
      <trkpt lat="44.85311" lon="6.72984">
        <ele>1809.8</ele>
        <time>2026-03-03T07:26:04.999Z</time>
      </trkpt>
      <trkpt lat="44.8531" lon="6.72985">
        <ele>1809.9</ele>
        <time>2026-03-03T07:26:05.999Z</time>
      </trkpt>
      <trkpt lat="44.8531" lon="6.72985">
        <ele>1810</ele>
        <time>2026-03-03T07:26:06.999Z</time>
      </trkpt>
      <trkpt lat="44.85309" lon="6.72986">
        <ele>1810.1</ele>
        <time>2026-03-03T07:26:07.999Z</time>
      </trkpt>
      <trkpt lat="44.85308" lon="6.72986">
        <ele>1810</ele>
        <time>2026-03-03T07:26:08.999Z</time>
      </trkpt>
      <trkpt lat="44.85308" lon="6.72987">
        <ele>1809.9</ele>
        <time>2026-03-03T07:26:09.999Z</time>
      </trkpt>
      <trkpt lat="44.85307" lon="6.72988">
        <ele>1810</ele>
        <time>2026-03-03T07:26:10.999Z</time>
      </trkpt>
      <trkpt lat="44.85307" lon="6.72989">
        <ele>1810.4</ele>
        <time>2026-03-03T07:26:11.999Z</time>
      </trkpt>
      <trkpt lat="44.85306" lon="6.7299">
        <ele>1810.5</ele>
        <time>2026-03-03T07:26:12.999Z</time>
      </trkpt>
      <trkpt lat="44.85306" lon="6.72991">
        <ele>1810.6</ele>
        <time>2026-03-03T07:26:13.999Z</time>
      </trkpt>
      <trkpt lat="44.85305" lon="6.72991">
        <ele>1810.6</ele>
        <time>2026-03-03T07:26:14.999Z</time>
      </trkpt>
      <trkpt lat="44.85305" lon="6.72992">
        <ele>1810.7</ele>
        <time>2026-03-03T07:26:15.999Z</time>
      </trkpt>
      <trkpt lat="44.85304" lon="6.72993">
        <ele>1810.9</ele>
        <time>2026-03-03T07:26:16.999Z</time>
      </trkpt>
      <trkpt lat="44.85303" lon="6.72993">
        <ele>1810.9</ele>
        <time>2026-03-03T07:26:17.999Z</time>
      </trkpt>
      <trkpt lat="44.85302" lon="6.72994">
        <ele>1811</ele>
        <time>2026-03-03T07:26:18.999Z</time>
      </trkpt>
      <trkpt lat="44.85301" lon="6.72996">
        <ele>1810.9</ele>
        <time>2026-03-03T07:26:19.999Z</time>
      </trkpt>
      <trkpt lat="44.85301" lon="6.72996">
        <ele>1810.7</ele>
        <time>2026-03-03T07:26:20.999Z</time>
      </trkpt>
      <trkpt lat="44.853" lon="6.72997">
        <ele>1810.5</ele>
        <time>2026-03-03T07:26:21.999Z</time>
      </trkpt>
      <trkpt lat="44.853" lon="6.72998">
        <ele>1810.3</ele>
        <time>2026-03-03T07:26:22.999Z</time>
      </trkpt>
      <trkpt lat="44.85299" lon="6.72998">
        <ele>1810.1</ele>
        <time>2026-03-03T07:26:23.999Z</time>
      </trkpt>
      <trkpt lat="44.85299" lon="6.72998">
        <ele>1809.9</ele>
        <time>2026-03-03T07:26:24.999Z</time>
      </trkpt>
      <trkpt lat="44.85299" lon="6.72999">
        <ele>1810</ele>
        <time>2026-03-03T07:26:25.999Z</time>
      </trkpt>
      <trkpt lat="44.85298" lon="6.73">
        <ele>1809.8</ele>
        <time>2026-03-03T07:26:26.999Z</time>
      </trkpt>
      <trkpt lat="44.85297" lon="6.73001">
        <ele>1809.6</ele>
        <time>2026-03-03T07:26:27.999Z</time>
      </trkpt>
      <trkpt lat="44.85296" lon="6.73002">
        <ele>1809.4</ele>
        <time>2026-03-03T07:26:28.999Z</time>
      </trkpt>
      <trkpt lat="44.85295" lon="6.73002">
        <ele>1809.3</ele>
        <time>2026-03-03T07:26:29.999Z</time>
      </trkpt>
      <trkpt lat="44.85295" lon="6.73003">
        <ele>1809.3</ele>
        <time>2026-03-03T07:26:30.999Z</time>
      </trkpt>
      <trkpt lat="44.85295" lon="6.73003">
        <ele>1809.3</ele>
        <time>2026-03-03T07:26:31.999Z</time>
      </trkpt>
      <trkpt lat="44.85294" lon="6.73004">
        <ele>1809.6</ele>
        <time>2026-03-03T07:26:32.999Z</time>
      </trkpt>
      <trkpt lat="44.85294" lon="6.73005">
        <ele>1809.6</ele>
        <time>2026-03-03T07:26:33.999Z</time>
      </trkpt>
      <trkpt lat="44.85293" lon="6.73006">
        <ele>1809.8</ele>
        <time>2026-03-03T07:26:34.999Z</time>
      </trkpt>
      <trkpt lat="44.85293" lon="6.73007">
        <ele>1809.8</ele>
        <time>2026-03-03T07:26:35.999Z</time>
      </trkpt>
      <trkpt lat="44.85293" lon="6.73007">
        <ele>1809.9</ele>
        <time>2026-03-03T07:26:36.999Z</time>
      </trkpt>
      <trkpt lat="44.85292" lon="6.73008">
        <ele>1809.9</ele>
        <time>2026-03-03T07:26:37.999Z</time>
      </trkpt>
      <trkpt lat="44.85292" lon="6.73009">
        <ele>1810.2</ele>
        <time>2026-03-03T07:26:38.999Z</time>
      </trkpt>
      <trkpt lat="44.85291" lon="6.7301">
        <ele>1810.3</ele>
        <time>2026-03-03T07:26:39.999Z</time>
      </trkpt>
      <trkpt lat="44.85291" lon="6.73012">
        <ele>1810.5</ele>
        <time>2026-03-03T07:26:40.999Z</time>
      </trkpt>
      <trkpt lat="44.85291" lon="6.73013">
        <ele>1810.7</ele>
        <time>2026-03-03T07:26:41.999Z</time>
      </trkpt>
      <trkpt lat="44.8529" lon="6.73014">
        <ele>1810.9</ele>
        <time>2026-03-03T07:26:42.999Z</time>
      </trkpt>
      <trkpt lat="44.8529" lon="6.73014">
        <ele>1811.1</ele>
        <time>2026-03-03T07:26:43.999Z</time>
      </trkpt>
      <trkpt lat="44.85289" lon="6.73015">
        <ele>1811.2</ele>
        <time>2026-03-03T07:26:44.999Z</time>
      </trkpt>
      <trkpt lat="44.85289" lon="6.73016">
        <ele>1811.2</ele>
        <time>2026-03-03T07:26:45.999Z</time>
      </trkpt>
      <trkpt lat="44.85288" lon="6.73016">
        <ele>1811.2</ele>
        <time>2026-03-03T07:26:46.999Z</time>
      </trkpt>
      <trkpt lat="44.85287" lon="6.73017">
        <ele>1811.1</ele>
        <time>2026-03-03T07:26:47.999Z</time>
      </trkpt>
      <trkpt lat="44.85286" lon="6.73017">
        <ele>1811</ele>
        <time>2026-03-03T07:26:48.999Z</time>
      </trkpt>
      <trkpt lat="44.85285" lon="6.73018">
        <ele>1811.1</ele>
        <time>2026-03-03T07:26:49.999Z</time>
      </trkpt>
      <trkpt lat="44.85284" lon="6.73018">
        <ele>1811.1</ele>
        <time>2026-03-03T07:26:50.999Z</time>
      </trkpt>
      <trkpt lat="44.85284" lon="6.73019">
        <ele>1811.2</ele>
        <time>2026-03-03T07:26:51.999Z</time>
      </trkpt>
      <trkpt lat="44.85283" lon="6.7302">
        <ele>1811.5</ele>
        <time>2026-03-03T07:26:52.999Z</time>
      </trkpt>
      <trkpt lat="44.85283" lon="6.73022">
        <ele>1811.6</ele>
        <time>2026-03-03T07:26:53.999Z</time>
      </trkpt>
      <trkpt lat="44.85282" lon="6.73022">
        <ele>1811.6</ele>
        <time>2026-03-03T07:26:54.999Z</time>
      </trkpt>
      <trkpt lat="44.85282" lon="6.73023">
        <ele>1811.7</ele>
        <time>2026-03-03T07:26:55.999Z</time>
      </trkpt>
      <trkpt lat="44.85282" lon="6.73023">
        <ele>1811.9</ele>
        <time>2026-03-03T07:26:56.999Z</time>
      </trkpt>
      <trkpt lat="44.85281" lon="6.73024">
        <ele>1812</ele>
        <time>2026-03-03T07:26:57.999Z</time>
      </trkpt>
      <trkpt lat="44.85281" lon="6.73025">
        <ele>1811.8</ele>
        <time>2026-03-03T07:26:58.999Z</time>
      </trkpt>
      <trkpt lat="44.8528" lon="6.73026">
        <ele>1811.8</ele>
        <time>2026-03-03T07:26:59.999Z</time>
      </trkpt>
      <trkpt lat="44.8528" lon="6.73027">
        <ele>1811.7</ele>
        <time>2026-03-03T07:27:00.999Z</time>
      </trkpt>
      <trkpt lat="44.85279" lon="6.73029">
        <ele>1811.5</ele>
        <time>2026-03-03T07:27:01.999Z</time>
      </trkpt>
      <trkpt lat="44.85278" lon="6.7303">
        <ele>1811.5</ele>
        <time>2026-03-03T07:27:02.999Z</time>
      </trkpt>
      <trkpt lat="44.85277" lon="6.7303">
        <ele>1811.5</ele>
        <time>2026-03-03T07:27:03.999Z</time>
      </trkpt>
      <trkpt lat="44.85276" lon="6.7303">
        <ele>1811.5</ele>
        <time>2026-03-03T07:27:04.999Z</time>
      </trkpt>
      <trkpt lat="44.85276" lon="6.7303">
        <ele>1811.8</ele>
        <time>2026-03-03T07:27:05.999Z</time>
      </trkpt>
      <trkpt lat="44.85275" lon="6.73031">
        <ele>1812</ele>
        <time>2026-03-03T07:27:06.999Z</time>
      </trkpt>
      <trkpt lat="44.85275" lon="6.73032">
        <ele>1812</ele>
        <time>2026-03-03T07:27:07.999Z</time>
      </trkpt>
      <trkpt lat="44.85274" lon="6.73033">
        <ele>1812</ele>
        <time>2026-03-03T07:27:08.999Z</time>
      </trkpt>
      <trkpt lat="44.85274" lon="6.73035">
        <ele>1812.2</ele>
        <time>2026-03-03T07:27:09.999Z</time>
      </trkpt>
      <trkpt lat="44.85274" lon="6.73035">
        <ele>1812.6</ele>
        <time>2026-03-03T07:27:10.999Z</time>
      </trkpt>
      <trkpt lat="44.85274" lon="6.73036">
        <ele>1812.9</ele>
        <time>2026-03-03T07:27:11.999Z</time>
      </trkpt>
      <trkpt lat="44.85273" lon="6.73037">
        <ele>1813</ele>
        <time>2026-03-03T07:27:12.999Z</time>
      </trkpt>
      <trkpt lat="44.85273" lon="6.73038">
        <ele>1812.9</ele>
        <time>2026-03-03T07:27:13.999Z</time>
      </trkpt>
      <trkpt lat="44.85272" lon="6.73039">
        <ele>1812.9</ele>
        <time>2026-03-03T07:27:14.999Z</time>
      </trkpt>
      <trkpt lat="44.85271" lon="6.73039">
        <ele>1812.9</ele>
        <time>2026-03-03T07:27:15.999Z</time>
      </trkpt>
      <trkpt lat="44.85271" lon="6.7304">
        <ele>1812.7</ele>
        <time>2026-03-03T07:27:16.999Z</time>
      </trkpt>
      <trkpt lat="44.8527" lon="6.73041">
        <ele>1812.7</ele>
        <time>2026-03-03T07:27:17.999Z</time>
      </trkpt>
      <trkpt lat="44.8527" lon="6.73042">
        <ele>1812.5</ele>
        <time>2026-03-03T07:27:18.999Z</time>
      </trkpt>
      <trkpt lat="44.85269" lon="6.73043">
        <ele>1812.4</ele>
        <time>2026-03-03T07:27:19.999Z</time>
      </trkpt>
      <trkpt lat="44.85268" lon="6.73044">
        <ele>1812.5</ele>
        <time>2026-03-03T07:27:20.999Z</time>
      </trkpt>
      <trkpt lat="44.85268" lon="6.73045">
        <ele>1812.7</ele>
        <time>2026-03-03T07:27:21.999Z</time>
      </trkpt>
      <trkpt lat="44.85267" lon="6.73046">
        <ele>1812.8</ele>
        <time>2026-03-03T07:27:22.999Z</time>
      </trkpt>
      <trkpt lat="44.85267" lon="6.73047">
        <ele>1812.7</ele>
        <time>2026-03-03T07:27:23.999Z</time>
      </trkpt>
      <trkpt lat="44.85266" lon="6.73048">
        <ele>1812.9</ele>
        <time>2026-03-03T07:27:24.999Z</time>
      </trkpt>
      <trkpt lat="44.85266" lon="6.73049">
        <ele>1813.1</ele>
        <time>2026-03-03T07:27:25.999Z</time>
      </trkpt>
      <trkpt lat="44.85265" lon="6.7305">
        <ele>1813.3</ele>
        <time>2026-03-03T07:27:26.999Z</time>
      </trkpt>
      <trkpt lat="44.85265" lon="6.73051">
        <ele>1813.3</ele>
        <time>2026-03-03T07:27:27.999Z</time>
      </trkpt>
      <trkpt lat="44.85264" lon="6.73051">
        <ele>1813.3</ele>
        <time>2026-03-03T07:27:28.999Z</time>
      </trkpt>
      <trkpt lat="44.85264" lon="6.73052">
        <ele>1813.5</ele>
        <time>2026-03-03T07:27:29.999Z</time>
      </trkpt>
      <trkpt lat="44.85263" lon="6.73052">
        <ele>1813.5</ele>
        <time>2026-03-03T07:27:30.999Z</time>
      </trkpt>
      <trkpt lat="44.85263" lon="6.73053">
        <ele>1813.4</ele>
        <time>2026-03-03T07:27:31.999Z</time>
      </trkpt>
      <trkpt lat="44.85263" lon="6.73053">
        <ele>1813.2</ele>
        <time>2026-03-03T07:27:32.999Z</time>
      </trkpt>
      <trkpt lat="44.85262" lon="6.73054">
        <ele>1813</ele>
        <time>2026-03-03T07:27:33.999Z</time>
      </trkpt>
      <trkpt lat="44.85261" lon="6.73055">
        <ele>1813</ele>
        <time>2026-03-03T07:27:34.999Z</time>
      </trkpt>
      <trkpt lat="44.85261" lon="6.73055">
        <ele>1813</ele>
        <time>2026-03-03T07:27:35.999Z</time>
      </trkpt>
      <trkpt lat="44.8526" lon="6.73057">
        <ele>1813</ele>
        <time>2026-03-03T07:27:36.999Z</time>
      </trkpt>
      <trkpt lat="44.8526" lon="6.73058">
        <ele>1813</ele>
        <time>2026-03-03T07:27:37.999Z</time>
      </trkpt>
      <trkpt lat="44.8526" lon="6.73059">
        <ele>1813</ele>
        <time>2026-03-03T07:27:38.999Z</time>
      </trkpt>
      <trkpt lat="44.8526" lon="6.7306">
        <ele>1812.8</ele>
        <time>2026-03-03T07:27:39.999Z</time>
      </trkpt>
      <trkpt lat="44.85259" lon="6.7306">
        <ele>1812.7</ele>
        <time>2026-03-03T07:27:40.999Z</time>
      </trkpt>
      <trkpt lat="44.85258" lon="6.73061">
        <ele>1812.7</ele>
        <time>2026-03-03T07:27:41.999Z</time>
      </trkpt>
      <trkpt lat="44.85257" lon="6.73061">
        <ele>1812.6</ele>
        <time>2026-03-03T07:27:42.999Z</time>
      </trkpt>
      <trkpt lat="44.85257" lon="6.73062">
        <ele>1812.8</ele>
        <time>2026-03-03T07:27:43.999Z</time>
      </trkpt>
      <trkpt lat="44.85256" lon="6.73064">
        <ele>1812.8</ele>
        <time>2026-03-03T07:27:44.999Z</time>
      </trkpt>
      <trkpt lat="44.85256" lon="6.73065">
        <ele>1813</ele>
        <time>2026-03-03T07:27:45.999Z</time>
      </trkpt>
      <trkpt lat="44.85256" lon="6.73066">
        <ele>1813</ele>
        <time>2026-03-03T07:27:46.999Z</time>
      </trkpt>
      <trkpt lat="44.85256" lon="6.73066">
        <ele>1813.1</ele>
        <time>2026-03-03T07:27:47.999Z</time>
      </trkpt>
      <trkpt lat="44.85255" lon="6.73067">
        <ele>1813</ele>
        <time>2026-03-03T07:27:48.999Z</time>
      </trkpt>
      <trkpt lat="44.85255" lon="6.73068">
        <ele>1813</ele>
        <time>2026-03-03T07:27:49.999Z</time>
      </trkpt>
      <trkpt lat="44.85254" lon="6.73068">
        <ele>1813.2</ele>
        <time>2026-03-03T07:27:50.999Z</time>
      </trkpt>
      <trkpt lat="44.85253" lon="6.7307">
        <ele>1813</ele>
        <time>2026-03-03T07:27:51.999Z</time>
      </trkpt>
      <trkpt lat="44.85252" lon="6.73071">
        <ele>1812.8</ele>
        <time>2026-03-03T07:27:52.999Z</time>
      </trkpt>
      <trkpt lat="44.85251" lon="6.73072">
        <ele>1812.6</ele>
        <time>2026-03-03T07:27:53.999Z</time>
      </trkpt>
      <trkpt lat="44.85251" lon="6.73073">
        <ele>1812.6</ele>
        <time>2026-03-03T07:27:54.999Z</time>
      </trkpt>
      <trkpt lat="44.8525" lon="6.73074">
        <ele>1812.5</ele>
        <time>2026-03-03T07:27:55.999Z</time>
      </trkpt>
      <trkpt lat="44.8525" lon="6.73075">
        <ele>1812.3</ele>
        <time>2026-03-03T07:27:56.999Z</time>
      </trkpt>
      <trkpt lat="44.85249" lon="6.73076">
        <ele>1812.5</ele>
        <time>2026-03-03T07:27:57.999Z</time>
      </trkpt>
      <trkpt lat="44.85248" lon="6.73077">
        <ele>1812.7</ele>
        <time>2026-03-03T07:27:58.999Z</time>
      </trkpt>
      <trkpt lat="44.85248" lon="6.73078">
        <ele>1812.8</ele>
        <time>2026-03-03T07:27:59.999Z</time>
      </trkpt>
      <trkpt lat="44.85247" lon="6.73079">
        <ele>1813</ele>
        <time>2026-03-03T07:28:00.999Z</time>
      </trkpt>
      <trkpt lat="44.85247" lon="6.73079">
        <ele>1813.2</ele>
        <time>2026-03-03T07:28:01.999Z</time>
      </trkpt>
      <trkpt lat="44.85246" lon="6.7308">
        <ele>1813.5</ele>
        <time>2026-03-03T07:28:02.999Z</time>
      </trkpt>
      <trkpt lat="44.85245" lon="6.73081">
        <ele>1813.7</ele>
        <time>2026-03-03T07:28:03.999Z</time>
      </trkpt>
      <trkpt lat="44.85245" lon="6.73082">
        <ele>1814</ele>
        <time>2026-03-03T07:28:04.999Z</time>
      </trkpt>
      <trkpt lat="44.85244" lon="6.73083">
        <ele>1814.1</ele>
        <time>2026-03-03T07:28:05.999Z</time>
      </trkpt>
      <trkpt lat="44.85243" lon="6.73083">
        <ele>1814.2</ele>
        <time>2026-03-03T07:28:06.999Z</time>
      </trkpt>
      <trkpt lat="44.85242" lon="6.73084">
        <ele>1814.3</ele>
        <time>2026-03-03T07:28:07.999Z</time>
      </trkpt>
      <trkpt lat="44.85242" lon="6.73085">
        <ele>1814.2</ele>
        <time>2026-03-03T07:28:08.999Z</time>
      </trkpt>
      <trkpt lat="44.85241" lon="6.73086">
        <ele>1814.2</ele>
        <time>2026-03-03T07:28:09.999Z</time>
      </trkpt>
      <trkpt lat="44.85241" lon="6.73087">
        <ele>1814.2</ele>
        <time>2026-03-03T07:28:10.999Z</time>
      </trkpt>
      <trkpt lat="44.8524" lon="6.73087">
        <ele>1814.2</ele>
        <time>2026-03-03T07:28:11.999Z</time>
      </trkpt>
      <trkpt lat="44.8524" lon="6.73088">
        <ele>1814.2</ele>
        <time>2026-03-03T07:28:12.999Z</time>
      </trkpt>
      <trkpt lat="44.85239" lon="6.73089">
        <ele>1814.3</ele>
        <time>2026-03-03T07:28:13.999Z</time>
      </trkpt>
      <trkpt lat="44.85239" lon="6.7309">
        <ele>1814.4</ele>
        <time>2026-03-03T07:28:14.999Z</time>
      </trkpt>
      <trkpt lat="44.85238" lon="6.73091">
        <ele>1814.6</ele>
        <time>2026-03-03T07:28:15.999Z</time>
      </trkpt>
      <trkpt lat="44.85238" lon="6.73092">
        <ele>1814.7</ele>
        <time>2026-03-03T07:28:16.999Z</time>
      </trkpt>
      <trkpt lat="44.85238" lon="6.73093">
        <ele>1814.7</ele>
        <time>2026-03-03T07:28:17.999Z</time>
      </trkpt>
      <trkpt lat="44.85237" lon="6.73094">
        <ele>1814.6</ele>
        <time>2026-03-03T07:28:18.999Z</time>
      </trkpt>
      <trkpt lat="44.85237" lon="6.73094">
        <ele>1814.6</ele>
        <time>2026-03-03T07:28:19.999Z</time>
      </trkpt>
      <trkpt lat="44.85236" lon="6.73095">
        <ele>1814.9</ele>
        <time>2026-03-03T07:28:20.999Z</time>
      </trkpt>
      <trkpt lat="44.85235" lon="6.73096">
        <ele>1815</ele>
        <time>2026-03-03T07:28:21.999Z</time>
      </trkpt>
      <trkpt lat="44.85235" lon="6.73097">
        <ele>1815.1</ele>
        <time>2026-03-03T07:28:22.999Z</time>
      </trkpt>
      <trkpt lat="44.85235" lon="6.73097">
        <ele>1815.1</ele>
        <time>2026-03-03T07:28:23.999Z</time>
      </trkpt>
      <trkpt lat="44.85234" lon="6.73098">
        <ele>1815.1</ele>
        <time>2026-03-03T07:28:24.999Z</time>
      </trkpt>
      <trkpt lat="44.85233" lon="6.73098">
        <ele>1815</ele>
        <time>2026-03-03T07:28:25.999Z</time>
      </trkpt>
      <trkpt lat="44.85233" lon="6.73099">
        <ele>1815.2</ele>
        <time>2026-03-03T07:28:26.999Z</time>
      </trkpt>
      <trkpt lat="44.85233" lon="6.731">
        <ele>1815.4</ele>
        <time>2026-03-03T07:28:27.999Z</time>
      </trkpt>
      <trkpt lat="44.85232" lon="6.73101">
        <ele>1815.6</ele>
        <time>2026-03-03T07:28:28.999Z</time>
      </trkpt>
      <trkpt lat="44.85232" lon="6.73102">
        <ele>1815.5</ele>
        <time>2026-03-03T07:28:29.999Z</time>
      </trkpt>
      <trkpt lat="44.85231" lon="6.73103">
        <ele>1815.5</ele>
        <time>2026-03-03T07:28:30.999Z</time>
      </trkpt>
      <trkpt lat="44.8523" lon="6.73103">
        <ele>1815.8</ele>
        <time>2026-03-03T07:28:31.999Z</time>
      </trkpt>
      <trkpt lat="44.85229" lon="6.73104">
        <ele>1816</ele>
        <time>2026-03-03T07:28:32.999Z</time>
      </trkpt>
      <trkpt lat="44.85229" lon="6.73105">
        <ele>1816</ele>
        <time>2026-03-03T07:28:33.999Z</time>
      </trkpt>
      <trkpt lat="44.85228" lon="6.73105">
        <ele>1815.9</ele>
        <time>2026-03-03T07:28:34.999Z</time>
      </trkpt>
      <trkpt lat="44.85228" lon="6.73106">
        <ele>1815.8</ele>
        <time>2026-03-03T07:28:35.999Z</time>
      </trkpt>
      <trkpt lat="44.85228" lon="6.73107">
        <ele>1815.7</ele>
        <time>2026-03-03T07:28:36.999Z</time>
      </trkpt>
      <trkpt lat="44.85227" lon="6.73108">
        <ele>1815.6</ele>
        <time>2026-03-03T07:28:37.999Z</time>
      </trkpt>
      <trkpt lat="44.85226" lon="6.73108">
        <ele>1815.3</ele>
        <time>2026-03-03T07:28:38.999Z</time>
      </trkpt>
      <trkpt lat="44.85224" lon="6.73109">
        <ele>1815.3</ele>
        <time>2026-03-03T07:28:39.999Z</time>
      </trkpt>
      <trkpt lat="44.85224" lon="6.7311">
        <ele>1815.2</ele>
        <time>2026-03-03T07:28:40.999Z</time>
      </trkpt>
      <trkpt lat="44.85223" lon="6.73111">
        <ele>1815.4</ele>
        <time>2026-03-03T07:28:41.999Z</time>
      </trkpt>
      <trkpt lat="44.85222" lon="6.73111">
        <ele>1815.5</ele>
        <time>2026-03-03T07:28:42.999Z</time>
      </trkpt>
      <trkpt lat="44.85222" lon="6.73112">
        <ele>1815.6</ele>
        <time>2026-03-03T07:28:43.999Z</time>
      </trkpt>
      <trkpt lat="44.85221" lon="6.73113">
        <ele>1815.8</ele>
        <time>2026-03-03T07:28:44.999Z</time>
      </trkpt>
      <trkpt lat="44.85221" lon="6.73114">
        <ele>1815.7</ele>
        <time>2026-03-03T07:28:45.999Z</time>
      </trkpt>
      <trkpt lat="44.8522" lon="6.73115">
        <ele>1815.8</ele>
        <time>2026-03-03T07:28:46.999Z</time>
      </trkpt>
      <trkpt lat="44.85219" lon="6.73116">
        <ele>1815.9</ele>
        <time>2026-03-03T07:28:47.999Z</time>
      </trkpt>
      <trkpt lat="44.85218" lon="6.73117">
        <ele>1815.9</ele>
        <time>2026-03-03T07:28:48.999Z</time>
      </trkpt>
      <trkpt lat="44.85218" lon="6.73117">
        <ele>1815.9</ele>
        <time>2026-03-03T07:28:49.999Z</time>
      </trkpt>
      <trkpt lat="44.85218" lon="6.73118">
        <ele>1816</ele>
        <time>2026-03-03T07:28:50.999Z</time>
      </trkpt>
      <trkpt lat="44.85217" lon="6.73118">
        <ele>1816.1</ele>
        <time>2026-03-03T07:28:51.999Z</time>
      </trkpt>
      <trkpt lat="44.85216" lon="6.73119">
        <ele>1815.9</ele>
        <time>2026-03-03T07:28:52.999Z</time>
      </trkpt>
      <trkpt lat="44.85215" lon="6.73121">
        <ele>1816</ele>
        <time>2026-03-03T07:28:53.999Z</time>
      </trkpt>
      <trkpt lat="44.85214" lon="6.73122">
        <ele>1816</ele>
        <time>2026-03-03T07:28:54.999Z</time>
      </trkpt>
      <trkpt lat="44.85214" lon="6.73123">
        <ele>1815.8</ele>
        <time>2026-03-03T07:28:55.999Z</time>
      </trkpt>
      <trkpt lat="44.85213" lon="6.73123">
        <ele>1815.8</ele>
        <time>2026-03-03T07:28:56.999Z</time>
      </trkpt>
      <trkpt lat="44.85213" lon="6.73124">
        <ele>1815.7</ele>
        <time>2026-03-03T07:28:57.999Z</time>
      </trkpt>
      <trkpt lat="44.85212" lon="6.73125">
        <ele>1815.4</ele>
        <time>2026-03-03T07:28:58.999Z</time>
      </trkpt>
      <trkpt lat="44.85211" lon="6.73125">
        <ele>1815.4</ele>
        <time>2026-03-03T07:28:59.999Z</time>
      </trkpt>
      <trkpt lat="44.85211" lon="6.73126">
        <ele>1815.5</ele>
        <time>2026-03-03T07:29:00.999Z</time>
      </trkpt>
      <trkpt lat="44.8521" lon="6.73127">
        <ele>1815.5</ele>
        <time>2026-03-03T07:29:01.999Z</time>
      </trkpt>
      <trkpt lat="44.8521" lon="6.73128">
        <ele>1815.7</ele>
        <time>2026-03-03T07:29:02.999Z</time>
      </trkpt>
      <trkpt lat="44.85209" lon="6.73129">
        <ele>1815.9</ele>
        <time>2026-03-03T07:29:03.999Z</time>
      </trkpt>
      <trkpt lat="44.85209" lon="6.73129">
        <ele>1816</ele>
        <time>2026-03-03T07:29:04.999Z</time>
      </trkpt>
      <trkpt lat="44.85208" lon="6.7313">
        <ele>1816.1</ele>
        <time>2026-03-03T07:29:05.999Z</time>
      </trkpt>
      <trkpt lat="44.85207" lon="6.73131">
        <ele>1816</ele>
        <time>2026-03-03T07:29:06.999Z</time>
      </trkpt>
      <trkpt lat="44.85206" lon="6.73132">
        <ele>1816.2</ele>
        <time>2026-03-03T07:29:07.999Z</time>
      </trkpt>
      <trkpt lat="44.85206" lon="6.73133">
        <ele>1816.3</ele>
        <time>2026-03-03T07:29:08.999Z</time>
      </trkpt>
      <trkpt lat="44.85205" lon="6.73133">
        <ele>1816.5</ele>
        <time>2026-03-03T07:29:09.999Z</time>
      </trkpt>
      <trkpt lat="44.85205" lon="6.73134">
        <ele>1816.6</ele>
        <time>2026-03-03T07:29:10.999Z</time>
      </trkpt>
      <trkpt lat="44.85204" lon="6.73135">
        <ele>1816.6</ele>
        <time>2026-03-03T07:29:11.999Z</time>
      </trkpt>
      <trkpt lat="44.85203" lon="6.73136">
        <ele>1816.8</ele>
        <time>2026-03-03T07:29:12.999Z</time>
      </trkpt>
      <trkpt lat="44.85203" lon="6.73137">
        <ele>1816.9</ele>
        <time>2026-03-03T07:29:13.999Z</time>
      </trkpt>
      <trkpt lat="44.85202" lon="6.73138">
        <ele>1817.1</ele>
        <time>2026-03-03T07:29:14.999Z</time>
      </trkpt>
      <trkpt lat="44.85202" lon="6.73139">
        <ele>1817.1</ele>
        <time>2026-03-03T07:29:15.999Z</time>
      </trkpt>
      <trkpt lat="44.85201" lon="6.7314">
        <ele>1817.1</ele>
        <time>2026-03-03T07:29:16.999Z</time>
      </trkpt>
      <trkpt lat="44.852" lon="6.73141">
        <ele>1817.2</ele>
        <time>2026-03-03T07:29:17.999Z</time>
      </trkpt>
      <trkpt lat="44.85199" lon="6.73142">
        <ele>1817.1</ele>
        <time>2026-03-03T07:29:18.999Z</time>
      </trkpt>
      <trkpt lat="44.85199" lon="6.73143">
        <ele>1816.8</ele>
        <time>2026-03-03T07:29:19.999Z</time>
      </trkpt>
      <trkpt lat="44.85199" lon="6.73143">
        <ele>1816.5</ele>
        <time>2026-03-03T07:29:20.999Z</time>
      </trkpt>
      <trkpt lat="44.85199" lon="6.73144">
        <ele>1816.3</ele>
        <time>2026-03-03T07:29:21.999Z</time>
      </trkpt>
      <trkpt lat="44.85198" lon="6.73145">
        <ele>1816.2</ele>
        <time>2026-03-03T07:29:22.999Z</time>
      </trkpt>
      <trkpt lat="44.85197" lon="6.73146">
        <ele>1816.3</ele>
        <time>2026-03-03T07:29:23.999Z</time>
      </trkpt>
      <trkpt lat="44.85197" lon="6.73147">
        <ele>1816.5</ele>
        <time>2026-03-03T07:29:24.999Z</time>
      </trkpt>
      <trkpt lat="44.85197" lon="6.73148">
        <ele>1816.5</ele>
        <time>2026-03-03T07:29:25.999Z</time>
      </trkpt>
      <trkpt lat="44.85196" lon="6.73148">
        <ele>1816.5</ele>
        <time>2026-03-03T07:29:26.999Z</time>
      </trkpt>
      <trkpt lat="44.85195" lon="6.73149">
        <ele>1816.6</ele>
        <time>2026-03-03T07:29:27.999Z</time>
      </trkpt>
      <trkpt lat="44.85194" lon="6.73149">
        <ele>1816.6</ele>
        <time>2026-03-03T07:29:28.999Z</time>
      </trkpt>
      <trkpt lat="44.85193" lon="6.73151">
        <ele>1816.7</ele>
        <time>2026-03-03T07:29:29.999Z</time>
      </trkpt>
      <trkpt lat="44.85193" lon="6.73152">
        <ele>1816.4</ele>
        <time>2026-03-03T07:29:30.999Z</time>
      </trkpt>
      <trkpt lat="44.85192" lon="6.73153">
        <ele>1816.5</ele>
        <time>2026-03-03T07:29:31.999Z</time>
      </trkpt>
      <trkpt lat="44.85192" lon="6.73154">
        <ele>1816.5</ele>
        <time>2026-03-03T07:29:32.999Z</time>
      </trkpt>
      <trkpt lat="44.85191" lon="6.73155">
        <ele>1816.6</ele>
        <time>2026-03-03T07:29:33.999Z</time>
      </trkpt>
      <trkpt lat="44.85191" lon="6.73156">
        <ele>1816.6</ele>
        <time>2026-03-03T07:29:34.999Z</time>
      </trkpt>
      <trkpt lat="44.8519" lon="6.73156">
        <ele>1816.6</ele>
        <time>2026-03-03T07:29:35.999Z</time>
      </trkpt>
      <trkpt lat="44.85189" lon="6.73157">
        <ele>1816.7</ele>
        <time>2026-03-03T07:29:36.999Z</time>
      </trkpt>
      <trkpt lat="44.85189" lon="6.73157">
        <ele>1816.9</ele>
        <time>2026-03-03T07:29:37.999Z</time>
      </trkpt>
      <trkpt lat="44.85188" lon="6.73158">
        <ele>1816.9</ele>
        <time>2026-03-03T07:29:38.999Z</time>
      </trkpt>
      <trkpt lat="44.85187" lon="6.73159">
        <ele>1816.9</ele>
        <time>2026-03-03T07:29:39.999Z</time>
      </trkpt>
      <trkpt lat="44.85186" lon="6.73159">
        <ele>1816.8</ele>
        <time>2026-03-03T07:29:40.999Z</time>
      </trkpt>
      <trkpt lat="44.85185" lon="6.7316">
        <ele>1816.8</ele>
        <time>2026-03-03T07:29:41.999Z</time>
      </trkpt>
      <trkpt lat="44.85184" lon="6.7316">
        <ele>1817</ele>
        <time>2026-03-03T07:29:42.999Z</time>
      </trkpt>
      <trkpt lat="44.85184" lon="6.73161">
        <ele>1817.1</ele>
        <time>2026-03-03T07:29:43.999Z</time>
      </trkpt>
      <trkpt lat="44.85183" lon="6.73162">
        <ele>1817.3</ele>
        <time>2026-03-03T07:29:44.999Z</time>
      </trkpt>
      <trkpt lat="44.85183" lon="6.73163">
        <ele>1817.5</ele>
        <time>2026-03-03T07:29:45.999Z</time>
      </trkpt>
      <trkpt lat="44.85182" lon="6.73163">
        <ele>1817.6</ele>
        <time>2026-03-03T07:29:46.999Z</time>
      </trkpt>
      <trkpt lat="44.85182" lon="6.73164">
        <ele>1817.6</ele>
        <time>2026-03-03T07:29:47.999Z</time>
      </trkpt>
      <trkpt lat="44.85182" lon="6.73165">
        <ele>1817.6</ele>
        <time>2026-03-03T07:29:48.999Z</time>
      </trkpt>
      <trkpt lat="44.85181" lon="6.73165">
        <ele>1817.8</ele>
        <time>2026-03-03T07:29:49.999Z</time>
      </trkpt>
      <trkpt lat="44.8518" lon="6.73166">
        <ele>1817.9</ele>
        <time>2026-03-03T07:29:50.999Z</time>
      </trkpt>
      <trkpt lat="44.8518" lon="6.73166">
        <ele>1818</ele>
        <time>2026-03-03T07:29:51.999Z</time>
      </trkpt>
      <trkpt lat="44.85179" lon="6.73167">
        <ele>1818</ele>
        <time>2026-03-03T07:29:52.999Z</time>
      </trkpt>
      <trkpt lat="44.85178" lon="6.73168">
        <ele>1818.2</ele>
        <time>2026-03-03T07:29:53.999Z</time>
      </trkpt>
      <trkpt lat="44.85178" lon="6.73169">
        <ele>1818.3</ele>
        <time>2026-03-03T07:29:54.999Z</time>
      </trkpt>
      <trkpt lat="44.85177" lon="6.73169">
        <ele>1818.3</ele>
        <time>2026-03-03T07:29:55.999Z</time>
      </trkpt>
      <trkpt lat="44.85177" lon="6.7317">
        <ele>1818.6</ele>
        <time>2026-03-03T07:29:56.999Z</time>
      </trkpt>
      <trkpt lat="44.85176" lon="6.7317">
        <ele>1818.8</ele>
        <time>2026-03-03T07:29:57.999Z</time>
      </trkpt>
      <trkpt lat="44.85175" lon="6.73171">
        <ele>1818.9</ele>
        <time>2026-03-03T07:29:58.999Z</time>
      </trkpt>
      <trkpt lat="44.85175" lon="6.73173">
        <ele>1818.8</ele>
        <time>2026-03-03T07:29:59.999Z</time>
      </trkpt>
      <trkpt lat="44.85175" lon="6.73174">
        <ele>1818.9</ele>
        <time>2026-03-03T07:30:00.999Z</time>
      </trkpt>
      <trkpt lat="44.85174" lon="6.73175">
        <ele>1818.9</ele>
        <time>2026-03-03T07:30:01.999Z</time>
      </trkpt>
      <trkpt lat="44.85174" lon="6.73175">
        <ele>1819</ele>
        <time>2026-03-03T07:30:02.999Z</time>
      </trkpt>
      <trkpt lat="44.85173" lon="6.73176">
        <ele>1819</ele>
        <time>2026-03-03T07:30:03.999Z</time>
      </trkpt>
      <trkpt lat="44.85172" lon="6.73177">
        <ele>1819.1</ele>
        <time>2026-03-03T07:30:04.999Z</time>
      </trkpt>
      <trkpt lat="44.85171" lon="6.73177">
        <ele>1819.2</ele>
        <time>2026-03-03T07:30:05.999Z</time>
      </trkpt>
      <trkpt lat="44.8517" lon="6.73178">
        <ele>1819.4</ele>
        <time>2026-03-03T07:30:06.999Z</time>
      </trkpt>
      <trkpt lat="44.85169" lon="6.73179">
        <ele>1819.5</ele>
        <time>2026-03-03T07:30:07.999Z</time>
      </trkpt>
      <trkpt lat="44.85169" lon="6.73179">
        <ele>1819.6</ele>
        <time>2026-03-03T07:30:08.999Z</time>
      </trkpt>
      <trkpt lat="44.85168" lon="6.7318">
        <ele>1819.6</ele>
        <time>2026-03-03T07:30:09.999Z</time>
      </trkpt>
      <trkpt lat="44.85168" lon="6.73181">
        <ele>1819.8</ele>
        <time>2026-03-03T07:30:10.999Z</time>
      </trkpt>
      <trkpt lat="44.85167" lon="6.73182">
        <ele>1820</ele>
        <time>2026-03-03T07:30:11.999Z</time>
      </trkpt>
      <trkpt lat="44.85167" lon="6.73183">
        <ele>1820.2</ele>
        <time>2026-03-03T07:30:12.999Z</time>
      </trkpt>
      <trkpt lat="44.85166" lon="6.73183">
        <ele>1820.1</ele>
        <time>2026-03-03T07:30:13.999Z</time>
      </trkpt>
      <trkpt lat="44.85166" lon="6.73184">
        <ele>1820</ele>
        <time>2026-03-03T07:30:14.999Z</time>
      </trkpt>
      <trkpt lat="44.85165" lon="6.73185">
        <ele>1819.9</ele>
        <time>2026-03-03T07:30:15.999Z</time>
      </trkpt>
      <trkpt lat="44.85164" lon="6.73185">
        <ele>1819.8</ele>
        <time>2026-03-03T07:30:16.999Z</time>
      </trkpt>
      <trkpt lat="44.85163" lon="6.73186">
        <ele>1819.8</ele>
        <time>2026-03-03T07:30:17.999Z</time>
      </trkpt>
      <trkpt lat="44.85162" lon="6.73187">
        <ele>1819.8</ele>
        <time>2026-03-03T07:30:18.999Z</time>
      </trkpt>
      <trkpt lat="44.85162" lon="6.73187">
        <ele>1820</ele>
        <time>2026-03-03T07:30:19.999Z</time>
      </trkpt>
      <trkpt lat="44.85161" lon="6.73188">
        <ele>1819.9</ele>
        <time>2026-03-03T07:30:20.999Z</time>
      </trkpt>
      <trkpt lat="44.8516" lon="6.73189">
        <ele>1819.6</ele>
        <time>2026-03-03T07:30:21.999Z</time>
      </trkpt>
      <trkpt lat="44.85159" lon="6.7319">
        <ele>1819.4</ele>
        <time>2026-03-03T07:30:22.999Z</time>
      </trkpt>
      <trkpt lat="44.85158" lon="6.7319">
        <ele>1819.4</ele>
        <time>2026-03-03T07:30:23.999Z</time>
      </trkpt>
      <trkpt lat="44.85157" lon="6.7319">
        <ele>1819.8</ele>
        <time>2026-03-03T07:30:24.999Z</time>
      </trkpt>
      <trkpt lat="44.85156" lon="6.7319">
        <ele>1819.9</ele>
        <time>2026-03-03T07:30:25.999Z</time>
      </trkpt>
      <trkpt lat="44.85156" lon="6.73191">
        <ele>1819.8</ele>
        <time>2026-03-03T07:30:26.999Z</time>
      </trkpt>
      <trkpt lat="44.85155" lon="6.73191">
        <ele>1819.8</ele>
        <time>2026-03-03T07:30:27.999Z</time>
      </trkpt>
      <trkpt lat="44.85155" lon="6.73192">
        <ele>1819.9</ele>
        <time>2026-03-03T07:30:28.999Z</time>
      </trkpt>
      <trkpt lat="44.85154" lon="6.73192">
        <ele>1820</ele>
        <time>2026-03-03T07:30:29.999Z</time>
      </trkpt>
      <trkpt lat="44.85153" lon="6.73193">
        <ele>1820.2</ele>
        <time>2026-03-03T07:30:30.999Z</time>
      </trkpt>
      <trkpt lat="44.85153" lon="6.73194">
        <ele>1820.6</ele>
        <time>2026-03-03T07:30:31.999Z</time>
      </trkpt>
      <trkpt lat="44.85151" lon="6.73194">
        <ele>1820.7</ele>
        <time>2026-03-03T07:30:32.999Z</time>
      </trkpt>
      <trkpt lat="44.85151" lon="6.73195">
        <ele>1820.8</ele>
        <time>2026-03-03T07:30:33.999Z</time>
      </trkpt>
      <trkpt lat="44.8515" lon="6.73195">
        <ele>1820.9</ele>
        <time>2026-03-03T07:30:34.999Z</time>
      </trkpt>
      <trkpt lat="44.85149" lon="6.73195">
        <ele>1820.9</ele>
        <time>2026-03-03T07:30:35.999Z</time>
      </trkpt>
      <trkpt lat="44.85148" lon="6.73196">
        <ele>1821</ele>
        <time>2026-03-03T07:30:36.999Z</time>
      </trkpt>
      <trkpt lat="44.85148" lon="6.73197">
        <ele>1821.1</ele>
        <time>2026-03-03T07:30:37.999Z</time>
      </trkpt>
      <trkpt lat="44.85147" lon="6.73197">
        <ele>1821.2</ele>
        <time>2026-03-03T07:30:38.999Z</time>
      </trkpt>
      <trkpt lat="44.85146" lon="6.73198">
        <ele>1821.4</ele>
        <time>2026-03-03T07:30:39.999Z</time>
      </trkpt>
      <trkpt lat="44.85145" lon="6.73199">
        <ele>1821.4</ele>
        <time>2026-03-03T07:30:40.999Z</time>
      </trkpt>
      <trkpt lat="44.85144" lon="6.73199">
        <ele>1821.5</ele>
        <time>2026-03-03T07:30:41.999Z</time>
      </trkpt>
      <trkpt lat="44.85143" lon="6.732">
        <ele>1821.4</ele>
        <time>2026-03-03T07:30:42.999Z</time>
      </trkpt>
      <trkpt lat="44.85142" lon="6.73201">
        <ele>1821.6</ele>
        <time>2026-03-03T07:30:43.999Z</time>
      </trkpt>
      <trkpt lat="44.85142" lon="6.73201">
        <ele>1821.7</ele>
        <time>2026-03-03T07:30:44.999Z</time>
      </trkpt>
      <trkpt lat="44.85141" lon="6.73202">
        <ele>1821.7</ele>
        <time>2026-03-03T07:30:45.999Z</time>
      </trkpt>
      <trkpt lat="44.8514" lon="6.73202">
        <ele>1821.8</ele>
        <time>2026-03-03T07:30:46.999Z</time>
      </trkpt>
      <trkpt lat="44.85139" lon="6.73203">
        <ele>1821.7</ele>
        <time>2026-03-03T07:30:47.999Z</time>
      </trkpt>
      <trkpt lat="44.85139" lon="6.73204">
        <ele>1821.7</ele>
        <time>2026-03-03T07:30:48.999Z</time>
      </trkpt>
      <trkpt lat="44.85138" lon="6.73204">
        <ele>1821.8</ele>
        <time>2026-03-03T07:30:49.999Z</time>
      </trkpt>
      <trkpt lat="44.85137" lon="6.73205">
        <ele>1821.8</ele>
        <time>2026-03-03T07:30:50.999Z</time>
      </trkpt>
      <trkpt lat="44.85137" lon="6.73205">
        <ele>1821.9</ele>
        <time>2026-03-03T07:30:51.999Z</time>
      </trkpt>
      <trkpt lat="44.85136" lon="6.73206">
        <ele>1821.8</ele>
        <time>2026-03-03T07:30:52.999Z</time>
      </trkpt>
      <trkpt lat="44.85135" lon="6.73206">
        <ele>1822.1</ele>
        <time>2026-03-03T07:30:53.999Z</time>
      </trkpt>
      <trkpt lat="44.85135" lon="6.73207">
        <ele>1822.3</ele>
        <time>2026-03-03T07:30:54.999Z</time>
      </trkpt>
      <trkpt lat="44.85134" lon="6.73208">
        <ele>1822.6</ele>
        <time>2026-03-03T07:30:55.999Z</time>
      </trkpt>
      <trkpt lat="44.85134" lon="6.73208">
        <ele>1822.8</ele>
        <time>2026-03-03T07:30:56.999Z</time>
      </trkpt>
      <trkpt lat="44.85133" lon="6.73209">
        <ele>1822.9</ele>
        <time>2026-03-03T07:30:57.999Z</time>
      </trkpt>
      <trkpt lat="44.85132" lon="6.73209">
        <ele>1822.7</ele>
        <time>2026-03-03T07:30:58.999Z</time>
      </trkpt>
      <trkpt lat="44.85131" lon="6.73209">
        <ele>1822.9</ele>
        <time>2026-03-03T07:30:59.999Z</time>
      </trkpt>
      <trkpt lat="44.8513" lon="6.7321">
        <ele>1823</ele>
        <time>2026-03-03T07:31:00.999Z</time>
      </trkpt>
      <trkpt lat="44.8513" lon="6.73211">
        <ele>1822.9</ele>
        <time>2026-03-03T07:31:01.999Z</time>
      </trkpt>
      <trkpt lat="44.85129" lon="6.73212">
        <ele>1822.7</ele>
        <time>2026-03-03T07:31:02.999Z</time>
      </trkpt>
      <trkpt lat="44.85128" lon="6.73212">
        <ele>1822.7</ele>
        <time>2026-03-03T07:31:03.999Z</time>
      </trkpt>
      <trkpt lat="44.85127" lon="6.73213">
        <ele>1822.8</ele>
        <time>2026-03-03T07:31:04.999Z</time>
      </trkpt>
      <trkpt lat="44.85127" lon="6.73213">
        <ele>1822.8</ele>
        <time>2026-03-03T07:31:05.999Z</time>
      </trkpt>
      <trkpt lat="44.85126" lon="6.73214">
        <ele>1823.1</ele>
        <time>2026-03-03T07:31:06.999Z</time>
      </trkpt>
      <trkpt lat="44.85126" lon="6.73214">
        <ele>1823.4</ele>
        <time>2026-03-03T07:31:07.999Z</time>
      </trkpt>
      <trkpt lat="44.85125" lon="6.73215">
        <ele>1823.5</ele>
        <time>2026-03-03T07:31:08.999Z</time>
      </trkpt>
      <trkpt lat="44.85125" lon="6.73215">
        <ele>1823.3</ele>
        <time>2026-03-03T07:31:09.999Z</time>
      </trkpt>
      <trkpt lat="44.85124" lon="6.73215">
        <ele>1823.5</ele>
        <time>2026-03-03T07:31:10.999Z</time>
      </trkpt>
      <trkpt lat="44.85123" lon="6.73216">
        <ele>1823.5</ele>
        <time>2026-03-03T07:31:11.999Z</time>
      </trkpt>
      <trkpt lat="44.85122" lon="6.73216">
        <ele>1823.5</ele>
        <time>2026-03-03T07:31:12.999Z</time>
      </trkpt>
      <trkpt lat="44.8512" lon="6.73217">
        <ele>1823.5</ele>
        <time>2026-03-03T07:31:13.999Z</time>
      </trkpt>
      <trkpt lat="44.8512" lon="6.73218">
        <ele>1823.7</ele>
        <time>2026-03-03T07:31:14.999Z</time>
      </trkpt>
      <trkpt lat="44.85119" lon="6.73218">
        <ele>1823.8</ele>
        <time>2026-03-03T07:31:15.999Z</time>
      </trkpt>
      <trkpt lat="44.85118" lon="6.73219">
        <ele>1823.7</ele>
        <time>2026-03-03T07:31:16.999Z</time>
      </trkpt>
      <trkpt lat="44.85117" lon="6.7322">
        <ele>1823.7</ele>
        <time>2026-03-03T07:31:17.999Z</time>
      </trkpt>
      <trkpt lat="44.85116" lon="6.7322">
        <ele>1823.8</ele>
        <time>2026-03-03T07:31:18.999Z</time>
      </trkpt>
      <trkpt lat="44.85116" lon="6.73221">
        <ele>1823.9</ele>
        <time>2026-03-03T07:31:19.999Z</time>
      </trkpt>
      <trkpt lat="44.85115" lon="6.73222">
        <ele>1823.8</ele>
        <time>2026-03-03T07:31:20.999Z</time>
      </trkpt>
      <trkpt lat="44.85114" lon="6.73222">
        <ele>1824</ele>
        <time>2026-03-03T07:31:21.999Z</time>
      </trkpt>
      <trkpt lat="44.85113" lon="6.73223">
        <ele>1824.3</ele>
        <time>2026-03-03T07:31:22.999Z</time>
      </trkpt>
      <trkpt lat="44.85113" lon="6.73223">
        <ele>1824.6</ele>
        <time>2026-03-03T07:31:23.999Z</time>
      </trkpt>
      <trkpt lat="44.85112" lon="6.73224">
        <ele>1824.5</ele>
        <time>2026-03-03T07:31:24.999Z</time>
      </trkpt>
      <trkpt lat="44.85112" lon="6.73224">
        <ele>1824.7</ele>
        <time>2026-03-03T07:31:25.999Z</time>
      </trkpt>
      <trkpt lat="44.85111" lon="6.73225">
        <ele>1824.7</ele>
        <time>2026-03-03T07:31:26.999Z</time>
      </trkpt>
      <trkpt lat="44.8511" lon="6.73226">
        <ele>1824.6</ele>
        <time>2026-03-03T07:31:27.999Z</time>
      </trkpt>
      <trkpt lat="44.85109" lon="6.73226">
        <ele>1824.5</ele>
        <time>2026-03-03T07:31:28.999Z</time>
      </trkpt>
      <trkpt lat="44.85108" lon="6.73227">
        <ele>1824.3</ele>
        <time>2026-03-03T07:31:29.999Z</time>
      </trkpt>
      <trkpt lat="44.85108" lon="6.73228">
        <ele>1824.3</ele>
        <time>2026-03-03T07:31:30.999Z</time>
      </trkpt>
      <trkpt lat="44.85107" lon="6.73229">
        <ele>1824.4</ele>
        <time>2026-03-03T07:31:31.999Z</time>
      </trkpt>
      <trkpt lat="44.85106" lon="6.7323">
        <ele>1824.6</ele>
        <time>2026-03-03T07:31:32.999Z</time>
      </trkpt>
      <trkpt lat="44.85105" lon="6.7323">
        <ele>1824.6</ele>
        <time>2026-03-03T07:31:33.999Z</time>
      </trkpt>
      <trkpt lat="44.85105" lon="6.73231">
        <ele>1824.5</ele>
        <time>2026-03-03T07:31:34.999Z</time>
      </trkpt>
      <trkpt lat="44.85104" lon="6.73231">
        <ele>1824.7</ele>
        <time>2026-03-03T07:31:35.999Z</time>
      </trkpt>
      <trkpt lat="44.85104" lon="6.73232">
        <ele>1824.7</ele>
        <time>2026-03-03T07:31:36.999Z</time>
      </trkpt>
      <trkpt lat="44.85103" lon="6.73233">
        <ele>1824.7</ele>
        <time>2026-03-03T07:31:37.999Z</time>
      </trkpt>
      <trkpt lat="44.85102" lon="6.73233">
        <ele>1824.9</ele>
        <time>2026-03-03T07:31:38.999Z</time>
      </trkpt>
      <trkpt lat="44.85102" lon="6.73234">
        <ele>1825</ele>
        <time>2026-03-03T07:31:39.999Z</time>
      </trkpt>
      <trkpt lat="44.85101" lon="6.73235">
        <ele>1825</ele>
        <time>2026-03-03T07:31:40.999Z</time>
      </trkpt>
      <trkpt lat="44.851" lon="6.73236">
        <ele>1824.9</ele>
        <time>2026-03-03T07:31:41.999Z</time>
      </trkpt>
      <trkpt lat="44.851" lon="6.73236">
        <ele>1825</ele>
        <time>2026-03-03T07:31:42.999Z</time>
      </trkpt>
      <trkpt lat="44.85099" lon="6.73237">
        <ele>1825.4</ele>
        <time>2026-03-03T07:31:43.999Z</time>
      </trkpt>
      <trkpt lat="44.85098" lon="6.73237">
        <ele>1825.7</ele>
        <time>2026-03-03T07:31:44.999Z</time>
      </trkpt>
      <trkpt lat="44.85098" lon="6.73238">
        <ele>1825.9</ele>
        <time>2026-03-03T07:31:45.999Z</time>
      </trkpt>
      <trkpt lat="44.85097" lon="6.73238">
        <ele>1826.3</ele>
        <time>2026-03-03T07:31:46.999Z</time>
      </trkpt>
      <trkpt lat="44.85096" lon="6.73239">
        <ele>1826.6</ele>
        <time>2026-03-03T07:31:47.999Z</time>
      </trkpt>
      <trkpt lat="44.85095" lon="6.7324">
        <ele>1826.9</ele>
        <time>2026-03-03T07:31:48.999Z</time>
      </trkpt>
      <trkpt lat="44.85094" lon="6.73242">
        <ele>1827</ele>
        <time>2026-03-03T07:31:49.999Z</time>
      </trkpt>
      <trkpt lat="44.85093" lon="6.73243">
        <ele>1827</ele>
        <time>2026-03-03T07:31:50.999Z</time>
      </trkpt>
      <trkpt lat="44.85093" lon="6.73243">
        <ele>1827.3</ele>
        <time>2026-03-03T07:31:51.999Z</time>
      </trkpt>
      <trkpt lat="44.85093" lon="6.73244">
        <ele>1827.6</ele>
        <time>2026-03-03T07:31:52.999Z</time>
      </trkpt>
      <trkpt lat="44.85092" lon="6.73245">
        <ele>1827.7</ele>
        <time>2026-03-03T07:31:53.999Z</time>
      </trkpt>
      <trkpt lat="44.85092" lon="6.73246">
        <ele>1828.2</ele>
        <time>2026-03-03T07:31:54.999Z</time>
      </trkpt>
      <trkpt lat="44.85091" lon="6.73247">
        <ele>1828.3</ele>
        <time>2026-03-03T07:31:55.999Z</time>
      </trkpt>
      <trkpt lat="44.85091" lon="6.73247">
        <ele>1828.4</ele>
        <time>2026-03-03T07:31:56.999Z</time>
      </trkpt>
      <trkpt lat="44.8509" lon="6.73248">
        <ele>1828.5</ele>
        <time>2026-03-03T07:31:57.999Z</time>
      </trkpt>
      <trkpt lat="44.85089" lon="6.73248">
        <ele>1828.7</ele>
        <time>2026-03-03T07:31:58.999Z</time>
      </trkpt>
      <trkpt lat="44.85089" lon="6.73249">
        <ele>1828.9</ele>
        <time>2026-03-03T07:31:59.999Z</time>
      </trkpt>
      <trkpt lat="44.85088" lon="6.7325">
        <ele>1828.7</ele>
        <time>2026-03-03T07:32:00.999Z</time>
      </trkpt>
      <trkpt lat="44.85088" lon="6.73251">
        <ele>1828.4</ele>
        <time>2026-03-03T07:32:01.999Z</time>
      </trkpt>
      <trkpt lat="44.85087" lon="6.73251">
        <ele>1828.3</ele>
        <time>2026-03-03T07:32:02.999Z</time>
      </trkpt>
      <trkpt lat="44.85086" lon="6.73252">
        <ele>1828.2</ele>
        <time>2026-03-03T07:32:03.999Z</time>
      </trkpt>
      <trkpt lat="44.85085" lon="6.73253">
        <ele>1828.2</ele>
        <time>2026-03-03T07:32:04.999Z</time>
      </trkpt>
      <trkpt lat="44.85085" lon="6.73254">
        <ele>1828.1</ele>
        <time>2026-03-03T07:32:05.999Z</time>
      </trkpt>
      <trkpt lat="44.85084" lon="6.73255">
        <ele>1828.2</ele>
        <time>2026-03-03T07:32:06.999Z</time>
      </trkpt>
      <trkpt lat="44.85084" lon="6.73256">
        <ele>1828.2</ele>
        <time>2026-03-03T07:32:07.999Z</time>
      </trkpt>
      <trkpt lat="44.85083" lon="6.73257">
        <ele>1828.3</ele>
        <time>2026-03-03T07:32:08.999Z</time>
      </trkpt>
      <trkpt lat="44.85083" lon="6.73259">
        <ele>1828.6</ele>
        <time>2026-03-03T07:32:09.999Z</time>
      </trkpt>
      <trkpt lat="44.85082" lon="6.7326">
        <ele>1828.7</ele>
        <time>2026-03-03T07:32:10.999Z</time>
      </trkpt>
      <trkpt lat="44.85082" lon="6.73261">
        <ele>1828.8</ele>
        <time>2026-03-03T07:32:11.999Z</time>
      </trkpt>
      <trkpt lat="44.85082" lon="6.73262">
        <ele>1829</ele>
        <time>2026-03-03T07:32:12.999Z</time>
      </trkpt>
      <trkpt lat="44.85081" lon="6.73262">
        <ele>1828.9</ele>
        <time>2026-03-03T07:32:13.999Z</time>
      </trkpt>
      <trkpt lat="44.85081" lon="6.73263">
        <ele>1828.8</ele>
        <time>2026-03-03T07:32:14.999Z</time>
      </trkpt>
      <trkpt lat="44.85081" lon="6.73264">
        <ele>1828.9</ele>
        <time>2026-03-03T07:32:15.999Z</time>
      </trkpt>
      <trkpt lat="44.8508" lon="6.73265">
        <ele>1828.9</ele>
        <time>2026-03-03T07:32:16.999Z</time>
      </trkpt>
      <trkpt lat="44.8508" lon="6.73266">
        <ele>1828.9</ele>
        <time>2026-03-03T07:32:17.999Z</time>
      </trkpt>
      <trkpt lat="44.85079" lon="6.73267">
        <ele>1828.7</ele>
        <time>2026-03-03T07:32:18.999Z</time>
      </trkpt>
      <trkpt lat="44.85079" lon="6.73268">
        <ele>1828.8</ele>
        <time>2026-03-03T07:32:19.999Z</time>
      </trkpt>
      <trkpt lat="44.85078" lon="6.73268">
        <ele>1828.9</ele>
        <time>2026-03-03T07:32:20.999Z</time>
      </trkpt>
      <trkpt lat="44.85077" lon="6.73269">
        <ele>1829.2</ele>
        <time>2026-03-03T07:32:21.999Z</time>
      </trkpt>
      <trkpt lat="44.85077" lon="6.7327">
        <ele>1829.3</ele>
        <time>2026-03-03T07:32:22.999Z</time>
      </trkpt>
      <trkpt lat="44.85076" lon="6.73271">
        <ele>1829.2</ele>
        <time>2026-03-03T07:32:23.999Z</time>
      </trkpt>
      <trkpt lat="44.85075" lon="6.73272">
        <ele>1829.3</ele>
        <time>2026-03-03T07:32:24.999Z</time>
      </trkpt>
      <trkpt lat="44.85074" lon="6.73274">
        <ele>1829.5</ele>
        <time>2026-03-03T07:32:25.999Z</time>
      </trkpt>
      <trkpt lat="44.85074" lon="6.73274">
        <ele>1829.8</ele>
        <time>2026-03-03T07:32:26.999Z</time>
      </trkpt>
      <trkpt lat="44.85073" lon="6.73275">
        <ele>1830</ele>
        <time>2026-03-03T07:32:27.999Z</time>
      </trkpt>
      <trkpt lat="44.85073" lon="6.73277">
        <ele>1830</ele>
        <time>2026-03-03T07:32:28.999Z</time>
      </trkpt>
      <trkpt lat="44.85072" lon="6.73278">
        <ele>1830</ele>
        <time>2026-03-03T07:32:29.999Z</time>
      </trkpt>
      <trkpt lat="44.85072" lon="6.73279">
        <ele>1830</ele>
        <time>2026-03-03T07:32:30.999Z</time>
      </trkpt>
      <trkpt lat="44.85071" lon="6.7328">
        <ele>1830.1</ele>
        <time>2026-03-03T07:32:31.999Z</time>
      </trkpt>
      <trkpt lat="44.85071" lon="6.73281">
        <ele>1830.2</ele>
        <time>2026-03-03T07:32:32.999Z</time>
      </trkpt>
      <trkpt lat="44.85071" lon="6.73282">
        <ele>1830.2</ele>
        <time>2026-03-03T07:32:33.999Z</time>
      </trkpt>
      <trkpt lat="44.8507" lon="6.73282">
        <ele>1830.4</ele>
        <time>2026-03-03T07:32:34.999Z</time>
      </trkpt>
      <trkpt lat="44.8507" lon="6.73283">
        <ele>1830.4</ele>
        <time>2026-03-03T07:32:35.999Z</time>
      </trkpt>
      <trkpt lat="44.85069" lon="6.73284">
        <ele>1830.6</ele>
        <time>2026-03-03T07:32:36.999Z</time>
      </trkpt>
      <trkpt lat="44.85068" lon="6.73285">
        <ele>1831</ele>
        <time>2026-03-03T07:32:37.999Z</time>
      </trkpt>
      <trkpt lat="44.85068" lon="6.73286">
        <ele>1831.2</ele>
        <time>2026-03-03T07:32:38.999Z</time>
      </trkpt>
      <trkpt lat="44.85067" lon="6.73287">
        <ele>1831.2</ele>
        <time>2026-03-03T07:32:39.999Z</time>
      </trkpt>
      <trkpt lat="44.85067" lon="6.73288">
        <ele>1831.2</ele>
        <time>2026-03-03T07:32:40.999Z</time>
      </trkpt>
      <trkpt lat="44.85066" lon="6.73289">
        <ele>1831.3</ele>
        <time>2026-03-03T07:32:41.999Z</time>
      </trkpt>
      <trkpt lat="44.85066" lon="6.7329">
        <ele>1831.3</ele>
        <time>2026-03-03T07:32:42.999Z</time>
      </trkpt>
      <trkpt lat="44.85065" lon="6.73291">
        <ele>1831.5</ele>
        <time>2026-03-03T07:32:43.999Z</time>
      </trkpt>
      <trkpt lat="44.85065" lon="6.73292">
        <ele>1831.6</ele>
        <time>2026-03-03T07:32:44.999Z</time>
      </trkpt>
      <trkpt lat="44.85064" lon="6.73293">
        <ele>1831.8</ele>
        <time>2026-03-03T07:32:45.999Z</time>
      </trkpt>
      <trkpt lat="44.85063" lon="6.73294">
        <ele>1831.7</ele>
        <time>2026-03-03T07:32:46.999Z</time>
      </trkpt>
      <trkpt lat="44.85063" lon="6.73294">
        <ele>1831.7</ele>
        <time>2026-03-03T07:32:47.999Z</time>
      </trkpt>
      <trkpt lat="44.85063" lon="6.73295">
        <ele>1832</ele>
        <time>2026-03-03T07:32:48.999Z</time>
      </trkpt>
      <trkpt lat="44.85062" lon="6.73297">
        <ele>1832.1</ele>
        <time>2026-03-03T07:32:49.999Z</time>
      </trkpt>
      <trkpt lat="44.85061" lon="6.73298">
        <ele>1832.1</ele>
        <time>2026-03-03T07:32:50.999Z</time>
      </trkpt>
      <trkpt lat="44.8506" lon="6.733">
        <ele>1832.1</ele>
        <time>2026-03-03T07:32:51.999Z</time>
      </trkpt>
      <trkpt lat="44.8506" lon="6.73301">
        <ele>1832.1</ele>
        <time>2026-03-03T07:32:52.999Z</time>
      </trkpt>
      <trkpt lat="44.85059" lon="6.73302">
        <ele>1832.2</ele>
        <time>2026-03-03T07:32:53.999Z</time>
      </trkpt>
      <trkpt lat="44.85059" lon="6.73302">
        <ele>1832.6</ele>
        <time>2026-03-03T07:32:54.999Z</time>
      </trkpt>
      <trkpt lat="44.85059" lon="6.73302">
        <ele>1832.6</ele>
        <time>2026-03-03T07:32:55.999Z</time>
      </trkpt>
      <trkpt lat="44.85059" lon="6.73304">
        <ele>1832.6</ele>
        <time>2026-03-03T07:32:56.999Z</time>
      </trkpt>
      <trkpt lat="44.85059" lon="6.73305">
        <ele>1832.6</ele>
        <time>2026-03-03T07:32:57.999Z</time>
      </trkpt>
      <trkpt lat="44.85058" lon="6.73306">
        <ele>1832.8</ele>
        <time>2026-03-03T07:32:58.999Z</time>
      </trkpt>
      <trkpt lat="44.85057" lon="6.73307">
        <ele>1832.8</ele>
        <time>2026-03-03T07:32:59.999Z</time>
      </trkpt>
      <trkpt lat="44.85057" lon="6.73309">
        <ele>1832.9</ele>
        <time>2026-03-03T07:33:00.999Z</time>
      </trkpt>
      <trkpt lat="44.85056" lon="6.7331">
        <ele>1832.8</ele>
        <time>2026-03-03T07:33:01.999Z</time>
      </trkpt>
      <trkpt lat="44.85056" lon="6.73311">
        <ele>1832.8</ele>
        <time>2026-03-03T07:33:02.999Z</time>
      </trkpt>
      <trkpt lat="44.85056" lon="6.73311">
        <ele>1832.7</ele>
        <time>2026-03-03T07:33:03.999Z</time>
      </trkpt>
      <trkpt lat="44.85055" lon="6.73311">
        <ele>1832.7</ele>
        <time>2026-03-03T07:33:04.999Z</time>
      </trkpt>
      <trkpt lat="44.85055" lon="6.73312">
        <ele>1832.8</ele>
        <time>2026-03-03T07:33:05.999Z</time>
      </trkpt>
      <trkpt lat="44.85055" lon="6.73314">
        <ele>1832.9</ele>
        <time>2026-03-03T07:33:06.999Z</time>
      </trkpt>
      <trkpt lat="44.85055" lon="6.73315">
        <ele>1832.9</ele>
        <time>2026-03-03T07:33:07.999Z</time>
      </trkpt>
      <trkpt lat="44.85054" lon="6.73316">
        <ele>1832.9</ele>
        <time>2026-03-03T07:33:08.999Z</time>
      </trkpt>
      <trkpt lat="44.85053" lon="6.73317">
        <ele>1832.9</ele>
        <time>2026-03-03T07:33:09.999Z</time>
      </trkpt>
      <trkpt lat="44.85053" lon="6.73319">
        <ele>1833</ele>
        <time>2026-03-03T07:33:10.999Z</time>
      </trkpt>
      <trkpt lat="44.85052" lon="6.7332">
        <ele>1833.2</ele>
        <time>2026-03-03T07:33:11.999Z</time>
      </trkpt>
      <trkpt lat="44.85051" lon="6.73321">
        <ele>1833.2</ele>
        <time>2026-03-03T07:33:12.999Z</time>
      </trkpt>
      <trkpt lat="44.85051" lon="6.73323">
        <ele>1833.4</ele>
        <time>2026-03-03T07:33:13.999Z</time>
      </trkpt>
      <trkpt lat="44.8505" lon="6.73323">
        <ele>1833.5</ele>
        <time>2026-03-03T07:33:14.999Z</time>
      </trkpt>
      <trkpt lat="44.8505" lon="6.73324">
        <ele>1833.7</ele>
        <time>2026-03-03T07:33:15.999Z</time>
      </trkpt>
      <trkpt lat="44.85049" lon="6.73324">
        <ele>1834.2</ele>
        <time>2026-03-03T07:33:16.999Z</time>
      </trkpt>
      <trkpt lat="44.85048" lon="6.73325">
        <ele>1834.2</ele>
        <time>2026-03-03T07:33:17.999Z</time>
      </trkpt>
      <trkpt lat="44.85048" lon="6.73326">
        <ele>1834.2</ele>
        <time>2026-03-03T07:33:18.999Z</time>
      </trkpt>
      <trkpt lat="44.85048" lon="6.73327">
        <ele>1834.1</ele>
        <time>2026-03-03T07:33:19.999Z</time>
      </trkpt>
      <trkpt lat="44.85047" lon="6.73328">
        <ele>1834.2</ele>
        <time>2026-03-03T07:33:20.999Z</time>
      </trkpt>
      <trkpt lat="44.85047" lon="6.73329">
        <ele>1834.2</ele>
        <time>2026-03-03T07:33:21.999Z</time>
      </trkpt>
      <trkpt lat="44.85047" lon="6.73331">
        <ele>1834.2</ele>
        <time>2026-03-03T07:33:22.999Z</time>
      </trkpt>
      <trkpt lat="44.85046" lon="6.73331">
        <ele>1834.2</ele>
        <time>2026-03-03T07:33:23.999Z</time>
      </trkpt>
      <trkpt lat="44.85045" lon="6.73332">
        <ele>1834.3</ele>
        <time>2026-03-03T07:33:24.999Z</time>
      </trkpt>
      <trkpt lat="44.85044" lon="6.73333">
        <ele>1834.3</ele>
        <time>2026-03-03T07:33:25.999Z</time>
      </trkpt>
      <trkpt lat="44.85043" lon="6.73333">
        <ele>1834.7</ele>
        <time>2026-03-03T07:33:26.999Z</time>
      </trkpt>
      <trkpt lat="44.85042" lon="6.73334">
        <ele>1834.9</ele>
        <time>2026-03-03T07:33:27.999Z</time>
      </trkpt>
      <trkpt lat="44.85042" lon="6.73335">
        <ele>1835.1</ele>
        <time>2026-03-03T07:33:28.999Z</time>
      </trkpt>
      <trkpt lat="44.85042" lon="6.73336">
        <ele>1835</ele>
        <time>2026-03-03T07:33:29.999Z</time>
      </trkpt>
      <trkpt lat="44.85041" lon="6.73338">
        <ele>1835</ele>
        <time>2026-03-03T07:33:30.999Z</time>
      </trkpt>
      <trkpt lat="44.8504" lon="6.73339">
        <ele>1835</ele>
        <time>2026-03-03T07:33:31.999Z</time>
      </trkpt>
      <trkpt lat="44.8504" lon="6.7334">
        <ele>1835.1</ele>
        <time>2026-03-03T07:33:32.999Z</time>
      </trkpt>
      <trkpt lat="44.8504" lon="6.73341">
        <ele>1835.1</ele>
        <time>2026-03-03T07:33:33.999Z</time>
      </trkpt>
      <trkpt lat="44.85039" lon="6.73342">
        <ele>1835.2</ele>
        <time>2026-03-03T07:33:34.999Z</time>
      </trkpt>
      <trkpt lat="44.85038" lon="6.73343">
        <ele>1835.5</ele>
        <time>2026-03-03T07:33:35.999Z</time>
      </trkpt>
      <trkpt lat="44.85038" lon="6.73344">
        <ele>1835.7</ele>
        <time>2026-03-03T07:33:36.999Z</time>
      </trkpt>
      <trkpt lat="44.85038" lon="6.73345">
        <ele>1835.8</ele>
        <time>2026-03-03T07:33:37.999Z</time>
      </trkpt>
      <trkpt lat="44.85037" lon="6.73346">
        <ele>1835.8</ele>
        <time>2026-03-03T07:33:38.999Z</time>
      </trkpt>
      <trkpt lat="44.85036" lon="6.73347">
        <ele>1835.9</ele>
        <time>2026-03-03T07:33:39.999Z</time>
      </trkpt>
      <trkpt lat="44.85036" lon="6.73347">
        <ele>1836</ele>
        <time>2026-03-03T07:33:40.999Z</time>
      </trkpt>
      <trkpt lat="44.85035" lon="6.73348">
        <ele>1835.9</ele>
        <time>2026-03-03T07:33:41.999Z</time>
      </trkpt>
      <trkpt lat="44.85034" lon="6.73349">
        <ele>1836</ele>
        <time>2026-03-03T07:33:42.999Z</time>
      </trkpt>
      <trkpt lat="44.85034" lon="6.73349">
        <ele>1836</ele>
        <time>2026-03-03T07:33:43.999Z</time>
      </trkpt>
      <trkpt lat="44.85033" lon="6.7335">
        <ele>1836.1</ele>
        <time>2026-03-03T07:33:44.999Z</time>
      </trkpt>
      <trkpt lat="44.85033" lon="6.73351">
        <ele>1836.2</ele>
        <time>2026-03-03T07:33:45.999Z</time>
      </trkpt>
      <trkpt lat="44.85033" lon="6.73353">
        <ele>1836.3</ele>
        <time>2026-03-03T07:33:46.999Z</time>
      </trkpt>
      <trkpt lat="44.85033" lon="6.73354">
        <ele>1836.4</ele>
        <time>2026-03-03T07:33:47.999Z</time>
      </trkpt>
      <trkpt lat="44.85033" lon="6.73355">
        <ele>1836.5</ele>
        <time>2026-03-03T07:33:48.999Z</time>
      </trkpt>
      <trkpt lat="44.85032" lon="6.73355">
        <ele>1836.7</ele>
        <time>2026-03-03T07:33:49.999Z</time>
      </trkpt>
      <trkpt lat="44.85032" lon="6.73356">
        <ele>1836.9</ele>
        <time>2026-03-03T07:33:50.999Z</time>
      </trkpt>
      <trkpt lat="44.85031" lon="6.73357">
        <ele>1837.5</ele>
        <time>2026-03-03T07:33:51.999Z</time>
      </trkpt>
      <trkpt lat="44.85031" lon="6.73359">
        <ele>1837.9</ele>
        <time>2026-03-03T07:33:52.999Z</time>
      </trkpt>
      <trkpt lat="44.85031" lon="6.7336">
        <ele>1838</ele>
        <time>2026-03-03T07:33:53.999Z</time>
      </trkpt>
      <trkpt lat="44.8503" lon="6.73362">
        <ele>1837.9</ele>
        <time>2026-03-03T07:33:54.999Z</time>
      </trkpt>
      <trkpt lat="44.85029" lon="6.73362">
        <ele>1838</ele>
        <time>2026-03-03T07:33:55.999Z</time>
      </trkpt>
      <trkpt lat="44.85029" lon="6.73363">
        <ele>1838.2</ele>
        <time>2026-03-03T07:33:56.999Z</time>
      </trkpt>
      <trkpt lat="44.85029" lon="6.73364">
        <ele>1838.4</ele>
        <time>2026-03-03T07:33:57.999Z</time>
      </trkpt>
      <trkpt lat="44.85028" lon="6.73365">
        <ele>1838.8</ele>
        <time>2026-03-03T07:33:58.999Z</time>
      </trkpt>
      <trkpt lat="44.85028" lon="6.73367">
        <ele>1838.9</ele>
        <time>2026-03-03T07:33:59.999Z</time>
      </trkpt>
      <trkpt lat="44.85028" lon="6.73368">
        <ele>1839</ele>
        <time>2026-03-03T07:34:00.999Z</time>
      </trkpt>
      <trkpt lat="44.85027" lon="6.73369">
        <ele>1839.2</ele>
        <time>2026-03-03T07:34:01.999Z</time>
      </trkpt>
      <trkpt lat="44.85027" lon="6.73369">
        <ele>1839.4</ele>
        <time>2026-03-03T07:34:02.999Z</time>
      </trkpt>
      <trkpt lat="44.85026" lon="6.7337">
        <ele>1839.5</ele>
        <time>2026-03-03T07:34:03.999Z</time>
      </trkpt>
      <trkpt lat="44.85026" lon="6.73372">
        <ele>1839.8</ele>
        <time>2026-03-03T07:34:04.999Z</time>
      </trkpt>
      <trkpt lat="44.85026" lon="6.73372">
        <ele>1839.9</ele>
        <time>2026-03-03T07:34:05.999Z</time>
      </trkpt>
      <trkpt lat="44.85025" lon="6.73374">
        <ele>1839.9</ele>
        <time>2026-03-03T07:34:06.999Z</time>
      </trkpt>
      <trkpt lat="44.85025" lon="6.73375">
        <ele>1840</ele>
        <time>2026-03-03T07:34:07.999Z</time>
      </trkpt>
      <trkpt lat="44.85024" lon="6.73376">
        <ele>1839.9</ele>
        <time>2026-03-03T07:34:08.999Z</time>
      </trkpt>
      <trkpt lat="44.85024" lon="6.73377">
        <ele>1839.8</ele>
        <time>2026-03-03T07:34:09.999Z</time>
      </trkpt>
      <trkpt lat="44.85024" lon="6.73379">
        <ele>1839.8</ele>
        <time>2026-03-03T07:34:10.999Z</time>
      </trkpt>
      <trkpt lat="44.85024" lon="6.7338">
        <ele>1839.9</ele>
        <time>2026-03-03T07:34:11.999Z</time>
      </trkpt>
      <trkpt lat="44.85023" lon="6.73381">
        <ele>1840</ele>
        <time>2026-03-03T07:34:12.999Z</time>
      </trkpt>
      <trkpt lat="44.85023" lon="6.73383">
        <ele>1840</ele>
        <time>2026-03-03T07:34:13.999Z</time>
      </trkpt>
      <trkpt lat="44.85023" lon="6.73384">
        <ele>1840.1</ele>
        <time>2026-03-03T07:34:14.999Z</time>
      </trkpt>
      <trkpt lat="44.85023" lon="6.73385">
        <ele>1840.3</ele>
        <time>2026-03-03T07:34:15.999Z</time>
      </trkpt>
      <trkpt lat="44.85023" lon="6.73386">
        <ele>1840.4</ele>
        <time>2026-03-03T07:34:16.999Z</time>
      </trkpt>
      <trkpt lat="44.85023" lon="6.73388">
        <ele>1840.4</ele>
        <time>2026-03-03T07:34:17.999Z</time>
      </trkpt>
      <trkpt lat="44.85023" lon="6.73389">
        <ele>1840.5</ele>
        <time>2026-03-03T07:34:18.999Z</time>
      </trkpt>
      <trkpt lat="44.85023" lon="6.7339">
        <ele>1840.4</ele>
        <time>2026-03-03T07:34:19.999Z</time>
      </trkpt>
      <trkpt lat="44.85022" lon="6.73391">
        <ele>1840.1</ele>
        <time>2026-03-03T07:34:20.999Z</time>
      </trkpt>
      <trkpt lat="44.85022" lon="6.73392">
        <ele>1840</ele>
        <time>2026-03-03T07:34:21.999Z</time>
      </trkpt>
      <trkpt lat="44.85022" lon="6.73393">
        <ele>1840.1</ele>
        <time>2026-03-03T07:34:22.999Z</time>
      </trkpt>
      <trkpt lat="44.85022" lon="6.73395">
        <ele>1840.1</ele>
        <time>2026-03-03T07:34:23.999Z</time>
      </trkpt>
      <trkpt lat="44.85022" lon="6.73396">
        <ele>1840.1</ele>
        <time>2026-03-03T07:34:24.999Z</time>
      </trkpt>
      <trkpt lat="44.85021" lon="6.73397">
        <ele>1840</ele>
        <time>2026-03-03T07:34:25.999Z</time>
      </trkpt>
      <trkpt lat="44.85021" lon="6.73398">
        <ele>1840</ele>
        <time>2026-03-03T07:34:26.999Z</time>
      </trkpt>
      <trkpt lat="44.85022" lon="6.73399">
        <ele>1839.9</ele>
        <time>2026-03-03T07:34:27.999Z</time>
      </trkpt>
      <trkpt lat="44.85022" lon="6.734">
        <ele>1839.9</ele>
        <time>2026-03-03T07:34:28.999Z</time>
      </trkpt>
      <trkpt lat="44.85021" lon="6.73401">
        <ele>1840</ele>
        <time>2026-03-03T07:34:29.999Z</time>
      </trkpt>
      <trkpt lat="44.85021" lon="6.73402">
        <ele>1840</ele>
        <time>2026-03-03T07:34:30.999Z</time>
      </trkpt>
      <trkpt lat="44.85021" lon="6.73404">
        <ele>1840.1</ele>
        <time>2026-03-03T07:34:31.999Z</time>
      </trkpt>
      <trkpt lat="44.85021" lon="6.73405">
        <ele>1840.1</ele>
        <time>2026-03-03T07:34:32.999Z</time>
      </trkpt>
      <trkpt lat="44.85021" lon="6.73406">
        <ele>1840.2</ele>
        <time>2026-03-03T07:34:33.999Z</time>
      </trkpt>
      <trkpt lat="44.85021" lon="6.73407">
        <ele>1840.2</ele>
        <time>2026-03-03T07:34:34.999Z</time>
      </trkpt>
      <trkpt lat="44.85021" lon="6.73408">
        <ele>1840.4</ele>
        <time>2026-03-03T07:34:35.999Z</time>
      </trkpt>
      <trkpt lat="44.8502" lon="6.73409">
        <ele>1840.7</ele>
        <time>2026-03-03T07:34:36.999Z</time>
      </trkpt>
      <trkpt lat="44.8502" lon="6.7341">
        <ele>1841.1</ele>
        <time>2026-03-03T07:34:37.999Z</time>
      </trkpt>
      <trkpt lat="44.8502" lon="6.73411">
        <ele>1841.2</ele>
        <time>2026-03-03T07:34:38.999Z</time>
      </trkpt>
      <trkpt lat="44.8502" lon="6.73413">
        <ele>1841.5</ele>
        <time>2026-03-03T07:34:39.999Z</time>
      </trkpt>
      <trkpt lat="44.8502" lon="6.73414">
        <ele>1841.5</ele>
        <time>2026-03-03T07:34:40.999Z</time>
      </trkpt>
      <trkpt lat="44.8502" lon="6.73415">
        <ele>1841.6</ele>
        <time>2026-03-03T07:34:41.999Z</time>
      </trkpt>
      <trkpt lat="44.85019" lon="6.73417">
        <ele>1841.7</ele>
        <time>2026-03-03T07:34:42.999Z</time>
      </trkpt>
      <trkpt lat="44.85019" lon="6.73418">
        <ele>1841.9</ele>
        <time>2026-03-03T07:34:43.999Z</time>
      </trkpt>
      <trkpt lat="44.8502" lon="6.73419">
        <ele>1842</ele>
        <time>2026-03-03T07:34:44.999Z</time>
      </trkpt>
      <trkpt lat="44.8502" lon="6.73421">
        <ele>1842.1</ele>
        <time>2026-03-03T07:34:45.999Z</time>
      </trkpt>
      <trkpt lat="44.85019" lon="6.73421">
        <ele>1842.3</ele>
        <time>2026-03-03T07:34:46.999Z</time>
      </trkpt>
      <trkpt lat="44.85019" lon="6.73423">
        <ele>1842.4</ele>
        <time>2026-03-03T07:34:47.999Z</time>
      </trkpt>
      <trkpt lat="44.85019" lon="6.73424">
        <ele>1842.4</ele>
        <time>2026-03-03T07:34:48.999Z</time>
      </trkpt>
      <trkpt lat="44.85019" lon="6.73425">
        <ele>1842.6</ele>
        <time>2026-03-03T07:34:49.999Z</time>
      </trkpt>
      <trkpt lat="44.85019" lon="6.73425">
        <ele>1842.7</ele>
        <time>2026-03-03T07:34:50.999Z</time>
      </trkpt>
      <trkpt lat="44.85019" lon="6.73427">
        <ele>1842.7</ele>
        <time>2026-03-03T07:34:51.999Z</time>
      </trkpt>
      <trkpt lat="44.85018" lon="6.73428">
        <ele>1843.1</ele>
        <time>2026-03-03T07:34:52.999Z</time>
      </trkpt>
      <trkpt lat="44.85018" lon="6.73429">
        <ele>1843.5</ele>
        <time>2026-03-03T07:34:53.999Z</time>
      </trkpt>
      <trkpt lat="44.85018" lon="6.73431">
        <ele>1843.6</ele>
        <time>2026-03-03T07:34:54.999Z</time>
      </trkpt>
      <trkpt lat="44.85018" lon="6.73432">
        <ele>1843.9</ele>
        <time>2026-03-03T07:34:55.999Z</time>
      </trkpt>
      <trkpt lat="44.85018" lon="6.73434">
        <ele>1843.8</ele>
        <time>2026-03-03T07:34:56.999Z</time>
      </trkpt>
      <trkpt lat="44.85017" lon="6.73435">
        <ele>1843.8</ele>
        <time>2026-03-03T07:34:57.999Z</time>
      </trkpt>
      <trkpt lat="44.85017" lon="6.73437">
        <ele>1843.8</ele>
        <time>2026-03-03T07:34:58.999Z</time>
      </trkpt>
      <trkpt lat="44.85017" lon="6.73438">
        <ele>1843.8</ele>
        <time>2026-03-03T07:34:59.999Z</time>
      </trkpt>
      <trkpt lat="44.85017" lon="6.73439">
        <ele>1844</ele>
        <time>2026-03-03T07:35:00.999Z</time>
      </trkpt>
      <trkpt lat="44.85017" lon="6.7344">
        <ele>1844.1</ele>
        <time>2026-03-03T07:35:01.999Z</time>
      </trkpt>
      <trkpt lat="44.85017" lon="6.73441">
        <ele>1844.4</ele>
        <time>2026-03-03T07:35:02.999Z</time>
      </trkpt>
      <trkpt lat="44.85017" lon="6.73442">
        <ele>1844.8</ele>
        <time>2026-03-03T07:35:03.999Z</time>
      </trkpt>
      <trkpt lat="44.85017" lon="6.73443">
        <ele>1845.1</ele>
        <time>2026-03-03T07:35:04.999Z</time>
      </trkpt>
      <trkpt lat="44.85017" lon="6.73444">
        <ele>1845.2</ele>
        <time>2026-03-03T07:35:05.999Z</time>
      </trkpt>
      <trkpt lat="44.85018" lon="6.73445">
        <ele>1845.2</ele>
        <time>2026-03-03T07:35:06.999Z</time>
      </trkpt>
      <trkpt lat="44.85018" lon="6.73446">
        <ele>1845.1</ele>
        <time>2026-03-03T07:35:07.999Z</time>
      </trkpt>
      <trkpt lat="44.85018" lon="6.73448">
        <ele>1844.9</ele>
        <time>2026-03-03T07:35:08.999Z</time>
      </trkpt>
      <trkpt lat="44.85018" lon="6.73449">
        <ele>1845</ele>
        <time>2026-03-03T07:35:09.999Z</time>
      </trkpt>
      <trkpt lat="44.85018" lon="6.73451">
        <ele>1845</ele>
        <time>2026-03-03T07:35:10.999Z</time>
      </trkpt>
      <trkpt lat="44.85017" lon="6.73452">
        <ele>1845.1</ele>
        <time>2026-03-03T07:35:11.999Z</time>
      </trkpt>
      <trkpt lat="44.85017" lon="6.73453">
        <ele>1845.2</ele>
        <time>2026-03-03T07:35:12.999Z</time>
      </trkpt>
      <trkpt lat="44.85018" lon="6.73454">
        <ele>1845.5</ele>
        <time>2026-03-03T07:35:13.999Z</time>
      </trkpt>
      <trkpt lat="44.85018" lon="6.73456">
        <ele>1845.7</ele>
        <time>2026-03-03T07:35:14.999Z</time>
      </trkpt>
      <trkpt lat="44.85018" lon="6.73457">
        <ele>1845.6</ele>
        <time>2026-03-03T07:35:15.999Z</time>
      </trkpt>
      <trkpt lat="44.85018" lon="6.73458">
        <ele>1845.7</ele>
        <time>2026-03-03T07:35:16.999Z</time>
      </trkpt>
      <trkpt lat="44.85018" lon="6.73459">
        <ele>1845.7</ele>
        <time>2026-03-03T07:35:17.999Z</time>
      </trkpt>
      <trkpt lat="44.85018" lon="6.7346">
        <ele>1845.5</ele>
        <time>2026-03-03T07:35:18.999Z</time>
      </trkpt>
      <trkpt lat="44.85018" lon="6.73461">
        <ele>1845.7</ele>
        <time>2026-03-03T07:35:19.999Z</time>
      </trkpt>
      <trkpt lat="44.85019" lon="6.73463">
        <ele>1845.8</ele>
        <time>2026-03-03T07:35:20.999Z</time>
      </trkpt>
      <trkpt lat="44.85019" lon="6.73464">
        <ele>1845.8</ele>
        <time>2026-03-03T07:35:21.999Z</time>
      </trkpt>
      <trkpt lat="44.85019" lon="6.73465">
        <ele>1845.9</ele>
        <time>2026-03-03T07:35:22.999Z</time>
      </trkpt>
      <trkpt lat="44.85018" lon="6.73467">
        <ele>1845.9</ele>
        <time>2026-03-03T07:35:23.999Z</time>
      </trkpt>
      <trkpt lat="44.85018" lon="6.73468">
        <ele>1845.9</ele>
        <time>2026-03-03T07:35:24.999Z</time>
      </trkpt>
      <trkpt lat="44.85018" lon="6.73469">
        <ele>1846.1</ele>
        <time>2026-03-03T07:35:25.999Z</time>
      </trkpt>
      <trkpt lat="44.85017" lon="6.7347">
        <ele>1846.3</ele>
        <time>2026-03-03T07:35:26.999Z</time>
      </trkpt>
      <trkpt lat="44.85017" lon="6.73472">
        <ele>1846.6</ele>
        <time>2026-03-03T07:35:27.999Z</time>
      </trkpt>
      <trkpt lat="44.85017" lon="6.73473">
        <ele>1846.9</ele>
        <time>2026-03-03T07:35:28.999Z</time>
      </trkpt>
      <trkpt lat="44.85017" lon="6.73474">
        <ele>1847.3</ele>
        <time>2026-03-03T07:35:29.999Z</time>
      </trkpt>
      <trkpt lat="44.85017" lon="6.73475">
        <ele>1847.7</ele>
        <time>2026-03-03T07:35:30.999Z</time>
      </trkpt>
      <trkpt lat="44.85016" lon="6.73476">
        <ele>1847.9</ele>
        <time>2026-03-03T07:35:31.999Z</time>
      </trkpt>
      <trkpt lat="44.85016" lon="6.73477">
        <ele>1847.9</ele>
        <time>2026-03-03T07:35:32.999Z</time>
      </trkpt>
      <trkpt lat="44.85016" lon="6.73478">
        <ele>1848.1</ele>
        <time>2026-03-03T07:35:33.999Z</time>
      </trkpt>
      <trkpt lat="44.85016" lon="6.73479">
        <ele>1848.1</ele>
        <time>2026-03-03T07:35:34.999Z</time>
      </trkpt>
      <trkpt lat="44.85016" lon="6.7348">
        <ele>1848.3</ele>
        <time>2026-03-03T07:35:35.999Z</time>
      </trkpt>
      <trkpt lat="44.85016" lon="6.73481">
        <ele>1848.3</ele>
        <time>2026-03-03T07:35:36.999Z</time>
      </trkpt>
      <trkpt lat="44.85016" lon="6.73483">
        <ele>1848.2</ele>
        <time>2026-03-03T07:35:37.999Z</time>
      </trkpt>
      <trkpt lat="44.85016" lon="6.73484">
        <ele>1848.1</ele>
        <time>2026-03-03T07:35:38.999Z</time>
      </trkpt>
      <trkpt lat="44.85016" lon="6.73485">
        <ele>1848.2</ele>
        <time>2026-03-03T07:35:39.999Z</time>
      </trkpt>
      <trkpt lat="44.85015" lon="6.73486">
        <ele>1848</ele>
        <time>2026-03-03T07:35:40.999Z</time>
      </trkpt>
      <trkpt lat="44.85015" lon="6.73487">
        <ele>1847.9</ele>
        <time>2026-03-03T07:35:41.999Z</time>
      </trkpt>
      <trkpt lat="44.85015" lon="6.73489">
        <ele>1848.3</ele>
        <time>2026-03-03T07:35:42.999Z</time>
      </trkpt>
      <trkpt lat="44.85015" lon="6.7349">
        <ele>1848.6</ele>
        <time>2026-03-03T07:35:43.999Z</time>
      </trkpt>
      <trkpt lat="44.85014" lon="6.73491">
        <ele>1848.8</ele>
        <time>2026-03-03T07:35:44.999Z</time>
      </trkpt>
      <trkpt lat="44.85014" lon="6.73492">
        <ele>1848.6</ele>
        <time>2026-03-03T07:35:45.999Z</time>
      </trkpt>
      <trkpt lat="44.85014" lon="6.73493">
        <ele>1848.7</ele>
        <time>2026-03-03T07:35:46.999Z</time>
      </trkpt>
      <trkpt lat="44.85014" lon="6.73495">
        <ele>1848.8</ele>
        <time>2026-03-03T07:35:47.999Z</time>
      </trkpt>
      <trkpt lat="44.85014" lon="6.73496">
        <ele>1848.9</ele>
        <time>2026-03-03T07:35:48.999Z</time>
      </trkpt>
      <trkpt lat="44.85013" lon="6.73498">
        <ele>1848.9</ele>
        <time>2026-03-03T07:35:49.999Z</time>
      </trkpt>
      <trkpt lat="44.85013" lon="6.73499">
        <ele>1849</ele>
        <time>2026-03-03T07:35:50.999Z</time>
      </trkpt>
      <trkpt lat="44.85013" lon="6.735">
        <ele>1849</ele>
        <time>2026-03-03T07:35:51.999Z</time>
      </trkpt>
      <trkpt lat="44.85013" lon="6.73501">
        <ele>1849.1</ele>
        <time>2026-03-03T07:35:52.999Z</time>
      </trkpt>
      <trkpt lat="44.85012" lon="6.73502">
        <ele>1849.3</ele>
        <time>2026-03-03T07:35:53.999Z</time>
      </trkpt>
      <trkpt lat="44.85012" lon="6.73503">
        <ele>1849.5</ele>
        <time>2026-03-03T07:35:54.999Z</time>
      </trkpt>
      <trkpt lat="44.85011" lon="6.73504">
        <ele>1849.5</ele>
        <time>2026-03-03T07:35:55.999Z</time>
      </trkpt>
      <trkpt lat="44.85011" lon="6.73505">
        <ele>1849.4</ele>
        <time>2026-03-03T07:35:56.999Z</time>
      </trkpt>
      <trkpt lat="44.8501" lon="6.73506">
        <ele>1849.6</ele>
        <time>2026-03-03T07:35:57.999Z</time>
      </trkpt>
      <trkpt lat="44.8501" lon="6.73508">
        <ele>1849.7</ele>
        <time>2026-03-03T07:35:58.999Z</time>
      </trkpt>
      <trkpt lat="44.85009" lon="6.73509">
        <ele>1849.7</ele>
        <time>2026-03-03T07:35:59.999Z</time>
      </trkpt>
      <trkpt lat="44.85009" lon="6.7351">
        <ele>1849.7</ele>
        <time>2026-03-03T07:36:00.999Z</time>
      </trkpt>
      <trkpt lat="44.85008" lon="6.73511">
        <ele>1849.9</ele>
        <time>2026-03-03T07:36:01.999Z</time>
      </trkpt>
      <trkpt lat="44.85008" lon="6.73512">
        <ele>1850.3</ele>
        <time>2026-03-03T07:36:02.999Z</time>
      </trkpt>
      <trkpt lat="44.85008" lon="6.73514">
        <ele>1850.3</ele>
        <time>2026-03-03T07:36:03.999Z</time>
      </trkpt>
      <trkpt lat="44.85008" lon="6.73515">
        <ele>1850.2</ele>
        <time>2026-03-03T07:36:04.999Z</time>
      </trkpt>
      <trkpt lat="44.85008" lon="6.73516">
        <ele>1850.2</ele>
        <time>2026-03-03T07:36:05.999Z</time>
      </trkpt>
      <trkpt lat="44.85007" lon="6.73517">
        <ele>1850.4</ele>
        <time>2026-03-03T07:36:06.999Z</time>
      </trkpt>
      <trkpt lat="44.85007" lon="6.73518">
        <ele>1850.7</ele>
        <time>2026-03-03T07:36:07.999Z</time>
      </trkpt>
      <trkpt lat="44.85006" lon="6.7352">
        <ele>1850.8</ele>
        <time>2026-03-03T07:36:08.999Z</time>
      </trkpt>
      <trkpt lat="44.85006" lon="6.7352">
        <ele>1850.9</ele>
        <time>2026-03-03T07:36:09.999Z</time>
      </trkpt>
      <trkpt lat="44.85005" lon="6.73521">
        <ele>1851</ele>
        <time>2026-03-03T07:36:10.999Z</time>
      </trkpt>
      <trkpt lat="44.85005" lon="6.73521">
        <ele>1851.2</ele>
        <time>2026-03-03T07:36:11.999Z</time>
      </trkpt>
      <trkpt lat="44.85005" lon="6.73522">
        <ele>1851.4</ele>
        <time>2026-03-03T07:36:12.999Z</time>
      </trkpt>
      <trkpt lat="44.85005" lon="6.73523">
        <ele>1851.6</ele>
        <time>2026-03-03T07:36:13.999Z</time>
      </trkpt>
      <trkpt lat="44.85004" lon="6.73524">
        <ele>1851.5</ele>
        <time>2026-03-03T07:36:14.999Z</time>
      </trkpt>
      <trkpt lat="44.85004" lon="6.73525">
        <ele>1851.7</ele>
        <time>2026-03-03T07:36:15.999Z</time>
      </trkpt>
      <trkpt lat="44.85003" lon="6.73525">
        <ele>1851.8</ele>
        <time>2026-03-03T07:36:16.999Z</time>
      </trkpt>
      <trkpt lat="44.85002" lon="6.73526">
        <ele>1852.1</ele>
        <time>2026-03-03T07:36:17.999Z</time>
      </trkpt>
      <trkpt lat="44.85002" lon="6.73527">
        <ele>1852.2</ele>
        <time>2026-03-03T07:36:18.999Z</time>
      </trkpt>
      <trkpt lat="44.85001" lon="6.73528">
        <ele>1852.3</ele>
        <time>2026-03-03T07:36:19.999Z</time>
      </trkpt>
      <trkpt lat="44.85001" lon="6.73529">
        <ele>1852.5</ele>
        <time>2026-03-03T07:36:20.999Z</time>
      </trkpt>
      <trkpt lat="44.85" lon="6.7353">
        <ele>1852.5</ele>
        <time>2026-03-03T07:36:21.999Z</time>
      </trkpt>
      <trkpt lat="44.84999" lon="6.73532">
        <ele>1852.8</ele>
        <time>2026-03-03T07:36:22.999Z</time>
      </trkpt>
      <trkpt lat="44.84999" lon="6.73533">
        <ele>1852.8</ele>
        <time>2026-03-03T07:36:23.999Z</time>
      </trkpt>
      <trkpt lat="44.84998" lon="6.73534">
        <ele>1852.7</ele>
        <time>2026-03-03T07:36:24.999Z</time>
      </trkpt>
      <trkpt lat="44.84998" lon="6.73535">
        <ele>1852.8</ele>
        <time>2026-03-03T07:36:25.999Z</time>
      </trkpt>
      <trkpt lat="44.84998" lon="6.73536">
        <ele>1852.8</ele>
        <time>2026-03-03T07:36:26.999Z</time>
      </trkpt>
      <trkpt lat="44.84997" lon="6.73537">
        <ele>1852.8</ele>
        <time>2026-03-03T07:36:27.999Z</time>
      </trkpt>
      <trkpt lat="44.84997" lon="6.73538">
        <ele>1852.9</ele>
        <time>2026-03-03T07:36:28.999Z</time>
      </trkpt>
      <trkpt lat="44.84997" lon="6.73539">
        <ele>1852.9</ele>
        <time>2026-03-03T07:36:29.999Z</time>
      </trkpt>
      <trkpt lat="44.84996" lon="6.7354">
        <ele>1852.8</ele>
        <time>2026-03-03T07:36:30.999Z</time>
      </trkpt>
      <trkpt lat="44.84996" lon="6.73541">
        <ele>1852.5</ele>
        <time>2026-03-03T07:36:31.999Z</time>
      </trkpt>
      <trkpt lat="44.84995" lon="6.73541">
        <ele>1852.6</ele>
        <time>2026-03-03T07:36:32.999Z</time>
      </trkpt>
      <trkpt lat="44.84995" lon="6.73542">
        <ele>1852.7</ele>
        <time>2026-03-03T07:36:33.999Z</time>
      </trkpt>
      <trkpt lat="44.84994" lon="6.73543">
        <ele>1852.7</ele>
        <time>2026-03-03T07:36:34.999Z</time>
      </trkpt>
      <trkpt lat="44.84993" lon="6.73544">
        <ele>1852.5</ele>
        <time>2026-03-03T07:36:35.999Z</time>
      </trkpt>
      <trkpt lat="44.84992" lon="6.73544">
        <ele>1852.4</ele>
        <time>2026-03-03T07:36:36.999Z</time>
      </trkpt>
      <trkpt lat="44.84992" lon="6.73545">
        <ele>1852.5</ele>
        <time>2026-03-03T07:36:37.999Z</time>
      </trkpt>
      <trkpt lat="44.84991" lon="6.73545">
        <ele>1852.8</ele>
        <time>2026-03-03T07:36:38.999Z</time>
      </trkpt>
      <trkpt lat="44.84991" lon="6.73546">
        <ele>1853.1</ele>
        <time>2026-03-03T07:36:39.999Z</time>
      </trkpt>
      <trkpt lat="44.8499" lon="6.73547">
        <ele>1853.2</ele>
        <time>2026-03-03T07:36:40.999Z</time>
      </trkpt>
      <trkpt lat="44.84989" lon="6.73548">
        <ele>1853.2</ele>
        <time>2026-03-03T07:36:41.999Z</time>
      </trkpt>
      <trkpt lat="44.84988" lon="6.73549">
        <ele>1853.3</ele>
        <time>2026-03-03T07:36:42.999Z</time>
      </trkpt>
      <trkpt lat="44.84987" lon="6.7355">
        <ele>1853.3</ele>
        <time>2026-03-03T07:36:43.999Z</time>
      </trkpt>
      <trkpt lat="44.84986" lon="6.73551">
        <ele>1853.4</ele>
        <time>2026-03-03T07:36:44.999Z</time>
      </trkpt>
      <trkpt lat="44.84985" lon="6.73552">
        <ele>1853.4</ele>
        <time>2026-03-03T07:36:45.999Z</time>
      </trkpt>
      <trkpt lat="44.84984" lon="6.73553">
        <ele>1853.3</ele>
        <time>2026-03-03T07:36:46.999Z</time>
      </trkpt>
      <trkpt lat="44.84984" lon="6.73554">
        <ele>1853.7</ele>
        <time>2026-03-03T07:36:47.999Z</time>
      </trkpt>
      <trkpt lat="44.84983" lon="6.73555">
        <ele>1853.6</ele>
        <time>2026-03-03T07:36:48.999Z</time>
      </trkpt>
      <trkpt lat="44.84982" lon="6.73556">
        <ele>1853.8</ele>
        <time>2026-03-03T07:36:49.999Z</time>
      </trkpt>
      <trkpt lat="44.84981" lon="6.73557">
        <ele>1853.9</ele>
        <time>2026-03-03T07:36:50.999Z</time>
      </trkpt>
      <trkpt lat="44.84981" lon="6.73558">
        <ele>1854</ele>
        <time>2026-03-03T07:36:51.999Z</time>
      </trkpt>
      <trkpt lat="44.8498" lon="6.73559">
        <ele>1854.4</ele>
        <time>2026-03-03T07:36:52.999Z</time>
      </trkpt>
      <trkpt lat="44.84979" lon="6.73559">
        <ele>1854.4</ele>
        <time>2026-03-03T07:36:53.999Z</time>
      </trkpt>
      <trkpt lat="44.84979" lon="6.7356">
        <ele>1854.3</ele>
        <time>2026-03-03T07:36:54.999Z</time>
      </trkpt>
      <trkpt lat="44.84978" lon="6.73561">
        <ele>1854.1</ele>
        <time>2026-03-03T07:36:55.999Z</time>
      </trkpt>
      <trkpt lat="44.84977" lon="6.73561">
        <ele>1854</ele>
        <time>2026-03-03T07:36:56.999Z</time>
      </trkpt>
      <trkpt lat="44.84976" lon="6.73562">
        <ele>1854.2</ele>
        <time>2026-03-03T07:36:57.999Z</time>
      </trkpt>
      <trkpt lat="44.84976" lon="6.73563">
        <ele>1854</ele>
        <time>2026-03-03T07:36:58.999Z</time>
      </trkpt>
      <trkpt lat="44.84975" lon="6.73564">
        <ele>1853.8</ele>
        <time>2026-03-03T07:36:59.999Z</time>
      </trkpt>
      <trkpt lat="44.84974" lon="6.73565">
        <ele>1853.6</ele>
        <time>2026-03-03T07:37:00.999Z</time>
      </trkpt>
      <trkpt lat="44.84973" lon="6.73565">
        <ele>1853.5</ele>
        <time>2026-03-03T07:37:01.999Z</time>
      </trkpt>
      <trkpt lat="44.84973" lon="6.73566">
        <ele>1853.6</ele>
        <time>2026-03-03T07:37:02.999Z</time>
      </trkpt>
      <trkpt lat="44.84972" lon="6.73568">
        <ele>1853.5</ele>
        <time>2026-03-03T07:37:03.999Z</time>
      </trkpt>
      <trkpt lat="44.84971" lon="6.73568">
        <ele>1853.5</ele>
        <time>2026-03-03T07:37:04.999Z</time>
      </trkpt>
      <trkpt lat="44.8497" lon="6.73569">
        <ele>1853.5</ele>
        <time>2026-03-03T07:37:05.999Z</time>
      </trkpt>
      <trkpt lat="44.8497" lon="6.7357">
        <ele>1853.6</ele>
        <time>2026-03-03T07:37:06.999Z</time>
      </trkpt>
      <trkpt lat="44.84969" lon="6.73571">
        <ele>1853.6</ele>
        <time>2026-03-03T07:37:07.999Z</time>
      </trkpt>
      <trkpt lat="44.84968" lon="6.73572">
        <ele>1853.5</ele>
        <time>2026-03-03T07:37:08.999Z</time>
      </trkpt>
      <trkpt lat="44.84967" lon="6.73572">
        <ele>1853.7</ele>
        <time>2026-03-03T07:37:09.999Z</time>
      </trkpt>
      <trkpt lat="44.84967" lon="6.73573">
        <ele>1853.9</ele>
        <time>2026-03-03T07:37:10.999Z</time>
      </trkpt>
      <trkpt lat="44.84966" lon="6.73573">
        <ele>1853.9</ele>
        <time>2026-03-03T07:37:11.999Z</time>
      </trkpt>
      <trkpt lat="44.84966" lon="6.73574">
        <ele>1853.9</ele>
        <time>2026-03-03T07:37:12.999Z</time>
      </trkpt>
      <trkpt lat="44.84965" lon="6.73574">
        <ele>1854.1</ele>
        <time>2026-03-03T07:37:13.999Z</time>
      </trkpt>
      <trkpt lat="44.84964" lon="6.73575">
        <ele>1854.1</ele>
        <time>2026-03-03T07:37:14.999Z</time>
      </trkpt>
      <trkpt lat="44.84964" lon="6.73576">
        <ele>1854.1</ele>
        <time>2026-03-03T07:37:15.999Z</time>
      </trkpt>
      <trkpt lat="44.84964" lon="6.73577">
        <ele>1854.3</ele>
        <time>2026-03-03T07:37:16.999Z</time>
      </trkpt>
      <trkpt lat="44.84963" lon="6.73577">
        <ele>1854.5</ele>
        <time>2026-03-03T07:37:17.999Z</time>
      </trkpt>
      <trkpt lat="44.84962" lon="6.73579">
        <ele>1854.5</ele>
        <time>2026-03-03T07:37:18.999Z</time>
      </trkpt>
      <trkpt lat="44.84962" lon="6.7358">
        <ele>1854.9</ele>
        <time>2026-03-03T07:37:19.999Z</time>
      </trkpt>
      <trkpt lat="44.84961" lon="6.7358">
        <ele>1855.1</ele>
        <time>2026-03-03T07:37:20.999Z</time>
      </trkpt>
      <trkpt lat="44.84961" lon="6.73582">
        <ele>1855.1</ele>
        <time>2026-03-03T07:37:21.999Z</time>
      </trkpt>
      <trkpt lat="44.84961" lon="6.73583">
        <ele>1855.2</ele>
        <time>2026-03-03T07:37:22.999Z</time>
      </trkpt>
      <trkpt lat="44.8496" lon="6.73584">
        <ele>1855.3</ele>
        <time>2026-03-03T07:37:23.999Z</time>
      </trkpt>
      <trkpt lat="44.84959" lon="6.73586">
        <ele>1855.4</ele>
        <time>2026-03-03T07:37:24.999Z</time>
      </trkpt>
      <trkpt lat="44.84959" lon="6.73587">
        <ele>1855.4</ele>
        <time>2026-03-03T07:37:25.999Z</time>
      </trkpt>
      <trkpt lat="44.84958" lon="6.73588">
        <ele>1855.4</ele>
        <time>2026-03-03T07:37:26.999Z</time>
      </trkpt>
      <trkpt lat="44.84958" lon="6.73589">
        <ele>1855.3</ele>
        <time>2026-03-03T07:37:27.999Z</time>
      </trkpt>
      <trkpt lat="44.84957" lon="6.7359">
        <ele>1855.3</ele>
        <time>2026-03-03T07:37:28.999Z</time>
      </trkpt>
      <trkpt lat="44.84957" lon="6.7359">
        <ele>1855.4</ele>
        <time>2026-03-03T07:37:29.999Z</time>
      </trkpt>
      <trkpt lat="44.84956" lon="6.73591">
        <ele>1855.6</ele>
        <time>2026-03-03T07:37:30.999Z</time>
      </trkpt>
      <trkpt lat="44.84956" lon="6.73593">
        <ele>1855.5</ele>
        <time>2026-03-03T07:37:31.999Z</time>
      </trkpt>
      <trkpt lat="44.84955" lon="6.73593">
        <ele>1855.7</ele>
        <time>2026-03-03T07:37:32.999Z</time>
      </trkpt>
      <trkpt lat="44.84955" lon="6.73594">
        <ele>1855.7</ele>
        <time>2026-03-03T07:37:33.999Z</time>
      </trkpt>
      <trkpt lat="44.84954" lon="6.73595">
        <ele>1855.8</ele>
        <time>2026-03-03T07:37:34.999Z</time>
      </trkpt>
      <trkpt lat="44.84953" lon="6.73595">
        <ele>1856.1</ele>
        <time>2026-03-03T07:37:35.999Z</time>
      </trkpt>
      <trkpt lat="44.84953" lon="6.73596">
        <ele>1856.2</ele>
        <time>2026-03-03T07:37:36.999Z</time>
      </trkpt>
      <trkpt lat="44.84952" lon="6.73598">
        <ele>1856.4</ele>
        <time>2026-03-03T07:37:37.999Z</time>
      </trkpt>
      <trkpt lat="44.84952" lon="6.73599">
        <ele>1856.5</ele>
        <time>2026-03-03T07:37:38.999Z</time>
      </trkpt>
      <trkpt lat="44.84952" lon="6.736">
        <ele>1856.5</ele>
        <time>2026-03-03T07:37:39.999Z</time>
      </trkpt>
      <trkpt lat="44.84952" lon="6.73601">
        <ele>1856.5</ele>
        <time>2026-03-03T07:37:40.999Z</time>
      </trkpt>
      <trkpt lat="44.84951" lon="6.73602">
        <ele>1856.4</ele>
        <time>2026-03-03T07:37:41.999Z</time>
      </trkpt>
      <trkpt lat="44.84951" lon="6.73603">
        <ele>1856.3</ele>
        <time>2026-03-03T07:37:42.999Z</time>
      </trkpt>
      <trkpt lat="44.84951" lon="6.73604">
        <ele>1856.5</ele>
        <time>2026-03-03T07:37:43.999Z</time>
      </trkpt>
      <trkpt lat="44.84951" lon="6.73605">
        <ele>1856.4</ele>
        <time>2026-03-03T07:37:44.999Z</time>
      </trkpt>
      <trkpt lat="44.84951" lon="6.73606">
        <ele>1856.2</ele>
        <time>2026-03-03T07:37:45.999Z</time>
      </trkpt>
      <trkpt lat="44.8495" lon="6.73607">
        <ele>1856.2</ele>
        <time>2026-03-03T07:37:46.999Z</time>
      </trkpt>
      <trkpt lat="44.8495" lon="6.73608">
        <ele>1856.2</ele>
        <time>2026-03-03T07:37:47.999Z</time>
      </trkpt>
      <trkpt lat="44.84949" lon="6.73609">
        <ele>1856.4</ele>
        <time>2026-03-03T07:37:48.999Z</time>
      </trkpt>
      <trkpt lat="44.84949" lon="6.73611">
        <ele>1856.6</ele>
        <time>2026-03-03T07:37:49.999Z</time>
      </trkpt>
      <trkpt lat="44.84949" lon="6.73612">
        <ele>1856.8</ele>
        <time>2026-03-03T07:37:50.999Z</time>
      </trkpt>
      <trkpt lat="44.84948" lon="6.73613">
        <ele>1856.8</ele>
        <time>2026-03-03T07:37:51.999Z</time>
      </trkpt>
      <trkpt lat="44.84948" lon="6.73613">
        <ele>1856.8</ele>
        <time>2026-03-03T07:37:52.999Z</time>
      </trkpt>
      <trkpt lat="44.84947" lon="6.73615">
        <ele>1856.9</ele>
        <time>2026-03-03T07:37:53.999Z</time>
      </trkpt>
      <trkpt lat="44.84947" lon="6.73615">
        <ele>1856.9</ele>
        <time>2026-03-03T07:37:54.999Z</time>
      </trkpt>
      <trkpt lat="44.84946" lon="6.73617">
        <ele>1857.1</ele>
        <time>2026-03-03T07:37:55.999Z</time>
      </trkpt>
      <trkpt lat="44.84945" lon="6.73617">
        <ele>1857</ele>
        <time>2026-03-03T07:37:56.999Z</time>
      </trkpt>
      <trkpt lat="44.84945" lon="6.73618">
        <ele>1856.8</ele>
        <time>2026-03-03T07:37:57.999Z</time>
      </trkpt>
      <trkpt lat="44.84944" lon="6.73618">
        <ele>1856.9</ele>
        <time>2026-03-03T07:37:58.999Z</time>
      </trkpt>
      <trkpt lat="44.84944" lon="6.73619">
        <ele>1857</ele>
        <time>2026-03-03T07:37:59.999Z</time>
      </trkpt>
      <trkpt lat="44.84944" lon="6.73621">
        <ele>1857</ele>
        <time>2026-03-03T07:38:00.999Z</time>
      </trkpt>
      <trkpt lat="44.84944" lon="6.73622">
        <ele>1857.1</ele>
        <time>2026-03-03T07:38:01.999Z</time>
      </trkpt>
      <trkpt lat="44.84943" lon="6.73623">
        <ele>1857.1</ele>
        <time>2026-03-03T07:38:02.999Z</time>
      </trkpt>
      <trkpt lat="44.84943" lon="6.73624">
        <ele>1857.4</ele>
        <time>2026-03-03T07:38:03.999Z</time>
      </trkpt>
      <trkpt lat="44.84942" lon="6.73624">
        <ele>1857.6</ele>
        <time>2026-03-03T07:38:04.999Z</time>
      </trkpt>
      <trkpt lat="44.84941" lon="6.73625">
        <ele>1857.8</ele>
        <time>2026-03-03T07:38:05.999Z</time>
      </trkpt>
      <trkpt lat="44.84941" lon="6.73626">
        <ele>1857.5</ele>
        <time>2026-03-03T07:38:06.999Z</time>
      </trkpt>
      <trkpt lat="44.84941" lon="6.73627">
        <ele>1857.4</ele>
        <time>2026-03-03T07:38:07.999Z</time>
      </trkpt>
      <trkpt lat="44.8494" lon="6.73627">
        <ele>1857.4</ele>
        <time>2026-03-03T07:38:08.999Z</time>
      </trkpt>
      <trkpt lat="44.84939" lon="6.73628">
        <ele>1857.4</ele>
        <time>2026-03-03T07:38:09.999Z</time>
      </trkpt>
      <trkpt lat="44.84939" lon="6.7363">
        <ele>1857.7</ele>
        <time>2026-03-03T07:38:10.999Z</time>
      </trkpt>
      <trkpt lat="44.84938" lon="6.73631">
        <ele>1857.7</ele>
        <time>2026-03-03T07:38:11.999Z</time>
      </trkpt>
      <trkpt lat="44.84938" lon="6.73632">
        <ele>1858</ele>
        <time>2026-03-03T07:38:12.999Z</time>
      </trkpt>
      <trkpt lat="44.84937" lon="6.73634">
        <ele>1858</ele>
        <time>2026-03-03T07:38:13.999Z</time>
      </trkpt>
      <trkpt lat="44.84937" lon="6.73635">
        <ele>1857.8</ele>
        <time>2026-03-03T07:38:14.999Z</time>
      </trkpt>
      <trkpt lat="44.84936" lon="6.73636">
        <ele>1857.5</ele>
        <time>2026-03-03T07:38:15.999Z</time>
      </trkpt>
      <trkpt lat="44.84936" lon="6.73637">
        <ele>1857.4</ele>
        <time>2026-03-03T07:38:16.999Z</time>
      </trkpt>
      <trkpt lat="44.84935" lon="6.73638">
        <ele>1857.4</ele>
        <time>2026-03-03T07:38:17.999Z</time>
      </trkpt>
      <trkpt lat="44.84935" lon="6.73638">
        <ele>1857.3</ele>
        <time>2026-03-03T07:38:18.999Z</time>
      </trkpt>
      <trkpt lat="44.84935" lon="6.73639">
        <ele>1857.2</ele>
        <time>2026-03-03T07:38:19.999Z</time>
      </trkpt>
      <trkpt lat="44.84934" lon="6.7364">
        <ele>1857.1</ele>
        <time>2026-03-03T07:38:20.999Z</time>
      </trkpt>
      <trkpt lat="44.84933" lon="6.73641">
        <ele>1857</ele>
        <time>2026-03-03T07:38:21.999Z</time>
      </trkpt>
      <trkpt lat="44.84933" lon="6.73643">
        <ele>1856.9</ele>
        <time>2026-03-03T07:38:22.999Z</time>
      </trkpt>
      <trkpt lat="44.84932" lon="6.73644">
        <ele>1857.1</ele>
        <time>2026-03-03T07:38:23.999Z</time>
      </trkpt>
      <trkpt lat="44.84932" lon="6.73645">
        <ele>1857.2</ele>
        <time>2026-03-03T07:38:24.999Z</time>
      </trkpt>
      <trkpt lat="44.84931" lon="6.73646">
        <ele>1857</ele>
        <time>2026-03-03T07:38:25.999Z</time>
      </trkpt>
      <trkpt lat="44.84931" lon="6.73647">
        <ele>1857.1</ele>
        <time>2026-03-03T07:38:26.999Z</time>
      </trkpt>
      <trkpt lat="44.8493" lon="6.73648">
        <ele>1857</ele>
        <time>2026-03-03T07:38:27.999Z</time>
      </trkpt>
      <trkpt lat="44.8493" lon="6.73649">
        <ele>1856.9</ele>
        <time>2026-03-03T07:38:28.999Z</time>
      </trkpt>
      <trkpt lat="44.84929" lon="6.73649">
        <ele>1856.9</ele>
        <time>2026-03-03T07:38:29.999Z</time>
      </trkpt>
      <trkpt lat="44.84929" lon="6.7365">
        <ele>1857</ele>
        <time>2026-03-03T07:38:30.999Z</time>
      </trkpt>
      <trkpt lat="44.84928" lon="6.7365">
        <ele>1857.1</ele>
        <time>2026-03-03T07:38:31.999Z</time>
      </trkpt>
      <trkpt lat="44.84928" lon="6.73651">
        <ele>1857.2</ele>
        <time>2026-03-03T07:38:32.999Z</time>
      </trkpt>
      <trkpt lat="44.84928" lon="6.73652">
        <ele>1857.4</ele>
        <time>2026-03-03T07:38:33.999Z</time>
      </trkpt>
      <trkpt lat="44.84927" lon="6.73653">
        <ele>1857.5</ele>
        <time>2026-03-03T07:38:34.999Z</time>
      </trkpt>
      <trkpt lat="44.84927" lon="6.73654">
        <ele>1857.7</ele>
        <time>2026-03-03T07:38:35.999Z</time>
      </trkpt>
      <trkpt lat="44.84926" lon="6.73655">
        <ele>1858.1</ele>
        <time>2026-03-03T07:38:36.999Z</time>
      </trkpt>
      <trkpt lat="44.84925" lon="6.73656">
        <ele>1858.2</ele>
        <time>2026-03-03T07:38:37.999Z</time>
      </trkpt>
      <trkpt lat="44.84925" lon="6.73656">
        <ele>1858.3</ele>
        <time>2026-03-03T07:38:38.999Z</time>
      </trkpt>
      <trkpt lat="44.84924" lon="6.73658">
        <ele>1858.5</ele>
        <time>2026-03-03T07:38:39.999Z</time>
      </trkpt>
      <trkpt lat="44.84923" lon="6.73659">
        <ele>1858.6</ele>
        <time>2026-03-03T07:38:40.999Z</time>
      </trkpt>
      <trkpt lat="44.84922" lon="6.73661">
        <ele>1858.6</ele>
        <time>2026-03-03T07:38:41.999Z</time>
      </trkpt>
      <trkpt lat="44.84922" lon="6.73662">
        <ele>1858.6</ele>
        <time>2026-03-03T07:38:42.999Z</time>
      </trkpt>
      <trkpt lat="44.84921" lon="6.73662">
        <ele>1858.5</ele>
        <time>2026-03-03T07:38:43.999Z</time>
      </trkpt>
      <trkpt lat="44.84921" lon="6.73664">
        <ele>1858.4</ele>
        <time>2026-03-03T07:38:44.999Z</time>
      </trkpt>
      <trkpt lat="44.84921" lon="6.73665">
        <ele>1858.3</ele>
        <time>2026-03-03T07:38:45.999Z</time>
      </trkpt>
      <trkpt lat="44.8492" lon="6.73666">
        <ele>1858.4</ele>
        <time>2026-03-03T07:38:46.999Z</time>
      </trkpt>
      <trkpt lat="44.84919" lon="6.73666">
        <ele>1858.6</ele>
        <time>2026-03-03T07:38:47.999Z</time>
      </trkpt>
      <trkpt lat="44.84918" lon="6.73667">
        <ele>1858.8</ele>
        <time>2026-03-03T07:38:48.999Z</time>
      </trkpt>
      <trkpt lat="44.84918" lon="6.73668">
        <ele>1858.9</ele>
        <time>2026-03-03T07:38:49.999Z</time>
      </trkpt>
      <trkpt lat="44.84917" lon="6.73669">
        <ele>1858.9</ele>
        <time>2026-03-03T07:38:50.999Z</time>
      </trkpt>
      <trkpt lat="44.84917" lon="6.73671">
        <ele>1859</ele>
        <time>2026-03-03T07:38:51.999Z</time>
      </trkpt>
      <trkpt lat="44.84916" lon="6.73672">
        <ele>1859</ele>
        <time>2026-03-03T07:38:52.999Z</time>
      </trkpt>
      <trkpt lat="44.84916" lon="6.73673">
        <ele>1859.1</ele>
        <time>2026-03-03T07:38:53.999Z</time>
      </trkpt>
      <trkpt lat="44.84915" lon="6.73674">
        <ele>1859.2</ele>
        <time>2026-03-03T07:38:54.999Z</time>
      </trkpt>
      <trkpt lat="44.84914" lon="6.73674">
        <ele>1859.2</ele>
        <time>2026-03-03T07:38:55.999Z</time>
      </trkpt>
      <trkpt lat="44.84913" lon="6.73675">
        <ele>1859.3</ele>
        <time>2026-03-03T07:38:56.999Z</time>
      </trkpt>
      <trkpt lat="44.84913" lon="6.73676">
        <ele>1859.4</ele>
        <time>2026-03-03T07:38:57.999Z</time>
      </trkpt>
      <trkpt lat="44.84913" lon="6.73677">
        <ele>1859.5</ele>
        <time>2026-03-03T07:38:58.999Z</time>
      </trkpt>
      <trkpt lat="44.84912" lon="6.73678">
        <ele>1859.5</ele>
        <time>2026-03-03T07:38:59.999Z</time>
      </trkpt>
      <trkpt lat="44.84912" lon="6.73679">
        <ele>1859.3</ele>
        <time>2026-03-03T07:39:00.999Z</time>
      </trkpt>
      <trkpt lat="44.84912" lon="6.7368">
        <ele>1859.2</ele>
        <time>2026-03-03T07:39:01.999Z</time>
      </trkpt>
      <trkpt lat="44.84912" lon="6.73681">
        <ele>1858.9</ele>
        <time>2026-03-03T07:39:02.999Z</time>
      </trkpt>
      <trkpt lat="44.84912" lon="6.73683">
        <ele>1858.7</ele>
        <time>2026-03-03T07:39:03.999Z</time>
      </trkpt>
      <trkpt lat="44.84911" lon="6.73684">
        <ele>1858.9</ele>
        <time>2026-03-03T07:39:04.999Z</time>
      </trkpt>
      <trkpt lat="44.84911" lon="6.73685">
        <ele>1858.8</ele>
        <time>2026-03-03T07:39:05.999Z</time>
      </trkpt>
      <trkpt lat="44.84911" lon="6.73685">
        <ele>1858.7</ele>
        <time>2026-03-03T07:39:07.000Z</time>
      </trkpt>
      <trkpt lat="44.8491" lon="6.73685">
        <ele>1858.5</ele>
        <time>2026-03-03T07:39:08.000Z</time>
      </trkpt>
      <trkpt lat="44.84909" lon="6.73686">
        <ele>1858.7</ele>
        <time>2026-03-03T07:39:09.000Z</time>
      </trkpt>
      <trkpt lat="44.84908" lon="6.73687">
        <ele>1858.9</ele>
        <time>2026-03-03T07:39:10.000Z</time>
      </trkpt>
      <trkpt lat="44.84908" lon="6.73688">
        <ele>1859</ele>
        <time>2026-03-03T07:39:11.000Z</time>
      </trkpt>
      <trkpt lat="44.84907" lon="6.73689">
        <ele>1859.1</ele>
        <time>2026-03-03T07:39:12.000Z</time>
      </trkpt>
      <trkpt lat="44.84907" lon="6.7369">
        <ele>1859</ele>
        <time>2026-03-03T07:39:13.000Z</time>
      </trkpt>
      <trkpt lat="44.84906" lon="6.73691">
        <ele>1858.9</ele>
        <time>2026-03-03T07:39:14.000Z</time>
      </trkpt>
      <trkpt lat="44.84905" lon="6.73691">
        <ele>1859</ele>
        <time>2026-03-03T07:39:15.000Z</time>
      </trkpt>
      <trkpt lat="44.84905" lon="6.73692">
        <ele>1859.1</ele>
        <time>2026-03-03T07:39:16.000Z</time>
      </trkpt>
      <trkpt lat="44.84904" lon="6.73693">
        <ele>1859.3</ele>
        <time>2026-03-03T07:39:17.000Z</time>
      </trkpt>
      <trkpt lat="44.84904" lon="6.73693">
        <ele>1859.7</ele>
        <time>2026-03-03T07:39:18.000Z</time>
      </trkpt>
      <trkpt lat="44.84904" lon="6.73694">
        <ele>1859.9</ele>
        <time>2026-03-03T07:39:19.000Z</time>
      </trkpt>
      <trkpt lat="44.84903" lon="6.73695">
        <ele>1859.8</ele>
        <time>2026-03-03T07:39:20.000Z</time>
      </trkpt>
      <trkpt lat="44.84902" lon="6.73695">
        <ele>1859.9</ele>
        <time>2026-03-03T07:39:21.000Z</time>
      </trkpt>
      <trkpt lat="44.84902" lon="6.73696">
        <ele>1859.9</ele>
        <time>2026-03-03T07:39:22.000Z</time>
      </trkpt>
      <trkpt lat="44.84902" lon="6.73697">
        <ele>1859.9</ele>
        <time>2026-03-03T07:39:23.000Z</time>
      </trkpt>
      <trkpt lat="44.84901" lon="6.73698">
        <ele>1860</ele>
        <time>2026-03-03T07:39:24.000Z</time>
      </trkpt>
      <trkpt lat="44.84901" lon="6.73699">
        <ele>1860.1</ele>
        <time>2026-03-03T07:39:25.000Z</time>
      </trkpt>
      <trkpt lat="44.849" lon="6.737">
        <ele>1860.1</ele>
        <time>2026-03-03T07:39:26.000Z</time>
      </trkpt>
      <trkpt lat="44.849" lon="6.73701">
        <ele>1859.9</ele>
        <time>2026-03-03T07:39:27.000Z</time>
      </trkpt>
      <trkpt lat="44.849" lon="6.73702">
        <ele>1860.1</ele>
        <time>2026-03-03T07:39:28.000Z</time>
      </trkpt>
      <trkpt lat="44.84899" lon="6.73703">
        <ele>1860.1</ele>
        <time>2026-03-03T07:39:29.000Z</time>
      </trkpt>
      <trkpt lat="44.84898" lon="6.73703">
        <ele>1860.4</ele>
        <time>2026-03-03T07:39:30.000Z</time>
      </trkpt>
      <trkpt lat="44.84897" lon="6.73704">
        <ele>1860.6</ele>
        <time>2026-03-03T07:39:31.000Z</time>
      </trkpt>
      <trkpt lat="44.84897" lon="6.73705">
        <ele>1860.4</ele>
        <time>2026-03-03T07:39:32.000Z</time>
      </trkpt>
      <trkpt lat="44.84897" lon="6.73706">
        <ele>1860.5</ele>
        <time>2026-03-03T07:39:33.000Z</time>
      </trkpt>
      <trkpt lat="44.84896" lon="6.73707">
        <ele>1860.6</ele>
        <time>2026-03-03T07:39:34.000Z</time>
      </trkpt>
      <trkpt lat="44.84896" lon="6.73708">
        <ele>1860.7</ele>
        <time>2026-03-03T07:39:35.000Z</time>
      </trkpt>
      <trkpt lat="44.84896" lon="6.73709">
        <ele>1860.7</ele>
        <time>2026-03-03T07:39:36.000Z</time>
      </trkpt>
      <trkpt lat="44.84895" lon="6.7371">
        <ele>1860.9</ele>
        <time>2026-03-03T07:39:37.000Z</time>
      </trkpt>
      <trkpt lat="44.84895" lon="6.73711">
        <ele>1860.9</ele>
        <time>2026-03-03T07:39:38.000Z</time>
      </trkpt>
      <trkpt lat="44.84894" lon="6.73712">
        <ele>1860.9</ele>
        <time>2026-03-03T07:39:39.000Z</time>
      </trkpt>
      <trkpt lat="44.84893" lon="6.73713">
        <ele>1860.8</ele>
        <time>2026-03-03T07:39:40.000Z</time>
      </trkpt>
      <trkpt lat="44.84892" lon="6.73714">
        <ele>1860.9</ele>
        <time>2026-03-03T07:39:41.000Z</time>
      </trkpt>
      <trkpt lat="44.84891" lon="6.73715">
        <ele>1861.1</ele>
        <time>2026-03-03T07:39:42.000Z</time>
      </trkpt>
      <trkpt lat="44.84891" lon="6.73717">
        <ele>1861.1</ele>
        <time>2026-03-03T07:39:43.000Z</time>
      </trkpt>
      <trkpt lat="44.8489" lon="6.73718">
        <ele>1861</ele>
        <time>2026-03-03T07:39:44.000Z</time>
      </trkpt>
      <trkpt lat="44.84889" lon="6.73718">
        <ele>1861.1</ele>
        <time>2026-03-03T07:39:45.000Z</time>
      </trkpt>
      <trkpt lat="44.84889" lon="6.7372">
        <ele>1861.1</ele>
        <time>2026-03-03T07:39:46.000Z</time>
      </trkpt>
      <trkpt lat="44.84888" lon="6.73721">
        <ele>1861.2</ele>
        <time>2026-03-03T07:39:47.000Z</time>
      </trkpt>
      <trkpt lat="44.84888" lon="6.73722">
        <ele>1861.3</ele>
        <time>2026-03-03T07:39:48.000Z</time>
      </trkpt>
      <trkpt lat="44.84887" lon="6.73723">
        <ele>1861.2</ele>
        <time>2026-03-03T07:39:49.000Z</time>
      </trkpt>
      <trkpt lat="44.84886" lon="6.73724">
        <ele>1861.1</ele>
        <time>2026-03-03T07:39:50.000Z</time>
      </trkpt>
      <trkpt lat="44.84886" lon="6.73724">
        <ele>1861.2</ele>
        <time>2026-03-03T07:39:51.000Z</time>
      </trkpt>
      <trkpt lat="44.84885" lon="6.73725">
        <ele>1861.1</ele>
        <time>2026-03-03T07:39:52.000Z</time>
      </trkpt>
      <trkpt lat="44.84885" lon="6.73727">
        <ele>1861.2</ele>
        <time>2026-03-03T07:39:53.000Z</time>
      </trkpt>
      <trkpt lat="44.84884" lon="6.73728">
        <ele>1861.2</ele>
        <time>2026-03-03T07:39:54.000Z</time>
      </trkpt>
      <trkpt lat="44.84883" lon="6.73729">
        <ele>1861.3</ele>
        <time>2026-03-03T07:39:55.000Z</time>
      </trkpt>
      <trkpt lat="44.84883" lon="6.7373">
        <ele>1861.2</ele>
        <time>2026-03-03T07:39:56.000Z</time>
      </trkpt>
      <trkpt lat="44.84882" lon="6.73731">
        <ele>1861</ele>
        <time>2026-03-03T07:39:57.000Z</time>
      </trkpt>
      <trkpt lat="44.84882" lon="6.73732">
        <ele>1861</ele>
        <time>2026-03-03T07:39:58.000Z</time>
      </trkpt>
      <trkpt lat="44.84881" lon="6.73733">
        <ele>1861.2</ele>
        <time>2026-03-03T07:39:59.000Z</time>
      </trkpt>
      <trkpt lat="44.84881" lon="6.73734">
        <ele>1861.3</ele>
        <time>2026-03-03T07:40:00.000Z</time>
      </trkpt>
      <trkpt lat="44.8488" lon="6.73735">
        <ele>1861.5</ele>
        <time>2026-03-03T07:40:01.000Z</time>
      </trkpt>
      <trkpt lat="44.8488" lon="6.73736">
        <ele>1861.7</ele>
        <time>2026-03-03T07:40:02.000Z</time>
      </trkpt>
      <trkpt lat="44.84879" lon="6.73737">
        <ele>1862</ele>
        <time>2026-03-03T07:40:03.000Z</time>
      </trkpt>
      <trkpt lat="44.84879" lon="6.73738">
        <ele>1862.1</ele>
        <time>2026-03-03T07:40:04.000Z</time>
      </trkpt>
      <trkpt lat="44.84878" lon="6.73738">
        <ele>1861.9</ele>
        <time>2026-03-03T07:40:05.000Z</time>
      </trkpt>
      <trkpt lat="44.84878" lon="6.73739">
        <ele>1861.9</ele>
        <time>2026-03-03T07:40:06.000Z</time>
      </trkpt>
      <trkpt lat="44.84877" lon="6.7374">
        <ele>1862.1</ele>
        <time>2026-03-03T07:40:07.000Z</time>
      </trkpt>
      <trkpt lat="44.84877" lon="6.73741">
        <ele>1862.2</ele>
        <time>2026-03-03T07:40:08.000Z</time>
      </trkpt>
      <trkpt lat="44.84877" lon="6.73742">
        <ele>1862.2</ele>
        <time>2026-03-03T07:40:09.000Z</time>
      </trkpt>
      <trkpt lat="44.84877" lon="6.73743">
        <ele>1862.2</ele>
        <time>2026-03-03T07:40:10.000Z</time>
      </trkpt>
      <trkpt lat="44.84876" lon="6.73743">
        <ele>1862.2</ele>
        <time>2026-03-03T07:40:11.000Z</time>
      </trkpt>
      <trkpt lat="44.84876" lon="6.73744">
        <ele>1862.3</ele>
        <time>2026-03-03T07:40:12.000Z</time>
      </trkpt>
      <trkpt lat="44.84875" lon="6.73745">
        <ele>1862.3</ele>
        <time>2026-03-03T07:40:13.000Z</time>
      </trkpt>
      <trkpt lat="44.84874" lon="6.73746">
        <ele>1862.2</ele>
        <time>2026-03-03T07:40:14.000Z</time>
      </trkpt>
      <trkpt lat="44.84874" lon="6.73747">
        <ele>1862.5</ele>
        <time>2026-03-03T07:40:15.000Z</time>
      </trkpt>
      <trkpt lat="44.84873" lon="6.73748">
        <ele>1862.5</ele>
        <time>2026-03-03T07:40:16.000Z</time>
      </trkpt>
      <trkpt lat="44.84873" lon="6.73749">
        <ele>1862.6</ele>
        <time>2026-03-03T07:40:17.000Z</time>
      </trkpt>
      <trkpt lat="44.84873" lon="6.73749">
        <ele>1862.9</ele>
        <time>2026-03-03T07:40:18.000Z</time>
      </trkpt>
      <trkpt lat="44.84872" lon="6.73751">
        <ele>1862.9</ele>
        <time>2026-03-03T07:40:19.000Z</time>
      </trkpt>
      <trkpt lat="44.84872" lon="6.73752">
        <ele>1863</ele>
        <time>2026-03-03T07:40:20.000Z</time>
      </trkpt>
      <trkpt lat="44.84872" lon="6.73753">
        <ele>1863.3</ele>
        <time>2026-03-03T07:40:21.000Z</time>
      </trkpt>
      <trkpt lat="44.84872" lon="6.73754">
        <ele>1863.3</ele>
        <time>2026-03-03T07:40:22.000Z</time>
      </trkpt>
      <trkpt lat="44.84871" lon="6.73755">
        <ele>1863.4</ele>
        <time>2026-03-03T07:40:23.000Z</time>
      </trkpt>
      <trkpt lat="44.84871" lon="6.73756">
        <ele>1863.3</ele>
        <time>2026-03-03T07:40:24.000Z</time>
      </trkpt>
      <trkpt lat="44.8487" lon="6.73757">
        <ele>1863.3</ele>
        <time>2026-03-03T07:40:25.000Z</time>
      </trkpt>
      <trkpt lat="44.8487" lon="6.73758">
        <ele>1863.4</ele>
        <time>2026-03-03T07:40:26.000Z</time>
      </trkpt>
      <trkpt lat="44.84869" lon="6.73759">
        <ele>1863.6</ele>
        <time>2026-03-03T07:40:27.000Z</time>
      </trkpt>
      <trkpt lat="44.84868" lon="6.73759">
        <ele>1863.7</ele>
        <time>2026-03-03T07:40:28.000Z</time>
      </trkpt>
      <trkpt lat="44.84868" lon="6.73761">
        <ele>1863.7</ele>
        <time>2026-03-03T07:40:29.000Z</time>
      </trkpt>
      <trkpt lat="44.84868" lon="6.73762">
        <ele>1863.8</ele>
        <time>2026-03-03T07:40:30.000Z</time>
      </trkpt>
      <trkpt lat="44.84867" lon="6.73763">
        <ele>1863.9</ele>
        <time>2026-03-03T07:40:31.000Z</time>
      </trkpt>
      <trkpt lat="44.84866" lon="6.73765">
        <ele>1864.2</ele>
        <time>2026-03-03T07:40:32.000Z</time>
      </trkpt>
      <trkpt lat="44.84866" lon="6.73766">
        <ele>1864.3</ele>
        <time>2026-03-03T07:40:33.000Z</time>
      </trkpt>
      <trkpt lat="44.84866" lon="6.73767">
        <ele>1864.3</ele>
        <time>2026-03-03T07:40:34.000Z</time>
      </trkpt>
      <trkpt lat="44.84865" lon="6.73768">
        <ele>1864.1</ele>
        <time>2026-03-03T07:40:35.000Z</time>
      </trkpt>
      <trkpt lat="44.84865" lon="6.73769">
        <ele>1864.1</ele>
        <time>2026-03-03T07:40:36.000Z</time>
      </trkpt>
      <trkpt lat="44.84864" lon="6.7377">
        <ele>1864.2</ele>
        <time>2026-03-03T07:40:37.000Z</time>
      </trkpt>
      <trkpt lat="44.84864" lon="6.73772">
        <ele>1864.3</ele>
        <time>2026-03-03T07:40:38.000Z</time>
      </trkpt>
      <trkpt lat="44.84864" lon="6.73773">
        <ele>1864.4</ele>
        <time>2026-03-03T07:40:39.000Z</time>
      </trkpt>
      <trkpt lat="44.84863" lon="6.73774">
        <ele>1864.5</ele>
        <time>2026-03-03T07:40:40.000Z</time>
      </trkpt>
      <trkpt lat="44.84863" lon="6.73775">
        <ele>1864.7</ele>
        <time>2026-03-03T07:40:41.000Z</time>
      </trkpt>
      <trkpt lat="44.84862" lon="6.73776">
        <ele>1864.7</ele>
        <time>2026-03-03T07:40:42.000Z</time>
      </trkpt>
      <trkpt lat="44.84861" lon="6.73777">
        <ele>1865</ele>
        <time>2026-03-03T07:40:43.000Z</time>
      </trkpt>
      <trkpt lat="44.84861" lon="6.73778">
        <ele>1865.3</ele>
        <time>2026-03-03T07:40:44.000Z</time>
      </trkpt>
      <trkpt lat="44.8486" lon="6.73779">
        <ele>1865.4</ele>
        <time>2026-03-03T07:40:45.000Z</time>
      </trkpt>
      <trkpt lat="44.8486" lon="6.73779">
        <ele>1865.2</ele>
        <time>2026-03-03T07:40:46.000Z</time>
      </trkpt>
      <trkpt lat="44.8486" lon="6.7378">
        <ele>1864.9</ele>
        <time>2026-03-03T07:40:47.000Z</time>
      </trkpt>
      <trkpt lat="44.84859" lon="6.73781">
        <ele>1864.9</ele>
        <time>2026-03-03T07:40:48.000Z</time>
      </trkpt>
      <trkpt lat="44.84859" lon="6.73782">
        <ele>1865.1</ele>
        <time>2026-03-03T07:40:49.000Z</time>
      </trkpt>
      <trkpt lat="44.84858" lon="6.73783">
        <ele>1865.1</ele>
        <time>2026-03-03T07:40:50.000Z</time>
      </trkpt>
      <trkpt lat="44.84858" lon="6.73783">
        <ele>1865.4</ele>
        <time>2026-03-03T07:40:51.000Z</time>
      </trkpt>
      <trkpt lat="44.84858" lon="6.73784">
        <ele>1865.6</ele>
        <time>2026-03-03T07:40:52.000Z</time>
      </trkpt>
      <trkpt lat="44.84857" lon="6.73785">
        <ele>1865.8</ele>
        <time>2026-03-03T07:40:53.000Z</time>
      </trkpt>
      <trkpt lat="44.84857" lon="6.73786">
        <ele>1866.1</ele>
        <time>2026-03-03T07:40:54.000Z</time>
      </trkpt>
      <trkpt lat="44.84857" lon="6.73787">
        <ele>1866.2</ele>
        <time>2026-03-03T07:40:55.000Z</time>
      </trkpt>
      <trkpt lat="44.84857" lon="6.73788">
        <ele>1866.3</ele>
        <time>2026-03-03T07:40:56.000Z</time>
      </trkpt>
      <trkpt lat="44.84856" lon="6.73789">
        <ele>1866.6</ele>
        <time>2026-03-03T07:40:57.000Z</time>
      </trkpt>
      <trkpt lat="44.84856" lon="6.7379">
        <ele>1866.7</ele>
        <time>2026-03-03T07:40:58.000Z</time>
      </trkpt>
      <trkpt lat="44.84856" lon="6.73791">
        <ele>1867</ele>
        <time>2026-03-03T07:40:59.000Z</time>
      </trkpt>
      <trkpt lat="44.84856" lon="6.73793">
        <ele>1867</ele>
        <time>2026-03-03T07:41:00.000Z</time>
      </trkpt>
      <trkpt lat="44.84856" lon="6.73794">
        <ele>1867.1</ele>
        <time>2026-03-03T07:41:01.000Z</time>
      </trkpt>
      <trkpt lat="44.84856" lon="6.73795">
        <ele>1867</ele>
        <time>2026-03-03T07:41:02.000Z</time>
      </trkpt>
      <trkpt lat="44.84855" lon="6.73796">
        <ele>1867.1</ele>
        <time>2026-03-03T07:41:03.000Z</time>
      </trkpt>
      <trkpt lat="44.84855" lon="6.73796">
        <ele>1867.2</ele>
        <time>2026-03-03T07:41:04.000Z</time>
      </trkpt>
      <trkpt lat="44.84854" lon="6.73797">
        <ele>1867.3</ele>
        <time>2026-03-03T07:41:05.000Z</time>
      </trkpt>
      <trkpt lat="44.84853" lon="6.73798">
        <ele>1867.4</ele>
        <time>2026-03-03T07:41:06.000Z</time>
      </trkpt>
      <trkpt lat="44.84853" lon="6.73799">
        <ele>1867.6</ele>
        <time>2026-03-03T07:41:07.000Z</time>
      </trkpt>
      <trkpt lat="44.84853" lon="6.738">
        <ele>1867.6</ele>
        <time>2026-03-03T07:41:08.000Z</time>
      </trkpt>
      <trkpt lat="44.84852" lon="6.73801">
        <ele>1867.6</ele>
        <time>2026-03-03T07:41:09.000Z</time>
      </trkpt>
      <trkpt lat="44.84851" lon="6.73802">
        <ele>1867.5</ele>
        <time>2026-03-03T07:41:10.000Z</time>
      </trkpt>
      <trkpt lat="44.84851" lon="6.73803">
        <ele>1867.5</ele>
        <time>2026-03-03T07:41:11.000Z</time>
      </trkpt>
      <trkpt lat="44.84851" lon="6.73803">
        <ele>1867.4</ele>
        <time>2026-03-03T07:41:12.000Z</time>
      </trkpt>
      <trkpt lat="44.84852" lon="6.73804">
        <ele>1867.2</ele>
        <time>2026-03-03T07:41:13.000Z</time>
      </trkpt>
      <trkpt lat="44.84852" lon="6.73805">
        <ele>1866.8</ele>
        <time>2026-03-03T07:41:14.000Z</time>
      </trkpt>
      <trkpt lat="44.84849" lon="6.73808">
        <ele>1867.2</ele>
        <time>2026-03-03T07:41:28.000Z</time>
      </trkpt>
      <trkpt lat="44.84849" lon="6.73809">
        <ele>1867.3</ele>
        <time>2026-03-03T07:41:29.000Z</time>
      </trkpt>
      <trkpt lat="44.84849" lon="6.7381">
        <ele>1867.4</ele>
        <time>2026-03-03T07:41:30.000Z</time>
      </trkpt>
      <trkpt lat="44.84849" lon="6.73811">
        <ele>1867.4</ele>
        <time>2026-03-03T07:41:31.000Z</time>
      </trkpt>
      <trkpt lat="44.84848" lon="6.73811">
        <ele>1867.7</ele>
        <time>2026-03-03T07:41:32.000Z</time>
      </trkpt>
      <trkpt lat="44.84848" lon="6.73811">
        <ele>1868</ele>
        <time>2026-03-03T07:41:33.000Z</time>
      </trkpt>
      <trkpt lat="44.84845" lon="6.73815">
        <ele>1866.7</ele>
        <time>2026-03-03T07:41:47.000Z</time>
      </trkpt>
      <trkpt lat="44.84844" lon="6.73817">
        <ele>1866.8</ele>
        <time>2026-03-03T07:41:48.000Z</time>
      </trkpt>
      <trkpt lat="44.84844" lon="6.73818">
        <ele>1866.8</ele>
        <time>2026-03-03T07:41:49.000Z</time>
      </trkpt>
      <trkpt lat="44.84844" lon="6.7382">
        <ele>1866.8</ele>
        <time>2026-03-03T07:41:50.000Z</time>
      </trkpt>
      <trkpt lat="44.84843" lon="6.7382">
        <ele>1867</ele>
        <time>2026-03-03T07:41:51.000Z</time>
      </trkpt>
      <trkpt lat="44.84843" lon="6.73822">
        <ele>1867.1</ele>
        <time>2026-03-03T07:41:52.000Z</time>
      </trkpt>
      <trkpt lat="44.84843" lon="6.73823">
        <ele>1867</ele>
        <time>2026-03-03T07:41:53.000Z</time>
      </trkpt>
      <trkpt lat="44.84842" lon="6.73824">
        <ele>1867.2</ele>
        <time>2026-03-03T07:41:54.000Z</time>
      </trkpt>
      <trkpt lat="44.84842" lon="6.73825">
        <ele>1867.5</ele>
        <time>2026-03-03T07:41:55.000Z</time>
      </trkpt>
      <trkpt lat="44.84842" lon="6.73825">
        <ele>1867.6</ele>
        <time>2026-03-03T07:41:56.000Z</time>
      </trkpt>
      <trkpt lat="44.84841" lon="6.73826">
        <ele>1867.9</ele>
        <time>2026-03-03T07:41:57.000Z</time>
      </trkpt>
      <trkpt lat="44.84841" lon="6.73827">
        <ele>1868.1</ele>
        <time>2026-03-03T07:41:58.000Z</time>
      </trkpt>
      <trkpt lat="44.8484" lon="6.73828">
        <ele>1868.2</ele>
        <time>2026-03-03T07:41:59.000Z</time>
      </trkpt>
      <trkpt lat="44.8484" lon="6.73829">
        <ele>1868.1</ele>
        <time>2026-03-03T07:42:00.000Z</time>
      </trkpt>
      <trkpt lat="44.8484" lon="6.7383">
        <ele>1867.9</ele>
        <time>2026-03-03T07:42:01.000Z</time>
      </trkpt>
      <trkpt lat="44.8484" lon="6.73831">
        <ele>1868</ele>
        <time>2026-03-03T07:42:02.000Z</time>
      </trkpt>
      <trkpt lat="44.84839" lon="6.73831">
        <ele>1868.3</ele>
        <time>2026-03-03T07:42:03.000Z</time>
      </trkpt>
      <trkpt lat="44.84839" lon="6.73832">
        <ele>1868.8</ele>
        <time>2026-03-03T07:42:04.000Z</time>
      </trkpt>
      <trkpt lat="44.84838" lon="6.73834">
        <ele>1869</ele>
        <time>2026-03-03T07:42:05.000Z</time>
      </trkpt>
      <trkpt lat="44.84838" lon="6.73835">
        <ele>1869.3</ele>
        <time>2026-03-03T07:42:06.000Z</time>
      </trkpt>
      <trkpt lat="44.84837" lon="6.73835">
        <ele>1869.4</ele>
        <time>2026-03-03T07:42:07.000Z</time>
      </trkpt>
      <trkpt lat="44.84837" lon="6.73836">
        <ele>1869.5</ele>
        <time>2026-03-03T07:42:08.000Z</time>
      </trkpt>
      <trkpt lat="44.84836" lon="6.73837">
        <ele>1869.7</ele>
        <time>2026-03-03T07:42:09.000Z</time>
      </trkpt>
      <trkpt lat="44.84835" lon="6.73838">
        <ele>1869.8</ele>
        <time>2026-03-03T07:42:10.000Z</time>
      </trkpt>
      <trkpt lat="44.84835" lon="6.73839">
        <ele>1870.1</ele>
        <time>2026-03-03T07:42:11.000Z</time>
      </trkpt>
      <trkpt lat="44.84834" lon="6.73839">
        <ele>1870.3</ele>
        <time>2026-03-03T07:42:12.000Z</time>
      </trkpt>
      <trkpt lat="44.84834" lon="6.7384">
        <ele>1870.3</ele>
        <time>2026-03-03T07:42:13.000Z</time>
      </trkpt>
      <trkpt lat="44.84834" lon="6.73841">
        <ele>1870</ele>
        <time>2026-03-03T07:42:14.000Z</time>
      </trkpt>
      <trkpt lat="44.84833" lon="6.73841">
        <ele>1870</ele>
        <time>2026-03-03T07:42:15.000Z</time>
      </trkpt>
      <trkpt lat="44.84833" lon="6.73842">
        <ele>1870.1</ele>
        <time>2026-03-03T07:42:16.000Z</time>
      </trkpt>
      <trkpt lat="44.84833" lon="6.73844">
        <ele>1870.4</ele>
        <time>2026-03-03T07:42:17.000Z</time>
      </trkpt>
      <trkpt lat="44.84833" lon="6.73845">
        <ele>1870.5</ele>
        <time>2026-03-03T07:42:18.000Z</time>
      </trkpt>
      <trkpt lat="44.84833" lon="6.73847">
        <ele>1870.4</ele>
        <time>2026-03-03T07:42:19.000Z</time>
      </trkpt>
      <trkpt lat="44.84832" lon="6.73848">
        <ele>1870.3</ele>
        <time>2026-03-03T07:42:20.000Z</time>
      </trkpt>
      <trkpt lat="44.84832" lon="6.73849">
        <ele>1870.2</ele>
        <time>2026-03-03T07:42:21.000Z</time>
      </trkpt>
      <trkpt lat="44.84832" lon="6.7385">
        <ele>1870.2</ele>
        <time>2026-03-03T07:42:22.000Z</time>
      </trkpt>
      <trkpt lat="44.84831" lon="6.73851">
        <ele>1870.4</ele>
        <time>2026-03-03T07:42:23.000Z</time>
      </trkpt>
      <trkpt lat="44.84831" lon="6.73852">
        <ele>1870.5</ele>
        <time>2026-03-03T07:42:24.000Z</time>
      </trkpt>
      <trkpt lat="44.84831" lon="6.73852">
        <ele>1870.7</ele>
        <time>2026-03-03T07:42:25.000Z</time>
      </trkpt>
      <trkpt lat="44.8483" lon="6.73853">
        <ele>1870.8</ele>
        <time>2026-03-03T07:42:26.000Z</time>
      </trkpt>
      <trkpt lat="44.8483" lon="6.73854">
        <ele>1871</ele>
        <time>2026-03-03T07:42:27.000Z</time>
      </trkpt>
      <trkpt lat="44.84829" lon="6.73856">
        <ele>1871.2</ele>
        <time>2026-03-03T07:42:28.000Z</time>
      </trkpt>
      <trkpt lat="44.84829" lon="6.73857">
        <ele>1871.5</ele>
        <time>2026-03-03T07:42:29.000Z</time>
      </trkpt>
      <trkpt lat="44.84828" lon="6.73859">
        <ele>1871.8</ele>
        <time>2026-03-03T07:42:30.000Z</time>
      </trkpt>
      <trkpt lat="44.84828" lon="6.7386">
        <ele>1871.8</ele>
        <time>2026-03-03T07:42:31.000Z</time>
      </trkpt>
      <trkpt lat="44.84828" lon="6.73861">
        <ele>1871.8</ele>
        <time>2026-03-03T07:42:32.000Z</time>
      </trkpt>
      <trkpt lat="44.84828" lon="6.73862">
        <ele>1872.3</ele>
        <time>2026-03-03T07:42:33.000Z</time>
      </trkpt>
      <trkpt lat="44.84827" lon="6.73864">
        <ele>1872.5</ele>
        <time>2026-03-03T07:42:34.000Z</time>
      </trkpt>
      <trkpt lat="44.84827" lon="6.73865">
        <ele>1872.6</ele>
        <time>2026-03-03T07:42:35.000Z</time>
      </trkpt>
      <trkpt lat="44.84826" lon="6.73866">
        <ele>1872.6</ele>
        <time>2026-03-03T07:42:36.000Z</time>
      </trkpt>
      <trkpt lat="44.84826" lon="6.73867">
        <ele>1872.6</ele>
        <time>2026-03-03T07:42:37.000Z</time>
      </trkpt>
      <trkpt lat="44.84826" lon="6.73868">
        <ele>1872.6</ele>
        <time>2026-03-03T07:42:38.000Z</time>
      </trkpt>
      <trkpt lat="44.84825" lon="6.73869">
        <ele>1872.7</ele>
        <time>2026-03-03T07:42:39.000Z</time>
      </trkpt>
      <trkpt lat="44.84824" lon="6.7387">
        <ele>1872.9</ele>
        <time>2026-03-03T07:42:40.000Z</time>
      </trkpt>
      <trkpt lat="44.84824" lon="6.73871">
        <ele>1873.2</ele>
        <time>2026-03-03T07:42:41.000Z</time>
      </trkpt>
      <trkpt lat="44.84823" lon="6.73872">
        <ele>1873.2</ele>
        <time>2026-03-03T07:42:42.000Z</time>
      </trkpt>
      <trkpt lat="44.84823" lon="6.73872">
        <ele>1873.2</ele>
        <time>2026-03-03T07:42:43.000Z</time>
      </trkpt>
      <trkpt lat="44.84823" lon="6.73873">
        <ele>1873.4</ele>
        <time>2026-03-03T07:42:44.000Z</time>
      </trkpt>
      <trkpt lat="44.84822" lon="6.73874">
        <ele>1873.5</ele>
        <time>2026-03-03T07:42:45.000Z</time>
      </trkpt>
      <trkpt lat="44.84822" lon="6.73875">
        <ele>1873.6</ele>
        <time>2026-03-03T07:42:46.000Z</time>
      </trkpt>
      <trkpt lat="44.84822" lon="6.73876">
        <ele>1873.8</ele>
        <time>2026-03-03T07:42:47.000Z</time>
      </trkpt>
      <trkpt lat="44.84821" lon="6.73877">
        <ele>1874.2</ele>
        <time>2026-03-03T07:42:48.000Z</time>
      </trkpt>
      <trkpt lat="44.84821" lon="6.73879">
        <ele>1874.5</ele>
        <time>2026-03-03T07:42:49.000Z</time>
      </trkpt>
      <trkpt lat="44.8482" lon="6.7388">
        <ele>1874.6</ele>
        <time>2026-03-03T07:42:50.000Z</time>
      </trkpt>
      <trkpt lat="44.8482" lon="6.73881">
        <ele>1874.8</ele>
        <time>2026-03-03T07:42:51.000Z</time>
      </trkpt>
      <trkpt lat="44.8482" lon="6.73882">
        <ele>1874.8</ele>
        <time>2026-03-03T07:42:52.000Z</time>
      </trkpt>
      <trkpt lat="44.84819" lon="6.73883">
        <ele>1874.9</ele>
        <time>2026-03-03T07:42:53.000Z</time>
      </trkpt>
      <trkpt lat="44.84818" lon="6.73883">
        <ele>1874.9</ele>
        <time>2026-03-03T07:42:54.000Z</time>
      </trkpt>
      <trkpt lat="44.84817" lon="6.73884">
        <ele>1874.8</ele>
        <time>2026-03-03T07:42:55.000Z</time>
      </trkpt>
      <trkpt lat="44.84817" lon="6.73884">
        <ele>1874.8</ele>
        <time>2026-03-03T07:42:56.000Z</time>
      </trkpt>
      <trkpt lat="44.84816" lon="6.73885">
        <ele>1874.8</ele>
        <time>2026-03-03T07:42:57.000Z</time>
      </trkpt>
      <trkpt lat="44.84816" lon="6.73886">
        <ele>1874.9</ele>
        <time>2026-03-03T07:42:58.000Z</time>
      </trkpt>
      <trkpt lat="44.84815" lon="6.73887">
        <ele>1874.8</ele>
        <time>2026-03-03T07:42:59.000Z</time>
      </trkpt>
      <trkpt lat="44.84815" lon="6.73888">
        <ele>1874.9</ele>
        <time>2026-03-03T07:43:00.000Z</time>
      </trkpt>
      <trkpt lat="44.84814" lon="6.73889">
        <ele>1875.3</ele>
        <time>2026-03-03T07:43:01.000Z</time>
      </trkpt>
      <trkpt lat="44.84814" lon="6.7389">
        <ele>1875.3</ele>
        <time>2026-03-03T07:43:02.000Z</time>
      </trkpt>
      <trkpt lat="44.84813" lon="6.73891">
        <ele>1875.2</ele>
        <time>2026-03-03T07:43:03.000Z</time>
      </trkpt>
      <trkpt lat="44.84813" lon="6.73891">
        <ele>1875.1</ele>
        <time>2026-03-03T07:43:04.000Z</time>
      </trkpt>
      <trkpt lat="44.84812" lon="6.73892">
        <ele>1875</ele>
        <time>2026-03-03T07:43:05.000Z</time>
      </trkpt>
      <trkpt lat="44.84812" lon="6.73893">
        <ele>1875.1</ele>
        <time>2026-03-03T07:43:06.000Z</time>
      </trkpt>
      <trkpt lat="44.8481" lon="6.73894">
        <ele>1875.2</ele>
        <time>2026-03-03T07:43:07.000Z</time>
      </trkpt>
      <trkpt lat="44.8481" lon="6.73895">
        <ele>1875.3</ele>
        <time>2026-03-03T07:43:08.000Z</time>
      </trkpt>
      <trkpt lat="44.84809" lon="6.73895">
        <ele>1875.3</ele>
        <time>2026-03-03T07:43:09.000Z</time>
      </trkpt>
      <trkpt lat="44.84808" lon="6.73896">
        <ele>1875.3</ele>
        <time>2026-03-03T07:43:10.000Z</time>
      </trkpt>
      <trkpt lat="44.84807" lon="6.73897">
        <ele>1875.2</ele>
        <time>2026-03-03T07:43:11.000Z</time>
      </trkpt>
      <trkpt lat="44.84807" lon="6.73897">
        <ele>1875.3</ele>
        <time>2026-03-03T07:43:12.000Z</time>
      </trkpt>
      <trkpt lat="44.84806" lon="6.73898">
        <ele>1875.5</ele>
        <time>2026-03-03T07:43:13.000Z</time>
      </trkpt>
      <trkpt lat="44.84805" lon="6.73899">
        <ele>1875.5</ele>
        <time>2026-03-03T07:43:14.000Z</time>
      </trkpt>
      <trkpt lat="44.84804" lon="6.73899">
        <ele>1875.4</ele>
        <time>2026-03-03T07:43:15.000Z</time>
      </trkpt>
      <trkpt lat="44.84804" lon="6.739">
        <ele>1875.3</ele>
        <time>2026-03-03T07:43:16.000Z</time>
      </trkpt>
      <trkpt lat="44.84803" lon="6.73901">
        <ele>1875.3</ele>
        <time>2026-03-03T07:43:17.000Z</time>
      </trkpt>
      <trkpt lat="44.84802" lon="6.73902">
        <ele>1875.4</ele>
        <time>2026-03-03T07:43:18.000Z</time>
      </trkpt>
      <trkpt lat="44.84802" lon="6.73902">
        <ele>1875.5</ele>
        <time>2026-03-03T07:43:19.000Z</time>
      </trkpt>
      <trkpt lat="44.84801" lon="6.73903">
        <ele>1875.6</ele>
        <time>2026-03-03T07:43:20.000Z</time>
      </trkpt>
      <trkpt lat="44.848" lon="6.73904">
        <ele>1875.8</ele>
        <time>2026-03-03T07:43:21.000Z</time>
      </trkpt>
      <trkpt lat="44.848" lon="6.73905">
        <ele>1876</ele>
        <time>2026-03-03T07:43:22.000Z</time>
      </trkpt>
      <trkpt lat="44.848" lon="6.73906">
        <ele>1876.2</ele>
        <time>2026-03-03T07:43:23.000Z</time>
      </trkpt>
      <trkpt lat="44.84799" lon="6.73908">
        <ele>1876.4</ele>
        <time>2026-03-03T07:43:24.000Z</time>
      </trkpt>
      <trkpt lat="44.84799" lon="6.73909">
        <ele>1876.5</ele>
        <time>2026-03-03T07:43:25.000Z</time>
      </trkpt>
      <trkpt lat="44.84798" lon="6.7391">
        <ele>1876.8</ele>
        <time>2026-03-03T07:43:26.000Z</time>
      </trkpt>
      <trkpt lat="44.84798" lon="6.73911">
        <ele>1876.9</ele>
        <time>2026-03-03T07:43:27.000Z</time>
      </trkpt>
      <trkpt lat="44.84798" lon="6.73912">
        <ele>1877</ele>
        <time>2026-03-03T07:43:28.000Z</time>
      </trkpt>
      <trkpt lat="44.84797" lon="6.73914">
        <ele>1877.1</ele>
        <time>2026-03-03T07:43:29.000Z</time>
      </trkpt>
      <trkpt lat="44.84797" lon="6.73915">
        <ele>1877.1</ele>
        <time>2026-03-03T07:43:30.000Z</time>
      </trkpt>
      <trkpt lat="44.84796" lon="6.73916">
        <ele>1877.3</ele>
        <time>2026-03-03T07:43:31.000Z</time>
      </trkpt>
      <trkpt lat="44.84795" lon="6.73917">
        <ele>1877.7</ele>
        <time>2026-03-03T07:43:32.000Z</time>
      </trkpt>
      <trkpt lat="44.84795" lon="6.73918">
        <ele>1877.7</ele>
        <time>2026-03-03T07:43:33.000Z</time>
      </trkpt>
      <trkpt lat="44.84794" lon="6.73919">
        <ele>1877.7</ele>
        <time>2026-03-03T07:43:34.000Z</time>
      </trkpt>
      <trkpt lat="44.84794" lon="6.7392">
        <ele>1877.8</ele>
        <time>2026-03-03T07:43:35.000Z</time>
      </trkpt>
      <trkpt lat="44.84794" lon="6.73921">
        <ele>1877.9</ele>
        <time>2026-03-03T07:43:36.000Z</time>
      </trkpt>
      <trkpt lat="44.84793" lon="6.73923">
        <ele>1878</ele>
        <time>2026-03-03T07:43:37.000Z</time>
      </trkpt>
      <trkpt lat="44.84793" lon="6.73923">
        <ele>1878.2</ele>
        <time>2026-03-03T07:43:38.000Z</time>
      </trkpt>
      <trkpt lat="44.84793" lon="6.73924">
        <ele>1878.4</ele>
        <time>2026-03-03T07:43:39.000Z</time>
      </trkpt>
      <trkpt lat="44.84793" lon="6.73925">
        <ele>1878.4</ele>
        <time>2026-03-03T07:43:40.000Z</time>
      </trkpt>
      <trkpt lat="44.84793" lon="6.73927">
        <ele>1878.4</ele>
        <time>2026-03-03T07:43:41.000Z</time>
      </trkpt>
      <trkpt lat="44.84793" lon="6.73928">
        <ele>1878.6</ele>
        <time>2026-03-03T07:43:42.000Z</time>
      </trkpt>
      <trkpt lat="44.84792" lon="6.7393">
        <ele>1878.9</ele>
        <time>2026-03-03T07:43:43.000Z</time>
      </trkpt>
      <trkpt lat="44.84792" lon="6.73931">
        <ele>1879</ele>
        <time>2026-03-03T07:43:44.000Z</time>
      </trkpt>
      <trkpt lat="44.84792" lon="6.73932">
        <ele>1878.9</ele>
        <time>2026-03-03T07:43:45.000Z</time>
      </trkpt>
      <trkpt lat="44.84792" lon="6.73933">
        <ele>1879</ele>
        <time>2026-03-03T07:43:46.000Z</time>
      </trkpt>
      <trkpt lat="44.84791" lon="6.73934">
        <ele>1878.9</ele>
        <time>2026-03-03T07:43:47.000Z</time>
      </trkpt>
      <trkpt lat="44.84792" lon="6.73936">
        <ele>1878.8</ele>
        <time>2026-03-03T07:43:48.000Z</time>
      </trkpt>
      <trkpt lat="44.84792" lon="6.73937">
        <ele>1878.8</ele>
        <time>2026-03-03T07:43:49.000Z</time>
      </trkpt>
      <trkpt lat="44.84791" lon="6.73938">
        <ele>1878.9</ele>
        <time>2026-03-03T07:43:50.000Z</time>
      </trkpt>
      <trkpt lat="44.84791" lon="6.73939">
        <ele>1878.8</ele>
        <time>2026-03-03T07:43:51.000Z</time>
      </trkpt>
      <trkpt lat="44.84791" lon="6.7394">
        <ele>1878.7</ele>
        <time>2026-03-03T07:43:52.000Z</time>
      </trkpt>
      <trkpt lat="44.8479" lon="6.73941">
        <ele>1878.8</ele>
        <time>2026-03-03T07:43:53.000Z</time>
      </trkpt>
      <trkpt lat="44.8479" lon="6.73943">
        <ele>1878.7</ele>
        <time>2026-03-03T07:43:54.000Z</time>
      </trkpt>
      <trkpt lat="44.8479" lon="6.73944">
        <ele>1878.9</ele>
        <time>2026-03-03T07:43:55.000Z</time>
      </trkpt>
      <trkpt lat="44.8479" lon="6.73945">
        <ele>1878.9</ele>
        <time>2026-03-03T07:43:56.000Z</time>
      </trkpt>
      <trkpt lat="44.84789" lon="6.73946">
        <ele>1878.8</ele>
        <time>2026-03-03T07:43:57.000Z</time>
      </trkpt>
      <trkpt lat="44.84789" lon="6.73947">
        <ele>1878.7</ele>
        <time>2026-03-03T07:43:58.000Z</time>
      </trkpt>
      <trkpt lat="44.84789" lon="6.73948">
        <ele>1878.7</ele>
        <time>2026-03-03T07:43:59.000Z</time>
      </trkpt>
      <trkpt lat="44.84789" lon="6.73949">
        <ele>1878.7</ele>
        <time>2026-03-03T07:44:00.000Z</time>
      </trkpt>
      <trkpt lat="44.84789" lon="6.7395">
        <ele>1878.5</ele>
        <time>2026-03-03T07:44:01.000Z</time>
      </trkpt>
      <trkpt lat="44.84788" lon="6.73951">
        <ele>1878.3</ele>
        <time>2026-03-03T07:44:02.000Z</time>
      </trkpt>
      <trkpt lat="44.84787" lon="6.73952">
        <ele>1878.3</ele>
        <time>2026-03-03T07:44:03.000Z</time>
      </trkpt>
      <trkpt lat="44.84787" lon="6.73953">
        <ele>1878.5</ele>
        <time>2026-03-03T07:44:04.000Z</time>
      </trkpt>
      <trkpt lat="44.84786" lon="6.73954">
        <ele>1878.6</ele>
        <time>2026-03-03T07:44:05.000Z</time>
      </trkpt>
      <trkpt lat="44.84785" lon="6.73954">
        <ele>1878.5</ele>
        <time>2026-03-03T07:44:06.000Z</time>
      </trkpt>
      <trkpt lat="44.84784" lon="6.73955">
        <ele>1878.5</ele>
        <time>2026-03-03T07:44:07.000Z</time>
      </trkpt>
      <trkpt lat="44.84784" lon="6.73955">
        <ele>1878.7</ele>
        <time>2026-03-03T07:44:08.000Z</time>
      </trkpt>
      <trkpt lat="44.84783" lon="6.73956">
        <ele>1878.9</ele>
        <time>2026-03-03T07:44:09.000Z</time>
      </trkpt>
      <trkpt lat="44.84782" lon="6.73957">
        <ele>1879</ele>
        <time>2026-03-03T07:44:10.000Z</time>
      </trkpt>
      <trkpt lat="44.84781" lon="6.73957">
        <ele>1879.2</ele>
        <time>2026-03-03T07:44:11.000Z</time>
      </trkpt>
      <trkpt lat="44.8478" lon="6.73958">
        <ele>1879.1</ele>
        <time>2026-03-03T07:44:12.000Z</time>
      </trkpt>
      <trkpt lat="44.8478" lon="6.73958">
        <ele>1879</ele>
        <time>2026-03-03T07:44:13.000Z</time>
      </trkpt>
      <trkpt lat="44.84779" lon="6.73958">
        <ele>1879.2</ele>
        <time>2026-03-03T07:44:14.000Z</time>
      </trkpt>
      <trkpt lat="44.84778" lon="6.73959">
        <ele>1879.7</ele>
        <time>2026-03-03T07:44:15.000Z</time>
      </trkpt>
      <trkpt lat="44.84777" lon="6.73959">
        <ele>1880</ele>
        <time>2026-03-03T07:44:16.000Z</time>
      </trkpt>
      <trkpt lat="44.84776" lon="6.73959">
        <ele>1880.2</ele>
        <time>2026-03-03T07:44:17.000Z</time>
      </trkpt>
      <trkpt lat="44.84775" lon="6.73959">
        <ele>1880.1</ele>
        <time>2026-03-03T07:44:18.000Z</time>
      </trkpt>
      <trkpt lat="44.84775" lon="6.73959">
        <ele>1880.1</ele>
        <time>2026-03-03T07:44:19.000Z</time>
      </trkpt>
      <trkpt lat="44.84774" lon="6.73959">
        <ele>1880.1</ele>
        <time>2026-03-03T07:44:20.000Z</time>
      </trkpt>
      <trkpt lat="44.84775" lon="6.73959">
        <ele>1880.2</ele>
        <time>2026-03-03T07:44:21.000Z</time>
      </trkpt>
      <trkpt lat="44.84775" lon="6.73959">
        <ele>1880.2</ele>
        <time>2026-03-03T07:44:22.000Z</time>
      </trkpt>
      <trkpt lat="44.84775" lon="6.73959">
        <ele>1880.3</ele>
        <time>2026-03-03T07:44:23.000Z</time>
      </trkpt>
      <trkpt lat="44.84775" lon="6.73959">
        <ele>1880.3</ele>
        <time>2026-03-03T07:44:24.000Z</time>
      </trkpt>
      <trkpt lat="44.84775" lon="6.7396">
        <ele>1880.3</ele>
        <time>2026-03-03T07:44:25.000Z</time>
      </trkpt>
      <trkpt lat="44.84775" lon="6.73961">
        <ele>1880.6</ele>
        <time>2026-03-03T07:44:26.000Z</time>
      </trkpt>
      <trkpt lat="44.84774" lon="6.73962">
        <ele>1880.9</ele>
        <time>2026-03-03T07:44:27.000Z</time>
      </trkpt>
      <trkpt lat="44.84773" lon="6.73962">
        <ele>1881.2</ele>
        <time>2026-03-03T07:44:28.000Z</time>
      </trkpt>
      <trkpt lat="44.84771" lon="6.73962">
        <ele>1881.5</ele>
        <time>2026-03-03T07:44:29.000Z</time>
      </trkpt>
      <trkpt lat="44.8477" lon="6.73962">
        <ele>1882</ele>
        <time>2026-03-03T07:44:30.000Z</time>
      </trkpt>
      <trkpt lat="44.84769" lon="6.73963">
        <ele>1882.1</ele>
        <time>2026-03-03T07:44:31.000Z</time>
      </trkpt>
      <trkpt lat="44.84768" lon="6.73963">
        <ele>1882.2</ele>
        <time>2026-03-03T07:44:32.000Z</time>
      </trkpt>
      <trkpt lat="44.84767" lon="6.73963">
        <ele>1882.1</ele>
        <time>2026-03-03T07:44:33.000Z</time>
      </trkpt>
      <trkpt lat="44.84766" lon="6.73964">
        <ele>1882.3</ele>
        <time>2026-03-03T07:44:34.000Z</time>
      </trkpt>
      <trkpt lat="44.84766" lon="6.73963">
        <ele>1882.4</ele>
        <time>2026-03-03T07:44:35.000Z</time>
      </trkpt>
      <trkpt lat="44.84766" lon="6.73963">
        <ele>1882.5</ele>
        <time>2026-03-03T07:44:36.000Z</time>
      </trkpt>
      <trkpt lat="44.84765" lon="6.73963">
        <ele>1882.6</ele>
        <time>2026-03-03T07:44:37.000Z</time>
      </trkpt>
      <trkpt lat="44.84764" lon="6.73963">
        <ele>1882.6</ele>
        <time>2026-03-03T07:44:38.000Z</time>
      </trkpt>
      <trkpt lat="44.84763" lon="6.73964">
        <ele>1882.5</ele>
        <time>2026-03-03T07:44:39.000Z</time>
      </trkpt>
      <trkpt lat="44.84763" lon="6.73964">
        <ele>1882.6</ele>
        <time>2026-03-03T07:44:40.000Z</time>
      </trkpt>
      <trkpt lat="44.84762" lon="6.73964">
        <ele>1882.8</ele>
        <time>2026-03-03T07:44:41.000Z</time>
      </trkpt>
      <trkpt lat="44.84762" lon="6.73964">
        <ele>1883.1</ele>
        <time>2026-03-03T07:44:42.000Z</time>
      </trkpt>
      <trkpt lat="44.84761" lon="6.73965">
        <ele>1883.1</ele>
        <time>2026-03-03T07:44:43.000Z</time>
      </trkpt>
      <trkpt lat="44.84759" lon="6.73965">
        <ele>1883.2</ele>
        <time>2026-03-03T07:44:44.000Z</time>
      </trkpt>
      <trkpt lat="44.84758" lon="6.73965">
        <ele>1883.1</ele>
        <time>2026-03-03T07:44:45.000Z</time>
      </trkpt>
      <trkpt lat="44.84757" lon="6.73965">
        <ele>1882.9</ele>
        <time>2026-03-03T07:44:46.000Z</time>
      </trkpt>
      <trkpt lat="44.84756" lon="6.73965">
        <ele>1883</ele>
        <time>2026-03-03T07:44:47.000Z</time>
      </trkpt>
      <trkpt lat="44.84756" lon="6.73965">
        <ele>1883.1</ele>
        <time>2026-03-03T07:44:48.000Z</time>
      </trkpt>
      <trkpt lat="44.84755" lon="6.73965">
        <ele>1883.3</ele>
        <time>2026-03-03T07:44:49.000Z</time>
      </trkpt>
      <trkpt lat="44.84755" lon="6.73964">
        <ele>1883.4</ele>
        <time>2026-03-03T07:44:50.000Z</time>
      </trkpt>
      <trkpt lat="44.84754" lon="6.73964">
        <ele>1883.7</ele>
        <time>2026-03-03T07:44:51.000Z</time>
      </trkpt>
      <trkpt lat="44.8475" lon="6.73966">
        <ele>1882.2</ele>
        <time>2026-03-03T07:46:09.000Z</time>
      </trkpt>
      <trkpt lat="44.8475" lon="6.73967">
        <ele>1882.4</ele>
        <time>2026-03-03T07:46:10.000Z</time>
      </trkpt>
      <trkpt lat="44.84749" lon="6.73968">
        <ele>1882.7</ele>
        <time>2026-03-03T07:46:11.000Z</time>
      </trkpt>
      <trkpt lat="44.84748" lon="6.73969">
        <ele>1882.9</ele>
        <time>2026-03-03T07:46:12.000Z</time>
      </trkpt>
      <trkpt lat="44.84748" lon="6.73969">
        <ele>1883.2</ele>
        <time>2026-03-03T07:46:13.000Z</time>
      </trkpt>
      <trkpt lat="44.84747" lon="6.7397">
        <ele>1883.4</ele>
        <time>2026-03-03T07:46:14.000Z</time>
      </trkpt>
      <trkpt lat="44.84747" lon="6.7397">
        <ele>1883.6</ele>
        <time>2026-03-03T07:46:15.000Z</time>
      </trkpt>
      <trkpt lat="44.84747" lon="6.73971">
        <ele>1884</ele>
        <time>2026-03-03T07:46:16.000Z</time>
      </trkpt>
      <trkpt lat="44.84747" lon="6.73971">
        <ele>1884.5</ele>
        <time>2026-03-03T07:46:17.000Z</time>
      </trkpt>
      <trkpt lat="44.84746" lon="6.73972">
        <ele>1884.7</ele>
        <time>2026-03-03T07:46:18.000Z</time>
      </trkpt>
      <trkpt lat="44.84745" lon="6.73972">
        <ele>1884.9</ele>
        <time>2026-03-03T07:46:19.000Z</time>
      </trkpt>
      <trkpt lat="44.84745" lon="6.73973">
        <ele>1884.9</ele>
        <time>2026-03-03T07:46:20.000Z</time>
      </trkpt>
      <trkpt lat="44.84744" lon="6.73974">
        <ele>1885.1</ele>
        <time>2026-03-03T07:46:21.000Z</time>
      </trkpt>
      <trkpt lat="44.84743" lon="6.73975">
        <ele>1885.2</ele>
        <time>2026-03-03T07:46:22.000Z</time>
      </trkpt>
      <trkpt lat="44.84742" lon="6.73975">
        <ele>1885.3</ele>
        <time>2026-03-03T07:46:23.000Z</time>
      </trkpt>
      <trkpt lat="44.84742" lon="6.73976">
        <ele>1885.6</ele>
        <time>2026-03-03T07:46:24.000Z</time>
      </trkpt>
      <trkpt lat="44.84742" lon="6.73977">
        <ele>1885.4</ele>
        <time>2026-03-03T07:46:25.000Z</time>
      </trkpt>
      <trkpt lat="44.84741" lon="6.73977">
        <ele>1885.3</ele>
        <time>2026-03-03T07:46:26.000Z</time>
      </trkpt>
      <trkpt lat="44.8474" lon="6.73978">
        <ele>1885.3</ele>
        <time>2026-03-03T07:46:27.000Z</time>
      </trkpt>
      <trkpt lat="44.8474" lon="6.73979">
        <ele>1885.3</ele>
        <time>2026-03-03T07:46:28.000Z</time>
      </trkpt>
      <trkpt lat="44.84739" lon="6.7398">
        <ele>1885.2</ele>
        <time>2026-03-03T07:46:29.000Z</time>
      </trkpt>
      <trkpt lat="44.84738" lon="6.7398">
        <ele>1885.3</ele>
        <time>2026-03-03T07:46:30.000Z</time>
      </trkpt>
      <trkpt lat="44.84738" lon="6.73981">
        <ele>1885.1</ele>
        <time>2026-03-03T07:46:31.000Z</time>
      </trkpt>
      <trkpt lat="44.84738" lon="6.73981">
        <ele>1885.1</ele>
        <time>2026-03-03T07:46:32.000Z</time>
      </trkpt>
      <trkpt lat="44.84737" lon="6.73981">
        <ele>1885.4</ele>
        <time>2026-03-03T07:46:33.000Z</time>
      </trkpt>
      <trkpt lat="44.84737" lon="6.73981">
        <ele>1885.7</ele>
        <time>2026-03-03T07:46:34.000Z</time>
      </trkpt>
      <trkpt lat="44.84736" lon="6.73981">
        <ele>1886</ele>
        <time>2026-03-03T07:46:35.000Z</time>
      </trkpt>
      <trkpt lat="44.84735" lon="6.73981">
        <ele>1886.2</ele>
        <time>2026-03-03T07:46:36.000Z</time>
      </trkpt>
      <trkpt lat="44.84734" lon="6.73982">
        <ele>1886.4</ele>
        <time>2026-03-03T07:46:37.000Z</time>
      </trkpt>
      <trkpt lat="44.84733" lon="6.73983">
        <ele>1886.6</ele>
        <time>2026-03-03T07:46:38.000Z</time>
      </trkpt>
      <trkpt lat="44.84732" lon="6.73983">
        <ele>1886.9</ele>
        <time>2026-03-03T07:46:39.000Z</time>
      </trkpt>
      <trkpt lat="44.84732" lon="6.73984">
        <ele>1886.9</ele>
        <time>2026-03-03T07:46:40.000Z</time>
      </trkpt>
      <trkpt lat="44.84731" lon="6.73985">
        <ele>1887</ele>
        <time>2026-03-03T07:46:41.000Z</time>
      </trkpt>
      <trkpt lat="44.84731" lon="6.73986">
        <ele>1887.3</ele>
        <time>2026-03-03T07:46:42.000Z</time>
      </trkpt>
      <trkpt lat="44.8473" lon="6.73986">
        <ele>1887.4</ele>
        <time>2026-03-03T07:46:43.000Z</time>
      </trkpt>
      <trkpt lat="44.84729" lon="6.73987">
        <ele>1887.5</ele>
        <time>2026-03-03T07:46:44.000Z</time>
      </trkpt>
      <trkpt lat="44.84728" lon="6.73987">
        <ele>1887.6</ele>
        <time>2026-03-03T07:46:45.000Z</time>
      </trkpt>
      <trkpt lat="44.84728" lon="6.73988">
        <ele>1887.8</ele>
        <time>2026-03-03T07:46:46.000Z</time>
      </trkpt>
      <trkpt lat="44.84727" lon="6.73988">
        <ele>1887.9</ele>
        <time>2026-03-03T07:46:47.000Z</time>
      </trkpt>
      <trkpt lat="44.84727" lon="6.73989">
        <ele>1888.3</ele>
        <time>2026-03-03T07:46:48.000Z</time>
      </trkpt>
      <trkpt lat="44.84726" lon="6.73989">
        <ele>1888.4</ele>
        <time>2026-03-03T07:46:49.000Z</time>
      </trkpt>
      <trkpt lat="44.84726" lon="6.7399">
        <ele>1888.6</ele>
        <time>2026-03-03T07:46:50.000Z</time>
      </trkpt>
      <trkpt lat="44.84725" lon="6.7399">
        <ele>1888.8</ele>
        <time>2026-03-03T07:46:51.000Z</time>
      </trkpt>
      <trkpt lat="44.84725" lon="6.73991">
        <ele>1888.9</ele>
        <time>2026-03-03T07:46:52.000Z</time>
      </trkpt>
      <trkpt lat="44.84724" lon="6.73992">
        <ele>1889.1</ele>
        <time>2026-03-03T07:46:53.000Z</time>
      </trkpt>
      <trkpt lat="44.84723" lon="6.73993">
        <ele>1889.3</ele>
        <time>2026-03-03T07:46:54.000Z</time>
      </trkpt>
      <trkpt lat="44.84722" lon="6.73993">
        <ele>1889.6</ele>
        <time>2026-03-03T07:46:55.000Z</time>
      </trkpt>
      <trkpt lat="44.84721" lon="6.73994">
        <ele>1889.9</ele>
        <time>2026-03-03T07:46:56.000Z</time>
      </trkpt>
      <trkpt lat="44.8472" lon="6.73995">
        <ele>1889.9</ele>
        <time>2026-03-03T07:46:57.000Z</time>
      </trkpt>
      <trkpt lat="44.8472" lon="6.73995">
        <ele>1890.1</ele>
        <time>2026-03-03T07:46:58.000Z</time>
      </trkpt>
      <trkpt lat="44.84719" lon="6.73996">
        <ele>1890.2</ele>
        <time>2026-03-03T07:46:59.000Z</time>
      </trkpt>
      <trkpt lat="44.84718" lon="6.73997">
        <ele>1890.4</ele>
        <time>2026-03-03T07:47:00.000Z</time>
      </trkpt>
      <trkpt lat="44.84718" lon="6.73997">
        <ele>1890.5</ele>
        <time>2026-03-03T07:47:01.000Z</time>
      </trkpt>
      <trkpt lat="44.84718" lon="6.73997">
        <ele>1890.6</ele>
        <time>2026-03-03T07:47:02.000Z</time>
      </trkpt>
      <trkpt lat="44.84717" lon="6.73998">
        <ele>1890.7</ele>
        <time>2026-03-03T07:47:03.000Z</time>
      </trkpt>
      <trkpt lat="44.84716" lon="6.73999">
        <ele>1890.8</ele>
        <time>2026-03-03T07:47:04.000Z</time>
      </trkpt>
      <trkpt lat="44.84716" lon="6.73999">
        <ele>1890.6</ele>
        <time>2026-03-03T07:47:05.000Z</time>
      </trkpt>
      <trkpt lat="44.84716" lon="6.74">
        <ele>1890.6</ele>
        <time>2026-03-03T07:47:06.000Z</time>
      </trkpt>
      <trkpt lat="44.84715" lon="6.74001">
        <ele>1890.7</ele>
        <time>2026-03-03T07:47:07.000Z</time>
      </trkpt>
      <trkpt lat="44.84715" lon="6.74001">
        <ele>1891</ele>
        <time>2026-03-03T07:47:08.000Z</time>
      </trkpt>
      <trkpt lat="44.84714" lon="6.74001">
        <ele>1891.1</ele>
        <time>2026-03-03T07:47:09.000Z</time>
      </trkpt>
      <trkpt lat="44.84714" lon="6.74002">
        <ele>1891.2</ele>
        <time>2026-03-03T07:47:10.000Z</time>
      </trkpt>
      <trkpt lat="44.84713" lon="6.74003">
        <ele>1891.3</ele>
        <time>2026-03-03T07:47:11.000Z</time>
      </trkpt>
      <trkpt lat="44.84713" lon="6.74004">
        <ele>1891.3</ele>
        <time>2026-03-03T07:47:12.000Z</time>
      </trkpt>
      <trkpt lat="44.84712" lon="6.74005">
        <ele>1891.4</ele>
        <time>2026-03-03T07:47:13.000Z</time>
      </trkpt>
      <trkpt lat="44.84711" lon="6.74005">
        <ele>1891.6</ele>
        <time>2026-03-03T07:47:14.000Z</time>
      </trkpt>
      <trkpt lat="44.84711" lon="6.74006">
        <ele>1892</ele>
        <time>2026-03-03T07:47:15.000Z</time>
      </trkpt>
      <trkpt lat="44.8471" lon="6.74006">
        <ele>1892.1</ele>
        <time>2026-03-03T07:47:16.000Z</time>
      </trkpt>
      <trkpt lat="44.84709" lon="6.74007">
        <ele>1892.2</ele>
        <time>2026-03-03T07:47:17.000Z</time>
      </trkpt>
      <trkpt lat="44.84708" lon="6.74008">
        <ele>1892.3</ele>
        <time>2026-03-03T07:47:18.000Z</time>
      </trkpt>
      <trkpt lat="44.84708" lon="6.74008">
        <ele>1892.2</ele>
        <time>2026-03-03T07:47:19.000Z</time>
      </trkpt>
      <trkpt lat="44.84707" lon="6.74008">
        <ele>1892.4</ele>
        <time>2026-03-03T07:47:20.000Z</time>
      </trkpt>
      <trkpt lat="44.84707" lon="6.74009">
        <ele>1892.5</ele>
        <time>2026-03-03T07:47:21.000Z</time>
      </trkpt>
      <trkpt lat="44.84706" lon="6.74009">
        <ele>1892.6</ele>
        <time>2026-03-03T07:47:22.000Z</time>
      </trkpt>
      <trkpt lat="44.84705" lon="6.7401">
        <ele>1892.6</ele>
        <time>2026-03-03T07:47:23.000Z</time>
      </trkpt>
      <trkpt lat="44.84704" lon="6.7401">
        <ele>1892.5</ele>
        <time>2026-03-03T07:47:24.000Z</time>
      </trkpt>
      <trkpt lat="44.84703" lon="6.7401">
        <ele>1892.4</ele>
        <time>2026-03-03T07:47:25.000Z</time>
      </trkpt>
      <trkpt lat="44.84703" lon="6.74011">
        <ele>1892.2</ele>
        <time>2026-03-03T07:47:26.000Z</time>
      </trkpt>
      <trkpt lat="44.84702" lon="6.74011">
        <ele>1891.9</ele>
        <time>2026-03-03T07:47:27.000Z</time>
      </trkpt>
      <trkpt lat="44.84701" lon="6.74011">
        <ele>1892.1</ele>
        <time>2026-03-03T07:47:28.000Z</time>
      </trkpt>
      <trkpt lat="44.84701" lon="6.74012">
        <ele>1892.6</ele>
        <time>2026-03-03T07:47:29.000Z</time>
      </trkpt>
      <trkpt lat="44.847" lon="6.74012">
        <ele>1892.7</ele>
        <time>2026-03-03T07:47:30.000Z</time>
      </trkpt>
      <trkpt lat="44.84699" lon="6.74013">
        <ele>1892.7</ele>
        <time>2026-03-03T07:47:31.000Z</time>
      </trkpt>
      <trkpt lat="44.84699" lon="6.74013">
        <ele>1892.9</ele>
        <time>2026-03-03T07:47:32.000Z</time>
      </trkpt>
      <trkpt lat="44.84698" lon="6.74014">
        <ele>1893.1</ele>
        <time>2026-03-03T07:47:33.000Z</time>
      </trkpt>
      <trkpt lat="44.84697" lon="6.74015">
        <ele>1893.1</ele>
        <time>2026-03-03T07:47:34.000Z</time>
      </trkpt>
      <trkpt lat="44.84696" lon="6.74016">
        <ele>1893.2</ele>
        <time>2026-03-03T07:47:35.000Z</time>
      </trkpt>
      <trkpt lat="44.84696" lon="6.74016">
        <ele>1893.2</ele>
        <time>2026-03-03T07:47:36.000Z</time>
      </trkpt>
      <trkpt lat="44.84695" lon="6.74016">
        <ele>1893.3</ele>
        <time>2026-03-03T07:47:37.000Z</time>
      </trkpt>
      <trkpt lat="44.84694" lon="6.74017">
        <ele>1893.4</ele>
        <time>2026-03-03T07:47:38.000Z</time>
      </trkpt>
      <trkpt lat="44.84694" lon="6.74018">
        <ele>1893.5</ele>
        <time>2026-03-03T07:47:39.000Z</time>
      </trkpt>
      <trkpt lat="44.84693" lon="6.74019">
        <ele>1893.3</ele>
        <time>2026-03-03T07:47:40.000Z</time>
      </trkpt>
      <trkpt lat="44.84693" lon="6.74019">
        <ele>1893.3</ele>
        <time>2026-03-03T07:47:41.000Z</time>
      </trkpt>
      <trkpt lat="44.84692" lon="6.7402">
        <ele>1893.3</ele>
        <time>2026-03-03T07:47:42.000Z</time>
      </trkpt>
      <trkpt lat="44.84692" lon="6.7402">
        <ele>1893.4</ele>
        <time>2026-03-03T07:47:43.000Z</time>
      </trkpt>
      <trkpt lat="44.84691" lon="6.74021">
        <ele>1893.2</ele>
        <time>2026-03-03T07:47:44.000Z</time>
      </trkpt>
      <trkpt lat="44.84691" lon="6.74021">
        <ele>1893.1</ele>
        <time>2026-03-03T07:47:45.000Z</time>
      </trkpt>
      <trkpt lat="44.8469" lon="6.74022">
        <ele>1893.2</ele>
        <time>2026-03-03T07:47:46.000Z</time>
      </trkpt>
      <trkpt lat="44.84689" lon="6.74023">
        <ele>1893.4</ele>
        <time>2026-03-03T07:47:47.000Z</time>
      </trkpt>
      <trkpt lat="44.84689" lon="6.74024">
        <ele>1893.3</ele>
        <time>2026-03-03T07:47:48.000Z</time>
      </trkpt>
      <trkpt lat="44.84689" lon="6.74024">
        <ele>1893.2</ele>
        <time>2026-03-03T07:47:49.000Z</time>
      </trkpt>
      <trkpt lat="44.84688" lon="6.74024">
        <ele>1893.4</ele>
        <time>2026-03-03T07:47:50.000Z</time>
      </trkpt>
      <trkpt lat="44.84687" lon="6.74025">
        <ele>1893.6</ele>
        <time>2026-03-03T07:47:51.000Z</time>
      </trkpt>
      <trkpt lat="44.84687" lon="6.74026">
        <ele>1894</ele>
        <time>2026-03-03T07:47:52.000Z</time>
      </trkpt>
      <trkpt lat="44.84686" lon="6.74026">
        <ele>1894</ele>
        <time>2026-03-03T07:47:53.000Z</time>
      </trkpt>
      <trkpt lat="44.84685" lon="6.74027">
        <ele>1893.9</ele>
        <time>2026-03-03T07:47:54.000Z</time>
      </trkpt>
      <trkpt lat="44.84684" lon="6.74028">
        <ele>1893.9</ele>
        <time>2026-03-03T07:47:55.000Z</time>
      </trkpt>
      <trkpt lat="44.84684" lon="6.74028">
        <ele>1893.9</ele>
        <time>2026-03-03T07:47:56.000Z</time>
      </trkpt>
      <trkpt lat="44.84684" lon="6.74029">
        <ele>1894.2</ele>
        <time>2026-03-03T07:47:57.000Z</time>
      </trkpt>
      <trkpt lat="44.84683" lon="6.74029">
        <ele>1894.4</ele>
        <time>2026-03-03T07:47:58.000Z</time>
      </trkpt>
      <trkpt lat="44.84682" lon="6.7403">
        <ele>1894.5</ele>
        <time>2026-03-03T07:47:59.000Z</time>
      </trkpt>
      <trkpt lat="44.84682" lon="6.74031">
        <ele>1894.7</ele>
        <time>2026-03-03T07:48:00.000Z</time>
      </trkpt>
      <trkpt lat="44.84681" lon="6.74032">
        <ele>1894.9</ele>
        <time>2026-03-03T07:48:01.000Z</time>
      </trkpt>
      <trkpt lat="44.84681" lon="6.74032">
        <ele>1895</ele>
        <time>2026-03-03T07:48:02.000Z</time>
      </trkpt>
      <trkpt lat="44.8468" lon="6.74032">
        <ele>1895.2</ele>
        <time>2026-03-03T07:48:03.000Z</time>
      </trkpt>
      <trkpt lat="44.84679" lon="6.74033">
        <ele>1895.3</ele>
        <time>2026-03-03T07:48:04.000Z</time>
      </trkpt>
      <trkpt lat="44.84678" lon="6.74033">
        <ele>1895.6</ele>
        <time>2026-03-03T07:48:05.000Z</time>
      </trkpt>
      <trkpt lat="44.84677" lon="6.74034">
        <ele>1895.7</ele>
        <time>2026-03-03T07:48:06.000Z</time>
      </trkpt>
      <trkpt lat="44.84677" lon="6.74034">
        <ele>1895.8</ele>
        <time>2026-03-03T07:48:07.000Z</time>
      </trkpt>
      <trkpt lat="44.84677" lon="6.74035">
        <ele>1895.9</ele>
        <time>2026-03-03T07:48:08.000Z</time>
      </trkpt>
      <trkpt lat="44.84676" lon="6.74036">
        <ele>1896</ele>
        <time>2026-03-03T07:48:09.000Z</time>
      </trkpt>
      <trkpt lat="44.84675" lon="6.74037">
        <ele>1896.3</ele>
        <time>2026-03-03T07:48:10.000Z</time>
      </trkpt>
      <trkpt lat="44.84675" lon="6.74038">
        <ele>1896.5</ele>
        <time>2026-03-03T07:48:11.000Z</time>
      </trkpt>
      <trkpt lat="44.84674" lon="6.74039">
        <ele>1896.5</ele>
        <time>2026-03-03T07:48:12.000Z</time>
      </trkpt>
      <trkpt lat="44.84674" lon="6.74039">
        <ele>1896.9</ele>
        <time>2026-03-03T07:48:13.000Z</time>
      </trkpt>
      <trkpt lat="44.84673" lon="6.7404">
        <ele>1896.9</ele>
        <time>2026-03-03T07:48:14.000Z</time>
      </trkpt>
      <trkpt lat="44.84673" lon="6.74041">
        <ele>1897</ele>
        <time>2026-03-03T07:48:15.000Z</time>
      </trkpt>
      <trkpt lat="44.84673" lon="6.74041">
        <ele>1896.9</ele>
        <time>2026-03-03T07:48:16.000Z</time>
      </trkpt>
      <trkpt lat="44.84672" lon="6.74042">
        <ele>1897.1</ele>
        <time>2026-03-03T07:48:17.000Z</time>
      </trkpt>
      <trkpt lat="44.84672" lon="6.74043">
        <ele>1897.5</ele>
        <time>2026-03-03T07:48:18.000Z</time>
      </trkpt>
      <trkpt lat="44.84671" lon="6.74044">
        <ele>1897.6</ele>
        <time>2026-03-03T07:48:19.000Z</time>
      </trkpt>
      <trkpt lat="44.8467" lon="6.74045">
        <ele>1897.6</ele>
        <time>2026-03-03T07:48:20.000Z</time>
      </trkpt>
      <trkpt lat="44.8467" lon="6.74046">
        <ele>1897.8</ele>
        <time>2026-03-03T07:48:21.000Z</time>
      </trkpt>
      <trkpt lat="44.84669" lon="6.74047">
        <ele>1897.7</ele>
        <time>2026-03-03T07:48:22.000Z</time>
      </trkpt>
      <trkpt lat="44.84669" lon="6.74047">
        <ele>1897.7</ele>
        <time>2026-03-03T07:48:23.000Z</time>
      </trkpt>
      <trkpt lat="44.84669" lon="6.74048">
        <ele>1897.9</ele>
        <time>2026-03-03T07:48:24.000Z</time>
      </trkpt>
      <trkpt lat="44.84668" lon="6.74049">
        <ele>1898</ele>
        <time>2026-03-03T07:48:25.000Z</time>
      </trkpt>
      <trkpt lat="44.84668" lon="6.7405">
        <ele>1897.9</ele>
        <time>2026-03-03T07:48:26.000Z</time>
      </trkpt>
      <trkpt lat="44.84667" lon="6.74051">
        <ele>1897.9</ele>
        <time>2026-03-03T07:48:27.000Z</time>
      </trkpt>
      <trkpt lat="44.84667" lon="6.74052">
        <ele>1897.9</ele>
        <time>2026-03-03T07:48:28.000Z</time>
      </trkpt>
      <trkpt lat="44.84666" lon="6.74053">
        <ele>1898</ele>
        <time>2026-03-03T07:48:29.000Z</time>
      </trkpt>
      <trkpt lat="44.84666" lon="6.74054">
        <ele>1898.1</ele>
        <time>2026-03-03T07:48:30.000Z</time>
      </trkpt>
      <trkpt lat="44.84666" lon="6.74054">
        <ele>1898.3</ele>
        <time>2026-03-03T07:48:31.000Z</time>
      </trkpt>
      <trkpt lat="44.84666" lon="6.74055">
        <ele>1898.6</ele>
        <time>2026-03-03T07:48:32.000Z</time>
      </trkpt>
      <trkpt lat="44.84665" lon="6.74056">
        <ele>1898.8</ele>
        <time>2026-03-03T07:48:33.000Z</time>
      </trkpt>
      <trkpt lat="44.84665" lon="6.74056">
        <ele>1898.7</ele>
        <time>2026-03-03T07:48:34.000Z</time>
      </trkpt>
      <trkpt lat="44.84664" lon="6.74057">
        <ele>1898.7</ele>
        <time>2026-03-03T07:48:35.000Z</time>
      </trkpt>
      <trkpt lat="44.84664" lon="6.74058">
        <ele>1898.7</ele>
        <time>2026-03-03T07:48:36.000Z</time>
      </trkpt>
      <trkpt lat="44.84663" lon="6.74059">
        <ele>1898.8</ele>
        <time>2026-03-03T07:48:37.000Z</time>
      </trkpt>
      <trkpt lat="44.84662" lon="6.74059">
        <ele>1899</ele>
        <time>2026-03-03T07:48:38.000Z</time>
      </trkpt>
      <trkpt lat="44.84662" lon="6.7406">
        <ele>1899.2</ele>
        <time>2026-03-03T07:48:39.000Z</time>
      </trkpt>
      <trkpt lat="44.84661" lon="6.74061">
        <ele>1899.2</ele>
        <time>2026-03-03T07:48:40.000Z</time>
      </trkpt>
      <trkpt lat="44.84661" lon="6.74062">
        <ele>1899.3</ele>
        <time>2026-03-03T07:48:41.000Z</time>
      </trkpt>
      <trkpt lat="44.84661" lon="6.74062">
        <ele>1899.2</ele>
        <time>2026-03-03T07:48:42.000Z</time>
      </trkpt>
      <trkpt lat="44.8466" lon="6.74063">
        <ele>1899.4</ele>
        <time>2026-03-03T07:48:43.000Z</time>
      </trkpt>
      <trkpt lat="44.84659" lon="6.74064">
        <ele>1899.7</ele>
        <time>2026-03-03T07:48:44.000Z</time>
      </trkpt>
      <trkpt lat="44.84658" lon="6.74065">
        <ele>1900.1</ele>
        <time>2026-03-03T07:48:45.000Z</time>
      </trkpt>
      <trkpt lat="44.84658" lon="6.74065">
        <ele>1900.2</ele>
        <time>2026-03-03T07:48:46.000Z</time>
      </trkpt>
      <trkpt lat="44.84657" lon="6.74066">
        <ele>1900.4</ele>
        <time>2026-03-03T07:48:47.000Z</time>
      </trkpt>
      <trkpt lat="44.84657" lon="6.74066">
        <ele>1900.6</ele>
        <time>2026-03-03T07:48:48.000Z</time>
      </trkpt>
      <trkpt lat="44.84656" lon="6.74067">
        <ele>1900.6</ele>
        <time>2026-03-03T07:48:49.000Z</time>
      </trkpt>
      <trkpt lat="44.84655" lon="6.74068">
        <ele>1900.7</ele>
        <time>2026-03-03T07:48:50.000Z</time>
      </trkpt>
      <trkpt lat="44.84655" lon="6.74069">
        <ele>1900.9</ele>
        <time>2026-03-03T07:48:51.000Z</time>
      </trkpt>
      <trkpt lat="44.84654" lon="6.7407">
        <ele>1901.1</ele>
        <time>2026-03-03T07:48:52.000Z</time>
      </trkpt>
      <trkpt lat="44.84653" lon="6.74071">
        <ele>1901.4</ele>
        <time>2026-03-03T07:48:53.000Z</time>
      </trkpt>
      <trkpt lat="44.84653" lon="6.74071">
        <ele>1901.5</ele>
        <time>2026-03-03T07:48:54.000Z</time>
      </trkpt>
      <trkpt lat="44.84652" lon="6.74072">
        <ele>1901.3</ele>
        <time>2026-03-03T07:48:55.000Z</time>
      </trkpt>
      <trkpt lat="44.84651" lon="6.74073">
        <ele>1901.2</ele>
        <time>2026-03-03T07:48:56.000Z</time>
      </trkpt>
      <trkpt lat="44.84651" lon="6.74074">
        <ele>1901.4</ele>
        <time>2026-03-03T07:48:57.000Z</time>
      </trkpt>
      <trkpt lat="44.8465" lon="6.74074">
        <ele>1901.5</ele>
        <time>2026-03-03T07:48:58.000Z</time>
      </trkpt>
      <trkpt lat="44.8465" lon="6.74074">
        <ele>1901.8</ele>
        <time>2026-03-03T07:48:59.000Z</time>
      </trkpt>
      <trkpt lat="44.8465" lon="6.74075">
        <ele>1902</ele>
        <time>2026-03-03T07:49:00.000Z</time>
      </trkpt>
      <trkpt lat="44.84649" lon="6.74075">
        <ele>1902.1</ele>
        <time>2026-03-03T07:49:01.000Z</time>
      </trkpt>
      <trkpt lat="44.84648" lon="6.74076">
        <ele>1902.1</ele>
        <time>2026-03-03T07:49:02.000Z</time>
      </trkpt>
      <trkpt lat="44.84648" lon="6.74077">
        <ele>1902.2</ele>
        <time>2026-03-03T07:49:03.000Z</time>
      </trkpt>
      <trkpt lat="44.84647" lon="6.74078">
        <ele>1902.3</ele>
        <time>2026-03-03T07:49:04.000Z</time>
      </trkpt>
      <trkpt lat="44.84647" lon="6.74078">
        <ele>1902.5</ele>
        <time>2026-03-03T07:49:05.000Z</time>
      </trkpt>
      <trkpt lat="44.84647" lon="6.74078">
        <ele>1902.6</ele>
        <time>2026-03-03T07:49:06.000Z</time>
      </trkpt>
      <trkpt lat="44.84646" lon="6.74079">
        <ele>1902.7</ele>
        <time>2026-03-03T07:49:07.000Z</time>
      </trkpt>
      <trkpt lat="44.84645" lon="6.74079">
        <ele>1902.7</ele>
        <time>2026-03-03T07:49:08.000Z</time>
      </trkpt>
      <trkpt lat="44.84645" lon="6.7408">
        <ele>1902.7</ele>
        <time>2026-03-03T07:49:09.000Z</time>
      </trkpt>
      <trkpt lat="44.84644" lon="6.7408">
        <ele>1902.7</ele>
        <time>2026-03-03T07:49:10.000Z</time>
      </trkpt>
      <trkpt lat="44.84644" lon="6.74081">
        <ele>1902.8</ele>
        <time>2026-03-03T07:49:11.000Z</time>
      </trkpt>
      <trkpt lat="44.84644" lon="6.74081">
        <ele>1903</ele>
        <time>2026-03-03T07:49:12.000Z</time>
      </trkpt>
      <trkpt lat="44.84643" lon="6.74081">
        <ele>1903.2</ele>
        <time>2026-03-03T07:49:13.000Z</time>
      </trkpt>
      <trkpt lat="44.84642" lon="6.74082">
        <ele>1903.3</ele>
        <time>2026-03-03T07:49:14.000Z</time>
      </trkpt>
      <trkpt lat="44.84642" lon="6.74083">
        <ele>1903.6</ele>
        <time>2026-03-03T07:49:15.000Z</time>
      </trkpt>
      <trkpt lat="44.84641" lon="6.74084">
        <ele>1903.6</ele>
        <time>2026-03-03T07:49:16.000Z</time>
      </trkpt>
      <trkpt lat="44.84641" lon="6.74084">
        <ele>1903.7</ele>
        <time>2026-03-03T07:49:17.000Z</time>
      </trkpt>
      <trkpt lat="44.8464" lon="6.74085">
        <ele>1903.7</ele>
        <time>2026-03-03T07:49:18.000Z</time>
      </trkpt>
      <trkpt lat="44.84639" lon="6.74086">
        <ele>1903.8</ele>
        <time>2026-03-03T07:49:19.000Z</time>
      </trkpt>
      <trkpt lat="44.84638" lon="6.74086">
        <ele>1904</ele>
        <time>2026-03-03T07:49:20.000Z</time>
      </trkpt>
      <trkpt lat="44.84637" lon="6.74087">
        <ele>1904.3</ele>
        <time>2026-03-03T07:49:21.000Z</time>
      </trkpt>
      <trkpt lat="44.84636" lon="6.74087">
        <ele>1904.4</ele>
        <time>2026-03-03T07:49:22.000Z</time>
      </trkpt>
      <trkpt lat="44.84635" lon="6.74087">
        <ele>1904.6</ele>
        <time>2026-03-03T07:49:23.000Z</time>
      </trkpt>
      <trkpt lat="44.84635" lon="6.74088">
        <ele>1904.7</ele>
        <time>2026-03-03T07:49:24.000Z</time>
      </trkpt>
      <trkpt lat="44.84634" lon="6.74089">
        <ele>1904.8</ele>
        <time>2026-03-03T07:49:25.000Z</time>
      </trkpt>
      <trkpt lat="44.84634" lon="6.74089">
        <ele>1904.7</ele>
        <time>2026-03-03T07:49:26.000Z</time>
      </trkpt>
      <trkpt lat="44.84633" lon="6.7409">
        <ele>1904.6</ele>
        <time>2026-03-03T07:49:27.000Z</time>
      </trkpt>
      <trkpt lat="44.84632" lon="6.74091">
        <ele>1904.6</ele>
        <time>2026-03-03T07:49:28.000Z</time>
      </trkpt>
      <trkpt lat="44.84631" lon="6.74091">
        <ele>1904.4</ele>
        <time>2026-03-03T07:49:29.000Z</time>
      </trkpt>
      <trkpt lat="44.84631" lon="6.74092">
        <ele>1904.3</ele>
        <time>2026-03-03T07:49:30.000Z</time>
      </trkpt>
      <trkpt lat="44.8463" lon="6.74092">
        <ele>1904.2</ele>
        <time>2026-03-03T07:49:31.000Z</time>
      </trkpt>
      <trkpt lat="44.8463" lon="6.74093">
        <ele>1904.3</ele>
        <time>2026-03-03T07:49:32.000Z</time>
      </trkpt>
      <trkpt lat="44.84629" lon="6.74094">
        <ele>1904.5</ele>
        <time>2026-03-03T07:49:33.000Z</time>
      </trkpt>
      <trkpt lat="44.84629" lon="6.74094">
        <ele>1904.6</ele>
        <time>2026-03-03T07:49:34.000Z</time>
      </trkpt>
      <trkpt lat="44.84628" lon="6.74095">
        <ele>1904.7</ele>
        <time>2026-03-03T07:49:35.000Z</time>
      </trkpt>
      <trkpt lat="44.84627" lon="6.74095">
        <ele>1904.8</ele>
        <time>2026-03-03T07:49:36.000Z</time>
      </trkpt>
      <trkpt lat="44.84627" lon="6.74096">
        <ele>1905</ele>
        <time>2026-03-03T07:49:37.000Z</time>
      </trkpt>
      <trkpt lat="44.84626" lon="6.74096">
        <ele>1905.2</ele>
        <time>2026-03-03T07:49:38.000Z</time>
      </trkpt>
      <trkpt lat="44.84626" lon="6.74097">
        <ele>1905.4</ele>
        <time>2026-03-03T07:49:39.000Z</time>
      </trkpt>
      <trkpt lat="44.84626" lon="6.74097">
        <ele>1905.5</ele>
        <time>2026-03-03T07:49:40.000Z</time>
      </trkpt>
      <trkpt lat="44.84625" lon="6.74098">
        <ele>1905.7</ele>
        <time>2026-03-03T07:49:41.000Z</time>
      </trkpt>
      <trkpt lat="44.84624" lon="6.74099">
        <ele>1905.8</ele>
        <time>2026-03-03T07:49:42.000Z</time>
      </trkpt>
      <trkpt lat="44.84624" lon="6.741">
        <ele>1905.9</ele>
        <time>2026-03-03T07:49:43.000Z</time>
      </trkpt>
      <trkpt lat="44.84623" lon="6.74101">
        <ele>1905.9</ele>
        <time>2026-03-03T07:49:44.000Z</time>
      </trkpt>
      <trkpt lat="44.84623" lon="6.74102">
        <ele>1905.9</ele>
        <time>2026-03-03T07:49:45.000Z</time>
      </trkpt>
      <trkpt lat="44.84622" lon="6.74102">
        <ele>1905.8</ele>
        <time>2026-03-03T07:49:46.000Z</time>
      </trkpt>
      <trkpt lat="44.84621" lon="6.74103">
        <ele>1906</ele>
        <time>2026-03-03T07:49:47.000Z</time>
      </trkpt>
      <trkpt lat="44.84621" lon="6.74104">
        <ele>1906.2</ele>
        <time>2026-03-03T07:49:48.000Z</time>
      </trkpt>
      <trkpt lat="44.8462" lon="6.74105">
        <ele>1906.5</ele>
        <time>2026-03-03T07:49:49.000Z</time>
      </trkpt>
      <trkpt lat="44.8462" lon="6.74106">
        <ele>1906.6</ele>
        <time>2026-03-03T07:49:50.000Z</time>
      </trkpt>
      <trkpt lat="44.84619" lon="6.74107">
        <ele>1906.7</ele>
        <time>2026-03-03T07:49:51.000Z</time>
      </trkpt>
      <trkpt lat="44.84619" lon="6.74107">
        <ele>1906.8</ele>
        <time>2026-03-03T07:49:52.000Z</time>
      </trkpt>
      <trkpt lat="44.84618" lon="6.74108">
        <ele>1906.8</ele>
        <time>2026-03-03T07:49:53.000Z</time>
      </trkpt>
      <trkpt lat="44.84617" lon="6.74109">
        <ele>1907.2</ele>
        <time>2026-03-03T07:49:54.000Z</time>
      </trkpt>
      <trkpt lat="44.84617" lon="6.7411">
        <ele>1907.3</ele>
        <time>2026-03-03T07:49:55.000Z</time>
      </trkpt>
      <trkpt lat="44.84616" lon="6.7411">
        <ele>1907.3</ele>
        <time>2026-03-03T07:49:56.000Z</time>
      </trkpt>
      <trkpt lat="44.84615" lon="6.74111">
        <ele>1907.1</ele>
        <time>2026-03-03T07:49:57.000Z</time>
      </trkpt>
      <trkpt lat="44.84614" lon="6.74111">
        <ele>1907.1</ele>
        <time>2026-03-03T07:49:58.000Z</time>
      </trkpt>
      <trkpt lat="44.84614" lon="6.74112">
        <ele>1907.2</ele>
        <time>2026-03-03T07:49:59.000Z</time>
      </trkpt>
      <trkpt lat="44.84613" lon="6.74112">
        <ele>1907.2</ele>
        <time>2026-03-03T07:50:00.000Z</time>
      </trkpt>
      <trkpt lat="44.84613" lon="6.74113">
        <ele>1907.2</ele>
        <time>2026-03-03T07:50:01.000Z</time>
      </trkpt>
      <trkpt lat="44.84612" lon="6.74113">
        <ele>1907.2</ele>
        <time>2026-03-03T07:50:02.000Z</time>
      </trkpt>
      <trkpt lat="44.84612" lon="6.74113">
        <ele>1907.2</ele>
        <time>2026-03-03T07:50:03.000Z</time>
      </trkpt>
      <trkpt lat="44.84612" lon="6.74114">
        <ele>1907.4</ele>
        <time>2026-03-03T07:50:04.000Z</time>
      </trkpt>
      <trkpt lat="44.84611" lon="6.74114">
        <ele>1907.7</ele>
        <time>2026-03-03T07:50:05.000Z</time>
      </trkpt>
      <trkpt lat="44.8461" lon="6.74115">
        <ele>1907.7</ele>
        <time>2026-03-03T07:50:06.000Z</time>
      </trkpt>
      <trkpt lat="44.8461" lon="6.74116">
        <ele>1907.8</ele>
        <time>2026-03-03T07:50:07.000Z</time>
      </trkpt>
      <trkpt lat="44.8461" lon="6.74117">
        <ele>1907.9</ele>
        <time>2026-03-03T07:50:08.000Z</time>
      </trkpt>
      <trkpt lat="44.8461" lon="6.74118">
        <ele>1907.8</ele>
        <time>2026-03-03T07:50:09.000Z</time>
      </trkpt>
      <trkpt lat="44.84609" lon="6.74118">
        <ele>1907.9</ele>
        <time>2026-03-03T07:50:10.000Z</time>
      </trkpt>
      <trkpt lat="44.84608" lon="6.7412">
        <ele>1908</ele>
        <time>2026-03-03T07:50:11.000Z</time>
      </trkpt>
      <trkpt lat="44.84608" lon="6.74121">
        <ele>1908.2</ele>
        <time>2026-03-03T07:50:12.000Z</time>
      </trkpt>
      <trkpt lat="44.84607" lon="6.74122">
        <ele>1908.1</ele>
        <time>2026-03-03T07:50:13.000Z</time>
      </trkpt>
      <trkpt lat="44.84607" lon="6.74123">
        <ele>1908.2</ele>
        <time>2026-03-03T07:50:14.000Z</time>
      </trkpt>
      <trkpt lat="44.84607" lon="6.74123">
        <ele>1908.4</ele>
        <time>2026-03-03T07:50:15.000Z</time>
      </trkpt>
      <trkpt lat="44.84606" lon="6.74123">
        <ele>1908.7</ele>
        <time>2026-03-03T07:50:16.000Z</time>
      </trkpt>
      <trkpt lat="44.84605" lon="6.74124">
        <ele>1908.7</ele>
        <time>2026-03-03T07:50:17.000Z</time>
      </trkpt>
      <trkpt lat="44.84605" lon="6.74125">
        <ele>1908.8</ele>
        <time>2026-03-03T07:50:18.000Z</time>
      </trkpt>
      <trkpt lat="44.84604" lon="6.74126">
        <ele>1908.9</ele>
        <time>2026-03-03T07:50:19.000Z</time>
      </trkpt>
      <trkpt lat="44.84604" lon="6.74127">
        <ele>1908.9</ele>
        <time>2026-03-03T07:50:20.000Z</time>
      </trkpt>
      <trkpt lat="44.84603" lon="6.74127">
        <ele>1909.1</ele>
        <time>2026-03-03T07:50:21.000Z</time>
      </trkpt>
      <trkpt lat="44.84603" lon="6.74128">
        <ele>1909.1</ele>
        <time>2026-03-03T07:50:22.000Z</time>
      </trkpt>
      <trkpt lat="44.84603" lon="6.74129">
        <ele>1909</ele>
        <time>2026-03-03T07:50:23.000Z</time>
      </trkpt>
      <trkpt lat="44.84602" lon="6.7413">
        <ele>1909.2</ele>
        <time>2026-03-03T07:50:24.000Z</time>
      </trkpt>
      <trkpt lat="44.84601" lon="6.74131">
        <ele>1909.5</ele>
        <time>2026-03-03T07:50:25.000Z</time>
      </trkpt>
      <trkpt lat="44.846" lon="6.74132">
        <ele>1909.4</ele>
        <time>2026-03-03T07:50:26.000Z</time>
      </trkpt>
      <trkpt lat="44.846" lon="6.74133">
        <ele>1909.3</ele>
        <time>2026-03-03T07:50:27.000Z</time>
      </trkpt>
      <trkpt lat="44.84599" lon="6.74134">
        <ele>1909.3</ele>
        <time>2026-03-03T07:50:28.000Z</time>
      </trkpt>
      <trkpt lat="44.84599" lon="6.74135">
        <ele>1909.3</ele>
        <time>2026-03-03T07:50:29.000Z</time>
      </trkpt>
      <trkpt lat="44.84598" lon="6.74135">
        <ele>1909.3</ele>
        <time>2026-03-03T07:50:30.000Z</time>
      </trkpt>
      <trkpt lat="44.84598" lon="6.74136">
        <ele>1909.4</ele>
        <time>2026-03-03T07:50:31.000Z</time>
      </trkpt>
      <trkpt lat="44.84598" lon="6.74137">
        <ele>1909.4</ele>
        <time>2026-03-03T07:50:32.000Z</time>
      </trkpt>
      <trkpt lat="44.84598" lon="6.74137">
        <ele>1909.6</ele>
        <time>2026-03-03T07:50:33.000Z</time>
      </trkpt>
      <trkpt lat="44.84597" lon="6.74138">
        <ele>1909.9</ele>
        <time>2026-03-03T07:50:34.000Z</time>
      </trkpt>
      <trkpt lat="44.84597" lon="6.74138">
        <ele>1910.2</ele>
        <time>2026-03-03T07:50:35.000Z</time>
      </trkpt>
      <trkpt lat="44.84596" lon="6.74139">
        <ele>1910.6</ele>
        <time>2026-03-03T07:50:36.000Z</time>
      </trkpt>
      <trkpt lat="44.84595" lon="6.7414">
        <ele>1910.8</ele>
        <time>2026-03-03T07:50:37.000Z</time>
      </trkpt>
      <trkpt lat="44.84595" lon="6.7414">
        <ele>1911.1</ele>
        <time>2026-03-03T07:50:38.000Z</time>
      </trkpt>
      <trkpt lat="44.84595" lon="6.7414">
        <ele>1911.3</ele>
        <time>2026-03-03T07:50:39.000Z</time>
      </trkpt>
      <trkpt lat="44.84594" lon="6.74141">
        <ele>1911.4</ele>
        <time>2026-03-03T07:50:40.000Z</time>
      </trkpt>
      <trkpt lat="44.84594" lon="6.74142">
        <ele>1911.6</ele>
        <time>2026-03-03T07:50:41.000Z</time>
      </trkpt>
      <trkpt lat="44.84594" lon="6.74143">
        <ele>1911.8</ele>
        <time>2026-03-03T07:50:42.000Z</time>
      </trkpt>
      <trkpt lat="44.84593" lon="6.74143">
        <ele>1911.9</ele>
        <time>2026-03-03T07:50:43.000Z</time>
      </trkpt>
      <trkpt lat="44.84593" lon="6.74144">
        <ele>1912.1</ele>
        <time>2026-03-03T07:50:44.000Z</time>
      </trkpt>
      <trkpt lat="44.84592" lon="6.74144">
        <ele>1912.4</ele>
        <time>2026-03-03T07:50:45.000Z</time>
      </trkpt>
      <trkpt lat="44.84592" lon="6.74145">
        <ele>1912.6</ele>
        <time>2026-03-03T07:50:46.000Z</time>
      </trkpt>
      <trkpt lat="44.84592" lon="6.74146">
        <ele>1912.8</ele>
        <time>2026-03-03T07:50:47.000Z</time>
      </trkpt>
      <trkpt lat="44.84591" lon="6.74146">
        <ele>1912.8</ele>
        <time>2026-03-03T07:50:48.000Z</time>
      </trkpt>
      <trkpt lat="44.84591" lon="6.74147">
        <ele>1912.9</ele>
        <time>2026-03-03T07:50:49.000Z</time>
      </trkpt>
      <trkpt lat="44.8459" lon="6.74147">
        <ele>1913</ele>
        <time>2026-03-03T07:50:50.000Z</time>
      </trkpt>
      <trkpt lat="44.84589" lon="6.74148">
        <ele>1913.4</ele>
        <time>2026-03-03T07:50:51.000Z</time>
      </trkpt>
      <trkpt lat="44.84589" lon="6.74149">
        <ele>1913.5</ele>
        <time>2026-03-03T07:50:52.000Z</time>
      </trkpt>
      <trkpt lat="44.84588" lon="6.7415">
        <ele>1913.6</ele>
        <time>2026-03-03T07:50:53.000Z</time>
      </trkpt>
      <trkpt lat="44.84587" lon="6.74151">
        <ele>1913.5</ele>
        <time>2026-03-03T07:50:54.000Z</time>
      </trkpt>
      <trkpt lat="44.84587" lon="6.74152">
        <ele>1913.5</ele>
        <time>2026-03-03T07:50:55.000Z</time>
      </trkpt>
      <trkpt lat="44.84587" lon="6.74152">
        <ele>1913.6</ele>
        <time>2026-03-03T07:50:56.000Z</time>
      </trkpt>
      <trkpt lat="44.84586" lon="6.74153">
        <ele>1913.8</ele>
        <time>2026-03-03T07:50:57.000Z</time>
      </trkpt>
      <trkpt lat="44.84586" lon="6.74153">
        <ele>1914.1</ele>
        <time>2026-03-03T07:50:58.000Z</time>
      </trkpt>
      <trkpt lat="44.84585" lon="6.74154">
        <ele>1914.3</ele>
        <time>2026-03-03T07:50:59.000Z</time>
      </trkpt>
      <trkpt lat="44.84584" lon="6.74155">
        <ele>1914.7</ele>
        <time>2026-03-03T07:51:00.000Z</time>
      </trkpt>
      <trkpt lat="44.84583" lon="6.74156">
        <ele>1914.9</ele>
        <time>2026-03-03T07:51:01.000Z</time>
      </trkpt>
      <trkpt lat="44.84583" lon="6.74156">
        <ele>1915.1</ele>
        <time>2026-03-03T07:51:02.000Z</time>
      </trkpt>
      <trkpt lat="44.84582" lon="6.74157">
        <ele>1915.2</ele>
        <time>2026-03-03T07:51:03.000Z</time>
      </trkpt>
      <trkpt lat="44.84581" lon="6.74157">
        <ele>1915.2</ele>
        <time>2026-03-03T07:51:04.000Z</time>
      </trkpt>
      <trkpt lat="44.84581" lon="6.74158">
        <ele>1915.3</ele>
        <time>2026-03-03T07:51:05.000Z</time>
      </trkpt>
      <trkpt lat="44.84581" lon="6.74159">
        <ele>1915.5</ele>
        <time>2026-03-03T07:51:06.000Z</time>
      </trkpt>
      <trkpt lat="44.84581" lon="6.74159">
        <ele>1915.7</ele>
        <time>2026-03-03T07:51:07.000Z</time>
      </trkpt>
      <trkpt lat="44.84581" lon="6.74159">
        <ele>1915.8</ele>
        <time>2026-03-03T07:51:08.000Z</time>
      </trkpt>
      <trkpt lat="44.8458" lon="6.74159">
        <ele>1915.8</ele>
        <time>2026-03-03T07:51:09.000Z</time>
      </trkpt>
      <trkpt lat="44.8458" lon="6.74159">
        <ele>1915.9</ele>
        <time>2026-03-03T07:51:10.000Z</time>
      </trkpt>
      <trkpt lat="44.84579" lon="6.74159">
        <ele>1916.3</ele>
        <time>2026-03-03T07:51:11.000Z</time>
      </trkpt>
      <trkpt lat="44.84579" lon="6.7416">
        <ele>1916.5</ele>
        <time>2026-03-03T07:51:12.000Z</time>
      </trkpt>
      <trkpt lat="44.84578" lon="6.7416">
        <ele>1916.8</ele>
        <time>2026-03-03T07:51:13.000Z</time>
      </trkpt>
      <trkpt lat="44.84578" lon="6.74161">
        <ele>1917</ele>
        <time>2026-03-03T07:51:14.000Z</time>
      </trkpt>
      <trkpt lat="44.84577" lon="6.74162">
        <ele>1917.2</ele>
        <time>2026-03-03T07:51:15.000Z</time>
      </trkpt>
      <trkpt lat="44.84576" lon="6.74162">
        <ele>1916.7</ele>
        <time>2026-03-03T07:51:16.000Z</time>
      </trkpt>
      <trkpt lat="44.84575" lon="6.74162">
        <ele>1916.6</ele>
        <time>2026-03-03T07:51:17.000Z</time>
      </trkpt>
      <trkpt lat="44.84573" lon="6.74162">
        <ele>1916.5</ele>
        <time>2026-03-03T07:51:18.000Z</time>
      </trkpt>
      <trkpt lat="44.84573" lon="6.74162">
        <ele>1916.3</ele>
        <time>2026-03-03T07:51:19.000Z</time>
      </trkpt>
      <trkpt lat="44.84572" lon="6.74163">
        <ele>1916.3</ele>
        <time>2026-03-03T07:51:20.000Z</time>
      </trkpt>
      <trkpt lat="44.84572" lon="6.74164">
        <ele>1916.2</ele>
        <time>2026-03-03T07:51:21.000Z</time>
      </trkpt>
      <trkpt lat="44.84572" lon="6.74164">
        <ele>1916.1</ele>
        <time>2026-03-03T07:51:22.000Z</time>
      </trkpt>
      <trkpt lat="44.84571" lon="6.74164">
        <ele>1916.2</ele>
        <time>2026-03-03T07:51:23.000Z</time>
      </trkpt>
      <trkpt lat="44.84571" lon="6.74164">
        <ele>1916.3</ele>
        <time>2026-03-03T07:51:24.000Z</time>
      </trkpt>
      <trkpt lat="44.84571" lon="6.74163">
        <ele>1916.6</ele>
        <time>2026-03-03T07:51:25.000Z</time>
      </trkpt>
      <trkpt lat="44.8457" lon="6.74163">
        <ele>1916.8</ele>
        <time>2026-03-03T07:51:26.000Z</time>
      </trkpt>
      <trkpt lat="44.8457" lon="6.74163">
        <ele>1917.2</ele>
        <time>2026-03-03T07:51:27.000Z</time>
      </trkpt>
      <trkpt lat="44.84569" lon="6.74163">
        <ele>1917.4</ele>
        <time>2026-03-03T07:51:28.000Z</time>
      </trkpt>
      <trkpt lat="44.84569" lon="6.74164">
        <ele>1917.7</ele>
        <time>2026-03-03T07:51:29.000Z</time>
      </trkpt>
      <trkpt lat="44.84568" lon="6.74165">
        <ele>1918.2</ele>
        <time>2026-03-03T07:51:30.000Z</time>
      </trkpt>
      <trkpt lat="44.84567" lon="6.74165">
        <ele>1918.6</ele>
        <time>2026-03-03T07:51:31.000Z</time>
      </trkpt>
      <trkpt lat="44.84567" lon="6.74165">
        <ele>1918.5</ele>
        <time>2026-03-03T07:51:32.000Z</time>
      </trkpt>
      <trkpt lat="44.84566" lon="6.74166">
        <ele>1918.8</ele>
        <time>2026-03-03T07:51:33.000Z</time>
      </trkpt>
      <trkpt lat="44.84565" lon="6.74166">
        <ele>1919.2</ele>
        <time>2026-03-03T07:51:34.000Z</time>
      </trkpt>
      <trkpt lat="44.84565" lon="6.74167">
        <ele>1919.4</ele>
        <time>2026-03-03T07:51:35.000Z</time>
      </trkpt>
      <trkpt lat="44.84563" lon="6.74167">
        <ele>1919.5</ele>
        <time>2026-03-03T07:51:36.000Z</time>
      </trkpt>
      <trkpt lat="44.84562" lon="6.74168">
        <ele>1919.7</ele>
        <time>2026-03-03T07:51:37.000Z</time>
      </trkpt>
      <trkpt lat="44.84561" lon="6.74169">
        <ele>1919.8</ele>
        <time>2026-03-03T07:51:38.000Z</time>
      </trkpt>
      <trkpt lat="44.84561" lon="6.74169">
        <ele>1920.1</ele>
        <time>2026-03-03T07:51:39.000Z</time>
      </trkpt>
      <trkpt lat="44.8456" lon="6.7417">
        <ele>1920.4</ele>
        <time>2026-03-03T07:51:40.000Z</time>
      </trkpt>
      <trkpt lat="44.84559" lon="6.7417">
        <ele>1920.5</ele>
        <time>2026-03-03T07:51:41.000Z</time>
      </trkpt>
      <trkpt lat="44.84558" lon="6.7417">
        <ele>1920.8</ele>
        <time>2026-03-03T07:51:42.000Z</time>
      </trkpt>
      <trkpt lat="44.84557" lon="6.7417">
        <ele>1920.9</ele>
        <time>2026-03-03T07:51:43.000Z</time>
      </trkpt>
      <trkpt lat="44.84556" lon="6.74171">
        <ele>1921.4</ele>
        <time>2026-03-03T07:51:44.000Z</time>
      </trkpt>
      <trkpt lat="44.84555" lon="6.74171">
        <ele>1921.5</ele>
        <time>2026-03-03T07:51:45.000Z</time>
      </trkpt>
      <trkpt lat="44.84555" lon="6.74172">
        <ele>1921.5</ele>
        <time>2026-03-03T07:51:46.000Z</time>
      </trkpt>
      <trkpt lat="44.84554" lon="6.74173">
        <ele>1921.5</ele>
        <time>2026-03-03T07:51:47.000Z</time>
      </trkpt>
      <trkpt lat="44.84553" lon="6.74173">
        <ele>1921.8</ele>
        <time>2026-03-03T07:51:48.000Z</time>
      </trkpt>
      <trkpt lat="44.84553" lon="6.74173">
        <ele>1921.8</ele>
        <time>2026-03-03T07:51:49.000Z</time>
      </trkpt>
      <trkpt lat="44.84552" lon="6.74174">
        <ele>1922.2</ele>
        <time>2026-03-03T07:51:50.000Z</time>
      </trkpt>
      <trkpt lat="44.84552" lon="6.74174">
        <ele>1922.4</ele>
        <time>2026-03-03T07:51:51.000Z</time>
      </trkpt>
      <trkpt lat="44.84551" lon="6.74175">
        <ele>1922.7</ele>
        <time>2026-03-03T07:51:52.000Z</time>
      </trkpt>
      <trkpt lat="44.84549" lon="6.74175">
        <ele>1923</ele>
        <time>2026-03-03T07:51:53.000Z</time>
      </trkpt>
      <trkpt lat="44.84549" lon="6.74176">
        <ele>1923.2</ele>
        <time>2026-03-03T07:51:54.000Z</time>
      </trkpt>
      <trkpt lat="44.84548" lon="6.74176">
        <ele>1923.5</ele>
        <time>2026-03-03T07:51:55.000Z</time>
      </trkpt>
      <trkpt lat="44.84547" lon="6.74177">
        <ele>1923.7</ele>
        <time>2026-03-03T07:51:56.000Z</time>
      </trkpt>
      <trkpt lat="44.84547" lon="6.74178">
        <ele>1924</ele>
        <time>2026-03-03T07:51:57.000Z</time>
      </trkpt>
      <trkpt lat="44.84546" lon="6.74179">
        <ele>1924.2</ele>
        <time>2026-03-03T07:51:58.000Z</time>
      </trkpt>
      <trkpt lat="44.84546" lon="6.74179">
        <ele>1924.5</ele>
        <time>2026-03-03T07:51:59.000Z</time>
      </trkpt>
      <trkpt lat="44.84544" lon="6.7418">
        <ele>1924.8</ele>
        <time>2026-03-03T07:52:00.000Z</time>
      </trkpt>
      <trkpt lat="44.84544" lon="6.74181">
        <ele>1925</ele>
        <time>2026-03-03T07:52:01.000Z</time>
      </trkpt>
      <trkpt lat="44.84543" lon="6.74181">
        <ele>1924.5</ele>
        <time>2026-03-03T07:52:02.000Z</time>
      </trkpt>
      <trkpt lat="44.84543" lon="6.74181">
        <ele>1924.5</ele>
        <time>2026-03-03T07:52:03.000Z</time>
      </trkpt>
      <trkpt lat="44.84542" lon="6.74181">
        <ele>1924.8</ele>
        <time>2026-03-03T07:52:04.000Z</time>
      </trkpt>
      <trkpt lat="44.84541" lon="6.74181">
        <ele>1924.9</ele>
        <time>2026-03-03T07:52:05.000Z</time>
      </trkpt>
      <trkpt lat="44.8454" lon="6.74182">
        <ele>1925</ele>
        <time>2026-03-03T07:52:06.000Z</time>
      </trkpt>
      <trkpt lat="44.8454" lon="6.74183">
        <ele>1925.1</ele>
        <time>2026-03-03T07:52:07.000Z</time>
      </trkpt>
      <trkpt lat="44.8454" lon="6.74184">
        <ele>1925.3</ele>
        <time>2026-03-03T07:52:08.000Z</time>
      </trkpt>
      <trkpt lat="44.84539" lon="6.74185">
        <ele>1925.4</ele>
        <time>2026-03-03T07:52:09.000Z</time>
      </trkpt>
      <trkpt lat="44.84539" lon="6.74186">
        <ele>1925.5</ele>
        <time>2026-03-03T07:52:10.000Z</time>
      </trkpt>
      <trkpt lat="44.84539" lon="6.74187">
        <ele>1925.4</ele>
        <time>2026-03-03T07:52:11.000Z</time>
      </trkpt>
      <trkpt lat="44.84538" lon="6.74189">
        <ele>1925.4</ele>
        <time>2026-03-03T07:52:12.000Z</time>
      </trkpt>
      <trkpt lat="44.84537" lon="6.7419">
        <ele>1925.4</ele>
        <time>2026-03-03T07:52:13.000Z</time>
      </trkpt>
      <trkpt lat="44.84536" lon="6.74191">
        <ele>1925.6</ele>
        <time>2026-03-03T07:52:14.000Z</time>
      </trkpt>
      <trkpt lat="44.84536" lon="6.74192">
        <ele>1925.9</ele>
        <time>2026-03-03T07:52:15.000Z</time>
      </trkpt>
      <trkpt lat="44.84536" lon="6.74193">
        <ele>1926</ele>
        <time>2026-03-03T07:52:16.000Z</time>
      </trkpt>
      <trkpt lat="44.84535" lon="6.74193">
        <ele>1926.1</ele>
        <time>2026-03-03T07:52:17.000Z</time>
      </trkpt>
      <trkpt lat="44.84535" lon="6.74194">
        <ele>1926.1</ele>
        <time>2026-03-03T07:52:18.000Z</time>
      </trkpt>
      <trkpt lat="44.84534" lon="6.74196">
        <ele>1925.9</ele>
        <time>2026-03-03T07:52:19.000Z</time>
      </trkpt>
      <trkpt lat="44.84534" lon="6.74197">
        <ele>1925.7</ele>
        <time>2026-03-03T07:52:20.000Z</time>
      </trkpt>
      <trkpt lat="44.84533" lon="6.74197">
        <ele>1925.5</ele>
        <time>2026-03-03T07:52:21.000Z</time>
      </trkpt>
      <trkpt lat="44.84533" lon="6.74197">
        <ele>1925.3</ele>
        <time>2026-03-03T07:52:22.000Z</time>
      </trkpt>
      <trkpt lat="44.84532" lon="6.74198">
        <ele>1925.2</ele>
        <time>2026-03-03T07:52:23.000Z</time>
      </trkpt>
      <trkpt lat="44.84532" lon="6.74198">
        <ele>1925.2</ele>
        <time>2026-03-03T07:52:24.000Z</time>
      </trkpt>
      <trkpt lat="44.84531" lon="6.74198">
        <ele>1925.2</ele>
        <time>2026-03-03T07:52:25.000Z</time>
      </trkpt>
      <trkpt lat="44.84531" lon="6.74198">
        <ele>1925.3</ele>
        <time>2026-03-03T07:52:26.000Z</time>
      </trkpt>
      <trkpt lat="44.8453" lon="6.74198">
        <ele>1925.5</ele>
        <time>2026-03-03T07:52:27.000Z</time>
      </trkpt>
      <trkpt lat="44.84529" lon="6.74198">
        <ele>1925.3</ele>
        <time>2026-03-03T07:52:28.000Z</time>
      </trkpt>
      <trkpt lat="44.84528" lon="6.74198">
        <ele>1925.4</ele>
        <time>2026-03-03T07:52:29.000Z</time>
      </trkpt>
      <trkpt lat="44.84528" lon="6.74199">
        <ele>1925.6</ele>
        <time>2026-03-03T07:52:30.000Z</time>
      </trkpt>
      <trkpt lat="44.84527" lon="6.742">
        <ele>1925.7</ele>
        <time>2026-03-03T07:52:31.000Z</time>
      </trkpt>
      <trkpt lat="44.84526" lon="6.74201">
        <ele>1925.8</ele>
        <time>2026-03-03T07:52:32.000Z</time>
      </trkpt>
      <trkpt lat="44.84526" lon="6.74202">
        <ele>1925.6</ele>
        <time>2026-03-03T07:52:33.000Z</time>
      </trkpt>
      <trkpt lat="44.84525" lon="6.74202">
        <ele>1925.6</ele>
        <time>2026-03-03T07:52:34.000Z</time>
      </trkpt>
      <trkpt lat="44.84524" lon="6.74203">
        <ele>1925.6</ele>
        <time>2026-03-03T07:52:35.000Z</time>
      </trkpt>
      <trkpt lat="44.84523" lon="6.74204">
        <ele>1925.7</ele>
        <time>2026-03-03T07:52:36.000Z</time>
      </trkpt>
      <trkpt lat="44.84522" lon="6.74204">
        <ele>1925.8</ele>
        <time>2026-03-03T07:52:37.000Z</time>
      </trkpt>
      <trkpt lat="44.84522" lon="6.74205">
        <ele>1925.8</ele>
        <time>2026-03-03T07:52:38.000Z</time>
      </trkpt>
      <trkpt lat="44.84521" lon="6.74206">
        <ele>1925.7</ele>
        <time>2026-03-03T07:52:39.000Z</time>
      </trkpt>
      <trkpt lat="44.8452" lon="6.74206">
        <ele>1925.7</ele>
        <time>2026-03-03T07:52:40.000Z</time>
      </trkpt>
      <trkpt lat="44.8452" lon="6.74206">
        <ele>1925.8</ele>
        <time>2026-03-03T07:52:41.000Z</time>
      </trkpt>
      <trkpt lat="44.8452" lon="6.74206">
        <ele>1925.9</ele>
        <time>2026-03-03T07:52:42.000Z</time>
      </trkpt>
      <trkpt lat="44.84519" lon="6.74207">
        <ele>1926.1</ele>
        <time>2026-03-03T07:52:43.000Z</time>
      </trkpt>
      <trkpt lat="44.84518" lon="6.74207">
        <ele>1925.9</ele>
        <time>2026-03-03T07:52:44.000Z</time>
      </trkpt>
      <trkpt lat="44.84517" lon="6.74208">
        <ele>1926</ele>
        <time>2026-03-03T07:52:45.000Z</time>
      </trkpt>
      <trkpt lat="44.84517" lon="6.74208">
        <ele>1926</ele>
        <time>2026-03-03T07:52:46.000Z</time>
      </trkpt>
      <trkpt lat="44.84516" lon="6.74209">
        <ele>1926.1</ele>
        <time>2026-03-03T07:52:47.000Z</time>
      </trkpt>
      <trkpt lat="44.84516" lon="6.74209">
        <ele>1926.3</ele>
        <time>2026-03-03T07:52:48.000Z</time>
      </trkpt>
      <trkpt lat="44.84515" lon="6.74209">
        <ele>1926.3</ele>
        <time>2026-03-03T07:52:49.000Z</time>
      </trkpt>
      <trkpt lat="44.84514" lon="6.7421">
        <ele>1926.1</ele>
        <time>2026-03-03T07:52:50.000Z</time>
      </trkpt>
      <trkpt lat="44.84514" lon="6.7421">
        <ele>1926.2</ele>
        <time>2026-03-03T07:52:51.000Z</time>
      </trkpt>
      <trkpt lat="44.84513" lon="6.74211">
        <ele>1926.1</ele>
        <time>2026-03-03T07:52:52.000Z</time>
      </trkpt>
      <trkpt lat="44.84513" lon="6.74212">
        <ele>1926.2</ele>
        <time>2026-03-03T07:52:53.000Z</time>
      </trkpt>
      <trkpt lat="44.84512" lon="6.74213">
        <ele>1926.3</ele>
        <time>2026-03-03T07:52:54.000Z</time>
      </trkpt>
      <trkpt lat="44.84511" lon="6.74213">
        <ele>1926.3</ele>
        <time>2026-03-03T07:52:55.000Z</time>
      </trkpt>
      <trkpt lat="44.84511" lon="6.74213">
        <ele>1926.6</ele>
        <time>2026-03-03T07:52:56.000Z</time>
      </trkpt>
      <trkpt lat="44.8451" lon="6.74214">
        <ele>1926.7</ele>
        <time>2026-03-03T07:52:57.000Z</time>
      </trkpt>
      <trkpt lat="44.8451" lon="6.74214">
        <ele>1926.9</ele>
        <time>2026-03-03T07:52:58.000Z</time>
      </trkpt>
      <trkpt lat="44.8451" lon="6.74215">
        <ele>1927</ele>
        <time>2026-03-03T07:52:59.000Z</time>
      </trkpt>
      <trkpt lat="44.84509" lon="6.74216">
        <ele>1927.3</ele>
        <time>2026-03-03T07:53:00.000Z</time>
      </trkpt>
      <trkpt lat="44.84508" lon="6.74216">
        <ele>1927.7</ele>
        <time>2026-03-03T07:53:01.000Z</time>
      </trkpt>
      <trkpt lat="44.84508" lon="6.74217">
        <ele>1928</ele>
        <time>2026-03-03T07:53:02.000Z</time>
      </trkpt>
      <trkpt lat="44.84507" lon="6.74217">
        <ele>1928.4</ele>
        <time>2026-03-03T07:53:03.000Z</time>
      </trkpt>
      <trkpt lat="44.84507" lon="6.74217">
        <ele>1928.5</ele>
        <time>2026-03-03T07:53:04.000Z</time>
      </trkpt>
      <trkpt lat="44.84507" lon="6.74217">
        <ele>1928.6</ele>
        <time>2026-03-03T07:53:05.000Z</time>
      </trkpt>
      <trkpt lat="44.84506" lon="6.74218">
        <ele>1928.7</ele>
        <time>2026-03-03T07:53:06.000Z</time>
      </trkpt>
      <trkpt lat="44.84505" lon="6.74218">
        <ele>1928.7</ele>
        <time>2026-03-03T07:53:07.000Z</time>
      </trkpt>
      <trkpt lat="44.84504" lon="6.74219">
        <ele>1928.9</ele>
        <time>2026-03-03T07:53:08.000Z</time>
      </trkpt>
      <trkpt lat="44.84504" lon="6.74219">
        <ele>1929.3</ele>
        <time>2026-03-03T07:53:09.000Z</time>
      </trkpt>
      <trkpt lat="44.84503" lon="6.7422">
        <ele>1929.5</ele>
        <time>2026-03-03T07:53:10.000Z</time>
      </trkpt>
      <trkpt lat="44.84503" lon="6.7422">
        <ele>1929.9</ele>
        <time>2026-03-03T07:53:11.000Z</time>
      </trkpt>
      <trkpt lat="44.84503" lon="6.7422">
        <ele>1929.9</ele>
        <time>2026-03-03T07:53:12.000Z</time>
      </trkpt>
      <trkpt lat="44.84503" lon="6.7422">
        <ele>1930.2</ele>
        <time>2026-03-03T07:53:13.000Z</time>
      </trkpt>
      <trkpt lat="44.84503" lon="6.74221">
        <ele>1930.5</ele>
        <time>2026-03-03T07:53:14.000Z</time>
      </trkpt>
      <trkpt lat="44.84502" lon="6.74222">
        <ele>1930.3</ele>
        <time>2026-03-03T07:53:15.000Z</time>
      </trkpt>
      <trkpt lat="44.84501" lon="6.74223">
        <ele>1930.6</ele>
        <time>2026-03-03T07:53:16.000Z</time>
      </trkpt>
      <trkpt lat="44.84501" lon="6.74223">
        <ele>1930.8</ele>
        <time>2026-03-03T07:53:17.000Z</time>
      </trkpt>
      <trkpt lat="44.845" lon="6.74224">
        <ele>1931.2</ele>
        <time>2026-03-03T07:53:18.000Z</time>
      </trkpt>
      <trkpt lat="44.845" lon="6.74225">
        <ele>1931.5</ele>
        <time>2026-03-03T07:53:19.000Z</time>
      </trkpt>
      <trkpt lat="44.84498" lon="6.74226">
        <ele>1931.3</ele>
        <time>2026-03-03T07:53:20.000Z</time>
      </trkpt>
      <trkpt lat="44.84498" lon="6.74227">
        <ele>1931.5</ele>
        <time>2026-03-03T07:53:21.000Z</time>
      </trkpt>
      <trkpt lat="44.84496" lon="6.74229">
        <ele>1931.7</ele>
        <time>2026-03-03T07:53:22.000Z</time>
      </trkpt>
      <trkpt lat="44.84495" lon="6.7423">
        <ele>1931.6</ele>
        <time>2026-03-03T07:53:23.000Z</time>
      </trkpt>
      <trkpt lat="44.84494" lon="6.74231">
        <ele>1931.5</ele>
        <time>2026-03-03T07:53:24.000Z</time>
      </trkpt>
      <trkpt lat="44.84493" lon="6.74232">
        <ele>1931.4</ele>
        <time>2026-03-03T07:53:25.000Z</time>
      </trkpt>
      <trkpt lat="44.84493" lon="6.74232">
        <ele>1931.3</ele>
        <time>2026-03-03T07:53:26.000Z</time>
      </trkpt>
      <trkpt lat="44.84493" lon="6.74232">
        <ele>1930.9</ele>
        <time>2026-03-03T07:53:27.000Z</time>
      </trkpt>
      <trkpt lat="44.84493" lon="6.74232">
        <ele>1930.8</ele>
        <time>2026-03-03T07:53:28.000Z</time>
      </trkpt>
      <trkpt lat="44.84492" lon="6.74233">
        <ele>1930.7</ele>
        <time>2026-03-03T07:53:29.000Z</time>
      </trkpt>
      <trkpt lat="44.84491" lon="6.74234">
        <ele>1930.5</ele>
        <time>2026-03-03T07:53:30.000Z</time>
      </trkpt>
      <trkpt lat="44.8449" lon="6.74234">
        <ele>1930.6</ele>
        <time>2026-03-03T07:53:31.000Z</time>
      </trkpt>
      <trkpt lat="44.8449" lon="6.74235">
        <ele>1930.7</ele>
        <time>2026-03-03T07:53:32.000Z</time>
      </trkpt>
      <trkpt lat="44.84489" lon="6.74236">
        <ele>1930.8</ele>
        <time>2026-03-03T07:53:33.000Z</time>
      </trkpt>
      <trkpt lat="44.84489" lon="6.74237">
        <ele>1930.8</ele>
        <time>2026-03-03T07:53:34.000Z</time>
      </trkpt>
      <trkpt lat="44.84488" lon="6.74238">
        <ele>1931</ele>
        <time>2026-03-03T07:53:35.000Z</time>
      </trkpt>
      <trkpt lat="44.84487" lon="6.74239">
        <ele>1931.4</ele>
        <time>2026-03-03T07:53:36.000Z</time>
      </trkpt>
      <trkpt lat="44.84487" lon="6.74239">
        <ele>1931.7</ele>
        <time>2026-03-03T07:53:37.000Z</time>
      </trkpt>
      <trkpt lat="44.84486" lon="6.7424">
        <ele>1931.8</ele>
        <time>2026-03-03T07:53:38.000Z</time>
      </trkpt>
      <trkpt lat="44.84486" lon="6.74241">
        <ele>1932</ele>
        <time>2026-03-03T07:53:39.000Z</time>
      </trkpt>
      <trkpt lat="44.84485" lon="6.74241">
        <ele>1932.3</ele>
        <time>2026-03-03T07:53:40.000Z</time>
      </trkpt>
      <trkpt lat="44.84485" lon="6.74242">
        <ele>1932.4</ele>
        <time>2026-03-03T07:53:41.000Z</time>
      </trkpt>
      <trkpt lat="44.84484" lon="6.74243">
        <ele>1932.6</ele>
        <time>2026-03-03T07:53:42.000Z</time>
      </trkpt>
      <trkpt lat="44.84484" lon="6.74243">
        <ele>1932.7</ele>
        <time>2026-03-03T07:53:43.000Z</time>
      </trkpt>
      <trkpt lat="44.84483" lon="6.74244">
        <ele>1932.7</ele>
        <time>2026-03-03T07:53:44.000Z</time>
      </trkpt>
      <trkpt lat="44.84483" lon="6.74245">
        <ele>1932.8</ele>
        <time>2026-03-03T07:53:45.000Z</time>
      </trkpt>
      <trkpt lat="44.84483" lon="6.74246">
        <ele>1932.9</ele>
        <time>2026-03-03T07:53:46.000Z</time>
      </trkpt>
      <trkpt lat="44.84483" lon="6.74246">
        <ele>1933.2</ele>
        <time>2026-03-03T07:53:47.000Z</time>
      </trkpt>
      <trkpt lat="44.84482" lon="6.74246">
        <ele>1933.5</ele>
        <time>2026-03-03T07:53:48.000Z</time>
      </trkpt>
      <trkpt lat="44.84482" lon="6.74247">
        <ele>1933.9</ele>
        <time>2026-03-03T07:53:49.000Z</time>
      </trkpt>
      <trkpt lat="44.84481" lon="6.74247">
        <ele>1934</ele>
        <time>2026-03-03T07:53:50.000Z</time>
      </trkpt>
      <trkpt lat="44.84481" lon="6.74248">
        <ele>1934.1</ele>
        <time>2026-03-03T07:53:51.000Z</time>
      </trkpt>
      <trkpt lat="44.84481" lon="6.74249">
        <ele>1934.1</ele>
        <time>2026-03-03T07:53:52.000Z</time>
      </trkpt>
      <trkpt lat="44.8448" lon="6.7425">
        <ele>1934.1</ele>
        <time>2026-03-03T07:53:53.000Z</time>
      </trkpt>
      <trkpt lat="44.8448" lon="6.74252">
        <ele>1933.9</ele>
        <time>2026-03-03T07:53:54.000Z</time>
      </trkpt>
      <trkpt lat="44.8448" lon="6.74252">
        <ele>1934</ele>
        <time>2026-03-03T07:53:55.000Z</time>
      </trkpt>
      <trkpt lat="44.8448" lon="6.74252">
        <ele>1934.2</ele>
        <time>2026-03-03T07:53:56.000Z</time>
      </trkpt>
      <trkpt lat="44.84479" lon="6.74253">
        <ele>1934.4</ele>
        <time>2026-03-03T07:53:57.000Z</time>
      </trkpt>
      <trkpt lat="44.84479" lon="6.74253">
        <ele>1933.9</ele>
        <time>2026-03-03T07:53:58.000Z</time>
      </trkpt>
      <trkpt lat="44.84479" lon="6.74253">
        <ele>1933.8</ele>
        <time>2026-03-03T07:53:59.000Z</time>
      </trkpt>
      <trkpt lat="44.84478" lon="6.74254">
        <ele>1934</ele>
        <time>2026-03-03T07:54:00.000Z</time>
      </trkpt>
      <trkpt lat="44.84478" lon="6.74254">
        <ele>1934.2</ele>
        <time>2026-03-03T07:54:01.000Z</time>
      </trkpt>
      <trkpt lat="44.84477" lon="6.74256">
        <ele>1934.3</ele>
        <time>2026-03-03T07:54:02.000Z</time>
      </trkpt>
      <trkpt lat="44.84476" lon="6.74258">
        <ele>1934.4</ele>
        <time>2026-03-03T07:54:03.000Z</time>
      </trkpt>
      <trkpt lat="44.84475" lon="6.74258">
        <ele>1934.6</ele>
        <time>2026-03-03T07:54:04.000Z</time>
      </trkpt>
      <trkpt lat="44.84475" lon="6.74259">
        <ele>1934.9</ele>
        <time>2026-03-03T07:54:05.000Z</time>
      </trkpt>
      <trkpt lat="44.84475" lon="6.7426">
        <ele>1934.8</ele>
        <time>2026-03-03T07:54:06.000Z</time>
      </trkpt>
      <trkpt lat="44.84474" lon="6.7426">
        <ele>1934.8</ele>
        <time>2026-03-03T07:54:07.000Z</time>
      </trkpt>
      <trkpt lat="44.84474" lon="6.74261">
        <ele>1934.7</ele>
        <time>2026-03-03T07:54:08.000Z</time>
      </trkpt>
      <trkpt lat="44.84473" lon="6.74262">
        <ele>1934.7</ele>
        <time>2026-03-03T07:54:09.000Z</time>
      </trkpt>
      <trkpt lat="44.84473" lon="6.74263">
        <ele>1934.8</ele>
        <time>2026-03-03T07:54:10.000Z</time>
      </trkpt>
      <trkpt lat="44.84472" lon="6.74264">
        <ele>1935.3</ele>
        <time>2026-03-03T07:54:11.999Z</time>
      </trkpt>
      <trkpt lat="44.84472" lon="6.74265">
        <ele>1935.4</ele>
        <time>2026-03-03T07:54:12.999Z</time>
      </trkpt>
      <trkpt lat="44.84471" lon="6.74266">
        <ele>1935.8</ele>
        <time>2026-03-03T07:54:13.999Z</time>
      </trkpt>
      <trkpt lat="44.84471" lon="6.74266">
        <ele>1936.1</ele>
        <time>2026-03-03T07:54:14.999Z</time>
      </trkpt>
      <trkpt lat="44.8447" lon="6.74266">
        <ele>1936.4</ele>
        <time>2026-03-03T07:54:15.999Z</time>
      </trkpt>
      <trkpt lat="44.84469" lon="6.74267">
        <ele>1936.5</ele>
        <time>2026-03-03T07:54:16.999Z</time>
      </trkpt>
      <trkpt lat="44.84469" lon="6.74268">
        <ele>1936.5</ele>
        <time>2026-03-03T07:54:17.999Z</time>
      </trkpt>
      <trkpt lat="44.84468" lon="6.74268">
        <ele>1936.6</ele>
        <time>2026-03-03T07:54:18.999Z</time>
      </trkpt>
      <trkpt lat="44.84468" lon="6.74269">
        <ele>1936.8</ele>
        <time>2026-03-03T07:54:19.999Z</time>
      </trkpt>
      <trkpt lat="44.84467" lon="6.74269">
        <ele>1937</ele>
        <time>2026-03-03T07:54:20.999Z</time>
      </trkpt>
      <trkpt lat="44.84466" lon="6.74269">
        <ele>1937</ele>
        <time>2026-03-03T07:54:21.999Z</time>
      </trkpt>
      <trkpt lat="44.84466" lon="6.7427">
        <ele>1937.2</ele>
        <time>2026-03-03T07:54:22.999Z</time>
      </trkpt>
      <trkpt lat="44.84465" lon="6.7427">
        <ele>1937.4</ele>
        <time>2026-03-03T07:54:23.999Z</time>
      </trkpt>
      <trkpt lat="44.84464" lon="6.74271">
        <ele>1937.4</ele>
        <time>2026-03-03T07:54:24.999Z</time>
      </trkpt>
      <trkpt lat="44.84463" lon="6.74273">
        <ele>1937.2</ele>
        <time>2026-03-03T07:54:25.999Z</time>
      </trkpt>
      <trkpt lat="44.84463" lon="6.74273">
        <ele>1937.6</ele>
        <time>2026-03-03T07:54:26.999Z</time>
      </trkpt>
      <trkpt lat="44.84462" lon="6.74274">
        <ele>1937.9</ele>
        <time>2026-03-03T07:54:27.999Z</time>
      </trkpt>
      <trkpt lat="44.84461" lon="6.74275">
        <ele>1938.2</ele>
        <time>2026-03-03T07:54:28.999Z</time>
      </trkpt>
      <trkpt lat="44.8446" lon="6.74275">
        <ele>1938.3</ele>
        <time>2026-03-03T07:54:29.999Z</time>
      </trkpt>
      <trkpt lat="44.84459" lon="6.74275">
        <ele>1938.3</ele>
        <time>2026-03-03T07:54:30.999Z</time>
      </trkpt>
      <trkpt lat="44.84459" lon="6.74276">
        <ele>1938.2</ele>
        <time>2026-03-03T07:54:31.999Z</time>
      </trkpt>
      <trkpt lat="44.84459" lon="6.74276">
        <ele>1938.4</ele>
        <time>2026-03-03T07:54:32.999Z</time>
      </trkpt>
      <trkpt lat="44.84459" lon="6.74276">
        <ele>1938.3</ele>
        <time>2026-03-03T07:54:33.999Z</time>
      </trkpt>
      <trkpt lat="44.84459" lon="6.74277">
        <ele>1938.4</ele>
        <time>2026-03-03T07:54:34.999Z</time>
      </trkpt>
      <trkpt lat="44.84459" lon="6.74277">
        <ele>1938.6</ele>
        <time>2026-03-03T07:54:35.999Z</time>
      </trkpt>
      <trkpt lat="44.84458" lon="6.74277">
        <ele>1938.7</ele>
        <time>2026-03-03T07:54:36.999Z</time>
      </trkpt>
      <trkpt lat="44.84458" lon="6.74277">
        <ele>1938.8</ele>
        <time>2026-03-03T07:54:37.999Z</time>
      </trkpt>
      <trkpt lat="44.84457" lon="6.74277">
        <ele>1939</ele>
        <time>2026-03-03T07:54:38.999Z</time>
      </trkpt>
      <trkpt lat="44.84457" lon="6.74277">
        <ele>1939.3</ele>
        <time>2026-03-03T07:54:39.999Z</time>
      </trkpt>
      <trkpt lat="44.84456" lon="6.74277">
        <ele>1939.2</ele>
        <time>2026-03-03T07:54:40.999Z</time>
      </trkpt>
      <trkpt lat="44.84456" lon="6.74277">
        <ele>1939.3</ele>
        <time>2026-03-03T07:54:41.999Z</time>
      </trkpt>
      <trkpt lat="44.84456" lon="6.74277">
        <ele>1939.4</ele>
        <time>2026-03-03T07:54:42.999Z</time>
      </trkpt>
      <trkpt lat="44.84455" lon="6.74278">
        <ele>1939.4</ele>
        <time>2026-03-03T07:54:43.999Z</time>
      </trkpt>
      <trkpt lat="44.84454" lon="6.74278">
        <ele>1939.5</ele>
        <time>2026-03-03T07:54:44.999Z</time>
      </trkpt>
      <trkpt lat="44.84453" lon="6.74279">
        <ele>1939.6</ele>
        <time>2026-03-03T07:54:45.999Z</time>
      </trkpt>
      <trkpt lat="44.84452" lon="6.74279">
        <ele>1939.7</ele>
        <time>2026-03-03T07:54:46.999Z</time>
      </trkpt>
      <trkpt lat="44.84451" lon="6.74279">
        <ele>1939.6</ele>
        <time>2026-03-03T07:54:47.999Z</time>
      </trkpt>
      <trkpt lat="44.84449" lon="6.7428">
        <ele>1939.5</ele>
        <time>2026-03-03T07:54:48.999Z</time>
      </trkpt>
      <trkpt lat="44.84448" lon="6.7428">
        <ele>1939.5</ele>
        <time>2026-03-03T07:54:49.999Z</time>
      </trkpt>
      <trkpt lat="44.84447" lon="6.74281">
        <ele>1939.4</ele>
        <time>2026-03-03T07:54:50.999Z</time>
      </trkpt>
      <trkpt lat="44.84446" lon="6.74282">
        <ele>1939.5</ele>
        <time>2026-03-03T07:54:51.999Z</time>
      </trkpt>
      <trkpt lat="44.84444" lon="6.74282">
        <ele>1939.6</ele>
        <time>2026-03-03T07:54:52.999Z</time>
      </trkpt>
      <trkpt lat="44.84443" lon="6.74282">
        <ele>1939.6</ele>
        <time>2026-03-03T07:54:53.999Z</time>
      </trkpt>
      <trkpt lat="44.84442" lon="6.74283">
        <ele>1939.7</ele>
        <time>2026-03-03T07:54:54.999Z</time>
      </trkpt>
      <trkpt lat="44.84441" lon="6.74283">
        <ele>1940.1</ele>
        <time>2026-03-03T07:54:55.999Z</time>
      </trkpt>
      <trkpt lat="44.8444" lon="6.74283">
        <ele>1940.1</ele>
        <time>2026-03-03T07:54:56.999Z</time>
      </trkpt>
      <trkpt lat="44.84439" lon="6.74283">
        <ele>1940.3</ele>
        <time>2026-03-03T07:54:57.999Z</time>
      </trkpt>
      <trkpt lat="44.84439" lon="6.74283">
        <ele>1940.2</ele>
        <time>2026-03-03T07:54:58.999Z</time>
      </trkpt>
      <trkpt lat="44.84437" lon="6.74283">
        <ele>1940.3</ele>
        <time>2026-03-03T07:54:59.999Z</time>
      </trkpt>
      <trkpt lat="44.84437" lon="6.74283">
        <ele>1940.3</ele>
        <time>2026-03-03T07:55:00.999Z</time>
      </trkpt>
      <trkpt lat="44.84436" lon="6.74283">
        <ele>1940.2</ele>
        <time>2026-03-03T07:55:01.999Z</time>
      </trkpt>
      <trkpt lat="44.84436" lon="6.74283">
        <ele>1939.8</ele>
        <time>2026-03-03T07:55:02.999Z</time>
      </trkpt>
      <trkpt lat="44.84435" lon="6.74283">
        <ele>1939.5</ele>
        <time>2026-03-03T07:55:03.999Z</time>
      </trkpt>
      <trkpt lat="44.84434" lon="6.74283">
        <ele>1939.3</ele>
        <time>2026-03-03T07:55:04.999Z</time>
      </trkpt>
      <trkpt lat="44.84434" lon="6.74284">
        <ele>1939.1</ele>
        <time>2026-03-03T07:55:05.999Z</time>
      </trkpt>
      <trkpt lat="44.84433" lon="6.74285">
        <ele>1938.8</ele>
        <time>2026-03-03T07:55:06.999Z</time>
      </trkpt>
      <trkpt lat="44.84432" lon="6.74285">
        <ele>1938.9</ele>
        <time>2026-03-03T07:55:07.999Z</time>
      </trkpt>
      <trkpt lat="44.84432" lon="6.74286">
        <ele>1939.1</ele>
        <time>2026-03-03T07:55:08.999Z</time>
      </trkpt>
      <trkpt lat="44.84431" lon="6.74287">
        <ele>1939</ele>
        <time>2026-03-03T07:55:09.999Z</time>
      </trkpt>
      <trkpt lat="44.8443" lon="6.74287">
        <ele>1938.9</ele>
        <time>2026-03-03T07:55:10.999Z</time>
      </trkpt>
      <trkpt lat="44.84429" lon="6.74287">
        <ele>1938.8</ele>
        <time>2026-03-03T07:55:11.999Z</time>
      </trkpt>
      <trkpt lat="44.84428" lon="6.74288">
        <ele>1938.9</ele>
        <time>2026-03-03T07:55:12.999Z</time>
      </trkpt>
      <trkpt lat="44.84427" lon="6.74288">
        <ele>1939</ele>
        <time>2026-03-03T07:55:13.999Z</time>
      </trkpt>
      <trkpt lat="44.84426" lon="6.74289">
        <ele>1939.3</ele>
        <time>2026-03-03T07:55:14.999Z</time>
      </trkpt>
      <trkpt lat="44.84426" lon="6.7429">
        <ele>1939.3</ele>
        <time>2026-03-03T07:55:15.999Z</time>
      </trkpt>
      <trkpt lat="44.84425" lon="6.7429">
        <ele>1939.2</ele>
        <time>2026-03-03T07:55:16.999Z</time>
      </trkpt>
      <trkpt lat="44.84425" lon="6.74291">
        <ele>1939.3</ele>
        <time>2026-03-03T07:55:17.999Z</time>
      </trkpt>
      <trkpt lat="44.84424" lon="6.74291">
        <ele>1939.5</ele>
        <time>2026-03-03T07:55:18.999Z</time>
      </trkpt>
      <trkpt lat="44.84424" lon="6.74292">
        <ele>1939.7</ele>
        <time>2026-03-03T07:55:19.999Z</time>
      </trkpt>
      <trkpt lat="44.84423" lon="6.74293">
        <ele>1939.8</ele>
        <time>2026-03-03T07:55:20.999Z</time>
      </trkpt>
      <trkpt lat="44.84423" lon="6.74294">
        <ele>1939.9</ele>
        <time>2026-03-03T07:55:21.999Z</time>
      </trkpt>
      <trkpt lat="44.84422" lon="6.74294">
        <ele>1939.8</ele>
        <time>2026-03-03T07:55:22.999Z</time>
      </trkpt>
      <trkpt lat="44.84421" lon="6.74294">
        <ele>1939.8</ele>
        <time>2026-03-03T07:55:23.999Z</time>
      </trkpt>
      <trkpt lat="44.8442" lon="6.74294">
        <ele>1939.8</ele>
        <time>2026-03-03T07:55:24.999Z</time>
      </trkpt>
      <trkpt lat="44.8442" lon="6.74295">
        <ele>1939.8</ele>
        <time>2026-03-03T07:55:25.999Z</time>
      </trkpt>
      <trkpt lat="44.84419" lon="6.74296">
        <ele>1940</ele>
        <time>2026-03-03T07:55:26.999Z</time>
      </trkpt>
      <trkpt lat="44.84418" lon="6.74296">
        <ele>1940.1</ele>
        <time>2026-03-03T07:55:27.999Z</time>
      </trkpt>
      <trkpt lat="44.84418" lon="6.74297">
        <ele>1940.1</ele>
        <time>2026-03-03T07:55:28.999Z</time>
      </trkpt>
      <trkpt lat="44.84417" lon="6.74297">
        <ele>1940.2</ele>
        <time>2026-03-03T07:55:29.999Z</time>
      </trkpt>
      <trkpt lat="44.84416" lon="6.74297">
        <ele>1940.5</ele>
        <time>2026-03-03T07:55:30.999Z</time>
      </trkpt>
      <trkpt lat="44.84416" lon="6.74297">
        <ele>1940.7</ele>
        <time>2026-03-03T07:55:31.999Z</time>
      </trkpt>
      <trkpt lat="44.84416" lon="6.74298">
        <ele>1941</ele>
        <time>2026-03-03T07:55:32.999Z</time>
      </trkpt>
      <trkpt lat="44.84415" lon="6.74298">
        <ele>1941.1</ele>
        <time>2026-03-03T07:55:33.999Z</time>
      </trkpt>
      <trkpt lat="44.84415" lon="6.74298">
        <ele>1941.3</ele>
        <time>2026-03-03T07:55:34.999Z</time>
      </trkpt>
      <trkpt lat="44.84414" lon="6.74299">
        <ele>1941.3</ele>
        <time>2026-03-03T07:55:35.999Z</time>
      </trkpt>
      <trkpt lat="44.84414" lon="6.743">
        <ele>1941.3</ele>
        <time>2026-03-03T07:55:36.999Z</time>
      </trkpt>
      <trkpt lat="44.84413" lon="6.74301">
        <ele>1941.3</ele>
        <time>2026-03-03T07:55:37.999Z</time>
      </trkpt>
      <trkpt lat="44.84413" lon="6.74302">
        <ele>1941.3</ele>
        <time>2026-03-03T07:55:38.999Z</time>
      </trkpt>
      <trkpt lat="44.84411" lon="6.74303">
        <ele>1941.7</ele>
        <time>2026-03-03T07:55:39.999Z</time>
      </trkpt>
      <trkpt lat="44.84411" lon="6.74303">
        <ele>1941.8</ele>
        <time>2026-03-03T07:55:40.999Z</time>
      </trkpt>
      <trkpt lat="44.8441" lon="6.74303">
        <ele>1942.1</ele>
        <time>2026-03-03T07:55:41.999Z</time>
      </trkpt>
      <trkpt lat="44.8441" lon="6.74304">
        <ele>1942.4</ele>
        <time>2026-03-03T07:55:42.999Z</time>
      </trkpt>
      <trkpt lat="44.84409" lon="6.74304">
        <ele>1942.8</ele>
        <time>2026-03-03T07:55:43.999Z</time>
      </trkpt>
      <trkpt lat="44.84409" lon="6.74304">
        <ele>1942.9</ele>
        <time>2026-03-03T07:55:44.999Z</time>
      </trkpt>
      <trkpt lat="44.84408" lon="6.74305">
        <ele>1942.7</ele>
        <time>2026-03-03T07:55:45.999Z</time>
      </trkpt>
      <trkpt lat="44.84407" lon="6.74305">
        <ele>1942.8</ele>
        <time>2026-03-03T07:55:46.999Z</time>
      </trkpt>
      <trkpt lat="44.84407" lon="6.74306">
        <ele>1942.9</ele>
        <time>2026-03-03T07:55:47.999Z</time>
      </trkpt>
      <trkpt lat="44.84407" lon="6.74306">
        <ele>1943.3</ele>
        <time>2026-03-03T07:55:48.999Z</time>
      </trkpt>
      <trkpt lat="44.84407" lon="6.74307">
        <ele>1943.4</ele>
        <time>2026-03-03T07:55:49.999Z</time>
      </trkpt>
      <trkpt lat="44.84406" lon="6.74307">
        <ele>1943.4</ele>
        <time>2026-03-03T07:55:50.999Z</time>
      </trkpt>
      <trkpt lat="44.84406" lon="6.74308">
        <ele>1943.6</ele>
        <time>2026-03-03T07:55:51.999Z</time>
      </trkpt>
      <trkpt lat="44.84405" lon="6.74309">
        <ele>1943.7</ele>
        <time>2026-03-03T07:55:52.999Z</time>
      </trkpt>
      <trkpt lat="44.84405" lon="6.7431">
        <ele>1943.8</ele>
        <time>2026-03-03T07:55:53.999Z</time>
      </trkpt>
      <trkpt lat="44.84405" lon="6.74311">
        <ele>1943.9</ele>
        <time>2026-03-03T07:55:54.999Z</time>
      </trkpt>
      <trkpt lat="44.84404" lon="6.74312">
        <ele>1944</ele>
        <time>2026-03-03T07:55:55.999Z</time>
      </trkpt>
      <trkpt lat="44.84404" lon="6.74312">
        <ele>1944.2</ele>
        <time>2026-03-03T07:55:56.999Z</time>
      </trkpt>
      <trkpt lat="44.84403" lon="6.74312">
        <ele>1944.3</ele>
        <time>2026-03-03T07:55:57.999Z</time>
      </trkpt>
      <trkpt lat="44.84402" lon="6.74312">
        <ele>1944.5</ele>
        <time>2026-03-03T07:55:58.999Z</time>
      </trkpt>
      <trkpt lat="44.84401" lon="6.74312">
        <ele>1944.6</ele>
        <time>2026-03-03T07:55:59.999Z</time>
      </trkpt>
      <trkpt lat="44.844" lon="6.74313">
        <ele>1944.8</ele>
        <time>2026-03-03T07:56:00.999Z</time>
      </trkpt>
      <trkpt lat="44.84399" lon="6.74314">
        <ele>1944.7</ele>
        <time>2026-03-03T07:56:01.999Z</time>
      </trkpt>
      <trkpt lat="44.84399" lon="6.74315">
        <ele>1944.8</ele>
        <time>2026-03-03T07:56:02.999Z</time>
      </trkpt>
      <trkpt lat="44.84398" lon="6.74316">
        <ele>1944.9</ele>
        <time>2026-03-03T07:56:03.999Z</time>
      </trkpt>
      <trkpt lat="44.84398" lon="6.74316">
        <ele>1945.1</ele>
        <time>2026-03-03T07:56:04.999Z</time>
      </trkpt>
      <trkpt lat="44.84397" lon="6.74316">
        <ele>1945.5</ele>
        <time>2026-03-03T07:56:05.999Z</time>
      </trkpt>
      <trkpt lat="44.84397" lon="6.74317">
        <ele>1945.8</ele>
        <time>2026-03-03T07:56:06.999Z</time>
      </trkpt>
      <trkpt lat="44.84397" lon="6.74317">
        <ele>1946.3</ele>
        <time>2026-03-03T07:56:07.999Z</time>
      </trkpt>
      <trkpt lat="44.84396" lon="6.74318">
        <ele>1946.5</ele>
        <time>2026-03-03T07:56:08.999Z</time>
      </trkpt>
      <trkpt lat="44.84395" lon="6.74319">
        <ele>1946.9</ele>
        <time>2026-03-03T07:56:09.999Z</time>
      </trkpt>
      <trkpt lat="44.84394" lon="6.7432">
        <ele>1947.2</ele>
        <time>2026-03-03T07:56:10.999Z</time>
      </trkpt>
      <trkpt lat="44.84393" lon="6.74321">
        <ele>1947.2</ele>
        <time>2026-03-03T07:56:11.999Z</time>
      </trkpt>
      <trkpt lat="44.84392" lon="6.74321">
        <ele>1947.3</ele>
        <time>2026-03-03T07:56:12.999Z</time>
      </trkpt>
      <trkpt lat="44.84392" lon="6.74322">
        <ele>1947</ele>
        <time>2026-03-03T07:56:13.999Z</time>
      </trkpt>
      <trkpt lat="44.84392" lon="6.74322">
        <ele>1947</ele>
        <time>2026-03-03T07:56:14.999Z</time>
      </trkpt>
      <trkpt lat="44.84391" lon="6.74322">
        <ele>1946.7</ele>
        <time>2026-03-03T07:56:15.999Z</time>
      </trkpt>
      <trkpt lat="44.8439" lon="6.74322">
        <ele>1946.9</ele>
        <time>2026-03-03T07:56:16.999Z</time>
      </trkpt>
      <trkpt lat="44.8439" lon="6.74323">
        <ele>1947.2</ele>
        <time>2026-03-03T07:56:17.999Z</time>
      </trkpt>
      <trkpt lat="44.84389" lon="6.74323">
        <ele>1947.4</ele>
        <time>2026-03-03T07:56:18.999Z</time>
      </trkpt>
      <trkpt lat="44.84389" lon="6.74324">
        <ele>1947.4</ele>
        <time>2026-03-03T07:56:19.999Z</time>
      </trkpt>
      <trkpt lat="44.84388" lon="6.74325">
        <ele>1947.7</ele>
        <time>2026-03-03T07:56:20.999Z</time>
      </trkpt>
      <trkpt lat="44.84387" lon="6.74325">
        <ele>1947.9</ele>
        <time>2026-03-03T07:56:21.999Z</time>
      </trkpt>
      <trkpt lat="44.84386" lon="6.74326">
        <ele>1948.2</ele>
        <time>2026-03-03T07:56:22.999Z</time>
      </trkpt>
      <trkpt lat="44.84386" lon="6.74327">
        <ele>1948.4</ele>
        <time>2026-03-03T07:56:23.999Z</time>
      </trkpt>
      <trkpt lat="44.84385" lon="6.74327">
        <ele>1948.9</ele>
        <time>2026-03-03T07:56:24.999Z</time>
      </trkpt>
      <trkpt lat="44.84384" lon="6.74328">
        <ele>1949.2</ele>
        <time>2026-03-03T07:56:25.999Z</time>
      </trkpt>
      <trkpt lat="44.84384" lon="6.74328">
        <ele>1949.4</ele>
        <time>2026-03-03T07:56:26.999Z</time>
      </trkpt>
      <trkpt lat="44.84384" lon="6.74329">
        <ele>1949.6</ele>
        <time>2026-03-03T07:56:27.999Z</time>
      </trkpt>
      <trkpt lat="44.84383" lon="6.74329">
        <ele>1949.9</ele>
        <time>2026-03-03T07:56:28.999Z</time>
      </trkpt>
      <trkpt lat="44.84383" lon="6.7433">
        <ele>1950.1</ele>
        <time>2026-03-03T07:56:29.999Z</time>
      </trkpt>
      <trkpt lat="44.84382" lon="6.7433">
        <ele>1950.3</ele>
        <time>2026-03-03T07:56:30.999Z</time>
      </trkpt>
      <trkpt lat="44.84381" lon="6.74331">
        <ele>1950.5</ele>
        <time>2026-03-03T07:56:31.999Z</time>
      </trkpt>
      <trkpt lat="44.8438" lon="6.74332">
        <ele>1950.8</ele>
        <time>2026-03-03T07:56:32.999Z</time>
      </trkpt>
      <trkpt lat="44.8438" lon="6.74333">
        <ele>1950.7</ele>
        <time>2026-03-03T07:56:33.999Z</time>
      </trkpt>
      <trkpt lat="44.84379" lon="6.74334">
        <ele>1950.9</ele>
        <time>2026-03-03T07:56:34.999Z</time>
      </trkpt>
      <trkpt lat="44.84379" lon="6.74334">
        <ele>1950.9</ele>
        <time>2026-03-03T07:56:35.999Z</time>
      </trkpt>
      <trkpt lat="44.84378" lon="6.74334">
        <ele>1951.2</ele>
        <time>2026-03-03T07:56:36.999Z</time>
      </trkpt>
      <trkpt lat="44.84378" lon="6.74335">
        <ele>1951.3</ele>
        <time>2026-03-03T07:56:37.999Z</time>
      </trkpt>
      <trkpt lat="44.84377" lon="6.74335">
        <ele>1951.6</ele>
        <time>2026-03-03T07:56:38.999Z</time>
      </trkpt>
      <trkpt lat="44.84377" lon="6.74336">
        <ele>1951.6</ele>
        <time>2026-03-03T07:56:39.999Z</time>
      </trkpt>
      <trkpt lat="44.84376" lon="6.74336">
        <ele>1951.5</ele>
        <time>2026-03-03T07:56:40.999Z</time>
      </trkpt>
      <trkpt lat="44.84376" lon="6.74337">
        <ele>1951.5</ele>
        <time>2026-03-03T07:56:41.999Z</time>
      </trkpt>
      <trkpt lat="44.84376" lon="6.74337">
        <ele>1951.4</ele>
        <time>2026-03-03T07:56:42.999Z</time>
      </trkpt>
      <trkpt lat="44.84375" lon="6.74337">
        <ele>1951.7</ele>
        <time>2026-03-03T07:56:43.999Z</time>
      </trkpt>
      <trkpt lat="44.84375" lon="6.74338">
        <ele>1951.9</ele>
        <time>2026-03-03T07:56:44.999Z</time>
      </trkpt>
      <trkpt lat="44.84374" lon="6.74339">
        <ele>1952.4</ele>
        <time>2026-03-03T07:56:45.999Z</time>
      </trkpt>
      <trkpt lat="44.84374" lon="6.7434">
        <ele>1952.9</ele>
        <time>2026-03-03T07:56:46.999Z</time>
      </trkpt>
      <trkpt lat="44.84374" lon="6.7434">
        <ele>1953.3</ele>
        <time>2026-03-03T07:56:47.999Z</time>
      </trkpt>
      <trkpt lat="44.84372" lon="6.74342">
        <ele>1953.3</ele>
        <time>2026-03-03T07:56:48.999Z</time>
      </trkpt>
      <trkpt lat="44.84372" lon="6.74343">
        <ele>1953.1</ele>
        <time>2026-03-03T07:56:49.999Z</time>
      </trkpt>
      <trkpt lat="44.84371" lon="6.74343">
        <ele>1952.9</ele>
        <time>2026-03-03T07:56:50.999Z</time>
      </trkpt>
      <trkpt lat="44.8437" lon="6.74344">
        <ele>1952.8</ele>
        <time>2026-03-03T07:56:51.999Z</time>
      </trkpt>
      <trkpt lat="44.84369" lon="6.74345">
        <ele>1952.8</ele>
        <time>2026-03-03T07:56:52.999Z</time>
      </trkpt>
      <trkpt lat="44.84368" lon="6.74346">
        <ele>1952.8</ele>
        <time>2026-03-03T07:56:53.999Z</time>
      </trkpt>
      <trkpt lat="44.84367" lon="6.74347">
        <ele>1952.8</ele>
        <time>2026-03-03T07:56:54.999Z</time>
      </trkpt>
      <trkpt lat="44.84366" lon="6.74347">
        <ele>1952.8</ele>
        <time>2026-03-03T07:56:55.999Z</time>
      </trkpt>
      <trkpt lat="44.84366" lon="6.74348">
        <ele>1952.8</ele>
        <time>2026-03-03T07:56:56.999Z</time>
      </trkpt>
      <trkpt lat="44.84366" lon="6.74349">
        <ele>1952.7</ele>
        <time>2026-03-03T07:56:57.999Z</time>
      </trkpt>
      <trkpt lat="44.84365" lon="6.7435">
        <ele>1952.7</ele>
        <time>2026-03-03T07:56:58.999Z</time>
      </trkpt>
      <trkpt lat="44.84365" lon="6.7435">
        <ele>1952.8</ele>
        <time>2026-03-03T07:56:59.999Z</time>
      </trkpt>
      <trkpt lat="44.84364" lon="6.74351">
        <ele>1953.1</ele>
        <time>2026-03-03T07:57:00.999Z</time>
      </trkpt>
      <trkpt lat="44.84364" lon="6.74351">
        <ele>1953.3</ele>
        <time>2026-03-03T07:57:01.999Z</time>
      </trkpt>
      <trkpt lat="44.84364" lon="6.74351">
        <ele>1953.6</ele>
        <time>2026-03-03T07:57:02.999Z</time>
      </trkpt>
      <trkpt lat="44.84363" lon="6.74352">
        <ele>1953.6</ele>
        <time>2026-03-03T07:57:03.999Z</time>
      </trkpt>
      <trkpt lat="44.84363" lon="6.74353">
        <ele>1953.6</ele>
        <time>2026-03-03T07:57:04.999Z</time>
      </trkpt>
      <trkpt lat="44.84362" lon="6.74354">
        <ele>1953.7</ele>
        <time>2026-03-03T07:57:05.999Z</time>
      </trkpt>
      <trkpt lat="44.84362" lon="6.74355">
        <ele>1953.7</ele>
        <time>2026-03-03T07:57:06.999Z</time>
      </trkpt>
      <trkpt lat="44.84362" lon="6.74356">
        <ele>1953.8</ele>
        <time>2026-03-03T07:57:07.999Z</time>
      </trkpt>
      <trkpt lat="44.84361" lon="6.74355">
        <ele>1954.2</ele>
        <time>2026-03-03T07:57:08.999Z</time>
      </trkpt>
      <trkpt lat="44.84361" lon="6.74355">
        <ele>1954.7</ele>
        <time>2026-03-03T07:57:09.999Z</time>
      </trkpt>
      <trkpt lat="44.84361" lon="6.74356">
        <ele>1955.1</ele>
        <time>2026-03-03T07:57:10.999Z</time>
      </trkpt>
      <trkpt lat="44.8436" lon="6.74356">
        <ele>1954.9</ele>
        <time>2026-03-03T07:57:11.999Z</time>
      </trkpt>
      <trkpt lat="44.84361" lon="6.74356">
        <ele>1955.2</ele>
        <time>2026-03-03T07:57:12.999Z</time>
      </trkpt>
      <trkpt lat="44.8436" lon="6.74356">
        <ele>1955.4</ele>
        <time>2026-03-03T07:57:13.999Z</time>
      </trkpt>
      <trkpt lat="44.8436" lon="6.74357">
        <ele>1955.8</ele>
        <time>2026-03-03T07:57:14.999Z</time>
      </trkpt>
      <trkpt lat="44.84359" lon="6.74357">
        <ele>1956</ele>
        <time>2026-03-03T07:57:15.999Z</time>
      </trkpt>
      <trkpt lat="44.84359" lon="6.74358">
        <ele>1956.3</ele>
        <time>2026-03-03T07:57:16.999Z</time>
      </trkpt>
      <trkpt lat="44.84358" lon="6.74359">
        <ele>1956.6</ele>
        <time>2026-03-03T07:57:17.999Z</time>
      </trkpt>
      <trkpt lat="44.84357" lon="6.7436">
        <ele>1956.8</ele>
        <time>2026-03-03T07:57:18.999Z</time>
      </trkpt>
      <trkpt lat="44.84357" lon="6.7436">
        <ele>1957</ele>
        <time>2026-03-03T07:57:19.999Z</time>
      </trkpt>
      <trkpt lat="44.84356" lon="6.74361">
        <ele>1957.2</ele>
        <time>2026-03-03T07:57:20.999Z</time>
      </trkpt>
      <trkpt lat="44.84356" lon="6.74361">
        <ele>1957.7</ele>
        <time>2026-03-03T07:57:21.999Z</time>
      </trkpt>
      <trkpt lat="44.84356" lon="6.74362">
        <ele>1958.4</ele>
        <time>2026-03-03T07:57:22.999Z</time>
      </trkpt>
      <trkpt lat="44.84355" lon="6.74363">
        <ele>1958.9</ele>
        <time>2026-03-03T07:57:23.999Z</time>
      </trkpt>
      <trkpt lat="44.84354" lon="6.74363">
        <ele>1959.4</ele>
        <time>2026-03-03T07:57:24.999Z</time>
      </trkpt>
      <trkpt lat="44.84354" lon="6.74364">
        <ele>1959.7</ele>
        <time>2026-03-03T07:57:25.999Z</time>
      </trkpt>
      <trkpt lat="44.84354" lon="6.74364">
        <ele>1960</ele>
        <time>2026-03-03T07:57:26.999Z</time>
      </trkpt>
      <trkpt lat="44.84354" lon="6.74365">
        <ele>1959.9</ele>
        <time>2026-03-03T07:57:27.999Z</time>
      </trkpt>
      <trkpt lat="44.84354" lon="6.74364">
        <ele>1960.2</ele>
        <time>2026-03-03T07:57:28.999Z</time>
      </trkpt>
      <trkpt lat="44.84354" lon="6.74365">
        <ele>1960.3</ele>
        <time>2026-03-03T07:57:29.999Z</time>
      </trkpt>
      <trkpt lat="44.84354" lon="6.74366">
        <ele>1960.6</ele>
        <time>2026-03-03T07:57:30.999Z</time>
      </trkpt>
      <trkpt lat="44.84353" lon="6.74366">
        <ele>1961</ele>
        <time>2026-03-03T07:57:31.999Z</time>
      </trkpt>
      <trkpt lat="44.84353" lon="6.74367">
        <ele>1961.3</ele>
        <time>2026-03-03T07:57:32.999Z</time>
      </trkpt>
      <trkpt lat="44.84352" lon="6.74368">
        <ele>1961.5</ele>
        <time>2026-03-03T07:57:33.999Z</time>
      </trkpt>
      <trkpt lat="44.84352" lon="6.74368">
        <ele>1961.6</ele>
        <time>2026-03-03T07:57:34.999Z</time>
      </trkpt>
      <trkpt lat="44.84351" lon="6.74369">
        <ele>1961.6</ele>
        <time>2026-03-03T07:57:35.999Z</time>
      </trkpt>
      <trkpt lat="44.8435" lon="6.7437">
        <ele>1961.7</ele>
        <time>2026-03-03T07:57:36.999Z</time>
      </trkpt>
      <trkpt lat="44.84349" lon="6.74371">
        <ele>1961.9</ele>
        <time>2026-03-03T07:57:37.999Z</time>
      </trkpt>
      <trkpt lat="44.84349" lon="6.74371">
        <ele>1962.2</ele>
        <time>2026-03-03T07:57:38.999Z</time>
      </trkpt>
      <trkpt lat="44.84348" lon="6.74372">
        <ele>1962.4</ele>
        <time>2026-03-03T07:57:39.999Z</time>
      </trkpt>
      <trkpt lat="44.84348" lon="6.74372">
        <ele>1962.5</ele>
        <time>2026-03-03T07:57:40.999Z</time>
      </trkpt>
      <trkpt lat="44.84347" lon="6.74372">
        <ele>1962.6</ele>
        <time>2026-03-03T07:57:41.999Z</time>
      </trkpt>
      <trkpt lat="44.84347" lon="6.74373">
        <ele>1962.4</ele>
        <time>2026-03-03T07:57:42.999Z</time>
      </trkpt>
      <trkpt lat="44.84347" lon="6.74373">
        <ele>1962.3</ele>
        <time>2026-03-03T07:57:43.999Z</time>
      </trkpt>
      <trkpt lat="44.84346" lon="6.74373">
        <ele>1962.3</ele>
        <time>2026-03-03T07:57:44.999Z</time>
      </trkpt>
      <trkpt lat="44.84345" lon="6.74374">
        <ele>1962.4</ele>
        <time>2026-03-03T07:57:45.999Z</time>
      </trkpt>
      <trkpt lat="44.84343" lon="6.74374">
        <ele>1962.7</ele>
        <time>2026-03-03T07:57:46.999Z</time>
      </trkpt>
      <trkpt lat="44.84342" lon="6.74374">
        <ele>1962.7</ele>
        <time>2026-03-03T07:57:47.999Z</time>
      </trkpt>
      <trkpt lat="44.84341" lon="6.74375">
        <ele>1962.7</ele>
        <time>2026-03-03T07:57:48.999Z</time>
      </trkpt>
      <trkpt lat="44.84341" lon="6.74376">
        <ele>1962.6</ele>
        <time>2026-03-03T07:57:49.999Z</time>
      </trkpt>
      <trkpt lat="44.8434" lon="6.74377">
        <ele>1962.5</ele>
        <time>2026-03-03T07:57:50.999Z</time>
      </trkpt>
      <trkpt lat="44.84339" lon="6.74378">
        <ele>1962.3</ele>
        <time>2026-03-03T07:57:51.999Z</time>
      </trkpt>
      <trkpt lat="44.84339" lon="6.74378">
        <ele>1962.1</ele>
        <time>2026-03-03T07:57:52.999Z</time>
      </trkpt>
      <trkpt lat="44.84337" lon="6.74379">
        <ele>1962.4</ele>
        <time>2026-03-03T07:57:53.999Z</time>
      </trkpt>
      <trkpt lat="44.84336" lon="6.7438">
        <ele>1962.5</ele>
        <time>2026-03-03T07:57:54.999Z</time>
      </trkpt>
      <trkpt lat="44.84335" lon="6.7438">
        <ele>1962.7</ele>
        <time>2026-03-03T07:57:55.999Z</time>
      </trkpt>
      <trkpt lat="44.84334" lon="6.74381">
        <ele>1963.1</ele>
        <time>2026-03-03T07:57:56.999Z</time>
      </trkpt>
      <trkpt lat="44.84334" lon="6.74381">
        <ele>1963.1</ele>
        <time>2026-03-03T07:57:57.999Z</time>
      </trkpt>
      <trkpt lat="44.84333" lon="6.74381">
        <ele>1963.1</ele>
        <time>2026-03-03T07:57:58.999Z</time>
      </trkpt>
      <trkpt lat="44.84333" lon="6.74381">
        <ele>1963.1</ele>
        <time>2026-03-03T07:57:59.999Z</time>
      </trkpt>
      <trkpt lat="44.84332" lon="6.74382">
        <ele>1963.3</ele>
        <time>2026-03-03T07:58:00.999Z</time>
      </trkpt>
      <trkpt lat="44.84331" lon="6.74383">
        <ele>1963.2</ele>
        <time>2026-03-03T07:58:01.999Z</time>
      </trkpt>
      <trkpt lat="44.8433" lon="6.74385">
        <ele>1963.1</ele>
        <time>2026-03-03T07:58:02.999Z</time>
      </trkpt>
      <trkpt lat="44.84329" lon="6.74386">
        <ele>1963</ele>
        <time>2026-03-03T07:58:03.999Z</time>
      </trkpt>
      <trkpt lat="44.84328" lon="6.74386">
        <ele>1963.1</ele>
        <time>2026-03-03T07:58:04.999Z</time>
      </trkpt>
      <trkpt lat="44.84328" lon="6.74387">
        <ele>1963.1</ele>
        <time>2026-03-03T07:58:05.999Z</time>
      </trkpt>
      <trkpt lat="44.84327" lon="6.74387">
        <ele>1963.3</ele>
        <time>2026-03-03T07:58:06.999Z</time>
      </trkpt>
      <trkpt lat="44.84327" lon="6.74387">
        <ele>1963.6</ele>
        <time>2026-03-03T07:58:07.999Z</time>
      </trkpt>
      <trkpt lat="44.84327" lon="6.74388">
        <ele>1964</ele>
        <time>2026-03-03T07:58:08.999Z</time>
      </trkpt>
      <trkpt lat="44.84326" lon="6.74388">
        <ele>1964.1</ele>
        <time>2026-03-03T07:58:09.999Z</time>
      </trkpt>
      <trkpt lat="44.84325" lon="6.7439">
        <ele>1963.9</ele>
        <time>2026-03-03T07:58:10.999Z</time>
      </trkpt>
      <trkpt lat="44.84325" lon="6.7439">
        <ele>1964.1</ele>
        <time>2026-03-03T07:58:11.999Z</time>
      </trkpt>
      <trkpt lat="44.84324" lon="6.74391">
        <ele>1964.3</ele>
        <time>2026-03-03T07:58:12.999Z</time>
      </trkpt>
      <trkpt lat="44.84324" lon="6.74391">
        <ele>1964.4</ele>
        <time>2026-03-03T07:58:13.999Z</time>
      </trkpt>
      <trkpt lat="44.84324" lon="6.74392">
        <ele>1964.2</ele>
        <time>2026-03-03T07:58:14.999Z</time>
      </trkpt>
      <trkpt lat="44.84323" lon="6.74393">
        <ele>1964.1</ele>
        <time>2026-03-03T07:58:15.999Z</time>
      </trkpt>
      <trkpt lat="44.84323" lon="6.74393">
        <ele>1964.2</ele>
        <time>2026-03-03T07:58:16.999Z</time>
      </trkpt>
      <trkpt lat="44.84322" lon="6.74394">
        <ele>1964.3</ele>
        <time>2026-03-03T07:58:17.999Z</time>
      </trkpt>
      <trkpt lat="44.84322" lon="6.74395">
        <ele>1964.3</ele>
        <time>2026-03-03T07:58:18.999Z</time>
      </trkpt>
      <trkpt lat="44.84321" lon="6.74396">
        <ele>1964.5</ele>
        <time>2026-03-03T07:58:19.999Z</time>
      </trkpt>
      <trkpt lat="44.8432" lon="6.74397">
        <ele>1964.8</ele>
        <time>2026-03-03T07:58:20.999Z</time>
      </trkpt>
      <trkpt lat="44.8432" lon="6.74397">
        <ele>1964.9</ele>
        <time>2026-03-03T07:58:21.999Z</time>
      </trkpt>
      <trkpt lat="44.8432" lon="6.74397">
        <ele>1965.1</ele>
        <time>2026-03-03T07:58:22.999Z</time>
      </trkpt>
      <trkpt lat="44.8432" lon="6.74398">
        <ele>1965.3</ele>
        <time>2026-03-03T07:58:23.999Z</time>
      </trkpt>
      <trkpt lat="44.8432" lon="6.74398">
        <ele>1965.3</ele>
        <time>2026-03-03T07:58:24.999Z</time>
      </trkpt>
      <trkpt lat="44.84319" lon="6.74399">
        <ele>1965.4</ele>
        <time>2026-03-03T07:58:25.999Z</time>
      </trkpt>
      <trkpt lat="44.84319" lon="6.744">
        <ele>1965.5</ele>
        <time>2026-03-03T07:58:26.999Z</time>
      </trkpt>
      <trkpt lat="44.84318" lon="6.744">
        <ele>1965.6</ele>
        <time>2026-03-03T07:58:27.999Z</time>
      </trkpt>
      <trkpt lat="44.84318" lon="6.74401">
        <ele>1965.6</ele>
        <time>2026-03-03T07:58:28.999Z</time>
      </trkpt>
      <trkpt lat="44.84317" lon="6.74401">
        <ele>1966</ele>
        <time>2026-03-03T07:58:29.999Z</time>
      </trkpt>
      <trkpt lat="44.84317" lon="6.74401">
        <ele>1966.2</ele>
        <time>2026-03-03T07:58:30.999Z</time>
      </trkpt>
      <trkpt lat="44.84317" lon="6.74401">
        <ele>1966.5</ele>
        <time>2026-03-03T07:58:31.999Z</time>
      </trkpt>
      <trkpt lat="44.84316" lon="6.74401">
        <ele>1966.7</ele>
        <time>2026-03-03T07:58:32.999Z</time>
      </trkpt>
      <trkpt lat="44.84315" lon="6.74401">
        <ele>1967.1</ele>
        <time>2026-03-03T07:58:33.999Z</time>
      </trkpt>
      <trkpt lat="44.84314" lon="6.74402">
        <ele>1967.3</ele>
        <time>2026-03-03T07:58:34.999Z</time>
      </trkpt>
      <trkpt lat="44.84314" lon="6.74402">
        <ele>1967.2</ele>
        <time>2026-03-03T07:58:35.999Z</time>
      </trkpt>
      <trkpt lat="44.84314" lon="6.74403">
        <ele>1967.3</ele>
        <time>2026-03-03T07:58:36.999Z</time>
      </trkpt>
      <trkpt lat="44.84313" lon="6.74403">
        <ele>1967.7</ele>
        <time>2026-03-03T07:58:37.999Z</time>
      </trkpt>
      <trkpt lat="44.84313" lon="6.74403">
        <ele>1967.9</ele>
        <time>2026-03-03T07:58:38.999Z</time>
      </trkpt>
      <trkpt lat="44.84313" lon="6.74403">
        <ele>1968</ele>
        <time>2026-03-03T07:58:39.999Z</time>
      </trkpt>
      <trkpt lat="44.84312" lon="6.74404">
        <ele>1968</ele>
        <time>2026-03-03T07:58:40.999Z</time>
      </trkpt>
      <trkpt lat="44.84311" lon="6.74404">
        <ele>1968.1</ele>
        <time>2026-03-03T07:58:41.999Z</time>
      </trkpt>
      <trkpt lat="44.8431" lon="6.74404">
        <ele>1968.2</ele>
        <time>2026-03-03T07:58:42.999Z</time>
      </trkpt>
      <trkpt lat="44.8431" lon="6.74404">
        <ele>1968.5</ele>
        <time>2026-03-03T07:58:43.999Z</time>
      </trkpt>
      <trkpt lat="44.84309" lon="6.74405">
        <ele>1968.7</ele>
        <time>2026-03-03T07:58:44.999Z</time>
      </trkpt>
      <trkpt lat="44.84309" lon="6.74406">
        <ele>1968.9</ele>
        <time>2026-03-03T07:58:45.999Z</time>
      </trkpt>
      <trkpt lat="44.84308" lon="6.74407">
        <ele>1969.1</ele>
        <time>2026-03-03T07:58:46.999Z</time>
      </trkpt>
      <trkpt lat="44.84308" lon="6.74408">
        <ele>1969.3</ele>
        <time>2026-03-03T07:58:47.999Z</time>
      </trkpt>
      <trkpt lat="44.84307" lon="6.74409">
        <ele>1969.6</ele>
        <time>2026-03-03T07:58:48.999Z</time>
      </trkpt>
      <trkpt lat="44.84307" lon="6.74409">
        <ele>1969.5</ele>
        <time>2026-03-03T07:58:49.999Z</time>
      </trkpt>
      <trkpt lat="44.84306" lon="6.74411">
        <ele>1969.7</ele>
        <time>2026-03-03T07:58:50.999Z</time>
      </trkpt>
      <trkpt lat="44.84305" lon="6.74411">
        <ele>1969.9</ele>
        <time>2026-03-03T07:58:51.999Z</time>
      </trkpt>
      <trkpt lat="44.84304" lon="6.74412">
        <ele>1970</ele>
        <time>2026-03-03T07:58:52.999Z</time>
      </trkpt>
      <trkpt lat="44.84303" lon="6.74412">
        <ele>1970</ele>
        <time>2026-03-03T07:58:53.999Z</time>
      </trkpt>
      <trkpt lat="44.84302" lon="6.74413">
        <ele>1970</ele>
        <time>2026-03-03T07:58:54.999Z</time>
      </trkpt>
      <trkpt lat="44.84301" lon="6.74413">
        <ele>1970.1</ele>
        <time>2026-03-03T07:58:55.999Z</time>
      </trkpt>
      <trkpt lat="44.843" lon="6.74414">
        <ele>1970.1</ele>
        <time>2026-03-03T07:58:56.999Z</time>
      </trkpt>
      <trkpt lat="44.84299" lon="6.74414">
        <ele>1970.2</ele>
        <time>2026-03-03T07:58:57.999Z</time>
      </trkpt>
      <trkpt lat="44.84299" lon="6.74414">
        <ele>1970.2</ele>
        <time>2026-03-03T07:58:58.999Z</time>
      </trkpt>
      <trkpt lat="44.84298" lon="6.74415">
        <ele>1970.3</ele>
        <time>2026-03-03T07:58:59.999Z</time>
      </trkpt>
      <trkpt lat="44.84297" lon="6.74416">
        <ele>1970.3</ele>
        <time>2026-03-03T07:59:00.999Z</time>
      </trkpt>
      <trkpt lat="44.84296" lon="6.74416">
        <ele>1970.3</ele>
        <time>2026-03-03T07:59:01.999Z</time>
      </trkpt>
      <trkpt lat="44.84295" lon="6.74417">
        <ele>1970.2</ele>
        <time>2026-03-03T07:59:02.999Z</time>
      </trkpt>
      <trkpt lat="44.84295" lon="6.74418">
        <ele>1970.1</ele>
        <time>2026-03-03T07:59:03.999Z</time>
      </trkpt>
      <trkpt lat="44.84293" lon="6.74418">
        <ele>1970.2</ele>
        <time>2026-03-03T07:59:04.999Z</time>
      </trkpt>
      <trkpt lat="44.84293" lon="6.7442">
        <ele>1970.1</ele>
        <time>2026-03-03T07:59:05.999Z</time>
      </trkpt>
      <trkpt lat="44.84292" lon="6.7442">
        <ele>1970</ele>
        <time>2026-03-03T07:59:06.999Z</time>
      </trkpt>
      <trkpt lat="44.84291" lon="6.7442">
        <ele>1970</ele>
        <time>2026-03-03T07:59:07.999Z</time>
      </trkpt>
      <trkpt lat="44.8429" lon="6.74421">
        <ele>1970.2</ele>
        <time>2026-03-03T07:59:08.999Z</time>
      </trkpt>
      <trkpt lat="44.8429" lon="6.74421">
        <ele>1970.2</ele>
        <time>2026-03-03T07:59:09.999Z</time>
      </trkpt>
      <trkpt lat="44.84289" lon="6.74422">
        <ele>1970.3</ele>
        <time>2026-03-03T07:59:10.999Z</time>
      </trkpt>
      <trkpt lat="44.84289" lon="6.74423">
        <ele>1970.4</ele>
        <time>2026-03-03T07:59:11.999Z</time>
      </trkpt>
      <trkpt lat="44.84288" lon="6.74424">
        <ele>1970.6</ele>
        <time>2026-03-03T07:59:12.999Z</time>
      </trkpt>
      <trkpt lat="44.84287" lon="6.74425">
        <ele>1970.6</ele>
        <time>2026-03-03T07:59:13.999Z</time>
      </trkpt>
      <trkpt lat="44.84287" lon="6.74426">
        <ele>1970.7</ele>
        <time>2026-03-03T07:59:14.999Z</time>
      </trkpt>
      <trkpt lat="44.84287" lon="6.74426">
        <ele>1970.9</ele>
        <time>2026-03-03T07:59:15.999Z</time>
      </trkpt>
      <trkpt lat="44.84286" lon="6.74427">
        <ele>1970.9</ele>
        <time>2026-03-03T07:59:16.999Z</time>
      </trkpt>
      <trkpt lat="44.84286" lon="6.74428">
        <ele>1971.1</ele>
        <time>2026-03-03T07:59:17.999Z</time>
      </trkpt>
      <trkpt lat="44.84286" lon="6.74428">
        <ele>1971.2</ele>
        <time>2026-03-03T07:59:18.999Z</time>
      </trkpt>
      <trkpt lat="44.84285" lon="6.74429">
        <ele>1971.4</ele>
        <time>2026-03-03T07:59:19.999Z</time>
      </trkpt>
      <trkpt lat="44.84285" lon="6.74429">
        <ele>1971.5</ele>
        <time>2026-03-03T07:59:20.999Z</time>
      </trkpt>
      <trkpt lat="44.84284" lon="6.74429">
        <ele>1971.5</ele>
        <time>2026-03-03T07:59:21.999Z</time>
      </trkpt>
      <trkpt lat="44.84283" lon="6.7443">
        <ele>1971.5</ele>
        <time>2026-03-03T07:59:22.999Z</time>
      </trkpt>
      <trkpt lat="44.84283" lon="6.7443">
        <ele>1971.9</ele>
        <time>2026-03-03T07:59:23.999Z</time>
      </trkpt>
      <trkpt lat="44.84283" lon="6.74431">
        <ele>1972</ele>
        <time>2026-03-03T07:59:24.999Z</time>
      </trkpt>
      <trkpt lat="44.84282" lon="6.74432">
        <ele>1972.3</ele>
        <time>2026-03-03T07:59:25.999Z</time>
      </trkpt>
      <trkpt lat="44.84282" lon="6.74433">
        <ele>1972.5</ele>
        <time>2026-03-03T07:59:26.999Z</time>
      </trkpt>
      <trkpt lat="44.84282" lon="6.74434">
        <ele>1972.5</ele>
        <time>2026-03-03T07:59:27.999Z</time>
      </trkpt>
      <trkpt lat="44.84281" lon="6.74434">
        <ele>1972.8</ele>
        <time>2026-03-03T07:59:28.999Z</time>
      </trkpt>
      <trkpt lat="44.84282" lon="6.74434">
        <ele>1973.2</ele>
        <time>2026-03-03T07:59:29.999Z</time>
      </trkpt>
      <trkpt lat="44.84281" lon="6.74435">
        <ele>1973.8</ele>
        <time>2026-03-03T07:59:30.999Z</time>
      </trkpt>
      <trkpt lat="44.84281" lon="6.74435">
        <ele>1974.2</ele>
        <time>2026-03-03T07:59:31.999Z</time>
      </trkpt>
      <trkpt lat="44.84281" lon="6.74436">
        <ele>1973.8</ele>
        <time>2026-03-03T07:59:32.999Z</time>
      </trkpt>
      <trkpt lat="44.84281" lon="6.74436">
        <ele>1974.2</ele>
        <time>2026-03-03T07:59:33.999Z</time>
      </trkpt>
      <trkpt lat="44.84281" lon="6.74437">
        <ele>1974.3</ele>
        <time>2026-03-03T07:59:34.999Z</time>
      </trkpt>
      <trkpt lat="44.8428" lon="6.74437">
        <ele>1974.6</ele>
        <time>2026-03-03T07:59:35.999Z</time>
      </trkpt>
      <trkpt lat="44.84279" lon="6.74439">
        <ele>1974.8</ele>
        <time>2026-03-03T07:59:36.999Z</time>
      </trkpt>
      <trkpt lat="44.84278" lon="6.7444">
        <ele>1975</ele>
        <time>2026-03-03T07:59:37.999Z</time>
      </trkpt>
      <trkpt lat="44.84277" lon="6.7444">
        <ele>1975.5</ele>
        <time>2026-03-03T07:59:38.999Z</time>
      </trkpt>
      <trkpt lat="44.84276" lon="6.74441">
        <ele>1976</ele>
        <time>2026-03-03T07:59:39.999Z</time>
      </trkpt>
      <trkpt lat="44.84276" lon="6.74441">
        <ele>1976.4</ele>
        <time>2026-03-03T07:59:40.999Z</time>
      </trkpt>
      <trkpt lat="44.84275" lon="6.74442">
        <ele>1976.8</ele>
        <time>2026-03-03T07:59:41.999Z</time>
      </trkpt>
      <trkpt lat="44.84274" lon="6.74443">
        <ele>1977.1</ele>
        <time>2026-03-03T07:59:42.999Z</time>
      </trkpt>
      <trkpt lat="44.84274" lon="6.74443">
        <ele>1977.5</ele>
        <time>2026-03-03T07:59:43.999Z</time>
      </trkpt>
      <trkpt lat="44.84273" lon="6.74444">
        <ele>1977.5</ele>
        <time>2026-03-03T07:59:44.999Z</time>
      </trkpt>
      <trkpt lat="44.84272" lon="6.74445">
        <ele>1977.5</ele>
        <time>2026-03-03T07:59:45.999Z</time>
      </trkpt>
      <trkpt lat="44.84271" lon="6.74445">
        <ele>1977.5</ele>
        <time>2026-03-03T07:59:46.999Z</time>
      </trkpt>
      <trkpt lat="44.84271" lon="6.74446">
        <ele>1977.5</ele>
        <time>2026-03-03T07:59:47.999Z</time>
      </trkpt>
      <trkpt lat="44.8427" lon="6.74446">
        <ele>1977.6</ele>
        <time>2026-03-03T07:59:48.999Z</time>
      </trkpt>
      <trkpt lat="44.84269" lon="6.74447">
        <ele>1977.8</ele>
        <time>2026-03-03T07:59:49.999Z</time>
      </trkpt>
      <trkpt lat="44.84269" lon="6.74448">
        <ele>1978</ele>
        <time>2026-03-03T07:59:50.999Z</time>
      </trkpt>
      <trkpt lat="44.84268" lon="6.74448">
        <ele>1978.2</ele>
        <time>2026-03-03T07:59:51.999Z</time>
      </trkpt>
      <trkpt lat="44.84268" lon="6.74449">
        <ele>1977.8</ele>
        <time>2026-03-03T07:59:52.999Z</time>
      </trkpt>
      <trkpt lat="44.84267" lon="6.74449">
        <ele>1977.7</ele>
        <time>2026-03-03T07:59:53.999Z</time>
      </trkpt>
      <trkpt lat="44.84266" lon="6.7445">
        <ele>1977.6</ele>
        <time>2026-03-03T07:59:54.999Z</time>
      </trkpt>
      <trkpt lat="44.84266" lon="6.74451">
        <ele>1977.4</ele>
        <time>2026-03-03T07:59:55.999Z</time>
      </trkpt>
      <trkpt lat="44.84265" lon="6.74451">
        <ele>1977.2</ele>
        <time>2026-03-03T07:59:56.999Z</time>
      </trkpt>
      <trkpt lat="44.84265" lon="6.74452">
        <ele>1977</ele>
        <time>2026-03-03T07:59:57.999Z</time>
      </trkpt>
      <trkpt lat="44.84264" lon="6.74453">
        <ele>1976.9</ele>
        <time>2026-03-03T07:59:58.999Z</time>
      </trkpt>
      <trkpt lat="44.84263" lon="6.74454">
        <ele>1976.9</ele>
        <time>2026-03-03T07:59:59.999Z</time>
      </trkpt>
      <trkpt lat="44.84263" lon="6.74456">
        <ele>1977</ele>
        <time>2026-03-03T08:00:00.999Z</time>
      </trkpt>
      <trkpt lat="44.84262" lon="6.74456">
        <ele>1976.9</ele>
        <time>2026-03-03T08:00:01.999Z</time>
      </trkpt>
      <trkpt lat="44.84261" lon="6.74457">
        <ele>1977</ele>
        <time>2026-03-03T08:00:02.999Z</time>
      </trkpt>
      <trkpt lat="44.84261" lon="6.74458">
        <ele>1976.9</ele>
        <time>2026-03-03T08:00:03.999Z</time>
      </trkpt>
      <trkpt lat="44.8426" lon="6.74458">
        <ele>1977</ele>
        <time>2026-03-03T08:00:04.999Z</time>
      </trkpt>
      <trkpt lat="44.84259" lon="6.74459">
        <ele>1977.1</ele>
        <time>2026-03-03T08:00:05.999Z</time>
      </trkpt>
      <trkpt lat="44.84259" lon="6.7446">
        <ele>1977.5</ele>
        <time>2026-03-03T08:00:06.999Z</time>
      </trkpt>
      <trkpt lat="44.84258" lon="6.74461">
        <ele>1977.6</ele>
        <time>2026-03-03T08:00:07.999Z</time>
      </trkpt>
      <trkpt lat="44.84257" lon="6.74461">
        <ele>1977.7</ele>
        <time>2026-03-03T08:00:08.999Z</time>
      </trkpt>
      <trkpt lat="44.84256" lon="6.74462">
        <ele>1977.8</ele>
        <time>2026-03-03T08:00:09.999Z</time>
      </trkpt>
      <trkpt lat="44.84255" lon="6.74463">
        <ele>1977.9</ele>
        <time>2026-03-03T08:00:10.999Z</time>
      </trkpt>
      <trkpt lat="44.84255" lon="6.74463">
        <ele>1978.1</ele>
        <time>2026-03-03T08:00:11.999Z</time>
      </trkpt>
      <trkpt lat="44.84254" lon="6.74463">
        <ele>1978.2</ele>
        <time>2026-03-03T08:00:12.999Z</time>
      </trkpt>
      <trkpt lat="44.84253" lon="6.74464">
        <ele>1978.1</ele>
        <time>2026-03-03T08:00:13.999Z</time>
      </trkpt>
      <trkpt lat="44.84253" lon="6.74464">
        <ele>1978.4</ele>
        <time>2026-03-03T08:00:14.999Z</time>
      </trkpt>
      <trkpt lat="44.84252" lon="6.74464">
        <ele>1978.6</ele>
        <time>2026-03-03T08:00:15.999Z</time>
      </trkpt>
      <trkpt lat="44.84252" lon="6.74465">
        <ele>1978.5</ele>
        <time>2026-03-03T08:00:16.999Z</time>
      </trkpt>
      <trkpt lat="44.84251" lon="6.74466">
        <ele>1978.4</ele>
        <time>2026-03-03T08:00:17.999Z</time>
      </trkpt>
      <trkpt lat="44.8425" lon="6.74466">
        <ele>1978.6</ele>
        <time>2026-03-03T08:00:18.999Z</time>
      </trkpt>
      <trkpt lat="44.84249" lon="6.74466">
        <ele>1978.7</ele>
        <time>2026-03-03T08:00:19.999Z</time>
      </trkpt>
      <trkpt lat="44.84248" lon="6.74466">
        <ele>1978.5</ele>
        <time>2026-03-03T08:00:20.999Z</time>
      </trkpt>
      <trkpt lat="44.84248" lon="6.74467">
        <ele>1978.5</ele>
        <time>2026-03-03T08:00:21.999Z</time>
      </trkpt>
      <trkpt lat="44.84248" lon="6.74468">
        <ele>1978.6</ele>
        <time>2026-03-03T08:00:22.999Z</time>
      </trkpt>
      <trkpt lat="44.84248" lon="6.74469">
        <ele>1978.6</ele>
        <time>2026-03-03T08:00:23.999Z</time>
      </trkpt>
      <trkpt lat="44.84247" lon="6.7447">
        <ele>1978.8</ele>
        <time>2026-03-03T08:00:24.999Z</time>
      </trkpt>
      <trkpt lat="44.84246" lon="6.74471">
        <ele>1978.9</ele>
        <time>2026-03-03T08:00:25.999Z</time>
      </trkpt>
      <trkpt lat="44.84246" lon="6.74471">
        <ele>1979</ele>
        <time>2026-03-03T08:00:26.999Z</time>
      </trkpt>
      <trkpt lat="44.84246" lon="6.74472">
        <ele>1979.3</ele>
        <time>2026-03-03T08:00:27.999Z</time>
      </trkpt>
      <trkpt lat="44.84246" lon="6.74473">
        <ele>1979.4</ele>
        <time>2026-03-03T08:00:28.999Z</time>
      </trkpt>
      <trkpt lat="44.84246" lon="6.74473">
        <ele>1979.7</ele>
        <time>2026-03-03T08:00:29.999Z</time>
      </trkpt>
      <trkpt lat="44.84245" lon="6.74473">
        <ele>1980.2</ele>
        <time>2026-03-03T08:00:30.999Z</time>
      </trkpt>
      <trkpt lat="44.84245" lon="6.74474">
        <ele>1980.9</ele>
        <time>2026-03-03T08:00:31.999Z</time>
      </trkpt>
      <trkpt lat="44.84245" lon="6.74475">
        <ele>1981.6</ele>
        <time>2026-03-03T08:00:32.999Z</time>
      </trkpt>
      <trkpt lat="44.84244" lon="6.74476">
        <ele>1982.1</ele>
        <time>2026-03-03T08:00:33.999Z</time>
      </trkpt>
      <trkpt lat="44.84245" lon="6.74477">
        <ele>1982.5</ele>
        <time>2026-03-03T08:00:34.999Z</time>
      </trkpt>
      <trkpt lat="44.84245" lon="6.74478">
        <ele>1982.5</ele>
        <time>2026-03-03T08:00:35.999Z</time>
      </trkpt>
      <trkpt lat="44.84244" lon="6.74478">
        <ele>1982.7</ele>
        <time>2026-03-03T08:00:36.999Z</time>
      </trkpt>
      <trkpt lat="44.84244" lon="6.74478">
        <ele>1982.8</ele>
        <time>2026-03-03T08:00:37.999Z</time>
      </trkpt>
      <trkpt lat="44.84244" lon="6.74479">
        <ele>1983</ele>
        <time>2026-03-03T08:00:38.999Z</time>
      </trkpt>
      <trkpt lat="44.84244" lon="6.74479">
        <ele>1983.1</ele>
        <time>2026-03-03T08:00:39.999Z</time>
      </trkpt>
      <trkpt lat="44.84243" lon="6.7448">
        <ele>1983.3</ele>
        <time>2026-03-03T08:00:40.999Z</time>
      </trkpt>
      <trkpt lat="44.84241" lon="6.74481">
        <ele>1983.4</ele>
        <time>2026-03-03T08:00:41.999Z</time>
      </trkpt>
      <trkpt lat="44.84241" lon="6.74481">
        <ele>1983.4</ele>
        <time>2026-03-03T08:00:42.999Z</time>
      </trkpt>
      <trkpt lat="44.84241" lon="6.74482">
        <ele>1983.6</ele>
        <time>2026-03-03T08:00:43.999Z</time>
      </trkpt>
      <trkpt lat="44.8424" lon="6.74483">
        <ele>1983.8</ele>
        <time>2026-03-03T08:00:44.999Z</time>
      </trkpt>
      <trkpt lat="44.8424" lon="6.74484">
        <ele>1984</ele>
        <time>2026-03-03T08:00:45.999Z</time>
      </trkpt>
      <trkpt lat="44.8424" lon="6.74484">
        <ele>1984</ele>
        <time>2026-03-03T08:00:46.999Z</time>
      </trkpt>
      <trkpt lat="44.8424" lon="6.74485">
        <ele>1984.1</ele>
        <time>2026-03-03T08:00:47.999Z</time>
      </trkpt>
      <trkpt lat="44.8424" lon="6.74485">
        <ele>1984.1</ele>
        <time>2026-03-03T08:00:48.999Z</time>
      </trkpt>
      <trkpt lat="44.84239" lon="6.74486">
        <ele>1984</ele>
        <time>2026-03-03T08:00:49.999Z</time>
      </trkpt>
      <trkpt lat="44.84239" lon="6.74487">
        <ele>1983.9</ele>
        <time>2026-03-03T08:00:50.999Z</time>
      </trkpt>
      <trkpt lat="44.84238" lon="6.74488">
        <ele>1984.1</ele>
        <time>2026-03-03T08:00:51.999Z</time>
      </trkpt>
      <trkpt lat="44.84236" lon="6.74489">
        <ele>1984.5</ele>
        <time>2026-03-03T08:00:52.999Z</time>
      </trkpt>
      <trkpt lat="44.84235" lon="6.7449">
        <ele>1984.8</ele>
        <time>2026-03-03T08:00:53.999Z</time>
      </trkpt>
      <trkpt lat="44.84234" lon="6.74491">
        <ele>1984.7</ele>
        <time>2026-03-03T08:00:54.999Z</time>
      </trkpt>
      <trkpt lat="44.84232" lon="6.74491">
        <ele>1984.7</ele>
        <time>2026-03-03T08:00:55.999Z</time>
      </trkpt>
      <trkpt lat="44.84231" lon="6.74492">
        <ele>1984.7</ele>
        <time>2026-03-03T08:00:56.999Z</time>
      </trkpt>
      <trkpt lat="44.8423" lon="6.74492">
        <ele>1984.7</ele>
        <time>2026-03-03T08:00:57.999Z</time>
      </trkpt>
      <trkpt lat="44.84229" lon="6.74493">
        <ele>1984.7</ele>
        <time>2026-03-03T08:00:58.999Z</time>
      </trkpt>
      <trkpt lat="44.84228" lon="6.74494">
        <ele>1984.6</ele>
        <time>2026-03-03T08:00:59.999Z</time>
      </trkpt>
      <trkpt lat="44.84227" lon="6.74494">
        <ele>1984.5</ele>
        <time>2026-03-03T08:01:00.999Z</time>
      </trkpt>
      <trkpt lat="44.84226" lon="6.74495">
        <ele>1984.3</ele>
        <time>2026-03-03T08:01:01.999Z</time>
      </trkpt>
      <trkpt lat="44.84226" lon="6.74495">
        <ele>1984.2</ele>
        <time>2026-03-03T08:01:02.999Z</time>
      </trkpt>
      <trkpt lat="44.84225" lon="6.74496">
        <ele>1984.2</ele>
        <time>2026-03-03T08:01:03.999Z</time>
      </trkpt>
      <trkpt lat="44.84225" lon="6.74497">
        <ele>1984.3</ele>
        <time>2026-03-03T08:01:04.999Z</time>
      </trkpt>
      <trkpt lat="44.84224" lon="6.74497">
        <ele>1984.3</ele>
        <time>2026-03-03T08:01:05.999Z</time>
      </trkpt>
      <trkpt lat="44.84223" lon="6.74498">
        <ele>1984.3</ele>
        <time>2026-03-03T08:01:06.999Z</time>
      </trkpt>
      <trkpt lat="44.84223" lon="6.74498">
        <ele>1983.9</ele>
        <time>2026-03-03T08:01:07.999Z</time>
      </trkpt>
      <trkpt lat="44.84222" lon="6.74499">
        <ele>1983.8</ele>
        <time>2026-03-03T08:01:08.999Z</time>
      </trkpt>
      <trkpt lat="44.84221" lon="6.745">
        <ele>1984.1</ele>
        <time>2026-03-03T08:01:09.999Z</time>
      </trkpt>
      <trkpt lat="44.8422" lon="6.74501">
        <ele>1984.2</ele>
        <time>2026-03-03T08:01:10.999Z</time>
      </trkpt>
      <trkpt lat="44.8422" lon="6.74502">
        <ele>1984.2</ele>
        <time>2026-03-03T08:01:11.999Z</time>
      </trkpt>
      <trkpt lat="44.84219" lon="6.74502">
        <ele>1984.3</ele>
        <time>2026-03-03T08:01:12.999Z</time>
      </trkpt>
      <trkpt lat="44.84219" lon="6.74504">
        <ele>1984.1</ele>
        <time>2026-03-03T08:01:13.999Z</time>
      </trkpt>
      <trkpt lat="44.84219" lon="6.74505">
        <ele>1983.8</ele>
        <time>2026-03-03T08:01:14.999Z</time>
      </trkpt>
      <trkpt lat="44.84218" lon="6.74506">
        <ele>1984</ele>
        <time>2026-03-03T08:01:15.999Z</time>
      </trkpt>
      <trkpt lat="44.84217" lon="6.74506">
        <ele>1983.9</ele>
        <time>2026-03-03T08:01:16.999Z</time>
      </trkpt>
      <trkpt lat="44.84216" lon="6.74506">
        <ele>1983.9</ele>
        <time>2026-03-03T08:01:17.999Z</time>
      </trkpt>
      <trkpt lat="44.84216" lon="6.74507">
        <ele>1983.9</ele>
        <time>2026-03-03T08:01:18.999Z</time>
      </trkpt>
      <trkpt lat="44.84215" lon="6.74507">
        <ele>1983.9</ele>
        <time>2026-03-03T08:01:19.999Z</time>
      </trkpt>
      <trkpt lat="44.84214" lon="6.74507">
        <ele>1984.2</ele>
        <time>2026-03-03T08:01:20.999Z</time>
      </trkpt>
      <trkpt lat="44.84214" lon="6.74508">
        <ele>1984.4</ele>
        <time>2026-03-03T08:01:21.999Z</time>
      </trkpt>
      <trkpt lat="44.84213" lon="6.74509">
        <ele>1984.4</ele>
        <time>2026-03-03T08:01:22.999Z</time>
      </trkpt>
      <trkpt lat="44.84212" lon="6.7451">
        <ele>1984.1</ele>
        <time>2026-03-03T08:01:23.999Z</time>
      </trkpt>
      <trkpt lat="44.84211" lon="6.74511">
        <ele>1984.1</ele>
        <time>2026-03-03T08:01:24.999Z</time>
      </trkpt>
      <trkpt lat="44.84211" lon="6.74511">
        <ele>1984.1</ele>
        <time>2026-03-03T08:01:25.999Z</time>
      </trkpt>
      <trkpt lat="44.84209" lon="6.74512">
        <ele>1984.3</ele>
        <time>2026-03-03T08:01:26.999Z</time>
      </trkpt>
      <trkpt lat="44.84208" lon="6.74513">
        <ele>1984.5</ele>
        <time>2026-03-03T08:01:27.999Z</time>
      </trkpt>
      <trkpt lat="44.84208" lon="6.74513">
        <ele>1984.9</ele>
        <time>2026-03-03T08:01:28.999Z</time>
      </trkpt>
      <trkpt lat="44.84207" lon="6.74513">
        <ele>1985.4</ele>
        <time>2026-03-03T08:01:29.999Z</time>
      </trkpt>
      <trkpt lat="44.84206" lon="6.74514">
        <ele>1985.5</ele>
        <time>2026-03-03T08:01:30.999Z</time>
      </trkpt>
      <trkpt lat="44.84206" lon="6.74514">
        <ele>1985.4</ele>
        <time>2026-03-03T08:01:31.999Z</time>
      </trkpt>
      <trkpt lat="44.84205" lon="6.74515">
        <ele>1985.7</ele>
        <time>2026-03-03T08:01:32.999Z</time>
      </trkpt>
      <trkpt lat="44.84204" lon="6.74517">
        <ele>1985.8</ele>
        <time>2026-03-03T08:01:33.999Z</time>
      </trkpt>
      <trkpt lat="44.84204" lon="6.74518">
        <ele>1986.1</ele>
        <time>2026-03-03T08:01:34.999Z</time>
      </trkpt>
      <trkpt lat="44.84203" lon="6.74518">
        <ele>1986.6</ele>
        <time>2026-03-03T08:01:35.999Z</time>
      </trkpt>
      <trkpt lat="44.84203" lon="6.74519">
        <ele>1986.8</ele>
        <time>2026-03-03T08:01:36.999Z</time>
      </trkpt>
      <trkpt lat="44.84203" lon="6.74519">
        <ele>1986.3</ele>
        <time>2026-03-03T08:01:37.999Z</time>
      </trkpt>
      <trkpt lat="44.84203" lon="6.74521">
        <ele>1986.2</ele>
        <time>2026-03-03T08:01:38.999Z</time>
      </trkpt>
      <trkpt lat="44.84202" lon="6.74521">
        <ele>1986.3</ele>
        <time>2026-03-03T08:01:39.999Z</time>
      </trkpt>
      <trkpt lat="44.84202" lon="6.74522">
        <ele>1986.6</ele>
        <time>2026-03-03T08:01:40.999Z</time>
      </trkpt>
      <trkpt lat="44.84201" lon="6.74522">
        <ele>1986.9</ele>
        <time>2026-03-03T08:01:41.999Z</time>
      </trkpt>
      <trkpt lat="44.84201" lon="6.74523">
        <ele>1986.9</ele>
        <time>2026-03-03T08:01:42.999Z</time>
      </trkpt>
      <trkpt lat="44.842" lon="6.74524">
        <ele>1987</ele>
        <time>2026-03-03T08:01:43.999Z</time>
      </trkpt>
      <trkpt lat="44.842" lon="6.74524">
        <ele>1987.1</ele>
        <time>2026-03-03T08:01:44.999Z</time>
      </trkpt>
      <trkpt lat="44.84199" lon="6.74525">
        <ele>1987</ele>
        <time>2026-03-03T08:01:45.999Z</time>
      </trkpt>
      <trkpt lat="44.84199" lon="6.74527">
        <ele>1986.9</ele>
        <time>2026-03-03T08:01:46.999Z</time>
      </trkpt>
      <trkpt lat="44.84199" lon="6.74528">
        <ele>1987</ele>
        <time>2026-03-03T08:01:47.999Z</time>
      </trkpt>
      <trkpt lat="44.84199" lon="6.74529">
        <ele>1987.2</ele>
        <time>2026-03-03T08:01:48.999Z</time>
      </trkpt>
      <trkpt lat="44.84199" lon="6.7453">
        <ele>1987.5</ele>
        <time>2026-03-03T08:01:49.999Z</time>
      </trkpt>
      <trkpt lat="44.84198" lon="6.7453">
        <ele>1987.7</ele>
        <time>2026-03-03T08:01:50.999Z</time>
      </trkpt>
      <trkpt lat="44.84198" lon="6.74531">
        <ele>1987.7</ele>
        <time>2026-03-03T08:01:51.999Z</time>
      </trkpt>
      <trkpt lat="44.84198" lon="6.74532">
        <ele>1987.9</ele>
        <time>2026-03-03T08:01:52.999Z</time>
      </trkpt>
      <trkpt lat="44.84198" lon="6.74532">
        <ele>1988.3</ele>
        <time>2026-03-03T08:01:53.999Z</time>
      </trkpt>
      <trkpt lat="44.84197" lon="6.74533">
        <ele>1988.4</ele>
        <time>2026-03-03T08:01:54.999Z</time>
      </trkpt>
      <trkpt lat="44.84196" lon="6.74534">
        <ele>1988.7</ele>
        <time>2026-03-03T08:01:55.999Z</time>
      </trkpt>
      <trkpt lat="44.84196" lon="6.74535">
        <ele>1988.6</ele>
        <time>2026-03-03T08:01:56.999Z</time>
      </trkpt>
      <trkpt lat="44.84196" lon="6.74535">
        <ele>1988.2</ele>
        <time>2026-03-03T08:01:57.999Z</time>
      </trkpt>
      <trkpt lat="44.84195" lon="6.74536">
        <ele>1988</ele>
        <time>2026-03-03T08:01:58.999Z</time>
      </trkpt>
      <trkpt lat="44.84195" lon="6.74536">
        <ele>1988.1</ele>
        <time>2026-03-03T08:01:59.999Z</time>
      </trkpt>
      <trkpt lat="44.84195" lon="6.74537">
        <ele>1988.3</ele>
        <time>2026-03-03T08:02:00.999Z</time>
      </trkpt>
      <trkpt lat="44.84195" lon="6.74537">
        <ele>1988.4</ele>
        <time>2026-03-03T08:02:01.999Z</time>
      </trkpt>
      <trkpt lat="44.84194" lon="6.74538">
        <ele>1988.7</ele>
        <time>2026-03-03T08:02:02.999Z</time>
      </trkpt>
      <trkpt lat="44.84193" lon="6.74538">
        <ele>1989</ele>
        <time>2026-03-03T08:02:03.999Z</time>
      </trkpt>
      <trkpt lat="44.84193" lon="6.74539">
        <ele>1989.4</ele>
        <time>2026-03-03T08:02:04.999Z</time>
      </trkpt>
      <trkpt lat="44.84192" lon="6.74539">
        <ele>1989.4</ele>
        <time>2026-03-03T08:02:05.999Z</time>
      </trkpt>
      <trkpt lat="44.84192" lon="6.7454">
        <ele>1989.5</ele>
        <time>2026-03-03T08:02:06.999Z</time>
      </trkpt>
      <trkpt lat="44.8419" lon="6.74541">
        <ele>1989.2</ele>
        <time>2026-03-03T08:02:07.999Z</time>
      </trkpt>
      <trkpt lat="44.84189" lon="6.74542">
        <ele>1989.4</ele>
        <time>2026-03-03T08:02:08.999Z</time>
      </trkpt>
      <trkpt lat="44.84187" lon="6.74542">
        <ele>1989.4</ele>
        <time>2026-03-03T08:02:09.999Z</time>
      </trkpt>
      <trkpt lat="44.84186" lon="6.74542">
        <ele>1989.4</ele>
        <time>2026-03-03T08:02:10.999Z</time>
      </trkpt>
      <trkpt lat="44.84186" lon="6.74543">
        <ele>1989.5</ele>
        <time>2026-03-03T08:02:11.999Z</time>
      </trkpt>
      <trkpt lat="44.84185" lon="6.74544">
        <ele>1989.4</ele>
        <time>2026-03-03T08:02:12.999Z</time>
      </trkpt>
      <trkpt lat="44.84184" lon="6.74545">
        <ele>1989.1</ele>
        <time>2026-03-03T08:02:13.999Z</time>
      </trkpt>
      <trkpt lat="44.84183" lon="6.74545">
        <ele>1989.3</ele>
        <time>2026-03-03T08:02:14.999Z</time>
      </trkpt>
      <trkpt lat="44.84183" lon="6.74546">
        <ele>1989.7</ele>
        <time>2026-03-03T08:02:15.999Z</time>
      </trkpt>
      <trkpt lat="44.84183" lon="6.74546">
        <ele>1989.9</ele>
        <time>2026-03-03T08:02:16.999Z</time>
      </trkpt>
      <trkpt lat="44.84182" lon="6.74546">
        <ele>1990</ele>
        <time>2026-03-03T08:02:17.999Z</time>
      </trkpt>
      <trkpt lat="44.84182" lon="6.74547">
        <ele>1990</ele>
        <time>2026-03-03T08:02:18.999Z</time>
      </trkpt>
      <trkpt lat="44.84181" lon="6.74548">
        <ele>1990.1</ele>
        <time>2026-03-03T08:02:19.999Z</time>
      </trkpt>
      <trkpt lat="44.84181" lon="6.74549">
        <ele>1990.4</ele>
        <time>2026-03-03T08:02:20.999Z</time>
      </trkpt>
      <trkpt lat="44.8418" lon="6.74549">
        <ele>1990.8</ele>
        <time>2026-03-03T08:02:21.999Z</time>
      </trkpt>
      <trkpt lat="44.8418" lon="6.74549">
        <ele>1991.2</ele>
        <time>2026-03-03T08:02:22.999Z</time>
      </trkpt>
      <trkpt lat="44.8418" lon="6.7455">
        <ele>1991.2</ele>
        <time>2026-03-03T08:02:23.999Z</time>
      </trkpt>
      <trkpt lat="44.84179" lon="6.7455">
        <ele>1991.2</ele>
        <time>2026-03-03T08:02:24.999Z</time>
      </trkpt>
      <trkpt lat="44.84179" lon="6.74551">
        <ele>1991.4</ele>
        <time>2026-03-03T08:02:25.999Z</time>
      </trkpt>
      <trkpt lat="44.84179" lon="6.74552">
        <ele>1991.7</ele>
        <time>2026-03-03T08:02:26.999Z</time>
      </trkpt>
      <trkpt lat="44.84178" lon="6.74553">
        <ele>1991.7</ele>
        <time>2026-03-03T08:02:27.999Z</time>
      </trkpt>
      <trkpt lat="44.84178" lon="6.74553">
        <ele>1992</ele>
        <time>2026-03-03T08:02:28.999Z</time>
      </trkpt>
      <trkpt lat="44.84177" lon="6.74555">
        <ele>1992.2</ele>
        <time>2026-03-03T08:02:29.999Z</time>
      </trkpt>
      <trkpt lat="44.84177" lon="6.74556">
        <ele>1992.4</ele>
        <time>2026-03-03T08:02:30.999Z</time>
      </trkpt>
      <trkpt lat="44.84176" lon="6.74556">
        <ele>1992.4</ele>
        <time>2026-03-03T08:02:31.999Z</time>
      </trkpt>
      <trkpt lat="44.84175" lon="6.74557">
        <ele>1992.3</ele>
        <time>2026-03-03T08:02:32.999Z</time>
      </trkpt>
      <trkpt lat="44.84175" lon="6.74558">
        <ele>1992.7</ele>
        <time>2026-03-03T08:02:33.999Z</time>
      </trkpt>
      <trkpt lat="44.84174" lon="6.74559">
        <ele>1993.1</ele>
        <time>2026-03-03T08:02:34.999Z</time>
      </trkpt>
      <trkpt lat="44.84174" lon="6.74559">
        <ele>1993.6</ele>
        <time>2026-03-03T08:02:35.999Z</time>
      </trkpt>
      <trkpt lat="44.84173" lon="6.74559">
        <ele>1993.9</ele>
        <time>2026-03-03T08:02:36.999Z</time>
      </trkpt>
      <trkpt lat="44.84172" lon="6.74559">
        <ele>1994</ele>
        <time>2026-03-03T08:02:37.999Z</time>
      </trkpt>
      <trkpt lat="44.84172" lon="6.7456">
        <ele>1994</ele>
        <time>2026-03-03T08:02:38.999Z</time>
      </trkpt>
      <trkpt lat="44.84171" lon="6.74561">
        <ele>1993.9</ele>
        <time>2026-03-03T08:02:39.999Z</time>
      </trkpt>
      <trkpt lat="44.84169" lon="6.74562">
        <ele>1994</ele>
        <time>2026-03-03T08:02:40.999Z</time>
      </trkpt>
      <trkpt lat="44.84168" lon="6.74563">
        <ele>1994</ele>
        <time>2026-03-03T08:02:41.999Z</time>
      </trkpt>
      <trkpt lat="44.84167" lon="6.74564">
        <ele>1993.8</ele>
        <time>2026-03-03T08:02:42.999Z</time>
      </trkpt>
      <trkpt lat="44.84166" lon="6.74566">
        <ele>1993.7</ele>
        <time>2026-03-03T08:02:43.999Z</time>
      </trkpt>
      <trkpt lat="44.84165" lon="6.74566">
        <ele>1993.5</ele>
        <time>2026-03-03T08:02:44.999Z</time>
      </trkpt>
      <trkpt lat="44.84165" lon="6.74567">
        <ele>1993.5</ele>
        <time>2026-03-03T08:02:45.999Z</time>
      </trkpt>
      <trkpt lat="44.84164" lon="6.74567">
        <ele>1993.6</ele>
        <time>2026-03-03T08:02:46.999Z</time>
      </trkpt>
      <trkpt lat="44.84163" lon="6.74567">
        <ele>1993.8</ele>
        <time>2026-03-03T08:02:47.999Z</time>
      </trkpt>
      <trkpt lat="44.84163" lon="6.74568">
        <ele>1993.8</ele>
        <time>2026-03-03T08:02:48.999Z</time>
      </trkpt>
      <trkpt lat="44.84162" lon="6.74568">
        <ele>1993.4</ele>
        <time>2026-03-03T08:02:49.999Z</time>
      </trkpt>
      <trkpt lat="44.84162" lon="6.74568">
        <ele>1993.4</ele>
        <time>2026-03-03T08:02:50.999Z</time>
      </trkpt>
      <trkpt lat="44.84162" lon="6.74569">
        <ele>1993.3</ele>
        <time>2026-03-03T08:02:51.999Z</time>
      </trkpt>
      <trkpt lat="44.84161" lon="6.74569">
        <ele>1993.4</ele>
        <time>2026-03-03T08:02:52.999Z</time>
      </trkpt>
      <trkpt lat="44.84161" lon="6.7457">
        <ele>1993.4</ele>
        <time>2026-03-03T08:02:53.999Z</time>
      </trkpt>
      <trkpt lat="44.8416" lon="6.74571">
        <ele>1993.4</ele>
        <time>2026-03-03T08:02:54.999Z</time>
      </trkpt>
      <trkpt lat="44.84159" lon="6.74571">
        <ele>1993.8</ele>
        <time>2026-03-03T08:02:55.999Z</time>
      </trkpt>
      <trkpt lat="44.84159" lon="6.74571">
        <ele>1994</ele>
        <time>2026-03-03T08:02:56.999Z</time>
      </trkpt>
      <trkpt lat="44.84158" lon="6.74572">
        <ele>1994.2</ele>
        <time>2026-03-03T08:02:57.999Z</time>
      </trkpt>
      <trkpt lat="44.84158" lon="6.74573">
        <ele>1994.1</ele>
        <time>2026-03-03T08:02:58.999Z</time>
      </trkpt>
      <trkpt lat="44.84157" lon="6.74573">
        <ele>1993.9</ele>
        <time>2026-03-03T08:02:59.999Z</time>
      </trkpt>
      <trkpt lat="44.84156" lon="6.74574">
        <ele>1993.9</ele>
        <time>2026-03-03T08:03:00.999Z</time>
      </trkpt>
      <trkpt lat="44.84155" lon="6.74575">
        <ele>1994.4</ele>
        <time>2026-03-03T08:03:01.999Z</time>
      </trkpt>
      <trkpt lat="44.84154" lon="6.74576">
        <ele>1994.8</ele>
        <time>2026-03-03T08:03:02.999Z</time>
      </trkpt>
      <trkpt lat="44.84153" lon="6.74576">
        <ele>1995</ele>
        <time>2026-03-03T08:03:03.999Z</time>
      </trkpt>
      <trkpt lat="44.84152" lon="6.74576">
        <ele>1995.2</ele>
        <time>2026-03-03T08:03:04.999Z</time>
      </trkpt>
      <trkpt lat="44.84151" lon="6.74576">
        <ele>1995.5</ele>
        <time>2026-03-03T08:03:05.999Z</time>
      </trkpt>
      <trkpt lat="44.8415" lon="6.74577">
        <ele>1995.6</ele>
        <time>2026-03-03T08:03:06.999Z</time>
      </trkpt>
      <trkpt lat="44.84149" lon="6.74577">
        <ele>1995.8</ele>
        <time>2026-03-03T08:03:07.999Z</time>
      </trkpt>
      <trkpt lat="44.84148" lon="6.74578">
        <ele>1996.1</ele>
        <time>2026-03-03T08:03:08.999Z</time>
      </trkpt>
      <trkpt lat="44.84147" lon="6.74578">
        <ele>1996.4</ele>
        <time>2026-03-03T08:03:09.999Z</time>
      </trkpt>
      <trkpt lat="44.84147" lon="6.74578">
        <ele>1996.6</ele>
        <time>2026-03-03T08:03:10.999Z</time>
      </trkpt>
      <trkpt lat="44.84146" lon="6.74578">
        <ele>1996.8</ele>
        <time>2026-03-03T08:03:11.999Z</time>
      </trkpt>
      <trkpt lat="44.84146" lon="6.74579">
        <ele>1997.1</ele>
        <time>2026-03-03T08:03:12.999Z</time>
      </trkpt>
      <trkpt lat="44.84146" lon="6.74579">
        <ele>1997.5</ele>
        <time>2026-03-03T08:03:13.999Z</time>
      </trkpt>
      <trkpt lat="44.84145" lon="6.7458">
        <ele>1997.3</ele>
        <time>2026-03-03T08:03:14.999Z</time>
      </trkpt>
      <trkpt lat="44.84144" lon="6.74581">
        <ele>1997.2</ele>
        <time>2026-03-03T08:03:15.999Z</time>
      </trkpt>
      <trkpt lat="44.84143" lon="6.74582">
        <ele>1997.2</ele>
        <time>2026-03-03T08:03:16.999Z</time>
      </trkpt>
      <trkpt lat="44.84143" lon="6.74583">
        <ele>1996.9</ele>
        <time>2026-03-03T08:03:17.999Z</time>
      </trkpt>
      <trkpt lat="44.84142" lon="6.74583">
        <ele>1996.7</ele>
        <time>2026-03-03T08:03:18.999Z</time>
      </trkpt>
      <trkpt lat="44.84142" lon="6.74584">
        <ele>1996.9</ele>
        <time>2026-03-03T08:03:19.999Z</time>
      </trkpt>
      <trkpt lat="44.84141" lon="6.74584">
        <ele>1996.9</ele>
        <time>2026-03-03T08:03:20.999Z</time>
      </trkpt>
      <trkpt lat="44.84139" lon="6.74585">
        <ele>1996.9</ele>
        <time>2026-03-03T08:03:21.999Z</time>
      </trkpt>
      <trkpt lat="44.84139" lon="6.74586">
        <ele>1996.9</ele>
        <time>2026-03-03T08:03:22.999Z</time>
      </trkpt>
      <trkpt lat="44.84139" lon="6.74585">
        <ele>1996.8</ele>
        <time>2026-03-03T08:03:23.999Z</time>
      </trkpt>
      <trkpt lat="44.84138" lon="6.74586">
        <ele>1996.9</ele>
        <time>2026-03-03T08:03:24.999Z</time>
      </trkpt>
      <trkpt lat="44.84137" lon="6.74586">
        <ele>1997.1</ele>
        <time>2026-03-03T08:03:25.999Z</time>
      </trkpt>
      <trkpt lat="44.84137" lon="6.74587">
        <ele>1997.3</ele>
        <time>2026-03-03T08:03:26.999Z</time>
      </trkpt>
      <trkpt lat="44.84136" lon="6.74588">
        <ele>1997.7</ele>
        <time>2026-03-03T08:03:27.999Z</time>
      </trkpt>
      <trkpt lat="44.84136" lon="6.74589">
        <ele>1997.9</ele>
        <time>2026-03-03T08:03:28.999Z</time>
      </trkpt>
      <trkpt lat="44.84135" lon="6.7459">
        <ele>1997.9</ele>
        <time>2026-03-03T08:03:29.999Z</time>
      </trkpt>
      <trkpt lat="44.84134" lon="6.7459">
        <ele>1997.7</ele>
        <time>2026-03-03T08:03:30.999Z</time>
      </trkpt>
      <trkpt lat="44.84133" lon="6.74591">
        <ele>1998</ele>
        <time>2026-03-03T08:03:31.999Z</time>
      </trkpt>
      <trkpt lat="44.84133" lon="6.74591">
        <ele>1998.2</ele>
        <time>2026-03-03T08:03:32.999Z</time>
      </trkpt>
      <trkpt lat="44.84132" lon="6.74591">
        <ele>1998.5</ele>
        <time>2026-03-03T08:03:33.999Z</time>
      </trkpt>
      <trkpt lat="44.84131" lon="6.74592">
        <ele>1998.6</ele>
        <time>2026-03-03T08:03:34.999Z</time>
      </trkpt>
      <trkpt lat="44.8413" lon="6.74592">
        <ele>1998.5</ele>
        <time>2026-03-03T08:03:35.999Z</time>
      </trkpt>
      <trkpt lat="44.84129" lon="6.74593">
        <ele>1998.4</ele>
        <time>2026-03-03T08:03:36.999Z</time>
      </trkpt>
      <trkpt lat="44.84128" lon="6.74595">
        <ele>1998.4</ele>
        <time>2026-03-03T08:03:37.999Z</time>
      </trkpt>
      <trkpt lat="44.84128" lon="6.74596">
        <ele>1998</ele>
        <time>2026-03-03T08:03:38.999Z</time>
      </trkpt>
      <trkpt lat="44.84126" lon="6.74597">
        <ele>1997.8</ele>
        <time>2026-03-03T08:03:39.999Z</time>
      </trkpt>
      <trkpt lat="44.84126" lon="6.74598">
        <ele>1997.4</ele>
        <time>2026-03-03T08:03:40.999Z</time>
      </trkpt>
      <trkpt lat="44.84124" lon="6.74599">
        <ele>1997.4</ele>
        <time>2026-03-03T08:03:41.999Z</time>
      </trkpt>
      <trkpt lat="44.84123" lon="6.74599">
        <ele>1997.8</ele>
        <time>2026-03-03T08:03:42.999Z</time>
      </trkpt>
      <trkpt lat="44.84122" lon="6.74599">
        <ele>1997.9</ele>
        <time>2026-03-03T08:03:43.999Z</time>
      </trkpt>
      <trkpt lat="44.84121" lon="6.746">
        <ele>1997.8</ele>
        <time>2026-03-03T08:03:44.999Z</time>
      </trkpt>
      <trkpt lat="44.8412" lon="6.746">
        <ele>1997.6</ele>
        <time>2026-03-03T08:03:45.999Z</time>
      </trkpt>
      <trkpt lat="44.8412" lon="6.74601">
        <ele>1997.8</ele>
        <time>2026-03-03T08:03:46.999Z</time>
      </trkpt>
      <trkpt lat="44.84119" lon="6.74602">
        <ele>1997.4</ele>
        <time>2026-03-03T08:03:47.999Z</time>
      </trkpt>
      <trkpt lat="44.84119" lon="6.74603">
        <ele>1997.2</ele>
        <time>2026-03-03T08:03:48.999Z</time>
      </trkpt>
      <trkpt lat="44.84119" lon="6.74604">
        <ele>1997.2</ele>
        <time>2026-03-03T08:03:49.999Z</time>
      </trkpt>
      <trkpt lat="44.84118" lon="6.74605">
        <ele>1997.2</ele>
        <time>2026-03-03T08:03:50.999Z</time>
      </trkpt>
      <trkpt lat="44.84117" lon="6.74606">
        <ele>1997.1</ele>
        <time>2026-03-03T08:03:51.999Z</time>
      </trkpt>
      <trkpt lat="44.84117" lon="6.74606">
        <ele>1996.8</ele>
        <time>2026-03-03T08:03:52.999Z</time>
      </trkpt>
      <trkpt lat="44.84116" lon="6.74607">
        <ele>1996.6</ele>
        <time>2026-03-03T08:03:53.999Z</time>
      </trkpt>
      <trkpt lat="44.84115" lon="6.74608">
        <ele>1996.6</ele>
        <time>2026-03-03T08:03:54.999Z</time>
      </trkpt>
      <trkpt lat="44.84114" lon="6.74608">
        <ele>1996.9</ele>
        <time>2026-03-03T08:03:55.999Z</time>
      </trkpt>
      <trkpt lat="44.84113" lon="6.74609">
        <ele>1997.1</ele>
        <time>2026-03-03T08:03:56.999Z</time>
      </trkpt>
      <trkpt lat="44.84112" lon="6.74609">
        <ele>1997.4</ele>
        <time>2026-03-03T08:03:57.999Z</time>
      </trkpt>
      <trkpt lat="44.84111" lon="6.7461">
        <ele>1997.3</ele>
        <time>2026-03-03T08:03:58.999Z</time>
      </trkpt>
      <trkpt lat="44.8411" lon="6.74611">
        <ele>1997</ele>
        <time>2026-03-03T08:03:59.999Z</time>
      </trkpt>
      <trkpt lat="44.84109" lon="6.74612">
        <ele>1996.6</ele>
        <time>2026-03-03T08:04:00.999Z</time>
      </trkpt>
      <trkpt lat="44.84108" lon="6.74614">
        <ele>1996.5</ele>
        <time>2026-03-03T08:04:01.999Z</time>
      </trkpt>
      <trkpt lat="44.84107" lon="6.74615">
        <ele>1996.3</ele>
        <time>2026-03-03T08:04:02.999Z</time>
      </trkpt>
      <trkpt lat="44.84106" lon="6.74616">
        <ele>1996.1</ele>
        <time>2026-03-03T08:04:03.999Z</time>
      </trkpt>
      <trkpt lat="44.84105" lon="6.74616">
        <ele>1996.3</ele>
        <time>2026-03-03T08:04:04.999Z</time>
      </trkpt>
      <trkpt lat="44.84105" lon="6.74617">
        <ele>1996.5</ele>
        <time>2026-03-03T08:04:05.999Z</time>
      </trkpt>
      <trkpt lat="44.84104" lon="6.74618">
        <ele>1996.7</ele>
        <time>2026-03-03T08:04:06.999Z</time>
      </trkpt>
      <trkpt lat="44.84103" lon="6.74619">
        <ele>1996.9</ele>
        <time>2026-03-03T08:04:07.999Z</time>
      </trkpt>
      <trkpt lat="44.84103" lon="6.7462">
        <ele>1996.9</ele>
        <time>2026-03-03T08:04:08.999Z</time>
      </trkpt>
      <trkpt lat="44.84103" lon="6.74621">
        <ele>1997.1</ele>
        <time>2026-03-03T08:04:09.999Z</time>
      </trkpt>
      <trkpt lat="44.84102" lon="6.74622">
        <ele>1997.3</ele>
        <time>2026-03-03T08:04:10.999Z</time>
      </trkpt>
      <trkpt lat="44.84102" lon="6.74622">
        <ele>1997.5</ele>
        <time>2026-03-03T08:04:11.999Z</time>
      </trkpt>
      <trkpt lat="44.84102" lon="6.74622">
        <ele>1997.7</ele>
        <time>2026-03-03T08:04:12.999Z</time>
      </trkpt>
      <trkpt lat="44.84101" lon="6.74623">
        <ele>1997.5</ele>
        <time>2026-03-03T08:04:13.999Z</time>
      </trkpt>
      <trkpt lat="44.84101" lon="6.74624">
        <ele>1997.6</ele>
        <time>2026-03-03T08:04:14.999Z</time>
      </trkpt>
      <trkpt lat="44.841" lon="6.74625">
        <ele>1998</ele>
        <time>2026-03-03T08:04:15.999Z</time>
      </trkpt>
      <trkpt lat="44.84099" lon="6.74626">
        <ele>1998.2</ele>
        <time>2026-03-03T08:04:16.999Z</time>
      </trkpt>
      <trkpt lat="44.84098" lon="6.74627">
        <ele>1998.4</ele>
        <time>2026-03-03T08:04:17.999Z</time>
      </trkpt>
      <trkpt lat="44.84097" lon="6.74627">
        <ele>1998.3</ele>
        <time>2026-03-03T08:04:18.999Z</time>
      </trkpt>
      <trkpt lat="44.84096" lon="6.74628">
        <ele>1998.6</ele>
        <time>2026-03-03T08:04:19.999Z</time>
      </trkpt>
      <trkpt lat="44.84096" lon="6.74629">
        <ele>1998.9</ele>
        <time>2026-03-03T08:04:20.999Z</time>
      </trkpt>
      <trkpt lat="44.84095" lon="6.74629">
        <ele>1999.1</ele>
        <time>2026-03-03T08:04:21.999Z</time>
      </trkpt>
      <trkpt lat="44.84094" lon="6.74631">
        <ele>1999.2</ele>
        <time>2026-03-03T08:04:22.999Z</time>
      </trkpt>
      <trkpt lat="44.84094" lon="6.74631">
        <ele>1999.5</ele>
        <time>2026-03-03T08:04:23.999Z</time>
      </trkpt>
      <trkpt lat="44.84093" lon="6.74632">
        <ele>1999.9</ele>
        <time>2026-03-03T08:04:24.999Z</time>
      </trkpt>
      <trkpt lat="44.84094" lon="6.74633">
        <ele>2000</ele>
        <time>2026-03-03T08:04:25.999Z</time>
      </trkpt>
      <trkpt lat="44.84094" lon="6.74634">
        <ele>1999.5</ele>
        <time>2026-03-03T08:04:26.999Z</time>
      </trkpt>
      <trkpt lat="44.84093" lon="6.74635">
        <ele>1999.4</ele>
        <time>2026-03-03T08:04:27.999Z</time>
      </trkpt>
      <trkpt lat="44.84092" lon="6.74635">
        <ele>1999.5</ele>
        <time>2026-03-03T08:04:28.999Z</time>
      </trkpt>
      <trkpt lat="44.84092" lon="6.74636">
        <ele>1999.8</ele>
        <time>2026-03-03T08:04:29.999Z</time>
      </trkpt>
      <trkpt lat="44.84091" lon="6.74636">
        <ele>1999.9</ele>
        <time>2026-03-03T08:04:30.999Z</time>
      </trkpt>
      <trkpt lat="44.8409" lon="6.74637">
        <ele>1999.9</ele>
        <time>2026-03-03T08:04:31.999Z</time>
      </trkpt>
      <trkpt lat="44.84089" lon="6.74638">
        <ele>1999.9</ele>
        <time>2026-03-03T08:04:32.999Z</time>
      </trkpt>
      <trkpt lat="44.84088" lon="6.74639">
        <ele>2000.2</ele>
        <time>2026-03-03T08:04:33.999Z</time>
      </trkpt>
      <trkpt lat="44.84087" lon="6.7464">
        <ele>2000.3</ele>
        <time>2026-03-03T08:04:34.999Z</time>
      </trkpt>
      <trkpt lat="44.84086" lon="6.74641">
        <ele>2000.2</ele>
        <time>2026-03-03T08:04:35.999Z</time>
      </trkpt>
      <trkpt lat="44.84086" lon="6.74642">
        <ele>2000.1</ele>
        <time>2026-03-03T08:04:36.999Z</time>
      </trkpt>
      <trkpt lat="44.84085" lon="6.74643">
        <ele>2000</ele>
        <time>2026-03-03T08:04:37.999Z</time>
      </trkpt>
      <trkpt lat="44.84084" lon="6.74644">
        <ele>2000</ele>
        <time>2026-03-03T08:04:38.999Z</time>
      </trkpt>
      <trkpt lat="44.84084" lon="6.74644">
        <ele>2000</ele>
        <time>2026-03-03T08:04:39.999Z</time>
      </trkpt>
      <trkpt lat="44.84084" lon="6.74645">
        <ele>2000</ele>
        <time>2026-03-03T08:04:40.999Z</time>
      </trkpt>
      <trkpt lat="44.84083" lon="6.74645">
        <ele>2000</ele>
        <time>2026-03-03T08:04:41.999Z</time>
      </trkpt>
      <trkpt lat="44.84083" lon="6.74645">
        <ele>2000</ele>
        <time>2026-03-03T08:04:42.999Z</time>
      </trkpt>
      <trkpt lat="44.84082" lon="6.74646">
        <ele>2000.2</ele>
        <time>2026-03-03T08:04:43.999Z</time>
      </trkpt>
      <trkpt lat="44.84081" lon="6.74646">
        <ele>2000.3</ele>
        <time>2026-03-03T08:04:44.999Z</time>
      </trkpt>
      <trkpt lat="44.8408" lon="6.74646">
        <ele>2000.4</ele>
        <time>2026-03-03T08:04:45.999Z</time>
      </trkpt>
      <trkpt lat="44.84079" lon="6.74646">
        <ele>2000.6</ele>
        <time>2026-03-03T08:04:46.999Z</time>
      </trkpt>
      <trkpt lat="44.84078" lon="6.74647">
        <ele>2000.9</ele>
        <time>2026-03-03T08:04:47.999Z</time>
      </trkpt>
      <trkpt lat="44.84077" lon="6.74646">
        <ele>2001.3</ele>
        <time>2026-03-03T08:04:48.999Z</time>
      </trkpt>
      <trkpt lat="44.84076" lon="6.74646">
        <ele>2001.5</ele>
        <time>2026-03-03T08:04:49.999Z</time>
      </trkpt>
      <trkpt lat="44.84075" lon="6.74647">
        <ele>2001.5</ele>
        <time>2026-03-03T08:04:50.999Z</time>
      </trkpt>
      <trkpt lat="44.84076" lon="6.74648">
        <ele>2001.4</ele>
        <time>2026-03-03T08:04:51.999Z</time>
      </trkpt>
      <trkpt lat="44.84075" lon="6.74648">
        <ele>2001.2</ele>
        <time>2026-03-03T08:04:52.999Z</time>
      </trkpt>
      <trkpt lat="44.84074" lon="6.74649">
        <ele>2001.2</ele>
        <time>2026-03-03T08:04:53.999Z</time>
      </trkpt>
      <trkpt lat="44.84074" lon="6.74649">
        <ele>2001.4</ele>
        <time>2026-03-03T08:04:54.999Z</time>
      </trkpt>
      <trkpt lat="44.84073" lon="6.74649">
        <ele>2001.6</ele>
        <time>2026-03-03T08:04:55.999Z</time>
      </trkpt>
      <trkpt lat="44.84071" lon="6.7465">
        <ele>2001.5</ele>
        <time>2026-03-03T08:04:56.999Z</time>
      </trkpt>
      <trkpt lat="44.8407" lon="6.7465">
        <ele>2001.5</ele>
        <time>2026-03-03T08:04:57.999Z</time>
      </trkpt>
      <trkpt lat="44.84069" lon="6.74651">
        <ele>2001.7</ele>
        <time>2026-03-03T08:04:58.999Z</time>
      </trkpt>
      <trkpt lat="44.84068" lon="6.74651">
        <ele>2001.7</ele>
        <time>2026-03-03T08:04:59.999Z</time>
      </trkpt>
      <trkpt lat="44.84068" lon="6.74652">
        <ele>2001.5</ele>
        <time>2026-03-03T08:05:00.999Z</time>
      </trkpt>
      <trkpt lat="44.84066" lon="6.74653">
        <ele>2001.3</ele>
        <time>2026-03-03T08:05:01.999Z</time>
      </trkpt>
      <trkpt lat="44.84065" lon="6.74652">
        <ele>2001.4</ele>
        <time>2026-03-03T08:05:02.999Z</time>
      </trkpt>
      <trkpt lat="44.84065" lon="6.74652">
        <ele>2001.5</ele>
        <time>2026-03-03T08:05:03.999Z</time>
      </trkpt>
      <trkpt lat="44.84064" lon="6.74652">
        <ele>2001.6</ele>
        <time>2026-03-03T08:05:04.999Z</time>
      </trkpt>
      <trkpt lat="44.84063" lon="6.74653">
        <ele>2001.7</ele>
        <time>2026-03-03T08:05:05.999Z</time>
      </trkpt>
      <trkpt lat="44.84062" lon="6.74653">
        <ele>2001.5</ele>
        <time>2026-03-03T08:05:06.999Z</time>
      </trkpt>
      <trkpt lat="44.84062" lon="6.74654">
        <ele>2001.7</ele>
        <time>2026-03-03T08:05:07.999Z</time>
      </trkpt>
      <trkpt lat="44.84062" lon="6.74654">
        <ele>2002</ele>
        <time>2026-03-03T08:05:08.999Z</time>
      </trkpt>
      <trkpt lat="44.84061" lon="6.74654">
        <ele>2002.3</ele>
        <time>2026-03-03T08:05:09.999Z</time>
      </trkpt>
      <trkpt lat="44.84061" lon="6.74655">
        <ele>2002.3</ele>
        <time>2026-03-03T08:05:10.999Z</time>
      </trkpt>
      <trkpt lat="44.8406" lon="6.74655">
        <ele>2002.3</ele>
        <time>2026-03-03T08:05:11.999Z</time>
      </trkpt>
      <trkpt lat="44.84059" lon="6.74656">
        <ele>2002.3</ele>
        <time>2026-03-03T08:05:12.999Z</time>
      </trkpt>
      <trkpt lat="44.84058" lon="6.74657">
        <ele>2002.6</ele>
        <time>2026-03-03T08:05:13.999Z</time>
      </trkpt>
      <trkpt lat="44.84058" lon="6.74657">
        <ele>2002.8</ele>
        <time>2026-03-03T08:05:14.999Z</time>
      </trkpt>
      <trkpt lat="44.84057" lon="6.74657">
        <ele>2002.9</ele>
        <time>2026-03-03T08:05:15.999Z</time>
      </trkpt>
      <trkpt lat="44.84056" lon="6.74657">
        <ele>2003.2</ele>
        <time>2026-03-03T08:05:16.999Z</time>
      </trkpt>
      <trkpt lat="44.84055" lon="6.74658">
        <ele>2003.3</ele>
        <time>2026-03-03T08:05:17.999Z</time>
      </trkpt>
      <trkpt lat="44.84055" lon="6.74658">
        <ele>2003.5</ele>
        <time>2026-03-03T08:05:18.999Z</time>
      </trkpt>
      <trkpt lat="44.84054" lon="6.74657">
        <ele>2004</ele>
        <time>2026-03-03T08:05:19.999Z</time>
      </trkpt>
      <trkpt lat="44.84054" lon="6.74658">
        <ele>2003.7</ele>
        <time>2026-03-03T08:05:20.999Z</time>
      </trkpt>
      <trkpt lat="44.84053" lon="6.74659">
        <ele>2003.6</ele>
        <time>2026-03-03T08:05:21.999Z</time>
      </trkpt>
      <trkpt lat="44.84053" lon="6.74659">
        <ele>2003.4</ele>
        <time>2026-03-03T08:05:22.999Z</time>
      </trkpt>
      <trkpt lat="44.84052" lon="6.74659">
        <ele>2003.2</ele>
        <time>2026-03-03T08:05:23.999Z</time>
      </trkpt>
      <trkpt lat="44.84052" lon="6.7466">
        <ele>2003.3</ele>
        <time>2026-03-03T08:05:24.999Z</time>
      </trkpt>
      <trkpt lat="44.84051" lon="6.7466">
        <ele>2003.3</ele>
        <time>2026-03-03T08:05:25.999Z</time>
      </trkpt>
      <trkpt lat="44.8405" lon="6.74659">
        <ele>2003.7</ele>
        <time>2026-03-03T08:05:26.999Z</time>
      </trkpt>
      <trkpt lat="44.8405" lon="6.74659">
        <ele>2004.2</ele>
        <time>2026-03-03T08:05:27.999Z</time>
      </trkpt>
      <trkpt lat="44.84049" lon="6.74658">
        <ele>2004.6</ele>
        <time>2026-03-03T08:05:28.999Z</time>
      </trkpt>
      <trkpt lat="44.84048" lon="6.74659">
        <ele>2005</ele>
        <time>2026-03-03T08:05:29.999Z</time>
      </trkpt>
      <trkpt lat="44.84048" lon="6.7466">
        <ele>2005</ele>
        <time>2026-03-03T08:05:30.999Z</time>
      </trkpt>
      <trkpt lat="44.84046" lon="6.74661">
        <ele>2004.7</ele>
        <time>2026-03-03T08:05:31.999Z</time>
      </trkpt>
      <trkpt lat="44.84045" lon="6.74661">
        <ele>2004.6</ele>
        <time>2026-03-03T08:05:32.999Z</time>
      </trkpt>
      <trkpt lat="44.84044" lon="6.74661">
        <ele>2004.7</ele>
        <time>2026-03-03T08:05:33.999Z</time>
      </trkpt>
      <trkpt lat="44.84043" lon="6.74662">
        <ele>2004.8</ele>
        <time>2026-03-03T08:05:34.999Z</time>
      </trkpt>
      <trkpt lat="44.84042" lon="6.74663">
        <ele>2004.7</ele>
        <time>2026-03-03T08:05:35.999Z</time>
      </trkpt>
      <trkpt lat="44.84041" lon="6.74664">
        <ele>2004.6</ele>
        <time>2026-03-03T08:05:36.999Z</time>
      </trkpt>
      <trkpt lat="44.84041" lon="6.74664">
        <ele>2004.4</ele>
        <time>2026-03-03T08:05:37.999Z</time>
      </trkpt>
      <trkpt lat="44.8404" lon="6.74664">
        <ele>2004.4</ele>
        <time>2026-03-03T08:05:38.999Z</time>
      </trkpt>
      <trkpt lat="44.84039" lon="6.74664">
        <ele>2004.9</ele>
        <time>2026-03-03T08:05:39.999Z</time>
      </trkpt>
      <trkpt lat="44.84038" lon="6.74664">
        <ele>2005.1</ele>
        <time>2026-03-03T08:05:40.999Z</time>
      </trkpt>
      <trkpt lat="44.84037" lon="6.74665">
        <ele>2004.9</ele>
        <time>2026-03-03T08:05:41.999Z</time>
      </trkpt>
      <trkpt lat="44.84036" lon="6.74665">
        <ele>2004.7</ele>
        <time>2026-03-03T08:05:42.999Z</time>
      </trkpt>
      <trkpt lat="44.84036" lon="6.74666">
        <ele>2005</ele>
        <time>2026-03-03T08:05:43.999Z</time>
      </trkpt>
      <trkpt lat="44.84035" lon="6.74667">
        <ele>2005.3</ele>
        <time>2026-03-03T08:05:44.999Z</time>
      </trkpt>
      <trkpt lat="44.84034" lon="6.74667">
        <ele>2005.4</ele>
        <time>2026-03-03T08:05:45.999Z</time>
      </trkpt>
      <trkpt lat="44.84033" lon="6.74667">
        <ele>2005.5</ele>
        <time>2026-03-03T08:05:46.999Z</time>
      </trkpt>
      <trkpt lat="44.84032" lon="6.74667">
        <ele>2005.9</ele>
        <time>2026-03-03T08:05:47.999Z</time>
      </trkpt>
      <trkpt lat="44.84031" lon="6.74667">
        <ele>2006.3</ele>
        <time>2026-03-03T08:05:48.999Z</time>
      </trkpt>
      <trkpt lat="44.8403" lon="6.74668">
        <ele>2006.5</ele>
        <time>2026-03-03T08:05:49.999Z</time>
      </trkpt>
      <trkpt lat="44.84029" lon="6.74668">
        <ele>2006.5</ele>
        <time>2026-03-03T08:05:50.999Z</time>
      </trkpt>
      <trkpt lat="44.84028" lon="6.74668">
        <ele>2006.7</ele>
        <time>2026-03-03T08:05:51.999Z</time>
      </trkpt>
      <trkpt lat="44.84027" lon="6.74669">
        <ele>2006.8</ele>
        <time>2026-03-03T08:05:52.999Z</time>
      </trkpt>
      <trkpt lat="44.84027" lon="6.74669">
        <ele>2006.7</ele>
        <time>2026-03-03T08:05:53.999Z</time>
      </trkpt>
      <trkpt lat="44.84026" lon="6.7467">
        <ele>2006.6</ele>
        <time>2026-03-03T08:05:54.999Z</time>
      </trkpt>
      <trkpt lat="44.84025" lon="6.7467">
        <ele>2006.6</ele>
        <time>2026-03-03T08:05:55.999Z</time>
      </trkpt>
      <trkpt lat="44.84024" lon="6.74671">
        <ele>2006.8</ele>
        <time>2026-03-03T08:05:56.999Z</time>
      </trkpt>
      <trkpt lat="44.84023" lon="6.74671">
        <ele>2006.8</ele>
        <time>2026-03-03T08:05:57.999Z</time>
      </trkpt>
      <trkpt lat="44.84023" lon="6.74671">
        <ele>2006.8</ele>
        <time>2026-03-03T08:05:58.999Z</time>
      </trkpt>
      <trkpt lat="44.84023" lon="6.74671">
        <ele>2006.8</ele>
        <time>2026-03-03T08:05:59.999Z</time>
      </trkpt>
      <trkpt lat="44.84023" lon="6.74672">
        <ele>2006.8</ele>
        <time>2026-03-03T08:06:00.999Z</time>
      </trkpt>
      <trkpt lat="44.84022" lon="6.74672">
        <ele>2006.9</ele>
        <time>2026-03-03T08:06:01.999Z</time>
      </trkpt>
      <trkpt lat="44.84021" lon="6.74672">
        <ele>2007.1</ele>
        <time>2026-03-03T08:06:02.999Z</time>
      </trkpt>
      <trkpt lat="44.8402" lon="6.74673">
        <ele>2007.1</ele>
        <time>2026-03-03T08:06:03.999Z</time>
      </trkpt>
      <trkpt lat="44.84019" lon="6.74673">
        <ele>2007.1</ele>
        <time>2026-03-03T08:06:04.999Z</time>
      </trkpt>
      <trkpt lat="44.84018" lon="6.74673">
        <ele>2007.5</ele>
        <time>2026-03-03T08:06:05.999Z</time>
      </trkpt>
      <trkpt lat="44.84016" lon="6.74673">
        <ele>2007.7</ele>
        <time>2026-03-03T08:06:06.999Z</time>
      </trkpt>
      <trkpt lat="44.84015" lon="6.74674">
        <ele>2007.7</ele>
        <time>2026-03-03T08:06:07.999Z</time>
      </trkpt>
      <trkpt lat="44.84014" lon="6.74674">
        <ele>2007.6</ele>
        <time>2026-03-03T08:06:08.999Z</time>
      </trkpt>
      <trkpt lat="44.84013" lon="6.74674">
        <ele>2007.4</ele>
        <time>2026-03-03T08:06:09.999Z</time>
      </trkpt>
      <trkpt lat="44.84012" lon="6.74675">
        <ele>2007.4</ele>
        <time>2026-03-03T08:06:10.999Z</time>
      </trkpt>
      <trkpt lat="44.84011" lon="6.74675">
        <ele>2007.5</ele>
        <time>2026-03-03T08:06:11.999Z</time>
      </trkpt>
      <trkpt lat="44.84011" lon="6.74676">
        <ele>2007.4</ele>
        <time>2026-03-03T08:06:12.999Z</time>
      </trkpt>
      <trkpt lat="44.8401" lon="6.74677">
        <ele>2006.9</ele>
        <time>2026-03-03T08:06:13.999Z</time>
      </trkpt>
      <trkpt lat="44.8401" lon="6.74677">
        <ele>2006.6</ele>
        <time>2026-03-03T08:06:14.999Z</time>
      </trkpt>
      <trkpt lat="44.8401" lon="6.74677">
        <ele>2006.8</ele>
        <time>2026-03-03T08:06:15.999Z</time>
      </trkpt>
      <trkpt lat="44.84009" lon="6.74678">
        <ele>2007.1</ele>
        <time>2026-03-03T08:06:16.999Z</time>
      </trkpt>
      <trkpt lat="44.84008" lon="6.74679">
        <ele>2007.5</ele>
        <time>2026-03-03T08:06:17.999Z</time>
      </trkpt>
      <trkpt lat="44.84008" lon="6.74679">
        <ele>2007.7</ele>
        <time>2026-03-03T08:06:18.999Z</time>
      </trkpt>
      <trkpt lat="44.84007" lon="6.7468">
        <ele>2007.5</ele>
        <time>2026-03-03T08:06:19.999Z</time>
      </trkpt>
      <trkpt lat="44.84006" lon="6.7468">
        <ele>2007.6</ele>
        <time>2026-03-03T08:06:20.999Z</time>
      </trkpt>
      <trkpt lat="44.84005" lon="6.74681">
        <ele>2007.9</ele>
        <time>2026-03-03T08:06:21.999Z</time>
      </trkpt>
      <trkpt lat="44.84005" lon="6.74681">
        <ele>2008.3</ele>
        <time>2026-03-03T08:06:22.999Z</time>
      </trkpt>
      <trkpt lat="44.84004" lon="6.74681">
        <ele>2008.6</ele>
        <time>2026-03-03T08:06:23.999Z</time>
      </trkpt>
      <trkpt lat="44.84004" lon="6.74681">
        <ele>2008.8</ele>
        <time>2026-03-03T08:06:24.999Z</time>
      </trkpt>
      <trkpt lat="44.84003" lon="6.74681">
        <ele>2008.8</ele>
        <time>2026-03-03T08:06:25.999Z</time>
      </trkpt>
      <trkpt lat="44.84002" lon="6.74682">
        <ele>2008.9</ele>
        <time>2026-03-03T08:06:26.999Z</time>
      </trkpt>
      <trkpt lat="44.84001" lon="6.74682">
        <ele>2008.9</ele>
        <time>2026-03-03T08:06:27.999Z</time>
      </trkpt>
      <trkpt lat="44.84" lon="6.74683">
        <ele>2008.8</ele>
        <time>2026-03-03T08:06:28.999Z</time>
      </trkpt>
      <trkpt lat="44.84" lon="6.74684">
        <ele>2008.8</ele>
        <time>2026-03-03T08:06:29.999Z</time>
      </trkpt>
      <trkpt lat="44.83999" lon="6.74684">
        <ele>2008.9</ele>
        <time>2026-03-03T08:06:30.999Z</time>
      </trkpt>
      <trkpt lat="44.83998" lon="6.74684">
        <ele>2009.1</ele>
        <time>2026-03-03T08:06:31.999Z</time>
      </trkpt>
      <trkpt lat="44.83996" lon="6.74685">
        <ele>2009</ele>
        <time>2026-03-03T08:06:32.999Z</time>
      </trkpt>
      <trkpt lat="44.83995" lon="6.74686">
        <ele>2009</ele>
        <time>2026-03-03T08:06:33.999Z</time>
      </trkpt>
      <trkpt lat="44.83994" lon="6.74687">
        <ele>2009.2</ele>
        <time>2026-03-03T08:06:34.999Z</time>
      </trkpt>
      <trkpt lat="44.83993" lon="6.74687">
        <ele>2009.4</ele>
        <time>2026-03-03T08:06:35.999Z</time>
      </trkpt>
      <trkpt lat="44.83992" lon="6.74687">
        <ele>2009.6</ele>
        <time>2026-03-03T08:06:36.999Z</time>
      </trkpt>
      <trkpt lat="44.83991" lon="6.74687">
        <ele>2009.6</ele>
        <time>2026-03-03T08:06:37.999Z</time>
      </trkpt>
      <trkpt lat="44.83991" lon="6.74687">
        <ele>2009.9</ele>
        <time>2026-03-03T08:06:38.999Z</time>
      </trkpt>
      <trkpt lat="44.8399" lon="6.74687">
        <ele>2010</ele>
        <time>2026-03-03T08:06:39.999Z</time>
      </trkpt>
      <trkpt lat="44.8399" lon="6.74688">
        <ele>2010</ele>
        <time>2026-03-03T08:06:40.999Z</time>
      </trkpt>
      <trkpt lat="44.83989" lon="6.74688">
        <ele>2010.2</ele>
        <time>2026-03-03T08:06:41.999Z</time>
      </trkpt>
      <trkpt lat="44.83989" lon="6.74688">
        <ele>2010.2</ele>
        <time>2026-03-03T08:06:42.999Z</time>
      </trkpt>
      <trkpt lat="44.83989" lon="6.74688">
        <ele>2010.4</ele>
        <time>2026-03-03T08:06:43.999Z</time>
      </trkpt>
      <trkpt lat="44.83989" lon="6.74689">
        <ele>2010.2</ele>
        <time>2026-03-03T08:06:44.999Z</time>
      </trkpt>
      <trkpt lat="44.83988" lon="6.74689">
        <ele>2010.4</ele>
        <time>2026-03-03T08:06:45.999Z</time>
      </trkpt>
      <trkpt lat="44.83988" lon="6.7469">
        <ele>2010.6</ele>
        <time>2026-03-03T08:06:46.999Z</time>
      </trkpt>
      <trkpt lat="44.83988" lon="6.74691">
        <ele>2010.8</ele>
        <time>2026-03-03T08:06:47.999Z</time>
      </trkpt>
      <trkpt lat="44.83987" lon="6.74692">
        <ele>2011</ele>
        <time>2026-03-03T08:06:48.999Z</time>
      </trkpt>
      <trkpt lat="44.83986" lon="6.74692">
        <ele>2010.9</ele>
        <time>2026-03-03T08:06:49.999Z</time>
      </trkpt>
      <trkpt lat="44.83985" lon="6.74692">
        <ele>2010.9</ele>
        <time>2026-03-03T08:06:50.999Z</time>
      </trkpt>
      <trkpt lat="44.83984" lon="6.74692">
        <ele>2011</ele>
        <time>2026-03-03T08:06:51.999Z</time>
      </trkpt>
      <trkpt lat="44.83984" lon="6.74692">
        <ele>2011.6</ele>
        <time>2026-03-03T08:06:52.999Z</time>
      </trkpt>
      <trkpt lat="44.83983" lon="6.74693">
        <ele>2011.7</ele>
        <time>2026-03-03T08:06:53.999Z</time>
      </trkpt>
      <trkpt lat="44.83983" lon="6.74693">
        <ele>2011.6</ele>
        <time>2026-03-03T08:06:54.999Z</time>
      </trkpt>
      <trkpt lat="44.83982" lon="6.74694">
        <ele>2011.5</ele>
        <time>2026-03-03T08:06:55.999Z</time>
      </trkpt>
      <trkpt lat="44.83981" lon="6.74694">
        <ele>2011.8</ele>
        <time>2026-03-03T08:06:56.999Z</time>
      </trkpt>
      <trkpt lat="44.8398" lon="6.74694">
        <ele>2012.2</ele>
        <time>2026-03-03T08:06:57.999Z</time>
      </trkpt>
      <trkpt lat="44.83979" lon="6.74695">
        <ele>2012.2</ele>
        <time>2026-03-03T08:06:58.999Z</time>
      </trkpt>
      <trkpt lat="44.83979" lon="6.74695">
        <ele>2012.1</ele>
        <time>2026-03-03T08:06:59.999Z</time>
      </trkpt>
      <trkpt lat="44.83978" lon="6.74696">
        <ele>2012.2</ele>
        <time>2026-03-03T08:07:00.999Z</time>
      </trkpt>
      <trkpt lat="44.83977" lon="6.74697">
        <ele>2012.4</ele>
        <time>2026-03-03T08:07:01.999Z</time>
      </trkpt>
      <trkpt lat="44.83976" lon="6.74698">
        <ele>2012.4</ele>
        <time>2026-03-03T08:07:02.999Z</time>
      </trkpt>
      <trkpt lat="44.83974" lon="6.74698">
        <ele>2012.6</ele>
        <time>2026-03-03T08:07:03.999Z</time>
      </trkpt>
      <trkpt lat="44.83973" lon="6.74698">
        <ele>2012.9</ele>
        <time>2026-03-03T08:07:04.999Z</time>
      </trkpt>
      <trkpt lat="44.83973" lon="6.74699">
        <ele>2013.2</ele>
        <time>2026-03-03T08:07:05.999Z</time>
      </trkpt>
      <trkpt lat="44.83972" lon="6.74699">
        <ele>2013.3</ele>
        <time>2026-03-03T08:07:06.999Z</time>
      </trkpt>
      <trkpt lat="44.83971" lon="6.747">
        <ele>2013.2</ele>
        <time>2026-03-03T08:07:07.999Z</time>
      </trkpt>
      <trkpt lat="44.83971" lon="6.747">
        <ele>2013.4</ele>
        <time>2026-03-03T08:07:08.999Z</time>
      </trkpt>
      <trkpt lat="44.8397" lon="6.74701">
        <ele>2013.5</ele>
        <time>2026-03-03T08:07:09.999Z</time>
      </trkpt>
      <trkpt lat="44.83969" lon="6.74702">
        <ele>2013.6</ele>
        <time>2026-03-03T08:07:10.999Z</time>
      </trkpt>
      <trkpt lat="44.83968" lon="6.74701">
        <ele>2014</ele>
        <time>2026-03-03T08:07:11.999Z</time>
      </trkpt>
      <trkpt lat="44.83968" lon="6.74701">
        <ele>2014.1</ele>
        <time>2026-03-03T08:07:12.999Z</time>
      </trkpt>
      <trkpt lat="44.83967" lon="6.74701">
        <ele>2014.1</ele>
        <time>2026-03-03T08:07:13.999Z</time>
      </trkpt>
      <trkpt lat="44.83967" lon="6.74701">
        <ele>2014.2</ele>
        <time>2026-03-03T08:07:14.999Z</time>
      </trkpt>
      <trkpt lat="44.83966" lon="6.74702">
        <ele>2014.4</ele>
        <time>2026-03-03T08:07:15.999Z</time>
      </trkpt>
      <trkpt lat="44.83966" lon="6.74702">
        <ele>2014.7</ele>
        <time>2026-03-03T08:07:16.999Z</time>
      </trkpt>
      <trkpt lat="44.83965" lon="6.74703">
        <ele>2014.6</ele>
        <time>2026-03-03T08:07:17.999Z</time>
      </trkpt>
      <trkpt lat="44.83965" lon="6.74702">
        <ele>2014.4</ele>
        <time>2026-03-03T08:07:18.999Z</time>
      </trkpt>
      <trkpt lat="44.83964" lon="6.74702">
        <ele>2014.3</ele>
        <time>2026-03-03T08:07:19.999Z</time>
      </trkpt>
      <trkpt lat="44.83964" lon="6.74703">
        <ele>2014.4</ele>
        <time>2026-03-03T08:07:20.999Z</time>
      </trkpt>
      <trkpt lat="44.83963" lon="6.74703">
        <ele>2014.4</ele>
        <time>2026-03-03T08:07:21.999Z</time>
      </trkpt>
      <trkpt lat="44.83963" lon="6.74703">
        <ele>2014.3</ele>
        <time>2026-03-03T08:07:22.999Z</time>
      </trkpt>
      <trkpt lat="44.83962" lon="6.74704">
        <ele>2014</ele>
        <time>2026-03-03T08:07:23.999Z</time>
      </trkpt>
      <trkpt lat="44.83962" lon="6.74704">
        <ele>2014.1</ele>
        <time>2026-03-03T08:07:24.999Z</time>
      </trkpt>
      <trkpt lat="44.83961" lon="6.74704">
        <ele>2014.4</ele>
        <time>2026-03-03T08:07:25.999Z</time>
      </trkpt>
      <trkpt lat="44.8396" lon="6.74704">
        <ele>2014.8</ele>
        <time>2026-03-03T08:07:26.999Z</time>
      </trkpt>
      <trkpt lat="44.83959" lon="6.74704">
        <ele>2015.3</ele>
        <time>2026-03-03T08:07:27.999Z</time>
      </trkpt>
      <trkpt lat="44.83959" lon="6.74705">
        <ele>2015.3</ele>
        <time>2026-03-03T08:07:28.999Z</time>
      </trkpt>
      <trkpt lat="44.83958" lon="6.74705">
        <ele>2015.3</ele>
        <time>2026-03-03T08:07:29.999Z</time>
      </trkpt>
      <trkpt lat="44.83958" lon="6.74705">
        <ele>2015.2</ele>
        <time>2026-03-03T08:07:30.999Z</time>
      </trkpt>
      <trkpt lat="44.83957" lon="6.74705">
        <ele>2015.2</ele>
        <time>2026-03-03T08:07:31.999Z</time>
      </trkpt>
      <trkpt lat="44.83957" lon="6.74705">
        <ele>2015.2</ele>
        <time>2026-03-03T08:07:32.999Z</time>
      </trkpt>
      <trkpt lat="44.83956" lon="6.74705">
        <ele>2015.2</ele>
        <time>2026-03-03T08:07:33.999Z</time>
      </trkpt>
      <trkpt lat="44.83955" lon="6.74705">
        <ele>2015.3</ele>
        <time>2026-03-03T08:07:34.999Z</time>
      </trkpt>
      <trkpt lat="44.83954" lon="6.74705">
        <ele>2015.5</ele>
        <time>2026-03-03T08:07:35.999Z</time>
      </trkpt>
      <trkpt lat="44.83953" lon="6.74706">
        <ele>2015.8</ele>
        <time>2026-03-03T08:07:36.999Z</time>
      </trkpt>
      <trkpt lat="44.83952" lon="6.74707">
        <ele>2015.8</ele>
        <time>2026-03-03T08:07:37.999Z</time>
      </trkpt>
      <trkpt lat="44.8395" lon="6.74707">
        <ele>2015.8</ele>
        <time>2026-03-03T08:07:38.999Z</time>
      </trkpt>
      <trkpt lat="44.8395" lon="6.74708">
        <ele>2015.8</ele>
        <time>2026-03-03T08:07:39.999Z</time>
      </trkpt>
      <trkpt lat="44.83949" lon="6.74708">
        <ele>2015.7</ele>
        <time>2026-03-03T08:07:40.999Z</time>
      </trkpt>
      <trkpt lat="44.83948" lon="6.74709">
        <ele>2015.7</ele>
        <time>2026-03-03T08:07:41.999Z</time>
      </trkpt>
      <trkpt lat="44.83947" lon="6.74709">
        <ele>2015.9</ele>
        <time>2026-03-03T08:07:42.999Z</time>
      </trkpt>
      <trkpt lat="44.83947" lon="6.74709">
        <ele>2016</ele>
        <time>2026-03-03T08:07:43.999Z</time>
      </trkpt>
      <trkpt lat="44.83946" lon="6.74709">
        <ele>2016.2</ele>
        <time>2026-03-03T08:07:44.999Z</time>
      </trkpt>
      <trkpt lat="44.83946" lon="6.74709">
        <ele>2016.6</ele>
        <time>2026-03-03T08:07:45.999Z</time>
      </trkpt>
      <trkpt lat="44.83945" lon="6.74709">
        <ele>2017</ele>
        <time>2026-03-03T08:07:46.999Z</time>
      </trkpt>
      <trkpt lat="44.83945" lon="6.74709">
        <ele>2017.5</ele>
        <time>2026-03-03T08:07:47.999Z</time>
      </trkpt>
      <trkpt lat="44.83944" lon="6.7471">
        <ele>2017.8</ele>
        <time>2026-03-03T08:07:48.999Z</time>
      </trkpt>
      <trkpt lat="44.83944" lon="6.7471">
        <ele>2018.1</ele>
        <time>2026-03-03T08:07:49.999Z</time>
      </trkpt>
      <trkpt lat="44.83943" lon="6.74711">
        <ele>2018.3</ele>
        <time>2026-03-03T08:07:50.999Z</time>
      </trkpt>
      <trkpt lat="44.83943" lon="6.74711">
        <ele>2018.5</ele>
        <time>2026-03-03T08:07:51.999Z</time>
      </trkpt>
      <trkpt lat="44.83942" lon="6.74711">
        <ele>2019.1</ele>
        <time>2026-03-03T08:07:52.999Z</time>
      </trkpt>
      <trkpt lat="44.83941" lon="6.74711">
        <ele>2019.3</ele>
        <time>2026-03-03T08:07:53.999Z</time>
      </trkpt>
      <trkpt lat="44.8394" lon="6.74711">
        <ele>2019.6</ele>
        <time>2026-03-03T08:07:54.999Z</time>
      </trkpt>
      <trkpt lat="44.83939" lon="6.74712">
        <ele>2019.9</ele>
        <time>2026-03-03T08:07:55.999Z</time>
      </trkpt>
      <trkpt lat="44.83938" lon="6.74712">
        <ele>2019.8</ele>
        <time>2026-03-03T08:07:56.999Z</time>
      </trkpt>
      <trkpt lat="44.83938" lon="6.74713">
        <ele>2019.6</ele>
        <time>2026-03-03T08:07:57.999Z</time>
      </trkpt>
      <trkpt lat="44.83938" lon="6.74714">
        <ele>2019.3</ele>
        <time>2026-03-03T08:07:58.999Z</time>
      </trkpt>
      <trkpt lat="44.83937" lon="6.74714">
        <ele>2019.4</ele>
        <time>2026-03-03T08:07:59.999Z</time>
      </trkpt>
      <trkpt lat="44.83936" lon="6.74714">
        <ele>2019.4</ele>
        <time>2026-03-03T08:08:00.999Z</time>
      </trkpt>
      <trkpt lat="44.83935" lon="6.74715">
        <ele>2019.4</ele>
        <time>2026-03-03T08:08:01.999Z</time>
      </trkpt>
      <trkpt lat="44.83934" lon="6.74715">
        <ele>2019.4</ele>
        <time>2026-03-03T08:08:02.999Z</time>
      </trkpt>
      <trkpt lat="44.83934" lon="6.74715">
        <ele>2019.4</ele>
        <time>2026-03-03T08:08:03.999Z</time>
      </trkpt>
      <trkpt lat="44.83933" lon="6.74715">
        <ele>2019.5</ele>
        <time>2026-03-03T08:08:04.999Z</time>
      </trkpt>
      <trkpt lat="44.83932" lon="6.74716">
        <ele>2019.7</ele>
        <time>2026-03-03T08:08:05.999Z</time>
      </trkpt>
      <trkpt lat="44.83931" lon="6.74716">
        <ele>2019.9</ele>
        <time>2026-03-03T08:08:06.999Z</time>
      </trkpt>
      <trkpt lat="44.83931" lon="6.74716">
        <ele>2020.2</ele>
        <time>2026-03-03T08:08:07.999Z</time>
      </trkpt>
      <trkpt lat="44.83931" lon="6.74715">
        <ele>2020.4</ele>
        <time>2026-03-03T08:08:08.999Z</time>
      </trkpt>
      <trkpt lat="44.8393" lon="6.74716">
        <ele>2020.4</ele>
        <time>2026-03-03T08:08:09.999Z</time>
      </trkpt>
      <trkpt lat="44.8393" lon="6.74716">
        <ele>2020.5</ele>
        <time>2026-03-03T08:08:10.999Z</time>
      </trkpt>
      <trkpt lat="44.8393" lon="6.74717">
        <ele>2020.4</ele>
        <time>2026-03-03T08:08:11.999Z</time>
      </trkpt>
      <trkpt lat="44.83929" lon="6.74718">
        <ele>2020.4</ele>
        <time>2026-03-03T08:08:12.999Z</time>
      </trkpt>
      <trkpt lat="44.83928" lon="6.74718">
        <ele>2020.6</ele>
        <time>2026-03-03T08:08:13.999Z</time>
      </trkpt>
      <trkpt lat="44.83927" lon="6.74719">
        <ele>2020.7</ele>
        <time>2026-03-03T08:08:14.999Z</time>
      </trkpt>
      <trkpt lat="44.83927" lon="6.7472">
        <ele>2020.8</ele>
        <time>2026-03-03T08:08:15.999Z</time>
      </trkpt>
      <trkpt lat="44.83926" lon="6.7472">
        <ele>2020.9</ele>
        <time>2026-03-03T08:08:16.999Z</time>
      </trkpt>
      <trkpt lat="44.83925" lon="6.7472">
        <ele>2020.9</ele>
        <time>2026-03-03T08:08:17.999Z</time>
      </trkpt>
      <trkpt lat="44.83925" lon="6.74721">
        <ele>2021</ele>
        <time>2026-03-03T08:08:18.999Z</time>
      </trkpt>
      <trkpt lat="44.83925" lon="6.74721">
        <ele>2021.3</ele>
        <time>2026-03-03T08:08:19.999Z</time>
      </trkpt>
      <trkpt lat="44.83924" lon="6.74721">
        <ele>2021.6</ele>
        <time>2026-03-03T08:08:20.999Z</time>
      </trkpt>
      <trkpt lat="44.83924" lon="6.74722">
        <ele>2021.7</ele>
        <time>2026-03-03T08:08:21.999Z</time>
      </trkpt>
      <trkpt lat="44.83923" lon="6.74723">
        <ele>2021.9</ele>
        <time>2026-03-03T08:08:22.999Z</time>
      </trkpt>
      <trkpt lat="44.83922" lon="6.74723">
        <ele>2021.8</ele>
        <time>2026-03-03T08:08:23.999Z</time>
      </trkpt>
      <trkpt lat="44.83922" lon="6.74724">
        <ele>2021.8</ele>
        <time>2026-03-03T08:08:24.999Z</time>
      </trkpt>
      <trkpt lat="44.83921" lon="6.74725">
        <ele>2021.7</ele>
        <time>2026-03-03T08:08:25.999Z</time>
      </trkpt>
      <trkpt lat="44.8392" lon="6.74725">
        <ele>2021.7</ele>
        <time>2026-03-03T08:08:26.999Z</time>
      </trkpt>
      <trkpt lat="44.8392" lon="6.74725">
        <ele>2021.7</ele>
        <time>2026-03-03T08:08:27.999Z</time>
      </trkpt>
      <trkpt lat="44.8392" lon="6.74726">
        <ele>2021.6</ele>
        <time>2026-03-03T08:08:28.999Z</time>
      </trkpt>
      <trkpt lat="44.83919" lon="6.74726">
        <ele>2021.3</ele>
        <time>2026-03-03T08:08:29.999Z</time>
      </trkpt>
      <trkpt lat="44.83918" lon="6.74727">
        <ele>2020.9</ele>
        <time>2026-03-03T08:08:30.999Z</time>
      </trkpt>
      <trkpt lat="44.83917" lon="6.74727">
        <ele>2021.2</ele>
        <time>2026-03-03T08:08:31.999Z</time>
      </trkpt>
      <trkpt lat="44.83916" lon="6.74728">
        <ele>2021.3</ele>
        <time>2026-03-03T08:08:32.999Z</time>
      </trkpt>
      <trkpt lat="44.83916" lon="6.74728">
        <ele>2021.3</ele>
        <time>2026-03-03T08:08:33.999Z</time>
      </trkpt>
      <trkpt lat="44.83915" lon="6.74729">
        <ele>2021.3</ele>
        <time>2026-03-03T08:08:34.999Z</time>
      </trkpt>
      <trkpt lat="44.83914" lon="6.74729">
        <ele>2021.4</ele>
        <time>2026-03-03T08:08:35.999Z</time>
      </trkpt>
      <trkpt lat="44.83914" lon="6.7473">
        <ele>2021.5</ele>
        <time>2026-03-03T08:08:36.999Z</time>
      </trkpt>
      <trkpt lat="44.83914" lon="6.74731">
        <ele>2021.5</ele>
        <time>2026-03-03T08:08:37.999Z</time>
      </trkpt>
      <trkpt lat="44.83913" lon="6.74731">
        <ele>2021.6</ele>
        <time>2026-03-03T08:08:38.999Z</time>
      </trkpt>
      <trkpt lat="44.83913" lon="6.74732">
        <ele>2021.6</ele>
        <time>2026-03-03T08:08:39.999Z</time>
      </trkpt>
      <trkpt lat="44.83912" lon="6.74733">
        <ele>2021.7</ele>
        <time>2026-03-03T08:08:40.999Z</time>
      </trkpt>
      <trkpt lat="44.83912" lon="6.74733">
        <ele>2021.7</ele>
        <time>2026-03-03T08:08:41.999Z</time>
      </trkpt>
      <trkpt lat="44.83911" lon="6.74733">
        <ele>2021.7</ele>
        <time>2026-03-03T08:08:42.999Z</time>
      </trkpt>
      <trkpt lat="44.8391" lon="6.74733">
        <ele>2021.9</ele>
        <time>2026-03-03T08:08:43.999Z</time>
      </trkpt>
      <trkpt lat="44.8391" lon="6.74733">
        <ele>2022.1</ele>
        <time>2026-03-03T08:08:44.999Z</time>
      </trkpt>
      <trkpt lat="44.83909" lon="6.74733">
        <ele>2022.3</ele>
        <time>2026-03-03T08:08:45.999Z</time>
      </trkpt>
      <trkpt lat="44.83909" lon="6.74734">
        <ele>2022.4</ele>
        <time>2026-03-03T08:08:46.999Z</time>
      </trkpt>
      <trkpt lat="44.83908" lon="6.74734">
        <ele>2022.6</ele>
        <time>2026-03-03T08:08:47.999Z</time>
      </trkpt>
      <trkpt lat="44.83907" lon="6.74735">
        <ele>2022.8</ele>
        <time>2026-03-03T08:08:48.999Z</time>
      </trkpt>
      <trkpt lat="44.83906" lon="6.74735">
        <ele>2022.9</ele>
        <time>2026-03-03T08:08:49.999Z</time>
      </trkpt>
      <trkpt lat="44.83905" lon="6.74736">
        <ele>2022.9</ele>
        <time>2026-03-03T08:08:50.999Z</time>
      </trkpt>
      <trkpt lat="44.83904" lon="6.74736">
        <ele>2023.1</ele>
        <time>2026-03-03T08:08:51.999Z</time>
      </trkpt>
      <trkpt lat="44.83904" lon="6.74736">
        <ele>2023.5</ele>
        <time>2026-03-03T08:08:52.999Z</time>
      </trkpt>
      <trkpt lat="44.83904" lon="6.74736">
        <ele>2024</ele>
        <time>2026-03-03T08:08:53.999Z</time>
      </trkpt>
      <trkpt lat="44.83903" lon="6.74736">
        <ele>2024.1</ele>
        <time>2026-03-03T08:08:54.999Z</time>
      </trkpt>
      <trkpt lat="44.83903" lon="6.74736">
        <ele>2023.5</ele>
        <time>2026-03-03T08:08:55.999Z</time>
      </trkpt>
      <trkpt lat="44.83903" lon="6.74736">
        <ele>2023.6</ele>
        <time>2026-03-03T08:08:56.999Z</time>
      </trkpt>
      <trkpt lat="44.83902" lon="6.74736">
        <ele>2023.6</ele>
        <time>2026-03-03T08:08:57.999Z</time>
      </trkpt>
      <trkpt lat="44.839" lon="6.74737">
        <ele>2023.7</ele>
        <time>2026-03-03T08:08:58.999Z</time>
      </trkpt>
      <trkpt lat="44.83899" lon="6.74737">
        <ele>2023.8</ele>
        <time>2026-03-03T08:08:59.999Z</time>
      </trkpt>
      <trkpt lat="44.83898" lon="6.74738">
        <ele>2023.8</ele>
        <time>2026-03-03T08:09:00.999Z</time>
      </trkpt>
      <trkpt lat="44.83897" lon="6.74738">
        <ele>2023.9</ele>
        <time>2026-03-03T08:09:01.999Z</time>
      </trkpt>
      <trkpt lat="44.83896" lon="6.74738">
        <ele>2024.1</ele>
        <time>2026-03-03T08:09:02.999Z</time>
      </trkpt>
      <trkpt lat="44.83895" lon="6.74738">
        <ele>2024.1</ele>
        <time>2026-03-03T08:09:03.999Z</time>
      </trkpt>
      <trkpt lat="44.83894" lon="6.74738">
        <ele>2024.5</ele>
        <time>2026-03-03T08:09:04.999Z</time>
      </trkpt>
      <trkpt lat="44.83893" lon="6.74738">
        <ele>2024.9</ele>
        <time>2026-03-03T08:09:05.999Z</time>
      </trkpt>
      <trkpt lat="44.83892" lon="6.74738">
        <ele>2025.3</ele>
        <time>2026-03-03T08:09:06.999Z</time>
      </trkpt>
      <trkpt lat="44.83892" lon="6.74738">
        <ele>2025.5</ele>
        <time>2026-03-03T08:09:07.999Z</time>
      </trkpt>
      <trkpt lat="44.83891" lon="6.74739">
        <ele>2025.6</ele>
        <time>2026-03-03T08:09:08.999Z</time>
      </trkpt>
      <trkpt lat="44.83891" lon="6.74739">
        <ele>2025.4</ele>
        <time>2026-03-03T08:09:09.999Z</time>
      </trkpt>
      <trkpt lat="44.8389" lon="6.7474">
        <ele>2025.5</ele>
        <time>2026-03-03T08:09:10.999Z</time>
      </trkpt>
      <trkpt lat="44.8389" lon="6.7474">
        <ele>2025.3</ele>
        <time>2026-03-03T08:09:11.999Z</time>
      </trkpt>
      <trkpt lat="44.8389" lon="6.7474">
        <ele>2025.4</ele>
        <time>2026-03-03T08:09:12.999Z</time>
      </trkpt>
      <trkpt lat="44.8389" lon="6.7474">
        <ele>2025.6</ele>
        <time>2026-03-03T08:09:13.999Z</time>
      </trkpt>
      <trkpt lat="44.83889" lon="6.7474">
        <ele>2026</ele>
        <time>2026-03-03T08:09:14.999Z</time>
      </trkpt>
      <trkpt lat="44.83888" lon="6.7474">
        <ele>2026.1</ele>
        <time>2026-03-03T08:09:15.999Z</time>
      </trkpt>
      <trkpt lat="44.83887" lon="6.7474">
        <ele>2026.5</ele>
        <time>2026-03-03T08:09:16.999Z</time>
      </trkpt>
      <trkpt lat="44.83886" lon="6.74741">
        <ele>2026.9</ele>
        <time>2026-03-03T08:09:17.999Z</time>
      </trkpt>
      <trkpt lat="44.83886" lon="6.74741">
        <ele>2027.2</ele>
        <time>2026-03-03T08:09:18.999Z</time>
      </trkpt>
      <trkpt lat="44.83885" lon="6.74742">
        <ele>2027.5</ele>
        <time>2026-03-03T08:09:19.999Z</time>
      </trkpt>
      <trkpt lat="44.83885" lon="6.74742">
        <ele>2027.9</ele>
        <time>2026-03-03T08:09:20.999Z</time>
      </trkpt>
      <trkpt lat="44.83884" lon="6.74742">
        <ele>2028.1</ele>
        <time>2026-03-03T08:09:21.999Z</time>
      </trkpt>
      <trkpt lat="44.83884" lon="6.74742">
        <ele>2028.5</ele>
        <time>2026-03-03T08:09:22.999Z</time>
      </trkpt>
      <trkpt lat="44.83883" lon="6.74742">
        <ele>2028.9</ele>
        <time>2026-03-03T08:09:23.999Z</time>
      </trkpt>
      <trkpt lat="44.83883" lon="6.74742">
        <ele>2029</ele>
        <time>2026-03-03T08:09:24.999Z</time>
      </trkpt>
      <trkpt lat="44.83883" lon="6.74743">
        <ele>2029.2</ele>
        <time>2026-03-03T08:09:25.999Z</time>
      </trkpt>
      <trkpt lat="44.83883" lon="6.74743">
        <ele>2029.3</ele>
        <time>2026-03-03T08:09:26.999Z</time>
      </trkpt>
      <trkpt lat="44.83882" lon="6.74743">
        <ele>2029.5</ele>
        <time>2026-03-03T08:09:27.999Z</time>
      </trkpt>
      <trkpt lat="44.83882" lon="6.74744">
        <ele>2029.7</ele>
        <time>2026-03-03T08:09:28.999Z</time>
      </trkpt>
      <trkpt lat="44.83881" lon="6.74745">
        <ele>2029.9</ele>
        <time>2026-03-03T08:09:29.999Z</time>
      </trkpt>
      <trkpt lat="44.83881" lon="6.74746">
        <ele>2030.1</ele>
        <time>2026-03-03T08:09:30.999Z</time>
      </trkpt>
      <trkpt lat="44.83881" lon="6.74747">
        <ele>2030.2</ele>
        <time>2026-03-03T08:09:31.999Z</time>
      </trkpt>
      <trkpt lat="44.8388" lon="6.74747">
        <ele>2030.5</ele>
        <time>2026-03-03T08:09:32.999Z</time>
      </trkpt>
      <trkpt lat="44.8388" lon="6.74747">
        <ele>2031</ele>
        <time>2026-03-03T08:09:33.999Z</time>
      </trkpt>
      <trkpt lat="44.8388" lon="6.74748">
        <ele>2031.2</ele>
        <time>2026-03-03T08:09:34.999Z</time>
      </trkpt>
      <trkpt lat="44.83879" lon="6.74748">
        <ele>2031.3</ele>
        <time>2026-03-03T08:09:35.999Z</time>
      </trkpt>
      <trkpt lat="44.83879" lon="6.74749">
        <ele>2031.2</ele>
        <time>2026-03-03T08:09:36.999Z</time>
      </trkpt>
      <trkpt lat="44.83878" lon="6.7475">
        <ele>2031.4</ele>
        <time>2026-03-03T08:09:38.000Z</time>
      </trkpt>
      <trkpt lat="44.83878" lon="6.7475">
        <ele>2031.9</ele>
        <time>2026-03-03T08:09:39.000Z</time>
      </trkpt>
      <trkpt lat="44.83878" lon="6.74751">
        <ele>2032.4</ele>
        <time>2026-03-03T08:09:40.000Z</time>
      </trkpt>
      <trkpt lat="44.83877" lon="6.74752">
        <ele>2032.8</ele>
        <time>2026-03-03T08:09:41.000Z</time>
      </trkpt>
      <trkpt lat="44.83876" lon="6.74752">
        <ele>2033</ele>
        <time>2026-03-03T08:09:42.000Z</time>
      </trkpt>
      <trkpt lat="44.83875" lon="6.74752">
        <ele>2033.3</ele>
        <time>2026-03-03T08:09:43.000Z</time>
      </trkpt>
      <trkpt lat="44.83875" lon="6.74753">
        <ele>2033</ele>
        <time>2026-03-03T08:09:44.000Z</time>
      </trkpt>
      <trkpt lat="44.83875" lon="6.74752">
        <ele>2033.2</ele>
        <time>2026-03-03T08:09:45.000Z</time>
      </trkpt>
      <trkpt lat="44.83874" lon="6.74753">
        <ele>2033.3</ele>
        <time>2026-03-03T08:09:46.000Z</time>
      </trkpt>
      <trkpt lat="44.83874" lon="6.74753">
        <ele>2033.4</ele>
        <time>2026-03-03T08:09:47.000Z</time>
      </trkpt>
      <trkpt lat="44.83873" lon="6.74754">
        <ele>2033.6</ele>
        <time>2026-03-03T08:09:48.000Z</time>
      </trkpt>
      <trkpt lat="44.83873" lon="6.74755">
        <ele>2033.7</ele>
        <time>2026-03-03T08:09:49.000Z</time>
      </trkpt>
      <trkpt lat="44.83872" lon="6.74756">
        <ele>2033.8</ele>
        <time>2026-03-03T08:09:50.000Z</time>
      </trkpt>
      <trkpt lat="44.83871" lon="6.74757">
        <ele>2033.8</ele>
        <time>2026-03-03T08:09:51.000Z</time>
      </trkpt>
      <trkpt lat="44.83871" lon="6.74758">
        <ele>2033.7</ele>
        <time>2026-03-03T08:09:52.000Z</time>
      </trkpt>
      <trkpt lat="44.83871" lon="6.74759">
        <ele>2033.7</ele>
        <time>2026-03-03T08:09:53.000Z</time>
      </trkpt>
      <trkpt lat="44.8387" lon="6.74759">
        <ele>2033.5</ele>
        <time>2026-03-03T08:09:54.000Z</time>
      </trkpt>
      <trkpt lat="44.8387" lon="6.7476">
        <ele>2033.4</ele>
        <time>2026-03-03T08:09:55.000Z</time>
      </trkpt>
      <trkpt lat="44.83869" lon="6.7476">
        <ele>2033.4</ele>
        <time>2026-03-03T08:09:56.000Z</time>
      </trkpt>
      <trkpt lat="44.83868" lon="6.7476">
        <ele>2033.5</ele>
        <time>2026-03-03T08:09:57.000Z</time>
      </trkpt>
      <trkpt lat="44.83867" lon="6.74761">
        <ele>2033.7</ele>
        <time>2026-03-03T08:09:58.000Z</time>
      </trkpt>
      <trkpt lat="44.83867" lon="6.74762">
        <ele>2034</ele>
        <time>2026-03-03T08:09:59.000Z</time>
      </trkpt>
      <trkpt lat="44.83866" lon="6.74762">
        <ele>2034.2</ele>
        <time>2026-03-03T08:10:00.000Z</time>
      </trkpt>
      <trkpt lat="44.83866" lon="6.74763">
        <ele>2034.4</ele>
        <time>2026-03-03T08:10:01.000Z</time>
      </trkpt>
      <trkpt lat="44.83865" lon="6.74763">
        <ele>2034.5</ele>
        <time>2026-03-03T08:10:02.000Z</time>
      </trkpt>
      <trkpt lat="44.83864" lon="6.74763">
        <ele>2034.7</ele>
        <time>2026-03-03T08:10:03.000Z</time>
      </trkpt>
      <trkpt lat="44.83864" lon="6.74764">
        <ele>2034.5</ele>
        <time>2026-03-03T08:10:04.000Z</time>
      </trkpt>
      <trkpt lat="44.83863" lon="6.74764">
        <ele>2034.4</ele>
        <time>2026-03-03T08:10:05.000Z</time>
      </trkpt>
      <trkpt lat="44.83863" lon="6.74764">
        <ele>2034.5</ele>
        <time>2026-03-03T08:10:06.000Z</time>
      </trkpt>
      <trkpt lat="44.83862" lon="6.74765">
        <ele>2034.8</ele>
        <time>2026-03-03T08:10:07.000Z</time>
      </trkpt>
      <trkpt lat="44.83862" lon="6.74765">
        <ele>2034.9</ele>
        <time>2026-03-03T08:10:08.000Z</time>
      </trkpt>
      <trkpt lat="44.83861" lon="6.74766">
        <ele>2034.9</ele>
        <time>2026-03-03T08:10:09.000Z</time>
      </trkpt>
      <trkpt lat="44.83861" lon="6.74766">
        <ele>2035.3</ele>
        <time>2026-03-03T08:10:10.000Z</time>
      </trkpt>
      <trkpt lat="44.8386" lon="6.74767">
        <ele>2035.4</ele>
        <time>2026-03-03T08:10:11.000Z</time>
      </trkpt>
      <trkpt lat="44.83859" lon="6.74767">
        <ele>2035.3</ele>
        <time>2026-03-03T08:10:12.000Z</time>
      </trkpt>
      <trkpt lat="44.83859" lon="6.74768">
        <ele>2035.5</ele>
        <time>2026-03-03T08:10:13.000Z</time>
      </trkpt>
      <trkpt lat="44.83858" lon="6.74768">
        <ele>2035.6</ele>
        <time>2026-03-03T08:10:14.000Z</time>
      </trkpt>
      <trkpt lat="44.83858" lon="6.74768">
        <ele>2035.8</ele>
        <time>2026-03-03T08:10:15.000Z</time>
      </trkpt>
      <trkpt lat="44.83857" lon="6.74769">
        <ele>2035.9</ele>
        <time>2026-03-03T08:10:16.000Z</time>
      </trkpt>
      <trkpt lat="44.83856" lon="6.74769">
        <ele>2036.3</ele>
        <time>2026-03-03T08:10:17.000Z</time>
      </trkpt>
      <trkpt lat="44.83856" lon="6.7477">
        <ele>2036.7</ele>
        <time>2026-03-03T08:10:18.000Z</time>
      </trkpt>
      <trkpt lat="44.83855" lon="6.7477">
        <ele>2037.1</ele>
        <time>2026-03-03T08:10:19.000Z</time>
      </trkpt>
      <trkpt lat="44.83855" lon="6.74771">
        <ele>2037.2</ele>
        <time>2026-03-03T08:10:20.000Z</time>
      </trkpt>
      <trkpt lat="44.83854" lon="6.74771">
        <ele>2037.5</ele>
        <time>2026-03-03T08:10:21.000Z</time>
      </trkpt>
      <trkpt lat="44.83853" lon="6.74771">
        <ele>2037.9</ele>
        <time>2026-03-03T08:10:22.000Z</time>
      </trkpt>
      <trkpt lat="44.83853" lon="6.74772">
        <ele>2038.1</ele>
        <time>2026-03-03T08:10:23.000Z</time>
      </trkpt>
      <trkpt lat="44.83852" lon="6.74772">
        <ele>2038.4</ele>
        <time>2026-03-03T08:10:24.000Z</time>
      </trkpt>
      <trkpt lat="44.83852" lon="6.74773">
        <ele>2038.7</ele>
        <time>2026-03-03T08:10:25.000Z</time>
      </trkpt>
      <trkpt lat="44.83852" lon="6.74773">
        <ele>2038.9</ele>
        <time>2026-03-03T08:10:26.000Z</time>
      </trkpt>
      <trkpt lat="44.83851" lon="6.74774">
        <ele>2039</ele>
        <time>2026-03-03T08:10:27.000Z</time>
      </trkpt>
      <trkpt lat="44.8385" lon="6.74775">
        <ele>2038.9</ele>
        <time>2026-03-03T08:10:28.000Z</time>
      </trkpt>
      <trkpt lat="44.8385" lon="6.74776">
        <ele>2039</ele>
        <time>2026-03-03T08:10:29.000Z</time>
      </trkpt>
      <trkpt lat="44.83849" lon="6.74777">
        <ele>2038.8</ele>
        <time>2026-03-03T08:10:30.000Z</time>
      </trkpt>
      <trkpt lat="44.83848" lon="6.74777">
        <ele>2038.5</ele>
        <time>2026-03-03T08:10:31.000Z</time>
      </trkpt>
      <trkpt lat="44.83848" lon="6.74778">
        <ele>2038.4</ele>
        <time>2026-03-03T08:10:32.000Z</time>
      </trkpt>
      <trkpt lat="44.83848" lon="6.74779">
        <ele>2038.5</ele>
        <time>2026-03-03T08:10:33.000Z</time>
      </trkpt>
      <trkpt lat="44.83847" lon="6.74779">
        <ele>2038.8</ele>
        <time>2026-03-03T08:10:34.000Z</time>
      </trkpt>
      <trkpt lat="44.83847" lon="6.7478">
        <ele>2039.1</ele>
        <time>2026-03-03T08:10:35.000Z</time>
      </trkpt>
      <trkpt lat="44.83846" lon="6.7478">
        <ele>2039.2</ele>
        <time>2026-03-03T08:10:36.000Z</time>
      </trkpt>
      <trkpt lat="44.83845" lon="6.7478">
        <ele>2039.4</ele>
        <time>2026-03-03T08:10:37.000Z</time>
      </trkpt>
      <trkpt lat="44.83844" lon="6.74781">
        <ele>2039.3</ele>
        <time>2026-03-03T08:10:38.000Z</time>
      </trkpt>
      <trkpt lat="44.83844" lon="6.74782">
        <ele>2039.6</ele>
        <time>2026-03-03T08:10:39.000Z</time>
      </trkpt>
      <trkpt lat="44.83843" lon="6.74782">
        <ele>2039.7</ele>
        <time>2026-03-03T08:10:40.000Z</time>
      </trkpt>
      <trkpt lat="44.83842" lon="6.74783">
        <ele>2039.8</ele>
        <time>2026-03-03T08:10:41.000Z</time>
      </trkpt>
      <trkpt lat="44.83842" lon="6.74783">
        <ele>2040</ele>
        <time>2026-03-03T08:10:42.000Z</time>
      </trkpt>
      <trkpt lat="44.83841" lon="6.74783">
        <ele>2040.2</ele>
        <time>2026-03-03T08:10:43.000Z</time>
      </trkpt>
      <trkpt lat="44.8384" lon="6.74784">
        <ele>2040.4</ele>
        <time>2026-03-03T08:10:44.000Z</time>
      </trkpt>
      <trkpt lat="44.83839" lon="6.74784">
        <ele>2040.7</ele>
        <time>2026-03-03T08:10:45.000Z</time>
      </trkpt>
      <trkpt lat="44.83838" lon="6.74785">
        <ele>2040.8</ele>
        <time>2026-03-03T08:10:46.000Z</time>
      </trkpt>
      <trkpt lat="44.83837" lon="6.74785">
        <ele>2040.7</ele>
        <time>2026-03-03T08:10:47.000Z</time>
      </trkpt>
      <trkpt lat="44.83836" lon="6.74786">
        <ele>2040.4</ele>
        <time>2026-03-03T08:10:48.000Z</time>
      </trkpt>
      <trkpt lat="44.83835" lon="6.74787">
        <ele>2040.2</ele>
        <time>2026-03-03T08:10:49.000Z</time>
      </trkpt>
      <trkpt lat="44.83833" lon="6.74787">
        <ele>2040.3</ele>
        <time>2026-03-03T08:10:50.000Z</time>
      </trkpt>
      <trkpt lat="44.83832" lon="6.74788">
        <ele>2040.7</ele>
        <time>2026-03-03T08:10:51.000Z</time>
      </trkpt>
      <trkpt lat="44.83831" lon="6.74788">
        <ele>2040.8</ele>
        <time>2026-03-03T08:10:52.000Z</time>
      </trkpt>
      <trkpt lat="44.83831" lon="6.74788">
        <ele>2040.6</ele>
        <time>2026-03-03T08:10:53.000Z</time>
      </trkpt>
      <trkpt lat="44.8383" lon="6.74789">
        <ele>2040.5</ele>
        <time>2026-03-03T08:10:54.000Z</time>
      </trkpt>
      <trkpt lat="44.8383" lon="6.74789">
        <ele>2040.7</ele>
        <time>2026-03-03T08:10:55.000Z</time>
      </trkpt>
      <trkpt lat="44.83829" lon="6.7479">
        <ele>2040.9</ele>
        <time>2026-03-03T08:10:56.000Z</time>
      </trkpt>
      <trkpt lat="44.83828" lon="6.74791">
        <ele>2041.1</ele>
        <time>2026-03-03T08:10:57.000Z</time>
      </trkpt>
      <trkpt lat="44.83828" lon="6.74792">
        <ele>2041</ele>
        <time>2026-03-03T08:10:58.000Z</time>
      </trkpt>
      <trkpt lat="44.83827" lon="6.74792">
        <ele>2041.2</ele>
        <time>2026-03-03T08:10:59.000Z</time>
      </trkpt>
      <trkpt lat="44.83826" lon="6.74793">
        <ele>2041.4</ele>
        <time>2026-03-03T08:11:00.000Z</time>
      </trkpt>
      <trkpt lat="44.83825" lon="6.74793">
        <ele>2041.7</ele>
        <time>2026-03-03T08:11:01.000Z</time>
      </trkpt>
      <trkpt lat="44.83824" lon="6.74794">
        <ele>2041.8</ele>
        <time>2026-03-03T08:11:02.000Z</time>
      </trkpt>
      <trkpt lat="44.83824" lon="6.74795">
        <ele>2041.9</ele>
        <time>2026-03-03T08:11:03.000Z</time>
      </trkpt>
      <trkpt lat="44.83823" lon="6.74796">
        <ele>2041.7</ele>
        <time>2026-03-03T08:11:04.000Z</time>
      </trkpt>
      <trkpt lat="44.83822" lon="6.74796">
        <ele>2041.5</ele>
        <time>2026-03-03T08:11:05.000Z</time>
      </trkpt>
      <trkpt lat="44.83821" lon="6.74797">
        <ele>2041.5</ele>
        <time>2026-03-03T08:11:06.000Z</time>
      </trkpt>
      <trkpt lat="44.8382" lon="6.74798">
        <ele>2041.7</ele>
        <time>2026-03-03T08:11:07.000Z</time>
      </trkpt>
      <trkpt lat="44.83819" lon="6.74798">
        <ele>2041.7</ele>
        <time>2026-03-03T08:11:08.000Z</time>
      </trkpt>
      <trkpt lat="44.83819" lon="6.74798">
        <ele>2041.8</ele>
        <time>2026-03-03T08:11:09.000Z</time>
      </trkpt>
      <trkpt lat="44.83818" lon="6.74798">
        <ele>2042</ele>
        <time>2026-03-03T08:11:10.000Z</time>
      </trkpt>
      <trkpt lat="44.83817" lon="6.74799">
        <ele>2042</ele>
        <time>2026-03-03T08:11:11.000Z</time>
      </trkpt>
      <trkpt lat="44.83816" lon="6.748">
        <ele>2041.8</ele>
        <time>2026-03-03T08:11:12.000Z</time>
      </trkpt>
      <trkpt lat="44.83815" lon="6.74801">
        <ele>2041.9</ele>
        <time>2026-03-03T08:11:13.000Z</time>
      </trkpt>
      <trkpt lat="44.83814" lon="6.74801">
        <ele>2041.9</ele>
        <time>2026-03-03T08:11:14.000Z</time>
      </trkpt>
      <trkpt lat="44.83813" lon="6.74801">
        <ele>2042</ele>
        <time>2026-03-03T08:11:15.000Z</time>
      </trkpt>
      <trkpt lat="44.83812" lon="6.74802">
        <ele>2041.8</ele>
        <time>2026-03-03T08:11:16.000Z</time>
      </trkpt>
      <trkpt lat="44.83811" lon="6.74802">
        <ele>2042.1</ele>
        <time>2026-03-03T08:11:17.000Z</time>
      </trkpt>
      <trkpt lat="44.8381" lon="6.74802">
        <ele>2042.3</ele>
        <time>2026-03-03T08:11:18.000Z</time>
      </trkpt>
      <trkpt lat="44.83809" lon="6.74803">
        <ele>2042.5</ele>
        <time>2026-03-03T08:11:19.000Z</time>
      </trkpt>
      <trkpt lat="44.83809" lon="6.74803">
        <ele>2042.6</ele>
        <time>2026-03-03T08:11:20.000Z</time>
      </trkpt>
      <trkpt lat="44.83808" lon="6.74804">
        <ele>2042.5</ele>
        <time>2026-03-03T08:11:21.000Z</time>
      </trkpt>
      <trkpt lat="44.83807" lon="6.74805">
        <ele>2042.6</ele>
        <time>2026-03-03T08:11:22.000Z</time>
      </trkpt>
      <trkpt lat="44.83807" lon="6.74806">
        <ele>2042.7</ele>
        <time>2026-03-03T08:11:23.000Z</time>
      </trkpt>
      <trkpt lat="44.83807" lon="6.74806">
        <ele>2042.9</ele>
        <time>2026-03-03T08:11:24.000Z</time>
      </trkpt>
      <trkpt lat="44.83806" lon="6.74807">
        <ele>2043.1</ele>
        <time>2026-03-03T08:11:25.000Z</time>
      </trkpt>
      <trkpt lat="44.83805" lon="6.74808">
        <ele>2043.4</ele>
        <time>2026-03-03T08:11:26.000Z</time>
      </trkpt>
      <trkpt lat="44.83805" lon="6.74808">
        <ele>2043.5</ele>
        <time>2026-03-03T08:11:27.000Z</time>
      </trkpt>
      <trkpt lat="44.83804" lon="6.74809">
        <ele>2043.5</ele>
        <time>2026-03-03T08:11:28.000Z</time>
      </trkpt>
      <trkpt lat="44.83804" lon="6.7481">
        <ele>2042.9</ele>
        <time>2026-03-03T08:11:29.000Z</time>
      </trkpt>
      <trkpt lat="44.83803" lon="6.74811">
        <ele>2042.6</ele>
        <time>2026-03-03T08:11:30.000Z</time>
      </trkpt>
      <trkpt lat="44.83802" lon="6.74812">
        <ele>2042.8</ele>
        <time>2026-03-03T08:11:31.000Z</time>
      </trkpt>
      <trkpt lat="44.83802" lon="6.74812">
        <ele>2043</ele>
        <time>2026-03-03T08:11:32.000Z</time>
      </trkpt>
      <trkpt lat="44.83801" lon="6.74813">
        <ele>2043.1</ele>
        <time>2026-03-03T08:11:33.000Z</time>
      </trkpt>
      <trkpt lat="44.83801" lon="6.74813">
        <ele>2042.8</ele>
        <time>2026-03-03T08:11:34.000Z</time>
      </trkpt>
      <trkpt lat="44.838" lon="6.74813">
        <ele>2042.9</ele>
        <time>2026-03-03T08:11:35.000Z</time>
      </trkpt>
      <trkpt lat="44.83799" lon="6.74814">
        <ele>2043.1</ele>
        <time>2026-03-03T08:11:36.000Z</time>
      </trkpt>
      <trkpt lat="44.83798" lon="6.74814">
        <ele>2043.3</ele>
        <time>2026-03-03T08:11:37.000Z</time>
      </trkpt>
      <trkpt lat="44.83797" lon="6.74815">
        <ele>2043.3</ele>
        <time>2026-03-03T08:11:38.000Z</time>
      </trkpt>
      <trkpt lat="44.83796" lon="6.74815">
        <ele>2043.4</ele>
        <time>2026-03-03T08:11:39.000Z</time>
      </trkpt>
      <trkpt lat="44.83794" lon="6.74816">
        <ele>2043.5</ele>
        <time>2026-03-03T08:11:40.000Z</time>
      </trkpt>
      <trkpt lat="44.83793" lon="6.74816">
        <ele>2043.7</ele>
        <time>2026-03-03T08:11:41.000Z</time>
      </trkpt>
      <trkpt lat="44.83792" lon="6.74817">
        <ele>2043.9</ele>
        <time>2026-03-03T08:11:42.000Z</time>
      </trkpt>
      <trkpt lat="44.83791" lon="6.74818">
        <ele>2044</ele>
        <time>2026-03-03T08:11:43.000Z</time>
      </trkpt>
      <trkpt lat="44.8379" lon="6.74819">
        <ele>2044.2</ele>
        <time>2026-03-03T08:11:44.000Z</time>
      </trkpt>
      <trkpt lat="44.83789" lon="6.74819">
        <ele>2044.4</ele>
        <time>2026-03-03T08:11:45.000Z</time>
      </trkpt>
      <trkpt lat="44.83788" lon="6.7482">
        <ele>2044.5</ele>
        <time>2026-03-03T08:11:46.000Z</time>
      </trkpt>
      <trkpt lat="44.83787" lon="6.7482">
        <ele>2044.7</ele>
        <time>2026-03-03T08:11:47.000Z</time>
      </trkpt>
      <trkpt lat="44.83786" lon="6.74821">
        <ele>2045</ele>
        <time>2026-03-03T08:11:48.000Z</time>
      </trkpt>
      <trkpt lat="44.83786" lon="6.74822">
        <ele>2045.2</ele>
        <time>2026-03-03T08:11:49.000Z</time>
      </trkpt>
      <trkpt lat="44.83785" lon="6.74822">
        <ele>2045.4</ele>
        <time>2026-03-03T08:11:50.000Z</time>
      </trkpt>
      <trkpt lat="44.83785" lon="6.74822">
        <ele>2045.8</ele>
        <time>2026-03-03T08:11:51.000Z</time>
      </trkpt>
      <trkpt lat="44.83784" lon="6.74822">
        <ele>2046</ele>
        <time>2026-03-03T08:11:52.000Z</time>
      </trkpt>
      <trkpt lat="44.83783" lon="6.74823">
        <ele>2046</ele>
        <time>2026-03-03T08:11:53.000Z</time>
      </trkpt>
      <trkpt lat="44.83782" lon="6.74824">
        <ele>2046.3</ele>
        <time>2026-03-03T08:11:54.000Z</time>
      </trkpt>
      <trkpt lat="44.83781" lon="6.74824">
        <ele>2046.4</ele>
        <time>2026-03-03T08:11:55.000Z</time>
      </trkpt>
      <trkpt lat="44.8378" lon="6.74825">
        <ele>2046.7</ele>
        <time>2026-03-03T08:11:56.000Z</time>
      </trkpt>
      <trkpt lat="44.83779" lon="6.74825">
        <ele>2046.8</ele>
        <time>2026-03-03T08:11:57.000Z</time>
      </trkpt>
      <trkpt lat="44.83778" lon="6.74826">
        <ele>2047.2</ele>
        <time>2026-03-03T08:11:58.000Z</time>
      </trkpt>
      <trkpt lat="44.83778" lon="6.74826">
        <ele>2047.5</ele>
        <time>2026-03-03T08:11:59.000Z</time>
      </trkpt>
      <trkpt lat="44.83777" lon="6.74827">
        <ele>2047.5</ele>
        <time>2026-03-03T08:12:00.000Z</time>
      </trkpt>
      <trkpt lat="44.83776" lon="6.74828">
        <ele>2047.5</ele>
        <time>2026-03-03T08:12:01.000Z</time>
      </trkpt>
      <trkpt lat="44.83775" lon="6.74829">
        <ele>2047.3</ele>
        <time>2026-03-03T08:12:02.000Z</time>
      </trkpt>
      <trkpt lat="44.83775" lon="6.74829">
        <ele>2047.4</ele>
        <time>2026-03-03T08:12:03.000Z</time>
      </trkpt>
      <trkpt lat="44.83774" lon="6.7483">
        <ele>2047.4</ele>
        <time>2026-03-03T08:12:04.000Z</time>
      </trkpt>
      <trkpt lat="44.83773" lon="6.74831">
        <ele>2047.7</ele>
        <time>2026-03-03T08:12:05.000Z</time>
      </trkpt>
      <trkpt lat="44.83772" lon="6.74832">
        <ele>2047.8</ele>
        <time>2026-03-03T08:12:06.000Z</time>
      </trkpt>
      <trkpt lat="44.83771" lon="6.74833">
        <ele>2047.6</ele>
        <time>2026-03-03T08:12:07.000Z</time>
      </trkpt>
      <trkpt lat="44.8377" lon="6.74834">
        <ele>2047.7</ele>
        <time>2026-03-03T08:12:08.000Z</time>
      </trkpt>
      <trkpt lat="44.83769" lon="6.74834">
        <ele>2047.7</ele>
        <time>2026-03-03T08:12:09.000Z</time>
      </trkpt>
      <trkpt lat="44.83769" lon="6.74835">
        <ele>2047.7</ele>
        <time>2026-03-03T08:12:10.000Z</time>
      </trkpt>
      <trkpt lat="44.83768" lon="6.74836">
        <ele>2047.7</ele>
        <time>2026-03-03T08:12:11.000Z</time>
      </trkpt>
      <trkpt lat="44.83767" lon="6.74837">
        <ele>2047.8</ele>
        <time>2026-03-03T08:12:12.000Z</time>
      </trkpt>
      <trkpt lat="44.83766" lon="6.74838">
        <ele>2047.9</ele>
        <time>2026-03-03T08:12:13.000Z</time>
      </trkpt>
      <trkpt lat="44.83766" lon="6.74839">
        <ele>2048.2</ele>
        <time>2026-03-03T08:12:14.000Z</time>
      </trkpt>
      <trkpt lat="44.83765" lon="6.7484">
        <ele>2048.1</ele>
        <time>2026-03-03T08:12:15.000Z</time>
      </trkpt>
      <trkpt lat="44.83764" lon="6.74841">
        <ele>2048.1</ele>
        <time>2026-03-03T08:12:16.000Z</time>
      </trkpt>
      <trkpt lat="44.83763" lon="6.74842">
        <ele>2047.9</ele>
        <time>2026-03-03T08:12:17.000Z</time>
      </trkpt>
      <trkpt lat="44.83762" lon="6.74843">
        <ele>2047.7</ele>
        <time>2026-03-03T08:12:18.000Z</time>
      </trkpt>
      <trkpt lat="44.83762" lon="6.74843">
        <ele>2048</ele>
        <time>2026-03-03T08:12:19.000Z</time>
      </trkpt>
      <trkpt lat="44.8376" lon="6.74844">
        <ele>2048.2</ele>
        <time>2026-03-03T08:12:20.000Z</time>
      </trkpt>
      <trkpt lat="44.83759" lon="6.74845">
        <ele>2047.9</ele>
        <time>2026-03-03T08:12:21.000Z</time>
      </trkpt>
      <trkpt lat="44.83758" lon="6.74846">
        <ele>2047.8</ele>
        <time>2026-03-03T08:12:22.000Z</time>
      </trkpt>
      <trkpt lat="44.83758" lon="6.74846">
        <ele>2048.1</ele>
        <time>2026-03-03T08:12:23.000Z</time>
      </trkpt>
      <trkpt lat="44.83757" lon="6.74847">
        <ele>2048</ele>
        <time>2026-03-03T08:12:24.000Z</time>
      </trkpt>
      <trkpt lat="44.83756" lon="6.74848">
        <ele>2048</ele>
        <time>2026-03-03T08:12:25.000Z</time>
      </trkpt>
      <trkpt lat="44.83755" lon="6.74849">
        <ele>2047.9</ele>
        <time>2026-03-03T08:12:26.000Z</time>
      </trkpt>
      <trkpt lat="44.83755" lon="6.74849">
        <ele>2048.1</ele>
        <time>2026-03-03T08:12:27.000Z</time>
      </trkpt>
      <trkpt lat="44.83754" lon="6.7485">
        <ele>2048.4</ele>
        <time>2026-03-03T08:12:28.000Z</time>
      </trkpt>
      <trkpt lat="44.83754" lon="6.74852">
        <ele>2048.5</ele>
        <time>2026-03-03T08:12:29.000Z</time>
      </trkpt>
      <trkpt lat="44.83753" lon="6.74852">
        <ele>2048.5</ele>
        <time>2026-03-03T08:12:30.000Z</time>
      </trkpt>
      <trkpt lat="44.83753" lon="6.74853">
        <ele>2048.3</ele>
        <time>2026-03-03T08:12:31.000Z</time>
      </trkpt>
      <trkpt lat="44.83752" lon="6.74854">
        <ele>2048.5</ele>
        <time>2026-03-03T08:12:32.000Z</time>
      </trkpt>
      <trkpt lat="44.83751" lon="6.74855">
        <ele>2048.6</ele>
        <time>2026-03-03T08:12:33.000Z</time>
      </trkpt>
      <trkpt lat="44.8375" lon="6.74855">
        <ele>2048.8</ele>
        <time>2026-03-03T08:12:34.000Z</time>
      </trkpt>
      <trkpt lat="44.83749" lon="6.74856">
        <ele>2048.8</ele>
        <time>2026-03-03T08:12:35.000Z</time>
      </trkpt>
      <trkpt lat="44.83749" lon="6.74857">
        <ele>2048.8</ele>
        <time>2026-03-03T08:12:36.000Z</time>
      </trkpt>
      <trkpt lat="44.83748" lon="6.74859">
        <ele>2048.8</ele>
        <time>2026-03-03T08:12:37.000Z</time>
      </trkpt>
      <trkpt lat="44.83748" lon="6.7486">
        <ele>2049</ele>
        <time>2026-03-03T08:12:38.000Z</time>
      </trkpt>
      <trkpt lat="44.83747" lon="6.74861">
        <ele>2049</ele>
        <time>2026-03-03T08:12:39.000Z</time>
      </trkpt>
      <trkpt lat="44.83747" lon="6.74862">
        <ele>2048.8</ele>
        <time>2026-03-03T08:12:40.000Z</time>
      </trkpt>
      <trkpt lat="44.83746" lon="6.74864">
        <ele>2048.6</ele>
        <time>2026-03-03T08:12:41.000Z</time>
      </trkpt>
      <trkpt lat="44.83745" lon="6.74865">
        <ele>2048.6</ele>
        <time>2026-03-03T08:12:42.000Z</time>
      </trkpt>
      <trkpt lat="44.83744" lon="6.74865">
        <ele>2048.6</ele>
        <time>2026-03-03T08:12:43.000Z</time>
      </trkpt>
      <trkpt lat="44.83743" lon="6.74866">
        <ele>2048.6</ele>
        <time>2026-03-03T08:12:44.000Z</time>
      </trkpt>
      <trkpt lat="44.83742" lon="6.74867">
        <ele>2048.8</ele>
        <time>2026-03-03T08:12:45.000Z</time>
      </trkpt>
      <trkpt lat="44.83742" lon="6.74868">
        <ele>2048.8</ele>
        <time>2026-03-03T08:12:46.000Z</time>
      </trkpt>
      <trkpt lat="44.83741" lon="6.74869">
        <ele>2048.8</ele>
        <time>2026-03-03T08:12:47.000Z</time>
      </trkpt>
      <trkpt lat="44.8374" lon="6.7487">
        <ele>2048.7</ele>
        <time>2026-03-03T08:12:48.000Z</time>
      </trkpt>
      <trkpt lat="44.83739" lon="6.74871">
        <ele>2049</ele>
        <time>2026-03-03T08:12:49.000Z</time>
      </trkpt>
      <trkpt lat="44.83738" lon="6.74872">
        <ele>2048.9</ele>
        <time>2026-03-03T08:12:50.000Z</time>
      </trkpt>
      <trkpt lat="44.83738" lon="6.74873">
        <ele>2049</ele>
        <time>2026-03-03T08:12:51.000Z</time>
      </trkpt>
      <trkpt lat="44.83738" lon="6.74874">
        <ele>2049</ele>
        <time>2026-03-03T08:12:52.000Z</time>
      </trkpt>
      <trkpt lat="44.83737" lon="6.74875">
        <ele>2049.1</ele>
        <time>2026-03-03T08:12:53.000Z</time>
      </trkpt>
      <trkpt lat="44.83737" lon="6.74875">
        <ele>2049.2</ele>
        <time>2026-03-03T08:12:54.000Z</time>
      </trkpt>
      <trkpt lat="44.83736" lon="6.74876">
        <ele>2049.5</ele>
        <time>2026-03-03T08:12:55.000Z</time>
      </trkpt>
      <trkpt lat="44.83736" lon="6.74876">
        <ele>2049.7</ele>
        <time>2026-03-03T08:12:56.000Z</time>
      </trkpt>
      <trkpt lat="44.83735" lon="6.74877">
        <ele>2049.7</ele>
        <time>2026-03-03T08:12:57.000Z</time>
      </trkpt>
      <trkpt lat="44.83735" lon="6.74878">
        <ele>2049.9</ele>
        <time>2026-03-03T08:12:58.000Z</time>
      </trkpt>
      <trkpt lat="44.83734" lon="6.7488">
        <ele>2050</ele>
        <time>2026-03-03T08:12:59.000Z</time>
      </trkpt>
      <trkpt lat="44.83734" lon="6.74882">
        <ele>2050</ele>
        <time>2026-03-03T08:13:00.000Z</time>
      </trkpt>
      <trkpt lat="44.83733" lon="6.74883">
        <ele>2050.1</ele>
        <time>2026-03-03T08:13:01.000Z</time>
      </trkpt>
      <trkpt lat="44.83732" lon="6.74884">
        <ele>2050</ele>
        <time>2026-03-03T08:13:02.000Z</time>
      </trkpt>
      <trkpt lat="44.83731" lon="6.74885">
        <ele>2050.2</ele>
        <time>2026-03-03T08:13:03.000Z</time>
      </trkpt>
      <trkpt lat="44.83731" lon="6.74886">
        <ele>2050.3</ele>
        <time>2026-03-03T08:13:04.000Z</time>
      </trkpt>
      <trkpt lat="44.83731" lon="6.74887">
        <ele>2050.4</ele>
        <time>2026-03-03T08:13:05.000Z</time>
      </trkpt>
      <trkpt lat="44.8373" lon="6.74887">
        <ele>2050.4</ele>
        <time>2026-03-03T08:13:06.000Z</time>
      </trkpt>
      <trkpt lat="44.83729" lon="6.74888">
        <ele>2050.5</ele>
        <time>2026-03-03T08:13:07.000Z</time>
      </trkpt>
      <trkpt lat="44.83728" lon="6.74889">
        <ele>2050.9</ele>
        <time>2026-03-03T08:13:08.000Z</time>
      </trkpt>
      <trkpt lat="44.83727" lon="6.7489">
        <ele>2051.3</ele>
        <time>2026-03-03T08:13:09.000Z</time>
      </trkpt>
      <trkpt lat="44.83726" lon="6.74891">
        <ele>2051.2</ele>
        <time>2026-03-03T08:13:10.000Z</time>
      </trkpt>
      <trkpt lat="44.83726" lon="6.74892">
        <ele>2051.2</ele>
        <time>2026-03-03T08:13:11.000Z</time>
      </trkpt>
      <trkpt lat="44.83726" lon="6.74892">
        <ele>2051.5</ele>
        <time>2026-03-03T08:13:12.000Z</time>
      </trkpt>
      <trkpt lat="44.83725" lon="6.74893">
        <ele>2051.6</ele>
        <time>2026-03-03T08:13:13.000Z</time>
      </trkpt>
      <trkpt lat="44.83724" lon="6.74894">
        <ele>2051.8</ele>
        <time>2026-03-03T08:13:14.000Z</time>
      </trkpt>
      <trkpt lat="44.83723" lon="6.74895">
        <ele>2051.9</ele>
        <time>2026-03-03T08:13:15.000Z</time>
      </trkpt>
      <trkpt lat="44.83722" lon="6.74896">
        <ele>2051.9</ele>
        <time>2026-03-03T08:13:16.000Z</time>
      </trkpt>
      <trkpt lat="44.83722" lon="6.74897">
        <ele>2052</ele>
        <time>2026-03-03T08:13:17.000Z</time>
      </trkpt>
      <trkpt lat="44.83721" lon="6.74898">
        <ele>2052.1</ele>
        <time>2026-03-03T08:13:18.000Z</time>
      </trkpt>
      <trkpt lat="44.83721" lon="6.74899">
        <ele>2052.1</ele>
        <time>2026-03-03T08:13:19.000Z</time>
      </trkpt>
      <trkpt lat="44.8372" lon="6.749">
        <ele>2052</ele>
        <time>2026-03-03T08:13:20.000Z</time>
      </trkpt>
      <trkpt lat="44.8372" lon="6.74901">
        <ele>2052.1</ele>
        <time>2026-03-03T08:13:21.000Z</time>
      </trkpt>
      <trkpt lat="44.83719" lon="6.74903">
        <ele>2052</ele>
        <time>2026-03-03T08:13:22.000Z</time>
      </trkpt>
      <trkpt lat="44.83718" lon="6.74904">
        <ele>2051.9</ele>
        <time>2026-03-03T08:13:23.000Z</time>
      </trkpt>
      <trkpt lat="44.83718" lon="6.74905">
        <ele>2051.9</ele>
        <time>2026-03-03T08:13:24.000Z</time>
      </trkpt>
      <trkpt lat="44.83718" lon="6.74906">
        <ele>2051.9</ele>
        <time>2026-03-03T08:13:25.000Z</time>
      </trkpt>
      <trkpt lat="44.83717" lon="6.74907">
        <ele>2051.9</ele>
        <time>2026-03-03T08:13:26.000Z</time>
      </trkpt>
      <trkpt lat="44.83717" lon="6.74909">
        <ele>2051.8</ele>
        <time>2026-03-03T08:13:27.000Z</time>
      </trkpt>
      <trkpt lat="44.83716" lon="6.7491">
        <ele>2051.9</ele>
        <time>2026-03-03T08:13:28.000Z</time>
      </trkpt>
      <trkpt lat="44.83716" lon="6.74911">
        <ele>2052.1</ele>
        <time>2026-03-03T08:13:29.000Z</time>
      </trkpt>
      <trkpt lat="44.83716" lon="6.74913">
        <ele>2052.1</ele>
        <time>2026-03-03T08:13:30.000Z</time>
      </trkpt>
      <trkpt lat="44.83716" lon="6.74914">
        <ele>2052</ele>
        <time>2026-03-03T08:13:31.000Z</time>
      </trkpt>
      <trkpt lat="44.83715" lon="6.74915">
        <ele>2051.9</ele>
        <time>2026-03-03T08:13:32.000Z</time>
      </trkpt>
      <trkpt lat="44.83715" lon="6.74916">
        <ele>2051.9</ele>
        <time>2026-03-03T08:13:33.000Z</time>
      </trkpt>
      <trkpt lat="44.83715" lon="6.74918">
        <ele>2051.8</ele>
        <time>2026-03-03T08:13:34.000Z</time>
      </trkpt>
      <trkpt lat="44.83715" lon="6.7492">
        <ele>2051.7</ele>
        <time>2026-03-03T08:13:35.000Z</time>
      </trkpt>
      <trkpt lat="44.83714" lon="6.74921">
        <ele>2051.6</ele>
        <time>2026-03-03T08:13:36.000Z</time>
      </trkpt>
      <trkpt lat="44.83714" lon="6.74922">
        <ele>2051.9</ele>
        <time>2026-03-03T08:13:37.000Z</time>
      </trkpt>
      <trkpt lat="44.83713" lon="6.74924">
        <ele>2051.9</ele>
        <time>2026-03-03T08:13:38.000Z</time>
      </trkpt>
      <trkpt lat="44.83713" lon="6.74925">
        <ele>2052</ele>
        <time>2026-03-03T08:13:39.000Z</time>
      </trkpt>
      <trkpt lat="44.83712" lon="6.74926">
        <ele>2052.2</ele>
        <time>2026-03-03T08:13:40.000Z</time>
      </trkpt>
      <trkpt lat="44.83712" lon="6.74927">
        <ele>2052.1</ele>
        <time>2026-03-03T08:13:41.000Z</time>
      </trkpt>
      <trkpt lat="44.83711" lon="6.74929">
        <ele>2052.1</ele>
        <time>2026-03-03T08:13:42.000Z</time>
      </trkpt>
      <trkpt lat="44.83711" lon="6.7493">
        <ele>2052.1</ele>
        <time>2026-03-03T08:13:43.000Z</time>
      </trkpt>
      <trkpt lat="44.8371" lon="6.7493">
        <ele>2052.5</ele>
        <time>2026-03-03T08:13:44.000Z</time>
      </trkpt>
      <trkpt lat="44.83709" lon="6.74932">
        <ele>2052.6</ele>
        <time>2026-03-03T08:13:45.000Z</time>
      </trkpt>
      <trkpt lat="44.83709" lon="6.74933">
        <ele>2052.7</ele>
        <time>2026-03-03T08:13:46.000Z</time>
      </trkpt>
      <trkpt lat="44.83708" lon="6.74934">
        <ele>2052.8</ele>
        <time>2026-03-03T08:13:47.000Z</time>
      </trkpt>
      <trkpt lat="44.83707" lon="6.74935">
        <ele>2052.8</ele>
        <time>2026-03-03T08:13:48.000Z</time>
      </trkpt>
      <trkpt lat="44.83707" lon="6.74935">
        <ele>2052.7</ele>
        <time>2026-03-03T08:13:49.000Z</time>
      </trkpt>
      <trkpt lat="44.83706" lon="6.74937">
        <ele>2052.7</ele>
        <time>2026-03-03T08:13:50.000Z</time>
      </trkpt>
      <trkpt lat="44.83706" lon="6.74938">
        <ele>2052.7</ele>
        <time>2026-03-03T08:13:51.000Z</time>
      </trkpt>
      <trkpt lat="44.83706" lon="6.74938">
        <ele>2052.6</ele>
        <time>2026-03-03T08:13:52.000Z</time>
      </trkpt>
      <trkpt lat="44.83705" lon="6.74939">
        <ele>2052.6</ele>
        <time>2026-03-03T08:13:53.000Z</time>
      </trkpt>
      <trkpt lat="44.83705" lon="6.7494">
        <ele>2052.7</ele>
        <time>2026-03-03T08:13:54.000Z</time>
      </trkpt>
      <trkpt lat="44.83705" lon="6.74941">
        <ele>2052.7</ele>
        <time>2026-03-03T08:13:55.000Z</time>
      </trkpt>
      <trkpt lat="44.83704" lon="6.74942">
        <ele>2052.8</ele>
        <time>2026-03-03T08:13:56.000Z</time>
      </trkpt>
      <trkpt lat="44.83704" lon="6.74943">
        <ele>2052.9</ele>
        <time>2026-03-03T08:13:57.000Z</time>
      </trkpt>
      <trkpt lat="44.83704" lon="6.74945">
        <ele>2053.2</ele>
        <time>2026-03-03T08:13:58.000Z</time>
      </trkpt>
      <trkpt lat="44.83703" lon="6.74946">
        <ele>2053.1</ele>
        <time>2026-03-03T08:13:59.000Z</time>
      </trkpt>
      <trkpt lat="44.83703" lon="6.74947">
        <ele>2053.2</ele>
        <time>2026-03-03T08:14:00.000Z</time>
      </trkpt>
      <trkpt lat="44.83703" lon="6.74948">
        <ele>2053.1</ele>
        <time>2026-03-03T08:14:01.000Z</time>
      </trkpt>
      <trkpt lat="44.83703" lon="6.74949">
        <ele>2053.2</ele>
        <time>2026-03-03T08:14:02.000Z</time>
      </trkpt>
      <trkpt lat="44.83702" lon="6.7495">
        <ele>2053.2</ele>
        <time>2026-03-03T08:14:03.000Z</time>
      </trkpt>
      <trkpt lat="44.83702" lon="6.74951">
        <ele>2053.1</ele>
        <time>2026-03-03T08:14:04.000Z</time>
      </trkpt>
      <trkpt lat="44.83701" lon="6.74952">
        <ele>2053.4</ele>
        <time>2026-03-03T08:14:05.000Z</time>
      </trkpt>
      <trkpt lat="44.83701" lon="6.74952">
        <ele>2053.2</ele>
        <time>2026-03-03T08:14:06.000Z</time>
      </trkpt>
      <trkpt lat="44.837" lon="6.74953">
        <ele>2053.2</ele>
        <time>2026-03-03T08:14:07.000Z</time>
      </trkpt>
      <trkpt lat="44.83699" lon="6.74955">
        <ele>2053.3</ele>
        <time>2026-03-03T08:14:08.000Z</time>
      </trkpt>
      <trkpt lat="44.83699" lon="6.74957">
        <ele>2053.3</ele>
        <time>2026-03-03T08:14:09.000Z</time>
      </trkpt>
      <trkpt lat="44.83699" lon="6.74957">
        <ele>2053.6</ele>
        <time>2026-03-03T08:14:10.000Z</time>
      </trkpt>
      <trkpt lat="44.83699" lon="6.74958">
        <ele>2053.4</ele>
        <time>2026-03-03T08:14:11.000Z</time>
      </trkpt>
      <trkpt lat="44.83698" lon="6.74959">
        <ele>2053.4</ele>
        <time>2026-03-03T08:14:12.000Z</time>
      </trkpt>
      <trkpt lat="44.83697" lon="6.74961">
        <ele>2053.5</ele>
        <time>2026-03-03T08:14:13.000Z</time>
      </trkpt>
      <trkpt lat="44.83697" lon="6.74962">
        <ele>2053.4</ele>
        <time>2026-03-03T08:14:14.000Z</time>
      </trkpt>
      <trkpt lat="44.83696" lon="6.74962">
        <ele>2053.9</ele>
        <time>2026-03-03T08:14:15.000Z</time>
      </trkpt>
      <trkpt lat="44.83696" lon="6.74963">
        <ele>2054.1</ele>
        <time>2026-03-03T08:14:16.000Z</time>
      </trkpt>
      <trkpt lat="44.83695" lon="6.74964">
        <ele>2054.1</ele>
        <time>2026-03-03T08:14:17.000Z</time>
      </trkpt>
      <trkpt lat="44.83694" lon="6.74965">
        <ele>2054.3</ele>
        <time>2026-03-03T08:14:18.000Z</time>
      </trkpt>
      <trkpt lat="44.83694" lon="6.74966">
        <ele>2054.3</ele>
        <time>2026-03-03T08:14:19.000Z</time>
      </trkpt>
      <trkpt lat="44.83693" lon="6.74967">
        <ele>2054.2</ele>
        <time>2026-03-03T08:14:20.000Z</time>
      </trkpt>
      <trkpt lat="44.83693" lon="6.74968">
        <ele>2054.3</ele>
        <time>2026-03-03T08:14:21.000Z</time>
      </trkpt>
      <trkpt lat="44.83692" lon="6.74969">
        <ele>2054.5</ele>
        <time>2026-03-03T08:14:22.000Z</time>
      </trkpt>
      <trkpt lat="44.83692" lon="6.7497">
        <ele>2054.6</ele>
        <time>2026-03-03T08:14:23.000Z</time>
      </trkpt>
      <trkpt lat="44.83691" lon="6.74971">
        <ele>2054.7</ele>
        <time>2026-03-03T08:14:24.000Z</time>
      </trkpt>
      <trkpt lat="44.83691" lon="6.74973">
        <ele>2054.8</ele>
        <time>2026-03-03T08:14:25.000Z</time>
      </trkpt>
      <trkpt lat="44.83691" lon="6.74974">
        <ele>2054.9</ele>
        <time>2026-03-03T08:14:26.000Z</time>
      </trkpt>
      <trkpt lat="44.8369" lon="6.74975">
        <ele>2055</ele>
        <time>2026-03-03T08:14:27.000Z</time>
      </trkpt>
      <trkpt lat="44.8369" lon="6.74976">
        <ele>2054.9</ele>
        <time>2026-03-03T08:14:28.000Z</time>
      </trkpt>
      <trkpt lat="44.8369" lon="6.74977">
        <ele>2054.9</ele>
        <time>2026-03-03T08:14:29.000Z</time>
      </trkpt>
      <trkpt lat="44.83689" lon="6.74978">
        <ele>2055</ele>
        <time>2026-03-03T08:14:30.000Z</time>
      </trkpt>
      <trkpt lat="44.83688" lon="6.74979">
        <ele>2055.2</ele>
        <time>2026-03-03T08:14:31.000Z</time>
      </trkpt>
      <trkpt lat="44.83688" lon="6.7498">
        <ele>2055.3</ele>
        <time>2026-03-03T08:14:32.000Z</time>
      </trkpt>
      <trkpt lat="44.83688" lon="6.74981">
        <ele>2055.5</ele>
        <time>2026-03-03T08:14:33.000Z</time>
      </trkpt>
      <trkpt lat="44.83687" lon="6.74981">
        <ele>2055.6</ele>
        <time>2026-03-03T08:14:34.000Z</time>
      </trkpt>
      <trkpt lat="44.83687" lon="6.74982">
        <ele>2055.7</ele>
        <time>2026-03-03T08:14:35.000Z</time>
      </trkpt>
      <trkpt lat="44.83686" lon="6.74983">
        <ele>2055.7</ele>
        <time>2026-03-03T08:14:36.000Z</time>
      </trkpt>
      <trkpt lat="44.83686" lon="6.74984">
        <ele>2055.8</ele>
        <time>2026-03-03T08:14:37.000Z</time>
      </trkpt>
      <trkpt lat="44.83685" lon="6.74985">
        <ele>2056.1</ele>
        <time>2026-03-03T08:14:38.000Z</time>
      </trkpt>
      <trkpt lat="44.83685" lon="6.74986">
        <ele>2056.3</ele>
        <time>2026-03-03T08:14:39.000Z</time>
      </trkpt>
      <trkpt lat="44.83684" lon="6.74987">
        <ele>2056.5</ele>
        <time>2026-03-03T08:14:40.000Z</time>
      </trkpt>
      <trkpt lat="44.83684" lon="6.74988">
        <ele>2056.6</ele>
        <time>2026-03-03T08:14:41.000Z</time>
      </trkpt>
      <trkpt lat="44.83683" lon="6.74989">
        <ele>2056.8</ele>
        <time>2026-03-03T08:14:42.000Z</time>
      </trkpt>
      <trkpt lat="44.83683" lon="6.74989">
        <ele>2056.9</ele>
        <time>2026-03-03T08:14:43.000Z</time>
      </trkpt>
      <trkpt lat="44.83682" lon="6.7499">
        <ele>2057</ele>
        <time>2026-03-03T08:14:44.000Z</time>
      </trkpt>
      <trkpt lat="44.83682" lon="6.74991">
        <ele>2057.2</ele>
        <time>2026-03-03T08:14:45.000Z</time>
      </trkpt>
      <trkpt lat="44.83681" lon="6.74992">
        <ele>2057.2</ele>
        <time>2026-03-03T08:14:46.000Z</time>
      </trkpt>
      <trkpt lat="44.83681" lon="6.74994">
        <ele>2057.3</ele>
        <time>2026-03-03T08:14:47.000Z</time>
      </trkpt>
      <trkpt lat="44.8368" lon="6.74994">
        <ele>2057.4</ele>
        <time>2026-03-03T08:14:48.000Z</time>
      </trkpt>
      <trkpt lat="44.8368" lon="6.74995">
        <ele>2057.2</ele>
        <time>2026-03-03T08:14:49.000Z</time>
      </trkpt>
      <trkpt lat="44.8368" lon="6.74996">
        <ele>2057.2</ele>
        <time>2026-03-03T08:14:50.000Z</time>
      </trkpt>
      <trkpt lat="44.83679" lon="6.74996">
        <ele>2057.2</ele>
        <time>2026-03-03T08:14:51.000Z</time>
      </trkpt>
      <trkpt lat="44.83678" lon="6.74997">
        <ele>2057.4</ele>
        <time>2026-03-03T08:14:52.000Z</time>
      </trkpt>
      <trkpt lat="44.83677" lon="6.74998">
        <ele>2058</ele>
        <time>2026-03-03T08:14:53.000Z</time>
      </trkpt>
      <trkpt lat="44.83676" lon="6.74999">
        <ele>2058.1</ele>
        <time>2026-03-03T08:14:54.000Z</time>
      </trkpt>
      <trkpt lat="44.83676" lon="6.75">
        <ele>2058.1</ele>
        <time>2026-03-03T08:14:55.000Z</time>
      </trkpt>
      <trkpt lat="44.83676" lon="6.75001">
        <ele>2058.1</ele>
        <time>2026-03-03T08:14:56.000Z</time>
      </trkpt>
      <trkpt lat="44.83675" lon="6.75003">
        <ele>2058.4</ele>
        <time>2026-03-03T08:14:57.000Z</time>
      </trkpt>
      <trkpt lat="44.83674" lon="6.75004">
        <ele>2058.4</ele>
        <time>2026-03-03T08:14:58.000Z</time>
      </trkpt>
      <trkpt lat="44.83674" lon="6.75005">
        <ele>2058.5</ele>
        <time>2026-03-03T08:14:59.000Z</time>
      </trkpt>
      <trkpt lat="44.83673" lon="6.75005">
        <ele>2058.7</ele>
        <time>2026-03-03T08:15:00.000Z</time>
      </trkpt>
      <trkpt lat="44.83673" lon="6.75006">
        <ele>2058.9</ele>
        <time>2026-03-03T08:15:01.000Z</time>
      </trkpt>
      <trkpt lat="44.83672" lon="6.75007">
        <ele>2059</ele>
        <time>2026-03-03T08:15:02.000Z</time>
      </trkpt>
      <trkpt lat="44.83672" lon="6.75008">
        <ele>2059.1</ele>
        <time>2026-03-03T08:15:03.000Z</time>
      </trkpt>
      <trkpt lat="44.83671" lon="6.75009">
        <ele>2059.4</ele>
        <time>2026-03-03T08:15:04.000Z</time>
      </trkpt>
      <trkpt lat="44.8367" lon="6.7501">
        <ele>2059.3</ele>
        <time>2026-03-03T08:15:05.000Z</time>
      </trkpt>
      <trkpt lat="44.8367" lon="6.75011">
        <ele>2059.4</ele>
        <time>2026-03-03T08:15:06.000Z</time>
      </trkpt>
      <trkpt lat="44.83669" lon="6.75012">
        <ele>2059.4</ele>
        <time>2026-03-03T08:15:07.000Z</time>
      </trkpt>
      <trkpt lat="44.83668" lon="6.75012">
        <ele>2059.5</ele>
        <time>2026-03-03T08:15:08.000Z</time>
      </trkpt>
      <trkpt lat="44.83667" lon="6.75013">
        <ele>2059.6</ele>
        <time>2026-03-03T08:15:09.000Z</time>
      </trkpt>
      <trkpt lat="44.83667" lon="6.75014">
        <ele>2059.9</ele>
        <time>2026-03-03T08:15:10.000Z</time>
      </trkpt>
      <trkpt lat="44.83667" lon="6.75015">
        <ele>2060.2</ele>
        <time>2026-03-03T08:15:11.000Z</time>
      </trkpt>
      <trkpt lat="44.83666" lon="6.75016">
        <ele>2060.2</ele>
        <time>2026-03-03T08:15:12.000Z</time>
      </trkpt>
      <trkpt lat="44.83666" lon="6.75017">
        <ele>2060.5</ele>
        <time>2026-03-03T08:15:13.000Z</time>
      </trkpt>
      <trkpt lat="44.83665" lon="6.75018">
        <ele>2060.5</ele>
        <time>2026-03-03T08:15:14.000Z</time>
      </trkpt>
      <trkpt lat="44.83665" lon="6.75018">
        <ele>2060.3</ele>
        <time>2026-03-03T08:15:15.000Z</time>
      </trkpt>
      <trkpt lat="44.83665" lon="6.75019">
        <ele>2060.5</ele>
        <time>2026-03-03T08:15:16.000Z</time>
      </trkpt>
      <trkpt lat="44.83664" lon="6.7502">
        <ele>2060.5</ele>
        <time>2026-03-03T08:15:17.000Z</time>
      </trkpt>
      <trkpt lat="44.83664" lon="6.75021">
        <ele>2060.4</ele>
        <time>2026-03-03T08:15:18.000Z</time>
      </trkpt>
      <trkpt lat="44.83663" lon="6.75022">
        <ele>2060.1</ele>
        <time>2026-03-03T08:15:19.000Z</time>
      </trkpt>
      <trkpt lat="44.83663" lon="6.75023">
        <ele>2059.9</ele>
        <time>2026-03-03T08:15:20.000Z</time>
      </trkpt>
      <trkpt lat="44.83662" lon="6.75025">
        <ele>2059.7</ele>
        <time>2026-03-03T08:15:21.000Z</time>
      </trkpt>
      <trkpt lat="44.83661" lon="6.75026">
        <ele>2059.6</ele>
        <time>2026-03-03T08:15:22.000Z</time>
      </trkpt>
      <trkpt lat="44.83661" lon="6.75027">
        <ele>2059.6</ele>
        <time>2026-03-03T08:15:23.000Z</time>
      </trkpt>
      <trkpt lat="44.8366" lon="6.75027">
        <ele>2059.4</ele>
        <time>2026-03-03T08:15:24.000Z</time>
      </trkpt>
      <trkpt lat="44.8366" lon="6.75028">
        <ele>2059.3</ele>
        <time>2026-03-03T08:15:25.000Z</time>
      </trkpt>
      <trkpt lat="44.83659" lon="6.75029">
        <ele>2059.1</ele>
        <time>2026-03-03T08:15:26.000Z</time>
      </trkpt>
      <trkpt lat="44.83659" lon="6.75029">
        <ele>2059.2</ele>
        <time>2026-03-03T08:15:27.000Z</time>
      </trkpt>
      <trkpt lat="44.83658" lon="6.7503">
        <ele>2059.5</ele>
        <time>2026-03-03T08:15:28.000Z</time>
      </trkpt>
      <trkpt lat="44.83657" lon="6.75031">
        <ele>2059.5</ele>
        <time>2026-03-03T08:15:29.000Z</time>
      </trkpt>
      <trkpt lat="44.83656" lon="6.75031">
        <ele>2059.5</ele>
        <time>2026-03-03T08:15:30.000Z</time>
      </trkpt>
      <trkpt lat="44.83656" lon="6.75032">
        <ele>2059.8</ele>
        <time>2026-03-03T08:15:31.000Z</time>
      </trkpt>
      <trkpt lat="44.83655" lon="6.75032">
        <ele>2059.9</ele>
        <time>2026-03-03T08:15:32.000Z</time>
      </trkpt>
      <trkpt lat="44.83654" lon="6.75032">
        <ele>2059.9</ele>
        <time>2026-03-03T08:15:33.000Z</time>
      </trkpt>
      <trkpt lat="44.83654" lon="6.75033">
        <ele>2060.2</ele>
        <time>2026-03-03T08:15:34.000Z</time>
      </trkpt>
      <trkpt lat="44.83653" lon="6.75033">
        <ele>2060.6</ele>
        <time>2026-03-03T08:15:35.000Z</time>
      </trkpt>
      <trkpt lat="44.83652" lon="6.75034">
        <ele>2060.7</ele>
        <time>2026-03-03T08:15:36.000Z</time>
      </trkpt>
      <trkpt lat="44.83651" lon="6.75035">
        <ele>2060.4</ele>
        <time>2026-03-03T08:15:37.000Z</time>
      </trkpt>
      <trkpt lat="44.8365" lon="6.75035">
        <ele>2060.4</ele>
        <time>2026-03-03T08:15:38.000Z</time>
      </trkpt>
      <trkpt lat="44.83649" lon="6.75036">
        <ele>2060.6</ele>
        <time>2026-03-03T08:15:39.000Z</time>
      </trkpt>
      <trkpt lat="44.83649" lon="6.75036">
        <ele>2060.7</ele>
        <time>2026-03-03T08:15:40.000Z</time>
      </trkpt>
      <trkpt lat="44.83648" lon="6.75037">
        <ele>2060.6</ele>
        <time>2026-03-03T08:15:41.000Z</time>
      </trkpt>
      <trkpt lat="44.83647" lon="6.75037">
        <ele>2060.9</ele>
        <time>2026-03-03T08:15:42.000Z</time>
      </trkpt>
      <trkpt lat="44.83646" lon="6.75038">
        <ele>2061.2</ele>
        <time>2026-03-03T08:15:43.000Z</time>
      </trkpt>
      <trkpt lat="44.83645" lon="6.75038">
        <ele>2061.3</ele>
        <time>2026-03-03T08:15:44.000Z</time>
      </trkpt>
      <trkpt lat="44.83644" lon="6.75039">
        <ele>2061.6</ele>
        <time>2026-03-03T08:15:45.000Z</time>
      </trkpt>
      <trkpt lat="44.83644" lon="6.75039">
        <ele>2061.7</ele>
        <time>2026-03-03T08:15:46.000Z</time>
      </trkpt>
      <trkpt lat="44.83643" lon="6.75039">
        <ele>2061.8</ele>
        <time>2026-03-03T08:15:47.000Z</time>
      </trkpt>
      <trkpt lat="44.83643" lon="6.7504">
        <ele>2062.1</ele>
        <time>2026-03-03T08:15:48.000Z</time>
      </trkpt>
      <trkpt lat="44.83642" lon="6.75041">
        <ele>2062.3</ele>
        <time>2026-03-03T08:15:49.000Z</time>
      </trkpt>
      <trkpt lat="44.83642" lon="6.75042">
        <ele>2062.4</ele>
        <time>2026-03-03T08:15:50.000Z</time>
      </trkpt>
      <trkpt lat="44.83641" lon="6.75043">
        <ele>2062.6</ele>
        <time>2026-03-03T08:15:51.000Z</time>
      </trkpt>
      <trkpt lat="44.8364" lon="6.75043">
        <ele>2062.6</ele>
        <time>2026-03-03T08:15:52.000Z</time>
      </trkpt>
      <trkpt lat="44.83639" lon="6.75044">
        <ele>2062.6</ele>
        <time>2026-03-03T08:15:53.000Z</time>
      </trkpt>
      <trkpt lat="44.83639" lon="6.75045">
        <ele>2062.9</ele>
        <time>2026-03-03T08:15:54.000Z</time>
      </trkpt>
      <trkpt lat="44.83638" lon="6.75046">
        <ele>2062.9</ele>
        <time>2026-03-03T08:15:55.000Z</time>
      </trkpt>
      <trkpt lat="44.83638" lon="6.75046">
        <ele>2063.1</ele>
        <time>2026-03-03T08:15:56.000Z</time>
      </trkpt>
      <trkpt lat="44.83637" lon="6.75047">
        <ele>2063.2</ele>
        <time>2026-03-03T08:15:57.000Z</time>
      </trkpt>
      <trkpt lat="44.83637" lon="6.75048">
        <ele>2063.1</ele>
        <time>2026-03-03T08:15:58.000Z</time>
      </trkpt>
      <trkpt lat="44.83636" lon="6.75049">
        <ele>2062.9</ele>
        <time>2026-03-03T08:15:59.000Z</time>
      </trkpt>
      <trkpt lat="44.83635" lon="6.7505">
        <ele>2062.9</ele>
        <time>2026-03-03T08:16:00.000Z</time>
      </trkpt>
      <trkpt lat="44.83634" lon="6.7505">
        <ele>2062.9</ele>
        <time>2026-03-03T08:16:01.000Z</time>
      </trkpt>
      <trkpt lat="44.83633" lon="6.75051">
        <ele>2062.9</ele>
        <time>2026-03-03T08:16:02.000Z</time>
      </trkpt>
      <trkpt lat="44.83632" lon="6.75052">
        <ele>2062.7</ele>
        <time>2026-03-03T08:16:03.000Z</time>
      </trkpt>
      <trkpt lat="44.83632" lon="6.75052">
        <ele>2062.9</ele>
        <time>2026-03-03T08:16:04.000Z</time>
      </trkpt>
      <trkpt lat="44.83631" lon="6.75053">
        <ele>2063.3</ele>
        <time>2026-03-03T08:16:05.000Z</time>
      </trkpt>
      <trkpt lat="44.83631" lon="6.75053">
        <ele>2063.5</ele>
        <time>2026-03-03T08:16:06.000Z</time>
      </trkpt>
      <trkpt lat="44.83631" lon="6.75054">
        <ele>2063.9</ele>
        <time>2026-03-03T08:16:07.000Z</time>
      </trkpt>
      <trkpt lat="44.8363" lon="6.75055">
        <ele>2064.2</ele>
        <time>2026-03-03T08:16:08.000Z</time>
      </trkpt>
      <trkpt lat="44.83629" lon="6.75055">
        <ele>2064.3</ele>
        <time>2026-03-03T08:16:09.000Z</time>
      </trkpt>
      <trkpt lat="44.83628" lon="6.75056">
        <ele>2064.4</ele>
        <time>2026-03-03T08:16:10.000Z</time>
      </trkpt>
      <trkpt lat="44.83627" lon="6.75057">
        <ele>2064.4</ele>
        <time>2026-03-03T08:16:11.000Z</time>
      </trkpt>
      <trkpt lat="44.83626" lon="6.75057">
        <ele>2064.5</ele>
        <time>2026-03-03T08:16:12.000Z</time>
      </trkpt>
      <trkpt lat="44.83625" lon="6.75058">
        <ele>2064.8</ele>
        <time>2026-03-03T08:16:13.000Z</time>
      </trkpt>
      <trkpt lat="44.83625" lon="6.75058">
        <ele>2065.2</ele>
        <time>2026-03-03T08:16:14.000Z</time>
      </trkpt>
      <trkpt lat="44.83625" lon="6.75059">
        <ele>2065.5</ele>
        <time>2026-03-03T08:16:15.000Z</time>
      </trkpt>
      <trkpt lat="44.83624" lon="6.75059">
        <ele>2065.9</ele>
        <time>2026-03-03T08:16:16.000Z</time>
      </trkpt>
      <trkpt lat="44.83624" lon="6.7506">
        <ele>2066</ele>
        <time>2026-03-03T08:16:17.000Z</time>
      </trkpt>
      <trkpt lat="44.83623" lon="6.75061">
        <ele>2066</ele>
        <time>2026-03-03T08:16:18.000Z</time>
      </trkpt>
      <trkpt lat="44.83622" lon="6.75062">
        <ele>2065.9</ele>
        <time>2026-03-03T08:16:19.000Z</time>
      </trkpt>
      <trkpt lat="44.83621" lon="6.75062">
        <ele>2065.9</ele>
        <time>2026-03-03T08:16:20.000Z</time>
      </trkpt>
      <trkpt lat="44.8362" lon="6.75063">
        <ele>2066</ele>
        <time>2026-03-03T08:16:21.000Z</time>
      </trkpt>
      <trkpt lat="44.8362" lon="6.75064">
        <ele>2066.2</ele>
        <time>2026-03-03T08:16:22.000Z</time>
      </trkpt>
      <trkpt lat="44.83619" lon="6.75064">
        <ele>2066.2</ele>
        <time>2026-03-03T08:16:23.000Z</time>
      </trkpt>
      <trkpt lat="44.83618" lon="6.75065">
        <ele>2066.5</ele>
        <time>2026-03-03T08:16:24.000Z</time>
      </trkpt>
      <trkpt lat="44.83618" lon="6.75065">
        <ele>2067</ele>
        <time>2026-03-03T08:16:25.000Z</time>
      </trkpt>
      <trkpt lat="44.83618" lon="6.75067">
        <ele>2067.1</ele>
        <time>2026-03-03T08:16:26.000Z</time>
      </trkpt>
      <trkpt lat="44.83617" lon="6.75068">
        <ele>2067.2</ele>
        <time>2026-03-03T08:16:27.000Z</time>
      </trkpt>
      <trkpt lat="44.83617" lon="6.75068">
        <ele>2067.4</ele>
        <time>2026-03-03T08:16:28.000Z</time>
      </trkpt>
      <trkpt lat="44.83617" lon="6.75069">
        <ele>2067.5</ele>
        <time>2026-03-03T08:16:29.000Z</time>
      </trkpt>
      <trkpt lat="44.83616" lon="6.7507">
        <ele>2067.4</ele>
        <time>2026-03-03T08:16:30.000Z</time>
      </trkpt>
      <trkpt lat="44.83615" lon="6.75071">
        <ele>2067.4</ele>
        <time>2026-03-03T08:16:31.000Z</time>
      </trkpt>
      <trkpt lat="44.83615" lon="6.75072">
        <ele>2067.6</ele>
        <time>2026-03-03T08:16:32.000Z</time>
      </trkpt>
      <trkpt lat="44.83614" lon="6.75073">
        <ele>2067.6</ele>
        <time>2026-03-03T08:16:33.000Z</time>
      </trkpt>
      <trkpt lat="44.83614" lon="6.75073">
        <ele>2067.6</ele>
        <time>2026-03-03T08:16:34.000Z</time>
      </trkpt>
      <trkpt lat="44.83614" lon="6.75074">
        <ele>2067.5</ele>
        <time>2026-03-03T08:16:35.000Z</time>
      </trkpt>
      <trkpt lat="44.83613" lon="6.75075">
        <ele>2067.5</ele>
        <time>2026-03-03T08:16:36.000Z</time>
      </trkpt>
      <trkpt lat="44.83612" lon="6.75075">
        <ele>2067.7</ele>
        <time>2026-03-03T08:16:37.000Z</time>
      </trkpt>
      <trkpt lat="44.83612" lon="6.75076">
        <ele>2067.8</ele>
        <time>2026-03-03T08:16:38.000Z</time>
      </trkpt>
      <trkpt lat="44.83611" lon="6.75076">
        <ele>2067.9</ele>
        <time>2026-03-03T08:16:39.000Z</time>
      </trkpt>
      <trkpt lat="44.83611" lon="6.75077">
        <ele>2068</ele>
        <time>2026-03-03T08:16:40.000Z</time>
      </trkpt>
      <trkpt lat="44.8361" lon="6.75079">
        <ele>2067.9</ele>
        <time>2026-03-03T08:16:41.000Z</time>
      </trkpt>
      <trkpt lat="44.8361" lon="6.7508">
        <ele>2067.7</ele>
        <time>2026-03-03T08:16:42.000Z</time>
      </trkpt>
      <trkpt lat="44.8361" lon="6.75081">
        <ele>2067.6</ele>
        <time>2026-03-03T08:16:43.000Z</time>
      </trkpt>
      <trkpt lat="44.83609" lon="6.75081">
        <ele>2067.7</ele>
        <time>2026-03-03T08:16:44.000Z</time>
      </trkpt>
      <trkpt lat="44.83609" lon="6.75082">
        <ele>2067.6</ele>
        <time>2026-03-03T08:16:45.000Z</time>
      </trkpt>
      <trkpt lat="44.83608" lon="6.75082">
        <ele>2067.7</ele>
        <time>2026-03-03T08:16:46.000Z</time>
      </trkpt>
      <trkpt lat="44.83607" lon="6.75082">
        <ele>2067.8</ele>
        <time>2026-03-03T08:16:47.000Z</time>
      </trkpt>
      <trkpt lat="44.83607" lon="6.75083">
        <ele>2068.2</ele>
        <time>2026-03-03T08:16:48.000Z</time>
      </trkpt>
      <trkpt lat="44.83606" lon="6.75083">
        <ele>2068.6</ele>
        <time>2026-03-03T08:16:49.000Z</time>
      </trkpt>
      <trkpt lat="44.83605" lon="6.75083">
        <ele>2068.8</ele>
        <time>2026-03-03T08:16:50.000Z</time>
      </trkpt>
      <trkpt lat="44.83605" lon="6.75083">
        <ele>2069</ele>
        <time>2026-03-03T08:16:51.000Z</time>
      </trkpt>
      <trkpt lat="44.83604" lon="6.75084">
        <ele>2068.9</ele>
        <time>2026-03-03T08:16:52.000Z</time>
      </trkpt>
      <trkpt lat="44.83603" lon="6.75084">
        <ele>2069.1</ele>
        <time>2026-03-03T08:16:53.000Z</time>
      </trkpt>
      <trkpt lat="44.83602" lon="6.75084">
        <ele>2069.2</ele>
        <time>2026-03-03T08:16:54.000Z</time>
      </trkpt>
      <trkpt lat="44.83602" lon="6.75085">
        <ele>2069.4</ele>
        <time>2026-03-03T08:16:55.000Z</time>
      </trkpt>
      <trkpt lat="44.83601" lon="6.75085">
        <ele>2069.7</ele>
        <time>2026-03-03T08:16:56.000Z</time>
      </trkpt>
      <trkpt lat="44.83601" lon="6.75086">
        <ele>2069.9</ele>
        <time>2026-03-03T08:16:57.000Z</time>
      </trkpt>
      <trkpt lat="44.836" lon="6.75086">
        <ele>2070.2</ele>
        <time>2026-03-03T08:16:58.000Z</time>
      </trkpt>
      <trkpt lat="44.836" lon="6.75086">
        <ele>2070.4</ele>
        <time>2026-03-03T08:16:59.000Z</time>
      </trkpt>
      <trkpt lat="44.83599" lon="6.75086">
        <ele>2070.6</ele>
        <time>2026-03-03T08:17:00.000Z</time>
      </trkpt>
      <trkpt lat="44.83599" lon="6.75086">
        <ele>2070.6</ele>
        <time>2026-03-03T08:17:01.000Z</time>
      </trkpt>
      <trkpt lat="44.83599" lon="6.75087">
        <ele>2070.3</ele>
        <time>2026-03-03T08:17:02.000Z</time>
      </trkpt>
      <trkpt lat="44.83599" lon="6.75087">
        <ele>2070.4</ele>
        <time>2026-03-03T08:17:03.000Z</time>
      </trkpt>
      <trkpt lat="44.83598" lon="6.75088">
        <ele>2070.2</ele>
        <time>2026-03-03T08:17:04.000Z</time>
      </trkpt>
      <trkpt lat="44.83597" lon="6.75088">
        <ele>2070.1</ele>
        <time>2026-03-03T08:17:05.000Z</time>
      </trkpt>
      <trkpt lat="44.83596" lon="6.75088">
        <ele>2070.1</ele>
        <time>2026-03-03T08:17:06.000Z</time>
      </trkpt>
      <trkpt lat="44.83596" lon="6.75089">
        <ele>2069.9</ele>
        <time>2026-03-03T08:17:07.000Z</time>
      </trkpt>
      <trkpt lat="44.83595" lon="6.75089">
        <ele>2070</ele>
        <time>2026-03-03T08:17:08.000Z</time>
      </trkpt>
      <trkpt lat="44.83594" lon="6.75089">
        <ele>2069.9</ele>
        <time>2026-03-03T08:17:09.000Z</time>
      </trkpt>
      <trkpt lat="44.83593" lon="6.75089">
        <ele>2069.8</ele>
        <time>2026-03-03T08:17:10.000Z</time>
      </trkpt>
      <trkpt lat="44.83592" lon="6.7509">
        <ele>2069.6</ele>
        <time>2026-03-03T08:17:11.000Z</time>
      </trkpt>
      <trkpt lat="44.8359" lon="6.7509">
        <ele>2069.7</ele>
        <time>2026-03-03T08:17:12.000Z</time>
      </trkpt>
      <trkpt lat="44.83589" lon="6.75091">
        <ele>2069.7</ele>
        <time>2026-03-03T08:17:13.000Z</time>
      </trkpt>
      <trkpt lat="44.83588" lon="6.75091">
        <ele>2069.6</ele>
        <time>2026-03-03T08:17:14.000Z</time>
      </trkpt>
      <trkpt lat="44.83587" lon="6.75091">
        <ele>2069.7</ele>
        <time>2026-03-03T08:17:15.000Z</time>
      </trkpt>
      <trkpt lat="44.83586" lon="6.75091">
        <ele>2069.7</ele>
        <time>2026-03-03T08:17:16.000Z</time>
      </trkpt>
      <trkpt lat="44.83586" lon="6.75091">
        <ele>2070</ele>
        <time>2026-03-03T08:17:17.000Z</time>
      </trkpt>
      <trkpt lat="44.83586" lon="6.75092">
        <ele>2070.4</ele>
        <time>2026-03-03T08:17:18.000Z</time>
      </trkpt>
      <trkpt lat="44.83585" lon="6.75092">
        <ele>2070.6</ele>
        <time>2026-03-03T08:17:19.000Z</time>
      </trkpt>
      <trkpt lat="44.83585" lon="6.75093">
        <ele>2071.1</ele>
        <time>2026-03-03T08:17:20.000Z</time>
      </trkpt>
      <trkpt lat="44.83584" lon="6.75094">
        <ele>2071.3</ele>
        <time>2026-03-03T08:17:21.000Z</time>
      </trkpt>
      <trkpt lat="44.83584" lon="6.75094">
        <ele>2071.4</ele>
        <time>2026-03-03T08:17:22.000Z</time>
      </trkpt>
      <trkpt lat="44.83583" lon="6.75094">
        <ele>2071.7</ele>
        <time>2026-03-03T08:17:23.000Z</time>
      </trkpt>
      <trkpt lat="44.83583" lon="6.75095">
        <ele>2071.8</ele>
        <time>2026-03-03T08:17:24.000Z</time>
      </trkpt>
      <trkpt lat="44.83582" lon="6.75095">
        <ele>2072</ele>
        <time>2026-03-03T08:17:25.000Z</time>
      </trkpt>
      <trkpt lat="44.83582" lon="6.75096">
        <ele>2072</ele>
        <time>2026-03-03T08:17:26.000Z</time>
      </trkpt>
      <trkpt lat="44.83581" lon="6.75097">
        <ele>2072.4</ele>
        <time>2026-03-03T08:17:27.000Z</time>
      </trkpt>
      <trkpt lat="44.8358" lon="6.75097">
        <ele>2072.8</ele>
        <time>2026-03-03T08:17:28.000Z</time>
      </trkpt>
      <trkpt lat="44.83579" lon="6.75097">
        <ele>2073</ele>
        <time>2026-03-03T08:17:29.000Z</time>
      </trkpt>
      <trkpt lat="44.83578" lon="6.75098">
        <ele>2072.9</ele>
        <time>2026-03-03T08:17:30.000Z</time>
      </trkpt>
      <trkpt lat="44.83578" lon="6.75098">
        <ele>2072.9</ele>
        <time>2026-03-03T08:17:31.000Z</time>
      </trkpt>
      <trkpt lat="44.83577" lon="6.75099">
        <ele>2073.2</ele>
        <time>2026-03-03T08:17:32.000Z</time>
      </trkpt>
      <trkpt lat="44.83576" lon="6.751">
        <ele>2073.4</ele>
        <time>2026-03-03T08:17:33.000Z</time>
      </trkpt>
      <trkpt lat="44.83576" lon="6.75101">
        <ele>2073.5</ele>
        <time>2026-03-03T08:17:34.000Z</time>
      </trkpt>
      <trkpt lat="44.83575" lon="6.75101">
        <ele>2073.5</ele>
        <time>2026-03-03T08:17:35.000Z</time>
      </trkpt>
      <trkpt lat="44.83574" lon="6.75102">
        <ele>2073.6</ele>
        <time>2026-03-03T08:17:36.000Z</time>
      </trkpt>
      <trkpt lat="44.83574" lon="6.75102">
        <ele>2073.9</ele>
        <time>2026-03-03T08:17:37.000Z</time>
      </trkpt>
      <trkpt lat="44.83574" lon="6.75103">
        <ele>2074.1</ele>
        <time>2026-03-03T08:17:38.000Z</time>
      </trkpt>
      <trkpt lat="44.83573" lon="6.75103">
        <ele>2074.3</ele>
        <time>2026-03-03T08:17:39.000Z</time>
      </trkpt>
      <trkpt lat="44.83572" lon="6.75104">
        <ele>2074.5</ele>
        <time>2026-03-03T08:17:40.000Z</time>
      </trkpt>
      <trkpt lat="44.83572" lon="6.75105">
        <ele>2074.5</ele>
        <time>2026-03-03T08:17:41.000Z</time>
      </trkpt>
      <trkpt lat="44.83571" lon="6.75105">
        <ele>2074.6</ele>
        <time>2026-03-03T08:17:42.000Z</time>
      </trkpt>
      <trkpt lat="44.83571" lon="6.75106">
        <ele>2074.6</ele>
        <time>2026-03-03T08:17:43.000Z</time>
      </trkpt>
      <trkpt lat="44.8357" lon="6.75106">
        <ele>2074.5</ele>
        <time>2026-03-03T08:17:44.000Z</time>
      </trkpt>
      <trkpt lat="44.83569" lon="6.75107">
        <ele>2074.7</ele>
        <time>2026-03-03T08:17:45.000Z</time>
      </trkpt>
      <trkpt lat="44.83569" lon="6.75108">
        <ele>2075</ele>
        <time>2026-03-03T08:17:46.000Z</time>
      </trkpt>
      <trkpt lat="44.83568" lon="6.75109">
        <ele>2075.1</ele>
        <time>2026-03-03T08:17:47.000Z</time>
      </trkpt>
      <trkpt lat="44.83567" lon="6.7511">
        <ele>2075</ele>
        <time>2026-03-03T08:17:48.000Z</time>
      </trkpt>
      <trkpt lat="44.83565" lon="6.75111">
        <ele>2074.7</ele>
        <time>2026-03-03T08:17:49.000Z</time>
      </trkpt>
      <trkpt lat="44.83564" lon="6.75111">
        <ele>2074.5</ele>
        <time>2026-03-03T08:17:50.000Z</time>
      </trkpt>
      <trkpt lat="44.83563" lon="6.75111">
        <ele>2074.9</ele>
        <time>2026-03-03T08:17:51.000Z</time>
      </trkpt>
      <trkpt lat="44.83562" lon="6.75112">
        <ele>2075.2</ele>
        <time>2026-03-03T08:17:52.000Z</time>
      </trkpt>
      <trkpt lat="44.83562" lon="6.75113">
        <ele>2075.4</ele>
        <time>2026-03-03T08:17:53.000Z</time>
      </trkpt>
      <trkpt lat="44.83561" lon="6.75113">
        <ele>2075.5</ele>
        <time>2026-03-03T08:17:54.000Z</time>
      </trkpt>
      <trkpt lat="44.83561" lon="6.75113">
        <ele>2075.7</ele>
        <time>2026-03-03T08:17:55.000Z</time>
      </trkpt>
      <trkpt lat="44.83561" lon="6.75114">
        <ele>2075.9</ele>
        <time>2026-03-03T08:17:56.000Z</time>
      </trkpt>
      <trkpt lat="44.83561" lon="6.75115">
        <ele>2076.1</ele>
        <time>2026-03-03T08:17:57.000Z</time>
      </trkpt>
      <trkpt lat="44.8356" lon="6.75115">
        <ele>2076.4</ele>
        <time>2026-03-03T08:17:58.000Z</time>
      </trkpt>
      <trkpt lat="44.8356" lon="6.75116">
        <ele>2076.7</ele>
        <time>2026-03-03T08:17:59.000Z</time>
      </trkpt>
      <trkpt lat="44.83559" lon="6.75116">
        <ele>2077</ele>
        <time>2026-03-03T08:18:00.000Z</time>
      </trkpt>
      <trkpt lat="44.83558" lon="6.75116">
        <ele>2077.1</ele>
        <time>2026-03-03T08:18:01.000Z</time>
      </trkpt>
      <trkpt lat="44.83558" lon="6.75117">
        <ele>2077</ele>
        <time>2026-03-03T08:18:02.000Z</time>
      </trkpt>
      <trkpt lat="44.83557" lon="6.75118">
        <ele>2077</ele>
        <time>2026-03-03T08:18:03.000Z</time>
      </trkpt>
      <trkpt lat="44.83557" lon="6.75119">
        <ele>2076.9</ele>
        <time>2026-03-03T08:18:04.000Z</time>
      </trkpt>
      <trkpt lat="44.83556" lon="6.7512">
        <ele>2077</ele>
        <time>2026-03-03T08:18:05.000Z</time>
      </trkpt>
      <trkpt lat="44.83556" lon="6.7512">
        <ele>2077.2</ele>
        <time>2026-03-03T08:18:06.000Z</time>
      </trkpt>
      <trkpt lat="44.83555" lon="6.7512">
        <ele>2077.3</ele>
        <time>2026-03-03T08:18:07.000Z</time>
      </trkpt>
      <trkpt lat="44.83554" lon="6.75121">
        <ele>2077.2</ele>
        <time>2026-03-03T08:18:08.000Z</time>
      </trkpt>
      <trkpt lat="44.83553" lon="6.75121">
        <ele>2077.5</ele>
        <time>2026-03-03T08:18:09.000Z</time>
      </trkpt>
      <trkpt lat="44.83552" lon="6.75122">
        <ele>2077.9</ele>
        <time>2026-03-03T08:18:10.000Z</time>
      </trkpt>
      <trkpt lat="44.83552" lon="6.75123">
        <ele>2078</ele>
        <time>2026-03-03T08:18:11.000Z</time>
      </trkpt>
      <trkpt lat="44.83551" lon="6.75124">
        <ele>2078.2</ele>
        <time>2026-03-03T08:18:12.000Z</time>
      </trkpt>
      <trkpt lat="44.83551" lon="6.75125">
        <ele>2078.4</ele>
        <time>2026-03-03T08:18:13.000Z</time>
      </trkpt>
      <trkpt lat="44.8355" lon="6.75126">
        <ele>2078.3</ele>
        <time>2026-03-03T08:18:14.000Z</time>
      </trkpt>
      <trkpt lat="44.83549" lon="6.75126">
        <ele>2078.4</ele>
        <time>2026-03-03T08:18:15.000Z</time>
      </trkpt>
      <trkpt lat="44.83549" lon="6.75126">
        <ele>2078.6</ele>
        <time>2026-03-03T08:18:16.000Z</time>
      </trkpt>
      <trkpt lat="44.83549" lon="6.75127">
        <ele>2078.8</ele>
        <time>2026-03-03T08:18:17.000Z</time>
      </trkpt>
      <trkpt lat="44.83548" lon="6.75128">
        <ele>2079</ele>
        <time>2026-03-03T08:18:18.000Z</time>
      </trkpt>
      <trkpt lat="44.83548" lon="6.75128">
        <ele>2079</ele>
        <time>2026-03-03T08:18:19.000Z</time>
      </trkpt>
      <trkpt lat="44.83548" lon="6.75129">
        <ele>2079.1</ele>
        <time>2026-03-03T08:18:20.000Z</time>
      </trkpt>
      <trkpt lat="44.83547" lon="6.7513">
        <ele>2078.9</ele>
        <time>2026-03-03T08:18:21.000Z</time>
      </trkpt>
      <trkpt lat="44.83546" lon="6.7513">
        <ele>2078.7</ele>
        <time>2026-03-03T08:18:22.000Z</time>
      </trkpt>
      <trkpt lat="44.83546" lon="6.75131">
        <ele>2079</ele>
        <time>2026-03-03T08:18:23.000Z</time>
      </trkpt>
      <trkpt lat="44.83545" lon="6.75131">
        <ele>2079.2</ele>
        <time>2026-03-03T08:18:24.000Z</time>
      </trkpt>
      <trkpt lat="44.83544" lon="6.75132">
        <ele>2079.3</ele>
        <time>2026-03-03T08:18:25.000Z</time>
      </trkpt>
      <trkpt lat="44.83544" lon="6.75132">
        <ele>2079.4</ele>
        <time>2026-03-03T08:18:26.000Z</time>
      </trkpt>
      <trkpt lat="44.83542" lon="6.75133">
        <ele>2079.3</ele>
        <time>2026-03-03T08:18:27.000Z</time>
      </trkpt>
      <trkpt lat="44.83542" lon="6.75134">
        <ele>2079.3</ele>
        <time>2026-03-03T08:18:28.000Z</time>
      </trkpt>
      <trkpt lat="44.83541" lon="6.75135">
        <ele>2079.4</ele>
        <time>2026-03-03T08:18:29.000Z</time>
      </trkpt>
      <trkpt lat="44.8354" lon="6.75136">
        <ele>2079.5</ele>
        <time>2026-03-03T08:18:30.000Z</time>
      </trkpt>
      <trkpt lat="44.8354" lon="6.75136">
        <ele>2079.7</ele>
        <time>2026-03-03T08:18:31.000Z</time>
      </trkpt>
      <trkpt lat="44.83539" lon="6.75136">
        <ele>2080</ele>
        <time>2026-03-03T08:18:32.000Z</time>
      </trkpt>
      <trkpt lat="44.83539" lon="6.75136">
        <ele>2079.9</ele>
        <time>2026-03-03T08:18:33.000Z</time>
      </trkpt>
      <trkpt lat="44.83539" lon="6.75137">
        <ele>2079.8</ele>
        <time>2026-03-03T08:18:34.000Z</time>
      </trkpt>
      <trkpt lat="44.83538" lon="6.75137">
        <ele>2080</ele>
        <time>2026-03-03T08:18:35.000Z</time>
      </trkpt>
      <trkpt lat="44.83537" lon="6.75138">
        <ele>2080.2</ele>
        <time>2026-03-03T08:18:36.000Z</time>
      </trkpt>
      <trkpt lat="44.83537" lon="6.75138">
        <ele>2080.4</ele>
        <time>2026-03-03T08:18:37.000Z</time>
      </trkpt>
      <trkpt lat="44.83536" lon="6.75139">
        <ele>2080.6</ele>
        <time>2026-03-03T08:18:38.000Z</time>
      </trkpt>
      <trkpt lat="44.83535" lon="6.75139">
        <ele>2080.8</ele>
        <time>2026-03-03T08:18:39.000Z</time>
      </trkpt>
      <trkpt lat="44.83534" lon="6.7514">
        <ele>2080.9</ele>
        <time>2026-03-03T08:18:40.000Z</time>
      </trkpt>
      <trkpt lat="44.83533" lon="6.75141">
        <ele>2081</ele>
        <time>2026-03-03T08:18:41.000Z</time>
      </trkpt>
      <trkpt lat="44.83533" lon="6.75142">
        <ele>2081.1</ele>
        <time>2026-03-03T08:18:42.000Z</time>
      </trkpt>
      <trkpt lat="44.83532" lon="6.75142">
        <ele>2081.3</ele>
        <time>2026-03-03T08:18:43.000Z</time>
      </trkpt>
      <trkpt lat="44.83532" lon="6.75143">
        <ele>2081.6</ele>
        <time>2026-03-03T08:18:44.000Z</time>
      </trkpt>
      <trkpt lat="44.83532" lon="6.75144">
        <ele>2081.6</ele>
        <time>2026-03-03T08:18:45.000Z</time>
      </trkpt>
      <trkpt lat="44.83531" lon="6.75145">
        <ele>2081.5</ele>
        <time>2026-03-03T08:18:46.000Z</time>
      </trkpt>
      <trkpt lat="44.83531" lon="6.75146">
        <ele>2081.2</ele>
        <time>2026-03-03T08:18:47.000Z</time>
      </trkpt>
      <trkpt lat="44.8353" lon="6.75147">
        <ele>2081.2</ele>
        <time>2026-03-03T08:18:48.000Z</time>
      </trkpt>
      <trkpt lat="44.83529" lon="6.75147">
        <ele>2081.7</ele>
        <time>2026-03-03T08:18:49.000Z</time>
      </trkpt>
      <trkpt lat="44.83528" lon="6.75148">
        <ele>2081.9</ele>
        <time>2026-03-03T08:18:50.000Z</time>
      </trkpt>
      <trkpt lat="44.83528" lon="6.75148">
        <ele>2082.1</ele>
        <time>2026-03-03T08:18:51.000Z</time>
      </trkpt>
      <trkpt lat="44.83527" lon="6.75149">
        <ele>2082.2</ele>
        <time>2026-03-03T08:18:52.000Z</time>
      </trkpt>
      <trkpt lat="44.83526" lon="6.75149">
        <ele>2082.3</ele>
        <time>2026-03-03T08:18:53.000Z</time>
      </trkpt>
      <trkpt lat="44.83525" lon="6.75149">
        <ele>2082.4</ele>
        <time>2026-03-03T08:18:54.000Z</time>
      </trkpt>
      <trkpt lat="44.83525" lon="6.7515">
        <ele>2082.4</ele>
        <time>2026-03-03T08:18:55.000Z</time>
      </trkpt>
      <trkpt lat="44.83524" lon="6.7515">
        <ele>2082.7</ele>
        <time>2026-03-03T08:18:56.000Z</time>
      </trkpt>
      <trkpt lat="44.83523" lon="6.75151">
        <ele>2082.7</ele>
        <time>2026-03-03T08:18:57.000Z</time>
      </trkpt>
      <trkpt lat="44.83523" lon="6.75152">
        <ele>2082.8</ele>
        <time>2026-03-03T08:18:58.000Z</time>
      </trkpt>
      <trkpt lat="44.83522" lon="6.75153">
        <ele>2082.8</ele>
        <time>2026-03-03T08:18:59.000Z</time>
      </trkpt>
      <trkpt lat="44.83521" lon="6.75153">
        <ele>2082.9</ele>
        <time>2026-03-03T08:19:00.000Z</time>
      </trkpt>
      <trkpt lat="44.83521" lon="6.75153">
        <ele>2083</ele>
        <time>2026-03-03T08:19:01.000Z</time>
      </trkpt>
      <trkpt lat="44.8352" lon="6.75154">
        <ele>2083.1</ele>
        <time>2026-03-03T08:19:02.000Z</time>
      </trkpt>
      <trkpt lat="44.8352" lon="6.75154">
        <ele>2082.9</ele>
        <time>2026-03-03T08:19:03.000Z</time>
      </trkpt>
      <trkpt lat="44.83519" lon="6.75155">
        <ele>2083</ele>
        <time>2026-03-03T08:19:04.000Z</time>
      </trkpt>
      <trkpt lat="44.83518" lon="6.75156">
        <ele>2083.1</ele>
        <time>2026-03-03T08:19:05.000Z</time>
      </trkpt>
      <trkpt lat="44.83518" lon="6.75156">
        <ele>2083.1</ele>
        <time>2026-03-03T08:19:06.000Z</time>
      </trkpt>
      <trkpt lat="44.83518" lon="6.75157">
        <ele>2083.2</ele>
        <time>2026-03-03T08:19:07.000Z</time>
      </trkpt>
      <trkpt lat="44.83517" lon="6.75157">
        <ele>2083.2</ele>
        <time>2026-03-03T08:19:08.000Z</time>
      </trkpt>
      <trkpt lat="44.83517" lon="6.75158">
        <ele>2083.5</ele>
        <time>2026-03-03T08:19:09.000Z</time>
      </trkpt>
      <trkpt lat="44.83516" lon="6.75158">
        <ele>2083.5</ele>
        <time>2026-03-03T08:19:10.000Z</time>
      </trkpt>
      <trkpt lat="44.83516" lon="6.75159">
        <ele>2083.4</ele>
        <time>2026-03-03T08:19:11.000Z</time>
      </trkpt>
      <trkpt lat="44.83515" lon="6.7516">
        <ele>2083.4</ele>
        <time>2026-03-03T08:19:12.000Z</time>
      </trkpt>
      <trkpt lat="44.83514" lon="6.75161">
        <ele>2083.5</ele>
        <time>2026-03-03T08:19:13.000Z</time>
      </trkpt>
      <trkpt lat="44.83514" lon="6.75162">
        <ele>2083.5</ele>
        <time>2026-03-03T08:19:14.000Z</time>
      </trkpt>
      <trkpt lat="44.83514" lon="6.75162">
        <ele>2083.5</ele>
        <time>2026-03-03T08:19:15.000Z</time>
      </trkpt>
      <trkpt lat="44.83513" lon="6.75163">
        <ele>2083.6</ele>
        <time>2026-03-03T08:19:16.000Z</time>
      </trkpt>
      <trkpt lat="44.83512" lon="6.75163">
        <ele>2083.7</ele>
        <time>2026-03-03T08:19:17.000Z</time>
      </trkpt>
      <trkpt lat="44.83511" lon="6.75164">
        <ele>2084</ele>
        <time>2026-03-03T08:19:18.000Z</time>
      </trkpt>
      <trkpt lat="44.83511" lon="6.75164">
        <ele>2084.5</ele>
        <time>2026-03-03T08:19:19.000Z</time>
      </trkpt>
      <trkpt lat="44.8351" lon="6.75164">
        <ele>2084.9</ele>
        <time>2026-03-03T08:19:20.000Z</time>
      </trkpt>
      <trkpt lat="44.83509" lon="6.75165">
        <ele>2085</ele>
        <time>2026-03-03T08:19:21.000Z</time>
      </trkpt>
      <trkpt lat="44.83509" lon="6.75166">
        <ele>2085</ele>
        <time>2026-03-03T08:19:22.000Z</time>
      </trkpt>
      <trkpt lat="44.83508" lon="6.75166">
        <ele>2085.2</ele>
        <time>2026-03-03T08:19:23.000Z</time>
      </trkpt>
      <trkpt lat="44.83508" lon="6.75167">
        <ele>2085.5</ele>
        <time>2026-03-03T08:19:24.000Z</time>
      </trkpt>
      <trkpt lat="44.83507" lon="6.75168">
        <ele>2085.7</ele>
        <time>2026-03-03T08:19:25.000Z</time>
      </trkpt>
      <trkpt lat="44.83506" lon="6.75169">
        <ele>2085.6</ele>
        <time>2026-03-03T08:19:26.000Z</time>
      </trkpt>
      <trkpt lat="44.83505" lon="6.7517">
        <ele>2085.3</ele>
        <time>2026-03-03T08:19:27.000Z</time>
      </trkpt>
      <trkpt lat="44.83505" lon="6.75171">
        <ele>2085.2</ele>
        <time>2026-03-03T08:19:28.000Z</time>
      </trkpt>
      <trkpt lat="44.83505" lon="6.75171">
        <ele>2085.6</ele>
        <time>2026-03-03T08:19:29.000Z</time>
      </trkpt>
      <trkpt lat="44.83504" lon="6.75171">
        <ele>2085.9</ele>
        <time>2026-03-03T08:19:30.000Z</time>
      </trkpt>
      <trkpt lat="44.83503" lon="6.75172">
        <ele>2086</ele>
        <time>2026-03-03T08:19:31.000Z</time>
      </trkpt>
      <trkpt lat="44.83502" lon="6.75173">
        <ele>2085.8</ele>
        <time>2026-03-03T08:19:32.000Z</time>
      </trkpt>
      <trkpt lat="44.83501" lon="6.75174">
        <ele>2085.7</ele>
        <time>2026-03-03T08:19:33.000Z</time>
      </trkpt>
      <trkpt lat="44.835" lon="6.75174">
        <ele>2085.9</ele>
        <time>2026-03-03T08:19:34.000Z</time>
      </trkpt>
      <trkpt lat="44.835" lon="6.75175">
        <ele>2086.2</ele>
        <time>2026-03-03T08:19:35.000Z</time>
      </trkpt>
      <trkpt lat="44.83499" lon="6.75175">
        <ele>2086.6</ele>
        <time>2026-03-03T08:19:36.000Z</time>
      </trkpt>
      <trkpt lat="44.83498" lon="6.75176">
        <ele>2086.7</ele>
        <time>2026-03-03T08:19:37.000Z</time>
      </trkpt>
      <trkpt lat="44.83497" lon="6.75177">
        <ele>2086.7</ele>
        <time>2026-03-03T08:19:38.000Z</time>
      </trkpt>
      <trkpt lat="44.83496" lon="6.75178">
        <ele>2086.9</ele>
        <time>2026-03-03T08:19:39.000Z</time>
      </trkpt>
      <trkpt lat="44.83495" lon="6.75179">
        <ele>2087</ele>
        <time>2026-03-03T08:19:40.000Z</time>
      </trkpt>
      <trkpt lat="44.83495" lon="6.75179">
        <ele>2087.1</ele>
        <time>2026-03-03T08:19:41.000Z</time>
      </trkpt>
      <trkpt lat="44.83494" lon="6.7518">
        <ele>2087.1</ele>
        <time>2026-03-03T08:19:42.000Z</time>
      </trkpt>
      <trkpt lat="44.83494" lon="6.75182">
        <ele>2087</ele>
        <time>2026-03-03T08:19:43.000Z</time>
      </trkpt>
      <trkpt lat="44.83493" lon="6.75182">
        <ele>2087.2</ele>
        <time>2026-03-03T08:19:44.000Z</time>
      </trkpt>
      <trkpt lat="44.83493" lon="6.75183">
        <ele>2087.7</ele>
        <time>2026-03-03T08:19:45.000Z</time>
      </trkpt>
      <trkpt lat="44.83492" lon="6.75184">
        <ele>2087.9</ele>
        <time>2026-03-03T08:19:46.000Z</time>
      </trkpt>
      <trkpt lat="44.83491" lon="6.75185">
        <ele>2087.9</ele>
        <time>2026-03-03T08:19:47.000Z</time>
      </trkpt>
      <trkpt lat="44.8349" lon="6.75186">
        <ele>2088</ele>
        <time>2026-03-03T08:19:48.000Z</time>
      </trkpt>
      <trkpt lat="44.8349" lon="6.75186">
        <ele>2087.7</ele>
        <time>2026-03-03T08:19:49.000Z</time>
      </trkpt>
      <trkpt lat="44.83489" lon="6.75187">
        <ele>2087.6</ele>
        <time>2026-03-03T08:19:50.000Z</time>
      </trkpt>
      <trkpt lat="44.83488" lon="6.75187">
        <ele>2087.4</ele>
        <time>2026-03-03T08:19:51.000Z</time>
      </trkpt>
      <trkpt lat="44.83488" lon="6.75188">
        <ele>2087.7</ele>
        <time>2026-03-03T08:19:52.000Z</time>
      </trkpt>
      <trkpt lat="44.83487" lon="6.75188">
        <ele>2088.1</ele>
        <time>2026-03-03T08:19:53.000Z</time>
      </trkpt>
      <trkpt lat="44.83486" lon="6.75189">
        <ele>2088.2</ele>
        <time>2026-03-03T08:19:54.000Z</time>
      </trkpt>
      <trkpt lat="44.83486" lon="6.7519">
        <ele>2087.9</ele>
        <time>2026-03-03T08:19:55.000Z</time>
      </trkpt>
      <trkpt lat="44.83486" lon="6.75191">
        <ele>2088.1</ele>
        <time>2026-03-03T08:19:56.000Z</time>
      </trkpt>
      <trkpt lat="44.83485" lon="6.75192">
        <ele>2088.2</ele>
        <time>2026-03-03T08:19:57.000Z</time>
      </trkpt>
      <trkpt lat="44.83485" lon="6.75192">
        <ele>2088.4</ele>
        <time>2026-03-03T08:19:58.000Z</time>
      </trkpt>
      <trkpt lat="44.83484" lon="6.75193">
        <ele>2088.8</ele>
        <time>2026-03-03T08:19:59.000Z</time>
      </trkpt>
      <trkpt lat="44.83484" lon="6.75194">
        <ele>2088.9</ele>
        <time>2026-03-03T08:20:00.000Z</time>
      </trkpt>
      <trkpt lat="44.83483" lon="6.75195">
        <ele>2089.1</ele>
        <time>2026-03-03T08:20:01.000Z</time>
      </trkpt>
      <trkpt lat="44.83482" lon="6.75195">
        <ele>2089.4</ele>
        <time>2026-03-03T08:20:02.000Z</time>
      </trkpt>
      <trkpt lat="44.83481" lon="6.75196">
        <ele>2089.6</ele>
        <time>2026-03-03T08:20:03.000Z</time>
      </trkpt>
      <trkpt lat="44.83481" lon="6.75196">
        <ele>2089.7</ele>
        <time>2026-03-03T08:20:04.000Z</time>
      </trkpt>
      <trkpt lat="44.8348" lon="6.75197">
        <ele>2089.8</ele>
        <time>2026-03-03T08:20:05.000Z</time>
      </trkpt>
      <trkpt lat="44.8348" lon="6.75197">
        <ele>2089.8</ele>
        <time>2026-03-03T08:20:06.000Z</time>
      </trkpt>
      <trkpt lat="44.83479" lon="6.75199">
        <ele>2089.5</ele>
        <time>2026-03-03T08:20:07.000Z</time>
      </trkpt>
      <trkpt lat="44.83479" lon="6.75199">
        <ele>2089.7</ele>
        <time>2026-03-03T08:20:08.000Z</time>
      </trkpt>
      <trkpt lat="44.83478" lon="6.752">
        <ele>2089.7</ele>
        <time>2026-03-03T08:20:09.000Z</time>
      </trkpt>
      <trkpt lat="44.83478" lon="6.752">
        <ele>2089.6</ele>
        <time>2026-03-03T08:20:10.000Z</time>
      </trkpt>
      <trkpt lat="44.83477" lon="6.75201">
        <ele>2089.8</ele>
        <time>2026-03-03T08:20:11.000Z</time>
      </trkpt>
      <trkpt lat="44.83477" lon="6.75202">
        <ele>2089.7</ele>
        <time>2026-03-03T08:20:12.000Z</time>
      </trkpt>
      <trkpt lat="44.83476" lon="6.75202">
        <ele>2089.7</ele>
        <time>2026-03-03T08:20:13.000Z</time>
      </trkpt>
      <trkpt lat="44.83476" lon="6.75204">
        <ele>2089.8</ele>
        <time>2026-03-03T08:20:14.000Z</time>
      </trkpt>
      <trkpt lat="44.83475" lon="6.75204">
        <ele>2089.6</ele>
        <time>2026-03-03T08:20:15.000Z</time>
      </trkpt>
      <trkpt lat="44.83475" lon="6.75205">
        <ele>2089.6</ele>
        <time>2026-03-03T08:20:16.000Z</time>
      </trkpt>
      <trkpt lat="44.83474" lon="6.75206">
        <ele>2089.5</ele>
        <time>2026-03-03T08:20:17.000Z</time>
      </trkpt>
      <trkpt lat="44.83473" lon="6.75206">
        <ele>2089.4</ele>
        <time>2026-03-03T08:20:18.000Z</time>
      </trkpt>
      <trkpt lat="44.83472" lon="6.75206">
        <ele>2089.4</ele>
        <time>2026-03-03T08:20:19.000Z</time>
      </trkpt>
      <trkpt lat="44.83472" lon="6.75207">
        <ele>2089.3</ele>
        <time>2026-03-03T08:20:20.000Z</time>
      </trkpt>
      <trkpt lat="44.83471" lon="6.75208">
        <ele>2089.3</ele>
        <time>2026-03-03T08:20:21.000Z</time>
      </trkpt>
      <trkpt lat="44.8347" lon="6.75208">
        <ele>2089.4</ele>
        <time>2026-03-03T08:20:22.000Z</time>
      </trkpt>
      <trkpt lat="44.83469" lon="6.75209">
        <ele>2089.5</ele>
        <time>2026-03-03T08:20:23.000Z</time>
      </trkpt>
      <trkpt lat="44.83468" lon="6.75209">
        <ele>2089.5</ele>
        <time>2026-03-03T08:20:24.000Z</time>
      </trkpt>
      <trkpt lat="44.83467" lon="6.75211">
        <ele>2089.4</ele>
        <time>2026-03-03T08:20:25.000Z</time>
      </trkpt>
      <trkpt lat="44.83466" lon="6.75212">
        <ele>2089.4</ele>
        <time>2026-03-03T08:20:26.000Z</time>
      </trkpt>
      <trkpt lat="44.83465" lon="6.75213">
        <ele>2089.6</ele>
        <time>2026-03-03T08:20:27.000Z</time>
      </trkpt>
      <trkpt lat="44.83465" lon="6.75214">
        <ele>2089.6</ele>
        <time>2026-03-03T08:20:28.000Z</time>
      </trkpt>
      <trkpt lat="44.83464" lon="6.75215">
        <ele>2089.3</ele>
        <time>2026-03-03T08:20:29.000Z</time>
      </trkpt>
      <trkpt lat="44.83464" lon="6.75216">
        <ele>2089.3</ele>
        <time>2026-03-03T08:20:30.000Z</time>
      </trkpt>
      <trkpt lat="44.83463" lon="6.75217">
        <ele>2089.3</ele>
        <time>2026-03-03T08:20:31.000Z</time>
      </trkpt>
      <trkpt lat="44.83463" lon="6.75218">
        <ele>2089.3</ele>
        <time>2026-03-03T08:20:32.000Z</time>
      </trkpt>
      <trkpt lat="44.83463" lon="6.75218">
        <ele>2089.4</ele>
        <time>2026-03-03T08:20:33.000Z</time>
      </trkpt>
      <trkpt lat="44.83463" lon="6.75219">
        <ele>2089.2</ele>
        <time>2026-03-03T08:20:34.000Z</time>
      </trkpt>
      <trkpt lat="44.83462" lon="6.75221">
        <ele>2089</ele>
        <time>2026-03-03T08:20:35.000Z</time>
      </trkpt>
      <trkpt lat="44.83462" lon="6.75222">
        <ele>2089.2</ele>
        <time>2026-03-03T08:20:36.000Z</time>
      </trkpt>
      <trkpt lat="44.83461" lon="6.75223">
        <ele>2088.9</ele>
        <time>2026-03-03T08:20:37.000Z</time>
      </trkpt>
      <trkpt lat="44.8346" lon="6.75224">
        <ele>2089</ele>
        <time>2026-03-03T08:20:38.000Z</time>
      </trkpt>
      <trkpt lat="44.83459" lon="6.75225">
        <ele>2088.8</ele>
        <time>2026-03-03T08:20:39.000Z</time>
      </trkpt>
      <trkpt lat="44.83458" lon="6.75226">
        <ele>2089</ele>
        <time>2026-03-03T08:20:40.000Z</time>
      </trkpt>
      <trkpt lat="44.83457" lon="6.75226">
        <ele>2089.1</ele>
        <time>2026-03-03T08:20:41.000Z</time>
      </trkpt>
      <trkpt lat="44.83456" lon="6.75227">
        <ele>2089.4</ele>
        <time>2026-03-03T08:20:42.000Z</time>
      </trkpt>
      <trkpt lat="44.83456" lon="6.75228">
        <ele>2089.3</ele>
        <time>2026-03-03T08:20:43.000Z</time>
      </trkpt>
      <trkpt lat="44.83455" lon="6.75229">
        <ele>2089.4</ele>
        <time>2026-03-03T08:20:44.000Z</time>
      </trkpt>
      <trkpt lat="44.83455" lon="6.7523">
        <ele>2089.6</ele>
        <time>2026-03-03T08:20:45.000Z</time>
      </trkpt>
      <trkpt lat="44.83455" lon="6.75231">
        <ele>2089.7</ele>
        <time>2026-03-03T08:20:46.000Z</time>
      </trkpt>
      <trkpt lat="44.83454" lon="6.75232">
        <ele>2089.7</ele>
        <time>2026-03-03T08:20:47.000Z</time>
      </trkpt>
      <trkpt lat="44.83454" lon="6.75233">
        <ele>2089.8</ele>
        <time>2026-03-03T08:20:48.000Z</time>
      </trkpt>
      <trkpt lat="44.83453" lon="6.75234">
        <ele>2089.7</ele>
        <time>2026-03-03T08:20:49.000Z</time>
      </trkpt>
      <trkpt lat="44.83453" lon="6.75235">
        <ele>2089.9</ele>
        <time>2026-03-03T08:20:50.000Z</time>
      </trkpt>
      <trkpt lat="44.83452" lon="6.75236">
        <ele>2090.4</ele>
        <time>2026-03-03T08:20:51.000Z</time>
      </trkpt>
      <trkpt lat="44.83452" lon="6.75237">
        <ele>2090.5</ele>
        <time>2026-03-03T08:20:52.000Z</time>
      </trkpt>
      <trkpt lat="44.8345" lon="6.75238">
        <ele>2090.8</ele>
        <time>2026-03-03T08:20:53.000Z</time>
      </trkpt>
      <trkpt lat="44.8345" lon="6.75238">
        <ele>2091.1</ele>
        <time>2026-03-03T08:20:54.000Z</time>
      </trkpt>
      <trkpt lat="44.83449" lon="6.75239">
        <ele>2091.4</ele>
        <time>2026-03-03T08:20:55.000Z</time>
      </trkpt>
      <trkpt lat="44.83448" lon="6.7524">
        <ele>2091.8</ele>
        <time>2026-03-03T08:20:56.000Z</time>
      </trkpt>
      <trkpt lat="44.83448" lon="6.75241">
        <ele>2091.9</ele>
        <time>2026-03-03T08:20:57.000Z</time>
      </trkpt>
      <trkpt lat="44.83448" lon="6.75242">
        <ele>2092</ele>
        <time>2026-03-03T08:20:58.000Z</time>
      </trkpt>
      <trkpt lat="44.83447" lon="6.75243">
        <ele>2091.3</ele>
        <time>2026-03-03T08:20:59.000Z</time>
      </trkpt>
      <trkpt lat="44.83447" lon="6.75244">
        <ele>2091.4</ele>
        <time>2026-03-03T08:21:00.000Z</time>
      </trkpt>
      <trkpt lat="44.83447" lon="6.75245">
        <ele>2091.6</ele>
        <time>2026-03-03T08:21:01.000Z</time>
      </trkpt>
      <trkpt lat="44.83446" lon="6.75247">
        <ele>2091.9</ele>
        <time>2026-03-03T08:21:02.000Z</time>
      </trkpt>
      <trkpt lat="44.83446" lon="6.75247">
        <ele>2092.2</ele>
        <time>2026-03-03T08:21:03.000Z</time>
      </trkpt>
      <trkpt lat="44.83446" lon="6.75249">
        <ele>2091.8</ele>
        <time>2026-03-03T08:21:04.000Z</time>
      </trkpt>
      <trkpt lat="44.83445" lon="6.7525">
        <ele>2091.7</ele>
        <time>2026-03-03T08:21:05.000Z</time>
      </trkpt>
      <trkpt lat="44.83445" lon="6.7525">
        <ele>2092</ele>
        <time>2026-03-03T08:21:06.000Z</time>
      </trkpt>
      <trkpt lat="44.83443" lon="6.75252">
        <ele>2092</ele>
        <time>2026-03-03T08:21:07.000Z</time>
      </trkpt>
      <trkpt lat="44.83443" lon="6.75253">
        <ele>2092.2</ele>
        <time>2026-03-03T08:21:08.000Z</time>
      </trkpt>
      <trkpt lat="44.83443" lon="6.75253">
        <ele>2092.3</ele>
        <time>2026-03-03T08:21:09.000Z</time>
      </trkpt>
      <trkpt lat="44.83443" lon="6.75254">
        <ele>2092.2</ele>
        <time>2026-03-03T08:21:10.000Z</time>
      </trkpt>
      <trkpt lat="44.83442" lon="6.75255">
        <ele>2092.3</ele>
        <time>2026-03-03T08:21:11.000Z</time>
      </trkpt>
      <trkpt lat="44.83442" lon="6.75257">
        <ele>2092.4</ele>
        <time>2026-03-03T08:21:12.000Z</time>
      </trkpt>
      <trkpt lat="44.83442" lon="6.75257">
        <ele>2092.6</ele>
        <time>2026-03-03T08:21:13.000Z</time>
      </trkpt>
      <trkpt lat="44.83441" lon="6.75258">
        <ele>2093.1</ele>
        <time>2026-03-03T08:21:14.000Z</time>
      </trkpt>
      <trkpt lat="44.83441" lon="6.75259">
        <ele>2093.2</ele>
        <time>2026-03-03T08:21:15.000Z</time>
      </trkpt>
      <trkpt lat="44.8344" lon="6.7526">
        <ele>2093.2</ele>
        <time>2026-03-03T08:21:16.000Z</time>
      </trkpt>
      <trkpt lat="44.8344" lon="6.7526">
        <ele>2093.5</ele>
        <time>2026-03-03T08:21:17.000Z</time>
      </trkpt>
      <trkpt lat="44.83439" lon="6.75261">
        <ele>2093.6</ele>
        <time>2026-03-03T08:21:18.000Z</time>
      </trkpt>
      <trkpt lat="44.83439" lon="6.75262">
        <ele>2093.7</ele>
        <time>2026-03-03T08:21:19.000Z</time>
      </trkpt>
      <trkpt lat="44.83437" lon="6.75263">
        <ele>2093.6</ele>
        <time>2026-03-03T08:21:20.000Z</time>
      </trkpt>
      <trkpt lat="44.83436" lon="6.75263">
        <ele>2093.7</ele>
        <time>2026-03-03T08:21:21.000Z</time>
      </trkpt>
      <trkpt lat="44.83436" lon="6.75264">
        <ele>2093.9</ele>
        <time>2026-03-03T08:21:22.000Z</time>
      </trkpt>
      <trkpt lat="44.83436" lon="6.75265">
        <ele>2094</ele>
        <time>2026-03-03T08:21:23.000Z</time>
      </trkpt>
      <trkpt lat="44.83435" lon="6.75266">
        <ele>2094.2</ele>
        <time>2026-03-03T08:21:24.000Z</time>
      </trkpt>
      <trkpt lat="44.83435" lon="6.75267">
        <ele>2094.4</ele>
        <time>2026-03-03T08:21:25.000Z</time>
      </trkpt>
      <trkpt lat="44.83434" lon="6.75268">
        <ele>2094.5</ele>
        <time>2026-03-03T08:21:26.000Z</time>
      </trkpt>
      <trkpt lat="44.83433" lon="6.75269">
        <ele>2094.5</ele>
        <time>2026-03-03T08:21:27.000Z</time>
      </trkpt>
      <trkpt lat="44.83433" lon="6.7527">
        <ele>2094.6</ele>
        <time>2026-03-03T08:21:28.000Z</time>
      </trkpt>
      <trkpt lat="44.83432" lon="6.75271">
        <ele>2094.6</ele>
        <time>2026-03-03T08:21:29.000Z</time>
      </trkpt>
      <trkpt lat="44.83431" lon="6.75272">
        <ele>2094.4</ele>
        <time>2026-03-03T08:21:30.000Z</time>
      </trkpt>
      <trkpt lat="44.83431" lon="6.75274">
        <ele>2094.2</ele>
        <time>2026-03-03T08:21:31.000Z</time>
      </trkpt>
      <trkpt lat="44.83431" lon="6.75275">
        <ele>2094.3</ele>
        <time>2026-03-03T08:21:32.000Z</time>
      </trkpt>
      <trkpt lat="44.83432" lon="6.75275">
        <ele>2094.5</ele>
        <time>2026-03-03T08:21:33.000Z</time>
      </trkpt>
      <trkpt lat="44.83433" lon="6.75274">
        <ele>2094.5</ele>
        <time>2026-03-03T08:21:34.000Z</time>
      </trkpt>
      <trkpt lat="44.83433" lon="6.75274">
        <ele>2094.7</ele>
        <time>2026-03-03T08:21:35.000Z</time>
      </trkpt>
      <trkpt lat="44.83434" lon="6.75274">
        <ele>2095</ele>
        <time>2026-03-03T08:21:36.000Z</time>
      </trkpt>
      <trkpt lat="44.83434" lon="6.75273">
        <ele>2095.1</ele>
        <time>2026-03-03T08:21:37.000Z</time>
      </trkpt>
      <trkpt lat="44.83435" lon="6.75272">
        <ele>2095.1</ele>
        <time>2026-03-03T08:21:38.000Z</time>
      </trkpt>
      <trkpt lat="44.83436" lon="6.75272">
        <ele>2095.4</ele>
        <time>2026-03-03T08:21:39.000Z</time>
      </trkpt>
      <trkpt lat="44.83436" lon="6.75271">
        <ele>2095.4</ele>
        <time>2026-03-03T08:21:40.000Z</time>
      </trkpt>
      <trkpt lat="44.83436" lon="6.75271">
        <ele>2095.9</ele>
        <time>2026-03-03T08:21:41.000Z</time>
      </trkpt>
      <trkpt lat="44.83436" lon="6.7527">
        <ele>2095.9</ele>
        <time>2026-03-03T08:21:42.000Z</time>
      </trkpt>
      <trkpt lat="44.83437" lon="6.7527">
        <ele>2096</ele>
        <time>2026-03-03T08:21:43.000Z</time>
      </trkpt>
      <trkpt lat="44.83438" lon="6.7527">
        <ele>2095.7</ele>
        <time>2026-03-03T08:21:44.000Z</time>
      </trkpt>
      <trkpt lat="44.83438" lon="6.7527">
        <ele>2095.9</ele>
        <time>2026-03-03T08:21:45.000Z</time>
      </trkpt>
      <trkpt lat="44.83439" lon="6.7527">
        <ele>2095.8</ele>
        <time>2026-03-03T08:21:46.000Z</time>
      </trkpt>
      <trkpt lat="44.83439" lon="6.75269">
        <ele>2095.7</ele>
        <time>2026-03-03T08:21:47.000Z</time>
      </trkpt>
      <trkpt lat="44.8344" lon="6.7527">
        <ele>2095.6</ele>
        <time>2026-03-03T08:21:48.000Z</time>
      </trkpt>
      <trkpt lat="44.83441" lon="6.7527">
        <ele>2095.7</ele>
        <time>2026-03-03T08:21:49.000Z</time>
      </trkpt>
      <trkpt lat="44.83442" lon="6.75271">
        <ele>2095.7</ele>
        <time>2026-03-03T08:21:50.000Z</time>
      </trkpt>
      <trkpt lat="44.83443" lon="6.75271">
        <ele>2095.8</ele>
        <time>2026-03-03T08:21:51.000Z</time>
      </trkpt>
      <trkpt lat="44.83443" lon="6.75271">
        <ele>2096</ele>
        <time>2026-03-03T08:21:52.000Z</time>
      </trkpt>
      <trkpt lat="44.83444" lon="6.75272">
        <ele>2096</ele>
        <time>2026-03-03T08:21:53.000Z</time>
      </trkpt>
      <trkpt lat="44.83445" lon="6.75272">
        <ele>2095.7</ele>
        <time>2026-03-03T08:21:54.000Z</time>
      </trkpt>
      <trkpt lat="44.83445" lon="6.75273">
        <ele>2096.1</ele>
        <time>2026-03-03T08:21:55.000Z</time>
      </trkpt>
      <trkpt lat="44.83446" lon="6.75273">
        <ele>2096.6</ele>
        <time>2026-03-03T08:21:56.000Z</time>
      </trkpt>
      <trkpt lat="44.83446" lon="6.75274">
        <ele>2096.8</ele>
        <time>2026-03-03T08:21:57.000Z</time>
      </trkpt>
      <trkpt lat="44.83447" lon="6.75274">
        <ele>2096.9</ele>
        <time>2026-03-03T08:21:58.000Z</time>
      </trkpt>
      <trkpt lat="44.83447" lon="6.75275">
        <ele>2096.8</ele>
        <time>2026-03-03T08:21:59.000Z</time>
      </trkpt>
      <trkpt lat="44.83448" lon="6.75275">
        <ele>2096.7</ele>
        <time>2026-03-03T08:22:00.000Z</time>
      </trkpt>
      <trkpt lat="44.83448" lon="6.75276">
        <ele>2096.8</ele>
        <time>2026-03-03T08:22:01.000Z</time>
      </trkpt>
      <trkpt lat="44.83449" lon="6.75276">
        <ele>2096.7</ele>
        <time>2026-03-03T08:22:02.000Z</time>
      </trkpt>
      <trkpt lat="44.83449" lon="6.75277">
        <ele>2096.5</ele>
        <time>2026-03-03T08:22:03.000Z</time>
      </trkpt>
      <trkpt lat="44.8345" lon="6.75277">
        <ele>2096.5</ele>
        <time>2026-03-03T08:22:04.000Z</time>
      </trkpt>
      <trkpt lat="44.8345" lon="6.75278">
        <ele>2096.6</ele>
        <time>2026-03-03T08:22:05.000Z</time>
      </trkpt>
      <trkpt lat="44.83451" lon="6.75278">
        <ele>2096.8</ele>
        <time>2026-03-03T08:22:06.000Z</time>
      </trkpt>
      <trkpt lat="44.83452" lon="6.75279">
        <ele>2096.9</ele>
        <time>2026-03-03T08:22:07.000Z</time>
      </trkpt>
      <trkpt lat="44.83453" lon="6.75278">
        <ele>2097</ele>
        <time>2026-03-03T08:22:08.000Z</time>
      </trkpt>
      <trkpt lat="44.83454" lon="6.75278">
        <ele>2097.1</ele>
        <time>2026-03-03T08:22:09.000Z</time>
      </trkpt>
      <trkpt lat="44.83454" lon="6.75283">
        <ele>2098.4</ele>
        <time>2026-03-03T08:31:58.999Z</time>
      </trkpt>
      <trkpt lat="44.83454" lon="6.75284">
        <ele>2098.3</ele>
        <time>2026-03-03T08:31:59.999Z</time>
      </trkpt>
      <trkpt lat="44.83454" lon="6.75285">
        <ele>2098.2</ele>
        <time>2026-03-03T08:32:00.999Z</time>
      </trkpt>
      <trkpt lat="44.83454" lon="6.75286">
        <ele>2098.1</ele>
        <time>2026-03-03T08:32:01.999Z</time>
      </trkpt>
      <trkpt lat="44.83454" lon="6.75286">
        <ele>2098.1</ele>
        <time>2026-03-03T08:32:02.999Z</time>
      </trkpt>
      <trkpt lat="44.83454" lon="6.75286">
        <ele>2098.2</ele>
        <time>2026-03-03T08:32:03.999Z</time>
      </trkpt>
      <trkpt lat="44.83453" lon="6.75287">
        <ele>2098.1</ele>
        <time>2026-03-03T08:32:04.999Z</time>
      </trkpt>
      <trkpt lat="44.83453" lon="6.75289">
        <ele>2098.1</ele>
        <time>2026-03-03T08:32:05.999Z</time>
      </trkpt>
      <trkpt lat="44.83453" lon="6.75289">
        <ele>2098.1</ele>
        <time>2026-03-03T08:32:06.999Z</time>
      </trkpt>
      <trkpt lat="44.83453" lon="6.7529">
        <ele>2098.2</ele>
        <time>2026-03-03T08:32:07.999Z</time>
      </trkpt>
      <trkpt lat="44.83453" lon="6.75291">
        <ele>2098.2</ele>
        <time>2026-03-03T08:32:08.999Z</time>
      </trkpt>
      <trkpt lat="44.83453" lon="6.75292">
        <ele>2098.3</ele>
        <time>2026-03-03T08:32:09.999Z</time>
      </trkpt>
      <trkpt lat="44.83453" lon="6.75292">
        <ele>2098.3</ele>
        <time>2026-03-03T08:32:10.999Z</time>
      </trkpt>
      <trkpt lat="44.83453" lon="6.75293">
        <ele>2098.3</ele>
        <time>2026-03-03T08:32:11.999Z</time>
      </trkpt>
      <trkpt lat="44.83453" lon="6.75293">
        <ele>2098.5</ele>
        <time>2026-03-03T08:32:12.999Z</time>
      </trkpt>
      <trkpt lat="44.83453" lon="6.75294">
        <ele>2098.7</ele>
        <time>2026-03-03T08:32:13.999Z</time>
      </trkpt>
      <trkpt lat="44.83452" lon="6.75295">
        <ele>2098.8</ele>
        <time>2026-03-03T08:32:14.999Z</time>
      </trkpt>
      <trkpt lat="44.83452" lon="6.75294">
        <ele>2099</ele>
        <time>2026-03-03T08:32:15.999Z</time>
      </trkpt>
      <trkpt lat="44.83452" lon="6.75295">
        <ele>2099.2</ele>
        <time>2026-03-03T08:32:16.999Z</time>
      </trkpt>
      <trkpt lat="44.83452" lon="6.75296">
        <ele>2099.3</ele>
        <time>2026-03-03T08:32:17.999Z</time>
      </trkpt>
      <trkpt lat="44.83452" lon="6.75297">
        <ele>2099.4</ele>
        <time>2026-03-03T08:32:18.999Z</time>
      </trkpt>
      <trkpt lat="44.83452" lon="6.75298">
        <ele>2099.5</ele>
        <time>2026-03-03T08:32:19.999Z</time>
      </trkpt>
      <trkpt lat="44.83452" lon="6.75298">
        <ele>2099.4</ele>
        <time>2026-03-03T08:32:20.999Z</time>
      </trkpt>
      <trkpt lat="44.83452" lon="6.75299">
        <ele>2099.6</ele>
        <time>2026-03-03T08:32:21.999Z</time>
      </trkpt>
      <trkpt lat="44.83452" lon="6.753">
        <ele>2099.7</ele>
        <time>2026-03-03T08:32:22.999Z</time>
      </trkpt>
      <trkpt lat="44.83452" lon="6.75301">
        <ele>2099.6</ele>
        <time>2026-03-03T08:32:23.999Z</time>
      </trkpt>
      <trkpt lat="44.83452" lon="6.75302">
        <ele>2099.5</ele>
        <time>2026-03-03T08:32:24.999Z</time>
      </trkpt>
      <trkpt lat="44.83452" lon="6.75303">
        <ele>2099.5</ele>
        <time>2026-03-03T08:32:25.999Z</time>
      </trkpt>
      <trkpt lat="44.83452" lon="6.75304">
        <ele>2099.4</ele>
        <time>2026-03-03T08:32:26.999Z</time>
      </trkpt>
      <trkpt lat="44.83452" lon="6.75305">
        <ele>2099.9</ele>
        <time>2026-03-03T08:32:27.999Z</time>
      </trkpt>
      <trkpt lat="44.83453" lon="6.75306">
        <ele>2100.6</ele>
        <time>2026-03-03T08:32:28.999Z</time>
      </trkpt>
      <trkpt lat="44.83453" lon="6.75306">
        <ele>2101</ele>
        <time>2026-03-03T08:32:29.999Z</time>
      </trkpt>
      <trkpt lat="44.83453" lon="6.75307">
        <ele>2101.2</ele>
        <time>2026-03-03T08:32:30.999Z</time>
      </trkpt>
      <trkpt lat="44.83454" lon="6.75307">
        <ele>2101.5</ele>
        <time>2026-03-03T08:32:31.999Z</time>
      </trkpt>
      <trkpt lat="44.83454" lon="6.75308">
        <ele>2101.3</ele>
        <time>2026-03-03T08:32:32.999Z</time>
      </trkpt>
      <trkpt lat="44.83455" lon="6.75309">
        <ele>2101.5</ele>
        <time>2026-03-03T08:32:33.999Z</time>
      </trkpt>
      <trkpt lat="44.83455" lon="6.75309">
        <ele>2101.7</ele>
        <time>2026-03-03T08:32:34.999Z</time>
      </trkpt>
      <trkpt lat="44.83456" lon="6.75309">
        <ele>2102.1</ele>
        <time>2026-03-03T08:32:35.999Z</time>
      </trkpt>
      <trkpt lat="44.83457" lon="6.75309">
        <ele>2102.3</ele>
        <time>2026-03-03T08:32:36.999Z</time>
      </trkpt>
      <trkpt lat="44.83457" lon="6.75309">
        <ele>2102.4</ele>
        <time>2026-03-03T08:32:37.999Z</time>
      </trkpt>
      <trkpt lat="44.83458" lon="6.75309">
        <ele>2102.3</ele>
        <time>2026-03-03T08:32:38.999Z</time>
      </trkpt>
      <trkpt lat="44.83458" lon="6.75309">
        <ele>2102.1</ele>
        <time>2026-03-03T08:32:39.999Z</time>
      </trkpt>
      <trkpt lat="44.83459" lon="6.75309">
        <ele>2102.3</ele>
        <time>2026-03-03T08:32:40.999Z</time>
      </trkpt>
      <trkpt lat="44.8346" lon="6.7531">
        <ele>2102.5</ele>
        <time>2026-03-03T08:32:41.999Z</time>
      </trkpt>
      <trkpt lat="44.83461" lon="6.7531">
        <ele>2102.8</ele>
        <time>2026-03-03T08:32:42.999Z</time>
      </trkpt>
      <trkpt lat="44.83461" lon="6.7531">
        <ele>2102.9</ele>
        <time>2026-03-03T08:32:43.999Z</time>
      </trkpt>
      <trkpt lat="44.83462" lon="6.75311">
        <ele>2103</ele>
        <time>2026-03-03T08:32:44.999Z</time>
      </trkpt>
      <trkpt lat="44.83462" lon="6.75311">
        <ele>2103.2</ele>
        <time>2026-03-03T08:32:45.999Z</time>
      </trkpt>
      <trkpt lat="44.83462" lon="6.75312">
        <ele>2103.1</ele>
        <time>2026-03-03T08:32:46.999Z</time>
      </trkpt>
      <trkpt lat="44.83463" lon="6.75313">
        <ele>2103.1</ele>
        <time>2026-03-03T08:32:47.999Z</time>
      </trkpt>
      <trkpt lat="44.83463" lon="6.75313">
        <ele>2103.1</ele>
        <time>2026-03-03T08:32:48.999Z</time>
      </trkpt>
      <trkpt lat="44.83463" lon="6.75314">
        <ele>2103.2</ele>
        <time>2026-03-03T08:32:49.999Z</time>
      </trkpt>
      <trkpt lat="44.83463" lon="6.75314">
        <ele>2103.3</ele>
        <time>2026-03-03T08:32:50.999Z</time>
      </trkpt>
      <trkpt lat="44.83464" lon="6.75315">
        <ele>2103.4</ele>
        <time>2026-03-03T08:32:51.999Z</time>
      </trkpt>
      <trkpt lat="44.83464" lon="6.75315">
        <ele>2103.5</ele>
        <time>2026-03-03T08:32:52.999Z</time>
      </trkpt>
      <trkpt lat="44.83464" lon="6.75316">
        <ele>2103.5</ele>
        <time>2026-03-03T08:32:53.999Z</time>
      </trkpt>
      <trkpt lat="44.83465" lon="6.75317">
        <ele>2103.6</ele>
        <time>2026-03-03T08:32:54.999Z</time>
      </trkpt>
      <trkpt lat="44.83465" lon="6.75317">
        <ele>2103.6</ele>
        <time>2026-03-03T08:32:55.999Z</time>
      </trkpt>
      <trkpt lat="44.83465" lon="6.75318">
        <ele>2103.9</ele>
        <time>2026-03-03T08:32:56.999Z</time>
      </trkpt>
      <trkpt lat="44.83466" lon="6.75318">
        <ele>2104.3</ele>
        <time>2026-03-03T08:32:57.999Z</time>
      </trkpt>
      <trkpt lat="44.83466" lon="6.75319">
        <ele>2104.4</ele>
        <time>2026-03-03T08:32:58.999Z</time>
      </trkpt>
      <trkpt lat="44.83467" lon="6.7532">
        <ele>2104.5</ele>
        <time>2026-03-03T08:32:59.999Z</time>
      </trkpt>
      <trkpt lat="44.83467" lon="6.7532">
        <ele>2104.4</ele>
        <time>2026-03-03T08:33:00.999Z</time>
      </trkpt>
      <trkpt lat="44.83467" lon="6.75321">
        <ele>2104.2</ele>
        <time>2026-03-03T08:33:01.999Z</time>
      </trkpt>
      <trkpt lat="44.83467" lon="6.75322">
        <ele>2104.1</ele>
        <time>2026-03-03T08:33:02.999Z</time>
      </trkpt>
      <trkpt lat="44.83467" lon="6.75322">
        <ele>2103.8</ele>
        <time>2026-03-03T08:33:03.999Z</time>
      </trkpt>
      <trkpt lat="44.83467" lon="6.75323">
        <ele>2103.8</ele>
        <time>2026-03-03T08:33:04.999Z</time>
      </trkpt>
      <trkpt lat="44.83467" lon="6.75323">
        <ele>2103.8</ele>
        <time>2026-03-03T08:33:05.999Z</time>
      </trkpt>
      <trkpt lat="44.83467" lon="6.75324">
        <ele>2103.9</ele>
        <time>2026-03-03T08:33:06.999Z</time>
      </trkpt>
      <trkpt lat="44.83467" lon="6.75324">
        <ele>2103.9</ele>
        <time>2026-03-03T08:33:07.999Z</time>
      </trkpt>
      <trkpt lat="44.83467" lon="6.75324">
        <ele>2103.9</ele>
        <time>2026-03-03T08:33:08.999Z</time>
      </trkpt>
      <trkpt lat="44.83467" lon="6.75324">
        <ele>2104.1</ele>
        <time>2026-03-03T08:33:09.999Z</time>
      </trkpt>
      <trkpt lat="44.83467" lon="6.75325">
        <ele>2104.3</ele>
        <time>2026-03-03T08:33:10.999Z</time>
      </trkpt>
      <trkpt lat="44.83466" lon="6.75326">
        <ele>2104.4</ele>
        <time>2026-03-03T08:33:11.999Z</time>
      </trkpt>
      <trkpt lat="44.83466" lon="6.75327">
        <ele>2104.4</ele>
        <time>2026-03-03T08:33:12.999Z</time>
      </trkpt>
      <trkpt lat="44.83466" lon="6.75328">
        <ele>2104.5</ele>
        <time>2026-03-03T08:33:13.999Z</time>
      </trkpt>
      <trkpt lat="44.83466" lon="6.7533">
        <ele>2104.8</ele>
        <time>2026-03-03T08:33:14.999Z</time>
      </trkpt>
      <trkpt lat="44.83467" lon="6.7533">
        <ele>2105</ele>
        <time>2026-03-03T08:33:15.999Z</time>
      </trkpt>
      <trkpt lat="44.83467" lon="6.75331">
        <ele>2105.2</ele>
        <time>2026-03-03T08:33:16.999Z</time>
      </trkpt>
      <trkpt lat="44.83467" lon="6.75332">
        <ele>2105.8</ele>
        <time>2026-03-03T08:33:17.999Z</time>
      </trkpt>
      <trkpt lat="44.83467" lon="6.75332">
        <ele>2106.2</ele>
        <time>2026-03-03T08:33:18.999Z</time>
      </trkpt>
      <trkpt lat="44.83467" lon="6.75333">
        <ele>2106.5</ele>
        <time>2026-03-03T08:33:19.999Z</time>
      </trkpt>
      <trkpt lat="44.83468" lon="6.75333">
        <ele>2106.8</ele>
        <time>2026-03-03T08:33:20.999Z</time>
      </trkpt>
      <trkpt lat="44.83469" lon="6.75333">
        <ele>2107</ele>
        <time>2026-03-03T08:33:21.999Z</time>
      </trkpt>
      <trkpt lat="44.8347" lon="6.75334">
        <ele>2107.2</ele>
        <time>2026-03-03T08:33:22.999Z</time>
      </trkpt>
      <trkpt lat="44.8347" lon="6.75334">
        <ele>2107.3</ele>
        <time>2026-03-03T08:33:23.999Z</time>
      </trkpt>
      <trkpt lat="44.83471" lon="6.75335">
        <ele>2107.5</ele>
        <time>2026-03-03T08:33:24.999Z</time>
      </trkpt>
      <trkpt lat="44.83472" lon="6.75335">
        <ele>2107.9</ele>
        <time>2026-03-03T08:33:25.999Z</time>
      </trkpt>
      <trkpt lat="44.83472" lon="6.75335">
        <ele>2108</ele>
        <time>2026-03-03T08:33:26.999Z</time>
      </trkpt>
      <trkpt lat="44.83473" lon="6.75335">
        <ele>2108.2</ele>
        <time>2026-03-03T08:33:27.999Z</time>
      </trkpt>
      <trkpt lat="44.83473" lon="6.75335">
        <ele>2108.5</ele>
        <time>2026-03-03T08:33:28.999Z</time>
      </trkpt>
      <trkpt lat="44.83473" lon="6.75336">
        <ele>2108.8</ele>
        <time>2026-03-03T08:33:29.999Z</time>
      </trkpt>
      <trkpt lat="44.83473" lon="6.75336">
        <ele>2109</ele>
        <time>2026-03-03T08:33:30.999Z</time>
      </trkpt>
      <trkpt lat="44.83474" lon="6.75336">
        <ele>2109.2</ele>
        <time>2026-03-03T08:33:31.999Z</time>
      </trkpt>
      <trkpt lat="44.83474" lon="6.75336">
        <ele>2109.4</ele>
        <time>2026-03-03T08:33:32.999Z</time>
      </trkpt>
      <trkpt lat="44.83474" lon="6.75337">
        <ele>2109.6</ele>
        <time>2026-03-03T08:33:33.999Z</time>
      </trkpt>
      <trkpt lat="44.83474" lon="6.75338">
        <ele>2109.7</ele>
        <time>2026-03-03T08:33:34.999Z</time>
      </trkpt>
      <trkpt lat="44.83474" lon="6.75338">
        <ele>2109.5</ele>
        <time>2026-03-03T08:33:35.999Z</time>
      </trkpt>
      <trkpt lat="44.83474" lon="6.75338">
        <ele>2109.6</ele>
        <time>2026-03-03T08:33:36.999Z</time>
      </trkpt>
      <trkpt lat="44.83475" lon="6.75338">
        <ele>2109.4</ele>
        <time>2026-03-03T08:33:37.999Z</time>
      </trkpt>
      <trkpt lat="44.83476" lon="6.75338">
        <ele>2109.3</ele>
        <time>2026-03-03T08:33:38.999Z</time>
      </trkpt>
      <trkpt lat="44.83477" lon="6.75338">
        <ele>2109.5</ele>
        <time>2026-03-03T08:33:39.999Z</time>
      </trkpt>
      <trkpt lat="44.83478" lon="6.75338">
        <ele>2109.6</ele>
        <time>2026-03-03T08:33:40.999Z</time>
      </trkpt>
      <trkpt lat="44.83479" lon="6.75338">
        <ele>2109.5</ele>
        <time>2026-03-03T08:33:41.999Z</time>
      </trkpt>
      <trkpt lat="44.83479" lon="6.75338">
        <ele>2109.6</ele>
        <time>2026-03-03T08:33:42.999Z</time>
      </trkpt>
      <trkpt lat="44.8348" lon="6.75338">
        <ele>2109.5</ele>
        <time>2026-03-03T08:33:43.999Z</time>
      </trkpt>
      <trkpt lat="44.83481" lon="6.75338">
        <ele>2109.6</ele>
        <time>2026-03-03T08:33:44.999Z</time>
      </trkpt>
      <trkpt lat="44.83481" lon="6.75338">
        <ele>2109.6</ele>
        <time>2026-03-03T08:33:45.999Z</time>
      </trkpt>
      <trkpt lat="44.83482" lon="6.75338">
        <ele>2109.7</ele>
        <time>2026-03-03T08:33:46.999Z</time>
      </trkpt>
      <trkpt lat="44.83483" lon="6.75338">
        <ele>2109.7</ele>
        <time>2026-03-03T08:33:47.999Z</time>
      </trkpt>
      <trkpt lat="44.83484" lon="6.75338">
        <ele>2110</ele>
        <time>2026-03-03T08:33:48.999Z</time>
      </trkpt>
      <trkpt lat="44.83485" lon="6.75339">
        <ele>2110.3</ele>
        <time>2026-03-03T08:33:49.999Z</time>
      </trkpt>
      <trkpt lat="44.83486" lon="6.75338">
        <ele>2110.7</ele>
        <time>2026-03-03T08:33:50.999Z</time>
      </trkpt>
      <trkpt lat="44.83487" lon="6.75338">
        <ele>2111.1</ele>
        <time>2026-03-03T08:33:51.999Z</time>
      </trkpt>
      <trkpt lat="44.83487" lon="6.75339">
        <ele>2111.6</ele>
        <time>2026-03-03T08:33:52.999Z</time>
      </trkpt>
      <trkpt lat="44.83488" lon="6.75339">
        <ele>2112.1</ele>
        <time>2026-03-03T08:33:53.999Z</time>
      </trkpt>
      <trkpt lat="44.83488" lon="6.75339">
        <ele>2112.4</ele>
        <time>2026-03-03T08:33:54.999Z</time>
      </trkpt>
      <trkpt lat="44.83489" lon="6.75339">
        <ele>2112.7</ele>
        <time>2026-03-03T08:33:55.999Z</time>
      </trkpt>
      <trkpt lat="44.83489" lon="6.75339">
        <ele>2112.9</ele>
        <time>2026-03-03T08:33:56.999Z</time>
      </trkpt>
      <trkpt lat="44.8349" lon="6.75339">
        <ele>2113.3</ele>
        <time>2026-03-03T08:33:57.999Z</time>
      </trkpt>
      <trkpt lat="44.8349" lon="6.75339">
        <ele>2113.3</ele>
        <time>2026-03-03T08:33:58.999Z</time>
      </trkpt>
      <trkpt lat="44.83492" lon="6.75342">
        <ele>2114.5</ele>
        <time>2026-03-03T08:34:14.999Z</time>
      </trkpt>
      <trkpt lat="44.83493" lon="6.75342">
        <ele>2114.5</ele>
        <time>2026-03-03T08:34:15.999Z</time>
      </trkpt>
      <trkpt lat="44.83493" lon="6.75342">
        <ele>2114.5</ele>
        <time>2026-03-03T08:34:16.999Z</time>
      </trkpt>
      <trkpt lat="44.83494" lon="6.75342">
        <ele>2114.4</ele>
        <time>2026-03-03T08:34:17.999Z</time>
      </trkpt>
      <trkpt lat="44.83494" lon="6.75343">
        <ele>2114.4</ele>
        <time>2026-03-03T08:34:18.999Z</time>
      </trkpt>
      <trkpt lat="44.83495" lon="6.75343">
        <ele>2114.4</ele>
        <time>2026-03-03T08:34:19.999Z</time>
      </trkpt>
      <trkpt lat="44.83495" lon="6.75343">
        <ele>2114.5</ele>
        <time>2026-03-03T08:34:20.999Z</time>
      </trkpt>
      <trkpt lat="44.83495" lon="6.75343">
        <ele>2114.5</ele>
        <time>2026-03-03T08:34:21.999Z</time>
      </trkpt>
      <trkpt lat="44.83496" lon="6.75343">
        <ele>2114.7</ele>
        <time>2026-03-03T08:34:22.999Z</time>
      </trkpt>
      <trkpt lat="44.83496" lon="6.75344">
        <ele>2114.8</ele>
        <time>2026-03-03T08:34:23.999Z</time>
      </trkpt>
      <trkpt lat="44.83497" lon="6.75344">
        <ele>2114.8</ele>
        <time>2026-03-03T08:34:24.999Z</time>
      </trkpt>
      <trkpt lat="44.83497" lon="6.75345">
        <ele>2115</ele>
        <time>2026-03-03T08:34:25.999Z</time>
      </trkpt>
      <trkpt lat="44.83497" lon="6.75345">
        <ele>2115</ele>
        <time>2026-03-03T08:34:26.999Z</time>
      </trkpt>
      <trkpt lat="44.83497" lon="6.75345">
        <ele>2115</ele>
        <time>2026-03-03T08:34:27.999Z</time>
      </trkpt>
      <trkpt lat="44.83498" lon="6.75346">
        <ele>2114.9</ele>
        <time>2026-03-03T08:34:28.999Z</time>
      </trkpt>
      <trkpt lat="44.83498" lon="6.75347">
        <ele>2115</ele>
        <time>2026-03-03T08:34:29.999Z</time>
      </trkpt>
      <trkpt lat="44.83498" lon="6.75347">
        <ele>2114.9</ele>
        <time>2026-03-03T08:34:30.999Z</time>
      </trkpt>
      <trkpt lat="44.83498" lon="6.75348">
        <ele>2115</ele>
        <time>2026-03-03T08:34:31.999Z</time>
      </trkpt>
      <trkpt lat="44.83498" lon="6.75348">
        <ele>2115.1</ele>
        <time>2026-03-03T08:34:32.999Z</time>
      </trkpt>
      <trkpt lat="44.83499" lon="6.75349">
        <ele>2115.5</ele>
        <time>2026-03-03T08:34:33.999Z</time>
      </trkpt>
      <trkpt lat="44.83499" lon="6.75349">
        <ele>2115.7</ele>
        <time>2026-03-03T08:34:34.999Z</time>
      </trkpt>
      <trkpt lat="44.835" lon="6.75351">
        <ele>2115.9</ele>
        <time>2026-03-03T08:34:35.999Z</time>
      </trkpt>
      <trkpt lat="44.835" lon="6.75353">
        <ele>2116.2</ele>
        <time>2026-03-03T08:34:36.999Z</time>
      </trkpt>
      <trkpt lat="44.83501" lon="6.75354">
        <ele>2116.3</ele>
        <time>2026-03-03T08:34:37.999Z</time>
      </trkpt>
      <trkpt lat="44.83501" lon="6.75355">
        <ele>2116.6</ele>
        <time>2026-03-03T08:34:38.999Z</time>
      </trkpt>
      <trkpt lat="44.83501" lon="6.75357">
        <ele>2116.8</ele>
        <time>2026-03-03T08:34:39.999Z</time>
      </trkpt>
      <trkpt lat="44.83501" lon="6.75358">
        <ele>2117.1</ele>
        <time>2026-03-03T08:34:40.999Z</time>
      </trkpt>
      <trkpt lat="44.83501" lon="6.75359">
        <ele>2117.1</ele>
        <time>2026-03-03T08:34:41.999Z</time>
      </trkpt>
      <trkpt lat="44.83501" lon="6.7536">
        <ele>2117.1</ele>
        <time>2026-03-03T08:34:42.999Z</time>
      </trkpt>
      <trkpt lat="44.83501" lon="6.75361">
        <ele>2117</ele>
        <time>2026-03-03T08:34:43.999Z</time>
      </trkpt>
      <trkpt lat="44.835" lon="6.75362">
        <ele>2117</ele>
        <time>2026-03-03T08:34:44.999Z</time>
      </trkpt>
      <trkpt lat="44.835" lon="6.75362">
        <ele>2117</ele>
        <time>2026-03-03T08:34:45.999Z</time>
      </trkpt>
      <trkpt lat="44.835" lon="6.75363">
        <ele>2116.9</ele>
        <time>2026-03-03T08:34:46.999Z</time>
      </trkpt>
      <trkpt lat="44.83499" lon="6.75363">
        <ele>2116.8</ele>
        <time>2026-03-03T08:34:47.999Z</time>
      </trkpt>
      <trkpt lat="44.83499" lon="6.75364">
        <ele>2116.8</ele>
        <time>2026-03-03T08:34:48.999Z</time>
      </trkpt>
      <trkpt lat="44.83499" lon="6.75364">
        <ele>2117.1</ele>
        <time>2026-03-03T08:34:49.999Z</time>
      </trkpt>
      <trkpt lat="44.83499" lon="6.75365">
        <ele>2117.2</ele>
        <time>2026-03-03T08:34:50.999Z</time>
      </trkpt>
      <trkpt lat="44.83499" lon="6.75366">
        <ele>2117.5</ele>
        <time>2026-03-03T08:34:51.999Z</time>
      </trkpt>
      <trkpt lat="44.83498" lon="6.75366">
        <ele>2117.8</ele>
        <time>2026-03-03T08:34:52.999Z</time>
      </trkpt>
      <trkpt lat="44.83499" lon="6.75366">
        <ele>2118.1</ele>
        <time>2026-03-03T08:34:53.999Z</time>
      </trkpt>
      <trkpt lat="44.83499" lon="6.75366">
        <ele>2118.2</ele>
        <time>2026-03-03T08:34:54.999Z</time>
      </trkpt>
      <trkpt lat="44.83499" lon="6.75367">
        <ele>2118.5</ele>
        <time>2026-03-03T08:34:55.999Z</time>
      </trkpt>
      <trkpt lat="44.83498" lon="6.75367">
        <ele>2118.5</ele>
        <time>2026-03-03T08:34:56.999Z</time>
      </trkpt>
      <trkpt lat="44.83498" lon="6.75367">
        <ele>2118.5</ele>
        <time>2026-03-03T08:34:57.999Z</time>
      </trkpt>
      <trkpt lat="44.83498" lon="6.75368">
        <ele>2118.5</ele>
        <time>2026-03-03T08:34:58.999Z</time>
      </trkpt>
      <trkpt lat="44.83498" lon="6.75368">
        <ele>2118.5</ele>
        <time>2026-03-03T08:34:59.999Z</time>
      </trkpt>
      <trkpt lat="44.83497" lon="6.7537">
        <ele>2118.8</ele>
        <time>2026-03-03T08:35:00.999Z</time>
      </trkpt>
      <trkpt lat="44.83497" lon="6.75372">
        <ele>2119</ele>
        <time>2026-03-03T08:35:01.999Z</time>
      </trkpt>
      <trkpt lat="44.83496" lon="6.75373">
        <ele>2119.2</ele>
        <time>2026-03-03T08:35:02.999Z</time>
      </trkpt>
      <trkpt lat="44.83496" lon="6.75374">
        <ele>2119.4</ele>
        <time>2026-03-03T08:35:03.999Z</time>
      </trkpt>
      <trkpt lat="44.83495" lon="6.75375">
        <ele>2119.8</ele>
        <time>2026-03-03T08:35:04.999Z</time>
      </trkpt>
      <trkpt lat="44.83495" lon="6.75376">
        <ele>2120</ele>
        <time>2026-03-03T08:35:05.999Z</time>
      </trkpt>
      <trkpt lat="44.83495" lon="6.75377">
        <ele>2120.2</ele>
        <time>2026-03-03T08:35:06.999Z</time>
      </trkpt>
      <trkpt lat="44.83494" lon="6.75378">
        <ele>2120.2</ele>
        <time>2026-03-03T08:35:07.999Z</time>
      </trkpt>
      <trkpt lat="44.83494" lon="6.75379">
        <ele>2120.3</ele>
        <time>2026-03-03T08:35:08.999Z</time>
      </trkpt>
      <trkpt lat="44.83493" lon="6.7538">
        <ele>2120.4</ele>
        <time>2026-03-03T08:35:09.999Z</time>
      </trkpt>
      <trkpt lat="44.83492" lon="6.75381">
        <ele>2120.5</ele>
        <time>2026-03-03T08:35:10.999Z</time>
      </trkpt>
      <trkpt lat="44.83492" lon="6.75382">
        <ele>2120.4</ele>
        <time>2026-03-03T08:35:11.999Z</time>
      </trkpt>
      <trkpt lat="44.83492" lon="6.75383">
        <ele>2120.4</ele>
        <time>2026-03-03T08:35:12.999Z</time>
      </trkpt>
      <trkpt lat="44.83491" lon="6.75384">
        <ele>2120.6</ele>
        <time>2026-03-03T08:35:13.999Z</time>
      </trkpt>
      <trkpt lat="44.83491" lon="6.75385">
        <ele>2120.7</ele>
        <time>2026-03-03T08:35:14.999Z</time>
      </trkpt>
      <trkpt lat="44.83491" lon="6.75385">
        <ele>2120.9</ele>
        <time>2026-03-03T08:35:15.999Z</time>
      </trkpt>
      <trkpt lat="44.83491" lon="6.75386">
        <ele>2120.8</ele>
        <time>2026-03-03T08:35:16.999Z</time>
      </trkpt>
      <trkpt lat="44.83491" lon="6.75387">
        <ele>2120.9</ele>
        <time>2026-03-03T08:35:17.999Z</time>
      </trkpt>
      <trkpt lat="44.8349" lon="6.75387">
        <ele>2120.9</ele>
        <time>2026-03-03T08:35:18.999Z</time>
      </trkpt>
      <trkpt lat="44.8349" lon="6.75387">
        <ele>2121.1</ele>
        <time>2026-03-03T08:35:19.999Z</time>
      </trkpt>
      <trkpt lat="44.8349" lon="6.75388">
        <ele>2121.1</ele>
        <time>2026-03-03T08:35:20.999Z</time>
      </trkpt>
      <trkpt lat="44.8349" lon="6.75388">
        <ele>2121</ele>
        <time>2026-03-03T08:35:21.999Z</time>
      </trkpt>
      <trkpt lat="44.83489" lon="6.75389">
        <ele>2121</ele>
        <time>2026-03-03T08:35:22.999Z</time>
      </trkpt>
      <trkpt lat="44.8349" lon="6.75389">
        <ele>2120.9</ele>
        <time>2026-03-03T08:35:23.999Z</time>
      </trkpt>
      <trkpt lat="44.8349" lon="6.75389">
        <ele>2121</ele>
        <time>2026-03-03T08:35:24.999Z</time>
      </trkpt>
      <trkpt lat="44.8349" lon="6.75389">
        <ele>2121</ele>
        <time>2026-03-03T08:35:25.999Z</time>
      </trkpt>
      <trkpt lat="44.8349" lon="6.75389">
        <ele>2120.9</ele>
        <time>2026-03-03T08:35:26.999Z</time>
      </trkpt>
      <trkpt lat="44.83489" lon="6.7539">
        <ele>2120.7</ele>
        <time>2026-03-03T08:35:27.999Z</time>
      </trkpt>
      <trkpt lat="44.83489" lon="6.7539">
        <ele>2120.5</ele>
        <time>2026-03-03T08:35:28.999Z</time>
      </trkpt>
      <trkpt lat="44.83488" lon="6.75392">
        <ele>2120.6</ele>
        <time>2026-03-03T08:35:29.999Z</time>
      </trkpt>
      <trkpt lat="44.83488" lon="6.75393">
        <ele>2120.6</ele>
        <time>2026-03-03T08:35:30.999Z</time>
      </trkpt>
      <trkpt lat="44.83487" lon="6.75394">
        <ele>2120.8</ele>
        <time>2026-03-03T08:35:31.999Z</time>
      </trkpt>
      <trkpt lat="44.83487" lon="6.75395">
        <ele>2120.8</ele>
        <time>2026-03-03T08:35:32.999Z</time>
      </trkpt>
      <trkpt lat="44.83486" lon="6.75396">
        <ele>2121</ele>
        <time>2026-03-03T08:35:33.999Z</time>
      </trkpt>
      <trkpt lat="44.83485" lon="6.75397">
        <ele>2121.2</ele>
        <time>2026-03-03T08:35:34.999Z</time>
      </trkpt>
      <trkpt lat="44.83485" lon="6.75398">
        <ele>2121.4</ele>
        <time>2026-03-03T08:35:35.999Z</time>
      </trkpt>
      <trkpt lat="44.83485" lon="6.75398">
        <ele>2121.5</ele>
        <time>2026-03-03T08:35:36.999Z</time>
      </trkpt>
      <trkpt lat="44.83484" lon="6.75399">
        <ele>2121.8</ele>
        <time>2026-03-03T08:35:37.999Z</time>
      </trkpt>
      <trkpt lat="44.83485" lon="6.754">
        <ele>2122</ele>
        <time>2026-03-03T08:35:38.999Z</time>
      </trkpt>
      <trkpt lat="44.83485" lon="6.75401">
        <ele>2122.2</ele>
        <time>2026-03-03T08:35:39.999Z</time>
      </trkpt>
      <trkpt lat="44.83485" lon="6.75401">
        <ele>2122.2</ele>
        <time>2026-03-03T08:35:40.999Z</time>
      </trkpt>
      <trkpt lat="44.83485" lon="6.75401">
        <ele>2122</ele>
        <time>2026-03-03T08:35:41.999Z</time>
      </trkpt>
      <trkpt lat="44.83485" lon="6.75402">
        <ele>2122.3</ele>
        <time>2026-03-03T08:35:42.999Z</time>
      </trkpt>
      <trkpt lat="44.83485" lon="6.75403">
        <ele>2122.4</ele>
        <time>2026-03-03T08:35:43.999Z</time>
      </trkpt>
      <trkpt lat="44.83486" lon="6.75403">
        <ele>2122.7</ele>
        <time>2026-03-03T08:35:44.999Z</time>
      </trkpt>
      <trkpt lat="44.83488" lon="6.75407">
        <ele>2125.7</ele>
        <time>2026-03-03T08:35:58.999Z</time>
      </trkpt>
      <trkpt lat="44.83488" lon="6.75407">
        <ele>2125.9</ele>
        <time>2026-03-03T08:35:59.999Z</time>
      </trkpt>
      <trkpt lat="44.83489" lon="6.75408">
        <ele>2126</ele>
        <time>2026-03-03T08:36:00.999Z</time>
      </trkpt>
      <trkpt lat="44.83489" lon="6.7541">
        <ele>2126.2</ele>
        <time>2026-03-03T08:36:01.999Z</time>
      </trkpt>
      <trkpt lat="44.83489" lon="6.75411">
        <ele>2126.5</ele>
        <time>2026-03-03T08:36:02.999Z</time>
      </trkpt>
      <trkpt lat="44.83489" lon="6.75411">
        <ele>2126.7</ele>
        <time>2026-03-03T08:36:03.999Z</time>
      </trkpt>
      <trkpt lat="44.83489" lon="6.75412">
        <ele>2126.8</ele>
        <time>2026-03-03T08:36:04.999Z</time>
      </trkpt>
      <trkpt lat="44.83489" lon="6.75413">
        <ele>2126.9</ele>
        <time>2026-03-03T08:36:05.999Z</time>
      </trkpt>
      <trkpt lat="44.8349" lon="6.75413">
        <ele>2127</ele>
        <time>2026-03-03T08:36:06.999Z</time>
      </trkpt>
      <trkpt lat="44.8349" lon="6.75414">
        <ele>2127.3</ele>
        <time>2026-03-03T08:36:07.999Z</time>
      </trkpt>
      <trkpt lat="44.8349" lon="6.75414">
        <ele>2127.6</ele>
        <time>2026-03-03T08:36:08.999Z</time>
      </trkpt>
      <trkpt lat="44.8349" lon="6.75415">
        <ele>2127.8</ele>
        <time>2026-03-03T08:36:09.999Z</time>
      </trkpt>
      <trkpt lat="44.83491" lon="6.75416">
        <ele>2128.1</ele>
        <time>2026-03-03T08:36:10.999Z</time>
      </trkpt>
      <trkpt lat="44.83491" lon="6.75417">
        <ele>2128.4</ele>
        <time>2026-03-03T08:36:11.999Z</time>
      </trkpt>
      <trkpt lat="44.83492" lon="6.75417">
        <ele>2128.7</ele>
        <time>2026-03-03T08:36:12.999Z</time>
      </trkpt>
      <trkpt lat="44.83492" lon="6.75418">
        <ele>2128.8</ele>
        <time>2026-03-03T08:36:13.999Z</time>
      </trkpt>
      <trkpt lat="44.83492" lon="6.75418">
        <ele>2129</ele>
        <time>2026-03-03T08:36:14.999Z</time>
      </trkpt>
      <trkpt lat="44.83493" lon="6.75418">
        <ele>2129</ele>
        <time>2026-03-03T08:36:15.999Z</time>
      </trkpt>
      <trkpt lat="44.83493" lon="6.75419">
        <ele>2128.9</ele>
        <time>2026-03-03T08:36:16.999Z</time>
      </trkpt>
      <trkpt lat="44.83494" lon="6.75419">
        <ele>2129.1</ele>
        <time>2026-03-03T08:36:17.999Z</time>
      </trkpt>
      <trkpt lat="44.83494" lon="6.75419">
        <ele>2129.1</ele>
        <time>2026-03-03T08:36:18.999Z</time>
      </trkpt>
      <trkpt lat="44.83494" lon="6.75419">
        <ele>2129.4</ele>
        <time>2026-03-03T08:36:19.999Z</time>
      </trkpt>
      <trkpt lat="44.83494" lon="6.75419">
        <ele>2129.6</ele>
        <time>2026-03-03T08:36:20.999Z</time>
      </trkpt>
      <trkpt lat="44.83495" lon="6.75419">
        <ele>2129.7</ele>
        <time>2026-03-03T08:36:21.999Z</time>
      </trkpt>
      <trkpt lat="44.83495" lon="6.75419">
        <ele>2129.7</ele>
        <time>2026-03-03T08:36:22.999Z</time>
      </trkpt>
      <trkpt lat="44.83496" lon="6.75419">
        <ele>2129.7</ele>
        <time>2026-03-03T08:36:23.999Z</time>
      </trkpt>
      <trkpt lat="44.83497" lon="6.75419">
        <ele>2129.8</ele>
        <time>2026-03-03T08:36:24.999Z</time>
      </trkpt>
      <trkpt lat="44.83498" lon="6.7542">
        <ele>2129.9</ele>
        <time>2026-03-03T08:36:25.999Z</time>
      </trkpt>
      <trkpt lat="44.83499" lon="6.7542">
        <ele>2130.2</ele>
        <time>2026-03-03T08:36:26.999Z</time>
      </trkpt>
      <trkpt lat="44.83499" lon="6.7542">
        <ele>2130.2</ele>
        <time>2026-03-03T08:36:27.999Z</time>
      </trkpt>
      <trkpt lat="44.83499" lon="6.7542">
        <ele>2130.4</ele>
        <time>2026-03-03T08:36:28.999Z</time>
      </trkpt>
      <trkpt lat="44.835" lon="6.7542">
        <ele>2130.5</ele>
        <time>2026-03-03T08:36:29.999Z</time>
      </trkpt>
      <trkpt lat="44.83501" lon="6.7542">
        <ele>2130.9</ele>
        <time>2026-03-03T08:36:30.999Z</time>
      </trkpt>
      <trkpt lat="44.83502" lon="6.7542">
        <ele>2131</ele>
        <time>2026-03-03T08:36:31.999Z</time>
      </trkpt>
      <trkpt lat="44.83503" lon="6.75421">
        <ele>2131.1</ele>
        <time>2026-03-03T08:36:32.999Z</time>
      </trkpt>
      <trkpt lat="44.83503" lon="6.75421">
        <ele>2131.4</ele>
        <time>2026-03-03T08:36:33.999Z</time>
      </trkpt>
      <trkpt lat="44.83504" lon="6.75421">
        <ele>2131.6</ele>
        <time>2026-03-03T08:36:34.999Z</time>
      </trkpt>
      <trkpt lat="44.83505" lon="6.75422">
        <ele>2131.9</ele>
        <time>2026-03-03T08:36:35.999Z</time>
      </trkpt>
      <trkpt lat="44.83505" lon="6.75422">
        <ele>2132.2</ele>
        <time>2026-03-03T08:36:36.999Z</time>
      </trkpt>
      <trkpt lat="44.83506" lon="6.75423">
        <ele>2132.3</ele>
        <time>2026-03-03T08:36:37.999Z</time>
      </trkpt>
      <trkpt lat="44.83506" lon="6.75424">
        <ele>2132.3</ele>
        <time>2026-03-03T08:36:38.999Z</time>
      </trkpt>
      <trkpt lat="44.83507" lon="6.75425">
        <ele>2132.3</ele>
        <time>2026-03-03T08:36:39.999Z</time>
      </trkpt>
      <trkpt lat="44.83507" lon="6.75425">
        <ele>2132.5</ele>
        <time>2026-03-03T08:36:40.999Z</time>
      </trkpt>
      <trkpt lat="44.83508" lon="6.75425">
        <ele>2132.9</ele>
        <time>2026-03-03T08:36:41.999Z</time>
      </trkpt>
      <trkpt lat="44.83508" lon="6.75426">
        <ele>2133.1</ele>
        <time>2026-03-03T08:36:42.999Z</time>
      </trkpt>
      <trkpt lat="44.83508" lon="6.75426">
        <ele>2133.4</ele>
        <time>2026-03-03T08:36:43.999Z</time>
      </trkpt>
      <trkpt lat="44.83509" lon="6.75426">
        <ele>2133.6</ele>
        <time>2026-03-03T08:36:44.999Z</time>
      </trkpt>
      <trkpt lat="44.83509" lon="6.75426">
        <ele>2133.9</ele>
        <time>2026-03-03T08:36:45.999Z</time>
      </trkpt>
      <trkpt lat="44.8351" lon="6.75427">
        <ele>2134</ele>
        <time>2026-03-03T08:36:46.999Z</time>
      </trkpt>
      <trkpt lat="44.8351" lon="6.75427">
        <ele>2134.2</ele>
        <time>2026-03-03T08:36:47.999Z</time>
      </trkpt>
      <trkpt lat="44.8351" lon="6.75427">
        <ele>2134.4</ele>
        <time>2026-03-03T08:36:48.999Z</time>
      </trkpt>
      <trkpt lat="44.8351" lon="6.75427">
        <ele>2134.5</ele>
        <time>2026-03-03T08:36:49.999Z</time>
      </trkpt>
      <trkpt lat="44.83511" lon="6.75428">
        <ele>2134.4</ele>
        <time>2026-03-03T08:36:50.999Z</time>
      </trkpt>
      <trkpt lat="44.83511" lon="6.75428">
        <ele>2134.4</ele>
        <time>2026-03-03T08:36:51.999Z</time>
      </trkpt>
      <trkpt lat="44.83511" lon="6.75429">
        <ele>2134.2</ele>
        <time>2026-03-03T08:36:52.999Z</time>
      </trkpt>
      <trkpt lat="44.83511" lon="6.7543">
        <ele>2134.1</ele>
        <time>2026-03-03T08:36:53.999Z</time>
      </trkpt>
      <trkpt lat="44.83511" lon="6.7543">
        <ele>2133.9</ele>
        <time>2026-03-03T08:36:54.999Z</time>
      </trkpt>
      <trkpt lat="44.83511" lon="6.75431">
        <ele>2133.6</ele>
        <time>2026-03-03T08:36:55.999Z</time>
      </trkpt>
      <trkpt lat="44.83511" lon="6.75431">
        <ele>2133.5</ele>
        <time>2026-03-03T08:36:56.999Z</time>
      </trkpt>
      <trkpt lat="44.83511" lon="6.75431">
        <ele>2133.4</ele>
        <time>2026-03-03T08:36:57.999Z</time>
      </trkpt>
      <trkpt lat="44.83511" lon="6.75432">
        <ele>2133.5</ele>
        <time>2026-03-03T08:36:58.999Z</time>
      </trkpt>
      <trkpt lat="44.83511" lon="6.75433">
        <ele>2133.5</ele>
        <time>2026-03-03T08:36:59.999Z</time>
      </trkpt>
      <trkpt lat="44.83511" lon="6.75433">
        <ele>2133.5</ele>
        <time>2026-03-03T08:37:00.999Z</time>
      </trkpt>
      <trkpt lat="44.8351" lon="6.75433">
        <ele>2133.4</ele>
        <time>2026-03-03T08:37:01.999Z</time>
      </trkpt>
      <trkpt lat="44.8351" lon="6.75434">
        <ele>2133.4</ele>
        <time>2026-03-03T08:37:02.999Z</time>
      </trkpt>
      <trkpt lat="44.8351" lon="6.75434">
        <ele>2133.3</ele>
        <time>2026-03-03T08:37:03.999Z</time>
      </trkpt>
      <trkpt lat="44.8351" lon="6.75434">
        <ele>2133.4</ele>
        <time>2026-03-03T08:37:04.999Z</time>
      </trkpt>
      <trkpt lat="44.8351" lon="6.75434">
        <ele>2133.5</ele>
        <time>2026-03-03T08:37:05.999Z</time>
      </trkpt>
      <trkpt lat="44.83509" lon="6.75435">
        <ele>2133.5</ele>
        <time>2026-03-03T08:37:06.999Z</time>
      </trkpt>
      <trkpt lat="44.83509" lon="6.75435">
        <ele>2133.4</ele>
        <time>2026-03-03T08:37:07.999Z</time>
      </trkpt>
      <trkpt lat="44.83509" lon="6.75435">
        <ele>2133.3</ele>
        <time>2026-03-03T08:37:08.999Z</time>
      </trkpt>
      <trkpt lat="44.83509" lon="6.75436">
        <ele>2133</ele>
        <time>2026-03-03T08:37:09.999Z</time>
      </trkpt>
      <trkpt lat="44.83509" lon="6.75436">
        <ele>2133.1</ele>
        <time>2026-03-03T08:37:10.999Z</time>
      </trkpt>
      <trkpt lat="44.83508" lon="6.75438">
        <ele>2133.2</ele>
        <time>2026-03-03T08:37:11.999Z</time>
      </trkpt>
      <trkpt lat="44.83508" lon="6.7544">
        <ele>2133.1</ele>
        <time>2026-03-03T08:37:12.999Z</time>
      </trkpt>
      <trkpt lat="44.83506" lon="6.75443">
        <ele>2133.4</ele>
        <time>2026-03-03T08:37:13.999Z</time>
      </trkpt>
      <trkpt lat="44.83506" lon="6.75444">
        <ele>2133.5</ele>
        <time>2026-03-03T08:37:14.999Z</time>
      </trkpt>
      <trkpt lat="44.83505" lon="6.75445">
        <ele>2133.5</ele>
        <time>2026-03-03T08:37:15.999Z</time>
      </trkpt>
      <trkpt lat="44.83505" lon="6.75446">
        <ele>2133.5</ele>
        <time>2026-03-03T08:37:16.999Z</time>
      </trkpt>
      <trkpt lat="44.83504" lon="6.75447">
        <ele>2133.6</ele>
        <time>2026-03-03T08:37:17.999Z</time>
      </trkpt>
      <trkpt lat="44.83504" lon="6.75448">
        <ele>2133.8</ele>
        <time>2026-03-03T08:37:18.999Z</time>
      </trkpt>
      <trkpt lat="44.83505" lon="6.75448">
        <ele>2134.3</ele>
        <time>2026-03-03T08:37:19.999Z</time>
      </trkpt>
      <trkpt lat="44.83505" lon="6.75449">
        <ele>2134.6</ele>
        <time>2026-03-03T08:37:20.999Z</time>
      </trkpt>
      <trkpt lat="44.83506" lon="6.75449">
        <ele>2134.9</ele>
        <time>2026-03-03T08:37:21.999Z</time>
      </trkpt>
      <trkpt lat="44.83507" lon="6.75449">
        <ele>2135.3</ele>
        <time>2026-03-03T08:37:22.999Z</time>
      </trkpt>
      <trkpt lat="44.83508" lon="6.75449">
        <ele>2135.5</ele>
        <time>2026-03-03T08:37:23.999Z</time>
      </trkpt>
      <trkpt lat="44.83508" lon="6.7545">
        <ele>2135.6</ele>
        <time>2026-03-03T08:37:24.999Z</time>
      </trkpt>
      <trkpt lat="44.83508" lon="6.7545">
        <ele>2135.5</ele>
        <time>2026-03-03T08:37:25.999Z</time>
      </trkpt>
      <trkpt lat="44.83509" lon="6.75451">
        <ele>2135.8</ele>
        <time>2026-03-03T08:37:26.999Z</time>
      </trkpt>
      <trkpt lat="44.83509" lon="6.75451">
        <ele>2136</ele>
        <time>2026-03-03T08:37:27.999Z</time>
      </trkpt>
      <trkpt lat="44.83509" lon="6.75451">
        <ele>2136.5</ele>
        <time>2026-03-03T08:37:28.999Z</time>
      </trkpt>
      <trkpt lat="44.8351" lon="6.75451">
        <ele>2136.9</ele>
        <time>2026-03-03T08:37:29.999Z</time>
      </trkpt>
      <trkpt lat="44.8351" lon="6.75451">
        <ele>2137.2</ele>
        <time>2026-03-03T08:37:30.999Z</time>
      </trkpt>
      <trkpt lat="44.83511" lon="6.75452">
        <ele>2137.5</ele>
        <time>2026-03-03T08:37:31.999Z</time>
      </trkpt>
      <trkpt lat="44.83511" lon="6.75452">
        <ele>2137.8</ele>
        <time>2026-03-03T08:37:32.999Z</time>
      </trkpt>
      <trkpt lat="44.83512" lon="6.75452">
        <ele>2138</ele>
        <time>2026-03-03T08:37:33.999Z</time>
      </trkpt>
      <trkpt lat="44.83512" lon="6.75452">
        <ele>2138.3</ele>
        <time>2026-03-03T08:37:34.999Z</time>
      </trkpt>
      <trkpt lat="44.83513" lon="6.75452">
        <ele>2138.6</ele>
        <time>2026-03-03T08:37:35.999Z</time>
      </trkpt>
      <trkpt lat="44.83514" lon="6.75452">
        <ele>2138.6</ele>
        <time>2026-03-03T08:37:36.999Z</time>
      </trkpt>
      <trkpt lat="44.83514" lon="6.75452">
        <ele>2138.8</ele>
        <time>2026-03-03T08:37:37.999Z</time>
      </trkpt>
      <trkpt lat="44.83515" lon="6.75453">
        <ele>2139.1</ele>
        <time>2026-03-03T08:37:38.999Z</time>
      </trkpt>
      <trkpt lat="44.83516" lon="6.75453">
        <ele>2139.1</ele>
        <time>2026-03-03T08:37:39.999Z</time>
      </trkpt>
      <trkpt lat="44.83517" lon="6.75454">
        <ele>2139.1</ele>
        <time>2026-03-03T08:37:40.999Z</time>
      </trkpt>
      <trkpt lat="44.83518" lon="6.75455">
        <ele>2139.2</ele>
        <time>2026-03-03T08:37:41.999Z</time>
      </trkpt>
      <trkpt lat="44.83518" lon="6.75455">
        <ele>2139.3</ele>
        <time>2026-03-03T08:37:42.999Z</time>
      </trkpt>
      <trkpt lat="44.83519" lon="6.75456">
        <ele>2139.5</ele>
        <time>2026-03-03T08:37:43.999Z</time>
      </trkpt>
      <trkpt lat="44.8352" lon="6.75456">
        <ele>2139.9</ele>
        <time>2026-03-03T08:37:44.999Z</time>
      </trkpt>
      <trkpt lat="44.8352" lon="6.75456">
        <ele>2140.3</ele>
        <time>2026-03-03T08:37:45.999Z</time>
      </trkpt>
      <trkpt lat="44.8352" lon="6.75457">
        <ele>2140.5</ele>
        <time>2026-03-03T08:37:46.999Z</time>
      </trkpt>
      <trkpt lat="44.83521" lon="6.75457">
        <ele>2141</ele>
        <time>2026-03-03T08:37:47.999Z</time>
      </trkpt>
      <trkpt lat="44.83521" lon="6.75457">
        <ele>2141.3</ele>
        <time>2026-03-03T08:37:48.999Z</time>
      </trkpt>
      <trkpt lat="44.83522" lon="6.75457">
        <ele>2141.7</ele>
        <time>2026-03-03T08:37:49.999Z</time>
      </trkpt>
      <trkpt lat="44.83522" lon="6.75457">
        <ele>2142.1</ele>
        <time>2026-03-03T08:37:50.999Z</time>
      </trkpt>
      <trkpt lat="44.83523" lon="6.75457">
        <ele>2142.3</ele>
        <time>2026-03-03T08:37:51.999Z</time>
      </trkpt>
      <trkpt lat="44.83523" lon="6.75458">
        <ele>2142.3</ele>
        <time>2026-03-03T08:37:52.999Z</time>
      </trkpt>
      <trkpt lat="44.83524" lon="6.75458">
        <ele>2142.7</ele>
        <time>2026-03-03T08:37:53.999Z</time>
      </trkpt>
      <trkpt lat="44.83524" lon="6.75459">
        <ele>2142.9</ele>
        <time>2026-03-03T08:37:54.999Z</time>
      </trkpt>
      <trkpt lat="44.83524" lon="6.75459">
        <ele>2143.3</ele>
        <time>2026-03-03T08:37:55.999Z</time>
      </trkpt>
      <trkpt lat="44.83524" lon="6.75459">
        <ele>2143.5</ele>
        <time>2026-03-03T08:37:56.999Z</time>
      </trkpt>
      <trkpt lat="44.83524" lon="6.7546">
        <ele>2143.7</ele>
        <time>2026-03-03T08:37:57.999Z</time>
      </trkpt>
      <trkpt lat="44.83525" lon="6.75461">
        <ele>2143.5</ele>
        <time>2026-03-03T08:37:58.999Z</time>
      </trkpt>
      <trkpt lat="44.83525" lon="6.75461">
        <ele>2143.5</ele>
        <time>2026-03-03T08:37:59.999Z</time>
      </trkpt>
      <trkpt lat="44.83525" lon="6.75462">
        <ele>2143.6</ele>
        <time>2026-03-03T08:38:00.999Z</time>
      </trkpt>
      <trkpt lat="44.83525" lon="6.75462">
        <ele>2143.7</ele>
        <time>2026-03-03T08:38:01.999Z</time>
      </trkpt>
      <trkpt lat="44.83525" lon="6.75462">
        <ele>2143.8</ele>
        <time>2026-03-03T08:38:02.999Z</time>
      </trkpt>
      <trkpt lat="44.83525" lon="6.75463">
        <ele>2144</ele>
        <time>2026-03-03T08:38:03.999Z</time>
      </trkpt>
      <trkpt lat="44.83524" lon="6.75463">
        <ele>2144.1</ele>
        <time>2026-03-03T08:38:04.999Z</time>
      </trkpt>
      <trkpt lat="44.83525" lon="6.75464">
        <ele>2144.1</ele>
        <time>2026-03-03T08:38:05.999Z</time>
      </trkpt>
      <trkpt lat="44.83525" lon="6.75464">
        <ele>2144.1</ele>
        <time>2026-03-03T08:38:06.999Z</time>
      </trkpt>
      <trkpt lat="44.83525" lon="6.75465">
        <ele>2143.9</ele>
        <time>2026-03-03T08:38:07.999Z</time>
      </trkpt>
      <trkpt lat="44.83525" lon="6.75467">
        <ele>2143.8</ele>
        <time>2026-03-03T08:38:08.999Z</time>
      </trkpt>
      <trkpt lat="44.83524" lon="6.75468">
        <ele>2143.8</ele>
        <time>2026-03-03T08:38:09.999Z</time>
      </trkpt>
      <trkpt lat="44.83524" lon="6.75469">
        <ele>2143.9</ele>
        <time>2026-03-03T08:38:10.999Z</time>
      </trkpt>
      <trkpt lat="44.83524" lon="6.75471">
        <ele>2143.8</ele>
        <time>2026-03-03T08:38:11.999Z</time>
      </trkpt>
      <trkpt lat="44.83524" lon="6.75471">
        <ele>2143.8</ele>
        <time>2026-03-03T08:38:12.999Z</time>
      </trkpt>
      <trkpt lat="44.83524" lon="6.75472">
        <ele>2143.7</ele>
        <time>2026-03-03T08:38:13.999Z</time>
      </trkpt>
      <trkpt lat="44.83523" lon="6.75474">
        <ele>2143.8</ele>
        <time>2026-03-03T08:38:14.999Z</time>
      </trkpt>
      <trkpt lat="44.83523" lon="6.75475">
        <ele>2144.1</ele>
        <time>2026-03-03T08:38:15.999Z</time>
      </trkpt>
      <trkpt lat="44.83523" lon="6.75476">
        <ele>2144.2</ele>
        <time>2026-03-03T08:38:16.999Z</time>
      </trkpt>
      <trkpt lat="44.83522" lon="6.75477">
        <ele>2144.3</ele>
        <time>2026-03-03T08:38:17.999Z</time>
      </trkpt>
      <trkpt lat="44.83522" lon="6.75477">
        <ele>2144.2</ele>
        <time>2026-03-03T08:38:18.999Z</time>
      </trkpt>
      <trkpt lat="44.83522" lon="6.75478">
        <ele>2144.4</ele>
        <time>2026-03-03T08:38:19.999Z</time>
      </trkpt>
      <trkpt lat="44.83521" lon="6.75479">
        <ele>2144.4</ele>
        <time>2026-03-03T08:38:20.999Z</time>
      </trkpt>
      <trkpt lat="44.83521" lon="6.7548">
        <ele>2144.4</ele>
        <time>2026-03-03T08:38:21.999Z</time>
      </trkpt>
      <trkpt lat="44.8352" lon="6.75481">
        <ele>2144.2</ele>
        <time>2026-03-03T08:38:22.999Z</time>
      </trkpt>
      <trkpt lat="44.83521" lon="6.75481">
        <ele>2144.3</ele>
        <time>2026-03-03T08:38:23.999Z</time>
      </trkpt>
      <trkpt lat="44.8352" lon="6.75482">
        <ele>2144.5</ele>
        <time>2026-03-03T08:38:24.999Z</time>
      </trkpt>
      <trkpt lat="44.8352" lon="6.75482">
        <ele>2145.1</ele>
        <time>2026-03-03T08:38:25.999Z</time>
      </trkpt>
      <trkpt lat="44.8352" lon="6.75482">
        <ele>2145.6</ele>
        <time>2026-03-03T08:38:26.999Z</time>
      </trkpt>
      <trkpt lat="44.8352" lon="6.75483">
        <ele>2145.7</ele>
        <time>2026-03-03T08:38:27.999Z</time>
      </trkpt>
      <trkpt lat="44.8352" lon="6.75484">
        <ele>2145.8</ele>
        <time>2026-03-03T08:38:28.999Z</time>
      </trkpt>
      <trkpt lat="44.8352" lon="6.75485">
        <ele>2145.7</ele>
        <time>2026-03-03T08:38:29.999Z</time>
      </trkpt>
      <trkpt lat="44.8352" lon="6.75485">
        <ele>2145.7</ele>
        <time>2026-03-03T08:38:30.999Z</time>
      </trkpt>
      <trkpt lat="44.8352" lon="6.75486">
        <ele>2145.6</ele>
        <time>2026-03-03T08:38:31.999Z</time>
      </trkpt>
      <trkpt lat="44.83521" lon="6.75492">
        <ele>2150.8</ele>
        <time>2026-03-03T08:38:55.999Z</time>
      </trkpt>
      <trkpt lat="44.83522" lon="6.75493">
        <ele>2150.8</ele>
        <time>2026-03-03T08:38:56.999Z</time>
      </trkpt>
      <trkpt lat="44.83523" lon="6.75494">
        <ele>2150.9</ele>
        <time>2026-03-03T08:38:57.999Z</time>
      </trkpt>
      <trkpt lat="44.83524" lon="6.75495">
        <ele>2150.9</ele>
        <time>2026-03-03T08:38:58.999Z</time>
      </trkpt>
      <trkpt lat="44.83525" lon="6.75496">
        <ele>2151.1</ele>
        <time>2026-03-03T08:38:59.999Z</time>
      </trkpt>
      <trkpt lat="44.83525" lon="6.75497">
        <ele>2151</ele>
        <time>2026-03-03T08:39:00.999Z</time>
      </trkpt>
      <trkpt lat="44.83525" lon="6.75497">
        <ele>2151</ele>
        <time>2026-03-03T08:39:01.999Z</time>
      </trkpt>
      <trkpt lat="44.83525" lon="6.75498">
        <ele>2151</ele>
        <time>2026-03-03T08:39:02.999Z</time>
      </trkpt>
      <trkpt lat="44.83525" lon="6.75499">
        <ele>2151</ele>
        <time>2026-03-03T08:39:03.999Z</time>
      </trkpt>
      <trkpt lat="44.83526" lon="6.755">
        <ele>2150.9</ele>
        <time>2026-03-03T08:39:04.999Z</time>
      </trkpt>
      <trkpt lat="44.83526" lon="6.75502">
        <ele>2151</ele>
        <time>2026-03-03T08:39:05.999Z</time>
      </trkpt>
      <trkpt lat="44.83526" lon="6.75504">
        <ele>2151.1</ele>
        <time>2026-03-03T08:39:06.999Z</time>
      </trkpt>
      <trkpt lat="44.83526" lon="6.75505">
        <ele>2151.2</ele>
        <time>2026-03-03T08:39:07.999Z</time>
      </trkpt>
      <trkpt lat="44.83526" lon="6.75506">
        <ele>2151.3</ele>
        <time>2026-03-03T08:39:08.999Z</time>
      </trkpt>
      <trkpt lat="44.83526" lon="6.75506">
        <ele>2151.3</ele>
        <time>2026-03-03T08:39:09.999Z</time>
      </trkpt>
      <trkpt lat="44.83526" lon="6.75507">
        <ele>2151.4</ele>
        <time>2026-03-03T08:39:10.999Z</time>
      </trkpt>
      <trkpt lat="44.83526" lon="6.75507">
        <ele>2151.5</ele>
        <time>2026-03-03T08:39:11.999Z</time>
      </trkpt>
      <trkpt lat="44.83526" lon="6.75508">
        <ele>2151.7</ele>
        <time>2026-03-03T08:39:12.999Z</time>
      </trkpt>
      <trkpt lat="44.83526" lon="6.75508">
        <ele>2151.9</ele>
        <time>2026-03-03T08:39:13.999Z</time>
      </trkpt>
      <trkpt lat="44.83526" lon="6.75509">
        <ele>2152.3</ele>
        <time>2026-03-03T08:39:14.999Z</time>
      </trkpt>
      <trkpt lat="44.83525" lon="6.7551">
        <ele>2152.3</ele>
        <time>2026-03-03T08:39:15.999Z</time>
      </trkpt>
      <trkpt lat="44.83525" lon="6.7551">
        <ele>2152.3</ele>
        <time>2026-03-03T08:39:16.999Z</time>
      </trkpt>
      <trkpt lat="44.83525" lon="6.7551">
        <ele>2152.4</ele>
        <time>2026-03-03T08:39:17.999Z</time>
      </trkpt>
      <trkpt lat="44.83525" lon="6.75511">
        <ele>2152.7</ele>
        <time>2026-03-03T08:39:18.999Z</time>
      </trkpt>
      <trkpt lat="44.83525" lon="6.75511">
        <ele>2152.7</ele>
        <time>2026-03-03T08:39:19.999Z</time>
      </trkpt>
      <trkpt lat="44.83524" lon="6.75517">
        <ele>2154.1</ele>
        <time>2026-03-03T08:39:32.999Z</time>
      </trkpt>
      <trkpt lat="44.83524" lon="6.75517">
        <ele>2154.4</ele>
        <time>2026-03-03T08:39:33.999Z</time>
      </trkpt>
      <trkpt lat="44.83524" lon="6.75518">
        <ele>2154.8</ele>
        <time>2026-03-03T08:39:34.999Z</time>
      </trkpt>
      <trkpt lat="44.83524" lon="6.75519">
        <ele>2154.9</ele>
        <time>2026-03-03T08:39:35.999Z</time>
      </trkpt>
      <trkpt lat="44.83524" lon="6.75519">
        <ele>2155</ele>
        <time>2026-03-03T08:39:36.999Z</time>
      </trkpt>
      <trkpt lat="44.83524" lon="6.7552">
        <ele>2155</ele>
        <time>2026-03-03T08:39:37.999Z</time>
      </trkpt>
      <trkpt lat="44.83524" lon="6.75521">
        <ele>2155.1</ele>
        <time>2026-03-03T08:39:38.999Z</time>
      </trkpt>
      <trkpt lat="44.83525" lon="6.75521">
        <ele>2155.3</ele>
        <time>2026-03-03T08:39:39.999Z</time>
      </trkpt>
      <trkpt lat="44.83526" lon="6.75522">
        <ele>2155.4</ele>
        <time>2026-03-03T08:39:40.999Z</time>
      </trkpt>
      <trkpt lat="44.83527" lon="6.75522">
        <ele>2155.6</ele>
        <time>2026-03-03T08:39:41.999Z</time>
      </trkpt>
      <trkpt lat="44.83527" lon="6.75522">
        <ele>2155.7</ele>
        <time>2026-03-03T08:39:42.999Z</time>
      </trkpt>
      <trkpt lat="44.83527" lon="6.75522">
        <ele>2156</ele>
        <time>2026-03-03T08:39:43.999Z</time>
      </trkpt>
      <trkpt lat="44.83527" lon="6.75522">
        <ele>2156.3</ele>
        <time>2026-03-03T08:39:44.999Z</time>
      </trkpt>
      <trkpt lat="44.83527" lon="6.75522">
        <ele>2156.5</ele>
        <time>2026-03-03T08:39:45.999Z</time>
      </trkpt>
      <trkpt lat="44.83527" lon="6.75522">
        <ele>2156.5</ele>
        <time>2026-03-03T08:39:46.999Z</time>
      </trkpt>
      <trkpt lat="44.83527" lon="6.75522">
        <ele>2156.6</ele>
        <time>2026-03-03T08:39:47.999Z</time>
      </trkpt>
      <trkpt lat="44.83527" lon="6.75523">
        <ele>2156.7</ele>
        <time>2026-03-03T08:39:48.999Z</time>
      </trkpt>
      <trkpt lat="44.83527" lon="6.75523">
        <ele>2156.8</ele>
        <time>2026-03-03T08:39:49.999Z</time>
      </trkpt>
      <trkpt lat="44.83528" lon="6.75524">
        <ele>2156.8</ele>
        <time>2026-03-03T08:39:50.999Z</time>
      </trkpt>
      <trkpt lat="44.83529" lon="6.75524">
        <ele>2156.9</ele>
        <time>2026-03-03T08:39:51.999Z</time>
      </trkpt>
      <trkpt lat="44.83529" lon="6.75524">
        <ele>2156.9</ele>
        <time>2026-03-03T08:39:52.999Z</time>
      </trkpt>
      <trkpt lat="44.8353" lon="6.75525">
        <ele>2157</ele>
        <time>2026-03-03T08:39:53.999Z</time>
      </trkpt>
      <trkpt lat="44.8353" lon="6.75525">
        <ele>2157.3</ele>
        <time>2026-03-03T08:39:54.999Z</time>
      </trkpt>
      <trkpt lat="44.83531" lon="6.75525">
        <ele>2157.3</ele>
        <time>2026-03-03T08:39:55.999Z</time>
      </trkpt>
      <trkpt lat="44.83532" lon="6.75525">
        <ele>2157.6</ele>
        <time>2026-03-03T08:39:56.999Z</time>
      </trkpt>
      <trkpt lat="44.83532" lon="6.75525">
        <ele>2157.9</ele>
        <time>2026-03-03T08:39:57.999Z</time>
      </trkpt>
      <trkpt lat="44.83533" lon="6.75526">
        <ele>2158.3</ele>
        <time>2026-03-03T08:39:58.999Z</time>
      </trkpt>
      <trkpt lat="44.83534" lon="6.75526">
        <ele>2158.3</ele>
        <time>2026-03-03T08:39:59.999Z</time>
      </trkpt>
      <trkpt lat="44.83534" lon="6.75526">
        <ele>2158.7</ele>
        <time>2026-03-03T08:40:00.999Z</time>
      </trkpt>
      <trkpt lat="44.83535" lon="6.75527">
        <ele>2159</ele>
        <time>2026-03-03T08:40:01.999Z</time>
      </trkpt>
      <trkpt lat="44.83535" lon="6.75527">
        <ele>2159.2</ele>
        <time>2026-03-03T08:40:02.999Z</time>
      </trkpt>
      <trkpt lat="44.83536" lon="6.75528">
        <ele>2159.6</ele>
        <time>2026-03-03T08:40:03.999Z</time>
      </trkpt>
      <trkpt lat="44.83536" lon="6.75528">
        <ele>2160.3</ele>
        <time>2026-03-03T08:40:04.999Z</time>
      </trkpt>
      <trkpt lat="44.83537" lon="6.75528">
        <ele>2160.7</ele>
        <time>2026-03-03T08:40:05.999Z</time>
      </trkpt>
      <trkpt lat="44.83538" lon="6.75528">
        <ele>2161.1</ele>
        <time>2026-03-03T08:40:06.999Z</time>
      </trkpt>
      <trkpt lat="44.83539" lon="6.75528">
        <ele>2161.3</ele>
        <time>2026-03-03T08:40:07.999Z</time>
      </trkpt>
      <trkpt lat="44.8354" lon="6.75529">
        <ele>2161.3</ele>
        <time>2026-03-03T08:40:08.999Z</time>
      </trkpt>
      <trkpt lat="44.8354" lon="6.75529">
        <ele>2161.4</ele>
        <time>2026-03-03T08:40:09.999Z</time>
      </trkpt>
      <trkpt lat="44.83541" lon="6.75529">
        <ele>2161.4</ele>
        <time>2026-03-03T08:40:10.999Z</time>
      </trkpt>
      <trkpt lat="44.83542" lon="6.75529">
        <ele>2161.5</ele>
        <time>2026-03-03T08:40:11.999Z</time>
      </trkpt>
      <trkpt lat="44.83543" lon="6.7553">
        <ele>2161.4</ele>
        <time>2026-03-03T08:40:12.999Z</time>
      </trkpt>
      <trkpt lat="44.83543" lon="6.7553">
        <ele>2161.5</ele>
        <time>2026-03-03T08:40:13.999Z</time>
      </trkpt>
      <trkpt lat="44.83544" lon="6.7553">
        <ele>2161.6</ele>
        <time>2026-03-03T08:40:14.999Z</time>
      </trkpt>
      <trkpt lat="44.83545" lon="6.75531">
        <ele>2161.5</ele>
        <time>2026-03-03T08:40:15.999Z</time>
      </trkpt>
      <trkpt lat="44.83545" lon="6.75531">
        <ele>2161.7</ele>
        <time>2026-03-03T08:40:16.999Z</time>
      </trkpt>
      <trkpt lat="44.83546" lon="6.75531">
        <ele>2161.8</ele>
        <time>2026-03-03T08:40:17.999Z</time>
      </trkpt>
      <trkpt lat="44.83547" lon="6.75532">
        <ele>2162</ele>
        <time>2026-03-03T08:40:18.999Z</time>
      </trkpt>
      <trkpt lat="44.83547" lon="6.75532">
        <ele>2161.9</ele>
        <time>2026-03-03T08:40:19.999Z</time>
      </trkpt>
      <trkpt lat="44.83547" lon="6.75532">
        <ele>2161.8</ele>
        <time>2026-03-03T08:40:20.999Z</time>
      </trkpt>
      <trkpt lat="44.83547" lon="6.75532">
        <ele>2161.9</ele>
        <time>2026-03-03T08:40:21.999Z</time>
      </trkpt>
      <trkpt lat="44.83548" lon="6.75533">
        <ele>2161.9</ele>
        <time>2026-03-03T08:40:22.999Z</time>
      </trkpt>
      <trkpt lat="44.83548" lon="6.75533">
        <ele>2161.8</ele>
        <time>2026-03-03T08:40:23.999Z</time>
      </trkpt>
      <trkpt lat="44.83549" lon="6.75534">
        <ele>2162</ele>
        <time>2026-03-03T08:40:24.999Z</time>
      </trkpt>
      <trkpt lat="44.83549" lon="6.75534">
        <ele>2162.1</ele>
        <time>2026-03-03T08:40:25.999Z</time>
      </trkpt>
      <trkpt lat="44.8355" lon="6.75534">
        <ele>2162.2</ele>
        <time>2026-03-03T08:40:26.999Z</time>
      </trkpt>
      <trkpt lat="44.83551" lon="6.75535">
        <ele>2162.3</ele>
        <time>2026-03-03T08:40:27.999Z</time>
      </trkpt>
      <trkpt lat="44.83551" lon="6.75535">
        <ele>2162.3</ele>
        <time>2026-03-03T08:40:28.999Z</time>
      </trkpt>
      <trkpt lat="44.83552" lon="6.75535">
        <ele>2162.5</ele>
        <time>2026-03-03T08:40:29.999Z</time>
      </trkpt>
      <trkpt lat="44.83553" lon="6.75536">
        <ele>2162.8</ele>
        <time>2026-03-03T08:40:30.999Z</time>
      </trkpt>
      <trkpt lat="44.83553" lon="6.75535">
        <ele>2163.3</ele>
        <time>2026-03-03T08:40:31.999Z</time>
      </trkpt>
      <trkpt lat="44.83554" lon="6.75535">
        <ele>2163.6</ele>
        <time>2026-03-03T08:40:32.999Z</time>
      </trkpt>
      <trkpt lat="44.83554" lon="6.75535">
        <ele>2163.7</ele>
        <time>2026-03-03T08:40:33.999Z</time>
      </trkpt>
      <trkpt lat="44.83554" lon="6.75535">
        <ele>2163.9</ele>
        <time>2026-03-03T08:40:34.999Z</time>
      </trkpt>
      <trkpt lat="44.83555" lon="6.75536">
        <ele>2163.8</ele>
        <time>2026-03-03T08:40:35.999Z</time>
      </trkpt>
      <trkpt lat="44.83555" lon="6.75536">
        <ele>2163.9</ele>
        <time>2026-03-03T08:40:36.999Z</time>
      </trkpt>
      <trkpt lat="44.83555" lon="6.75536">
        <ele>2164</ele>
        <time>2026-03-03T08:40:37.999Z</time>
      </trkpt>
      <trkpt lat="44.83555" lon="6.75537">
        <ele>2164.1</ele>
        <time>2026-03-03T08:40:38.999Z</time>
      </trkpt>
      <trkpt lat="44.83555" lon="6.75539">
        <ele>2164.1</ele>
        <time>2026-03-03T08:40:39.999Z</time>
      </trkpt>
      <trkpt lat="44.83555" lon="6.7554">
        <ele>2164.2</ele>
        <time>2026-03-03T08:40:40.999Z</time>
      </trkpt>
      <trkpt lat="44.83555" lon="6.75541">
        <ele>2164.2</ele>
        <time>2026-03-03T08:40:41.999Z</time>
      </trkpt>
      <trkpt lat="44.83554" lon="6.75542">
        <ele>2164.5</ele>
        <time>2026-03-03T08:40:42.999Z</time>
      </trkpt>
      <trkpt lat="44.83554" lon="6.75543">
        <ele>2164.5</ele>
        <time>2026-03-03T08:40:43.999Z</time>
      </trkpt>
      <trkpt lat="44.83554" lon="6.75544">
        <ele>2164.5</ele>
        <time>2026-03-03T08:40:44.999Z</time>
      </trkpt>
      <trkpt lat="44.83553" lon="6.75544">
        <ele>2164.4</ele>
        <time>2026-03-03T08:40:45.999Z</time>
      </trkpt>
      <trkpt lat="44.83553" lon="6.75545">
        <ele>2164.4</ele>
        <time>2026-03-03T08:40:46.999Z</time>
      </trkpt>
      <trkpt lat="44.83553" lon="6.75546">
        <ele>2164.6</ele>
        <time>2026-03-03T08:40:47.999Z</time>
      </trkpt>
      <trkpt lat="44.83552" lon="6.75547">
        <ele>2164.6</ele>
        <time>2026-03-03T08:40:48.999Z</time>
      </trkpt>
      <trkpt lat="44.83552" lon="6.75548">
        <ele>2164.7</ele>
        <time>2026-03-03T08:40:49.999Z</time>
      </trkpt>
      <trkpt lat="44.83552" lon="6.75548">
        <ele>2165</ele>
        <time>2026-03-03T08:40:50.999Z</time>
      </trkpt>
      <trkpt lat="44.83552" lon="6.75549">
        <ele>2165.3</ele>
        <time>2026-03-03T08:40:51.999Z</time>
      </trkpt>
      <trkpt lat="44.83551" lon="6.75549">
        <ele>2165.5</ele>
        <time>2026-03-03T08:40:52.999Z</time>
      </trkpt>
      <trkpt lat="44.8355" lon="6.7555">
        <ele>2165.6</ele>
        <time>2026-03-03T08:40:53.999Z</time>
      </trkpt>
      <trkpt lat="44.8355" lon="6.75551">
        <ele>2165.9</ele>
        <time>2026-03-03T08:40:54.999Z</time>
      </trkpt>
      <trkpt lat="44.83549" lon="6.75551">
        <ele>2166.2</ele>
        <time>2026-03-03T08:40:55.999Z</time>
      </trkpt>
      <trkpt lat="44.83549" lon="6.75552">
        <ele>2166.3</ele>
        <time>2026-03-03T08:40:56.999Z</time>
      </trkpt>
      <trkpt lat="44.83548" lon="6.75553">
        <ele>2166.5</ele>
        <time>2026-03-03T08:40:57.999Z</time>
      </trkpt>
      <trkpt lat="44.83548" lon="6.75554">
        <ele>2166.8</ele>
        <time>2026-03-03T08:40:58.999Z</time>
      </trkpt>
      <trkpt lat="44.83549" lon="6.75555">
        <ele>2167.1</ele>
        <time>2026-03-03T08:40:59.999Z</time>
      </trkpt>
      <trkpt lat="44.83549" lon="6.75555">
        <ele>2167.5</ele>
        <time>2026-03-03T08:41:00.999Z</time>
      </trkpt>
      <trkpt lat="44.83548" lon="6.75556">
        <ele>2167.7</ele>
        <time>2026-03-03T08:41:01.999Z</time>
      </trkpt>
      <trkpt lat="44.83548" lon="6.75556">
        <ele>2167.9</ele>
        <time>2026-03-03T08:41:02.999Z</time>
      </trkpt>
      <trkpt lat="44.83548" lon="6.75556">
        <ele>2167.8</ele>
        <time>2026-03-03T08:41:03.999Z</time>
      </trkpt>
      <trkpt lat="44.83548" lon="6.75557">
        <ele>2167.8</ele>
        <time>2026-03-03T08:41:04.999Z</time>
      </trkpt>
      <trkpt lat="44.83548" lon="6.75558">
        <ele>2167.6</ele>
        <time>2026-03-03T08:41:05.999Z</time>
      </trkpt>
      <trkpt lat="44.83547" lon="6.75559">
        <ele>2167.4</ele>
        <time>2026-03-03T08:41:06.999Z</time>
      </trkpt>
      <trkpt lat="44.83547" lon="6.7556">
        <ele>2167.6</ele>
        <time>2026-03-03T08:41:07.999Z</time>
      </trkpt>
      <trkpt lat="44.83547" lon="6.7556">
        <ele>2167.8</ele>
        <time>2026-03-03T08:41:08.999Z</time>
      </trkpt>
      <trkpt lat="44.83547" lon="6.75561">
        <ele>2168.1</ele>
        <time>2026-03-03T08:41:09.999Z</time>
      </trkpt>
      <trkpt lat="44.83547" lon="6.75562">
        <ele>2168.4</ele>
        <time>2026-03-03T08:41:10.999Z</time>
      </trkpt>
      <trkpt lat="44.83546" lon="6.75562">
        <ele>2168.6</ele>
        <time>2026-03-03T08:41:11.999Z</time>
      </trkpt>
      <trkpt lat="44.83546" lon="6.75563">
        <ele>2169</ele>
        <time>2026-03-03T08:41:12.999Z</time>
      </trkpt>
      <trkpt lat="44.83546" lon="6.75564">
        <ele>2169.4</ele>
        <time>2026-03-03T08:41:13.999Z</time>
      </trkpt>
      <trkpt lat="44.83546" lon="6.75564">
        <ele>2169.6</ele>
        <time>2026-03-03T08:41:14.999Z</time>
      </trkpt>
      <trkpt lat="44.83546" lon="6.75565">
        <ele>2169.8</ele>
        <time>2026-03-03T08:41:15.999Z</time>
      </trkpt>
      <trkpt lat="44.83546" lon="6.75565">
        <ele>2169.9</ele>
        <time>2026-03-03T08:41:16.999Z</time>
      </trkpt>
      <trkpt lat="44.83546" lon="6.75565">
        <ele>2170</ele>
        <time>2026-03-03T08:41:17.999Z</time>
      </trkpt>
      <trkpt lat="44.83546" lon="6.75566">
        <ele>2170.3</ele>
        <time>2026-03-03T08:41:18.999Z</time>
      </trkpt>
      <trkpt lat="44.83546" lon="6.75567">
        <ele>2170.5</ele>
        <time>2026-03-03T08:41:19.999Z</time>
      </trkpt>
      <trkpt lat="44.83546" lon="6.75567">
        <ele>2170.5</ele>
        <time>2026-03-03T08:41:20.999Z</time>
      </trkpt>
      <trkpt lat="44.83547" lon="6.75567">
        <ele>2170.5</ele>
        <time>2026-03-03T08:41:21.999Z</time>
      </trkpt>
      <trkpt lat="44.83547" lon="6.75568">
        <ele>2170.7</ele>
        <time>2026-03-03T08:41:22.999Z</time>
      </trkpt>
      <trkpt lat="44.83547" lon="6.75567">
        <ele>2171</ele>
        <time>2026-03-03T08:41:23.999Z</time>
      </trkpt>
      <trkpt lat="44.83547" lon="6.75567">
        <ele>2170.8</ele>
        <time>2026-03-03T08:41:24.999Z</time>
      </trkpt>
      <trkpt lat="44.83547" lon="6.75567">
        <ele>2170.9</ele>
        <time>2026-03-03T08:41:25.999Z</time>
      </trkpt>
      <trkpt lat="44.83548" lon="6.75567">
        <ele>2171.1</ele>
        <time>2026-03-03T08:41:26.999Z</time>
      </trkpt>
      <trkpt lat="44.83549" lon="6.75567">
        <ele>2171.2</ele>
        <time>2026-03-03T08:41:27.999Z</time>
      </trkpt>
      <trkpt lat="44.8355" lon="6.75567">
        <ele>2171.4</ele>
        <time>2026-03-03T08:41:28.999Z</time>
      </trkpt>
      <trkpt lat="44.8355" lon="6.75567">
        <ele>2171.4</ele>
        <time>2026-03-03T08:41:29.999Z</time>
      </trkpt>
      <trkpt lat="44.83551" lon="6.75567">
        <ele>2171.2</ele>
        <time>2026-03-03T08:41:30.999Z</time>
      </trkpt>
      <trkpt lat="44.83552" lon="6.75567">
        <ele>2171.2</ele>
        <time>2026-03-03T08:41:31.999Z</time>
      </trkpt>
      <trkpt lat="44.83552" lon="6.75567">
        <ele>2171.4</ele>
        <time>2026-03-03T08:41:33.000Z</time>
      </trkpt>
      <trkpt lat="44.83553" lon="6.75567">
        <ele>2171.4</ele>
        <time>2026-03-03T08:41:34.000Z</time>
      </trkpt>
      <trkpt lat="44.83553" lon="6.75567">
        <ele>2171.9</ele>
        <time>2026-03-03T08:41:35.000Z</time>
      </trkpt>
      <trkpt lat="44.83553" lon="6.75567">
        <ele>2172.2</ele>
        <time>2026-03-03T08:41:36.000Z</time>
      </trkpt>
      <trkpt lat="44.83554" lon="6.75567">
        <ele>2172.5</ele>
        <time>2026-03-03T08:41:37.000Z</time>
      </trkpt>
      <trkpt lat="44.83554" lon="6.75567">
        <ele>2172.4</ele>
        <time>2026-03-03T08:41:38.000Z</time>
      </trkpt>
      <trkpt lat="44.83554" lon="6.75567">
        <ele>2172.6</ele>
        <time>2026-03-03T08:41:39.000Z</time>
      </trkpt>
      <trkpt lat="44.83555" lon="6.75567">
        <ele>2172.9</ele>
        <time>2026-03-03T08:41:40.000Z</time>
      </trkpt>
      <trkpt lat="44.83555" lon="6.75567">
        <ele>2173</ele>
        <time>2026-03-03T08:41:41.000Z</time>
      </trkpt>
      <trkpt lat="44.83556" lon="6.75567">
        <ele>2172.9</ele>
        <time>2026-03-03T08:41:42.000Z</time>
      </trkpt>
      <trkpt lat="44.83556" lon="6.75567">
        <ele>2172.6</ele>
        <time>2026-03-03T08:41:43.000Z</time>
      </trkpt>
      <trkpt lat="44.83557" lon="6.75567">
        <ele>2172.7</ele>
        <time>2026-03-03T08:41:44.000Z</time>
      </trkpt>
      <trkpt lat="44.83558" lon="6.75567">
        <ele>2172.8</ele>
        <time>2026-03-03T08:41:45.000Z</time>
      </trkpt>
      <trkpt lat="44.83558" lon="6.75567">
        <ele>2172.9</ele>
        <time>2026-03-03T08:41:46.000Z</time>
      </trkpt>
      <trkpt lat="44.83558" lon="6.75568">
        <ele>2172.6</ele>
        <time>2026-03-03T08:41:47.000Z</time>
      </trkpt>
      <trkpt lat="44.83559" lon="6.75568">
        <ele>2172.5</ele>
        <time>2026-03-03T08:41:48.000Z</time>
      </trkpt>
      <trkpt lat="44.83561" lon="6.75572">
        <ele>2175.6</ele>
        <time>2026-03-03T08:42:03.000Z</time>
      </trkpt>
      <trkpt lat="44.8356" lon="6.75574">
        <ele>2175.7</ele>
        <time>2026-03-03T08:42:04.000Z</time>
      </trkpt>
      <trkpt lat="44.8356" lon="6.75574">
        <ele>2175.8</ele>
        <time>2026-03-03T08:42:05.000Z</time>
      </trkpt>
      <trkpt lat="44.8356" lon="6.75575">
        <ele>2175.7</ele>
        <time>2026-03-03T08:42:06.000Z</time>
      </trkpt>
      <trkpt lat="44.8356" lon="6.75575">
        <ele>2175.9</ele>
        <time>2026-03-03T08:42:07.000Z</time>
      </trkpt>
      <trkpt lat="44.8356" lon="6.75576">
        <ele>2175.9</ele>
        <time>2026-03-03T08:42:08.000Z</time>
      </trkpt>
      <trkpt lat="44.8356" lon="6.75576">
        <ele>2176</ele>
        <time>2026-03-03T08:42:09.000Z</time>
      </trkpt>
      <trkpt lat="44.8356" lon="6.75577">
        <ele>2176</ele>
        <time>2026-03-03T08:42:10.000Z</time>
      </trkpt>
      <trkpt lat="44.8356" lon="6.75577">
        <ele>2176.1</ele>
        <time>2026-03-03T08:42:11.000Z</time>
      </trkpt>
      <trkpt lat="44.8356" lon="6.75578">
        <ele>2176.2</ele>
        <time>2026-03-03T08:42:12.000Z</time>
      </trkpt>
      <trkpt lat="44.8356" lon="6.75579">
        <ele>2176.2</ele>
        <time>2026-03-03T08:42:13.000Z</time>
      </trkpt>
      <trkpt lat="44.83559" lon="6.7558">
        <ele>2176</ele>
        <time>2026-03-03T08:42:14.000Z</time>
      </trkpt>
      <trkpt lat="44.83559" lon="6.7558">
        <ele>2175.8</ele>
        <time>2026-03-03T08:42:15.000Z</time>
      </trkpt>
      <trkpt lat="44.83559" lon="6.75581">
        <ele>2175.7</ele>
        <time>2026-03-03T08:42:16.000Z</time>
      </trkpt>
      <trkpt lat="44.83558" lon="6.75582">
        <ele>2175.7</ele>
        <time>2026-03-03T08:42:17.000Z</time>
      </trkpt>
      <trkpt lat="44.83558" lon="6.75583">
        <ele>2175.8</ele>
        <time>2026-03-03T08:42:18.000Z</time>
      </trkpt>
      <trkpt lat="44.83558" lon="6.75584">
        <ele>2175.7</ele>
        <time>2026-03-03T08:42:19.000Z</time>
      </trkpt>
      <trkpt lat="44.83557" lon="6.75585">
        <ele>2175.7</ele>
        <time>2026-03-03T08:42:20.000Z</time>
      </trkpt>
      <trkpt lat="44.83557" lon="6.75585">
        <ele>2176</ele>
        <time>2026-03-03T08:42:21.000Z</time>
      </trkpt>
      <trkpt lat="44.83556" lon="6.75587">
        <ele>2175.8</ele>
        <time>2026-03-03T08:42:22.000Z</time>
      </trkpt>
      <trkpt lat="44.83556" lon="6.75588">
        <ele>2175.8</ele>
        <time>2026-03-03T08:42:23.000Z</time>
      </trkpt>
      <trkpt lat="44.83556" lon="6.75588">
        <ele>2175.9</ele>
        <time>2026-03-03T08:42:24.000Z</time>
      </trkpt>
      <trkpt lat="44.83555" lon="6.7559">
        <ele>2176.1</ele>
        <time>2026-03-03T08:42:25.000Z</time>
      </trkpt>
      <trkpt lat="44.83555" lon="6.75591">
        <ele>2176.5</ele>
        <time>2026-03-03T08:42:26.000Z</time>
      </trkpt>
      <trkpt lat="44.83555" lon="6.75591">
        <ele>2176.7</ele>
        <time>2026-03-03T08:42:27.000Z</time>
      </trkpt>
      <trkpt lat="44.83555" lon="6.75592">
        <ele>2176.9</ele>
        <time>2026-03-03T08:42:28.000Z</time>
      </trkpt>
      <trkpt lat="44.83555" lon="6.75593">
        <ele>2177.3</ele>
        <time>2026-03-03T08:42:29.000Z</time>
      </trkpt>
      <trkpt lat="44.83555" lon="6.75594">
        <ele>2177.4</ele>
        <time>2026-03-03T08:42:30.000Z</time>
      </trkpt>
      <trkpt lat="44.83555" lon="6.75594">
        <ele>2177.3</ele>
        <time>2026-03-03T08:42:31.000Z</time>
      </trkpt>
      <trkpt lat="44.83555" lon="6.75594">
        <ele>2177.6</ele>
        <time>2026-03-03T08:42:32.000Z</time>
      </trkpt>
      <trkpt lat="44.83556" lon="6.75595">
        <ele>2178</ele>
        <time>2026-03-03T08:42:33.000Z</time>
      </trkpt>
      <trkpt lat="44.83556" lon="6.75595">
        <ele>2178.2</ele>
        <time>2026-03-03T08:42:34.000Z</time>
      </trkpt>
      <trkpt lat="44.83556" lon="6.75595">
        <ele>2178.4</ele>
        <time>2026-03-03T08:42:35.000Z</time>
      </trkpt>
      <trkpt lat="44.83557" lon="6.75595">
        <ele>2178.7</ele>
        <time>2026-03-03T08:42:36.000Z</time>
      </trkpt>
      <trkpt lat="44.83558" lon="6.75595">
        <ele>2179</ele>
        <time>2026-03-03T08:42:37.000Z</time>
      </trkpt>
      <trkpt lat="44.83558" lon="6.75596">
        <ele>2179.4</ele>
        <time>2026-03-03T08:42:38.000Z</time>
      </trkpt>
      <trkpt lat="44.83559" lon="6.75596">
        <ele>2179.6</ele>
        <time>2026-03-03T08:42:39.000Z</time>
      </trkpt>
      <trkpt lat="44.83559" lon="6.75595">
        <ele>2180.1</ele>
        <time>2026-03-03T08:42:40.000Z</time>
      </trkpt>
      <trkpt lat="44.8356" lon="6.75595">
        <ele>2180.5</ele>
        <time>2026-03-03T08:42:41.000Z</time>
      </trkpt>
      <trkpt lat="44.8356" lon="6.75596">
        <ele>2180.8</ele>
        <time>2026-03-03T08:42:42.000Z</time>
      </trkpt>
      <trkpt lat="44.83561" lon="6.75596">
        <ele>2181</ele>
        <time>2026-03-03T08:42:43.000Z</time>
      </trkpt>
      <trkpt lat="44.83561" lon="6.75596">
        <ele>2181.3</ele>
        <time>2026-03-03T08:42:44.000Z</time>
      </trkpt>
      <trkpt lat="44.83562" lon="6.75596">
        <ele>2181.7</ele>
        <time>2026-03-03T08:42:45.000Z</time>
      </trkpt>
      <trkpt lat="44.83563" lon="6.75596">
        <ele>2182</ele>
        <time>2026-03-03T08:42:46.000Z</time>
      </trkpt>
      <trkpt lat="44.83563" lon="6.75596">
        <ele>2182.4</ele>
        <time>2026-03-03T08:42:47.000Z</time>
      </trkpt>
      <trkpt lat="44.83564" lon="6.75595">
        <ele>2182.8</ele>
        <time>2026-03-03T08:42:48.000Z</time>
      </trkpt>
      <trkpt lat="44.83564" lon="6.75595">
        <ele>2183.4</ele>
        <time>2026-03-03T08:42:49.000Z</time>
      </trkpt>
      <trkpt lat="44.83564" lon="6.75595">
        <ele>2183.7</ele>
        <time>2026-03-03T08:42:50.000Z</time>
      </trkpt>
      <trkpt lat="44.83565" lon="6.75595">
        <ele>2183.8</ele>
        <time>2026-03-03T08:42:51.000Z</time>
      </trkpt>
      <trkpt lat="44.83565" lon="6.75595">
        <ele>2183.9</ele>
        <time>2026-03-03T08:42:52.000Z</time>
      </trkpt>
      <trkpt lat="44.83565" lon="6.75595">
        <ele>2184</ele>
        <time>2026-03-03T08:42:53.000Z</time>
      </trkpt>
      <trkpt lat="44.83565" lon="6.75595">
        <ele>2184</ele>
        <time>2026-03-03T08:42:54.000Z</time>
      </trkpt>
      <trkpt lat="44.83565" lon="6.75596">
        <ele>2184.1</ele>
        <time>2026-03-03T08:42:55.000Z</time>
      </trkpt>
      <trkpt lat="44.83565" lon="6.75595">
        <ele>2184.4</ele>
        <time>2026-03-03T08:42:56.000Z</time>
      </trkpt>
      <trkpt lat="44.83566" lon="6.75595">
        <ele>2184.6</ele>
        <time>2026-03-03T08:42:57.000Z</time>
      </trkpt>
      <trkpt lat="44.83566" lon="6.75595">
        <ele>2184.7</ele>
        <time>2026-03-03T08:42:58.000Z</time>
      </trkpt>
      <trkpt lat="44.83566" lon="6.75595">
        <ele>2184.9</ele>
        <time>2026-03-03T08:42:59.000Z</time>
      </trkpt>
      <trkpt lat="44.83567" lon="6.75595">
        <ele>2185.1</ele>
        <time>2026-03-03T08:43:00.000Z</time>
      </trkpt>
      <trkpt lat="44.83568" lon="6.75594">
        <ele>2185.3</ele>
        <time>2026-03-03T08:43:01.000Z</time>
      </trkpt>
      <trkpt lat="44.83569" lon="6.75593">
        <ele>2185.5</ele>
        <time>2026-03-03T08:43:02.000Z</time>
      </trkpt>
      <trkpt lat="44.8357" lon="6.75593">
        <ele>2185.5</ele>
        <time>2026-03-03T08:43:03.000Z</time>
      </trkpt>
      <trkpt lat="44.83571" lon="6.75592">
        <ele>2185.4</ele>
        <time>2026-03-03T08:43:04.000Z</time>
      </trkpt>
      <trkpt lat="44.83571" lon="6.75592">
        <ele>2185.4</ele>
        <time>2026-03-03T08:43:05.000Z</time>
      </trkpt>
      <trkpt lat="44.83571" lon="6.75592">
        <ele>2185.4</ele>
        <time>2026-03-03T08:43:06.000Z</time>
      </trkpt>
      <trkpt lat="44.83572" lon="6.75591">
        <ele>2185.5</ele>
        <time>2026-03-03T08:43:07.000Z</time>
      </trkpt>
      <trkpt lat="44.83573" lon="6.75591">
        <ele>2185.6</ele>
        <time>2026-03-03T08:43:08.000Z</time>
      </trkpt>
      <trkpt lat="44.83573" lon="6.7559">
        <ele>2185.6</ele>
        <time>2026-03-03T08:43:09.000Z</time>
      </trkpt>
      <trkpt lat="44.83574" lon="6.75588">
        <ele>2185.5</ele>
        <time>2026-03-03T08:43:10.000Z</time>
      </trkpt>
      <trkpt lat="44.83574" lon="6.75588">
        <ele>2185.5</ele>
        <time>2026-03-03T08:43:11.000Z</time>
      </trkpt>
      <trkpt lat="44.83574" lon="6.75587">
        <ele>2185.6</ele>
        <time>2026-03-03T08:43:12.000Z</time>
      </trkpt>
      <trkpt lat="44.83575" lon="6.75586">
        <ele>2185.6</ele>
        <time>2026-03-03T08:43:13.000Z</time>
      </trkpt>
      <trkpt lat="44.83575" lon="6.75586">
        <ele>2185.6</ele>
        <time>2026-03-03T08:43:14.000Z</time>
      </trkpt>
      <trkpt lat="44.83576" lon="6.75584">
        <ele>2185.5</ele>
        <time>2026-03-03T08:43:15.000Z</time>
      </trkpt>
      <trkpt lat="44.83576" lon="6.75584">
        <ele>2185.6</ele>
        <time>2026-03-03T08:43:16.000Z</time>
      </trkpt>
      <trkpt lat="44.83577" lon="6.75583">
        <ele>2185.7</ele>
        <time>2026-03-03T08:43:17.000Z</time>
      </trkpt>
      <trkpt lat="44.83577" lon="6.75582">
        <ele>2185.7</ele>
        <time>2026-03-03T08:43:18.000Z</time>
      </trkpt>
      <trkpt lat="44.83577" lon="6.75582">
        <ele>2185.8</ele>
        <time>2026-03-03T08:43:19.000Z</time>
      </trkpt>
      <trkpt lat="44.8358" lon="6.75578">
        <ele>2186.6</ele>
        <time>2026-03-03T08:43:33.000Z</time>
      </trkpt>
      <trkpt lat="44.8358" lon="6.75578">
        <ele>2186.9</ele>
        <time>2026-03-03T08:43:34.000Z</time>
      </trkpt>
      <trkpt lat="44.8358" lon="6.75578">
        <ele>2187</ele>
        <time>2026-03-03T08:43:35.000Z</time>
      </trkpt>
      <trkpt lat="44.83581" lon="6.75578">
        <ele>2187.1</ele>
        <time>2026-03-03T08:43:36.000Z</time>
      </trkpt>
      <trkpt lat="44.83581" lon="6.75577">
        <ele>2187.3</ele>
        <time>2026-03-03T08:43:37.000Z</time>
      </trkpt>
      <trkpt lat="44.83582" lon="6.75577">
        <ele>2187.6</ele>
        <time>2026-03-03T08:43:38.000Z</time>
      </trkpt>
      <trkpt lat="44.83582" lon="6.75576">
        <ele>2187.7</ele>
        <time>2026-03-03T08:43:39.000Z</time>
      </trkpt>
      <trkpt lat="44.83582" lon="6.75575">
        <ele>2187.8</ele>
        <time>2026-03-03T08:43:40.000Z</time>
      </trkpt>
      <trkpt lat="44.83583" lon="6.75575">
        <ele>2187.8</ele>
        <time>2026-03-03T08:43:41.000Z</time>
      </trkpt>
      <trkpt lat="44.83583" lon="6.75574">
        <ele>2188</ele>
        <time>2026-03-03T08:43:42.000Z</time>
      </trkpt>
      <trkpt lat="44.83583" lon="6.75573">
        <ele>2188</ele>
        <time>2026-03-03T08:43:43.000Z</time>
      </trkpt>
      <trkpt lat="44.83585" lon="6.75572">
        <ele>2188.3</ele>
        <time>2026-03-03T08:43:44.000Z</time>
      </trkpt>
      <trkpt lat="44.83586" lon="6.7557">
        <ele>2188.3</ele>
        <time>2026-03-03T08:43:45.000Z</time>
      </trkpt>
      <trkpt lat="44.83587" lon="6.75569">
        <ele>2188.4</ele>
        <time>2026-03-03T08:43:46.000Z</time>
      </trkpt>
      <trkpt lat="44.83587" lon="6.75567">
        <ele>2188.4</ele>
        <time>2026-03-03T08:43:47.000Z</time>
      </trkpt>
      <trkpt lat="44.83588" lon="6.75566">
        <ele>2188.3</ele>
        <time>2026-03-03T08:43:48.000Z</time>
      </trkpt>
      <trkpt lat="44.83589" lon="6.75564">
        <ele>2188.3</ele>
        <time>2026-03-03T08:43:49.000Z</time>
      </trkpt>
      <trkpt lat="44.8359" lon="6.75563">
        <ele>2188.5</ele>
        <time>2026-03-03T08:43:50.000Z</time>
      </trkpt>
      <trkpt lat="44.83591" lon="6.75562">
        <ele>2188.8</ele>
        <time>2026-03-03T08:43:51.000Z</time>
      </trkpt>
      <trkpt lat="44.83591" lon="6.75562">
        <ele>2189.1</ele>
        <time>2026-03-03T08:43:52.000Z</time>
      </trkpt>
      <trkpt lat="44.83591" lon="6.75561">
        <ele>2189.1</ele>
        <time>2026-03-03T08:43:53.000Z</time>
      </trkpt>
      <trkpt lat="44.83591" lon="6.7556">
        <ele>2189</ele>
        <time>2026-03-03T08:43:54.000Z</time>
      </trkpt>
      <trkpt lat="44.83592" lon="6.7556">
        <ele>2189.1</ele>
        <time>2026-03-03T08:43:55.000Z</time>
      </trkpt>
      <trkpt lat="44.83592" lon="6.7556">
        <ele>2189.2</ele>
        <time>2026-03-03T08:43:56.000Z</time>
      </trkpt>
      <trkpt lat="44.83592" lon="6.75559">
        <ele>2189.5</ele>
        <time>2026-03-03T08:43:57.000Z</time>
      </trkpt>
      <trkpt lat="44.83592" lon="6.75559">
        <ele>2189.7</ele>
        <time>2026-03-03T08:43:58.000Z</time>
      </trkpt>
      <trkpt lat="44.83592" lon="6.75558">
        <ele>2189.8</ele>
        <time>2026-03-03T08:43:59.000Z</time>
      </trkpt>
      <trkpt lat="44.83593" lon="6.75558">
        <ele>2189.5</ele>
        <time>2026-03-03T08:44:00.000Z</time>
      </trkpt>
      <trkpt lat="44.83593" lon="6.75558">
        <ele>2189.7</ele>
        <time>2026-03-03T08:44:01.000Z</time>
      </trkpt>
      <trkpt lat="44.83593" lon="6.75557">
        <ele>2189.9</ele>
        <time>2026-03-03T08:44:02.000Z</time>
      </trkpt>
      <trkpt lat="44.83593" lon="6.75557">
        <ele>2190.3</ele>
        <time>2026-03-03T08:44:03.000Z</time>
      </trkpt>
      <trkpt lat="44.83594" lon="6.75557">
        <ele>2190.4</ele>
        <time>2026-03-03T08:44:04.000Z</time>
      </trkpt>
      <trkpt lat="44.83594" lon="6.75556">
        <ele>2190.3</ele>
        <time>2026-03-03T08:44:05.000Z</time>
      </trkpt>
      <trkpt lat="44.83594" lon="6.75556">
        <ele>2190.3</ele>
        <time>2026-03-03T08:44:06.000Z</time>
      </trkpt>
      <trkpt lat="44.83594" lon="6.75556">
        <ele>2190.5</ele>
        <time>2026-03-03T08:44:07.000Z</time>
      </trkpt>
      <trkpt lat="44.83594" lon="6.75555">
        <ele>2190.6</ele>
        <time>2026-03-03T08:44:08.000Z</time>
      </trkpt>
      <trkpt lat="44.83594" lon="6.75555">
        <ele>2191</ele>
        <time>2026-03-03T08:44:09.000Z</time>
      </trkpt>
      <trkpt lat="44.83595" lon="6.75554">
        <ele>2191.5</ele>
        <time>2026-03-03T08:44:10.000Z</time>
      </trkpt>
      <trkpt lat="44.83595" lon="6.75554">
        <ele>2191.7</ele>
        <time>2026-03-03T08:44:11.000Z</time>
      </trkpt>
      <trkpt lat="44.83595" lon="6.75553">
        <ele>2191.9</ele>
        <time>2026-03-03T08:44:12.000Z</time>
      </trkpt>
      <trkpt lat="44.83596" lon="6.75553">
        <ele>2192.1</ele>
        <time>2026-03-03T08:44:13.000Z</time>
      </trkpt>
      <trkpt lat="44.83596" lon="6.75552">
        <ele>2192.2</ele>
        <time>2026-03-03T08:44:14.000Z</time>
      </trkpt>
      <trkpt lat="44.83596" lon="6.75552">
        <ele>2192.1</ele>
        <time>2026-03-03T08:44:15.000Z</time>
      </trkpt>
      <trkpt lat="44.83596" lon="6.75551">
        <ele>2192.2</ele>
        <time>2026-03-03T08:44:16.000Z</time>
      </trkpt>
      <trkpt lat="44.83597" lon="6.75551">
        <ele>2192.2</ele>
        <time>2026-03-03T08:44:17.000Z</time>
      </trkpt>
      <trkpt lat="44.83597" lon="6.7555">
        <ele>2192.5</ele>
        <time>2026-03-03T08:44:18.000Z</time>
      </trkpt>
      <trkpt lat="44.83597" lon="6.7555">
        <ele>2192.8</ele>
        <time>2026-03-03T08:44:19.000Z</time>
      </trkpt>
      <trkpt lat="44.83598" lon="6.7555">
        <ele>2192.9</ele>
        <time>2026-03-03T08:44:20.000Z</time>
      </trkpt>
      <trkpt lat="44.83598" lon="6.7555">
        <ele>2193</ele>
        <time>2026-03-03T08:44:21.000Z</time>
      </trkpt>
      <trkpt lat="44.83598" lon="6.75549">
        <ele>2193.2</ele>
        <time>2026-03-03T08:44:22.000Z</time>
      </trkpt>
      <trkpt lat="44.83599" lon="6.75548">
        <ele>2193.3</ele>
        <time>2026-03-03T08:44:23.000Z</time>
      </trkpt>
      <trkpt lat="44.836" lon="6.75546">
        <ele>2193.3</ele>
        <time>2026-03-03T08:44:24.000Z</time>
      </trkpt>
      <trkpt lat="44.83601" lon="6.75545">
        <ele>2193.3</ele>
        <time>2026-03-03T08:44:25.000Z</time>
      </trkpt>
      <trkpt lat="44.83602" lon="6.75544">
        <ele>2193.4</ele>
        <time>2026-03-03T08:44:26.000Z</time>
      </trkpt>
      <trkpt lat="44.83603" lon="6.75542">
        <ele>2193.3</ele>
        <time>2026-03-03T08:44:27.000Z</time>
      </trkpt>
      <trkpt lat="44.83604" lon="6.75541">
        <ele>2193.4</ele>
        <time>2026-03-03T08:44:28.000Z</time>
      </trkpt>
      <trkpt lat="44.83605" lon="6.7554">
        <ele>2193.5</ele>
        <time>2026-03-03T08:44:29.000Z</time>
      </trkpt>
      <trkpt lat="44.83606" lon="6.75539">
        <ele>2193.7</ele>
        <time>2026-03-03T08:44:30.000Z</time>
      </trkpt>
      <trkpt lat="44.83607" lon="6.75538">
        <ele>2194</ele>
        <time>2026-03-03T08:44:31.000Z</time>
      </trkpt>
      <trkpt lat="44.83608" lon="6.75537">
        <ele>2194.3</ele>
        <time>2026-03-03T08:44:32.000Z</time>
      </trkpt>
      <trkpt lat="44.83608" lon="6.75537">
        <ele>2194.4</ele>
        <time>2026-03-03T08:44:33.000Z</time>
      </trkpt>
      <trkpt lat="44.83609" lon="6.75537">
        <ele>2194.6</ele>
        <time>2026-03-03T08:44:34.000Z</time>
      </trkpt>
      <trkpt lat="44.8361" lon="6.75537">
        <ele>2194.7</ele>
        <time>2026-03-03T08:44:35.000Z</time>
      </trkpt>
      <trkpt lat="44.8361" lon="6.75537">
        <ele>2194.7</ele>
        <time>2026-03-03T08:44:36.000Z</time>
      </trkpt>
      <trkpt lat="44.83611" lon="6.75537">
        <ele>2194.5</ele>
        <time>2026-03-03T08:44:37.000Z</time>
      </trkpt>
      <trkpt lat="44.83611" lon="6.75537">
        <ele>2194.3</ele>
        <time>2026-03-03T08:44:38.000Z</time>
      </trkpt>
      <trkpt lat="44.83612" lon="6.75537">
        <ele>2194.2</ele>
        <time>2026-03-03T08:44:39.000Z</time>
      </trkpt>
      <trkpt lat="44.83612" lon="6.75536">
        <ele>2194.3</ele>
        <time>2026-03-03T08:44:40.000Z</time>
      </trkpt>
      <trkpt lat="44.83613" lon="6.75536">
        <ele>2194.5</ele>
        <time>2026-03-03T08:44:41.000Z</time>
      </trkpt>
      <trkpt lat="44.83614" lon="6.75536">
        <ele>2194.7</ele>
        <time>2026-03-03T08:44:42.000Z</time>
      </trkpt>
      <trkpt lat="44.83615" lon="6.75535">
        <ele>2195.2</ele>
        <time>2026-03-03T08:44:43.000Z</time>
      </trkpt>
      <trkpt lat="44.83616" lon="6.75535">
        <ele>2195.4</ele>
        <time>2026-03-03T08:44:44.000Z</time>
      </trkpt>
      <trkpt lat="44.83616" lon="6.75534">
        <ele>2195.6</ele>
        <time>2026-03-03T08:44:45.000Z</time>
      </trkpt>
      <trkpt lat="44.83617" lon="6.75534">
        <ele>2196</ele>
        <time>2026-03-03T08:44:46.000Z</time>
      </trkpt>
      <trkpt lat="44.83617" lon="6.75535">
        <ele>2196.3</ele>
        <time>2026-03-03T08:44:47.000Z</time>
      </trkpt>
      <trkpt lat="44.83618" lon="6.75535">
        <ele>2196.5</ele>
        <time>2026-03-03T08:44:48.000Z</time>
      </trkpt>
      <trkpt lat="44.83618" lon="6.75534">
        <ele>2196.7</ele>
        <time>2026-03-03T08:44:49.000Z</time>
      </trkpt>
      <trkpt lat="44.83618" lon="6.75534">
        <ele>2196.5</ele>
        <time>2026-03-03T08:44:50.000Z</time>
      </trkpt>
      <trkpt lat="44.83619" lon="6.75534">
        <ele>2196.8</ele>
        <time>2026-03-03T08:44:51.000Z</time>
      </trkpt>
      <trkpt lat="44.83619" lon="6.75534">
        <ele>2196.9</ele>
        <time>2026-03-03T08:44:52.000Z</time>
      </trkpt>
      <trkpt lat="44.8362" lon="6.75534">
        <ele>2197</ele>
        <time>2026-03-03T08:44:53.000Z</time>
      </trkpt>
      <trkpt lat="44.83621" lon="6.75534">
        <ele>2197</ele>
        <time>2026-03-03T08:44:54.000Z</time>
      </trkpt>
      <trkpt lat="44.83621" lon="6.75534">
        <ele>2197.1</ele>
        <time>2026-03-03T08:44:55.000Z</time>
      </trkpt>
      <trkpt lat="44.83622" lon="6.75534">
        <ele>2197.1</ele>
        <time>2026-03-03T08:44:56.000Z</time>
      </trkpt>
      <trkpt lat="44.83623" lon="6.75534">
        <ele>2197.2</ele>
        <time>2026-03-03T08:44:57.000Z</time>
      </trkpt>
      <trkpt lat="44.83624" lon="6.75535">
        <ele>2197.2</ele>
        <time>2026-03-03T08:44:58.000Z</time>
      </trkpt>
      <trkpt lat="44.83625" lon="6.75535">
        <ele>2197.4</ele>
        <time>2026-03-03T08:44:59.000Z</time>
      </trkpt>
      <trkpt lat="44.83625" lon="6.75535">
        <ele>2197.5</ele>
        <time>2026-03-03T08:45:00.000Z</time>
      </trkpt>
      <trkpt lat="44.83626" lon="6.75535">
        <ele>2197.8</ele>
        <time>2026-03-03T08:45:01.000Z</time>
      </trkpt>
      <trkpt lat="44.83627" lon="6.75535">
        <ele>2198.4</ele>
        <time>2026-03-03T08:45:02.000Z</time>
      </trkpt>
      <trkpt lat="44.83628" lon="6.75535">
        <ele>2198.7</ele>
        <time>2026-03-03T08:45:03.000Z</time>
      </trkpt>
      <trkpt lat="44.83628" lon="6.75535">
        <ele>2199.1</ele>
        <time>2026-03-03T08:45:04.000Z</time>
      </trkpt>
      <trkpt lat="44.83629" lon="6.75535">
        <ele>2199.3</ele>
        <time>2026-03-03T08:45:05.000Z</time>
      </trkpt>
      <trkpt lat="44.83629" lon="6.75535">
        <ele>2199.5</ele>
        <time>2026-03-03T08:45:06.000Z</time>
      </trkpt>
      <trkpt lat="44.83629" lon="6.75535">
        <ele>2199.7</ele>
        <time>2026-03-03T08:45:07.000Z</time>
      </trkpt>
      <trkpt lat="44.83629" lon="6.75535">
        <ele>2199.8</ele>
        <time>2026-03-03T08:45:08.000Z</time>
      </trkpt>
      <trkpt lat="44.8363" lon="6.75535">
        <ele>2199.9</ele>
        <time>2026-03-03T08:45:09.000Z</time>
      </trkpt>
      <trkpt lat="44.8363" lon="6.75534">
        <ele>2199.9</ele>
        <time>2026-03-03T08:45:10.000Z</time>
      </trkpt>
      <trkpt lat="44.8363" lon="6.75534">
        <ele>2199.7</ele>
        <time>2026-03-03T08:45:11.000Z</time>
      </trkpt>
      <trkpt lat="44.83631" lon="6.75534">
        <ele>2199.6</ele>
        <time>2026-03-03T08:45:12.000Z</time>
      </trkpt>
      <trkpt lat="44.83632" lon="6.75534">
        <ele>2199.7</ele>
        <time>2026-03-03T08:45:13.000Z</time>
      </trkpt>
      <trkpt lat="44.83632" lon="6.75534">
        <ele>2199.9</ele>
        <time>2026-03-03T08:45:14.000Z</time>
      </trkpt>
      <trkpt lat="44.83633" lon="6.75534">
        <ele>2199.9</ele>
        <time>2026-03-03T08:45:15.000Z</time>
      </trkpt>
      <trkpt lat="44.83634" lon="6.75534">
        <ele>2200</ele>
        <time>2026-03-03T08:45:16.000Z</time>
      </trkpt>
      <trkpt lat="44.83634" lon="6.75535">
        <ele>2200.1</ele>
        <time>2026-03-03T08:45:17.000Z</time>
      </trkpt>
      <trkpt lat="44.83635" lon="6.75535">
        <ele>2200.3</ele>
        <time>2026-03-03T08:45:18.000Z</time>
      </trkpt>
      <trkpt lat="44.83635" lon="6.75535">
        <ele>2200.5</ele>
        <time>2026-03-03T08:45:19.000Z</time>
      </trkpt>
      <trkpt lat="44.83636" lon="6.75535">
        <ele>2200.7</ele>
        <time>2026-03-03T08:45:20.000Z</time>
      </trkpt>
      <trkpt lat="44.83636" lon="6.75535">
        <ele>2200.9</ele>
        <time>2026-03-03T08:45:21.000Z</time>
      </trkpt>
      <trkpt lat="44.83637" lon="6.75535">
        <ele>2201.2</ele>
        <time>2026-03-03T08:45:22.000Z</time>
      </trkpt>
      <trkpt lat="44.83638" lon="6.75535">
        <ele>2201.6</ele>
        <time>2026-03-03T08:45:23.000Z</time>
      </trkpt>
      <trkpt lat="44.83638" lon="6.75535">
        <ele>2202</ele>
        <time>2026-03-03T08:45:24.000Z</time>
      </trkpt>
      <trkpt lat="44.83639" lon="6.75535">
        <ele>2202.3</ele>
        <time>2026-03-03T08:45:25.000Z</time>
      </trkpt>
      <trkpt lat="44.83639" lon="6.75534">
        <ele>2202.4</ele>
        <time>2026-03-03T08:45:26.000Z</time>
      </trkpt>
      <trkpt lat="44.8364" lon="6.75534">
        <ele>2202.3</ele>
        <time>2026-03-03T08:45:27.000Z</time>
      </trkpt>
      <trkpt lat="44.83641" lon="6.75534">
        <ele>2202.2</ele>
        <time>2026-03-03T08:45:28.000Z</time>
      </trkpt>
      <trkpt lat="44.83641" lon="6.75534">
        <ele>2202.5</ele>
        <time>2026-03-03T08:45:29.000Z</time>
      </trkpt>
      <trkpt lat="44.83641" lon="6.75535">
        <ele>2202.9</ele>
        <time>2026-03-03T08:45:30.000Z</time>
      </trkpt>
      <trkpt lat="44.83641" lon="6.75535">
        <ele>2203.3</ele>
        <time>2026-03-03T08:45:31.000Z</time>
      </trkpt>
      <trkpt lat="44.83642" lon="6.75535">
        <ele>2203</ele>
        <time>2026-03-03T08:45:32.000Z</time>
      </trkpt>
      <trkpt lat="44.83642" lon="6.75535">
        <ele>2203</ele>
        <time>2026-03-03T08:45:33.000Z</time>
      </trkpt>
      <trkpt lat="44.83642" lon="6.75536">
        <ele>2203.1</ele>
        <time>2026-03-03T08:45:34.000Z</time>
      </trkpt>
      <trkpt lat="44.83642" lon="6.75536">
        <ele>2203.1</ele>
        <time>2026-03-03T08:45:35.000Z</time>
      </trkpt>
      <trkpt lat="44.83642" lon="6.75536">
        <ele>2203.3</ele>
        <time>2026-03-03T08:45:36.000Z</time>
      </trkpt>
      <trkpt lat="44.83642" lon="6.75536">
        <ele>2203.4</ele>
        <time>2026-03-03T08:45:37.000Z</time>
      </trkpt>
      <trkpt lat="44.83643" lon="6.75536">
        <ele>2203.5</ele>
        <time>2026-03-03T08:45:38.000Z</time>
      </trkpt>
      <trkpt lat="44.83643" lon="6.75536">
        <ele>2203.7</ele>
        <time>2026-03-03T08:45:39.000Z</time>
      </trkpt>
      <trkpt lat="44.83644" lon="6.75536">
        <ele>2204</ele>
        <time>2026-03-03T08:45:40.000Z</time>
      </trkpt>
      <trkpt lat="44.83644" lon="6.75536">
        <ele>2204.2</ele>
        <time>2026-03-03T08:45:41.000Z</time>
      </trkpt>
      <trkpt lat="44.83645" lon="6.75536">
        <ele>2204.3</ele>
        <time>2026-03-03T08:45:42.000Z</time>
      </trkpt>
      <trkpt lat="44.83646" lon="6.75536">
        <ele>2204.4</ele>
        <time>2026-03-03T08:45:43.000Z</time>
      </trkpt>
      <trkpt lat="44.83647" lon="6.75536">
        <ele>2204.6</ele>
        <time>2026-03-03T08:45:44.000Z</time>
      </trkpt>
      <trkpt lat="44.83647" lon="6.75536">
        <ele>2205</ele>
        <time>2026-03-03T08:45:45.000Z</time>
      </trkpt>
      <trkpt lat="44.83648" lon="6.75536">
        <ele>2205.2</ele>
        <time>2026-03-03T08:45:46.000Z</time>
      </trkpt>
      <trkpt lat="44.83649" lon="6.75536">
        <ele>2205.5</ele>
        <time>2026-03-03T08:45:47.000Z</time>
      </trkpt>
      <trkpt lat="44.8365" lon="6.75536">
        <ele>2205.8</ele>
        <time>2026-03-03T08:45:48.000Z</time>
      </trkpt>
      <trkpt lat="44.83651" lon="6.75536">
        <ele>2206.2</ele>
        <time>2026-03-03T08:45:49.000Z</time>
      </trkpt>
      <trkpt lat="44.83651" lon="6.75536">
        <ele>2206.3</ele>
        <time>2026-03-03T08:45:50.000Z</time>
      </trkpt>
      <trkpt lat="44.83651" lon="6.75536">
        <ele>2206.5</ele>
        <time>2026-03-03T08:45:51.000Z</time>
      </trkpt>
      <trkpt lat="44.83652" lon="6.75536">
        <ele>2206.6</ele>
        <time>2026-03-03T08:45:52.000Z</time>
      </trkpt>
      <trkpt lat="44.83656" lon="6.75535">
        <ele>2207.8</ele>
        <time>2026-03-03T08:46:06.000Z</time>
      </trkpt>
      <trkpt lat="44.83658" lon="6.75534">
        <ele>2208</ele>
        <time>2026-03-03T08:46:07.000Z</time>
      </trkpt>
      <trkpt lat="44.83659" lon="6.75534">
        <ele>2208.1</ele>
        <time>2026-03-03T08:46:08.000Z</time>
      </trkpt>
      <trkpt lat="44.8366" lon="6.75533">
        <ele>2208</ele>
        <time>2026-03-03T08:46:09.000Z</time>
      </trkpt>
      <trkpt lat="44.8366" lon="6.75533">
        <ele>2207.9</ele>
        <time>2026-03-03T08:46:10.000Z</time>
      </trkpt>
      <trkpt lat="44.83661" lon="6.75533">
        <ele>2207.9</ele>
        <time>2026-03-03T08:46:11.000Z</time>
      </trkpt>
      <trkpt lat="44.83661" lon="6.75532">
        <ele>2207.9</ele>
        <time>2026-03-03T08:46:12.000Z</time>
      </trkpt>
      <trkpt lat="44.83661" lon="6.75532">
        <ele>2208.2</ele>
        <time>2026-03-03T08:46:13.000Z</time>
      </trkpt>
      <trkpt lat="44.83662" lon="6.75532">
        <ele>2208.4</ele>
        <time>2026-03-03T08:46:14.000Z</time>
      </trkpt>
      <trkpt lat="44.83662" lon="6.75533">
        <ele>2208.6</ele>
        <time>2026-03-03T08:46:15.000Z</time>
      </trkpt>
      <trkpt lat="44.83662" lon="6.75533">
        <ele>2208.8</ele>
        <time>2026-03-03T08:46:16.000Z</time>
      </trkpt>
      <trkpt lat="44.83662" lon="6.75533">
        <ele>2208.8</ele>
        <time>2026-03-03T08:46:17.000Z</time>
      </trkpt>
      <trkpt lat="44.83662" lon="6.75533">
        <ele>2208.9</ele>
        <time>2026-03-03T08:46:18.000Z</time>
      </trkpt>
      <trkpt lat="44.83662" lon="6.75534">
        <ele>2209.1</ele>
        <time>2026-03-03T08:46:19.000Z</time>
      </trkpt>
      <trkpt lat="44.83663" lon="6.75535">
        <ele>2209.1</ele>
        <time>2026-03-03T08:46:20.000Z</time>
      </trkpt>
      <trkpt lat="44.83663" lon="6.75536">
        <ele>2209.3</ele>
        <time>2026-03-03T08:46:21.000Z</time>
      </trkpt>
      <trkpt lat="44.83663" lon="6.75538">
        <ele>2209.6</ele>
        <time>2026-03-03T08:46:22.000Z</time>
      </trkpt>
      <trkpt lat="44.83663" lon="6.75539">
        <ele>2209.9</ele>
        <time>2026-03-03T08:46:23.000Z</time>
      </trkpt>
      <trkpt lat="44.83663" lon="6.7554">
        <ele>2209.9</ele>
        <time>2026-03-03T08:46:24.000Z</time>
      </trkpt>
      <trkpt lat="44.83664" lon="6.75541">
        <ele>2210</ele>
        <time>2026-03-03T08:46:25.000Z</time>
      </trkpt>
      <trkpt lat="44.83664" lon="6.75542">
        <ele>2209.8</ele>
        <time>2026-03-03T08:46:26.000Z</time>
      </trkpt>
      <trkpt lat="44.83664" lon="6.75544">
        <ele>2209.5</ele>
        <time>2026-03-03T08:46:27.000Z</time>
      </trkpt>
      <trkpt lat="44.83664" lon="6.75545">
        <ele>2209.3</ele>
        <time>2026-03-03T08:46:28.000Z</time>
      </trkpt>
      <trkpt lat="44.83663" lon="6.75546">
        <ele>2209.3</ele>
        <time>2026-03-03T08:46:29.000Z</time>
      </trkpt>
      <trkpt lat="44.83664" lon="6.75546">
        <ele>2209.2</ele>
        <time>2026-03-03T08:46:30.000Z</time>
      </trkpt>
      <trkpt lat="44.83664" lon="6.75547">
        <ele>2209.3</ele>
        <time>2026-03-03T08:46:31.000Z</time>
      </trkpt>
      <trkpt lat="44.83663" lon="6.75548">
        <ele>2209.3</ele>
        <time>2026-03-03T08:46:32.000Z</time>
      </trkpt>
      <trkpt lat="44.83663" lon="6.75548">
        <ele>2209.4</ele>
        <time>2026-03-03T08:46:33.000Z</time>
      </trkpt>
      <trkpt lat="44.83663" lon="6.75548">
        <ele>2209.4</ele>
        <time>2026-03-03T08:46:34.000Z</time>
      </trkpt>
      <trkpt lat="44.83663" lon="6.75548">
        <ele>2209.4</ele>
        <time>2026-03-03T08:46:35.000Z</time>
      </trkpt>
      <trkpt lat="44.83663" lon="6.75549">
        <ele>2209.6</ele>
        <time>2026-03-03T08:46:36.000Z</time>
      </trkpt>
      <trkpt lat="44.83663" lon="6.75549">
        <ele>2209.6</ele>
        <time>2026-03-03T08:46:37.000Z</time>
      </trkpt>
      <trkpt lat="44.83663" lon="6.7555">
        <ele>2209.6</ele>
        <time>2026-03-03T08:46:38.000Z</time>
      </trkpt>
      <trkpt lat="44.83663" lon="6.7555">
        <ele>2209.7</ele>
        <time>2026-03-03T08:46:39.000Z</time>
      </trkpt>
      <trkpt lat="44.83663" lon="6.7555">
        <ele>2209.9</ele>
        <time>2026-03-03T08:46:40.000Z</time>
      </trkpt>
      <trkpt lat="44.83662" lon="6.75551">
        <ele>2210.2</ele>
        <time>2026-03-03T08:46:41.000Z</time>
      </trkpt>
      <trkpt lat="44.83662" lon="6.75551">
        <ele>2210.3</ele>
        <time>2026-03-03T08:46:42.000Z</time>
      </trkpt>
      <trkpt lat="44.83662" lon="6.75551">
        <ele>2210.4</ele>
        <time>2026-03-03T08:46:43.000Z</time>
      </trkpt>
      <trkpt lat="44.83662" lon="6.75552">
        <ele>2210.4</ele>
        <time>2026-03-03T08:46:44.000Z</time>
      </trkpt>
      <trkpt lat="44.83662" lon="6.75552">
        <ele>2210.8</ele>
        <time>2026-03-03T08:46:45.000Z</time>
      </trkpt>
      <trkpt lat="44.83662" lon="6.75553">
        <ele>2211.1</ele>
        <time>2026-03-03T08:46:46.000Z</time>
      </trkpt>
      <trkpt lat="44.83662" lon="6.75553">
        <ele>2211.3</ele>
        <time>2026-03-03T08:46:47.000Z</time>
      </trkpt>
      <trkpt lat="44.83662" lon="6.75554">
        <ele>2211.6</ele>
        <time>2026-03-03T08:46:48.000Z</time>
      </trkpt>
      <trkpt lat="44.83662" lon="6.75554">
        <ele>2211.7</ele>
        <time>2026-03-03T08:46:49.000Z</time>
      </trkpt>
      <trkpt lat="44.83662" lon="6.75555">
        <ele>2211.8</ele>
        <time>2026-03-03T08:46:50.000Z</time>
      </trkpt>
      <trkpt lat="44.83662" lon="6.75555">
        <ele>2211.9</ele>
        <time>2026-03-03T08:46:51.000Z</time>
      </trkpt>
      <trkpt lat="44.83662" lon="6.75555">
        <ele>2211.9</ele>
        <time>2026-03-03T08:46:52.000Z</time>
      </trkpt>
      <trkpt lat="44.83662" lon="6.75556">
        <ele>2212.1</ele>
        <time>2026-03-03T08:46:53.000Z</time>
      </trkpt>
      <trkpt lat="44.83662" lon="6.75556">
        <ele>2212.2</ele>
        <time>2026-03-03T08:46:54.000Z</time>
      </trkpt>
      <trkpt lat="44.83662" lon="6.75557">
        <ele>2212.4</ele>
        <time>2026-03-03T08:46:55.000Z</time>
      </trkpt>
      <trkpt lat="44.83662" lon="6.75557">
        <ele>2212.5</ele>
        <time>2026-03-03T08:46:56.000Z</time>
      </trkpt>
      <trkpt lat="44.83662" lon="6.75558">
        <ele>2212.8</ele>
        <time>2026-03-03T08:46:57.000Z</time>
      </trkpt>
      <trkpt lat="44.83662" lon="6.75558">
        <ele>2213</ele>
        <time>2026-03-03T08:46:58.000Z</time>
      </trkpt>
      <trkpt lat="44.83662" lon="6.75558">
        <ele>2213.2</ele>
        <time>2026-03-03T08:46:59.000Z</time>
      </trkpt>
      <trkpt lat="44.83662" lon="6.75559">
        <ele>2213.5</ele>
        <time>2026-03-03T08:47:00.000Z</time>
      </trkpt>
      <trkpt lat="44.83661" lon="6.75559">
        <ele>2213.6</ele>
        <time>2026-03-03T08:47:01.000Z</time>
      </trkpt>
      <trkpt lat="44.83661" lon="6.7556">
        <ele>2213.6</ele>
        <time>2026-03-03T08:47:02.000Z</time>
      </trkpt>
      <trkpt lat="44.83661" lon="6.7556">
        <ele>2213.7</ele>
        <time>2026-03-03T08:47:03.000Z</time>
      </trkpt>
      <trkpt lat="44.83661" lon="6.75561">
        <ele>2214</ele>
        <time>2026-03-03T08:47:04.000Z</time>
      </trkpt>
      <trkpt lat="44.83661" lon="6.75561">
        <ele>2214</ele>
        <time>2026-03-03T08:47:05.000Z</time>
      </trkpt>
      <trkpt lat="44.83661" lon="6.75562">
        <ele>2213.9</ele>
        <time>2026-03-03T08:47:06.000Z</time>
      </trkpt>
      <trkpt lat="44.8366" lon="6.75563">
        <ele>2213.7</ele>
        <time>2026-03-03T08:47:07.000Z</time>
      </trkpt>
      <trkpt lat="44.8366" lon="6.75563">
        <ele>2213.7</ele>
        <time>2026-03-03T08:47:08.000Z</time>
      </trkpt>
      <trkpt lat="44.8366" lon="6.75564">
        <ele>2213.7</ele>
        <time>2026-03-03T08:47:09.000Z</time>
      </trkpt>
      <trkpt lat="44.8366" lon="6.75565">
        <ele>2213.7</ele>
        <time>2026-03-03T08:47:10.000Z</time>
      </trkpt>
      <trkpt lat="44.8366" lon="6.75565">
        <ele>2213.8</ele>
        <time>2026-03-03T08:47:11.000Z</time>
      </trkpt>
      <trkpt lat="44.8366" lon="6.75566">
        <ele>2213.8</ele>
        <time>2026-03-03T08:47:12.000Z</time>
      </trkpt>
      <trkpt lat="44.8366" lon="6.75566">
        <ele>2213.8</ele>
        <time>2026-03-03T08:47:13.000Z</time>
      </trkpt>
      <trkpt lat="44.8366" lon="6.75566">
        <ele>2213.8</ele>
        <time>2026-03-03T08:47:14.000Z</time>
      </trkpt>
      <trkpt lat="44.83659" lon="6.75567">
        <ele>2214</ele>
        <time>2026-03-03T08:47:15.000Z</time>
      </trkpt>
      <trkpt lat="44.83659" lon="6.75567">
        <ele>2214.1</ele>
        <time>2026-03-03T08:47:16.000Z</time>
      </trkpt>
      <trkpt lat="44.83659" lon="6.75568">
        <ele>2214.4</ele>
        <time>2026-03-03T08:47:17.000Z</time>
      </trkpt>
      <trkpt lat="44.83659" lon="6.75568">
        <ele>2214.7</ele>
        <time>2026-03-03T08:47:18.000Z</time>
      </trkpt>
      <trkpt lat="44.83659" lon="6.75569">
        <ele>2214.8</ele>
        <time>2026-03-03T08:47:19.000Z</time>
      </trkpt>
      <trkpt lat="44.83659" lon="6.75569">
        <ele>2215</ele>
        <time>2026-03-03T08:47:20.000Z</time>
      </trkpt>
      <trkpt lat="44.83658" lon="6.7557">
        <ele>2215.2</ele>
        <time>2026-03-03T08:47:21.000Z</time>
      </trkpt>
      <trkpt lat="44.83658" lon="6.75571">
        <ele>2215.5</ele>
        <time>2026-03-03T08:47:22.000Z</time>
      </trkpt>
      <trkpt lat="44.83658" lon="6.75571">
        <ele>2215.6</ele>
        <time>2026-03-03T08:47:23.000Z</time>
      </trkpt>
      <trkpt lat="44.83658" lon="6.75572">
        <ele>2215.5</ele>
        <time>2026-03-03T08:47:24.000Z</time>
      </trkpt>
      <trkpt lat="44.83658" lon="6.75573">
        <ele>2215.6</ele>
        <time>2026-03-03T08:47:25.000Z</time>
      </trkpt>
      <trkpt lat="44.83658" lon="6.75574">
        <ele>2215.5</ele>
        <time>2026-03-03T08:47:26.000Z</time>
      </trkpt>
      <trkpt lat="44.83658" lon="6.75574">
        <ele>2215.5</ele>
        <time>2026-03-03T08:47:27.000Z</time>
      </trkpt>
      <trkpt lat="44.83657" lon="6.75576">
        <ele>2215.8</ele>
        <time>2026-03-03T08:47:28.000Z</time>
      </trkpt>
      <trkpt lat="44.83657" lon="6.75577">
        <ele>2216</ele>
        <time>2026-03-03T08:47:29.000Z</time>
      </trkpt>
      <trkpt lat="44.83657" lon="6.75578">
        <ele>2215.9</ele>
        <time>2026-03-03T08:47:30.000Z</time>
      </trkpt>
      <trkpt lat="44.83657" lon="6.75578">
        <ele>2215.8</ele>
        <time>2026-03-03T08:47:31.000Z</time>
      </trkpt>
      <trkpt lat="44.83656" lon="6.75579">
        <ele>2215.9</ele>
        <time>2026-03-03T08:47:32.000Z</time>
      </trkpt>
      <trkpt lat="44.83656" lon="6.7558">
        <ele>2215.8</ele>
        <time>2026-03-03T08:47:33.000Z</time>
      </trkpt>
      <trkpt lat="44.83656" lon="6.75581">
        <ele>2215.8</ele>
        <time>2026-03-03T08:47:34.000Z</time>
      </trkpt>
      <trkpt lat="44.83656" lon="6.75581">
        <ele>2215.7</ele>
        <time>2026-03-03T08:47:35.000Z</time>
      </trkpt>
      <trkpt lat="44.83655" lon="6.75582">
        <ele>2215.7</ele>
        <time>2026-03-03T08:47:36.000Z</time>
      </trkpt>
      <trkpt lat="44.83655" lon="6.75582">
        <ele>2215.8</ele>
        <time>2026-03-03T08:47:37.000Z</time>
      </trkpt>
      <trkpt lat="44.83655" lon="6.75583">
        <ele>2215.8</ele>
        <time>2026-03-03T08:47:38.000Z</time>
      </trkpt>
      <trkpt lat="44.83655" lon="6.75583">
        <ele>2215.7</ele>
        <time>2026-03-03T08:47:39.000Z</time>
      </trkpt>
      <trkpt lat="44.83655" lon="6.75584">
        <ele>2215.6</ele>
        <time>2026-03-03T08:47:40.000Z</time>
      </trkpt>
      <trkpt lat="44.83655" lon="6.75584">
        <ele>2215.6</ele>
        <time>2026-03-03T08:47:41.000Z</time>
      </trkpt>
      <trkpt lat="44.83655" lon="6.75585">
        <ele>2215.8</ele>
        <time>2026-03-03T08:47:42.000Z</time>
      </trkpt>
      <trkpt lat="44.83654" lon="6.75587">
        <ele>2216</ele>
        <time>2026-03-03T08:47:43.000Z</time>
      </trkpt>
      <trkpt lat="44.83653" lon="6.75589">
        <ele>2216.2</ele>
        <time>2026-03-03T08:47:44.000Z</time>
      </trkpt>
      <trkpt lat="44.83652" lon="6.75591">
        <ele>2216.4</ele>
        <time>2026-03-03T08:47:45.000Z</time>
      </trkpt>
      <trkpt lat="44.83652" lon="6.75592">
        <ele>2216.4</ele>
        <time>2026-03-03T08:47:46.000Z</time>
      </trkpt>
      <trkpt lat="44.83652" lon="6.75592">
        <ele>2216.5</ele>
        <time>2026-03-03T08:47:47.000Z</time>
      </trkpt>
      <trkpt lat="44.83652" lon="6.75593">
        <ele>2216.8</ele>
        <time>2026-03-03T08:47:48.000Z</time>
      </trkpt>
      <trkpt lat="44.83652" lon="6.75593">
        <ele>2216.9</ele>
        <time>2026-03-03T08:47:49.000Z</time>
      </trkpt>
      <trkpt lat="44.83651" lon="6.75594">
        <ele>2217.2</ele>
        <time>2026-03-03T08:47:50.000Z</time>
      </trkpt>
      <trkpt lat="44.83651" lon="6.75594">
        <ele>2217.4</ele>
        <time>2026-03-03T08:47:51.000Z</time>
      </trkpt>
      <trkpt lat="44.83651" lon="6.75595">
        <ele>2217.9</ele>
        <time>2026-03-03T08:47:52.000Z</time>
      </trkpt>
      <trkpt lat="44.83651" lon="6.75595">
        <ele>2218.2</ele>
        <time>2026-03-03T08:47:53.000Z</time>
      </trkpt>
      <trkpt lat="44.83651" lon="6.75596">
        <ele>2218.4</ele>
        <time>2026-03-03T08:47:54.000Z</time>
      </trkpt>
      <trkpt lat="44.83651" lon="6.75597">
        <ele>2218.6</ele>
        <time>2026-03-03T08:47:55.000Z</time>
      </trkpt>
      <trkpt lat="44.83651" lon="6.75598">
        <ele>2218.8</ele>
        <time>2026-03-03T08:47:56.000Z</time>
      </trkpt>
      <trkpt lat="44.8365" lon="6.75598">
        <ele>2218.9</ele>
        <time>2026-03-03T08:47:57.000Z</time>
      </trkpt>
      <trkpt lat="44.8365" lon="6.75599">
        <ele>2219</ele>
        <time>2026-03-03T08:47:58.000Z</time>
      </trkpt>
      <trkpt lat="44.8365" lon="6.75599">
        <ele>2219.3</ele>
        <time>2026-03-03T08:47:59.000Z</time>
      </trkpt>
      <trkpt lat="44.8365" lon="6.756">
        <ele>2219.6</ele>
        <time>2026-03-03T08:48:00.000Z</time>
      </trkpt>
      <trkpt lat="44.8365" lon="6.756">
        <ele>2220</ele>
        <time>2026-03-03T08:48:01.000Z</time>
      </trkpt>
      <trkpt lat="44.8365" lon="6.75601">
        <ele>2220.3</ele>
        <time>2026-03-03T08:48:02.000Z</time>
      </trkpt>
      <trkpt lat="44.8365" lon="6.75601">
        <ele>2220.4</ele>
        <time>2026-03-03T08:48:03.000Z</time>
      </trkpt>
      <trkpt lat="44.8365" lon="6.75602">
        <ele>2220.6</ele>
        <time>2026-03-03T08:48:04.000Z</time>
      </trkpt>
      <trkpt lat="44.8365" lon="6.75603">
        <ele>2220.7</ele>
        <time>2026-03-03T08:48:05.000Z</time>
      </trkpt>
      <trkpt lat="44.8365" lon="6.75605">
        <ele>2220.7</ele>
        <time>2026-03-03T08:48:06.000Z</time>
      </trkpt>
      <trkpt lat="44.8365" lon="6.75607">
        <ele>2221.2</ele>
        <time>2026-03-03T08:48:07.000Z</time>
      </trkpt>
      <trkpt lat="44.83651" lon="6.75608">
        <ele>2221.7</ele>
        <time>2026-03-03T08:48:08.000Z</time>
      </trkpt>
      <trkpt lat="44.83652" lon="6.75609">
        <ele>2222.2</ele>
        <time>2026-03-03T08:48:09.000Z</time>
      </trkpt>
      <trkpt lat="44.83652" lon="6.75609">
        <ele>2222.6</ele>
        <time>2026-03-03T08:48:10.000Z</time>
      </trkpt>
      <trkpt lat="44.83653" lon="6.75609">
        <ele>2223.4</ele>
        <time>2026-03-03T08:48:11.000Z</time>
      </trkpt>
      <trkpt lat="44.83653" lon="6.7561">
        <ele>2224.1</ele>
        <time>2026-03-03T08:48:12.000Z</time>
      </trkpt>
      <trkpt lat="44.83654" lon="6.7561">
        <ele>2224.5</ele>
        <time>2026-03-03T08:48:13.000Z</time>
      </trkpt>
      <trkpt lat="44.83655" lon="6.75611">
        <ele>2225</ele>
        <time>2026-03-03T08:48:14.000Z</time>
      </trkpt>
      <trkpt lat="44.83656" lon="6.75611">
        <ele>2225.4</ele>
        <time>2026-03-03T08:48:15.000Z</time>
      </trkpt>
      <trkpt lat="44.83656" lon="6.75611">
        <ele>2225.8</ele>
        <time>2026-03-03T08:48:16.000Z</time>
      </trkpt>
      <trkpt lat="44.83657" lon="6.75611">
        <ele>2226.2</ele>
        <time>2026-03-03T08:48:17.000Z</time>
      </trkpt>
      <trkpt lat="44.83657" lon="6.75611">
        <ele>2226.6</ele>
        <time>2026-03-03T08:48:18.000Z</time>
      </trkpt>
      <trkpt lat="44.83657" lon="6.75611">
        <ele>2226.9</ele>
        <time>2026-03-03T08:48:19.000Z</time>
      </trkpt>
      <trkpt lat="44.83657" lon="6.75611">
        <ele>2227.4</ele>
        <time>2026-03-03T08:48:20.000Z</time>
      </trkpt>
      <trkpt lat="44.83658" lon="6.75611">
        <ele>2227.9</ele>
        <time>2026-03-03T08:48:21.000Z</time>
      </trkpt>
      <trkpt lat="44.83659" lon="6.75611">
        <ele>2228.3</ele>
        <time>2026-03-03T08:48:22.000Z</time>
      </trkpt>
      <trkpt lat="44.83659" lon="6.75611">
        <ele>2228.4</ele>
        <time>2026-03-03T08:48:23.000Z</time>
      </trkpt>
      <trkpt lat="44.8366" lon="6.75611">
        <ele>2228.7</ele>
        <time>2026-03-03T08:48:24.000Z</time>
      </trkpt>
      <trkpt lat="44.8366" lon="6.75611">
        <ele>2228.9</ele>
        <time>2026-03-03T08:48:25.000Z</time>
      </trkpt>
      <trkpt lat="44.83661" lon="6.75611">
        <ele>2228.9</ele>
        <time>2026-03-03T08:48:26.000Z</time>
      </trkpt>
      <trkpt lat="44.83662" lon="6.75611">
        <ele>2229</ele>
        <time>2026-03-03T08:48:27.000Z</time>
      </trkpt>
      <trkpt lat="44.83662" lon="6.7561">
        <ele>2229.3</ele>
        <time>2026-03-03T08:48:28.000Z</time>
      </trkpt>
      <trkpt lat="44.83663" lon="6.75611">
        <ele>2229.5</ele>
        <time>2026-03-03T08:48:29.000Z</time>
      </trkpt>
      <trkpt lat="44.83664" lon="6.75611">
        <ele>2229.6</ele>
        <time>2026-03-03T08:48:30.000Z</time>
      </trkpt>
      <trkpt lat="44.83665" lon="6.75611">
        <ele>2229.7</ele>
        <time>2026-03-03T08:48:31.000Z</time>
      </trkpt>
      <trkpt lat="44.83665" lon="6.75611">
        <ele>2230</ele>
        <time>2026-03-03T08:48:32.000Z</time>
      </trkpt>
      <trkpt lat="44.83666" lon="6.75611">
        <ele>2230.2</ele>
        <time>2026-03-03T08:48:33.000Z</time>
      </trkpt>
      <trkpt lat="44.83666" lon="6.75611">
        <ele>2230.4</ele>
        <time>2026-03-03T08:48:34.000Z</time>
      </trkpt>
      <trkpt lat="44.83667" lon="6.75611">
        <ele>2230.5</ele>
        <time>2026-03-03T08:48:35.000Z</time>
      </trkpt>
      <trkpt lat="44.83667" lon="6.75611">
        <ele>2230.7</ele>
        <time>2026-03-03T08:48:36.000Z</time>
      </trkpt>
      <trkpt lat="44.83668" lon="6.75611">
        <ele>2230.7</ele>
        <time>2026-03-03T08:48:37.000Z</time>
      </trkpt>
      <trkpt lat="44.83668" lon="6.7561">
        <ele>2230.9</ele>
        <time>2026-03-03T08:48:38.000Z</time>
      </trkpt>
      <trkpt lat="44.83668" lon="6.7561">
        <ele>2231.3</ele>
        <time>2026-03-03T08:48:39.000Z</time>
      </trkpt>
      <trkpt lat="44.83669" lon="6.7561">
        <ele>2231.4</ele>
        <time>2026-03-03T08:48:40.000Z</time>
      </trkpt>
      <trkpt lat="44.83669" lon="6.7561">
        <ele>2231.6</ele>
        <time>2026-03-03T08:48:41.000Z</time>
      </trkpt>
      <trkpt lat="44.8367" lon="6.7561">
        <ele>2231.8</ele>
        <time>2026-03-03T08:48:42.000Z</time>
      </trkpt>
      <trkpt lat="44.83672" lon="6.75609">
        <ele>2231.7</ele>
        <time>2026-03-03T08:48:43.000Z</time>
      </trkpt>
      <trkpt lat="44.83672" lon="6.75609">
        <ele>2231.5</ele>
        <time>2026-03-03T08:48:44.000Z</time>
      </trkpt>
      <trkpt lat="44.83673" lon="6.75609">
        <ele>2231.7</ele>
        <time>2026-03-03T08:48:45.000Z</time>
      </trkpt>
      <trkpt lat="44.83674" lon="6.75609">
        <ele>2231.9</ele>
        <time>2026-03-03T08:48:46.000Z</time>
      </trkpt>
      <trkpt lat="44.83675" lon="6.75608">
        <ele>2232.3</ele>
        <time>2026-03-03T08:48:47.000Z</time>
      </trkpt>
      <trkpt lat="44.83676" lon="6.75609">
        <ele>2232.6</ele>
        <time>2026-03-03T08:48:48.000Z</time>
      </trkpt>
      <trkpt lat="44.83676" lon="6.75609">
        <ele>2232.8</ele>
        <time>2026-03-03T08:48:49.000Z</time>
      </trkpt>
      <trkpt lat="44.83677" lon="6.75609">
        <ele>2232.8</ele>
        <time>2026-03-03T08:48:50.000Z</time>
      </trkpt>
      <trkpt lat="44.83678" lon="6.75609">
        <ele>2232.9</ele>
        <time>2026-03-03T08:48:51.000Z</time>
      </trkpt>
      <trkpt lat="44.83678" lon="6.7561">
        <ele>2232.9</ele>
        <time>2026-03-03T08:48:52.000Z</time>
      </trkpt>
      <trkpt lat="44.83683" lon="6.75609">
        <ele>2233.7</ele>
        <time>2026-03-03T08:49:06.000Z</time>
      </trkpt>
      <trkpt lat="44.83684" lon="6.75609">
        <ele>2233.6</ele>
        <time>2026-03-03T08:49:07.000Z</time>
      </trkpt>
      <trkpt lat="44.83684" lon="6.7561">
        <ele>2233.6</ele>
        <time>2026-03-03T08:49:08.000Z</time>
      </trkpt>
      <trkpt lat="44.83685" lon="6.7561">
        <ele>2233.7</ele>
        <time>2026-03-03T08:49:09.000Z</time>
      </trkpt>
      <trkpt lat="44.83685" lon="6.75611">
        <ele>2234</ele>
        <time>2026-03-03T08:49:10.000Z</time>
      </trkpt>
      <trkpt lat="44.83686" lon="6.75611">
        <ele>2234.2</ele>
        <time>2026-03-03T08:49:11.000Z</time>
      </trkpt>
      <trkpt lat="44.83686" lon="6.75612">
        <ele>2234.6</ele>
        <time>2026-03-03T08:49:12.000Z</time>
      </trkpt>
      <trkpt lat="44.83686" lon="6.75612">
        <ele>2234.7</ele>
        <time>2026-03-03T08:49:13.000Z</time>
      </trkpt>
      <trkpt lat="44.83687" lon="6.75612">
        <ele>2234.7</ele>
        <time>2026-03-03T08:49:14.000Z</time>
      </trkpt>
      <trkpt lat="44.83687" lon="6.75613">
        <ele>2234.7</ele>
        <time>2026-03-03T08:49:15.000Z</time>
      </trkpt>
      <trkpt lat="44.83688" lon="6.75613">
        <ele>2235.2</ele>
        <time>2026-03-03T08:49:16.000Z</time>
      </trkpt>
      <trkpt lat="44.83688" lon="6.75613">
        <ele>2235.6</ele>
        <time>2026-03-03T08:49:17.000Z</time>
      </trkpt>
      <trkpt lat="44.83688" lon="6.75614">
        <ele>2235.6</ele>
        <time>2026-03-03T08:49:18.000Z</time>
      </trkpt>
      <trkpt lat="44.83688" lon="6.75614">
        <ele>2235.9</ele>
        <time>2026-03-03T08:49:19.000Z</time>
      </trkpt>
      <trkpt lat="44.83688" lon="6.75615">
        <ele>2236.1</ele>
        <time>2026-03-03T08:49:20.000Z</time>
      </trkpt>
      <trkpt lat="44.83688" lon="6.75615">
        <ele>2236.3</ele>
        <time>2026-03-03T08:49:21.000Z</time>
      </trkpt>
      <trkpt lat="44.83688" lon="6.75615">
        <ele>2236.3</ele>
        <time>2026-03-03T08:49:22.000Z</time>
      </trkpt>
      <trkpt lat="44.83688" lon="6.75616">
        <ele>2236.4</ele>
        <time>2026-03-03T08:49:23.000Z</time>
      </trkpt>
      <trkpt lat="44.83688" lon="6.75616">
        <ele>2236.5</ele>
        <time>2026-03-03T08:49:24.000Z</time>
      </trkpt>
      <trkpt lat="44.83688" lon="6.75616">
        <ele>2236.6</ele>
        <time>2026-03-03T08:49:25.000Z</time>
      </trkpt>
      <trkpt lat="44.83688" lon="6.75617">
        <ele>2236.6</ele>
        <time>2026-03-03T08:49:26.000Z</time>
      </trkpt>
      <trkpt lat="44.83688" lon="6.75617">
        <ele>2236.6</ele>
        <time>2026-03-03T08:49:27.000Z</time>
      </trkpt>
      <trkpt lat="44.83688" lon="6.75618">
        <ele>2236.5</ele>
        <time>2026-03-03T08:49:28.000Z</time>
      </trkpt>
      <trkpt lat="44.83688" lon="6.75618">
        <ele>2236.7</ele>
        <time>2026-03-03T08:49:29.000Z</time>
      </trkpt>
      <trkpt lat="44.83688" lon="6.75619">
        <ele>2236.7</ele>
        <time>2026-03-03T08:49:30.000Z</time>
      </trkpt>
      <trkpt lat="44.83688" lon="6.75621">
        <ele>2236.8</ele>
        <time>2026-03-03T08:49:31.000Z</time>
      </trkpt>
      <trkpt lat="44.83688" lon="6.75623">
        <ele>2236.8</ele>
        <time>2026-03-03T08:49:32.000Z</time>
      </trkpt>
      <trkpt lat="44.83687" lon="6.75624">
        <ele>2237</ele>
        <time>2026-03-03T08:49:33.000Z</time>
      </trkpt>
      <trkpt lat="44.83687" lon="6.75625">
        <ele>2237.3</ele>
        <time>2026-03-03T08:49:34.000Z</time>
      </trkpt>
      <trkpt lat="44.83686" lon="6.75626">
        <ele>2237.3</ele>
        <time>2026-03-03T08:49:35.000Z</time>
      </trkpt>
      <trkpt lat="44.83686" lon="6.75627">
        <ele>2237.3</ele>
        <time>2026-03-03T08:49:36.000Z</time>
      </trkpt>
      <trkpt lat="44.83686" lon="6.75628">
        <ele>2237.5</ele>
        <time>2026-03-03T08:49:37.000Z</time>
      </trkpt>
      <trkpt lat="44.83686" lon="6.75629">
        <ele>2237.6</ele>
        <time>2026-03-03T08:49:38.000Z</time>
      </trkpt>
      <trkpt lat="44.83685" lon="6.7563">
        <ele>2237.7</ele>
        <time>2026-03-03T08:49:39.000Z</time>
      </trkpt>
      <trkpt lat="44.83685" lon="6.75631">
        <ele>2237.8</ele>
        <time>2026-03-03T08:49:40.000Z</time>
      </trkpt>
      <trkpt lat="44.83685" lon="6.75631">
        <ele>2237.8</ele>
        <time>2026-03-03T08:49:41.000Z</time>
      </trkpt>
      <trkpt lat="44.83686" lon="6.75632">
        <ele>2237.8</ele>
        <time>2026-03-03T08:49:42.000Z</time>
      </trkpt>
      <trkpt lat="44.83686" lon="6.75633">
        <ele>2237.7</ele>
        <time>2026-03-03T08:49:43.000Z</time>
      </trkpt>
      <trkpt lat="44.83685" lon="6.75633">
        <ele>2237.8</ele>
        <time>2026-03-03T08:49:44.000Z</time>
      </trkpt>
      <trkpt lat="44.83684" lon="6.75634">
        <ele>2237.7</ele>
        <time>2026-03-03T08:49:45.000Z</time>
      </trkpt>
      <trkpt lat="44.83684" lon="6.75634">
        <ele>2237.8</ele>
        <time>2026-03-03T08:49:46.000Z</time>
      </trkpt>
      <trkpt lat="44.83684" lon="6.75635">
        <ele>2237.9</ele>
        <time>2026-03-03T08:49:47.000Z</time>
      </trkpt>
      <trkpt lat="44.83683" lon="6.75636">
        <ele>2238</ele>
        <time>2026-03-03T08:49:48.000Z</time>
      </trkpt>
      <trkpt lat="44.83683" lon="6.75636">
        <ele>2238</ele>
        <time>2026-03-03T08:49:49.000Z</time>
      </trkpt>
      <trkpt lat="44.83683" lon="6.75637">
        <ele>2238</ele>
        <time>2026-03-03T08:49:50.000Z</time>
      </trkpt>
      <trkpt lat="44.83682" lon="6.75639">
        <ele>2238</ele>
        <time>2026-03-03T08:49:51.000Z</time>
      </trkpt>
      <trkpt lat="44.83682" lon="6.7564">
        <ele>2238</ele>
        <time>2026-03-03T08:49:52.000Z</time>
      </trkpt>
      <trkpt lat="44.83682" lon="6.7564">
        <ele>2238.3</ele>
        <time>2026-03-03T08:49:53.000Z</time>
      </trkpt>
      <trkpt lat="44.83682" lon="6.75641">
        <ele>2238.4</ele>
        <time>2026-03-03T08:49:54.000Z</time>
      </trkpt>
      <trkpt lat="44.83682" lon="6.75642">
        <ele>2238.7</ele>
        <time>2026-03-03T08:49:55.000Z</time>
      </trkpt>
      <trkpt lat="44.83681" lon="6.75643">
        <ele>2238.8</ele>
        <time>2026-03-03T08:49:56.000Z</time>
      </trkpt>
      <trkpt lat="44.83681" lon="6.75644">
        <ele>2239.2</ele>
        <time>2026-03-03T08:49:57.000Z</time>
      </trkpt>
      <trkpt lat="44.83681" lon="6.75644">
        <ele>2239.5</ele>
        <time>2026-03-03T08:49:58.000Z</time>
      </trkpt>
      <trkpt lat="44.83681" lon="6.75645">
        <ele>2239.6</ele>
        <time>2026-03-03T08:49:59.000Z</time>
      </trkpt>
      <trkpt lat="44.83681" lon="6.75646">
        <ele>2239.7</ele>
        <time>2026-03-03T08:50:00.000Z</time>
      </trkpt>
      <trkpt lat="44.8368" lon="6.75646">
        <ele>2239.7</ele>
        <time>2026-03-03T08:50:01.000Z</time>
      </trkpt>
      <trkpt lat="44.8368" lon="6.75647">
        <ele>2240.2</ele>
        <time>2026-03-03T08:50:02.000Z</time>
      </trkpt>
      <trkpt lat="44.8368" lon="6.75647">
        <ele>2240.1</ele>
        <time>2026-03-03T08:50:03.000Z</time>
      </trkpt>
      <trkpt lat="44.8368" lon="6.75648">
        <ele>2240.2</ele>
        <time>2026-03-03T08:50:04.000Z</time>
      </trkpt>
      <trkpt lat="44.8368" lon="6.75648">
        <ele>2240.2</ele>
        <time>2026-03-03T08:50:05.000Z</time>
      </trkpt>
      <trkpt lat="44.8368" lon="6.75648">
        <ele>2240.5</ele>
        <time>2026-03-03T08:50:06.000Z</time>
      </trkpt>
      <trkpt lat="44.83679" lon="6.75649">
        <ele>2240.4</ele>
        <time>2026-03-03T08:50:07.000Z</time>
      </trkpt>
      <trkpt lat="44.83679" lon="6.75649">
        <ele>2240.5</ele>
        <time>2026-03-03T08:50:08.000Z</time>
      </trkpt>
      <trkpt lat="44.83679" lon="6.7565">
        <ele>2240.4</ele>
        <time>2026-03-03T08:50:09.000Z</time>
      </trkpt>
      <trkpt lat="44.83678" lon="6.75651">
        <ele>2240.6</ele>
        <time>2026-03-03T08:50:10.000Z</time>
      </trkpt>
      <trkpt lat="44.83678" lon="6.75652">
        <ele>2240.5</ele>
        <time>2026-03-03T08:50:11.000Z</time>
      </trkpt>
      <trkpt lat="44.83678" lon="6.75653">
        <ele>2240.5</ele>
        <time>2026-03-03T08:50:12.000Z</time>
      </trkpt>
      <trkpt lat="44.83678" lon="6.75654">
        <ele>2240.7</ele>
        <time>2026-03-03T08:50:13.000Z</time>
      </trkpt>
      <trkpt lat="44.83678" lon="6.75655">
        <ele>2240.7</ele>
        <time>2026-03-03T08:50:14.000Z</time>
      </trkpt>
      <trkpt lat="44.83678" lon="6.75657">
        <ele>2240.7</ele>
        <time>2026-03-03T08:50:15.000Z</time>
      </trkpt>
      <trkpt lat="44.83678" lon="6.75657">
        <ele>2241.2</ele>
        <time>2026-03-03T08:50:16.000Z</time>
      </trkpt>
      <trkpt lat="44.83678" lon="6.75658">
        <ele>2241.6</ele>
        <time>2026-03-03T08:50:17.000Z</time>
      </trkpt>
      <trkpt lat="44.83678" lon="6.75659">
        <ele>2242.1</ele>
        <time>2026-03-03T08:50:18.000Z</time>
      </trkpt>
      <trkpt lat="44.83678" lon="6.7566">
        <ele>2242.3</ele>
        <time>2026-03-03T08:50:19.000Z</time>
      </trkpt>
      <trkpt lat="44.83677" lon="6.75661">
        <ele>2242.5</ele>
        <time>2026-03-03T08:50:20.000Z</time>
      </trkpt>
      <trkpt lat="44.83677" lon="6.75662">
        <ele>2242.6</ele>
        <time>2026-03-03T08:50:21.000Z</time>
      </trkpt>
      <trkpt lat="44.83677" lon="6.75663">
        <ele>2242.7</ele>
        <time>2026-03-03T08:50:22.000Z</time>
      </trkpt>
      <trkpt lat="44.83677" lon="6.75664">
        <ele>2242.9</ele>
        <time>2026-03-03T08:50:23.000Z</time>
      </trkpt>
      <trkpt lat="44.83677" lon="6.75665">
        <ele>2243</ele>
        <time>2026-03-03T08:50:24.000Z</time>
      </trkpt>
      <trkpt lat="44.83676" lon="6.75665">
        <ele>2243.3</ele>
        <time>2026-03-03T08:50:25.000Z</time>
      </trkpt>
      <trkpt lat="44.83676" lon="6.75666">
        <ele>2243.4</ele>
        <time>2026-03-03T08:50:26.000Z</time>
      </trkpt>
      <trkpt lat="44.83676" lon="6.75667">
        <ele>2243.5</ele>
        <time>2026-03-03T08:50:27.000Z</time>
      </trkpt>
      <trkpt lat="44.83676" lon="6.75668">
        <ele>2243.8</ele>
        <time>2026-03-03T08:50:28.000Z</time>
      </trkpt>
      <trkpt lat="44.83676" lon="6.75669">
        <ele>2244</ele>
        <time>2026-03-03T08:50:29.000Z</time>
      </trkpt>
      <trkpt lat="44.83676" lon="6.75671">
        <ele>2244</ele>
        <time>2026-03-03T08:50:30.000Z</time>
      </trkpt>
      <trkpt lat="44.83676" lon="6.75672">
        <ele>2244.1</ele>
        <time>2026-03-03T08:50:31.000Z</time>
      </trkpt>
      <trkpt lat="44.83676" lon="6.75673">
        <ele>2244</ele>
        <time>2026-03-03T08:50:32.000Z</time>
      </trkpt>
      <trkpt lat="44.83676" lon="6.75673">
        <ele>2244.1</ele>
        <time>2026-03-03T08:50:33.000Z</time>
      </trkpt>
      <trkpt lat="44.83676" lon="6.75674">
        <ele>2244.5</ele>
        <time>2026-03-03T08:50:34.000Z</time>
      </trkpt>
      <trkpt lat="44.83676" lon="6.75675">
        <ele>2245</ele>
        <time>2026-03-03T08:50:35.000Z</time>
      </trkpt>
      <trkpt lat="44.83676" lon="6.75676">
        <ele>2245.4</ele>
        <time>2026-03-03T08:50:36.000Z</time>
      </trkpt>
      <trkpt lat="44.83676" lon="6.75677">
        <ele>2245.3</ele>
        <time>2026-03-03T08:50:37.000Z</time>
      </trkpt>
      <trkpt lat="44.83675" lon="6.75678">
        <ele>2245.2</ele>
        <time>2026-03-03T08:50:38.000Z</time>
      </trkpt>
      <trkpt lat="44.83675" lon="6.75679">
        <ele>2245.2</ele>
        <time>2026-03-03T08:50:39.000Z</time>
      </trkpt>
      <trkpt lat="44.83675" lon="6.7568">
        <ele>2245.2</ele>
        <time>2026-03-03T08:50:40.000Z</time>
      </trkpt>
      <trkpt lat="44.83675" lon="6.7568">
        <ele>2245.4</ele>
        <time>2026-03-03T08:50:41.000Z</time>
      </trkpt>
      <trkpt lat="44.83675" lon="6.75681">
        <ele>2245.5</ele>
        <time>2026-03-03T08:50:42.000Z</time>
      </trkpt>
      <trkpt lat="44.83674" lon="6.75682">
        <ele>2245.6</ele>
        <time>2026-03-03T08:50:43.000Z</time>
      </trkpt>
      <trkpt lat="44.83674" lon="6.75683">
        <ele>2245.7</ele>
        <time>2026-03-03T08:50:44.000Z</time>
      </trkpt>
      <trkpt lat="44.83674" lon="6.75683">
        <ele>2245.9</ele>
        <time>2026-03-03T08:50:45.000Z</time>
      </trkpt>
      <trkpt lat="44.83674" lon="6.75684">
        <ele>2246</ele>
        <time>2026-03-03T08:50:46.000Z</time>
      </trkpt>
      <trkpt lat="44.83674" lon="6.75685">
        <ele>2246.2</ele>
        <time>2026-03-03T08:50:47.000Z</time>
      </trkpt>
      <trkpt lat="44.83674" lon="6.75686">
        <ele>2246.4</ele>
        <time>2026-03-03T08:50:48.000Z</time>
      </trkpt>
      <trkpt lat="44.83673" lon="6.75687">
        <ele>2246.4</ele>
        <time>2026-03-03T08:50:49.000Z</time>
      </trkpt>
      <trkpt lat="44.83673" lon="6.75689">
        <ele>2246.6</ele>
        <time>2026-03-03T08:50:50.000Z</time>
      </trkpt>
      <trkpt lat="44.83673" lon="6.7569">
        <ele>2246.5</ele>
        <time>2026-03-03T08:50:51.000Z</time>
      </trkpt>
      <trkpt lat="44.83672" lon="6.7569">
        <ele>2246.3</ele>
        <time>2026-03-03T08:50:52.000Z</time>
      </trkpt>
      <trkpt lat="44.83672" lon="6.7569">
        <ele>2246.3</ele>
        <time>2026-03-03T08:50:53.000Z</time>
      </trkpt>
      <trkpt lat="44.83672" lon="6.7569">
        <ele>2245.8</ele>
        <time>2026-03-03T08:50:54.000Z</time>
      </trkpt>
      <trkpt lat="44.83672" lon="6.7569">
        <ele>2246</ele>
        <time>2026-03-03T08:50:55.000Z</time>
      </trkpt>
      <trkpt lat="44.83672" lon="6.7569">
        <ele>2246</ele>
        <time>2026-03-03T08:50:56.000Z</time>
      </trkpt>
      <trkpt lat="44.83672" lon="6.75691">
        <ele>2245.9</ele>
        <time>2026-03-03T08:50:57.000Z</time>
      </trkpt>
      <trkpt lat="44.83672" lon="6.75691">
        <ele>2245.8</ele>
        <time>2026-03-03T08:50:58.000Z</time>
      </trkpt>
      <trkpt lat="44.83672" lon="6.75691">
        <ele>2245.6</ele>
        <time>2026-03-03T08:50:59.000Z</time>
      </trkpt>
      <trkpt lat="44.83671" lon="6.75692">
        <ele>2245.5</ele>
        <time>2026-03-03T08:51:00.000Z</time>
      </trkpt>
      <trkpt lat="44.83671" lon="6.75693">
        <ele>2245.6</ele>
        <time>2026-03-03T08:51:01.000Z</time>
      </trkpt>
      <trkpt lat="44.8367" lon="6.75694">
        <ele>2245.6</ele>
        <time>2026-03-03T08:51:02.000Z</time>
      </trkpt>
      <trkpt lat="44.8367" lon="6.75696">
        <ele>2245.9</ele>
        <time>2026-03-03T08:51:03.000Z</time>
      </trkpt>
      <trkpt lat="44.8367" lon="6.75696">
        <ele>2246</ele>
        <time>2026-03-03T08:51:04.000Z</time>
      </trkpt>
      <trkpt lat="44.8367" lon="6.75697">
        <ele>2246.1</ele>
        <time>2026-03-03T08:51:05.000Z</time>
      </trkpt>
      <trkpt lat="44.8367" lon="6.75697">
        <ele>2245.9</ele>
        <time>2026-03-03T08:51:06.000Z</time>
      </trkpt>
      <trkpt lat="44.8367" lon="6.75698">
        <ele>2246</ele>
        <time>2026-03-03T08:51:07.000Z</time>
      </trkpt>
      <trkpt lat="44.8367" lon="6.75698">
        <ele>2246.2</ele>
        <time>2026-03-03T08:51:08.000Z</time>
      </trkpt>
      <trkpt lat="44.8367" lon="6.75699">
        <ele>2246.3</ele>
        <time>2026-03-03T08:51:09.000Z</time>
      </trkpt>
      <trkpt lat="44.8367" lon="6.75699">
        <ele>2246.4</ele>
        <time>2026-03-03T08:51:10.000Z</time>
      </trkpt>
      <trkpt lat="44.8367" lon="6.757">
        <ele>2246.5</ele>
        <time>2026-03-03T08:51:11.000Z</time>
      </trkpt>
      <trkpt lat="44.8367" lon="6.75701">
        <ele>2246.6</ele>
        <time>2026-03-03T08:51:12.000Z</time>
      </trkpt>
      <trkpt lat="44.8367" lon="6.75701">
        <ele>2246.7</ele>
        <time>2026-03-03T08:51:13.000Z</time>
      </trkpt>
      <trkpt lat="44.83669" lon="6.75703">
        <ele>2246.8</ele>
        <time>2026-03-03T08:51:14.000Z</time>
      </trkpt>
      <trkpt lat="44.83669" lon="6.75704">
        <ele>2247</ele>
        <time>2026-03-03T08:51:15.000Z</time>
      </trkpt>
      <trkpt lat="44.83669" lon="6.75705">
        <ele>2247.2</ele>
        <time>2026-03-03T08:51:16.000Z</time>
      </trkpt>
      <trkpt lat="44.83669" lon="6.75706">
        <ele>2247.3</ele>
        <time>2026-03-03T08:51:17.000Z</time>
      </trkpt>
      <trkpt lat="44.8367" lon="6.75707">
        <ele>2247.4</ele>
        <time>2026-03-03T08:51:18.000Z</time>
      </trkpt>
      <trkpt lat="44.8367" lon="6.75708">
        <ele>2247.4</ele>
        <time>2026-03-03T08:51:19.000Z</time>
      </trkpt>
      <trkpt lat="44.83671" lon="6.75708">
        <ele>2247.5</ele>
        <time>2026-03-03T08:51:20.000Z</time>
      </trkpt>
      <trkpt lat="44.83671" lon="6.75708">
        <ele>2247.7</ele>
        <time>2026-03-03T08:51:21.000Z</time>
      </trkpt>
      <trkpt lat="44.83671" lon="6.75708">
        <ele>2247.9</ele>
        <time>2026-03-03T08:51:22.000Z</time>
      </trkpt>
      <trkpt lat="44.83672" lon="6.75709">
        <ele>2248</ele>
        <time>2026-03-03T08:51:23.000Z</time>
      </trkpt>
      <trkpt lat="44.83672" lon="6.75709">
        <ele>2248.2</ele>
        <time>2026-03-03T08:51:24.000Z</time>
      </trkpt>
      <trkpt lat="44.83673" lon="6.7571">
        <ele>2248.5</ele>
        <time>2026-03-03T08:51:25.000Z</time>
      </trkpt>
      <trkpt lat="44.83674" lon="6.75711">
        <ele>2248.9</ele>
        <time>2026-03-03T08:51:26.000Z</time>
      </trkpt>
      <trkpt lat="44.83674" lon="6.75711">
        <ele>2249.2</ele>
        <time>2026-03-03T08:51:27.000Z</time>
      </trkpt>
      <trkpt lat="44.83675" lon="6.75712">
        <ele>2249.3</ele>
        <time>2026-03-03T08:51:28.000Z</time>
      </trkpt>
      <trkpt lat="44.83675" lon="6.75712">
        <ele>2249.6</ele>
        <time>2026-03-03T08:51:29.000Z</time>
      </trkpt>
      <trkpt lat="44.83676" lon="6.75713">
        <ele>2249.7</ele>
        <time>2026-03-03T08:51:30.000Z</time>
      </trkpt>
      <trkpt lat="44.83676" lon="6.75713">
        <ele>2249.9</ele>
        <time>2026-03-03T08:51:31.000Z</time>
      </trkpt>
      <trkpt lat="44.83676" lon="6.75713">
        <ele>2250.1</ele>
        <time>2026-03-03T08:51:32.000Z</time>
      </trkpt>
      <trkpt lat="44.83677" lon="6.75714">
        <ele>2250.4</ele>
        <time>2026-03-03T08:51:33.000Z</time>
      </trkpt>
      <trkpt lat="44.83678" lon="6.75714">
        <ele>2250.6</ele>
        <time>2026-03-03T08:51:34.000Z</time>
      </trkpt>
      <trkpt lat="44.83678" lon="6.75714">
        <ele>2250.9</ele>
        <time>2026-03-03T08:51:35.000Z</time>
      </trkpt>
      <trkpt lat="44.83679" lon="6.75714">
        <ele>2251</ele>
        <time>2026-03-03T08:51:36.000Z</time>
      </trkpt>
      <trkpt lat="44.8368" lon="6.75714">
        <ele>2251.1</ele>
        <time>2026-03-03T08:51:37.000Z</time>
      </trkpt>
      <trkpt lat="44.8368" lon="6.75714">
        <ele>2251.4</ele>
        <time>2026-03-03T08:51:38.000Z</time>
      </trkpt>
      <trkpt lat="44.83681" lon="6.75714">
        <ele>2251.8</ele>
        <time>2026-03-03T08:51:39.000Z</time>
      </trkpt>
      <trkpt lat="44.83681" lon="6.75715">
        <ele>2251.9</ele>
        <time>2026-03-03T08:51:40.000Z</time>
      </trkpt>
      <trkpt lat="44.83681" lon="6.75715">
        <ele>2252</ele>
        <time>2026-03-03T08:51:41.000Z</time>
      </trkpt>
      <trkpt lat="44.83682" lon="6.75715">
        <ele>2252</ele>
        <time>2026-03-03T08:51:42.000Z</time>
      </trkpt>
      <trkpt lat="44.83683" lon="6.75715">
        <ele>2251.8</ele>
        <time>2026-03-03T08:51:43.000Z</time>
      </trkpt>
      <trkpt lat="44.83684" lon="6.75715">
        <ele>2251.8</ele>
        <time>2026-03-03T08:51:44.000Z</time>
      </trkpt>
      <trkpt lat="44.83684" lon="6.75715">
        <ele>2252</ele>
        <time>2026-03-03T08:51:45.000Z</time>
      </trkpt>
      <trkpt lat="44.83685" lon="6.75714">
        <ele>2252.1</ele>
        <time>2026-03-03T08:51:46.000Z</time>
      </trkpt>
      <trkpt lat="44.83686" lon="6.75714">
        <ele>2252.5</ele>
        <time>2026-03-03T08:51:47.000Z</time>
      </trkpt>
      <trkpt lat="44.83687" lon="6.75714">
        <ele>2252.6</ele>
        <time>2026-03-03T08:51:48.000Z</time>
      </trkpt>
      <trkpt lat="44.83687" lon="6.75714">
        <ele>2252.7</ele>
        <time>2026-03-03T08:51:49.000Z</time>
      </trkpt>
      <trkpt lat="44.83688" lon="6.75714">
        <ele>2252.7</ele>
        <time>2026-03-03T08:51:50.000Z</time>
      </trkpt>
      <trkpt lat="44.83688" lon="6.75714">
        <ele>2252.8</ele>
        <time>2026-03-03T08:51:51.000Z</time>
      </trkpt>
      <trkpt lat="44.83689" lon="6.75714">
        <ele>2252.9</ele>
        <time>2026-03-03T08:51:52.000Z</time>
      </trkpt>
      <trkpt lat="44.8369" lon="6.75714">
        <ele>2252.8</ele>
        <time>2026-03-03T08:51:53.000Z</time>
      </trkpt>
      <trkpt lat="44.83691" lon="6.75714">
        <ele>2252.8</ele>
        <time>2026-03-03T08:51:54.000Z</time>
      </trkpt>
      <trkpt lat="44.83691" lon="6.75714">
        <ele>2252.8</ele>
        <time>2026-03-03T08:51:55.000Z</time>
      </trkpt>
      <trkpt lat="44.83692" lon="6.75714">
        <ele>2252.9</ele>
        <time>2026-03-03T08:51:56.000Z</time>
      </trkpt>
      <trkpt lat="44.83693" lon="6.75714">
        <ele>2253.1</ele>
        <time>2026-03-03T08:51:57.000Z</time>
      </trkpt>
      <trkpt lat="44.83693" lon="6.75714">
        <ele>2253.1</ele>
        <time>2026-03-03T08:51:58.000Z</time>
      </trkpt>
      <trkpt lat="44.83694" lon="6.75713">
        <ele>2253.3</ele>
        <time>2026-03-03T08:51:59.000Z</time>
      </trkpt>
      <trkpt lat="44.83695" lon="6.75714">
        <ele>2253.4</ele>
        <time>2026-03-03T08:52:00.000Z</time>
      </trkpt>
      <trkpt lat="44.83695" lon="6.75714">
        <ele>2253.7</ele>
        <time>2026-03-03T08:52:01.000Z</time>
      </trkpt>
      <trkpt lat="44.83696" lon="6.75714">
        <ele>2253.8</ele>
        <time>2026-03-03T08:52:02.000Z</time>
      </trkpt>
      <trkpt lat="44.83696" lon="6.75714">
        <ele>2254.1</ele>
        <time>2026-03-03T08:52:03.000Z</time>
      </trkpt>
      <trkpt lat="44.83697" lon="6.75713">
        <ele>2254.5</ele>
        <time>2026-03-03T08:52:04.000Z</time>
      </trkpt>
      <trkpt lat="44.83697" lon="6.75713">
        <ele>2254.8</ele>
        <time>2026-03-03T08:52:05.000Z</time>
      </trkpt>
      <trkpt lat="44.83697" lon="6.75713">
        <ele>2254.8</ele>
        <time>2026-03-03T08:52:06.000Z</time>
      </trkpt>
      <trkpt lat="44.83697" lon="6.75712">
        <ele>2255</ele>
        <time>2026-03-03T08:52:07.000Z</time>
      </trkpt>
      <trkpt lat="44.83698" lon="6.75712">
        <ele>2255</ele>
        <time>2026-03-03T08:52:08.000Z</time>
      </trkpt>
      <trkpt lat="44.83698" lon="6.75712">
        <ele>2255</ele>
        <time>2026-03-03T08:52:09.000Z</time>
      </trkpt>
      <trkpt lat="44.83698" lon="6.75711">
        <ele>2254.9</ele>
        <time>2026-03-03T08:52:10.000Z</time>
      </trkpt>
      <trkpt lat="44.83699" lon="6.75711">
        <ele>2255.4</ele>
        <time>2026-03-03T08:52:11.000Z</time>
      </trkpt>
      <trkpt lat="44.83699" lon="6.7571">
        <ele>2255.4</ele>
        <time>2026-03-03T08:52:12.000Z</time>
      </trkpt>
      <trkpt lat="44.837" lon="6.75709">
        <ele>2255.5</ele>
        <time>2026-03-03T08:52:13.000Z</time>
      </trkpt>
      <trkpt lat="44.837" lon="6.75709">
        <ele>2255.3</ele>
        <time>2026-03-03T08:52:14.000Z</time>
      </trkpt>
      <trkpt lat="44.83701" lon="6.75708">
        <ele>2255.3</ele>
        <time>2026-03-03T08:52:15.000Z</time>
      </trkpt>
      <trkpt lat="44.83701" lon="6.75708">
        <ele>2255.4</ele>
        <time>2026-03-03T08:52:16.000Z</time>
      </trkpt>
      <trkpt lat="44.83702" lon="6.75708">
        <ele>2255.7</ele>
        <time>2026-03-03T08:52:17.000Z</time>
      </trkpt>
      <trkpt lat="44.83702" lon="6.75707">
        <ele>2256</ele>
        <time>2026-03-03T08:52:18.000Z</time>
      </trkpt>
      <trkpt lat="44.83703" lon="6.75706">
        <ele>2256.4</ele>
        <time>2026-03-03T08:52:19.000Z</time>
      </trkpt>
      <trkpt lat="44.83703" lon="6.75706">
        <ele>2256.5</ele>
        <time>2026-03-03T08:52:20.000Z</time>
      </trkpt>
      <trkpt lat="44.83703" lon="6.75705">
        <ele>2256.7</ele>
        <time>2026-03-03T08:52:21.000Z</time>
      </trkpt>
      <trkpt lat="44.83704" lon="6.75705">
        <ele>2256.8</ele>
        <time>2026-03-03T08:52:22.000Z</time>
      </trkpt>
      <trkpt lat="44.83704" lon="6.75704">
        <ele>2257</ele>
        <time>2026-03-03T08:52:23.000Z</time>
      </trkpt>
      <trkpt lat="44.83704" lon="6.75704">
        <ele>2256.6</ele>
        <time>2026-03-03T08:52:24.000Z</time>
      </trkpt>
      <trkpt lat="44.83705" lon="6.75704">
        <ele>2256.6</ele>
        <time>2026-03-03T08:52:25.000Z</time>
      </trkpt>
      <trkpt lat="44.83705" lon="6.75703">
        <ele>2256.8</ele>
        <time>2026-03-03T08:52:26.000Z</time>
      </trkpt>
      <trkpt lat="44.83705" lon="6.75703">
        <ele>2256.7</ele>
        <time>2026-03-03T08:52:27.000Z</time>
      </trkpt>
      <trkpt lat="44.83706" lon="6.75702">
        <ele>2256.7</ele>
        <time>2026-03-03T08:52:28.000Z</time>
      </trkpt>
      <trkpt lat="44.83707" lon="6.75702">
        <ele>2256.8</ele>
        <time>2026-03-03T08:52:29.000Z</time>
      </trkpt>
      <trkpt lat="44.83707" lon="6.75702">
        <ele>2256.9</ele>
        <time>2026-03-03T08:52:30.000Z</time>
      </trkpt>
      <trkpt lat="44.8371" lon="6.757">
        <ele>2259.8</ele>
        <time>2026-03-03T08:53:25.000Z</time>
      </trkpt>
      <trkpt lat="44.8371" lon="6.757">
        <ele>2260.2</ele>
        <time>2026-03-03T08:53:26.000Z</time>
      </trkpt>
      <trkpt lat="44.8371" lon="6.757">
        <ele>2260.4</ele>
        <time>2026-03-03T08:53:27.000Z</time>
      </trkpt>
      <trkpt lat="44.83711" lon="6.757">
        <ele>2260.6</ele>
        <time>2026-03-03T08:53:28.000Z</time>
      </trkpt>
      <trkpt lat="44.83711" lon="6.757">
        <ele>2260.9</ele>
        <time>2026-03-03T08:53:29.000Z</time>
      </trkpt>
      <trkpt lat="44.83713" lon="6.757">
        <ele>2261.2</ele>
        <time>2026-03-03T08:53:30.000Z</time>
      </trkpt>
      <trkpt lat="44.83714" lon="6.757">
        <ele>2261.4</ele>
        <time>2026-03-03T08:53:31.000Z</time>
      </trkpt>
      <trkpt lat="44.83715" lon="6.757">
        <ele>2261.6</ele>
        <time>2026-03-03T08:53:32.000Z</time>
      </trkpt>
      <trkpt lat="44.83716" lon="6.757">
        <ele>2261.8</ele>
        <time>2026-03-03T08:53:33.000Z</time>
      </trkpt>
      <trkpt lat="44.83717" lon="6.757">
        <ele>2262</ele>
        <time>2026-03-03T08:53:34.000Z</time>
      </trkpt>
      <trkpt lat="44.83718" lon="6.757">
        <ele>2262.1</ele>
        <time>2026-03-03T08:53:35.000Z</time>
      </trkpt>
      <trkpt lat="44.8372" lon="6.757">
        <ele>2262.2</ele>
        <time>2026-03-03T08:53:36.000Z</time>
      </trkpt>
      <trkpt lat="44.83721" lon="6.757">
        <ele>2262.2</ele>
        <time>2026-03-03T08:53:37.000Z</time>
      </trkpt>
      <trkpt lat="44.83722" lon="6.757">
        <ele>2262.2</ele>
        <time>2026-03-03T08:53:38.000Z</time>
      </trkpt>
      <trkpt lat="44.83723" lon="6.757">
        <ele>2262.4</ele>
        <time>2026-03-03T08:53:39.000Z</time>
      </trkpt>
      <trkpt lat="44.83724" lon="6.75701">
        <ele>2262.8</ele>
        <time>2026-03-03T08:53:40.000Z</time>
      </trkpt>
      <trkpt lat="44.83724" lon="6.75701">
        <ele>2263</ele>
        <time>2026-03-03T08:53:41.000Z</time>
      </trkpt>
      <trkpt lat="44.83725" lon="6.75701">
        <ele>2263.3</ele>
        <time>2026-03-03T08:53:42.000Z</time>
      </trkpt>
      <trkpt lat="44.83725" lon="6.75701">
        <ele>2263.4</ele>
        <time>2026-03-03T08:53:43.000Z</time>
      </trkpt>
      <trkpt lat="44.83726" lon="6.75701">
        <ele>2263.5</ele>
        <time>2026-03-03T08:53:44.000Z</time>
      </trkpt>
      <trkpt lat="44.83726" lon="6.75701">
        <ele>2263.9</ele>
        <time>2026-03-03T08:53:45.000Z</time>
      </trkpt>
      <trkpt lat="44.83726" lon="6.75701">
        <ele>2264</ele>
        <time>2026-03-03T08:53:46.000Z</time>
      </trkpt>
      <trkpt lat="44.83726" lon="6.757">
        <ele>2264.4</ele>
        <time>2026-03-03T08:53:47.000Z</time>
      </trkpt>
      <trkpt lat="44.83727" lon="6.757">
        <ele>2264.6</ele>
        <time>2026-03-03T08:53:48.000Z</time>
      </trkpt>
      <trkpt lat="44.83727" lon="6.757">
        <ele>2264.7</ele>
        <time>2026-03-03T08:53:49.000Z</time>
      </trkpt>
      <trkpt lat="44.83728" lon="6.75701">
        <ele>2265</ele>
        <time>2026-03-03T08:53:50.000Z</time>
      </trkpt>
      <trkpt lat="44.83729" lon="6.75701">
        <ele>2265</ele>
        <time>2026-03-03T08:53:51.000Z</time>
      </trkpt>
      <trkpt lat="44.8373" lon="6.75701">
        <ele>2265.3</ele>
        <time>2026-03-03T08:53:52.000Z</time>
      </trkpt>
      <trkpt lat="44.8373" lon="6.75701">
        <ele>2265.3</ele>
        <time>2026-03-03T08:53:53.000Z</time>
      </trkpt>
      <trkpt lat="44.83731" lon="6.75702">
        <ele>2265.6</ele>
        <time>2026-03-03T08:53:54.000Z</time>
      </trkpt>
      <trkpt lat="44.83732" lon="6.75702">
        <ele>2266</ele>
        <time>2026-03-03T08:53:55.000Z</time>
      </trkpt>
      <trkpt lat="44.83732" lon="6.75702">
        <ele>2266</ele>
        <time>2026-03-03T08:53:56.000Z</time>
      </trkpt>
      <trkpt lat="44.83732" lon="6.75702">
        <ele>2266</ele>
        <time>2026-03-03T08:53:57.000Z</time>
      </trkpt>
      <trkpt lat="44.83733" lon="6.75702">
        <ele>2266</ele>
        <time>2026-03-03T08:53:58.000Z</time>
      </trkpt>
      <trkpt lat="44.83733" lon="6.75702">
        <ele>2266.1</ele>
        <time>2026-03-03T08:53:59.000Z</time>
      </trkpt>
      <trkpt lat="44.83733" lon="6.75702">
        <ele>2265.9</ele>
        <time>2026-03-03T08:54:00.000Z</time>
      </trkpt>
      <trkpt lat="44.83734" lon="6.75702">
        <ele>2265.8</ele>
        <time>2026-03-03T08:54:01.000Z</time>
      </trkpt>
      <trkpt lat="44.83734" lon="6.75702">
        <ele>2265.8</ele>
        <time>2026-03-03T08:54:02.000Z</time>
      </trkpt>
      <trkpt lat="44.83735" lon="6.75702">
        <ele>2265.9</ele>
        <time>2026-03-03T08:54:03.000Z</time>
      </trkpt>
      <trkpt lat="44.83735" lon="6.75702">
        <ele>2265.9</ele>
        <time>2026-03-03T08:54:04.000Z</time>
      </trkpt>
      <trkpt lat="44.83736" lon="6.75702">
        <ele>2266.1</ele>
        <time>2026-03-03T08:54:05.000Z</time>
      </trkpt>
      <trkpt lat="44.83737" lon="6.75702">
        <ele>2266.2</ele>
        <time>2026-03-03T08:54:06.000Z</time>
      </trkpt>
      <trkpt lat="44.83739" lon="6.75701">
        <ele>2266.4</ele>
        <time>2026-03-03T08:54:07.000Z</time>
      </trkpt>
      <trkpt lat="44.8374" lon="6.75702">
        <ele>2266.5</ele>
        <time>2026-03-03T08:54:08.000Z</time>
      </trkpt>
      <trkpt lat="44.8374" lon="6.75702">
        <ele>2266.4</ele>
        <time>2026-03-03T08:54:09.000Z</time>
      </trkpt>
      <trkpt lat="44.8374" lon="6.75702">
        <ele>2266.4</ele>
        <time>2026-03-03T08:54:10.000Z</time>
      </trkpt>
      <trkpt lat="44.83741" lon="6.75702">
        <ele>2266.5</ele>
        <time>2026-03-03T08:54:11.000Z</time>
      </trkpt>
      <trkpt lat="44.83741" lon="6.75702">
        <ele>2266.6</ele>
        <time>2026-03-03T08:54:12.000Z</time>
      </trkpt>
      <trkpt lat="44.83742" lon="6.75702">
        <ele>2266.6</ele>
        <time>2026-03-03T08:54:13.000Z</time>
      </trkpt>
      <trkpt lat="44.83742" lon="6.75702">
        <ele>2266.5</ele>
        <time>2026-03-03T08:54:14.000Z</time>
      </trkpt>
      <trkpt lat="44.83743" lon="6.75702">
        <ele>2266.5</ele>
        <time>2026-03-03T08:54:15.000Z</time>
      </trkpt>
      <trkpt lat="44.83743" lon="6.75702">
        <ele>2266.6</ele>
        <time>2026-03-03T08:54:16.000Z</time>
      </trkpt>
      <trkpt lat="44.83744" lon="6.75702">
        <ele>2266.7</ele>
        <time>2026-03-03T08:54:17.000Z</time>
      </trkpt>
      <trkpt lat="44.83745" lon="6.75702">
        <ele>2266.7</ele>
        <time>2026-03-03T08:54:18.000Z</time>
      </trkpt>
      <trkpt lat="44.83746" lon="6.75702">
        <ele>2266.9</ele>
        <time>2026-03-03T08:54:19.000Z</time>
      </trkpt>
      <trkpt lat="44.83747" lon="6.75702">
        <ele>2267.3</ele>
        <time>2026-03-03T08:54:20.000Z</time>
      </trkpt>
      <trkpt lat="44.83747" lon="6.75702">
        <ele>2267.4</ele>
        <time>2026-03-03T08:54:21.000Z</time>
      </trkpt>
      <trkpt lat="44.83748" lon="6.75701">
        <ele>2267.5</ele>
        <time>2026-03-03T08:54:22.000Z</time>
      </trkpt>
      <trkpt lat="44.83748" lon="6.75701">
        <ele>2267.8</ele>
        <time>2026-03-03T08:54:23.000Z</time>
      </trkpt>
      <trkpt lat="44.83748" lon="6.75702">
        <ele>2267.7</ele>
        <time>2026-03-03T08:54:24.000Z</time>
      </trkpt>
      <trkpt lat="44.83749" lon="6.75702">
        <ele>2267.8</ele>
        <time>2026-03-03T08:54:25.000Z</time>
      </trkpt>
      <trkpt lat="44.83749" lon="6.75702">
        <ele>2267.9</ele>
        <time>2026-03-03T08:54:26.000Z</time>
      </trkpt>
      <trkpt lat="44.83749" lon="6.75702">
        <ele>2267.9</ele>
        <time>2026-03-03T08:54:27.000Z</time>
      </trkpt>
      <trkpt lat="44.8375" lon="6.75702">
        <ele>2268</ele>
        <time>2026-03-03T08:54:28.000Z</time>
      </trkpt>
      <trkpt lat="44.83749" lon="6.75702">
        <ele>2267.9</ele>
        <time>2026-03-03T08:54:29.000Z</time>
      </trkpt>
      <trkpt lat="44.8375" lon="6.75702">
        <ele>2268.1</ele>
        <time>2026-03-03T08:54:30.000Z</time>
      </trkpt>
      <trkpt lat="44.83751" lon="6.75702">
        <ele>2268.3</ele>
        <time>2026-03-03T08:54:31.000Z</time>
      </trkpt>
      <trkpt lat="44.83751" lon="6.75702">
        <ele>2268.3</ele>
        <time>2026-03-03T08:54:32.000Z</time>
      </trkpt>
      <trkpt lat="44.83752" lon="6.75702">
        <ele>2268.3</ele>
        <time>2026-03-03T08:54:33.000Z</time>
      </trkpt>
      <trkpt lat="44.83752" lon="6.75702">
        <ele>2268.4</ele>
        <time>2026-03-03T08:54:34.000Z</time>
      </trkpt>
      <trkpt lat="44.83752" lon="6.75701">
        <ele>2268.7</ele>
        <time>2026-03-03T08:54:35.000Z</time>
      </trkpt>
      <trkpt lat="44.83752" lon="6.75701">
        <ele>2269</ele>
        <time>2026-03-03T08:54:36.000Z</time>
      </trkpt>
      <trkpt lat="44.83753" lon="6.75701">
        <ele>2269.1</ele>
        <time>2026-03-03T08:54:37.000Z</time>
      </trkpt>
      <trkpt lat="44.83753" lon="6.75701">
        <ele>2269.1</ele>
        <time>2026-03-03T08:54:38.000Z</time>
      </trkpt>
      <trkpt lat="44.83754" lon="6.75701">
        <ele>2269.3</ele>
        <time>2026-03-03T08:54:39.000Z</time>
      </trkpt>
      <trkpt lat="44.83755" lon="6.75701">
        <ele>2269.5</ele>
        <time>2026-03-03T08:54:40.000Z</time>
      </trkpt>
      <trkpt lat="44.83756" lon="6.75701">
        <ele>2269.8</ele>
        <time>2026-03-03T08:54:41.000Z</time>
      </trkpt>
      <trkpt lat="44.83756" lon="6.757">
        <ele>2269.9</ele>
        <time>2026-03-03T08:54:42.000Z</time>
      </trkpt>
      <trkpt lat="44.83757" lon="6.757">
        <ele>2269.9</ele>
        <time>2026-03-03T08:54:43.000Z</time>
      </trkpt>
      <trkpt lat="44.83757" lon="6.757">
        <ele>2270.1</ele>
        <time>2026-03-03T08:54:44.000Z</time>
      </trkpt>
      <trkpt lat="44.83758" lon="6.75699">
        <ele>2270.3</ele>
        <time>2026-03-03T08:54:45.000Z</time>
      </trkpt>
      <trkpt lat="44.83759" lon="6.75699">
        <ele>2270.5</ele>
        <time>2026-03-03T08:54:46.000Z</time>
      </trkpt>
      <trkpt lat="44.8376" lon="6.757">
        <ele>2270.8</ele>
        <time>2026-03-03T08:54:47.000Z</time>
      </trkpt>
      <trkpt lat="44.83761" lon="6.757">
        <ele>2271.1</ele>
        <time>2026-03-03T08:54:48.000Z</time>
      </trkpt>
      <trkpt lat="44.83761" lon="6.75699">
        <ele>2271.5</ele>
        <time>2026-03-03T08:54:49.000Z</time>
      </trkpt>
      <trkpt lat="44.83762" lon="6.757">
        <ele>2271.4</ele>
        <time>2026-03-03T08:54:50.000Z</time>
      </trkpt>
      <trkpt lat="44.83763" lon="6.757">
        <ele>2271.4</ele>
        <time>2026-03-03T08:54:51.000Z</time>
      </trkpt>
      <trkpt lat="44.83764" lon="6.757">
        <ele>2271.6</ele>
        <time>2026-03-03T08:54:52.000Z</time>
      </trkpt>
      <trkpt lat="44.83764" lon="6.757">
        <ele>2271.9</ele>
        <time>2026-03-03T08:54:53.000Z</time>
      </trkpt>
      <trkpt lat="44.83765" lon="6.757">
        <ele>2271.9</ele>
        <time>2026-03-03T08:54:54.000Z</time>
      </trkpt>
      <trkpt lat="44.83765" lon="6.757">
        <ele>2271.9</ele>
        <time>2026-03-03T08:54:55.000Z</time>
      </trkpt>
      <trkpt lat="44.83765" lon="6.75701">
        <ele>2271.9</ele>
        <time>2026-03-03T08:54:56.000Z</time>
      </trkpt>
      <trkpt lat="44.83766" lon="6.75701">
        <ele>2272.2</ele>
        <time>2026-03-03T08:54:57.000Z</time>
      </trkpt>
      <trkpt lat="44.83767" lon="6.75701">
        <ele>2272.5</ele>
        <time>2026-03-03T08:54:58.000Z</time>
      </trkpt>
      <trkpt lat="44.83767" lon="6.75701">
        <ele>2273</ele>
        <time>2026-03-03T08:54:59.000Z</time>
      </trkpt>
      <trkpt lat="44.83767" lon="6.75702">
        <ele>2273.3</ele>
        <time>2026-03-03T08:55:00.000Z</time>
      </trkpt>
      <trkpt lat="44.83767" lon="6.75702">
        <ele>2273.7</ele>
        <time>2026-03-03T08:55:01.000Z</time>
      </trkpt>
      <trkpt lat="44.83768" lon="6.75702">
        <ele>2274.2</ele>
        <time>2026-03-03T08:55:02.000Z</time>
      </trkpt>
      <trkpt lat="44.83769" lon="6.75701">
        <ele>2274.6</ele>
        <time>2026-03-03T08:55:03.000Z</time>
      </trkpt>
      <trkpt lat="44.83769" lon="6.75701">
        <ele>2274.9</ele>
        <time>2026-03-03T08:55:04.000Z</time>
      </trkpt>
      <trkpt lat="44.83769" lon="6.75701">
        <ele>2275.2</ele>
        <time>2026-03-03T08:55:05.000Z</time>
      </trkpt>
      <trkpt lat="44.8377" lon="6.75701">
        <ele>2275.4</ele>
        <time>2026-03-03T08:55:06.000Z</time>
      </trkpt>
      <trkpt lat="44.8377" lon="6.757">
        <ele>2275.6</ele>
        <time>2026-03-03T08:55:07.000Z</time>
      </trkpt>
      <trkpt lat="44.83771" lon="6.757">
        <ele>2275.5</ele>
        <time>2026-03-03T08:55:08.000Z</time>
      </trkpt>
      <trkpt lat="44.83771" lon="6.757">
        <ele>2275.6</ele>
        <time>2026-03-03T08:55:09.000Z</time>
      </trkpt>
      <trkpt lat="44.83771" lon="6.757">
        <ele>2275.9</ele>
        <time>2026-03-03T08:55:10.000Z</time>
      </trkpt>
      <trkpt lat="44.83772" lon="6.757">
        <ele>2275.9</ele>
        <time>2026-03-03T08:55:11.000Z</time>
      </trkpt>
      <trkpt lat="44.83772" lon="6.757">
        <ele>2275.9</ele>
        <time>2026-03-03T08:55:12.000Z</time>
      </trkpt>
      <trkpt lat="44.83773" lon="6.757">
        <ele>2275.9</ele>
        <time>2026-03-03T08:55:13.000Z</time>
      </trkpt>
      <trkpt lat="44.83773" lon="6.757">
        <ele>2276</ele>
        <time>2026-03-03T08:55:14.000Z</time>
      </trkpt>
      <trkpt lat="44.83774" lon="6.75699">
        <ele>2276</ele>
        <time>2026-03-03T08:55:15.000Z</time>
      </trkpt>
      <trkpt lat="44.83775" lon="6.75699">
        <ele>2276</ele>
        <time>2026-03-03T08:55:16.000Z</time>
      </trkpt>
      <trkpt lat="44.83775" lon="6.75699">
        <ele>2276.1</ele>
        <time>2026-03-03T08:55:17.000Z</time>
      </trkpt>
      <trkpt lat="44.83776" lon="6.75699">
        <ele>2276.4</ele>
        <time>2026-03-03T08:55:18.000Z</time>
      </trkpt>
      <trkpt lat="44.83777" lon="6.75698">
        <ele>2276.7</ele>
        <time>2026-03-03T08:55:19.000Z</time>
      </trkpt>
      <trkpt lat="44.83778" lon="6.75698">
        <ele>2276.9</ele>
        <time>2026-03-03T08:55:20.000Z</time>
      </trkpt>
      <trkpt lat="44.83779" lon="6.75698">
        <ele>2277.3</ele>
        <time>2026-03-03T08:55:21.000Z</time>
      </trkpt>
      <trkpt lat="44.83779" lon="6.75698">
        <ele>2277.6</ele>
        <time>2026-03-03T08:55:22.000Z</time>
      </trkpt>
      <trkpt lat="44.8378" lon="6.75697">
        <ele>2277.7</ele>
        <time>2026-03-03T08:55:23.000Z</time>
      </trkpt>
      <trkpt lat="44.83781" lon="6.75697">
        <ele>2278</ele>
        <time>2026-03-03T08:55:24.000Z</time>
      </trkpt>
      <trkpt lat="44.83781" lon="6.75697">
        <ele>2278.2</ele>
        <time>2026-03-03T08:55:25.000Z</time>
      </trkpt>
      <trkpt lat="44.83781" lon="6.75697">
        <ele>2278.3</ele>
        <time>2026-03-03T08:55:26.000Z</time>
      </trkpt>
      <trkpt lat="44.83781" lon="6.75697">
        <ele>2278.6</ele>
        <time>2026-03-03T08:55:27.000Z</time>
      </trkpt>
      <trkpt lat="44.83782" lon="6.75697">
        <ele>2278.5</ele>
        <time>2026-03-03T08:55:28.000Z</time>
      </trkpt>
      <trkpt lat="44.83782" lon="6.75697">
        <ele>2278.5</ele>
        <time>2026-03-03T08:55:29.000Z</time>
      </trkpt>
      <trkpt lat="44.83782" lon="6.75697">
        <ele>2278.7</ele>
        <time>2026-03-03T08:55:30.000Z</time>
      </trkpt>
      <trkpt lat="44.83782" lon="6.75697">
        <ele>2278.8</ele>
        <time>2026-03-03T08:55:31.000Z</time>
      </trkpt>
      <trkpt lat="44.83782" lon="6.75697">
        <ele>2279</ele>
        <time>2026-03-03T08:55:32.000Z</time>
      </trkpt>
      <trkpt lat="44.83782" lon="6.75697">
        <ele>2279.1</ele>
        <time>2026-03-03T08:55:33.000Z</time>
      </trkpt>
      <trkpt lat="44.83782" lon="6.75697">
        <ele>2279.1</ele>
        <time>2026-03-03T08:55:34.000Z</time>
      </trkpt>
      <trkpt lat="44.83783" lon="6.75697">
        <ele>2279</ele>
        <time>2026-03-03T08:55:35.000Z</time>
      </trkpt>
      <trkpt lat="44.83784" lon="6.75697">
        <ele>2279</ele>
        <time>2026-03-03T08:55:36.000Z</time>
      </trkpt>
      <trkpt lat="44.83785" lon="6.75697">
        <ele>2278.9</ele>
        <time>2026-03-03T08:55:37.000Z</time>
      </trkpt>
      <trkpt lat="44.83786" lon="6.75697">
        <ele>2279.1</ele>
        <time>2026-03-03T08:55:38.000Z</time>
      </trkpt>
      <trkpt lat="44.83786" lon="6.75697">
        <ele>2279.3</ele>
        <time>2026-03-03T08:55:39.000Z</time>
      </trkpt>
      <trkpt lat="44.83787" lon="6.75697">
        <ele>2279.5</ele>
        <time>2026-03-03T08:55:40.000Z</time>
      </trkpt>
      <trkpt lat="44.83788" lon="6.75697">
        <ele>2279.7</ele>
        <time>2026-03-03T08:55:41.000Z</time>
      </trkpt>
      <trkpt lat="44.83789" lon="6.75697">
        <ele>2279.9</ele>
        <time>2026-03-03T08:55:42.000Z</time>
      </trkpt>
      <trkpt lat="44.8379" lon="6.75697">
        <ele>2279.8</ele>
        <time>2026-03-03T08:55:43.000Z</time>
      </trkpt>
      <trkpt lat="44.8379" lon="6.75697">
        <ele>2279.9</ele>
        <time>2026-03-03T08:55:44.000Z</time>
      </trkpt>
      <trkpt lat="44.8379" lon="6.75696">
        <ele>2280.2</ele>
        <time>2026-03-03T08:55:45.000Z</time>
      </trkpt>
      <trkpt lat="44.83791" lon="6.75696">
        <ele>2280.4</ele>
        <time>2026-03-03T08:55:46.000Z</time>
      </trkpt>
      <trkpt lat="44.83792" lon="6.75697">
        <ele>2280.4</ele>
        <time>2026-03-03T08:55:47.000Z</time>
      </trkpt>
      <trkpt lat="44.83793" lon="6.75697">
        <ele>2280.6</ele>
        <time>2026-03-03T08:55:48.000Z</time>
      </trkpt>
      <trkpt lat="44.83793" lon="6.75697">
        <ele>2281.1</ele>
        <time>2026-03-03T08:55:49.000Z</time>
      </trkpt>
      <trkpt lat="44.83794" lon="6.75697">
        <ele>2281.3</ele>
        <time>2026-03-03T08:55:50.000Z</time>
      </trkpt>
      <trkpt lat="44.83794" lon="6.75697">
        <ele>2281.4</ele>
        <time>2026-03-03T08:55:51.000Z</time>
      </trkpt>
      <trkpt lat="44.83795" lon="6.75697">
        <ele>2281.7</ele>
        <time>2026-03-03T08:55:52.000Z</time>
      </trkpt>
      <trkpt lat="44.83796" lon="6.75698">
        <ele>2281.7</ele>
        <time>2026-03-03T08:55:53.000Z</time>
      </trkpt>
      <trkpt lat="44.83796" lon="6.75697">
        <ele>2281.8</ele>
        <time>2026-03-03T08:55:54.000Z</time>
      </trkpt>
      <trkpt lat="44.83797" lon="6.75697">
        <ele>2281.9</ele>
        <time>2026-03-03T08:55:55.000Z</time>
      </trkpt>
      <trkpt lat="44.83797" lon="6.75697">
        <ele>2282</ele>
        <time>2026-03-03T08:55:56.000Z</time>
      </trkpt>
      <trkpt lat="44.83799" lon="6.75697">
        <ele>2282</ele>
        <time>2026-03-03T08:55:57.000Z</time>
      </trkpt>
      <trkpt lat="44.838" lon="6.75697">
        <ele>2281.9</ele>
        <time>2026-03-03T08:55:58.000Z</time>
      </trkpt>
      <trkpt lat="44.83801" lon="6.75698">
        <ele>2281.8</ele>
        <time>2026-03-03T08:55:59.000Z</time>
      </trkpt>
      <trkpt lat="44.83801" lon="6.75698">
        <ele>2281.9</ele>
        <time>2026-03-03T08:56:00.000Z</time>
      </trkpt>
      <trkpt lat="44.83802" lon="6.75698">
        <ele>2282</ele>
        <time>2026-03-03T08:56:01.000Z</time>
      </trkpt>
      <trkpt lat="44.83802" lon="6.75698">
        <ele>2281.9</ele>
        <time>2026-03-03T08:56:02.000Z</time>
      </trkpt>
      <trkpt lat="44.83803" lon="6.75698">
        <ele>2282</ele>
        <time>2026-03-03T08:56:03.000Z</time>
      </trkpt>
      <trkpt lat="44.83804" lon="6.75699">
        <ele>2282</ele>
        <time>2026-03-03T08:56:04.000Z</time>
      </trkpt>
      <trkpt lat="44.83805" lon="6.75699">
        <ele>2282.1</ele>
        <time>2026-03-03T08:56:05.000Z</time>
      </trkpt>
      <trkpt lat="44.83806" lon="6.75699">
        <ele>2282</ele>
        <time>2026-03-03T08:56:06.000Z</time>
      </trkpt>
      <trkpt lat="44.83806" lon="6.75699">
        <ele>2282</ele>
        <time>2026-03-03T08:56:07.000Z</time>
      </trkpt>
      <trkpt lat="44.83807" lon="6.75699">
        <ele>2282</ele>
        <time>2026-03-03T08:56:08.000Z</time>
      </trkpt>
      <trkpt lat="44.83807" lon="6.75699">
        <ele>2282</ele>
        <time>2026-03-03T08:56:09.000Z</time>
      </trkpt>
      <trkpt lat="44.83808" lon="6.75699">
        <ele>2282.3</ele>
        <time>2026-03-03T08:56:10.000Z</time>
      </trkpt>
      <trkpt lat="44.83809" lon="6.75699">
        <ele>2282.7</ele>
        <time>2026-03-03T08:56:11.000Z</time>
      </trkpt>
      <trkpt lat="44.8381" lon="6.75699">
        <ele>2282.9</ele>
        <time>2026-03-03T08:56:12.000Z</time>
      </trkpt>
      <trkpt lat="44.8381" lon="6.757">
        <ele>2283.1</ele>
        <time>2026-03-03T08:56:13.000Z</time>
      </trkpt>
      <trkpt lat="44.83811" lon="6.757">
        <ele>2283.2</ele>
        <time>2026-03-03T08:56:14.000Z</time>
      </trkpt>
      <trkpt lat="44.83811" lon="6.757">
        <ele>2283.2</ele>
        <time>2026-03-03T08:56:15.000Z</time>
      </trkpt>
      <trkpt lat="44.83811" lon="6.757">
        <ele>2283.5</ele>
        <time>2026-03-03T08:56:16.000Z</time>
      </trkpt>
      <trkpt lat="44.83812" lon="6.75701">
        <ele>2283.7</ele>
        <time>2026-03-03T08:56:17.000Z</time>
      </trkpt>
      <trkpt lat="44.83812" lon="6.75701">
        <ele>2284.1</ele>
        <time>2026-03-03T08:56:18.000Z</time>
      </trkpt>
      <trkpt lat="44.83813" lon="6.75701">
        <ele>2284.7</ele>
        <time>2026-03-03T08:56:19.000Z</time>
      </trkpt>
      <trkpt lat="44.83813" lon="6.757">
        <ele>2285.2</ele>
        <time>2026-03-03T08:56:20.000Z</time>
      </trkpt>
      <trkpt lat="44.83814" lon="6.757">
        <ele>2285.5</ele>
        <time>2026-03-03T08:56:21.000Z</time>
      </trkpt>
      <trkpt lat="44.83814" lon="6.75699">
        <ele>2285.6</ele>
        <time>2026-03-03T08:56:22.000Z</time>
      </trkpt>
      <trkpt lat="44.83815" lon="6.75699">
        <ele>2286</ele>
        <time>2026-03-03T08:56:23.000Z</time>
      </trkpt>
      <trkpt lat="44.83815" lon="6.75699">
        <ele>2286.2</ele>
        <time>2026-03-03T08:56:24.000Z</time>
      </trkpt>
      <trkpt lat="44.83816" lon="6.757">
        <ele>2286.4</ele>
        <time>2026-03-03T08:56:25.000Z</time>
      </trkpt>
      <trkpt lat="44.83817" lon="6.757">
        <ele>2286.8</ele>
        <time>2026-03-03T08:56:26.000Z</time>
      </trkpt>
      <trkpt lat="44.83818" lon="6.75699">
        <ele>2286.6</ele>
        <time>2026-03-03T08:56:27.000Z</time>
      </trkpt>
      <trkpt lat="44.83818" lon="6.75698">
        <ele>2286.8</ele>
        <time>2026-03-03T08:56:28.000Z</time>
      </trkpt>
      <trkpt lat="44.83818" lon="6.75698">
        <ele>2286.9</ele>
        <time>2026-03-03T08:56:29.000Z</time>
      </trkpt>
      <trkpt lat="44.83819" lon="6.75698">
        <ele>2286.6</ele>
        <time>2026-03-03T08:56:30.000Z</time>
      </trkpt>
      <trkpt lat="44.83819" lon="6.75698">
        <ele>2286.9</ele>
        <time>2026-03-03T08:56:31.000Z</time>
      </trkpt>
      <trkpt lat="44.8382" lon="6.75697">
        <ele>2287.2</ele>
        <time>2026-03-03T08:56:32.000Z</time>
      </trkpt>
      <trkpt lat="44.8382" lon="6.75697">
        <ele>2287.4</ele>
        <time>2026-03-03T08:56:33.000Z</time>
      </trkpt>
      <trkpt lat="44.8382" lon="6.75697">
        <ele>2287.7</ele>
        <time>2026-03-03T08:56:34.000Z</time>
      </trkpt>
      <trkpt lat="44.83821" lon="6.75698">
        <ele>2287.9</ele>
        <time>2026-03-03T08:56:35.000Z</time>
      </trkpt>
      <trkpt lat="44.83822" lon="6.75698">
        <ele>2287.9</ele>
        <time>2026-03-03T08:56:36.000Z</time>
      </trkpt>
      <trkpt lat="44.83823" lon="6.75698">
        <ele>2288</ele>
        <time>2026-03-03T08:56:37.000Z</time>
      </trkpt>
      <trkpt lat="44.83824" lon="6.75698">
        <ele>2288.1</ele>
        <time>2026-03-03T08:56:38.000Z</time>
      </trkpt>
      <trkpt lat="44.83825" lon="6.75699">
        <ele>2288.4</ele>
        <time>2026-03-03T08:56:39.000Z</time>
      </trkpt>
      <trkpt lat="44.83825" lon="6.75699">
        <ele>2288.5</ele>
        <time>2026-03-03T08:56:40.000Z</time>
      </trkpt>
      <trkpt lat="44.83826" lon="6.757">
        <ele>2288.4</ele>
        <time>2026-03-03T08:56:41.000Z</time>
      </trkpt>
      <trkpt lat="44.83826" lon="6.75701">
        <ele>2288.5</ele>
        <time>2026-03-03T08:56:42.000Z</time>
      </trkpt>
      <trkpt lat="44.83826" lon="6.75702">
        <ele>2288.4</ele>
        <time>2026-03-03T08:56:43.000Z</time>
      </trkpt>
      <trkpt lat="44.83827" lon="6.75703">
        <ele>2288.5</ele>
        <time>2026-03-03T08:56:44.000Z</time>
      </trkpt>
      <trkpt lat="44.83827" lon="6.75704">
        <ele>2288.6</ele>
        <time>2026-03-03T08:56:45.000Z</time>
      </trkpt>
      <trkpt lat="44.83827" lon="6.75705">
        <ele>2288.7</ele>
        <time>2026-03-03T08:56:46.000Z</time>
      </trkpt>
      <trkpt lat="44.83828" lon="6.75706">
        <ele>2288.7</ele>
        <time>2026-03-03T08:56:47.000Z</time>
      </trkpt>
      <trkpt lat="44.83828" lon="6.75707">
        <ele>2288.7</ele>
        <time>2026-03-03T08:56:48.000Z</time>
      </trkpt>
      <trkpt lat="44.83828" lon="6.75708">
        <ele>2288.7</ele>
        <time>2026-03-03T08:56:49.000Z</time>
      </trkpt>
      <trkpt lat="44.83828" lon="6.7571">
        <ele>2288.7</ele>
        <time>2026-03-03T08:56:50.000Z</time>
      </trkpt>
      <trkpt lat="44.83829" lon="6.75711">
        <ele>2288.8</ele>
        <time>2026-03-03T08:56:51.000Z</time>
      </trkpt>
      <trkpt lat="44.83829" lon="6.75712">
        <ele>2288.8</ele>
        <time>2026-03-03T08:56:52.000Z</time>
      </trkpt>
      <trkpt lat="44.83829" lon="6.75713">
        <ele>2288.7</ele>
        <time>2026-03-03T08:56:53.000Z</time>
      </trkpt>
      <trkpt lat="44.83829" lon="6.75714">
        <ele>2288.4</ele>
        <time>2026-03-03T08:56:54.000Z</time>
      </trkpt>
      <trkpt lat="44.83829" lon="6.75715">
        <ele>2288.3</ele>
        <time>2026-03-03T08:56:55.000Z</time>
      </trkpt>
      <trkpt lat="44.83829" lon="6.75717">
        <ele>2288</ele>
        <time>2026-03-03T08:56:56.000Z</time>
      </trkpt>
      <trkpt lat="44.83829" lon="6.75719">
        <ele>2288.1</ele>
        <time>2026-03-03T08:56:57.000Z</time>
      </trkpt>
      <trkpt lat="44.83829" lon="6.7572">
        <ele>2288</ele>
        <time>2026-03-03T08:56:58.000Z</time>
      </trkpt>
      <trkpt lat="44.83829" lon="6.75721">
        <ele>2288.1</ele>
        <time>2026-03-03T08:56:59.000Z</time>
      </trkpt>
      <trkpt lat="44.83828" lon="6.75722">
        <ele>2288.1</ele>
        <time>2026-03-03T08:57:00.000Z</time>
      </trkpt>
      <trkpt lat="44.83828" lon="6.75723">
        <ele>2288.2</ele>
        <time>2026-03-03T08:57:01.000Z</time>
      </trkpt>
      <trkpt lat="44.83827" lon="6.75724">
        <ele>2288.4</ele>
        <time>2026-03-03T08:57:02.000Z</time>
      </trkpt>
      <trkpt lat="44.83827" lon="6.75726">
        <ele>2288.8</ele>
        <time>2026-03-03T08:57:03.000Z</time>
      </trkpt>
      <trkpt lat="44.83827" lon="6.75727">
        <ele>2289</ele>
        <time>2026-03-03T08:57:04.000Z</time>
      </trkpt>
      <trkpt lat="44.83827" lon="6.75727">
        <ele>2289.1</ele>
        <time>2026-03-03T08:57:05.000Z</time>
      </trkpt>
      <trkpt lat="44.83827" lon="6.75727">
        <ele>2289.5</ele>
        <time>2026-03-03T08:57:06.000Z</time>
      </trkpt>
      <trkpt lat="44.83827" lon="6.75728">
        <ele>2289.7</ele>
        <time>2026-03-03T08:57:07.000Z</time>
      </trkpt>
      <trkpt lat="44.83827" lon="6.75728">
        <ele>2289.8</ele>
        <time>2026-03-03T08:57:08.000Z</time>
      </trkpt>
      <trkpt lat="44.83827" lon="6.75729">
        <ele>2289.9</ele>
        <time>2026-03-03T08:57:09.000Z</time>
      </trkpt>
      <trkpt lat="44.83827" lon="6.75729">
        <ele>2289.7</ele>
        <time>2026-03-03T08:57:10.000Z</time>
      </trkpt>
      <trkpt lat="44.83828" lon="6.7573">
        <ele>2289.5</ele>
        <time>2026-03-03T08:57:11.000Z</time>
      </trkpt>
      <trkpt lat="44.83828" lon="6.75731">
        <ele>2289.5</ele>
        <time>2026-03-03T08:57:12.000Z</time>
      </trkpt>
      <trkpt lat="44.83828" lon="6.75731">
        <ele>2289.6</ele>
        <time>2026-03-03T08:57:13.000Z</time>
      </trkpt>
      <trkpt lat="44.83828" lon="6.75732">
        <ele>2289.6</ele>
        <time>2026-03-03T08:57:14.000Z</time>
      </trkpt>
      <trkpt lat="44.83827" lon="6.75733">
        <ele>2289.6</ele>
        <time>2026-03-03T08:57:15.000Z</time>
      </trkpt>
      <trkpt lat="44.83827" lon="6.75734">
        <ele>2289.7</ele>
        <time>2026-03-03T08:57:16.000Z</time>
      </trkpt>
      <trkpt lat="44.83827" lon="6.75735">
        <ele>2289.9</ele>
        <time>2026-03-03T08:57:17.000Z</time>
      </trkpt>
      <trkpt lat="44.83827" lon="6.75736">
        <ele>2289.8</ele>
        <time>2026-03-03T08:57:18.000Z</time>
      </trkpt>
      <trkpt lat="44.83827" lon="6.75737">
        <ele>2289.8</ele>
        <time>2026-03-03T08:57:19.000Z</time>
      </trkpt>
      <trkpt lat="44.83827" lon="6.75738">
        <ele>2290</ele>
        <time>2026-03-03T08:57:20.000Z</time>
      </trkpt>
      <trkpt lat="44.83827" lon="6.75739">
        <ele>2290.2</ele>
        <time>2026-03-03T08:57:21.000Z</time>
      </trkpt>
      <trkpt lat="44.83827" lon="6.7574">
        <ele>2290.5</ele>
        <time>2026-03-03T08:57:22.000Z</time>
      </trkpt>
      <trkpt lat="44.83827" lon="6.75741">
        <ele>2290.6</ele>
        <time>2026-03-03T08:57:23.000Z</time>
      </trkpt>
      <trkpt lat="44.83826" lon="6.75742">
        <ele>2290.6</ele>
        <time>2026-03-03T08:57:24.000Z</time>
      </trkpt>
      <trkpt lat="44.83826" lon="6.75743">
        <ele>2290.7</ele>
        <time>2026-03-03T08:57:25.000Z</time>
      </trkpt>
      <trkpt lat="44.83826" lon="6.75743">
        <ele>2290.9</ele>
        <time>2026-03-03T08:57:26.000Z</time>
      </trkpt>
      <trkpt lat="44.83826" lon="6.75744">
        <ele>2291.1</ele>
        <time>2026-03-03T08:57:27.000Z</time>
      </trkpt>
      <trkpt lat="44.83826" lon="6.75744">
        <ele>2291.2</ele>
        <time>2026-03-03T08:57:28.000Z</time>
      </trkpt>
      <trkpt lat="44.83826" lon="6.75745">
        <ele>2291.1</ele>
        <time>2026-03-03T08:57:29.000Z</time>
      </trkpt>
      <trkpt lat="44.83826" lon="6.75745">
        <ele>2291</ele>
        <time>2026-03-03T08:57:30.000Z</time>
      </trkpt>
      <trkpt lat="44.83826" lon="6.75746">
        <ele>2291.2</ele>
        <time>2026-03-03T08:57:31.000Z</time>
      </trkpt>
      <trkpt lat="44.83825" lon="6.75747">
        <ele>2291.2</ele>
        <time>2026-03-03T08:57:32.000Z</time>
      </trkpt>
      <trkpt lat="44.83825" lon="6.75748">
        <ele>2291.3</ele>
        <time>2026-03-03T08:57:33.000Z</time>
      </trkpt>
      <trkpt lat="44.83825" lon="6.75748">
        <ele>2291.4</ele>
        <time>2026-03-03T08:57:34.000Z</time>
      </trkpt>
      <trkpt lat="44.83826" lon="6.75748">
        <ele>2291.8</ele>
        <time>2026-03-03T08:57:35.000Z</time>
      </trkpt>
      <trkpt lat="44.83826" lon="6.75749">
        <ele>2291.8</ele>
        <time>2026-03-03T08:57:36.000Z</time>
      </trkpt>
      <trkpt lat="44.83826" lon="6.7575">
        <ele>2292.1</ele>
        <time>2026-03-03T08:57:37.000Z</time>
      </trkpt>
      <trkpt lat="44.83826" lon="6.7575">
        <ele>2292.4</ele>
        <time>2026-03-03T08:57:38.000Z</time>
      </trkpt>
      <trkpt lat="44.83826" lon="6.7575">
        <ele>2292.6</ele>
        <time>2026-03-03T08:57:39.000Z</time>
      </trkpt>
      <trkpt lat="44.83826" lon="6.75751">
        <ele>2292.7</ele>
        <time>2026-03-03T08:57:40.000Z</time>
      </trkpt>
      <trkpt lat="44.83826" lon="6.75751">
        <ele>2292.8</ele>
        <time>2026-03-03T08:57:41.000Z</time>
      </trkpt>
      <trkpt lat="44.83826" lon="6.75751">
        <ele>2293</ele>
        <time>2026-03-03T08:57:42.000Z</time>
      </trkpt>
      <trkpt lat="44.83826" lon="6.75752">
        <ele>2293.3</ele>
        <time>2026-03-03T08:57:43.000Z</time>
      </trkpt>
      <trkpt lat="44.83827" lon="6.75753">
        <ele>2293.5</ele>
        <time>2026-03-03T08:57:44.000Z</time>
      </trkpt>
      <trkpt lat="44.83827" lon="6.75754">
        <ele>2293.6</ele>
        <time>2026-03-03T08:57:45.000Z</time>
      </trkpt>
      <trkpt lat="44.83828" lon="6.75755">
        <ele>2293.7</ele>
        <time>2026-03-03T08:57:46.000Z</time>
      </trkpt>
      <trkpt lat="44.83828" lon="6.75756">
        <ele>2293.6</ele>
        <time>2026-03-03T08:57:47.000Z</time>
      </trkpt>
      <trkpt lat="44.83829" lon="6.75757">
        <ele>2293.7</ele>
        <time>2026-03-03T08:57:48.000Z</time>
      </trkpt>
      <trkpt lat="44.83829" lon="6.75758">
        <ele>2293.9</ele>
        <time>2026-03-03T08:57:49.000Z</time>
      </trkpt>
      <trkpt lat="44.83829" lon="6.75759">
        <ele>2293.7</ele>
        <time>2026-03-03T08:57:50.000Z</time>
      </trkpt>
      <trkpt lat="44.83829" lon="6.75759">
        <ele>2293.8</ele>
        <time>2026-03-03T08:57:51.000Z</time>
      </trkpt>
      <trkpt lat="44.83829" lon="6.7576">
        <ele>2294</ele>
        <time>2026-03-03T08:57:52.000Z</time>
      </trkpt>
      <trkpt lat="44.83829" lon="6.75762">
        <ele>2294.4</ele>
        <time>2026-03-03T08:57:53.999Z</time>
      </trkpt>
      <trkpt lat="44.83829" lon="6.75763">
        <ele>2294.5</ele>
        <time>2026-03-03T08:57:54.999Z</time>
      </trkpt>
      <trkpt lat="44.83829" lon="6.75764">
        <ele>2294.6</ele>
        <time>2026-03-03T08:57:55.999Z</time>
      </trkpt>
      <trkpt lat="44.83829" lon="6.75765">
        <ele>2294.9</ele>
        <time>2026-03-03T08:57:56.999Z</time>
      </trkpt>
      <trkpt lat="44.83829" lon="6.75766">
        <ele>2295.3</ele>
        <time>2026-03-03T08:57:57.999Z</time>
      </trkpt>
      <trkpt lat="44.83829" lon="6.75767">
        <ele>2295.2</ele>
        <time>2026-03-03T08:57:58.999Z</time>
      </trkpt>
      <trkpt lat="44.83829" lon="6.75768">
        <ele>2295.2</ele>
        <time>2026-03-03T08:57:59.999Z</time>
      </trkpt>
      <trkpt lat="44.83829" lon="6.75768">
        <ele>2295.4</ele>
        <time>2026-03-03T08:58:00.999Z</time>
      </trkpt>
      <trkpt lat="44.83829" lon="6.75769">
        <ele>2295.7</ele>
        <time>2026-03-03T08:58:01.999Z</time>
      </trkpt>
      <trkpt lat="44.83829" lon="6.75769">
        <ele>2295.9</ele>
        <time>2026-03-03T08:58:02.999Z</time>
      </trkpt>
      <trkpt lat="44.83829" lon="6.75769">
        <ele>2295.9</ele>
        <time>2026-03-03T08:58:03.999Z</time>
      </trkpt>
      <trkpt lat="44.83828" lon="6.7577">
        <ele>2295.9</ele>
        <time>2026-03-03T08:58:04.999Z</time>
      </trkpt>
      <trkpt lat="44.83828" lon="6.7577">
        <ele>2296</ele>
        <time>2026-03-03T08:58:05.999Z</time>
      </trkpt>
      <trkpt lat="44.83828" lon="6.75771">
        <ele>2296.2</ele>
        <time>2026-03-03T08:58:06.999Z</time>
      </trkpt>
      <trkpt lat="44.83828" lon="6.75771">
        <ele>2296.3</ele>
        <time>2026-03-03T08:58:07.999Z</time>
      </trkpt>
      <trkpt lat="44.83827" lon="6.75772">
        <ele>2296.4</ele>
        <time>2026-03-03T08:58:08.999Z</time>
      </trkpt>
      <trkpt lat="44.83827" lon="6.75772">
        <ele>2296.5</ele>
        <time>2026-03-03T08:58:09.999Z</time>
      </trkpt>
      <trkpt lat="44.83827" lon="6.75773">
        <ele>2296.5</ele>
        <time>2026-03-03T08:58:10.999Z</time>
      </trkpt>
      <trkpt lat="44.83827" lon="6.75773">
        <ele>2296.5</ele>
        <time>2026-03-03T08:58:11.999Z</time>
      </trkpt>
      <trkpt lat="44.83826" lon="6.75773">
        <ele>2296.5</ele>
        <time>2026-03-03T08:58:12.999Z</time>
      </trkpt>
      <trkpt lat="44.83826" lon="6.75774">
        <ele>2296.6</ele>
        <time>2026-03-03T08:58:13.999Z</time>
      </trkpt>
      <trkpt lat="44.83826" lon="6.75774">
        <ele>2296.8</ele>
        <time>2026-03-03T08:58:14.999Z</time>
      </trkpt>
      <trkpt lat="44.83825" lon="6.75774">
        <ele>2297</ele>
        <time>2026-03-03T08:58:15.999Z</time>
      </trkpt>
      <trkpt lat="44.83825" lon="6.75775">
        <ele>2297.2</ele>
        <time>2026-03-03T08:58:16.999Z</time>
      </trkpt>
      <trkpt lat="44.83824" lon="6.75775">
        <ele>2297.3</ele>
        <time>2026-03-03T08:58:17.999Z</time>
      </trkpt>
      <trkpt lat="44.83823" lon="6.75776">
        <ele>2297.4</ele>
        <time>2026-03-03T08:58:18.999Z</time>
      </trkpt>
      <trkpt lat="44.83823" lon="6.75777">
        <ele>2297.6</ele>
        <time>2026-03-03T08:58:19.999Z</time>
      </trkpt>
      <trkpt lat="44.83823" lon="6.75777">
        <ele>2297.7</ele>
        <time>2026-03-03T08:58:20.999Z</time>
      </trkpt>
      <trkpt lat="44.83823" lon="6.75778">
        <ele>2297.7</ele>
        <time>2026-03-03T08:58:21.999Z</time>
      </trkpt>
      <trkpt lat="44.83822" lon="6.75778">
        <ele>2297.9</ele>
        <time>2026-03-03T08:58:22.999Z</time>
      </trkpt>
      <trkpt lat="44.83822" lon="6.75779">
        <ele>2298</ele>
        <time>2026-03-03T08:58:23.999Z</time>
      </trkpt>
      <trkpt lat="44.83823" lon="6.75784">
        <ele>2301.6</ele>
        <time>2026-03-03T08:58:37.999Z</time>
      </trkpt>
      <trkpt lat="44.83823" lon="6.75785">
        <ele>2301.9</ele>
        <time>2026-03-03T08:58:38.999Z</time>
      </trkpt>
      <trkpt lat="44.83824" lon="6.75786">
        <ele>2302.2</ele>
        <time>2026-03-03T08:58:39.999Z</time>
      </trkpt>
      <trkpt lat="44.83824" lon="6.75786">
        <ele>2302.5</ele>
        <time>2026-03-03T08:58:40.999Z</time>
      </trkpt>
      <trkpt lat="44.83824" lon="6.75787">
        <ele>2302.7</ele>
        <time>2026-03-03T08:58:41.999Z</time>
      </trkpt>
      <trkpt lat="44.83824" lon="6.75787">
        <ele>2302.9</ele>
        <time>2026-03-03T08:58:42.999Z</time>
      </trkpt>
      <trkpt lat="44.83825" lon="6.75789">
        <ele>2303.2</ele>
        <time>2026-03-03T08:58:43.999Z</time>
      </trkpt>
      <trkpt lat="44.83825" lon="6.7579">
        <ele>2303.3</ele>
        <time>2026-03-03T08:58:44.999Z</time>
      </trkpt>
      <trkpt lat="44.83826" lon="6.75791">
        <ele>2303.6</ele>
        <time>2026-03-03T08:58:45.999Z</time>
      </trkpt>
      <trkpt lat="44.83827" lon="6.75793">
        <ele>2303.8</ele>
        <time>2026-03-03T08:58:46.999Z</time>
      </trkpt>
      <trkpt lat="44.83827" lon="6.75793">
        <ele>2304</ele>
        <time>2026-03-03T08:58:47.999Z</time>
      </trkpt>
      <trkpt lat="44.83828" lon="6.75794">
        <ele>2304.2</ele>
        <time>2026-03-03T08:58:48.999Z</time>
      </trkpt>
      <trkpt lat="44.83829" lon="6.75795">
        <ele>2304.3</ele>
        <time>2026-03-03T08:58:49.999Z</time>
      </trkpt>
      <trkpt lat="44.83829" lon="6.75795">
        <ele>2304.5</ele>
        <time>2026-03-03T08:58:50.999Z</time>
      </trkpt>
      <trkpt lat="44.8383" lon="6.75796">
        <ele>2304.6</ele>
        <time>2026-03-03T08:58:51.999Z</time>
      </trkpt>
      <trkpt lat="44.8383" lon="6.75797">
        <ele>2304.8</ele>
        <time>2026-03-03T08:58:52.999Z</time>
      </trkpt>
      <trkpt lat="44.83831" lon="6.75798">
        <ele>2304.8</ele>
        <time>2026-03-03T08:58:53.999Z</time>
      </trkpt>
      <trkpt lat="44.83831" lon="6.75798">
        <ele>2304.9</ele>
        <time>2026-03-03T08:58:54.999Z</time>
      </trkpt>
      <trkpt lat="44.83832" lon="6.75799">
        <ele>2305</ele>
        <time>2026-03-03T08:58:55.999Z</time>
      </trkpt>
      <trkpt lat="44.83832" lon="6.758">
        <ele>2305.1</ele>
        <time>2026-03-03T08:58:56.999Z</time>
      </trkpt>
      <trkpt lat="44.83832" lon="6.758">
        <ele>2305.3</ele>
        <time>2026-03-03T08:58:57.999Z</time>
      </trkpt>
      <trkpt lat="44.83832" lon="6.75801">
        <ele>2305.4</ele>
        <time>2026-03-03T08:58:58.999Z</time>
      </trkpt>
      <trkpt lat="44.83833" lon="6.75801">
        <ele>2305.4</ele>
        <time>2026-03-03T08:58:59.999Z</time>
      </trkpt>
      <trkpt lat="44.83833" lon="6.75801">
        <ele>2305.5</ele>
        <time>2026-03-03T08:59:00.999Z</time>
      </trkpt>
      <trkpt lat="44.83833" lon="6.75802">
        <ele>2305.6</ele>
        <time>2026-03-03T08:59:01.999Z</time>
      </trkpt>
      <trkpt lat="44.83834" lon="6.75802">
        <ele>2305.3</ele>
        <time>2026-03-03T08:59:02.999Z</time>
      </trkpt>
      <trkpt lat="44.83834" lon="6.75803">
        <ele>2305.2</ele>
        <time>2026-03-03T08:59:03.999Z</time>
      </trkpt>
      <trkpt lat="44.83835" lon="6.75803">
        <ele>2305.3</ele>
        <time>2026-03-03T08:59:04.999Z</time>
      </trkpt>
      <trkpt lat="44.83835" lon="6.75804">
        <ele>2305.3</ele>
        <time>2026-03-03T08:59:05.999Z</time>
      </trkpt>
      <trkpt lat="44.83836" lon="6.75804">
        <ele>2305.3</ele>
        <time>2026-03-03T08:59:06.999Z</time>
      </trkpt>
      <trkpt lat="44.83836" lon="6.75805">
        <ele>2305.4</ele>
        <time>2026-03-03T08:59:07.999Z</time>
      </trkpt>
      <trkpt lat="44.83837" lon="6.75806">
        <ele>2305.3</ele>
        <time>2026-03-03T08:59:08.999Z</time>
      </trkpt>
      <trkpt lat="44.83837" lon="6.75806">
        <ele>2305.3</ele>
        <time>2026-03-03T08:59:09.999Z</time>
      </trkpt>
      <trkpt lat="44.83838" lon="6.75807">
        <ele>2305.3</ele>
        <time>2026-03-03T08:59:10.999Z</time>
      </trkpt>
      <trkpt lat="44.83839" lon="6.75808">
        <ele>2305.3</ele>
        <time>2026-03-03T08:59:11.999Z</time>
      </trkpt>
      <trkpt lat="44.8384" lon="6.75808">
        <ele>2305.5</ele>
        <time>2026-03-03T08:59:12.999Z</time>
      </trkpt>
      <trkpt lat="44.8384" lon="6.75809">
        <ele>2305.6</ele>
        <time>2026-03-03T08:59:13.999Z</time>
      </trkpt>
      <trkpt lat="44.8384" lon="6.75809">
        <ele>2305.9</ele>
        <time>2026-03-03T08:59:14.999Z</time>
      </trkpt>
      <trkpt lat="44.83841" lon="6.7581">
        <ele>2306.1</ele>
        <time>2026-03-03T08:59:15.999Z</time>
      </trkpt>
      <trkpt lat="44.83841" lon="6.7581">
        <ele>2306.6</ele>
        <time>2026-03-03T08:59:16.999Z</time>
      </trkpt>
      <trkpt lat="44.83841" lon="6.75811">
        <ele>2306.9</ele>
        <time>2026-03-03T08:59:17.999Z</time>
      </trkpt>
      <trkpt lat="44.83842" lon="6.75811">
        <ele>2307</ele>
        <time>2026-03-03T08:59:18.999Z</time>
      </trkpt>
      <trkpt lat="44.83842" lon="6.75812">
        <ele>2307.1</ele>
        <time>2026-03-03T08:59:19.999Z</time>
      </trkpt>
      <trkpt lat="44.83843" lon="6.75813">
        <ele>2307.3</ele>
        <time>2026-03-03T08:59:20.999Z</time>
      </trkpt>
      <trkpt lat="44.83843" lon="6.75814">
        <ele>2307.2</ele>
        <time>2026-03-03T08:59:21.999Z</time>
      </trkpt>
      <trkpt lat="44.83843" lon="6.75814">
        <ele>2307.1</ele>
        <time>2026-03-03T08:59:22.999Z</time>
      </trkpt>
      <trkpt lat="44.83844" lon="6.75815">
        <ele>2307.2</ele>
        <time>2026-03-03T08:59:23.999Z</time>
      </trkpt>
      <trkpt lat="44.83844" lon="6.75816">
        <ele>2307.7</ele>
        <time>2026-03-03T08:59:24.999Z</time>
      </trkpt>
      <trkpt lat="44.83844" lon="6.75817">
        <ele>2307.9</ele>
        <time>2026-03-03T08:59:25.999Z</time>
      </trkpt>
      <trkpt lat="44.83845" lon="6.75818">
        <ele>2308.1</ele>
        <time>2026-03-03T08:59:26.999Z</time>
      </trkpt>
      <trkpt lat="44.83845" lon="6.75819">
        <ele>2308.3</ele>
        <time>2026-03-03T08:59:27.999Z</time>
      </trkpt>
      <trkpt lat="44.83845" lon="6.7582">
        <ele>2308.4</ele>
        <time>2026-03-03T08:59:28.999Z</time>
      </trkpt>
      <trkpt lat="44.83845" lon="6.75821">
        <ele>2308.8</ele>
        <time>2026-03-03T08:59:29.999Z</time>
      </trkpt>
      <trkpt lat="44.83846" lon="6.75822">
        <ele>2309</ele>
        <time>2026-03-03T08:59:30.999Z</time>
      </trkpt>
      <trkpt lat="44.83846" lon="6.75823">
        <ele>2309.1</ele>
        <time>2026-03-03T08:59:31.999Z</time>
      </trkpt>
      <trkpt lat="44.83846" lon="6.75824">
        <ele>2309.1</ele>
        <time>2026-03-03T08:59:32.999Z</time>
      </trkpt>
      <trkpt lat="44.83846" lon="6.75825">
        <ele>2309</ele>
        <time>2026-03-03T08:59:33.999Z</time>
      </trkpt>
      <trkpt lat="44.83846" lon="6.75825">
        <ele>2309.1</ele>
        <time>2026-03-03T08:59:34.999Z</time>
      </trkpt>
      <trkpt lat="44.83847" lon="6.75826">
        <ele>2309.1</ele>
        <time>2026-03-03T08:59:35.999Z</time>
      </trkpt>
      <trkpt lat="44.83847" lon="6.75826">
        <ele>2309.2</ele>
        <time>2026-03-03T08:59:36.999Z</time>
      </trkpt>
      <trkpt lat="44.83847" lon="6.75827">
        <ele>2309.1</ele>
        <time>2026-03-03T08:59:37.999Z</time>
      </trkpt>
      <trkpt lat="44.83847" lon="6.75828">
        <ele>2309</ele>
        <time>2026-03-03T08:59:38.999Z</time>
      </trkpt>
      <trkpt lat="44.83847" lon="6.7583">
        <ele>2309.1</ele>
        <time>2026-03-03T08:59:39.999Z</time>
      </trkpt>
      <trkpt lat="44.83848" lon="6.75831">
        <ele>2309.3</ele>
        <time>2026-03-03T08:59:40.999Z</time>
      </trkpt>
      <trkpt lat="44.83848" lon="6.75832">
        <ele>2309.5</ele>
        <time>2026-03-03T08:59:41.999Z</time>
      </trkpt>
      <trkpt lat="44.83848" lon="6.75833">
        <ele>2309.5</ele>
        <time>2026-03-03T08:59:42.999Z</time>
      </trkpt>
      <trkpt lat="44.83848" lon="6.75834">
        <ele>2309.5</ele>
        <time>2026-03-03T08:59:43.999Z</time>
      </trkpt>
      <trkpt lat="44.83848" lon="6.75835">
        <ele>2309.6</ele>
        <time>2026-03-03T08:59:44.999Z</time>
      </trkpt>
      <trkpt lat="44.83848" lon="6.75836">
        <ele>2309.6</ele>
        <time>2026-03-03T08:59:45.999Z</time>
      </trkpt>
      <trkpt lat="44.83849" lon="6.75836">
        <ele>2309.4</ele>
        <time>2026-03-03T08:59:46.999Z</time>
      </trkpt>
      <trkpt lat="44.83849" lon="6.75837">
        <ele>2309.4</ele>
        <time>2026-03-03T08:59:47.999Z</time>
      </trkpt>
      <trkpt lat="44.83849" lon="6.75838">
        <ele>2309.6</ele>
        <time>2026-03-03T08:59:48.999Z</time>
      </trkpt>
      <trkpt lat="44.83849" lon="6.75838">
        <ele>2309.8</ele>
        <time>2026-03-03T08:59:49.999Z</time>
      </trkpt>
      <trkpt lat="44.83849" lon="6.75839">
        <ele>2309.7</ele>
        <time>2026-03-03T08:59:50.999Z</time>
      </trkpt>
      <trkpt lat="44.83849" lon="6.7584">
        <ele>2309.8</ele>
        <time>2026-03-03T08:59:51.999Z</time>
      </trkpt>
      <trkpt lat="44.83849" lon="6.75842">
        <ele>2310.1</ele>
        <time>2026-03-03T08:59:52.999Z</time>
      </trkpt>
      <trkpt lat="44.83849" lon="6.75843">
        <ele>2310.5</ele>
        <time>2026-03-03T08:59:53.999Z</time>
      </trkpt>
      <trkpt lat="44.8385" lon="6.75844">
        <ele>2310.7</ele>
        <time>2026-03-03T08:59:54.999Z</time>
      </trkpt>
      <trkpt lat="44.8385" lon="6.75845">
        <ele>2310.8</ele>
        <time>2026-03-03T08:59:55.999Z</time>
      </trkpt>
      <trkpt lat="44.8385" lon="6.75846">
        <ele>2310.9</ele>
        <time>2026-03-03T08:59:56.999Z</time>
      </trkpt>
      <trkpt lat="44.8385" lon="6.75846">
        <ele>2311.1</ele>
        <time>2026-03-03T08:59:57.999Z</time>
      </trkpt>
      <trkpt lat="44.8385" lon="6.75847">
        <ele>2311.3</ele>
        <time>2026-03-03T08:59:58.999Z</time>
      </trkpt>
      <trkpt lat="44.8385" lon="6.75848">
        <ele>2311.4</ele>
        <time>2026-03-03T08:59:59.999Z</time>
      </trkpt>
      <trkpt lat="44.83851" lon="6.75849">
        <ele>2311.3</ele>
        <time>2026-03-03T09:00:00.999Z</time>
      </trkpt>
      <trkpt lat="44.83851" lon="6.7585">
        <ele>2311.5</ele>
        <time>2026-03-03T09:00:01.999Z</time>
      </trkpt>
      <trkpt lat="44.83852" lon="6.75852">
        <ele>2311.7</ele>
        <time>2026-03-03T09:00:02.999Z</time>
      </trkpt>
      <trkpt lat="44.83852" lon="6.75853">
        <ele>2312</ele>
        <time>2026-03-03T09:00:03.999Z</time>
      </trkpt>
      <trkpt lat="44.83852" lon="6.75853">
        <ele>2312.3</ele>
        <time>2026-03-03T09:00:04.999Z</time>
      </trkpt>
      <trkpt lat="44.83852" lon="6.75854">
        <ele>2312.6</ele>
        <time>2026-03-03T09:00:05.999Z</time>
      </trkpt>
      <trkpt lat="44.83853" lon="6.75855">
        <ele>2312.6</ele>
        <time>2026-03-03T09:00:06.999Z</time>
      </trkpt>
      <trkpt lat="44.83853" lon="6.75855">
        <ele>2312.8</ele>
        <time>2026-03-03T09:00:07.999Z</time>
      </trkpt>
      <trkpt lat="44.83853" lon="6.75856">
        <ele>2313</ele>
        <time>2026-03-03T09:00:08.999Z</time>
      </trkpt>
      <trkpt lat="44.83853" lon="6.75856">
        <ele>2313.3</ele>
        <time>2026-03-03T09:00:09.999Z</time>
      </trkpt>
      <trkpt lat="44.83854" lon="6.75857">
        <ele>2313.5</ele>
        <time>2026-03-03T09:00:10.999Z</time>
      </trkpt>
      <trkpt lat="44.83854" lon="6.75858">
        <ele>2313.6</ele>
        <time>2026-03-03T09:00:11.999Z</time>
      </trkpt>
      <trkpt lat="44.83854" lon="6.75859">
        <ele>2313.7</ele>
        <time>2026-03-03T09:00:12.999Z</time>
      </trkpt>
      <trkpt lat="44.83854" lon="6.7586">
        <ele>2313.8</ele>
        <time>2026-03-03T09:00:13.999Z</time>
      </trkpt>
      <trkpt lat="44.83854" lon="6.75861">
        <ele>2313.8</ele>
        <time>2026-03-03T09:00:14.999Z</time>
      </trkpt>
      <trkpt lat="44.83855" lon="6.75861">
        <ele>2314</ele>
        <time>2026-03-03T09:00:15.999Z</time>
      </trkpt>
      <trkpt lat="44.83855" lon="6.75862">
        <ele>2314.1</ele>
        <time>2026-03-03T09:00:16.999Z</time>
      </trkpt>
      <trkpt lat="44.83855" lon="6.75863">
        <ele>2314.4</ele>
        <time>2026-03-03T09:00:17.999Z</time>
      </trkpt>
      <trkpt lat="44.83855" lon="6.75864">
        <ele>2314.6</ele>
        <time>2026-03-03T09:00:18.999Z</time>
      </trkpt>
      <trkpt lat="44.83855" lon="6.75864">
        <ele>2314.8</ele>
        <time>2026-03-03T09:00:19.999Z</time>
      </trkpt>
      <trkpt lat="44.83855" lon="6.75865">
        <ele>2315</ele>
        <time>2026-03-03T09:00:20.999Z</time>
      </trkpt>
      <trkpt lat="44.83855" lon="6.75865">
        <ele>2315</ele>
        <time>2026-03-03T09:00:21.999Z</time>
      </trkpt>
      <trkpt lat="44.83855" lon="6.75866">
        <ele>2315.1</ele>
        <time>2026-03-03T09:00:22.999Z</time>
      </trkpt>
      <trkpt lat="44.83856" lon="6.75867">
        <ele>2315</ele>
        <time>2026-03-03T09:00:23.999Z</time>
      </trkpt>
      <trkpt lat="44.83856" lon="6.75867">
        <ele>2315</ele>
        <time>2026-03-03T09:00:24.999Z</time>
      </trkpt>
      <trkpt lat="44.83856" lon="6.75867">
        <ele>2315.2</ele>
        <time>2026-03-03T09:00:25.999Z</time>
      </trkpt>
      <trkpt lat="44.83856" lon="6.75868">
        <ele>2315.2</ele>
        <time>2026-03-03T09:00:26.999Z</time>
      </trkpt>
      <trkpt lat="44.83856" lon="6.75868">
        <ele>2315.2</ele>
        <time>2026-03-03T09:00:27.999Z</time>
      </trkpt>
      <trkpt lat="44.83856" lon="6.75869">
        <ele>2315.2</ele>
        <time>2026-03-03T09:00:28.999Z</time>
      </trkpt>
      <trkpt lat="44.83856" lon="6.75869">
        <ele>2315.2</ele>
        <time>2026-03-03T09:00:29.999Z</time>
      </trkpt>
      <trkpt lat="44.83857" lon="6.7587">
        <ele>2315.4</ele>
        <time>2026-03-03T09:00:30.999Z</time>
      </trkpt>
      <trkpt lat="44.83857" lon="6.75872">
        <ele>2315.4</ele>
        <time>2026-03-03T09:00:31.999Z</time>
      </trkpt>
      <trkpt lat="44.83857" lon="6.75873">
        <ele>2315.4</ele>
        <time>2026-03-03T09:00:32.999Z</time>
      </trkpt>
      <trkpt lat="44.83858" lon="6.75874">
        <ele>2315.5</ele>
        <time>2026-03-03T09:00:33.999Z</time>
      </trkpt>
      <trkpt lat="44.83858" lon="6.75875">
        <ele>2315.6</ele>
        <time>2026-03-03T09:00:34.999Z</time>
      </trkpt>
      <trkpt lat="44.83858" lon="6.75876">
        <ele>2315.9</ele>
        <time>2026-03-03T09:00:35.999Z</time>
      </trkpt>
      <trkpt lat="44.83858" lon="6.75877">
        <ele>2316.1</ele>
        <time>2026-03-03T09:00:36.999Z</time>
      </trkpt>
      <trkpt lat="44.83858" lon="6.75878">
        <ele>2316.3</ele>
        <time>2026-03-03T09:00:37.999Z</time>
      </trkpt>
      <trkpt lat="44.83859" lon="6.75879">
        <ele>2316.4</ele>
        <time>2026-03-03T09:00:38.999Z</time>
      </trkpt>
      <trkpt lat="44.83859" lon="6.7588">
        <ele>2316.6</ele>
        <time>2026-03-03T09:00:39.999Z</time>
      </trkpt>
      <trkpt lat="44.83859" lon="6.75881">
        <ele>2316.9</ele>
        <time>2026-03-03T09:00:40.999Z</time>
      </trkpt>
      <trkpt lat="44.83859" lon="6.75881">
        <ele>2316.9</ele>
        <time>2026-03-03T09:00:41.999Z</time>
      </trkpt>
      <trkpt lat="44.83859" lon="6.75882">
        <ele>2317.1</ele>
        <time>2026-03-03T09:00:42.999Z</time>
      </trkpt>
      <trkpt lat="44.83859" lon="6.75883">
        <ele>2317</ele>
        <time>2026-03-03T09:00:43.999Z</time>
      </trkpt>
      <trkpt lat="44.83859" lon="6.75884">
        <ele>2317</ele>
        <time>2026-03-03T09:00:44.999Z</time>
      </trkpt>
      <trkpt lat="44.83858" lon="6.75885">
        <ele>2317.2</ele>
        <time>2026-03-03T09:00:45.999Z</time>
      </trkpt>
      <trkpt lat="44.83858" lon="6.75885">
        <ele>2317.5</ele>
        <time>2026-03-03T09:00:46.999Z</time>
      </trkpt>
      <trkpt lat="44.83858" lon="6.75886">
        <ele>2317.6</ele>
        <time>2026-03-03T09:00:47.999Z</time>
      </trkpt>
      <trkpt lat="44.83858" lon="6.75886">
        <ele>2317.6</ele>
        <time>2026-03-03T09:00:48.999Z</time>
      </trkpt>
      <trkpt lat="44.83858" lon="6.75887">
        <ele>2317.8</ele>
        <time>2026-03-03T09:00:49.999Z</time>
      </trkpt>
      <trkpt lat="44.83858" lon="6.75888">
        <ele>2318.2</ele>
        <time>2026-03-03T09:00:50.999Z</time>
      </trkpt>
      <trkpt lat="44.83858" lon="6.75888">
        <ele>2318.3</ele>
        <time>2026-03-03T09:00:51.999Z</time>
      </trkpt>
      <trkpt lat="44.83858" lon="6.75889">
        <ele>2318.2</ele>
        <time>2026-03-03T09:00:52.999Z</time>
      </trkpt>
      <trkpt lat="44.83857" lon="6.75889">
        <ele>2318.3</ele>
        <time>2026-03-03T09:00:53.999Z</time>
      </trkpt>
      <trkpt lat="44.83857" lon="6.7589">
        <ele>2318.4</ele>
        <time>2026-03-03T09:00:54.999Z</time>
      </trkpt>
      <trkpt lat="44.83857" lon="6.7589">
        <ele>2318.4</ele>
        <time>2026-03-03T09:00:55.999Z</time>
      </trkpt>
      <trkpt lat="44.83857" lon="6.75891">
        <ele>2318.1</ele>
        <time>2026-03-03T09:00:56.999Z</time>
      </trkpt>
      <trkpt lat="44.83857" lon="6.75892">
        <ele>2318.1</ele>
        <time>2026-03-03T09:00:57.999Z</time>
      </trkpt>
      <trkpt lat="44.83857" lon="6.75893">
        <ele>2318.1</ele>
        <time>2026-03-03T09:00:58.999Z</time>
      </trkpt>
      <trkpt lat="44.83858" lon="6.75894">
        <ele>2318</ele>
        <time>2026-03-03T09:00:59.999Z</time>
      </trkpt>
      <trkpt lat="44.83858" lon="6.75895">
        <ele>2318.2</ele>
        <time>2026-03-03T09:01:00.999Z</time>
      </trkpt>
      <trkpt lat="44.83858" lon="6.75895">
        <ele>2318.1</ele>
        <time>2026-03-03T09:01:01.999Z</time>
      </trkpt>
      <trkpt lat="44.83858" lon="6.75897">
        <ele>2318</ele>
        <time>2026-03-03T09:01:02.999Z</time>
      </trkpt>
      <trkpt lat="44.83859" lon="6.75898">
        <ele>2318.1</ele>
        <time>2026-03-03T09:01:03.999Z</time>
      </trkpt>
      <trkpt lat="44.83859" lon="6.75899">
        <ele>2318.1</ele>
        <time>2026-03-03T09:01:04.999Z</time>
      </trkpt>
      <trkpt lat="44.8386" lon="6.759">
        <ele>2318.3</ele>
        <time>2026-03-03T09:01:05.999Z</time>
      </trkpt>
      <trkpt lat="44.8386" lon="6.75901">
        <ele>2318.4</ele>
        <time>2026-03-03T09:01:06.999Z</time>
      </trkpt>
      <trkpt lat="44.8386" lon="6.75901">
        <ele>2318.7</ele>
        <time>2026-03-03T09:01:07.999Z</time>
      </trkpt>
      <trkpt lat="44.83861" lon="6.75902">
        <ele>2318.8</ele>
        <time>2026-03-03T09:01:08.999Z</time>
      </trkpt>
      <trkpt lat="44.83861" lon="6.75903">
        <ele>2319.1</ele>
        <time>2026-03-03T09:01:09.999Z</time>
      </trkpt>
      <trkpt lat="44.83862" lon="6.75904">
        <ele>2319.1</ele>
        <time>2026-03-03T09:01:10.999Z</time>
      </trkpt>
      <trkpt lat="44.83862" lon="6.75904">
        <ele>2319.2</ele>
        <time>2026-03-03T09:01:11.999Z</time>
      </trkpt>
      <trkpt lat="44.83862" lon="6.75905">
        <ele>2319.3</ele>
        <time>2026-03-03T09:01:12.999Z</time>
      </trkpt>
      <trkpt lat="44.83862" lon="6.75905">
        <ele>2319.3</ele>
        <time>2026-03-03T09:01:13.999Z</time>
      </trkpt>
      <trkpt lat="44.83863" lon="6.75906">
        <ele>2319.3</ele>
        <time>2026-03-03T09:01:14.999Z</time>
      </trkpt>
      <trkpt lat="44.83863" lon="6.75907">
        <ele>2319.2</ele>
        <time>2026-03-03T09:01:15.999Z</time>
      </trkpt>
      <trkpt lat="44.83864" lon="6.75908">
        <ele>2319.1</ele>
        <time>2026-03-03T09:01:16.999Z</time>
      </trkpt>
      <trkpt lat="44.83864" lon="6.75909">
        <ele>2319.3</ele>
        <time>2026-03-03T09:01:17.999Z</time>
      </trkpt>
      <trkpt lat="44.83865" lon="6.7591">
        <ele>2319.6</ele>
        <time>2026-03-03T09:01:18.999Z</time>
      </trkpt>
      <trkpt lat="44.83866" lon="6.7591">
        <ele>2319.7</ele>
        <time>2026-03-03T09:01:19.999Z</time>
      </trkpt>
      <trkpt lat="44.83866" lon="6.75911">
        <ele>2319.8</ele>
        <time>2026-03-03T09:01:20.999Z</time>
      </trkpt>
      <trkpt lat="44.83867" lon="6.75912">
        <ele>2320.1</ele>
        <time>2026-03-03T09:01:21.999Z</time>
      </trkpt>
      <trkpt lat="44.83867" lon="6.75913">
        <ele>2320.4</ele>
        <time>2026-03-03T09:01:22.999Z</time>
      </trkpt>
      <trkpt lat="44.83867" lon="6.75913">
        <ele>2320.7</ele>
        <time>2026-03-03T09:01:23.999Z</time>
      </trkpt>
      <trkpt lat="44.83867" lon="6.75914">
        <ele>2320.6</ele>
        <time>2026-03-03T09:01:24.999Z</time>
      </trkpt>
      <trkpt lat="44.83867" lon="6.75914">
        <ele>2320.6</ele>
        <time>2026-03-03T09:01:25.999Z</time>
      </trkpt>
      <trkpt lat="44.83868" lon="6.75915">
        <ele>2320.6</ele>
        <time>2026-03-03T09:01:26.999Z</time>
      </trkpt>
      <trkpt lat="44.83868" lon="6.75915">
        <ele>2320.9</ele>
        <time>2026-03-03T09:01:27.999Z</time>
      </trkpt>
      <trkpt lat="44.83868" lon="6.75916">
        <ele>2320.9</ele>
        <time>2026-03-03T09:01:28.999Z</time>
      </trkpt>
      <trkpt lat="44.83868" lon="6.75916">
        <ele>2320.8</ele>
        <time>2026-03-03T09:01:29.999Z</time>
      </trkpt>
      <trkpt lat="44.83868" lon="6.75916">
        <ele>2320.8</ele>
        <time>2026-03-03T09:01:30.999Z</time>
      </trkpt>
      <trkpt lat="44.83868" lon="6.75917">
        <ele>2320.9</ele>
        <time>2026-03-03T09:01:31.999Z</time>
      </trkpt>
      <trkpt lat="44.83868" lon="6.75917">
        <ele>2320.8</ele>
        <time>2026-03-03T09:01:32.999Z</time>
      </trkpt>
      <trkpt lat="44.83868" lon="6.75918">
        <ele>2320.9</ele>
        <time>2026-03-03T09:01:33.999Z</time>
      </trkpt>
      <trkpt lat="44.83868" lon="6.75918">
        <ele>2320.9</ele>
        <time>2026-03-03T09:01:34.999Z</time>
      </trkpt>
      <trkpt lat="44.83868" lon="6.75919">
        <ele>2321</ele>
        <time>2026-03-03T09:01:35.999Z</time>
      </trkpt>
      <trkpt lat="44.83868" lon="6.75919">
        <ele>2321.2</ele>
        <time>2026-03-03T09:01:36.999Z</time>
      </trkpt>
      <trkpt lat="44.83869" lon="6.7592">
        <ele>2321.5</ele>
        <time>2026-03-03T09:01:37.999Z</time>
      </trkpt>
      <trkpt lat="44.83869" lon="6.7592">
        <ele>2321.7</ele>
        <time>2026-03-03T09:01:38.999Z</time>
      </trkpt>
      <trkpt lat="44.8387" lon="6.75921">
        <ele>2322</ele>
        <time>2026-03-03T09:01:39.999Z</time>
      </trkpt>
      <trkpt lat="44.83871" lon="6.75921">
        <ele>2322.3</ele>
        <time>2026-03-03T09:01:40.999Z</time>
      </trkpt>
      <trkpt lat="44.83872" lon="6.75922">
        <ele>2322.7</ele>
        <time>2026-03-03T09:01:41.999Z</time>
      </trkpt>
      <trkpt lat="44.83872" lon="6.75922">
        <ele>2323</ele>
        <time>2026-03-03T09:01:42.999Z</time>
      </trkpt>
      <trkpt lat="44.83873" lon="6.75923">
        <ele>2323.3</ele>
        <time>2026-03-03T09:01:43.999Z</time>
      </trkpt>
      <trkpt lat="44.83874" lon="6.75923">
        <ele>2323.6</ele>
        <time>2026-03-03T09:01:44.999Z</time>
      </trkpt>
      <trkpt lat="44.83875" lon="6.75924">
        <ele>2323.8</ele>
        <time>2026-03-03T09:01:45.999Z</time>
      </trkpt>
      <trkpt lat="44.83875" lon="6.75924">
        <ele>2324</ele>
        <time>2026-03-03T09:01:46.999Z</time>
      </trkpt>
      <trkpt lat="44.83876" lon="6.75924">
        <ele>2324.1</ele>
        <time>2026-03-03T09:01:47.999Z</time>
      </trkpt>
      <trkpt lat="44.83876" lon="6.75925">
        <ele>2324.3</ele>
        <time>2026-03-03T09:01:48.999Z</time>
      </trkpt>
      <trkpt lat="44.83877" lon="6.75925">
        <ele>2324.7</ele>
        <time>2026-03-03T09:01:49.999Z</time>
      </trkpt>
      <trkpt lat="44.83877" lon="6.75926">
        <ele>2325</ele>
        <time>2026-03-03T09:01:50.999Z</time>
      </trkpt>
      <trkpt lat="44.83878" lon="6.75926">
        <ele>2325.4</ele>
        <time>2026-03-03T09:01:51.999Z</time>
      </trkpt>
      <trkpt lat="44.83878" lon="6.75927">
        <ele>2325.4</ele>
        <time>2026-03-03T09:01:52.999Z</time>
      </trkpt>
      <trkpt lat="44.83879" lon="6.75927">
        <ele>2325.6</ele>
        <time>2026-03-03T09:01:53.999Z</time>
      </trkpt>
      <trkpt lat="44.8388" lon="6.75928">
        <ele>2325.9</ele>
        <time>2026-03-03T09:01:54.999Z</time>
      </trkpt>
      <trkpt lat="44.8388" lon="6.75929">
        <ele>2326.2</ele>
        <time>2026-03-03T09:01:55.999Z</time>
      </trkpt>
      <trkpt lat="44.83881" lon="6.75929">
        <ele>2326.6</ele>
        <time>2026-03-03T09:01:56.999Z</time>
      </trkpt>
      <trkpt lat="44.83881" lon="6.7593">
        <ele>2326.8</ele>
        <time>2026-03-03T09:01:57.999Z</time>
      </trkpt>
      <trkpt lat="44.83881" lon="6.7593">
        <ele>2327</ele>
        <time>2026-03-03T09:01:58.999Z</time>
      </trkpt>
      <trkpt lat="44.83881" lon="6.7593">
        <ele>2327.1</ele>
        <time>2026-03-03T09:01:59.999Z</time>
      </trkpt>
      <trkpt lat="44.83882" lon="6.75931">
        <ele>2327.4</ele>
        <time>2026-03-03T09:02:00.999Z</time>
      </trkpt>
      <trkpt lat="44.83882" lon="6.75931">
        <ele>2327.5</ele>
        <time>2026-03-03T09:02:01.999Z</time>
      </trkpt>
      <trkpt lat="44.83882" lon="6.75931">
        <ele>2327.8</ele>
        <time>2026-03-03T09:02:02.999Z</time>
      </trkpt>
      <trkpt lat="44.83882" lon="6.75932">
        <ele>2328</ele>
        <time>2026-03-03T09:02:03.999Z</time>
      </trkpt>
      <trkpt lat="44.83882" lon="6.75932">
        <ele>2327.8</ele>
        <time>2026-03-03T09:02:04.999Z</time>
      </trkpt>
      <trkpt lat="44.83882" lon="6.75937">
        <ele>2329.9</ele>
        <time>2026-03-03T09:02:21.999Z</time>
      </trkpt>
      <trkpt lat="44.83883" lon="6.75938">
        <ele>2330</ele>
        <time>2026-03-03T09:02:22.999Z</time>
      </trkpt>
      <trkpt lat="44.83883" lon="6.75938">
        <ele>2330.2</ele>
        <time>2026-03-03T09:02:23.999Z</time>
      </trkpt>
      <trkpt lat="44.83883" lon="6.75939">
        <ele>2330.5</ele>
        <time>2026-03-03T09:02:24.999Z</time>
      </trkpt>
      <trkpt lat="44.83883" lon="6.75939">
        <ele>2330.7</ele>
        <time>2026-03-03T09:02:25.999Z</time>
      </trkpt>
      <trkpt lat="44.83883" lon="6.7594">
        <ele>2330.8</ele>
        <time>2026-03-03T09:02:26.999Z</time>
      </trkpt>
      <trkpt lat="44.83883" lon="6.7594">
        <ele>2331.1</ele>
        <time>2026-03-03T09:02:27.999Z</time>
      </trkpt>
      <trkpt lat="44.83883" lon="6.75941">
        <ele>2331.3</ele>
        <time>2026-03-03T09:02:28.999Z</time>
      </trkpt>
      <trkpt lat="44.83883" lon="6.75942">
        <ele>2331.5</ele>
        <time>2026-03-03T09:02:29.999Z</time>
      </trkpt>
      <trkpt lat="44.83884" lon="6.75943">
        <ele>2331.8</ele>
        <time>2026-03-03T09:02:30.999Z</time>
      </trkpt>
      <trkpt lat="44.83884" lon="6.75943">
        <ele>2331.9</ele>
        <time>2026-03-03T09:02:31.999Z</time>
      </trkpt>
      <trkpt lat="44.83885" lon="6.75943">
        <ele>2332.1</ele>
        <time>2026-03-03T09:02:32.999Z</time>
      </trkpt>
      <trkpt lat="44.83886" lon="6.75944">
        <ele>2332.1</ele>
        <time>2026-03-03T09:02:33.999Z</time>
      </trkpt>
      <trkpt lat="44.83887" lon="6.75944">
        <ele>2332.2</ele>
        <time>2026-03-03T09:02:34.999Z</time>
      </trkpt>
      <trkpt lat="44.83888" lon="6.75944">
        <ele>2332.5</ele>
        <time>2026-03-03T09:02:35.999Z</time>
      </trkpt>
      <trkpt lat="44.83888" lon="6.75944">
        <ele>2332.7</ele>
        <time>2026-03-03T09:02:36.999Z</time>
      </trkpt>
      <trkpt lat="44.83889" lon="6.75944">
        <ele>2333</ele>
        <time>2026-03-03T09:02:37.999Z</time>
      </trkpt>
      <trkpt lat="44.83893" lon="6.75944">
        <ele>2335.6</ele>
        <time>2026-03-03T09:02:51.999Z</time>
      </trkpt>
      <trkpt lat="44.83895" lon="6.75944">
        <ele>2335.7</ele>
        <time>2026-03-03T09:02:52.999Z</time>
      </trkpt>
      <trkpt lat="44.83896" lon="6.75944">
        <ele>2335.9</ele>
        <time>2026-03-03T09:02:53.999Z</time>
      </trkpt>
      <trkpt lat="44.83897" lon="6.75944">
        <ele>2336</ele>
        <time>2026-03-03T09:02:54.999Z</time>
      </trkpt>
      <trkpt lat="44.83899" lon="6.75944">
        <ele>2336.4</ele>
        <time>2026-03-03T09:02:55.999Z</time>
      </trkpt>
      <trkpt lat="44.839" lon="6.75944">
        <ele>2336.6</ele>
        <time>2026-03-03T09:02:56.999Z</time>
      </trkpt>
      <trkpt lat="44.83901" lon="6.75944">
        <ele>2336.9</ele>
        <time>2026-03-03T09:02:57.999Z</time>
      </trkpt>
      <trkpt lat="44.83902" lon="6.75944">
        <ele>2337</ele>
        <time>2026-03-03T09:02:58.999Z</time>
      </trkpt>
      <trkpt lat="44.83903" lon="6.75945">
        <ele>2337</ele>
        <time>2026-03-03T09:02:59.999Z</time>
      </trkpt>
      <trkpt lat="44.83904" lon="6.75945">
        <ele>2337.1</ele>
        <time>2026-03-03T09:03:00.999Z</time>
      </trkpt>
      <trkpt lat="44.83905" lon="6.75945">
        <ele>2337.4</ele>
        <time>2026-03-03T09:03:01.999Z</time>
      </trkpt>
      <trkpt lat="44.83906" lon="6.75945">
        <ele>2337.6</ele>
        <time>2026-03-03T09:03:02.999Z</time>
      </trkpt>
      <trkpt lat="44.83906" lon="6.75945">
        <ele>2337.8</ele>
        <time>2026-03-03T09:03:03.999Z</time>
      </trkpt>
      <trkpt lat="44.83907" lon="6.75946">
        <ele>2338</ele>
        <time>2026-03-03T09:03:04.999Z</time>
      </trkpt>
      <trkpt lat="44.83907" lon="6.75946">
        <ele>2338.3</ele>
        <time>2026-03-03T09:03:05.999Z</time>
      </trkpt>
      <trkpt lat="44.83908" lon="6.75946">
        <ele>2338.5</ele>
        <time>2026-03-03T09:03:06.999Z</time>
      </trkpt>
      <trkpt lat="44.83908" lon="6.75946">
        <ele>2338.7</ele>
        <time>2026-03-03T09:03:07.999Z</time>
      </trkpt>
      <trkpt lat="44.83908" lon="6.75947">
        <ele>2338.9</ele>
        <time>2026-03-03T09:03:08.999Z</time>
      </trkpt>
      <trkpt lat="44.83909" lon="6.75948">
        <ele>2338.9</ele>
        <time>2026-03-03T09:03:09.999Z</time>
      </trkpt>
      <trkpt lat="44.83909" lon="6.75948">
        <ele>2338.9</ele>
        <time>2026-03-03T09:03:10.999Z</time>
      </trkpt>
      <trkpt lat="44.8391" lon="6.75948">
        <ele>2339</ele>
        <time>2026-03-03T09:03:11.999Z</time>
      </trkpt>
      <trkpt lat="44.8391" lon="6.75948">
        <ele>2339.1</ele>
        <time>2026-03-03T09:03:12.999Z</time>
      </trkpt>
      <trkpt lat="44.8391" lon="6.75949">
        <ele>2339.4</ele>
        <time>2026-03-03T09:03:13.999Z</time>
      </trkpt>
      <trkpt lat="44.83911" lon="6.75949">
        <ele>2339.5</ele>
        <time>2026-03-03T09:03:14.999Z</time>
      </trkpt>
      <trkpt lat="44.83911" lon="6.7595">
        <ele>2339.9</ele>
        <time>2026-03-03T09:03:15.999Z</time>
      </trkpt>
      <trkpt lat="44.83911" lon="6.7595">
        <ele>2339.7</ele>
        <time>2026-03-03T09:03:16.999Z</time>
      </trkpt>
      <trkpt lat="44.83912" lon="6.7595">
        <ele>2340</ele>
        <time>2026-03-03T09:03:17.999Z</time>
      </trkpt>
      <trkpt lat="44.83912" lon="6.7595">
        <ele>2340.1</ele>
        <time>2026-03-03T09:03:18.999Z</time>
      </trkpt>
      <trkpt lat="44.83913" lon="6.75951">
        <ele>2340.2</ele>
        <time>2026-03-03T09:03:19.999Z</time>
      </trkpt>
      <trkpt lat="44.83913" lon="6.75951">
        <ele>2340.3</ele>
        <time>2026-03-03T09:03:20.999Z</time>
      </trkpt>
      <trkpt lat="44.83914" lon="6.75951">
        <ele>2340.4</ele>
        <time>2026-03-03T09:03:21.999Z</time>
      </trkpt>
      <trkpt lat="44.83915" lon="6.75952">
        <ele>2340.6</ele>
        <time>2026-03-03T09:03:22.999Z</time>
      </trkpt>
      <trkpt lat="44.83915" lon="6.75952">
        <ele>2340.2</ele>
        <time>2026-03-03T09:03:23.999Z</time>
      </trkpt>
      <trkpt lat="44.83915" lon="6.75952">
        <ele>2340</ele>
        <time>2026-03-03T09:03:24.999Z</time>
      </trkpt>
      <trkpt lat="44.83915" lon="6.75953">
        <ele>2339.9</ele>
        <time>2026-03-03T09:03:25.999Z</time>
      </trkpt>
      <trkpt lat="44.83916" lon="6.75953">
        <ele>2339.9</ele>
        <time>2026-03-03T09:03:26.999Z</time>
      </trkpt>
      <trkpt lat="44.83916" lon="6.75953">
        <ele>2339.9</ele>
        <time>2026-03-03T09:03:27.999Z</time>
      </trkpt>
      <trkpt lat="44.83916" lon="6.75953">
        <ele>2339.8</ele>
        <time>2026-03-03T09:03:28.999Z</time>
      </trkpt>
      <trkpt lat="44.83917" lon="6.75959">
        <ele>2341.4</ele>
        <time>2026-03-03T09:03:47.999Z</time>
      </trkpt>
      <trkpt lat="44.83917" lon="6.75959">
        <ele>2341.5</ele>
        <time>2026-03-03T09:03:48.999Z</time>
      </trkpt>
      <trkpt lat="44.83917" lon="6.7596">
        <ele>2341.6</ele>
        <time>2026-03-03T09:03:49.999Z</time>
      </trkpt>
      <trkpt lat="44.83918" lon="6.7596">
        <ele>2341.7</ele>
        <time>2026-03-03T09:03:50.999Z</time>
      </trkpt>
      <trkpt lat="44.83918" lon="6.75961">
        <ele>2341.7</ele>
        <time>2026-03-03T09:03:51.999Z</time>
      </trkpt>
      <trkpt lat="44.83918" lon="6.75962">
        <ele>2341.9</ele>
        <time>2026-03-03T09:03:52.999Z</time>
      </trkpt>
      <trkpt lat="44.83918" lon="6.75962">
        <ele>2341.9</ele>
        <time>2026-03-03T09:03:53.999Z</time>
      </trkpt>
      <trkpt lat="44.83918" lon="6.75963">
        <ele>2341.9</ele>
        <time>2026-03-03T09:03:54.999Z</time>
      </trkpt>
      <trkpt lat="44.83918" lon="6.75964">
        <ele>2342.1</ele>
        <time>2026-03-03T09:03:55.999Z</time>
      </trkpt>
      <trkpt lat="44.83919" lon="6.75966">
        <ele>2342.6</ele>
        <time>2026-03-03T09:03:56.999Z</time>
      </trkpt>
      <trkpt lat="44.83919" lon="6.75968">
        <ele>2342.9</ele>
        <time>2026-03-03T09:03:57.999Z</time>
      </trkpt>
      <trkpt lat="44.8392" lon="6.7597">
        <ele>2343.2</ele>
        <time>2026-03-03T09:03:58.999Z</time>
      </trkpt>
      <trkpt lat="44.8392" lon="6.75971">
        <ele>2343.3</ele>
        <time>2026-03-03T09:03:59.999Z</time>
      </trkpt>
      <trkpt lat="44.8392" lon="6.75972">
        <ele>2343.4</ele>
        <time>2026-03-03T09:04:00.999Z</time>
      </trkpt>
      <trkpt lat="44.83921" lon="6.75973">
        <ele>2343.7</ele>
        <time>2026-03-03T09:04:01.999Z</time>
      </trkpt>
      <trkpt lat="44.83921" lon="6.75974">
        <ele>2344</ele>
        <time>2026-03-03T09:04:02.999Z</time>
      </trkpt>
      <trkpt lat="44.83922" lon="6.75975">
        <ele>2344.1</ele>
        <time>2026-03-03T09:04:03.999Z</time>
      </trkpt>
      <trkpt lat="44.83922" lon="6.75975">
        <ele>2344.3</ele>
        <time>2026-03-03T09:04:04.999Z</time>
      </trkpt>
      <trkpt lat="44.83922" lon="6.75976">
        <ele>2344.6</ele>
        <time>2026-03-03T09:04:05.999Z</time>
      </trkpt>
      <trkpt lat="44.83923" lon="6.75976">
        <ele>2344.9</ele>
        <time>2026-03-03T09:04:06.999Z</time>
      </trkpt>
      <trkpt lat="44.83923" lon="6.75977">
        <ele>2345.2</ele>
        <time>2026-03-03T09:04:07.999Z</time>
      </trkpt>
      <trkpt lat="44.83923" lon="6.75977">
        <ele>2345.2</ele>
        <time>2026-03-03T09:04:08.999Z</time>
      </trkpt>
      <trkpt lat="44.83923" lon="6.75978">
        <ele>2345.2</ele>
        <time>2026-03-03T09:04:09.999Z</time>
      </trkpt>
      <trkpt lat="44.83923" lon="6.75978">
        <ele>2345</ele>
        <time>2026-03-03T09:04:10.999Z</time>
      </trkpt>
      <trkpt lat="44.83924" lon="6.75979">
        <ele>2345.1</ele>
        <time>2026-03-03T09:04:11.999Z</time>
      </trkpt>
      <trkpt lat="44.83924" lon="6.7598">
        <ele>2345.4</ele>
        <time>2026-03-03T09:04:12.999Z</time>
      </trkpt>
      <trkpt lat="44.83925" lon="6.7598">
        <ele>2345.5</ele>
        <time>2026-03-03T09:04:13.999Z</time>
      </trkpt>
      <trkpt lat="44.83925" lon="6.7598">
        <ele>2345.6</ele>
        <time>2026-03-03T09:04:14.999Z</time>
      </trkpt>
      <trkpt lat="44.83925" lon="6.75981">
        <ele>2345.7</ele>
        <time>2026-03-03T09:04:15.999Z</time>
      </trkpt>
      <trkpt lat="44.83925" lon="6.75981">
        <ele>2345.8</ele>
        <time>2026-03-03T09:04:16.999Z</time>
      </trkpt>
      <trkpt lat="44.83925" lon="6.75982">
        <ele>2345.8</ele>
        <time>2026-03-03T09:04:17.999Z</time>
      </trkpt>
      <trkpt lat="44.83925" lon="6.75982">
        <ele>2345.8</ele>
        <time>2026-03-03T09:04:18.999Z</time>
      </trkpt>
      <trkpt lat="44.83925" lon="6.75983">
        <ele>2345.9</ele>
        <time>2026-03-03T09:04:19.999Z</time>
      </trkpt>
      <trkpt lat="44.83927" lon="6.75986">
        <ele>2348.9</ele>
        <time>2026-03-03T09:04:33.999Z</time>
      </trkpt>
      <trkpt lat="44.83927" lon="6.75987">
        <ele>2349</ele>
        <time>2026-03-03T09:04:34.999Z</time>
      </trkpt>
      <trkpt lat="44.83928" lon="6.75988">
        <ele>2349.1</ele>
        <time>2026-03-03T09:04:35.999Z</time>
      </trkpt>
      <trkpt lat="44.83928" lon="6.75988">
        <ele>2349.2</ele>
        <time>2026-03-03T09:04:36.999Z</time>
      </trkpt>
      <trkpt lat="44.83928" lon="6.75989">
        <ele>2349.3</ele>
        <time>2026-03-03T09:04:37.999Z</time>
      </trkpt>
      <trkpt lat="44.83928" lon="6.7599">
        <ele>2349.4</ele>
        <time>2026-03-03T09:04:38.999Z</time>
      </trkpt>
      <trkpt lat="44.83928" lon="6.75991">
        <ele>2349.4</ele>
        <time>2026-03-03T09:04:39.999Z</time>
      </trkpt>
      <trkpt lat="44.83928" lon="6.75992">
        <ele>2349.6</ele>
        <time>2026-03-03T09:04:40.999Z</time>
      </trkpt>
      <trkpt lat="44.83928" lon="6.75994">
        <ele>2349.8</ele>
        <time>2026-03-03T09:04:41.999Z</time>
      </trkpt>
      <trkpt lat="44.83927" lon="6.75995">
        <ele>2350.2</ele>
        <time>2026-03-03T09:04:42.999Z</time>
      </trkpt>
      <trkpt lat="44.83926" lon="6.75996">
        <ele>2350.4</ele>
        <time>2026-03-03T09:04:43.999Z</time>
      </trkpt>
      <trkpt lat="44.83926" lon="6.75996">
        <ele>2350.6</ele>
        <time>2026-03-03T09:04:44.999Z</time>
      </trkpt>
      <trkpt lat="44.83926" lon="6.75996">
        <ele>2350.9</ele>
        <time>2026-03-03T09:04:45.999Z</time>
      </trkpt>
      <trkpt lat="44.83926" lon="6.75997">
        <ele>2350.9</ele>
        <time>2026-03-03T09:04:46.999Z</time>
      </trkpt>
      <trkpt lat="44.83926" lon="6.75998">
        <ele>2351.1</ele>
        <time>2026-03-03T09:04:47.999Z</time>
      </trkpt>
      <trkpt lat="44.83925" lon="6.75999">
        <ele>2351.1</ele>
        <time>2026-03-03T09:04:48.999Z</time>
      </trkpt>
      <trkpt lat="44.83925" lon="6.75999">
        <ele>2351.4</ele>
        <time>2026-03-03T09:04:49.999Z</time>
      </trkpt>
      <trkpt lat="44.83925" lon="6.76001">
        <ele>2351.5</ele>
        <time>2026-03-03T09:04:50.999Z</time>
      </trkpt>
      <trkpt lat="44.83925" lon="6.76002">
        <ele>2351.6</ele>
        <time>2026-03-03T09:04:51.999Z</time>
      </trkpt>
      <trkpt lat="44.83925" lon="6.76003">
        <ele>2351.4</ele>
        <time>2026-03-03T09:04:52.999Z</time>
      </trkpt>
      <trkpt lat="44.83924" lon="6.76003">
        <ele>2351.4</ele>
        <time>2026-03-03T09:04:53.999Z</time>
      </trkpt>
      <trkpt lat="44.83924" lon="6.76004">
        <ele>2351.4</ele>
        <time>2026-03-03T09:04:54.999Z</time>
      </trkpt>
      <trkpt lat="44.83923" lon="6.76005">
        <ele>2351.5</ele>
        <time>2026-03-03T09:04:55.999Z</time>
      </trkpt>
      <trkpt lat="44.83923" lon="6.76005">
        <ele>2351.5</ele>
        <time>2026-03-03T09:04:56.999Z</time>
      </trkpt>
      <trkpt lat="44.83923" lon="6.76006">
        <ele>2351.6</ele>
        <time>2026-03-03T09:04:57.999Z</time>
      </trkpt>
      <trkpt lat="44.83923" lon="6.76007">
        <ele>2351.9</ele>
        <time>2026-03-03T09:04:58.999Z</time>
      </trkpt>
      <trkpt lat="44.8392" lon="6.76012">
        <ele>2352.8</ele>
        <time>2026-03-03T09:05:11.999Z</time>
      </trkpt>
      <trkpt lat="44.83919" lon="6.76013">
        <ele>2352.8</ele>
        <time>2026-03-03T09:05:12.999Z</time>
      </trkpt>
      <trkpt lat="44.83919" lon="6.76013">
        <ele>2352.9</ele>
        <time>2026-03-03T09:05:13.999Z</time>
      </trkpt>
      <trkpt lat="44.83919" lon="6.76014">
        <ele>2353</ele>
        <time>2026-03-03T09:05:14.999Z</time>
      </trkpt>
      <trkpt lat="44.83918" lon="6.76015">
        <ele>2353.1</ele>
        <time>2026-03-03T09:05:15.999Z</time>
      </trkpt>
      <trkpt lat="44.83918" lon="6.76015">
        <ele>2353.2</ele>
        <time>2026-03-03T09:05:16.999Z</time>
      </trkpt>
      <trkpt lat="44.83919" lon="6.76016">
        <ele>2353.3</ele>
        <time>2026-03-03T09:05:17.999Z</time>
      </trkpt>
      <trkpt lat="44.83919" lon="6.76016">
        <ele>2353.6</ele>
        <time>2026-03-03T09:05:18.999Z</time>
      </trkpt>
      <trkpt lat="44.83919" lon="6.76016">
        <ele>2353.9</ele>
        <time>2026-03-03T09:05:19.999Z</time>
      </trkpt>
      <trkpt lat="44.83919" lon="6.76016">
        <ele>2353.9</ele>
        <time>2026-03-03T09:05:20.999Z</time>
      </trkpt>
      <trkpt lat="44.8392" lon="6.76017">
        <ele>2353.9</ele>
        <time>2026-03-03T09:05:21.999Z</time>
      </trkpt>
      <trkpt lat="44.8392" lon="6.76017">
        <ele>2354</ele>
        <time>2026-03-03T09:05:22.999Z</time>
      </trkpt>
      <trkpt lat="44.8392" lon="6.76018">
        <ele>2354.1</ele>
        <time>2026-03-03T09:05:23.999Z</time>
      </trkpt>
      <trkpt lat="44.83921" lon="6.76018">
        <ele>2354.2</ele>
        <time>2026-03-03T09:05:24.999Z</time>
      </trkpt>
      <trkpt lat="44.83921" lon="6.76018">
        <ele>2354.4</ele>
        <time>2026-03-03T09:05:25.999Z</time>
      </trkpt>
      <trkpt lat="44.83921" lon="6.76019">
        <ele>2354.6</ele>
        <time>2026-03-03T09:05:26.999Z</time>
      </trkpt>
      <trkpt lat="44.83921" lon="6.76019">
        <ele>2354.9</ele>
        <time>2026-03-03T09:05:27.999Z</time>
      </trkpt>
      <trkpt lat="44.83922" lon="6.7602">
        <ele>2355</ele>
        <time>2026-03-03T09:05:28.999Z</time>
      </trkpt>
      <trkpt lat="44.83922" lon="6.76021">
        <ele>2355.1</ele>
        <time>2026-03-03T09:05:29.999Z</time>
      </trkpt>
      <trkpt lat="44.83923" lon="6.76022">
        <ele>2355.1</ele>
        <time>2026-03-03T09:05:30.999Z</time>
      </trkpt>
      <trkpt lat="44.83924" lon="6.76022">
        <ele>2355.1</ele>
        <time>2026-03-03T09:05:31.999Z</time>
      </trkpt>
      <trkpt lat="44.83924" lon="6.76022">
        <ele>2355.2</ele>
        <time>2026-03-03T09:05:32.999Z</time>
      </trkpt>
      <trkpt lat="44.83924" lon="6.76023">
        <ele>2355.2</ele>
        <time>2026-03-03T09:05:33.999Z</time>
      </trkpt>
      <trkpt lat="44.83925" lon="6.76023">
        <ele>2355.3</ele>
        <time>2026-03-03T09:05:34.999Z</time>
      </trkpt>
      <trkpt lat="44.83925" lon="6.76023">
        <ele>2355.3</ele>
        <time>2026-03-03T09:05:35.999Z</time>
      </trkpt>
      <trkpt lat="44.83925" lon="6.76023">
        <ele>2355.3</ele>
        <time>2026-03-03T09:05:36.999Z</time>
      </trkpt>
      <trkpt lat="44.83925" lon="6.76024">
        <ele>2355.4</ele>
        <time>2026-03-03T09:05:37.999Z</time>
      </trkpt>
      <trkpt lat="44.83926" lon="6.76024">
        <ele>2355.4</ele>
        <time>2026-03-03T09:05:38.999Z</time>
      </trkpt>
      <trkpt lat="44.83926" lon="6.76025">
        <ele>2355.4</ele>
        <time>2026-03-03T09:05:39.999Z</time>
      </trkpt>
      <trkpt lat="44.83927" lon="6.76026">
        <ele>2355.5</ele>
        <time>2026-03-03T09:05:40.999Z</time>
      </trkpt>
      <trkpt lat="44.83927" lon="6.76026">
        <ele>2355.5</ele>
        <time>2026-03-03T09:05:41.999Z</time>
      </trkpt>
      <trkpt lat="44.83928" lon="6.76026">
        <ele>2355.5</ele>
        <time>2026-03-03T09:05:42.999Z</time>
      </trkpt>
      <trkpt lat="44.83928" lon="6.76027">
        <ele>2355.6</ele>
        <time>2026-03-03T09:05:43.999Z</time>
      </trkpt>
      <trkpt lat="44.83928" lon="6.76027">
        <ele>2355.8</ele>
        <time>2026-03-03T09:05:44.999Z</time>
      </trkpt>
      <trkpt lat="44.83929" lon="6.76028">
        <ele>2355.7</ele>
        <time>2026-03-03T09:05:45.999Z</time>
      </trkpt>
      <trkpt lat="44.83929" lon="6.76029">
        <ele>2356</ele>
        <time>2026-03-03T09:05:46.999Z</time>
      </trkpt>
      <trkpt lat="44.83931" lon="6.76034">
        <ele>2357</ele>
        <time>2026-03-03T09:06:15.999Z</time>
      </trkpt>
      <trkpt lat="44.83931" lon="6.76036">
        <ele>2357</ele>
        <time>2026-03-03T09:06:16.999Z</time>
      </trkpt>
      <trkpt lat="44.83931" lon="6.76037">
        <ele>2357</ele>
        <time>2026-03-03T09:06:17.999Z</time>
      </trkpt>
      <trkpt lat="44.83931" lon="6.76039">
        <ele>2357.1</ele>
        <time>2026-03-03T09:06:18.999Z</time>
      </trkpt>
      <trkpt lat="44.83931" lon="6.76041">
        <ele>2357.3</ele>
        <time>2026-03-03T09:06:19.999Z</time>
      </trkpt>
      <trkpt lat="44.83931" lon="6.76042">
        <ele>2357.3</ele>
        <time>2026-03-03T09:06:20.999Z</time>
      </trkpt>
      <trkpt lat="44.83931" lon="6.76043">
        <ele>2357.2</ele>
        <time>2026-03-03T09:06:21.999Z</time>
      </trkpt>
      <trkpt lat="44.8393" lon="6.76044">
        <ele>2357.1</ele>
        <time>2026-03-03T09:06:22.999Z</time>
      </trkpt>
      <trkpt lat="44.8393" lon="6.76045">
        <ele>2357.3</ele>
        <time>2026-03-03T09:06:23.999Z</time>
      </trkpt>
      <trkpt lat="44.8393" lon="6.76046">
        <ele>2357.2</ele>
        <time>2026-03-03T09:06:24.999Z</time>
      </trkpt>
      <trkpt lat="44.83929" lon="6.76047">
        <ele>2357.2</ele>
        <time>2026-03-03T09:06:25.999Z</time>
      </trkpt>
      <trkpt lat="44.83929" lon="6.76047">
        <ele>2357</ele>
        <time>2026-03-03T09:06:26.999Z</time>
      </trkpt>
      <trkpt lat="44.83928" lon="6.76048">
        <ele>2357.1</ele>
        <time>2026-03-03T09:06:27.999Z</time>
      </trkpt>
      <trkpt lat="44.83928" lon="6.76048">
        <ele>2357.2</ele>
        <time>2026-03-03T09:06:28.999Z</time>
      </trkpt>
      <trkpt lat="44.83928" lon="6.76049">
        <ele>2357.3</ele>
        <time>2026-03-03T09:06:29.999Z</time>
      </trkpt>
      <trkpt lat="44.83928" lon="6.76049">
        <ele>2357.5</ele>
        <time>2026-03-03T09:06:30.999Z</time>
      </trkpt>
      <trkpt lat="44.83929" lon="6.76049">
        <ele>2358.2</ele>
        <time>2026-03-03T09:06:31.999Z</time>
      </trkpt>
      <trkpt lat="44.8393" lon="6.7605">
        <ele>2358.8</ele>
        <time>2026-03-03T09:06:32.999Z</time>
      </trkpt>
      <trkpt lat="44.8393" lon="6.7605">
        <ele>2359.2</ele>
        <time>2026-03-03T09:06:33.999Z</time>
      </trkpt>
      <trkpt lat="44.8393" lon="6.76051">
        <ele>2359.7</ele>
        <time>2026-03-03T09:06:34.999Z</time>
      </trkpt>
      <trkpt lat="44.8393" lon="6.76051">
        <ele>2360</ele>
        <time>2026-03-03T09:06:35.999Z</time>
      </trkpt>
      <trkpt lat="44.83929" lon="6.76052">
        <ele>2360.3</ele>
        <time>2026-03-03T09:06:36.999Z</time>
      </trkpt>
      <trkpt lat="44.83929" lon="6.76052">
        <ele>2360.4</ele>
        <time>2026-03-03T09:06:37.999Z</time>
      </trkpt>
      <trkpt lat="44.83929" lon="6.76052">
        <ele>2360.4</ele>
        <time>2026-03-03T09:06:38.999Z</time>
      </trkpt>
      <trkpt lat="44.83929" lon="6.76052">
        <ele>2360.6</ele>
        <time>2026-03-03T09:06:39.999Z</time>
      </trkpt>
      <trkpt lat="44.83929" lon="6.76053">
        <ele>2360.7</ele>
        <time>2026-03-03T09:06:40.999Z</time>
      </trkpt>
      <trkpt lat="44.83929" lon="6.76053">
        <ele>2360.8</ele>
        <time>2026-03-03T09:06:41.999Z</time>
      </trkpt>
      <trkpt lat="44.83929" lon="6.76053">
        <ele>2360.9</ele>
        <time>2026-03-03T09:06:42.999Z</time>
      </trkpt>
      <trkpt lat="44.83928" lon="6.76054">
        <ele>2361</ele>
        <time>2026-03-03T09:06:43.999Z</time>
      </trkpt>
      <trkpt lat="44.83928" lon="6.76055">
        <ele>2361.1</ele>
        <time>2026-03-03T09:06:44.999Z</time>
      </trkpt>
      <trkpt lat="44.83927" lon="6.76056">
        <ele>2361.2</ele>
        <time>2026-03-03T09:06:45.999Z</time>
      </trkpt>
      <trkpt lat="44.83926" lon="6.76056">
        <ele>2361.3</ele>
        <time>2026-03-03T09:06:46.999Z</time>
      </trkpt>
      <trkpt lat="44.83925" lon="6.76057">
        <ele>2361.5</ele>
        <time>2026-03-03T09:06:47.999Z</time>
      </trkpt>
      <trkpt lat="44.83924" lon="6.76058">
        <ele>2361.6</ele>
        <time>2026-03-03T09:06:48.999Z</time>
      </trkpt>
      <trkpt lat="44.83924" lon="6.76058">
        <ele>2361.8</ele>
        <time>2026-03-03T09:06:49.999Z</time>
      </trkpt>
      <trkpt lat="44.83923" lon="6.76059">
        <ele>2362</ele>
        <time>2026-03-03T09:06:50.999Z</time>
      </trkpt>
      <trkpt lat="44.83923" lon="6.7606">
        <ele>2362.1</ele>
        <time>2026-03-03T09:06:51.999Z</time>
      </trkpt>
      <trkpt lat="44.83923" lon="6.7606">
        <ele>2362.1</ele>
        <time>2026-03-03T09:06:52.999Z</time>
      </trkpt>
      <trkpt lat="44.83922" lon="6.7606">
        <ele>2362.3</ele>
        <time>2026-03-03T09:06:53.999Z</time>
      </trkpt>
      <trkpt lat="44.83922" lon="6.76061">
        <ele>2362.4</ele>
        <time>2026-03-03T09:06:54.999Z</time>
      </trkpt>
      <trkpt lat="44.83921" lon="6.76061">
        <ele>2362.5</ele>
        <time>2026-03-03T09:06:55.999Z</time>
      </trkpt>
      <trkpt lat="44.83921" lon="6.76062">
        <ele>2362.6</ele>
        <time>2026-03-03T09:06:56.999Z</time>
      </trkpt>
      <trkpt lat="44.83921" lon="6.76062">
        <ele>2363.1</ele>
        <time>2026-03-03T09:06:57.999Z</time>
      </trkpt>
      <trkpt lat="44.8392" lon="6.76062">
        <ele>2363.2</ele>
        <time>2026-03-03T09:06:58.999Z</time>
      </trkpt>
      <trkpt lat="44.8392" lon="6.76063">
        <ele>2363.3</ele>
        <time>2026-03-03T09:06:59.999Z</time>
      </trkpt>
      <trkpt lat="44.8392" lon="6.76063">
        <ele>2363.3</ele>
        <time>2026-03-03T09:07:00.999Z</time>
      </trkpt>
      <trkpt lat="44.8392" lon="6.76063">
        <ele>2363.4</ele>
        <time>2026-03-03T09:07:01.999Z</time>
      </trkpt>
      <trkpt lat="44.8392" lon="6.76064">
        <ele>2363.5</ele>
        <time>2026-03-03T09:07:02.999Z</time>
      </trkpt>
      <trkpt lat="44.8392" lon="6.76064">
        <ele>2363.5</ele>
        <time>2026-03-03T09:07:03.999Z</time>
      </trkpt>
      <trkpt lat="44.83919" lon="6.76065">
        <ele>2363.4</ele>
        <time>2026-03-03T09:07:04.999Z</time>
      </trkpt>
      <trkpt lat="44.83919" lon="6.76065">
        <ele>2363.3</ele>
        <time>2026-03-03T09:07:05.999Z</time>
      </trkpt>
      <trkpt lat="44.83918" lon="6.76066">
        <ele>2363.2</ele>
        <time>2026-03-03T09:07:06.999Z</time>
      </trkpt>
      <trkpt lat="44.83916" lon="6.76069">
        <ele>2365.5</ele>
        <time>2026-03-03T09:07:23.999Z</time>
      </trkpt>
      <trkpt lat="44.83916" lon="6.76069">
        <ele>2365.7</ele>
        <time>2026-03-03T09:07:24.999Z</time>
      </trkpt>
      <trkpt lat="44.83915" lon="6.7607">
        <ele>2365.8</ele>
        <time>2026-03-03T09:07:25.999Z</time>
      </trkpt>
      <trkpt lat="44.83915" lon="6.7607">
        <ele>2366.1</ele>
        <time>2026-03-03T09:07:26.999Z</time>
      </trkpt>
      <trkpt lat="44.83915" lon="6.76071">
        <ele>2366.2</ele>
        <time>2026-03-03T09:07:27.999Z</time>
      </trkpt>
      <trkpt lat="44.83915" lon="6.76071">
        <ele>2366.3</ele>
        <time>2026-03-03T09:07:28.999Z</time>
      </trkpt>
      <trkpt lat="44.83914" lon="6.76072">
        <ele>2366.4</ele>
        <time>2026-03-03T09:07:29.999Z</time>
      </trkpt>
      <trkpt lat="44.83914" lon="6.76072">
        <ele>2366.4</ele>
        <time>2026-03-03T09:07:30.999Z</time>
      </trkpt>
      <trkpt lat="44.83914" lon="6.76072">
        <ele>2366.4</ele>
        <time>2026-03-03T09:07:31.999Z</time>
      </trkpt>
      <trkpt lat="44.83913" lon="6.76073">
        <ele>2366.4</ele>
        <time>2026-03-03T09:07:32.999Z</time>
      </trkpt>
      <trkpt lat="44.83913" lon="6.76073">
        <ele>2366.4</ele>
        <time>2026-03-03T09:07:33.999Z</time>
      </trkpt>
      <trkpt lat="44.83912" lon="6.76074">
        <ele>2366.2</ele>
        <time>2026-03-03T09:07:34.999Z</time>
      </trkpt>
      <trkpt lat="44.8391" lon="6.76076">
        <ele>2366</ele>
        <time>2026-03-03T09:07:35.999Z</time>
      </trkpt>
      <trkpt lat="44.83909" lon="6.76077">
        <ele>2365.9</ele>
        <time>2026-03-03T09:07:36.999Z</time>
      </trkpt>
      <trkpt lat="44.83908" lon="6.76078">
        <ele>2366</ele>
        <time>2026-03-03T09:07:37.999Z</time>
      </trkpt>
      <trkpt lat="44.83907" lon="6.76079">
        <ele>2365.9</ele>
        <time>2026-03-03T09:07:38.999Z</time>
      </trkpt>
      <trkpt lat="44.83906" lon="6.7608">
        <ele>2365.9</ele>
        <time>2026-03-03T09:07:39.999Z</time>
      </trkpt>
      <trkpt lat="44.83905" lon="6.7608">
        <ele>2366</ele>
        <time>2026-03-03T09:07:40.999Z</time>
      </trkpt>
      <trkpt lat="44.83904" lon="6.76081">
        <ele>2366.2</ele>
        <time>2026-03-03T09:07:41.999Z</time>
      </trkpt>
      <trkpt lat="44.83904" lon="6.76082">
        <ele>2366.4</ele>
        <time>2026-03-03T09:07:42.999Z</time>
      </trkpt>
      <trkpt lat="44.83904" lon="6.76082">
        <ele>2366.7</ele>
        <time>2026-03-03T09:07:43.999Z</time>
      </trkpt>
      <trkpt lat="44.83903" lon="6.76082">
        <ele>2366.9</ele>
        <time>2026-03-03T09:07:44.999Z</time>
      </trkpt>
      <trkpt lat="44.83903" lon="6.76083">
        <ele>2366.8</ele>
        <time>2026-03-03T09:07:45.999Z</time>
      </trkpt>
      <trkpt lat="44.83902" lon="6.76083">
        <ele>2366.8</ele>
        <time>2026-03-03T09:07:46.999Z</time>
      </trkpt>
      <trkpt lat="44.83902" lon="6.76083">
        <ele>2367</ele>
        <time>2026-03-03T09:07:47.999Z</time>
      </trkpt>
      <trkpt lat="44.83902" lon="6.76084">
        <ele>2367.2</ele>
        <time>2026-03-03T09:07:48.999Z</time>
      </trkpt>
      <trkpt lat="44.83902" lon="6.76085">
        <ele>2367.7</ele>
        <time>2026-03-03T09:07:49.999Z</time>
      </trkpt>
      <trkpt lat="44.83901" lon="6.76085">
        <ele>2368</ele>
        <time>2026-03-03T09:07:50.999Z</time>
      </trkpt>
      <trkpt lat="44.83899" lon="6.76089">
        <ele>2371.4</ele>
        <time>2026-03-03T09:08:04.999Z</time>
      </trkpt>
      <trkpt lat="44.83898" lon="6.7609">
        <ele>2371.7</ele>
        <time>2026-03-03T09:08:05.999Z</time>
      </trkpt>
      <trkpt lat="44.83898" lon="6.7609">
        <ele>2372.1</ele>
        <time>2026-03-03T09:08:06.999Z</time>
      </trkpt>
      <trkpt lat="44.83898" lon="6.76091">
        <ele>2372.5</ele>
        <time>2026-03-03T09:08:07.999Z</time>
      </trkpt>
      <trkpt lat="44.83898" lon="6.76092">
        <ele>2372.9</ele>
        <time>2026-03-03T09:08:08.999Z</time>
      </trkpt>
      <trkpt lat="44.83898" lon="6.76092">
        <ele>2373.3</ele>
        <time>2026-03-03T09:08:09.999Z</time>
      </trkpt>
      <trkpt lat="44.83898" lon="6.76092">
        <ele>2373.7</ele>
        <time>2026-03-03T09:08:10.999Z</time>
      </trkpt>
      <trkpt lat="44.83898" lon="6.76092">
        <ele>2374.3</ele>
        <time>2026-03-03T09:08:11.999Z</time>
      </trkpt>
      <trkpt lat="44.83898" lon="6.76092">
        <ele>2374.8</ele>
        <time>2026-03-03T09:08:12.999Z</time>
      </trkpt>
      <trkpt lat="44.83898" lon="6.76092">
        <ele>2375.2</ele>
        <time>2026-03-03T09:08:13.999Z</time>
      </trkpt>
      <trkpt lat="44.83898" lon="6.76093">
        <ele>2375.6</ele>
        <time>2026-03-03T09:08:14.999Z</time>
      </trkpt>
      <trkpt lat="44.83898" lon="6.76093">
        <ele>2375.8</ele>
        <time>2026-03-03T09:08:15.999Z</time>
      </trkpt>
      <trkpt lat="44.83898" lon="6.76094">
        <ele>2376</ele>
        <time>2026-03-03T09:08:16.999Z</time>
      </trkpt>
      <trkpt lat="44.83898" lon="6.76095">
        <ele>2376.1</ele>
        <time>2026-03-03T09:08:17.999Z</time>
      </trkpt>
      <trkpt lat="44.83899" lon="6.76096">
        <ele>2376.2</ele>
        <time>2026-03-03T09:08:18.999Z</time>
      </trkpt>
      <trkpt lat="44.83899" lon="6.76097">
        <ele>2376.3</ele>
        <time>2026-03-03T09:08:19.999Z</time>
      </trkpt>
      <trkpt lat="44.839" lon="6.76098">
        <ele>2376.4</ele>
        <time>2026-03-03T09:08:20.999Z</time>
      </trkpt>
      <trkpt lat="44.839" lon="6.761">
        <ele>2376.7</ele>
        <time>2026-03-03T09:08:21.999Z</time>
      </trkpt>
      <trkpt lat="44.83901" lon="6.76101">
        <ele>2377</ele>
        <time>2026-03-03T09:08:22.999Z</time>
      </trkpt>
      <trkpt lat="44.83901" lon="6.76101">
        <ele>2377.5</ele>
        <time>2026-03-03T09:08:23.999Z</time>
      </trkpt>
      <trkpt lat="44.83901" lon="6.76102">
        <ele>2377.7</ele>
        <time>2026-03-03T09:08:24.999Z</time>
      </trkpt>
      <trkpt lat="44.83902" lon="6.76106">
        <ele>2380.1</ele>
        <time>2026-03-03T09:08:40.999Z</time>
      </trkpt>
      <trkpt lat="44.83902" lon="6.76107">
        <ele>2380.2</ele>
        <time>2026-03-03T09:08:41.999Z</time>
      </trkpt>
      <trkpt lat="44.83903" lon="6.76109">
        <ele>2380.2</ele>
        <time>2026-03-03T09:08:42.999Z</time>
      </trkpt>
      <trkpt lat="44.83903" lon="6.76111">
        <ele>2380.4</ele>
        <time>2026-03-03T09:08:43.999Z</time>
      </trkpt>
      <trkpt lat="44.83903" lon="6.76113">
        <ele>2380.7</ele>
        <time>2026-03-03T09:08:44.999Z</time>
      </trkpt>
      <trkpt lat="44.83903" lon="6.76114">
        <ele>2380.9</ele>
        <time>2026-03-03T09:08:45.999Z</time>
      </trkpt>
      <trkpt lat="44.83903" lon="6.76114">
        <ele>2381</ele>
        <time>2026-03-03T09:08:46.999Z</time>
      </trkpt>
      <trkpt lat="44.83903" lon="6.76115">
        <ele>2381.1</ele>
        <time>2026-03-03T09:08:47.999Z</time>
      </trkpt>
      <trkpt lat="44.83903" lon="6.76116">
        <ele>2381.2</ele>
        <time>2026-03-03T09:08:48.999Z</time>
      </trkpt>
      <trkpt lat="44.83903" lon="6.76118">
        <ele>2381.4</ele>
        <time>2026-03-03T09:08:49.999Z</time>
      </trkpt>
      <trkpt lat="44.83903" lon="6.76119">
        <ele>2381.6</ele>
        <time>2026-03-03T09:08:50.999Z</time>
      </trkpt>
      <trkpt lat="44.83903" lon="6.7612">
        <ele>2381.8</ele>
        <time>2026-03-03T09:08:51.999Z</time>
      </trkpt>
      <trkpt lat="44.83904" lon="6.76122">
        <ele>2382.7</ele>
        <time>2026-03-03T09:08:52.999Z</time>
      </trkpt>
      <trkpt lat="44.83904" lon="6.76123">
        <ele>2383.2</ele>
        <time>2026-03-03T09:08:53.999Z</time>
      </trkpt>
      <trkpt lat="44.83904" lon="6.76124">
        <ele>2383.7</ele>
        <time>2026-03-03T09:08:54.999Z</time>
      </trkpt>
      <trkpt lat="44.83905" lon="6.76125">
        <ele>2384.2</ele>
        <time>2026-03-03T09:08:55.999Z</time>
      </trkpt>
      <trkpt lat="44.83905" lon="6.76125">
        <ele>2384.7</ele>
        <time>2026-03-03T09:08:56.999Z</time>
      </trkpt>
      <trkpt lat="44.83905" lon="6.76126">
        <ele>2385</ele>
        <time>2026-03-03T09:08:57.999Z</time>
      </trkpt>
      <trkpt lat="44.83905" lon="6.76127">
        <ele>2385.2</ele>
        <time>2026-03-03T09:08:58.999Z</time>
      </trkpt>
      <trkpt lat="44.83905" lon="6.76128">
        <ele>2385.6</ele>
        <time>2026-03-03T09:08:59.999Z</time>
      </trkpt>
      <trkpt lat="44.83905" lon="6.76129">
        <ele>2385.9</ele>
        <time>2026-03-03T09:09:00.999Z</time>
      </trkpt>
      <trkpt lat="44.83905" lon="6.76129">
        <ele>2386.1</ele>
        <time>2026-03-03T09:09:01.999Z</time>
      </trkpt>
      <trkpt lat="44.83905" lon="6.7613">
        <ele>2386.4</ele>
        <time>2026-03-03T09:09:02.999Z</time>
      </trkpt>
      <trkpt lat="44.83905" lon="6.76131">
        <ele>2386.7</ele>
        <time>2026-03-03T09:09:03.999Z</time>
      </trkpt>
      <trkpt lat="44.83905" lon="6.76132">
        <ele>2386.8</ele>
        <time>2026-03-03T09:09:04.999Z</time>
      </trkpt>
      <trkpt lat="44.83905" lon="6.76133">
        <ele>2387.1</ele>
        <time>2026-03-03T09:09:05.999Z</time>
      </trkpt>
      <trkpt lat="44.83905" lon="6.76133">
        <ele>2387.3</ele>
        <time>2026-03-03T09:09:06.999Z</time>
      </trkpt>
      <trkpt lat="44.83905" lon="6.76134">
        <ele>2387.6</ele>
        <time>2026-03-03T09:09:07.999Z</time>
      </trkpt>
      <trkpt lat="44.83905" lon="6.76134">
        <ele>2387.9</ele>
        <time>2026-03-03T09:09:08.999Z</time>
      </trkpt>
      <trkpt lat="44.83905" lon="6.76135">
        <ele>2388</ele>
        <time>2026-03-03T09:09:09.999Z</time>
      </trkpt>
      <trkpt lat="44.83905" lon="6.76136">
        <ele>2388.2</ele>
        <time>2026-03-03T09:09:10.999Z</time>
      </trkpt>
      <trkpt lat="44.83905" lon="6.76136">
        <ele>2388.5</ele>
        <time>2026-03-03T09:09:11.999Z</time>
      </trkpt>
      <trkpt lat="44.83905" lon="6.76137">
        <ele>2388.8</ele>
        <time>2026-03-03T09:09:12.999Z</time>
      </trkpt>
      <trkpt lat="44.83906" lon="6.76137">
        <ele>2389.2</ele>
        <time>2026-03-03T09:09:13.999Z</time>
      </trkpt>
      <trkpt lat="44.83906" lon="6.76138">
        <ele>2389.5</ele>
        <time>2026-03-03T09:09:14.999Z</time>
      </trkpt>
      <trkpt lat="44.83906" lon="6.76139">
        <ele>2389.5</ele>
        <time>2026-03-03T09:09:15.999Z</time>
      </trkpt>
      <trkpt lat="44.83905" lon="6.7614">
        <ele>2389.7</ele>
        <time>2026-03-03T09:09:16.999Z</time>
      </trkpt>
      <trkpt lat="44.83905" lon="6.7614">
        <ele>2389.8</ele>
        <time>2026-03-03T09:09:17.999Z</time>
      </trkpt>
      <trkpt lat="44.83905" lon="6.76141">
        <ele>2389.8</ele>
        <time>2026-03-03T09:09:18.999Z</time>
      </trkpt>
      <trkpt lat="44.83905" lon="6.76143">
        <ele>2389.8</ele>
        <time>2026-03-03T09:09:19.999Z</time>
      </trkpt>
      <trkpt lat="44.83905" lon="6.76143">
        <ele>2389.9</ele>
        <time>2026-03-03T09:09:20.999Z</time>
      </trkpt>
      <trkpt lat="44.83905" lon="6.76144">
        <ele>2390</ele>
        <time>2026-03-03T09:09:21.999Z</time>
      </trkpt>
      <trkpt lat="44.83905" lon="6.76145">
        <ele>2390</ele>
        <time>2026-03-03T09:09:22.999Z</time>
      </trkpt>
      <trkpt lat="44.83905" lon="6.76146">
        <ele>2390.1</ele>
        <time>2026-03-03T09:09:23.999Z</time>
      </trkpt>
      <trkpt lat="44.83905" lon="6.76146">
        <ele>2390.4</ele>
        <time>2026-03-03T09:09:24.999Z</time>
      </trkpt>
      <trkpt lat="44.83905" lon="6.76148">
        <ele>2390.7</ele>
        <time>2026-03-03T09:09:25.999Z</time>
      </trkpt>
      <trkpt lat="44.83905" lon="6.76148">
        <ele>2391</ele>
        <time>2026-03-03T09:09:26.999Z</time>
      </trkpt>
      <trkpt lat="44.83905" lon="6.76149">
        <ele>2391.1</ele>
        <time>2026-03-03T09:09:27.999Z</time>
      </trkpt>
      <trkpt lat="44.83905" lon="6.7615">
        <ele>2391.3</ele>
        <time>2026-03-03T09:09:28.999Z</time>
      </trkpt>
      <trkpt lat="44.83905" lon="6.76151">
        <ele>2391.5</ele>
        <time>2026-03-03T09:09:29.999Z</time>
      </trkpt>
      <trkpt lat="44.83905" lon="6.76152">
        <ele>2391.6</ele>
        <time>2026-03-03T09:09:30.999Z</time>
      </trkpt>
      <trkpt lat="44.83905" lon="6.76153">
        <ele>2391.5</ele>
        <time>2026-03-03T09:09:31.999Z</time>
      </trkpt>
      <trkpt lat="44.83905" lon="6.76154">
        <ele>2391.6</ele>
        <time>2026-03-03T09:09:32.999Z</time>
      </trkpt>
      <trkpt lat="44.83905" lon="6.76154">
        <ele>2391.7</ele>
        <time>2026-03-03T09:09:33.999Z</time>
      </trkpt>
      <trkpt lat="44.83905" lon="6.76155">
        <ele>2392</ele>
        <time>2026-03-03T09:09:34.999Z</time>
      </trkpt>
      <trkpt lat="44.83906" lon="6.76156">
        <ele>2392.2</ele>
        <time>2026-03-03T09:09:35.999Z</time>
      </trkpt>
      <trkpt lat="44.83906" lon="6.76157">
        <ele>2392.3</ele>
        <time>2026-03-03T09:09:36.999Z</time>
      </trkpt>
      <trkpt lat="44.83906" lon="6.76158">
        <ele>2392.5</ele>
        <time>2026-03-03T09:09:37.999Z</time>
      </trkpt>
      <trkpt lat="44.83906" lon="6.76159">
        <ele>2392.6</ele>
        <time>2026-03-03T09:09:38.999Z</time>
      </trkpt>
      <trkpt lat="44.83906" lon="6.76159">
        <ele>2392.7</ele>
        <time>2026-03-03T09:09:39.999Z</time>
      </trkpt>
      <trkpt lat="44.83906" lon="6.7616">
        <ele>2392.7</ele>
        <time>2026-03-03T09:09:40.999Z</time>
      </trkpt>
      <trkpt lat="44.83906" lon="6.76161">
        <ele>2393</ele>
        <time>2026-03-03T09:09:41.999Z</time>
      </trkpt>
      <trkpt lat="44.83906" lon="6.76161">
        <ele>2393.2</ele>
        <time>2026-03-03T09:09:42.999Z</time>
      </trkpt>
      <trkpt lat="44.83906" lon="6.76162">
        <ele>2393.2</ele>
        <time>2026-03-03T09:09:43.999Z</time>
      </trkpt>
      <trkpt lat="44.83906" lon="6.76163">
        <ele>2393.4</ele>
        <time>2026-03-03T09:09:44.999Z</time>
      </trkpt>
      <trkpt lat="44.83906" lon="6.76163">
        <ele>2393.5</ele>
        <time>2026-03-03T09:09:45.999Z</time>
      </trkpt>
      <trkpt lat="44.83906" lon="6.76163">
        <ele>2393.7</ele>
        <time>2026-03-03T09:09:46.999Z</time>
      </trkpt>
      <trkpt lat="44.83906" lon="6.76164">
        <ele>2393.9</ele>
        <time>2026-03-03T09:09:47.999Z</time>
      </trkpt>
      <trkpt lat="44.83906" lon="6.76165">
        <ele>2393.9</ele>
        <time>2026-03-03T09:09:48.999Z</time>
      </trkpt>
      <trkpt lat="44.83907" lon="6.76165">
        <ele>2393.9</ele>
        <time>2026-03-03T09:09:49.999Z</time>
      </trkpt>
      <trkpt lat="44.83907" lon="6.76166">
        <ele>2393.9</ele>
        <time>2026-03-03T09:09:50.999Z</time>
      </trkpt>
      <trkpt lat="44.83907" lon="6.76167">
        <ele>2393.8</ele>
        <time>2026-03-03T09:09:51.999Z</time>
      </trkpt>
      <trkpt lat="44.83907" lon="6.76167">
        <ele>2393.8</ele>
        <time>2026-03-03T09:09:52.999Z</time>
      </trkpt>
      <trkpt lat="44.83908" lon="6.76168">
        <ele>2393.8</ele>
        <time>2026-03-03T09:09:53.999Z</time>
      </trkpt>
      <trkpt lat="44.83908" lon="6.76169">
        <ele>2394</ele>
        <time>2026-03-03T09:09:54.999Z</time>
      </trkpt>
      <trkpt lat="44.83908" lon="6.7617">
        <ele>2394.2</ele>
        <time>2026-03-03T09:09:55.999Z</time>
      </trkpt>
      <trkpt lat="44.83908" lon="6.7617">
        <ele>2394.3</ele>
        <time>2026-03-03T09:09:56.999Z</time>
      </trkpt>
      <trkpt lat="44.83909" lon="6.76171">
        <ele>2394.3</ele>
        <time>2026-03-03T09:09:57.999Z</time>
      </trkpt>
      <trkpt lat="44.83909" lon="6.76172">
        <ele>2394.5</ele>
        <time>2026-03-03T09:09:58.999Z</time>
      </trkpt>
      <trkpt lat="44.83909" lon="6.76173">
        <ele>2394.4</ele>
        <time>2026-03-03T09:09:59.999Z</time>
      </trkpt>
      <trkpt lat="44.83909" lon="6.76174">
        <ele>2394.4</ele>
        <time>2026-03-03T09:10:00.999Z</time>
      </trkpt>
      <trkpt lat="44.83909" lon="6.76174">
        <ele>2394.7</ele>
        <time>2026-03-03T09:10:01.999Z</time>
      </trkpt>
      <trkpt lat="44.8391" lon="6.76174">
        <ele>2395</ele>
        <time>2026-03-03T09:10:02.999Z</time>
      </trkpt>
      <trkpt lat="44.8391" lon="6.76174">
        <ele>2395.3</ele>
        <time>2026-03-03T09:10:03.999Z</time>
      </trkpt>
      <trkpt lat="44.8391" lon="6.76175">
        <ele>2395.4</ele>
        <time>2026-03-03T09:10:04.999Z</time>
      </trkpt>
      <trkpt lat="44.8391" lon="6.76175">
        <ele>2395.6</ele>
        <time>2026-03-03T09:10:05.999Z</time>
      </trkpt>
      <trkpt lat="44.8391" lon="6.76175">
        <ele>2395.9</ele>
        <time>2026-03-03T09:10:06.999Z</time>
      </trkpt>
      <trkpt lat="44.8391" lon="6.76176">
        <ele>2396.1</ele>
        <time>2026-03-03T09:10:07.999Z</time>
      </trkpt>
      <trkpt lat="44.8391" lon="6.76177">
        <ele>2396</ele>
        <time>2026-03-03T09:10:08.999Z</time>
      </trkpt>
      <trkpt lat="44.8391" lon="6.76178">
        <ele>2396.2</ele>
        <time>2026-03-03T09:10:09.999Z</time>
      </trkpt>
      <trkpt lat="44.83911" lon="6.76179">
        <ele>2396.4</ele>
        <time>2026-03-03T09:10:10.999Z</time>
      </trkpt>
      <trkpt lat="44.83911" lon="6.7618">
        <ele>2396.4</ele>
        <time>2026-03-03T09:10:11.999Z</time>
      </trkpt>
      <trkpt lat="44.83911" lon="6.7618">
        <ele>2396.5</ele>
        <time>2026-03-03T09:10:12.999Z</time>
      </trkpt>
      <trkpt lat="44.83911" lon="6.76181">
        <ele>2396.7</ele>
        <time>2026-03-03T09:10:13.999Z</time>
      </trkpt>
      <trkpt lat="44.83912" lon="6.76182">
        <ele>2396.7</ele>
        <time>2026-03-03T09:10:14.999Z</time>
      </trkpt>
      <trkpt lat="44.83912" lon="6.76183">
        <ele>2396.7</ele>
        <time>2026-03-03T09:10:15.999Z</time>
      </trkpt>
      <trkpt lat="44.83912" lon="6.76184">
        <ele>2396.8</ele>
        <time>2026-03-03T09:10:16.999Z</time>
      </trkpt>
      <trkpt lat="44.83912" lon="6.76185">
        <ele>2396.8</ele>
        <time>2026-03-03T09:10:17.999Z</time>
      </trkpt>
      <trkpt lat="44.83912" lon="6.76186">
        <ele>2396.9</ele>
        <time>2026-03-03T09:10:18.999Z</time>
      </trkpt>
      <trkpt lat="44.83912" lon="6.76187">
        <ele>2397.1</ele>
        <time>2026-03-03T09:10:19.999Z</time>
      </trkpt>
      <trkpt lat="44.83912" lon="6.76188">
        <ele>2397.2</ele>
        <time>2026-03-03T09:10:20.999Z</time>
      </trkpt>
      <trkpt lat="44.83913" lon="6.76189">
        <ele>2397.4</ele>
        <time>2026-03-03T09:10:21.999Z</time>
      </trkpt>
      <trkpt lat="44.83913" lon="6.7619">
        <ele>2397.5</ele>
        <time>2026-03-03T09:10:22.999Z</time>
      </trkpt>
      <trkpt lat="44.83913" lon="6.76191">
        <ele>2397.7</ele>
        <time>2026-03-03T09:10:23.999Z</time>
      </trkpt>
      <trkpt lat="44.83913" lon="6.76192">
        <ele>2397.8</ele>
        <time>2026-03-03T09:10:24.999Z</time>
      </trkpt>
      <trkpt lat="44.83913" lon="6.76192">
        <ele>2398.2</ele>
        <time>2026-03-03T09:10:25.999Z</time>
      </trkpt>
      <trkpt lat="44.83913" lon="6.76193">
        <ele>2398.3</ele>
        <time>2026-03-03T09:10:26.999Z</time>
      </trkpt>
      <trkpt lat="44.83913" lon="6.76194">
        <ele>2398.5</ele>
        <time>2026-03-03T09:10:27.999Z</time>
      </trkpt>
      <trkpt lat="44.83914" lon="6.76194">
        <ele>2398.7</ele>
        <time>2026-03-03T09:10:28.999Z</time>
      </trkpt>
      <trkpt lat="44.83914" lon="6.76194">
        <ele>2399</ele>
        <time>2026-03-03T09:10:29.999Z</time>
      </trkpt>
      <trkpt lat="44.83914" lon="6.76195">
        <ele>2399.1</ele>
        <time>2026-03-03T09:10:30.999Z</time>
      </trkpt>
      <trkpt lat="44.83914" lon="6.76196">
        <ele>2399.2</ele>
        <time>2026-03-03T09:10:31.999Z</time>
      </trkpt>
      <trkpt lat="44.83915" lon="6.76196">
        <ele>2399.4</ele>
        <time>2026-03-03T09:10:32.999Z</time>
      </trkpt>
      <trkpt lat="44.83915" lon="6.76196">
        <ele>2399.7</ele>
        <time>2026-03-03T09:10:33.999Z</time>
      </trkpt>
      <trkpt lat="44.83915" lon="6.76197">
        <ele>2399.8</ele>
        <time>2026-03-03T09:10:34.999Z</time>
      </trkpt>
      <trkpt lat="44.83916" lon="6.76198">
        <ele>2399.9</ele>
        <time>2026-03-03T09:10:35.999Z</time>
      </trkpt>
      <trkpt lat="44.83916" lon="6.76199">
        <ele>2400.2</ele>
        <time>2026-03-03T09:10:36.999Z</time>
      </trkpt>
      <trkpt lat="44.83916" lon="6.762">
        <ele>2400.2</ele>
        <time>2026-03-03T09:10:37.999Z</time>
      </trkpt>
      <trkpt lat="44.83917" lon="6.76201">
        <ele>2400.1</ele>
        <time>2026-03-03T09:10:38.999Z</time>
      </trkpt>
      <trkpt lat="44.83917" lon="6.76202">
        <ele>2400.4</ele>
        <time>2026-03-03T09:10:39.999Z</time>
      </trkpt>
      <trkpt lat="44.83917" lon="6.76202">
        <ele>2400.4</ele>
        <time>2026-03-03T09:10:40.999Z</time>
      </trkpt>
      <trkpt lat="44.83917" lon="6.76203">
        <ele>2400.4</ele>
        <time>2026-03-03T09:10:41.999Z</time>
      </trkpt>
      <trkpt lat="44.83918" lon="6.76204">
        <ele>2400.5</ele>
        <time>2026-03-03T09:10:42.999Z</time>
      </trkpt>
      <trkpt lat="44.83918" lon="6.76204">
        <ele>2400.5</ele>
        <time>2026-03-03T09:10:43.999Z</time>
      </trkpt>
      <trkpt lat="44.83919" lon="6.76205">
        <ele>2400.5</ele>
        <time>2026-03-03T09:10:44.999Z</time>
      </trkpt>
      <trkpt lat="44.83919" lon="6.76206">
        <ele>2400.5</ele>
        <time>2026-03-03T09:10:45.999Z</time>
      </trkpt>
      <trkpt lat="44.8392" lon="6.76207">
        <ele>2400.5</ele>
        <time>2026-03-03T09:10:46.999Z</time>
      </trkpt>
      <trkpt lat="44.8392" lon="6.76207">
        <ele>2400.7</ele>
        <time>2026-03-03T09:10:47.999Z</time>
      </trkpt>
      <trkpt lat="44.83921" lon="6.76209">
        <ele>2400.7</ele>
        <time>2026-03-03T09:10:48.999Z</time>
      </trkpt>
      <trkpt lat="44.83921" lon="6.76209">
        <ele>2400.9</ele>
        <time>2026-03-03T09:10:49.999Z</time>
      </trkpt>
      <trkpt lat="44.83922" lon="6.7621">
        <ele>2400.9</ele>
        <time>2026-03-03T09:10:50.999Z</time>
      </trkpt>
      <trkpt lat="44.83922" lon="6.76211">
        <ele>2401</ele>
        <time>2026-03-03T09:10:51.999Z</time>
      </trkpt>
      <trkpt lat="44.83922" lon="6.76212">
        <ele>2400.9</ele>
        <time>2026-03-03T09:10:52.999Z</time>
      </trkpt>
      <trkpt lat="44.83922" lon="6.76213">
        <ele>2401</ele>
        <time>2026-03-03T09:10:53.999Z</time>
      </trkpt>
      <trkpt lat="44.83923" lon="6.76214">
        <ele>2401.2</ele>
        <time>2026-03-03T09:10:54.999Z</time>
      </trkpt>
      <trkpt lat="44.83923" lon="6.76214">
        <ele>2401.3</ele>
        <time>2026-03-03T09:10:55.999Z</time>
      </trkpt>
      <trkpt lat="44.83923" lon="6.76215">
        <ele>2401.5</ele>
        <time>2026-03-03T09:10:56.999Z</time>
      </trkpt>
      <trkpt lat="44.83923" lon="6.76216">
        <ele>2401.5</ele>
        <time>2026-03-03T09:10:57.999Z</time>
      </trkpt>
      <trkpt lat="44.83924" lon="6.76216">
        <ele>2401.8</ele>
        <time>2026-03-03T09:10:58.999Z</time>
      </trkpt>
      <trkpt lat="44.83924" lon="6.76217">
        <ele>2401.9</ele>
        <time>2026-03-03T09:10:59.999Z</time>
      </trkpt>
      <trkpt lat="44.83924" lon="6.76217">
        <ele>2402</ele>
        <time>2026-03-03T09:11:00.999Z</time>
      </trkpt>
      <trkpt lat="44.83924" lon="6.76218">
        <ele>2402.1</ele>
        <time>2026-03-03T09:11:01.999Z</time>
      </trkpt>
      <trkpt lat="44.83925" lon="6.76218">
        <ele>2401.9</ele>
        <time>2026-03-03T09:11:02.999Z</time>
      </trkpt>
      <trkpt lat="44.83925" lon="6.76219">
        <ele>2401.9</ele>
        <time>2026-03-03T09:11:03.999Z</time>
      </trkpt>
      <trkpt lat="44.83925" lon="6.76219">
        <ele>2401.9</ele>
        <time>2026-03-03T09:11:04.999Z</time>
      </trkpt>
      <trkpt lat="44.83925" lon="6.7622">
        <ele>2402.1</ele>
        <time>2026-03-03T09:11:05.999Z</time>
      </trkpt>
      <trkpt lat="44.83926" lon="6.76221">
        <ele>2402.3</ele>
        <time>2026-03-03T09:11:06.999Z</time>
      </trkpt>
      <trkpt lat="44.83926" lon="6.76221">
        <ele>2402.5</ele>
        <time>2026-03-03T09:11:07.999Z</time>
      </trkpt>
      <trkpt lat="44.83927" lon="6.76222">
        <ele>2402.7</ele>
        <time>2026-03-03T09:11:08.999Z</time>
      </trkpt>
      <trkpt lat="44.83927" lon="6.76223">
        <ele>2402.8</ele>
        <time>2026-03-03T09:11:09.999Z</time>
      </trkpt>
      <trkpt lat="44.83927" lon="6.76224">
        <ele>2403</ele>
        <time>2026-03-03T09:11:10.999Z</time>
      </trkpt>
      <trkpt lat="44.83928" lon="6.76225">
        <ele>2403.2</ele>
        <time>2026-03-03T09:11:11.999Z</time>
      </trkpt>
      <trkpt lat="44.83928" lon="6.76226">
        <ele>2403.4</ele>
        <time>2026-03-03T09:11:12.999Z</time>
      </trkpt>
      <trkpt lat="44.83929" lon="6.76227">
        <ele>2403.8</ele>
        <time>2026-03-03T09:11:13.999Z</time>
      </trkpt>
      <trkpt lat="44.83929" lon="6.76228">
        <ele>2404.2</ele>
        <time>2026-03-03T09:11:14.999Z</time>
      </trkpt>
      <trkpt lat="44.8393" lon="6.76229">
        <ele>2404.4</ele>
        <time>2026-03-03T09:11:15.999Z</time>
      </trkpt>
      <trkpt lat="44.8393" lon="6.76229">
        <ele>2404.5</ele>
        <time>2026-03-03T09:11:16.999Z</time>
      </trkpt>
      <trkpt lat="44.83931" lon="6.7623">
        <ele>2404.6</ele>
        <time>2026-03-03T09:11:17.999Z</time>
      </trkpt>
      <trkpt lat="44.83931" lon="6.7623">
        <ele>2404.8</ele>
        <time>2026-03-03T09:11:18.999Z</time>
      </trkpt>
      <trkpt lat="44.83931" lon="6.76231">
        <ele>2405</ele>
        <time>2026-03-03T09:11:19.999Z</time>
      </trkpt>
      <trkpt lat="44.83932" lon="6.76231">
        <ele>2405.1</ele>
        <time>2026-03-03T09:11:20.999Z</time>
      </trkpt>
      <trkpt lat="44.83932" lon="6.76232">
        <ele>2405.3</ele>
        <time>2026-03-03T09:11:21.999Z</time>
      </trkpt>
      <trkpt lat="44.83932" lon="6.76232">
        <ele>2405.4</ele>
        <time>2026-03-03T09:11:22.999Z</time>
      </trkpt>
      <trkpt lat="44.83932" lon="6.76233">
        <ele>2405.5</ele>
        <time>2026-03-03T09:11:23.999Z</time>
      </trkpt>
      <trkpt lat="44.83932" lon="6.76233">
        <ele>2405.6</ele>
        <time>2026-03-03T09:11:24.999Z</time>
      </trkpt>
      <trkpt lat="44.83932" lon="6.76234">
        <ele>2405.5</ele>
        <time>2026-03-03T09:11:25.999Z</time>
      </trkpt>
      <trkpt lat="44.83933" lon="6.76234">
        <ele>2405.6</ele>
        <time>2026-03-03T09:11:26.999Z</time>
      </trkpt>
      <trkpt lat="44.83934" lon="6.76235">
        <ele>2405.5</ele>
        <time>2026-03-03T09:11:27.999Z</time>
      </trkpt>
      <trkpt lat="44.83934" lon="6.76236">
        <ele>2405.5</ele>
        <time>2026-03-03T09:11:28.999Z</time>
      </trkpt>
      <trkpt lat="44.83934" lon="6.76236">
        <ele>2405.6</ele>
        <time>2026-03-03T09:11:29.999Z</time>
      </trkpt>
      <trkpt lat="44.83934" lon="6.76237">
        <ele>2405.8</ele>
        <time>2026-03-03T09:11:30.999Z</time>
      </trkpt>
      <trkpt lat="44.83934" lon="6.76237">
        <ele>2406</ele>
        <time>2026-03-03T09:11:31.999Z</time>
      </trkpt>
      <trkpt lat="44.83935" lon="6.76238">
        <ele>2406</ele>
        <time>2026-03-03T09:11:32.999Z</time>
      </trkpt>
      <trkpt lat="44.83935" lon="6.76239">
        <ele>2406.1</ele>
        <time>2026-03-03T09:11:33.999Z</time>
      </trkpt>
      <trkpt lat="44.83936" lon="6.7624">
        <ele>2406.4</ele>
        <time>2026-03-03T09:11:34.999Z</time>
      </trkpt>
      <trkpt lat="44.83937" lon="6.76241">
        <ele>2406.6</ele>
        <time>2026-03-03T09:11:35.999Z</time>
      </trkpt>
      <trkpt lat="44.83937" lon="6.76241">
        <ele>2406.9</ele>
        <time>2026-03-03T09:11:36.999Z</time>
      </trkpt>
      <trkpt lat="44.83938" lon="6.76242">
        <ele>2407</ele>
        <time>2026-03-03T09:11:37.999Z</time>
      </trkpt>
      <trkpt lat="44.83938" lon="6.76242">
        <ele>2407.1</ele>
        <time>2026-03-03T09:11:38.999Z</time>
      </trkpt>
      <trkpt lat="44.83939" lon="6.76243">
        <ele>2407.3</ele>
        <time>2026-03-03T09:11:39.999Z</time>
      </trkpt>
      <trkpt lat="44.83939" lon="6.76244">
        <ele>2407.5</ele>
        <time>2026-03-03T09:11:40.999Z</time>
      </trkpt>
      <trkpt lat="44.8394" lon="6.76244">
        <ele>2407.8</ele>
        <time>2026-03-03T09:11:41.999Z</time>
      </trkpt>
      <trkpt lat="44.83941" lon="6.76245">
        <ele>2408.1</ele>
        <time>2026-03-03T09:11:42.999Z</time>
      </trkpt>
      <trkpt lat="44.83941" lon="6.76245">
        <ele>2408.4</ele>
        <time>2026-03-03T09:11:43.999Z</time>
      </trkpt>
      <trkpt lat="44.83941" lon="6.76245">
        <ele>2408.5</ele>
        <time>2026-03-03T09:11:44.999Z</time>
      </trkpt>
      <trkpt lat="44.83942" lon="6.76246">
        <ele>2408.8</ele>
        <time>2026-03-03T09:11:45.999Z</time>
      </trkpt>
      <trkpt lat="44.83942" lon="6.76246">
        <ele>2409</ele>
        <time>2026-03-03T09:11:46.999Z</time>
      </trkpt>
      <trkpt lat="44.83943" lon="6.76247">
        <ele>2409.4</ele>
        <time>2026-03-03T09:11:47.999Z</time>
      </trkpt>
      <trkpt lat="44.83944" lon="6.76247">
        <ele>2409.8</ele>
        <time>2026-03-03T09:11:48.999Z</time>
      </trkpt>
      <trkpt lat="44.83944" lon="6.76247">
        <ele>2409.8</ele>
        <time>2026-03-03T09:11:49.999Z</time>
      </trkpt>
      <trkpt lat="44.83944" lon="6.76248">
        <ele>2409.7</ele>
        <time>2026-03-03T09:11:50.999Z</time>
      </trkpt>
      <trkpt lat="44.83946" lon="6.76251">
        <ele>2411.1</ele>
        <time>2026-03-03T09:12:04.999Z</time>
      </trkpt>
      <trkpt lat="44.83946" lon="6.76252">
        <ele>2411.4</ele>
        <time>2026-03-03T09:12:05.999Z</time>
      </trkpt>
      <trkpt lat="44.83947" lon="6.76252">
        <ele>2411.7</ele>
        <time>2026-03-03T09:12:06.999Z</time>
      </trkpt>
      <trkpt lat="44.83947" lon="6.76253">
        <ele>2411.8</ele>
        <time>2026-03-03T09:12:07.999Z</time>
      </trkpt>
      <trkpt lat="44.83947" lon="6.76253">
        <ele>2411.7</ele>
        <time>2026-03-03T09:12:08.999Z</time>
      </trkpt>
      <trkpt lat="44.83948" lon="6.76254">
        <ele>2411.8</ele>
        <time>2026-03-03T09:12:09.999Z</time>
      </trkpt>
      <trkpt lat="44.83948" lon="6.76255">
        <ele>2411.9</ele>
        <time>2026-03-03T09:12:10.999Z</time>
      </trkpt>
      <trkpt lat="44.83949" lon="6.76255">
        <ele>2412.1</ele>
        <time>2026-03-03T09:12:11.999Z</time>
      </trkpt>
      <trkpt lat="44.8395" lon="6.76256">
        <ele>2412.2</ele>
        <time>2026-03-03T09:12:12.999Z</time>
      </trkpt>
      <trkpt lat="44.8395" lon="6.76257">
        <ele>2412.3</ele>
        <time>2026-03-03T09:12:13.999Z</time>
      </trkpt>
      <trkpt lat="44.83951" lon="6.76257">
        <ele>2412.3</ele>
        <time>2026-03-03T09:12:14.999Z</time>
      </trkpt>
      <trkpt lat="44.83952" lon="6.76258">
        <ele>2412.2</ele>
        <time>2026-03-03T09:12:15.999Z</time>
      </trkpt>
      <trkpt lat="44.83953" lon="6.76258">
        <ele>2412</ele>
        <time>2026-03-03T09:12:16.999Z</time>
      </trkpt>
      <trkpt lat="44.83953" lon="6.76259">
        <ele>2412</ele>
        <time>2026-03-03T09:12:17.999Z</time>
      </trkpt>
      <trkpt lat="44.83953" lon="6.76259">
        <ele>2412</ele>
        <time>2026-03-03T09:12:18.999Z</time>
      </trkpt>
      <trkpt lat="44.83953" lon="6.76259">
        <ele>2412.1</ele>
        <time>2026-03-03T09:12:19.999Z</time>
      </trkpt>
      <trkpt lat="44.83953" lon="6.76259">
        <ele>2412.2</ele>
        <time>2026-03-03T09:12:20.999Z</time>
      </trkpt>
      <trkpt lat="44.83954" lon="6.7626">
        <ele>2412.2</ele>
        <time>2026-03-03T09:12:21.999Z</time>
      </trkpt>
      <trkpt lat="44.83954" lon="6.7626">
        <ele>2412.3</ele>
        <time>2026-03-03T09:12:22.999Z</time>
      </trkpt>
      <trkpt lat="44.83954" lon="6.7626">
        <ele>2412.7</ele>
        <time>2026-03-03T09:12:23.999Z</time>
      </trkpt>
      <trkpt lat="44.83954" lon="6.76261">
        <ele>2413</ele>
        <time>2026-03-03T09:12:24.999Z</time>
      </trkpt>
      <trkpt lat="44.83954" lon="6.76261">
        <ele>2413.3</ele>
        <time>2026-03-03T09:12:25.999Z</time>
      </trkpt>
      <trkpt lat="44.83954" lon="6.76261">
        <ele>2413.7</ele>
        <time>2026-03-03T09:12:26.999Z</time>
      </trkpt>
      <trkpt lat="44.83954" lon="6.76262">
        <ele>2413.8</ele>
        <time>2026-03-03T09:12:27.999Z</time>
      </trkpt>
      <trkpt lat="44.83955" lon="6.76262">
        <ele>2414</ele>
        <time>2026-03-03T09:12:28.999Z</time>
      </trkpt>
      <trkpt lat="44.83955" lon="6.76263">
        <ele>2414.2</ele>
        <time>2026-03-03T09:12:29.999Z</time>
      </trkpt>
      <trkpt lat="44.83955" lon="6.76263">
        <ele>2414.4</ele>
        <time>2026-03-03T09:12:30.999Z</time>
      </trkpt>
      <trkpt lat="44.83955" lon="6.76264">
        <ele>2414.4</ele>
        <time>2026-03-03T09:12:31.999Z</time>
      </trkpt>
      <trkpt lat="44.83956" lon="6.76265">
        <ele>2414.5</ele>
        <time>2026-03-03T09:12:32.999Z</time>
      </trkpt>
      <trkpt lat="44.83956" lon="6.76265">
        <ele>2414.7</ele>
        <time>2026-03-03T09:12:33.999Z</time>
      </trkpt>
      <trkpt lat="44.83957" lon="6.76266">
        <ele>2414.8</ele>
        <time>2026-03-03T09:12:34.999Z</time>
      </trkpt>
      <trkpt lat="44.83957" lon="6.76267">
        <ele>2414.8</ele>
        <time>2026-03-03T09:12:35.999Z</time>
      </trkpt>
      <trkpt lat="44.83957" lon="6.76267">
        <ele>2414.9</ele>
        <time>2026-03-03T09:12:36.999Z</time>
      </trkpt>
      <trkpt lat="44.83957" lon="6.76268">
        <ele>2415</ele>
        <time>2026-03-03T09:12:37.999Z</time>
      </trkpt>
      <trkpt lat="44.83957" lon="6.76268">
        <ele>2415.1</ele>
        <time>2026-03-03T09:12:38.999Z</time>
      </trkpt>
      <trkpt lat="44.83957" lon="6.76268">
        <ele>2415.1</ele>
        <time>2026-03-03T09:12:39.999Z</time>
      </trkpt>
      <trkpt lat="44.83957" lon="6.76269">
        <ele>2415.2</ele>
        <time>2026-03-03T09:12:40.999Z</time>
      </trkpt>
      <trkpt lat="44.83957" lon="6.76269">
        <ele>2415.2</ele>
        <time>2026-03-03T09:12:41.999Z</time>
      </trkpt>
      <trkpt lat="44.83957" lon="6.76269">
        <ele>2415.2</ele>
        <time>2026-03-03T09:12:42.999Z</time>
      </trkpt>
      <trkpt lat="44.83957" lon="6.7627">
        <ele>2415.2</ele>
        <time>2026-03-03T09:12:43.999Z</time>
      </trkpt>
      <trkpt lat="44.83957" lon="6.7627">
        <ele>2415.3</ele>
        <time>2026-03-03T09:12:44.999Z</time>
      </trkpt>
      <trkpt lat="44.83957" lon="6.7627">
        <ele>2415.2</ele>
        <time>2026-03-03T09:12:45.999Z</time>
      </trkpt>
      <trkpt lat="44.83957" lon="6.76271">
        <ele>2415.2</ele>
        <time>2026-03-03T09:12:46.999Z</time>
      </trkpt>
      <trkpt lat="44.83957" lon="6.76272">
        <ele>2415.2</ele>
        <time>2026-03-03T09:12:47.999Z</time>
      </trkpt>
      <trkpt lat="44.83957" lon="6.76272">
        <ele>2415.3</ele>
        <time>2026-03-03T09:12:48.999Z</time>
      </trkpt>
      <trkpt lat="44.83956" lon="6.76273">
        <ele>2415.4</ele>
        <time>2026-03-03T09:12:49.999Z</time>
      </trkpt>
      <trkpt lat="44.83956" lon="6.76275">
        <ele>2415.6</ele>
        <time>2026-03-03T09:12:50.999Z</time>
      </trkpt>
      <trkpt lat="44.83955" lon="6.76277">
        <ele>2415.7</ele>
        <time>2026-03-03T09:12:51.999Z</time>
      </trkpt>
      <trkpt lat="44.83955" lon="6.76278">
        <ele>2415.8</ele>
        <time>2026-03-03T09:12:52.999Z</time>
      </trkpt>
      <trkpt lat="44.83955" lon="6.76278">
        <ele>2415.9</ele>
        <time>2026-03-03T09:12:53.999Z</time>
      </trkpt>
      <trkpt lat="44.83955" lon="6.76279">
        <ele>2416.3</ele>
        <time>2026-03-03T09:12:54.999Z</time>
      </trkpt>
      <trkpt lat="44.83955" lon="6.76279">
        <ele>2416.4</ele>
        <time>2026-03-03T09:12:55.999Z</time>
      </trkpt>
      <trkpt lat="44.83954" lon="6.7628">
        <ele>2416.3</ele>
        <time>2026-03-03T09:12:56.999Z</time>
      </trkpt>
      <trkpt lat="44.83954" lon="6.76281">
        <ele>2416.6</ele>
        <time>2026-03-03T09:12:57.999Z</time>
      </trkpt>
      <trkpt lat="44.83954" lon="6.76282">
        <ele>2416.7</ele>
        <time>2026-03-03T09:12:58.999Z</time>
      </trkpt>
      <trkpt lat="44.83953" lon="6.76282">
        <ele>2417</ele>
        <time>2026-03-03T09:12:59.999Z</time>
      </trkpt>
      <trkpt lat="44.83953" lon="6.76282">
        <ele>2417.1</ele>
        <time>2026-03-03T09:13:00.999Z</time>
      </trkpt>
      <trkpt lat="44.83952" lon="6.76282">
        <ele>2417.1</ele>
        <time>2026-03-03T09:13:01.999Z</time>
      </trkpt>
      <trkpt lat="44.83952" lon="6.76283">
        <ele>2417.2</ele>
        <time>2026-03-03T09:13:02.999Z</time>
      </trkpt>
      <trkpt lat="44.83951" lon="6.76283">
        <ele>2417.1</ele>
        <time>2026-03-03T09:13:03.999Z</time>
      </trkpt>
      <trkpt lat="44.83951" lon="6.76284">
        <ele>2417.2</ele>
        <time>2026-03-03T09:13:04.999Z</time>
      </trkpt>
      <trkpt lat="44.8395" lon="6.76284">
        <ele>2417.5</ele>
        <time>2026-03-03T09:13:05.999Z</time>
      </trkpt>
      <trkpt lat="44.8395" lon="6.76284">
        <ele>2417.6</ele>
        <time>2026-03-03T09:13:06.999Z</time>
      </trkpt>
      <trkpt lat="44.8395" lon="6.76285">
        <ele>2417.9</ele>
        <time>2026-03-03T09:13:07.999Z</time>
      </trkpt>
      <trkpt lat="44.83949" lon="6.76285">
        <ele>2418.1</ele>
        <time>2026-03-03T09:13:08.999Z</time>
      </trkpt>
      <trkpt lat="44.83949" lon="6.76285">
        <ele>2418.4</ele>
        <time>2026-03-03T09:13:09.999Z</time>
      </trkpt>
      <trkpt lat="44.83948" lon="6.76286">
        <ele>2418.4</ele>
        <time>2026-03-03T09:13:10.999Z</time>
      </trkpt>
      <trkpt lat="44.83948" lon="6.76286">
        <ele>2418.4</ele>
        <time>2026-03-03T09:13:11.999Z</time>
      </trkpt>
      <trkpt lat="44.83948" lon="6.76287">
        <ele>2418.7</ele>
        <time>2026-03-03T09:13:12.999Z</time>
      </trkpt>
      <trkpt lat="44.83948" lon="6.76287">
        <ele>2418.7</ele>
        <time>2026-03-03T09:13:13.999Z</time>
      </trkpt>
      <trkpt lat="44.83948" lon="6.76287">
        <ele>2418.8</ele>
        <time>2026-03-03T09:13:14.999Z</time>
      </trkpt>
      <trkpt lat="44.83948" lon="6.76288">
        <ele>2419</ele>
        <time>2026-03-03T09:13:15.999Z</time>
      </trkpt>
      <trkpt lat="44.83948" lon="6.76288">
        <ele>2419.2</ele>
        <time>2026-03-03T09:13:16.999Z</time>
      </trkpt>
      <trkpt lat="44.83948" lon="6.76289">
        <ele>2419.4</ele>
        <time>2026-03-03T09:13:17.999Z</time>
      </trkpt>
      <trkpt lat="44.83948" lon="6.76289">
        <ele>2419.5</ele>
        <time>2026-03-03T09:13:18.999Z</time>
      </trkpt>
      <trkpt lat="44.83948" lon="6.76289">
        <ele>2419.5</ele>
        <time>2026-03-03T09:13:19.999Z</time>
      </trkpt>
      <trkpt lat="44.83947" lon="6.7629">
        <ele>2419.6</ele>
        <time>2026-03-03T09:13:20.999Z</time>
      </trkpt>
      <trkpt lat="44.83947" lon="6.7629">
        <ele>2419.7</ele>
        <time>2026-03-03T09:13:21.999Z</time>
      </trkpt>
      <trkpt lat="44.83947" lon="6.7629">
        <ele>2419.8</ele>
        <time>2026-03-03T09:13:22.999Z</time>
      </trkpt>
      <trkpt lat="44.83947" lon="6.76291">
        <ele>2419.9</ele>
        <time>2026-03-03T09:13:23.999Z</time>
      </trkpt>
      <trkpt lat="44.83947" lon="6.76291">
        <ele>2420</ele>
        <time>2026-03-03T09:13:24.999Z</time>
      </trkpt>
      <trkpt lat="44.83947" lon="6.76292">
        <ele>2420.1</ele>
        <time>2026-03-03T09:13:25.999Z</time>
      </trkpt>
      <trkpt lat="44.83947" lon="6.76292">
        <ele>2420.2</ele>
        <time>2026-03-03T09:13:26.999Z</time>
      </trkpt>
      <trkpt lat="44.83946" lon="6.76293">
        <ele>2420.4</ele>
        <time>2026-03-03T09:13:27.999Z</time>
      </trkpt>
      <trkpt lat="44.83946" lon="6.76293">
        <ele>2420.5</ele>
        <time>2026-03-03T09:13:28.999Z</time>
      </trkpt>
      <trkpt lat="44.83946" lon="6.76294">
        <ele>2420.6</ele>
        <time>2026-03-03T09:13:29.999Z</time>
      </trkpt>
      <trkpt lat="44.83946" lon="6.76294">
        <ele>2420.8</ele>
        <time>2026-03-03T09:13:30.999Z</time>
      </trkpt>
      <trkpt lat="44.83945" lon="6.76296">
        <ele>2420.8</ele>
        <time>2026-03-03T09:13:31.999Z</time>
      </trkpt>
      <trkpt lat="44.83944" lon="6.76297">
        <ele>2420.7</ele>
        <time>2026-03-03T09:13:32.999Z</time>
      </trkpt>
      <trkpt lat="44.83943" lon="6.76299">
        <ele>2420.8</ele>
        <time>2026-03-03T09:13:33.999Z</time>
      </trkpt>
      <trkpt lat="44.83943" lon="6.76299">
        <ele>2420.7</ele>
        <time>2026-03-03T09:13:34.999Z</time>
      </trkpt>
      <trkpt lat="44.83943" lon="6.763">
        <ele>2420.8</ele>
        <time>2026-03-03T09:13:35.999Z</time>
      </trkpt>
      <trkpt lat="44.83942" lon="6.76301">
        <ele>2420.9</ele>
        <time>2026-03-03T09:13:36.999Z</time>
      </trkpt>
      <trkpt lat="44.83942" lon="6.76301">
        <ele>2421.1</ele>
        <time>2026-03-03T09:13:37.999Z</time>
      </trkpt>
      <trkpt lat="44.83942" lon="6.76301">
        <ele>2421.3</ele>
        <time>2026-03-03T09:13:38.999Z</time>
      </trkpt>
      <trkpt lat="44.83942" lon="6.76302">
        <ele>2421.4</ele>
        <time>2026-03-03T09:13:39.999Z</time>
      </trkpt>
      <trkpt lat="44.83942" lon="6.76302">
        <ele>2421.7</ele>
        <time>2026-03-03T09:13:40.999Z</time>
      </trkpt>
      <trkpt lat="44.83942" lon="6.76303">
        <ele>2421.8</ele>
        <time>2026-03-03T09:13:41.999Z</time>
      </trkpt>
      <trkpt lat="44.83941" lon="6.76303">
        <ele>2421.8</ele>
        <time>2026-03-03T09:13:42.999Z</time>
      </trkpt>
      <trkpt lat="44.8394" lon="6.76305">
        <ele>2421.8</ele>
        <time>2026-03-03T09:13:43.999Z</time>
      </trkpt>
      <trkpt lat="44.83939" lon="6.76307">
        <ele>2421.9</ele>
        <time>2026-03-03T09:13:44.999Z</time>
      </trkpt>
      <trkpt lat="44.83938" lon="6.76308">
        <ele>2421.9</ele>
        <time>2026-03-03T09:13:45.999Z</time>
      </trkpt>
      <trkpt lat="44.83938" lon="6.76309">
        <ele>2421.9</ele>
        <time>2026-03-03T09:13:46.999Z</time>
      </trkpt>
      <trkpt lat="44.83937" lon="6.7631">
        <ele>2421.9</ele>
        <time>2026-03-03T09:13:47.999Z</time>
      </trkpt>
      <trkpt lat="44.83936" lon="6.76311">
        <ele>2421.9</ele>
        <time>2026-03-03T09:13:48.999Z</time>
      </trkpt>
      <trkpt lat="44.83936" lon="6.76312">
        <ele>2421.8</ele>
        <time>2026-03-03T09:13:49.999Z</time>
      </trkpt>
      <trkpt lat="44.83935" lon="6.76313">
        <ele>2421.6</ele>
        <time>2026-03-03T09:13:50.999Z</time>
      </trkpt>
      <trkpt lat="44.83934" lon="6.76314">
        <ele>2421.5</ele>
        <time>2026-03-03T09:13:51.999Z</time>
      </trkpt>
      <trkpt lat="44.83934" lon="6.76315">
        <ele>2421.5</ele>
        <time>2026-03-03T09:13:52.999Z</time>
      </trkpt>
      <trkpt lat="44.83934" lon="6.76316">
        <ele>2421.6</ele>
        <time>2026-03-03T09:13:53.999Z</time>
      </trkpt>
      <trkpt lat="44.83934" lon="6.76316">
        <ele>2421.8</ele>
        <time>2026-03-03T09:13:54.999Z</time>
      </trkpt>
      <trkpt lat="44.83934" lon="6.76317">
        <ele>2422</ele>
        <time>2026-03-03T09:13:55.999Z</time>
      </trkpt>
      <trkpt lat="44.83934" lon="6.76317">
        <ele>2422.5</ele>
        <time>2026-03-03T09:13:56.999Z</time>
      </trkpt>
      <trkpt lat="44.83934" lon="6.76318">
        <ele>2423</ele>
        <time>2026-03-03T09:13:57.999Z</time>
      </trkpt>
      <trkpt lat="44.83934" lon="6.76318">
        <ele>2423.3</ele>
        <time>2026-03-03T09:13:58.999Z</time>
      </trkpt>
      <trkpt lat="44.83934" lon="6.76319">
        <ele>2423.6</ele>
        <time>2026-03-03T09:13:59.999Z</time>
      </trkpt>
      <trkpt lat="44.83934" lon="6.7632">
        <ele>2424</ele>
        <time>2026-03-03T09:14:00.999Z</time>
      </trkpt>
      <trkpt lat="44.83935" lon="6.76321">
        <ele>2424.2</ele>
        <time>2026-03-03T09:14:01.999Z</time>
      </trkpt>
      <trkpt lat="44.83935" lon="6.76322">
        <ele>2424.5</ele>
        <time>2026-03-03T09:14:02.999Z</time>
      </trkpt>
      <trkpt lat="44.83935" lon="6.76322">
        <ele>2424.6</ele>
        <time>2026-03-03T09:14:03.999Z</time>
      </trkpt>
      <trkpt lat="44.83936" lon="6.76323">
        <ele>2424.7</ele>
        <time>2026-03-03T09:14:04.999Z</time>
      </trkpt>
      <trkpt lat="44.83936" lon="6.76324">
        <ele>2424.7</ele>
        <time>2026-03-03T09:14:05.999Z</time>
      </trkpt>
      <trkpt lat="44.83936" lon="6.76324">
        <ele>2424.6</ele>
        <time>2026-03-03T09:14:06.999Z</time>
      </trkpt>
      <trkpt lat="44.83935" lon="6.76324">
        <ele>2424.8</ele>
        <time>2026-03-03T09:14:07.999Z</time>
      </trkpt>
      <trkpt lat="44.83936" lon="6.76325">
        <ele>2425.6</ele>
        <time>2026-03-03T09:14:08.999Z</time>
      </trkpt>
      <trkpt lat="44.83936" lon="6.76325">
        <ele>2426.1</ele>
        <time>2026-03-03T09:14:09.999Z</time>
      </trkpt>
      <trkpt lat="44.83936" lon="6.76326">
        <ele>2426.4</ele>
        <time>2026-03-03T09:14:10.999Z</time>
      </trkpt>
      <trkpt lat="44.83936" lon="6.76326">
        <ele>2426.9</ele>
        <time>2026-03-03T09:14:11.999Z</time>
      </trkpt>
      <trkpt lat="44.83936" lon="6.76327">
        <ele>2427.3</ele>
        <time>2026-03-03T09:14:12.999Z</time>
      </trkpt>
      <trkpt lat="44.83936" lon="6.76327">
        <ele>2427.8</ele>
        <time>2026-03-03T09:14:14.000Z</time>
      </trkpt>
      <trkpt lat="44.83936" lon="6.76328">
        <ele>2428.2</ele>
        <time>2026-03-03T09:14:15.000Z</time>
      </trkpt>
      <trkpt lat="44.83936" lon="6.76329">
        <ele>2428.6</ele>
        <time>2026-03-03T09:14:16.000Z</time>
      </trkpt>
      <trkpt lat="44.83936" lon="6.76329">
        <ele>2428.8</ele>
        <time>2026-03-03T09:14:17.000Z</time>
      </trkpt>
      <trkpt lat="44.83936" lon="6.76331">
        <ele>2428.7</ele>
        <time>2026-03-03T09:14:18.000Z</time>
      </trkpt>
      <trkpt lat="44.83936" lon="6.76332">
        <ele>2428.8</ele>
        <time>2026-03-03T09:14:19.000Z</time>
      </trkpt>
      <trkpt lat="44.83936" lon="6.76333">
        <ele>2429</ele>
        <time>2026-03-03T09:14:20.000Z</time>
      </trkpt>
      <trkpt lat="44.83936" lon="6.76334">
        <ele>2429.2</ele>
        <time>2026-03-03T09:14:21.000Z</time>
      </trkpt>
      <trkpt lat="44.83936" lon="6.76335">
        <ele>2429.4</ele>
        <time>2026-03-03T09:14:22.000Z</time>
      </trkpt>
      <trkpt lat="44.83936" lon="6.76336">
        <ele>2429.6</ele>
        <time>2026-03-03T09:14:23.000Z</time>
      </trkpt>
      <trkpt lat="44.83936" lon="6.76336">
        <ele>2429.7</ele>
        <time>2026-03-03T09:14:24.000Z</time>
      </trkpt>
      <trkpt lat="44.83936" lon="6.76336">
        <ele>2430.1</ele>
        <time>2026-03-03T09:14:25.000Z</time>
      </trkpt>
      <trkpt lat="44.83936" lon="6.76337">
        <ele>2430.4</ele>
        <time>2026-03-03T09:14:26.000Z</time>
      </trkpt>
      <trkpt lat="44.83936" lon="6.76338">
        <ele>2430.4</ele>
        <time>2026-03-03T09:14:27.000Z</time>
      </trkpt>
      <trkpt lat="44.83936" lon="6.76338">
        <ele>2430.6</ele>
        <time>2026-03-03T09:14:28.000Z</time>
      </trkpt>
      <trkpt lat="44.83936" lon="6.76338">
        <ele>2430.8</ele>
        <time>2026-03-03T09:14:29.000Z</time>
      </trkpt>
      <trkpt lat="44.83936" lon="6.76339">
        <ele>2430.7</ele>
        <time>2026-03-03T09:14:30.000Z</time>
      </trkpt>
      <trkpt lat="44.83936" lon="6.76339">
        <ele>2430.7</ele>
        <time>2026-03-03T09:14:31.000Z</time>
      </trkpt>
      <trkpt lat="44.83936" lon="6.76345">
        <ele>2433.1</ele>
        <time>2026-03-03T09:14:45.000Z</time>
      </trkpt>
      <trkpt lat="44.83936" lon="6.76347">
        <ele>2433.3</ele>
        <time>2026-03-03T09:14:46.000Z</time>
      </trkpt>
      <trkpt lat="44.83936" lon="6.76347">
        <ele>2433.4</ele>
        <time>2026-03-03T09:14:47.000Z</time>
      </trkpt>
      <trkpt lat="44.83936" lon="6.76349">
        <ele>2433.3</ele>
        <time>2026-03-03T09:14:48.000Z</time>
      </trkpt>
      <trkpt lat="44.83937" lon="6.76349">
        <ele>2433.4</ele>
        <time>2026-03-03T09:14:49.000Z</time>
      </trkpt>
      <trkpt lat="44.83937" lon="6.7635">
        <ele>2433.6</ele>
        <time>2026-03-03T09:14:50.000Z</time>
      </trkpt>
      <trkpt lat="44.83937" lon="6.76351">
        <ele>2433.8</ele>
        <time>2026-03-03T09:14:51.000Z</time>
      </trkpt>
      <trkpt lat="44.83937" lon="6.76351">
        <ele>2433.9</ele>
        <time>2026-03-03T09:14:52.000Z</time>
      </trkpt>
      <trkpt lat="44.83937" lon="6.76351">
        <ele>2434.2</ele>
        <time>2026-03-03T09:14:53.000Z</time>
      </trkpt>
      <trkpt lat="44.83937" lon="6.76352">
        <ele>2434.3</ele>
        <time>2026-03-03T09:14:54.000Z</time>
      </trkpt>
      <trkpt lat="44.83937" lon="6.76352">
        <ele>2434.6</ele>
        <time>2026-03-03T09:14:55.000Z</time>
      </trkpt>
      <trkpt lat="44.83937" lon="6.76352">
        <ele>2434.8</ele>
        <time>2026-03-03T09:14:56.000Z</time>
      </trkpt>
      <trkpt lat="44.83937" lon="6.76352">
        <ele>2434.9</ele>
        <time>2026-03-03T09:14:57.000Z</time>
      </trkpt>
      <trkpt lat="44.83937" lon="6.76352">
        <ele>2435.2</ele>
        <time>2026-03-03T09:14:58.000Z</time>
      </trkpt>
      <trkpt lat="44.83936" lon="6.76353">
        <ele>2435.3</ele>
        <time>2026-03-03T09:14:59.000Z</time>
      </trkpt>
      <trkpt lat="44.83936" lon="6.76354">
        <ele>2435.5</ele>
        <time>2026-03-03T09:15:00.000Z</time>
      </trkpt>
      <trkpt lat="44.83936" lon="6.76354">
        <ele>2435.8</ele>
        <time>2026-03-03T09:15:01.000Z</time>
      </trkpt>
      <trkpt lat="44.83937" lon="6.76355">
        <ele>2435.9</ele>
        <time>2026-03-03T09:15:02.000Z</time>
      </trkpt>
      <trkpt lat="44.83937" lon="6.76356">
        <ele>2436.1</ele>
        <time>2026-03-03T09:15:03.000Z</time>
      </trkpt>
      <trkpt lat="44.83937" lon="6.76357">
        <ele>2436.2</ele>
        <time>2026-03-03T09:15:04.000Z</time>
      </trkpt>
      <trkpt lat="44.83937" lon="6.76358">
        <ele>2436.3</ele>
        <time>2026-03-03T09:15:05.000Z</time>
      </trkpt>
      <trkpt lat="44.83937" lon="6.76359">
        <ele>2436.1</ele>
        <time>2026-03-03T09:15:06.000Z</time>
      </trkpt>
      <trkpt lat="44.83937" lon="6.7636">
        <ele>2436</ele>
        <time>2026-03-03T09:15:07.000Z</time>
      </trkpt>
      <trkpt lat="44.83936" lon="6.76361">
        <ele>2435.9</ele>
        <time>2026-03-03T09:15:08.000Z</time>
      </trkpt>
      <trkpt lat="44.83936" lon="6.76361">
        <ele>2436.1</ele>
        <time>2026-03-03T09:15:09.000Z</time>
      </trkpt>
      <trkpt lat="44.83936" lon="6.76361">
        <ele>2436.3</ele>
        <time>2026-03-03T09:15:10.000Z</time>
      </trkpt>
      <trkpt lat="44.83936" lon="6.76362">
        <ele>2436.6</ele>
        <time>2026-03-03T09:15:11.000Z</time>
      </trkpt>
      <trkpt lat="44.83937" lon="6.76362">
        <ele>2436.8</ele>
        <time>2026-03-03T09:15:12.000Z</time>
      </trkpt>
      <trkpt lat="44.83937" lon="6.76363">
        <ele>2437.1</ele>
        <time>2026-03-03T09:15:13.000Z</time>
      </trkpt>
      <trkpt lat="44.83937" lon="6.76364">
        <ele>2437.6</ele>
        <time>2026-03-03T09:15:14.000Z</time>
      </trkpt>
      <trkpt lat="44.83937" lon="6.76365">
        <ele>2438.3</ele>
        <time>2026-03-03T09:15:15.000Z</time>
      </trkpt>
      <trkpt lat="44.83938" lon="6.76365">
        <ele>2438.7</ele>
        <time>2026-03-03T09:15:16.000Z</time>
      </trkpt>
      <trkpt lat="44.83938" lon="6.76366">
        <ele>2438.8</ele>
        <time>2026-03-03T09:15:17.000Z</time>
      </trkpt>
      <trkpt lat="44.83938" lon="6.76367">
        <ele>2439</ele>
        <time>2026-03-03T09:15:18.000Z</time>
      </trkpt>
      <trkpt lat="44.83938" lon="6.76368">
        <ele>2439.3</ele>
        <time>2026-03-03T09:15:19.000Z</time>
      </trkpt>
      <trkpt lat="44.83938" lon="6.76368">
        <ele>2439.5</ele>
        <time>2026-03-03T09:15:20.000Z</time>
      </trkpt>
      <trkpt lat="44.83938" lon="6.76369">
        <ele>2439.5</ele>
        <time>2026-03-03T09:15:21.000Z</time>
      </trkpt>
      <trkpt lat="44.83938" lon="6.7637">
        <ele>2439.6</ele>
        <time>2026-03-03T09:15:22.000Z</time>
      </trkpt>
      <trkpt lat="44.83938" lon="6.7637">
        <ele>2439.7</ele>
        <time>2026-03-03T09:15:23.000Z</time>
      </trkpt>
      <trkpt lat="44.83938" lon="6.76371">
        <ele>2439.9</ele>
        <time>2026-03-03T09:15:24.000Z</time>
      </trkpt>
      <trkpt lat="44.83938" lon="6.76371">
        <ele>2440</ele>
        <time>2026-03-03T09:15:25.000Z</time>
      </trkpt>
      <trkpt lat="44.83938" lon="6.76372">
        <ele>2439.9</ele>
        <time>2026-03-03T09:15:26.000Z</time>
      </trkpt>
      <trkpt lat="44.83939" lon="6.76372">
        <ele>2440.3</ele>
        <time>2026-03-03T09:15:27.000Z</time>
      </trkpt>
      <trkpt lat="44.83939" lon="6.76373">
        <ele>2440.4</ele>
        <time>2026-03-03T09:15:28.000Z</time>
      </trkpt>
      <trkpt lat="44.83939" lon="6.76373">
        <ele>2440.5</ele>
        <time>2026-03-03T09:15:29.000Z</time>
      </trkpt>
      <trkpt lat="44.83939" lon="6.76374">
        <ele>2440.7</ele>
        <time>2026-03-03T09:15:30.000Z</time>
      </trkpt>
      <trkpt lat="44.83939" lon="6.76374">
        <ele>2440.9</ele>
        <time>2026-03-03T09:15:31.000Z</time>
      </trkpt>
      <trkpt lat="44.83939" lon="6.76375">
        <ele>2441</ele>
        <time>2026-03-03T09:15:32.000Z</time>
      </trkpt>
      <trkpt lat="44.83939" lon="6.76375">
        <ele>2441</ele>
        <time>2026-03-03T09:15:33.000Z</time>
      </trkpt>
      <trkpt lat="44.83939" lon="6.76376">
        <ele>2441</ele>
        <time>2026-03-03T09:15:34.000Z</time>
      </trkpt>
      <trkpt lat="44.8394" lon="6.76377">
        <ele>2441.1</ele>
        <time>2026-03-03T09:15:35.000Z</time>
      </trkpt>
      <trkpt lat="44.8394" lon="6.76378">
        <ele>2441.3</ele>
        <time>2026-03-03T09:15:36.000Z</time>
      </trkpt>
      <trkpt lat="44.8394" lon="6.76379">
        <ele>2441.5</ele>
        <time>2026-03-03T09:15:37.000Z</time>
      </trkpt>
      <trkpt lat="44.83941" lon="6.7638">
        <ele>2441.5</ele>
        <time>2026-03-03T09:15:38.000Z</time>
      </trkpt>
      <trkpt lat="44.83941" lon="6.7638">
        <ele>2441.4</ele>
        <time>2026-03-03T09:15:39.000Z</time>
      </trkpt>
      <trkpt lat="44.83941" lon="6.76381">
        <ele>2441.4</ele>
        <time>2026-03-03T09:15:40.000Z</time>
      </trkpt>
      <trkpt lat="44.83942" lon="6.76381">
        <ele>2441.5</ele>
        <time>2026-03-03T09:15:41.000Z</time>
      </trkpt>
      <trkpt lat="44.83942" lon="6.76382">
        <ele>2441.5</ele>
        <time>2026-03-03T09:15:42.000Z</time>
      </trkpt>
      <trkpt lat="44.83942" lon="6.76382">
        <ele>2441.6</ele>
        <time>2026-03-03T09:15:43.000Z</time>
      </trkpt>
      <trkpt lat="44.83941" lon="6.76387">
        <ele>2443</ele>
        <time>2026-03-03T09:15:58.000Z</time>
      </trkpt>
      <trkpt lat="44.8394" lon="6.76387">
        <ele>2443.3</ele>
        <time>2026-03-03T09:15:59.000Z</time>
      </trkpt>
      <trkpt lat="44.8394" lon="6.76388">
        <ele>2443.4</ele>
        <time>2026-03-03T09:16:00.000Z</time>
      </trkpt>
      <trkpt lat="44.83939" lon="6.76388">
        <ele>2443.5</ele>
        <time>2026-03-03T09:16:01.000Z</time>
      </trkpt>
      <trkpt lat="44.83938" lon="6.76388">
        <ele>2443.8</ele>
        <time>2026-03-03T09:16:02.000Z</time>
      </trkpt>
      <trkpt lat="44.83938" lon="6.76389">
        <ele>2444.1</ele>
        <time>2026-03-03T09:16:03.000Z</time>
      </trkpt>
      <trkpt lat="44.83937" lon="6.76389">
        <ele>2444.4</ele>
        <time>2026-03-03T09:16:04.000Z</time>
      </trkpt>
      <trkpt lat="44.83937" lon="6.76389">
        <ele>2444.7</ele>
        <time>2026-03-03T09:16:05.000Z</time>
      </trkpt>
      <trkpt lat="44.83936" lon="6.76389">
        <ele>2445</ele>
        <time>2026-03-03T09:16:06.000Z</time>
      </trkpt>
      <trkpt lat="44.83935" lon="6.76389">
        <ele>2445</ele>
        <time>2026-03-03T09:16:07.000Z</time>
      </trkpt>
      <trkpt lat="44.83935" lon="6.76389">
        <ele>2445.1</ele>
        <time>2026-03-03T09:16:08.000Z</time>
      </trkpt>
      <trkpt lat="44.83934" lon="6.76389">
        <ele>2445</ele>
        <time>2026-03-03T09:16:09.000Z</time>
      </trkpt>
      <trkpt lat="44.83933" lon="6.76389">
        <ele>2444.9</ele>
        <time>2026-03-03T09:16:10.000Z</time>
      </trkpt>
      <trkpt lat="44.83933" lon="6.76389">
        <ele>2444.9</ele>
        <time>2026-03-03T09:16:11.000Z</time>
      </trkpt>
      <trkpt lat="44.83932" lon="6.76389">
        <ele>2444.5</ele>
        <time>2026-03-03T09:16:12.000Z</time>
      </trkpt>
      <trkpt lat="44.83932" lon="6.76389">
        <ele>2444.4</ele>
        <time>2026-03-03T09:16:13.000Z</time>
      </trkpt>
      <trkpt lat="44.83931" lon="6.76389">
        <ele>2444.4</ele>
        <time>2026-03-03T09:16:14.000Z</time>
      </trkpt>
      <trkpt lat="44.83931" lon="6.76389">
        <ele>2444.3</ele>
        <time>2026-03-03T09:16:15.000Z</time>
      </trkpt>
      <trkpt lat="44.83931" lon="6.76389">
        <ele>2444.3</ele>
        <time>2026-03-03T09:16:16.000Z</time>
      </trkpt>
      <trkpt lat="44.83931" lon="6.76388">
        <ele>2444.3</ele>
        <time>2026-03-03T09:16:17.000Z</time>
      </trkpt>
      <trkpt lat="44.8393" lon="6.76388">
        <ele>2444.3</ele>
        <time>2026-03-03T09:16:18.000Z</time>
      </trkpt>
      <trkpt lat="44.8393" lon="6.76389">
        <ele>2444.4</ele>
        <time>2026-03-03T09:16:19.000Z</time>
      </trkpt>
      <trkpt lat="44.8393" lon="6.76389">
        <ele>2444.7</ele>
        <time>2026-03-03T09:16:20.000Z</time>
      </trkpt>
      <trkpt lat="44.8393" lon="6.76389">
        <ele>2444.7</ele>
        <time>2026-03-03T09:16:21.000Z</time>
      </trkpt>
      <trkpt lat="44.83929" lon="6.76389">
        <ele>2444.5</ele>
        <time>2026-03-03T09:16:22.000Z</time>
      </trkpt>
      <trkpt lat="44.83929" lon="6.76389">
        <ele>2444.7</ele>
        <time>2026-03-03T09:16:23.000Z</time>
      </trkpt>
      <trkpt lat="44.83929" lon="6.76389">
        <ele>2444.9</ele>
        <time>2026-03-03T09:16:24.000Z</time>
      </trkpt>
      <trkpt lat="44.83927" lon="6.76389">
        <ele>2445.4</ele>
        <time>2026-03-03T09:16:25.000Z</time>
      </trkpt>
      <trkpt lat="44.83926" lon="6.76388">
        <ele>2445.7</ele>
        <time>2026-03-03T09:16:26.000Z</time>
      </trkpt>
      <trkpt lat="44.83925" lon="6.76388">
        <ele>2446.1</ele>
        <time>2026-03-03T09:16:27.000Z</time>
      </trkpt>
      <trkpt lat="44.83924" lon="6.76388">
        <ele>2446.3</ele>
        <time>2026-03-03T09:16:28.000Z</time>
      </trkpt>
      <trkpt lat="44.83924" lon="6.76388">
        <ele>2446.5</ele>
        <time>2026-03-03T09:16:29.000Z</time>
      </trkpt>
      <trkpt lat="44.83923" lon="6.76389">
        <ele>2446.7</ele>
        <time>2026-03-03T09:16:30.000Z</time>
      </trkpt>
      <trkpt lat="44.83923" lon="6.76389">
        <ele>2446.9</ele>
        <time>2026-03-03T09:16:31.000Z</time>
      </trkpt>
      <trkpt lat="44.83919" lon="6.7639">
        <ele>2448.4</ele>
        <time>2026-03-03T09:16:44.000Z</time>
      </trkpt>
      <trkpt lat="44.83918" lon="6.7639">
        <ele>2448.6</ele>
        <time>2026-03-03T09:16:45.000Z</time>
      </trkpt>
      <trkpt lat="44.83917" lon="6.76391">
        <ele>2448.8</ele>
        <time>2026-03-03T09:16:46.000Z</time>
      </trkpt>
      <trkpt lat="44.83915" lon="6.76392">
        <ele>2449</ele>
        <time>2026-03-03T09:16:47.000Z</time>
      </trkpt>
      <trkpt lat="44.83914" lon="6.76392">
        <ele>2449.5</ele>
        <time>2026-03-03T09:16:48.000Z</time>
      </trkpt>
      <trkpt lat="44.83913" lon="6.76393">
        <ele>2449.5</ele>
        <time>2026-03-03T09:16:49.000Z</time>
      </trkpt>
      <trkpt lat="44.83913" lon="6.76393">
        <ele>2449.7</ele>
        <time>2026-03-03T09:16:50.000Z</time>
      </trkpt>
      <trkpt lat="44.83912" lon="6.76393">
        <ele>2449.7</ele>
        <time>2026-03-03T09:16:51.000Z</time>
      </trkpt>
      <trkpt lat="44.83911" lon="6.76393">
        <ele>2449.8</ele>
        <time>2026-03-03T09:16:52.000Z</time>
      </trkpt>
      <trkpt lat="44.83911" lon="6.76393">
        <ele>2450</ele>
        <time>2026-03-03T09:16:53.000Z</time>
      </trkpt>
      <trkpt lat="44.8391" lon="6.76393">
        <ele>2450.1</ele>
        <time>2026-03-03T09:16:54.000Z</time>
      </trkpt>
      <trkpt lat="44.83909" lon="6.76393">
        <ele>2450.4</ele>
        <time>2026-03-03T09:16:55.000Z</time>
      </trkpt>
      <trkpt lat="44.83909" lon="6.76393">
        <ele>2450.5</ele>
        <time>2026-03-03T09:16:56.000Z</time>
      </trkpt>
      <trkpt lat="44.83909" lon="6.76393">
        <ele>2450.5</ele>
        <time>2026-03-03T09:16:57.000Z</time>
      </trkpt>
      <trkpt lat="44.83908" lon="6.76393">
        <ele>2450.7</ele>
        <time>2026-03-03T09:16:58.000Z</time>
      </trkpt>
      <trkpt lat="44.83908" lon="6.76393">
        <ele>2450.8</ele>
        <time>2026-03-03T09:16:59.000Z</time>
      </trkpt>
      <trkpt lat="44.83908" lon="6.76393">
        <ele>2450.9</ele>
        <time>2026-03-03T09:17:00.000Z</time>
      </trkpt>
      <trkpt lat="44.83908" lon="6.76393">
        <ele>2451.2</ele>
        <time>2026-03-03T09:17:01.000Z</time>
      </trkpt>
      <trkpt lat="44.83908" lon="6.76393">
        <ele>2451.6</ele>
        <time>2026-03-03T09:17:02.000Z</time>
      </trkpt>
      <trkpt lat="44.83908" lon="6.76393">
        <ele>2451.8</ele>
        <time>2026-03-03T09:17:03.000Z</time>
      </trkpt>
      <trkpt lat="44.83907" lon="6.76393">
        <ele>2451.8</ele>
        <time>2026-03-03T09:17:04.000Z</time>
      </trkpt>
      <trkpt lat="44.83907" lon="6.76393">
        <ele>2451.9</ele>
        <time>2026-03-03T09:17:05.000Z</time>
      </trkpt>
      <trkpt lat="44.83906" lon="6.76393">
        <ele>2452</ele>
        <time>2026-03-03T09:17:06.000Z</time>
      </trkpt>
      <trkpt lat="44.83905" lon="6.76394">
        <ele>2452.2</ele>
        <time>2026-03-03T09:17:07.000Z</time>
      </trkpt>
      <trkpt lat="44.83905" lon="6.76394">
        <ele>2452.4</ele>
        <time>2026-03-03T09:17:08.000Z</time>
      </trkpt>
      <trkpt lat="44.83904" lon="6.76394">
        <ele>2452.6</ele>
        <time>2026-03-03T09:17:09.000Z</time>
      </trkpt>
      <trkpt lat="44.83903" lon="6.76394">
        <ele>2452.8</ele>
        <time>2026-03-03T09:17:10.000Z</time>
      </trkpt>
      <trkpt lat="44.83903" lon="6.76395">
        <ele>2453.1</ele>
        <time>2026-03-03T09:17:11.000Z</time>
      </trkpt>
      <trkpt lat="44.83902" lon="6.76395">
        <ele>2453.4</ele>
        <time>2026-03-03T09:17:12.000Z</time>
      </trkpt>
      <trkpt lat="44.83902" lon="6.76395">
        <ele>2453.8</ele>
        <time>2026-03-03T09:17:13.000Z</time>
      </trkpt>
      <trkpt lat="44.83901" lon="6.76396">
        <ele>2454</ele>
        <time>2026-03-03T09:17:14.000Z</time>
      </trkpt>
      <trkpt lat="44.839" lon="6.76396">
        <ele>2454.2</ele>
        <time>2026-03-03T09:17:15.000Z</time>
      </trkpt>
      <trkpt lat="44.839" lon="6.76397">
        <ele>2454.4</ele>
        <time>2026-03-03T09:17:16.000Z</time>
      </trkpt>
      <trkpt lat="44.83899" lon="6.76397">
        <ele>2454.4</ele>
        <time>2026-03-03T09:17:17.000Z</time>
      </trkpt>
      <trkpt lat="44.83899" lon="6.76397">
        <ele>2454.5</ele>
        <time>2026-03-03T09:17:18.000Z</time>
      </trkpt>
      <trkpt lat="44.83898" lon="6.76397">
        <ele>2454.6</ele>
        <time>2026-03-03T09:17:19.000Z</time>
      </trkpt>
      <trkpt lat="44.83897" lon="6.76398">
        <ele>2454.7</ele>
        <time>2026-03-03T09:17:20.000Z</time>
      </trkpt>
      <trkpt lat="44.83896" lon="6.76398">
        <ele>2454.8</ele>
        <time>2026-03-03T09:17:21.000Z</time>
      </trkpt>
      <trkpt lat="44.83896" lon="6.76398">
        <ele>2454.9</ele>
        <time>2026-03-03T09:17:22.000Z</time>
      </trkpt>
      <trkpt lat="44.83895" lon="6.76398">
        <ele>2455.2</ele>
        <time>2026-03-03T09:17:23.000Z</time>
      </trkpt>
      <trkpt lat="44.83894" lon="6.76399">
        <ele>2455</ele>
        <time>2026-03-03T09:17:24.000Z</time>
      </trkpt>
      <trkpt lat="44.83894" lon="6.76399">
        <ele>2455.3</ele>
        <time>2026-03-03T09:17:25.000Z</time>
      </trkpt>
      <trkpt lat="44.83893" lon="6.76399">
        <ele>2455</ele>
        <time>2026-03-03T09:17:26.000Z</time>
      </trkpt>
      <trkpt lat="44.83893" lon="6.76399">
        <ele>2455.2</ele>
        <time>2026-03-03T09:17:27.000Z</time>
      </trkpt>
      <trkpt lat="44.83893" lon="6.76399">
        <ele>2455.1</ele>
        <time>2026-03-03T09:17:28.000Z</time>
      </trkpt>
      <trkpt lat="44.83892" lon="6.76399">
        <ele>2455</ele>
        <time>2026-03-03T09:17:29.000Z</time>
      </trkpt>
      <trkpt lat="44.83892" lon="6.76399">
        <ele>2454.9</ele>
        <time>2026-03-03T09:17:30.000Z</time>
      </trkpt>
      <trkpt lat="44.83891" lon="6.76399">
        <ele>2455</ele>
        <time>2026-03-03T09:17:31.000Z</time>
      </trkpt>
      <trkpt lat="44.83891" lon="6.76399">
        <ele>2455.2</ele>
        <time>2026-03-03T09:17:32.000Z</time>
      </trkpt>
      <trkpt lat="44.83891" lon="6.76399">
        <ele>2455.4</ele>
        <time>2026-03-03T09:17:33.000Z</time>
      </trkpt>
      <trkpt lat="44.8389" lon="6.76399">
        <ele>2455.6</ele>
        <time>2026-03-03T09:17:34.000Z</time>
      </trkpt>
      <trkpt lat="44.83889" lon="6.764">
        <ele>2455.6</ele>
        <time>2026-03-03T09:17:35.000Z</time>
      </trkpt>
      <trkpt lat="44.83889" lon="6.764">
        <ele>2455.8</ele>
        <time>2026-03-03T09:17:36.000Z</time>
      </trkpt>
      <trkpt lat="44.83888" lon="6.76401">
        <ele>2455.8</ele>
        <time>2026-03-03T09:17:37.000Z</time>
      </trkpt>
      <trkpt lat="44.83886" lon="6.76403">
        <ele>2457.9</ele>
        <time>2026-03-03T09:17:51.000Z</time>
      </trkpt>
      <trkpt lat="44.83886" lon="6.76403">
        <ele>2458.1</ele>
        <time>2026-03-03T09:17:52.000Z</time>
      </trkpt>
      <trkpt lat="44.83885" lon="6.76404">
        <ele>2458.3</ele>
        <time>2026-03-03T09:17:53.000Z</time>
      </trkpt>
      <trkpt lat="44.83884" lon="6.76404">
        <ele>2458.6</ele>
        <time>2026-03-03T09:17:54.000Z</time>
      </trkpt>
      <trkpt lat="44.83883" lon="6.76405">
        <ele>2458.9</ele>
        <time>2026-03-03T09:17:55.000Z</time>
      </trkpt>
      <trkpt lat="44.83882" lon="6.76405">
        <ele>2459.3</ele>
        <time>2026-03-03T09:17:56.000Z</time>
      </trkpt>
      <trkpt lat="44.83882" lon="6.76406">
        <ele>2459.8</ele>
        <time>2026-03-03T09:17:57.000Z</time>
      </trkpt>
      <trkpt lat="44.83881" lon="6.76406">
        <ele>2460.3</ele>
        <time>2026-03-03T09:17:58.000Z</time>
      </trkpt>
      <trkpt lat="44.8388" lon="6.76406">
        <ele>2460.6</ele>
        <time>2026-03-03T09:17:59.000Z</time>
      </trkpt>
      <trkpt lat="44.83879" lon="6.76406">
        <ele>2460.6</ele>
        <time>2026-03-03T09:18:00.000Z</time>
      </trkpt>
      <trkpt lat="44.83878" lon="6.76407">
        <ele>2461</ele>
        <time>2026-03-03T09:18:01.000Z</time>
      </trkpt>
      <trkpt lat="44.83877" lon="6.76407">
        <ele>2461.3</ele>
        <time>2026-03-03T09:18:02.000Z</time>
      </trkpt>
      <trkpt lat="44.83877" lon="6.76408">
        <ele>2461.5</ele>
        <time>2026-03-03T09:18:03.000Z</time>
      </trkpt>
      <trkpt lat="44.83876" lon="6.76408">
        <ele>2461.9</ele>
        <time>2026-03-03T09:18:04.000Z</time>
      </trkpt>
      <trkpt lat="44.83876" lon="6.76408">
        <ele>2462</ele>
        <time>2026-03-03T09:18:05.000Z</time>
      </trkpt>
      <trkpt lat="44.83876" lon="6.76409">
        <ele>2462</ele>
        <time>2026-03-03T09:18:06.000Z</time>
      </trkpt>
      <trkpt lat="44.83875" lon="6.76409">
        <ele>2462.2</ele>
        <time>2026-03-03T09:18:07.000Z</time>
      </trkpt>
      <trkpt lat="44.83874" lon="6.7641">
        <ele>2462.1</ele>
        <time>2026-03-03T09:18:08.000Z</time>
      </trkpt>
      <trkpt lat="44.83874" lon="6.7641">
        <ele>2462.1</ele>
        <time>2026-03-03T09:18:09.000Z</time>
      </trkpt>
      <trkpt lat="44.83873" lon="6.76411">
        <ele>2462.2</ele>
        <time>2026-03-03T09:18:10.000Z</time>
      </trkpt>
      <trkpt lat="44.83873" lon="6.76411">
        <ele>2462.2</ele>
        <time>2026-03-03T09:18:11.000Z</time>
      </trkpt>
      <trkpt lat="44.83873" lon="6.76411">
        <ele>2462.2</ele>
        <time>2026-03-03T09:18:12.000Z</time>
      </trkpt>
      <trkpt lat="44.83873" lon="6.76411">
        <ele>2462.3</ele>
        <time>2026-03-03T09:18:13.000Z</time>
      </trkpt>
      <trkpt lat="44.83872" lon="6.76412">
        <ele>2462.2</ele>
        <time>2026-03-03T09:18:14.000Z</time>
      </trkpt>
      <trkpt lat="44.83872" lon="6.76412">
        <ele>2462.4</ele>
        <time>2026-03-03T09:18:15.000Z</time>
      </trkpt>
      <trkpt lat="44.83871" lon="6.76412">
        <ele>2462.4</ele>
        <time>2026-03-03T09:18:16.000Z</time>
      </trkpt>
      <trkpt lat="44.83871" lon="6.76413">
        <ele>2462.6</ele>
        <time>2026-03-03T09:18:17.000Z</time>
      </trkpt>
      <trkpt lat="44.83871" lon="6.76413">
        <ele>2462.8</ele>
        <time>2026-03-03T09:18:18.000Z</time>
      </trkpt>
      <trkpt lat="44.8387" lon="6.76413">
        <ele>2462.8</ele>
        <time>2026-03-03T09:18:19.000Z</time>
      </trkpt>
      <trkpt lat="44.8387" lon="6.76413">
        <ele>2463</ele>
        <time>2026-03-03T09:18:20.000Z</time>
      </trkpt>
      <trkpt lat="44.8387" lon="6.76414">
        <ele>2462.9</ele>
        <time>2026-03-03T09:18:21.000Z</time>
      </trkpt>
      <trkpt lat="44.8387" lon="6.76414">
        <ele>2463.1</ele>
        <time>2026-03-03T09:18:22.000Z</time>
      </trkpt>
      <trkpt lat="44.8387" lon="6.76414">
        <ele>2463.4</ele>
        <time>2026-03-03T09:18:23.000Z</time>
      </trkpt>
      <trkpt lat="44.83869" lon="6.76415">
        <ele>2463.2</ele>
        <time>2026-03-03T09:18:24.000Z</time>
      </trkpt>
      <trkpt lat="44.83869" lon="6.76415">
        <ele>2463.1</ele>
        <time>2026-03-03T09:18:25.000Z</time>
      </trkpt>
      <trkpt lat="44.83869" lon="6.76416">
        <ele>2463.3</ele>
        <time>2026-03-03T09:18:26.000Z</time>
      </trkpt>
      <trkpt lat="44.83869" lon="6.76417">
        <ele>2463.4</ele>
        <time>2026-03-03T09:18:27.000Z</time>
      </trkpt>
      <trkpt lat="44.83869" lon="6.76417">
        <ele>2463.6</ele>
        <time>2026-03-03T09:18:28.000Z</time>
      </trkpt>
      <trkpt lat="44.83869" lon="6.76417">
        <ele>2463.9</ele>
        <time>2026-03-03T09:18:29.000Z</time>
      </trkpt>
      <trkpt lat="44.83869" lon="6.76418">
        <ele>2464.1</ele>
        <time>2026-03-03T09:18:30.000Z</time>
      </trkpt>
      <trkpt lat="44.83869" lon="6.76418">
        <ele>2464.4</ele>
        <time>2026-03-03T09:18:31.000Z</time>
      </trkpt>
      <trkpt lat="44.83869" lon="6.76418">
        <ele>2464.4</ele>
        <time>2026-03-03T09:18:32.000Z</time>
      </trkpt>
      <trkpt lat="44.83869" lon="6.76419">
        <ele>2464.7</ele>
        <time>2026-03-03T09:18:33.000Z</time>
      </trkpt>
      <trkpt lat="44.83869" lon="6.76419">
        <ele>2464.9</ele>
        <time>2026-03-03T09:18:34.000Z</time>
      </trkpt>
      <trkpt lat="44.83869" lon="6.76419">
        <ele>2465.2</ele>
        <time>2026-03-03T09:18:35.000Z</time>
      </trkpt>
      <trkpt lat="44.8387" lon="6.7642">
        <ele>2465.4</ele>
        <time>2026-03-03T09:18:36.000Z</time>
      </trkpt>
      <trkpt lat="44.8387" lon="6.76422">
        <ele>2465.6</ele>
        <time>2026-03-03T09:18:37.000Z</time>
      </trkpt>
      <trkpt lat="44.8387" lon="6.76423">
        <ele>2465.7</ele>
        <time>2026-03-03T09:18:38.000Z</time>
      </trkpt>
      <trkpt lat="44.83871" lon="6.76424">
        <ele>2465.8</ele>
        <time>2026-03-03T09:18:39.000Z</time>
      </trkpt>
      <trkpt lat="44.83871" lon="6.76424">
        <ele>2466</ele>
        <time>2026-03-03T09:18:40.000Z</time>
      </trkpt>
      <trkpt lat="44.83871" lon="6.76425">
        <ele>2466.1</ele>
        <time>2026-03-03T09:18:41.000Z</time>
      </trkpt>
      <trkpt lat="44.83871" lon="6.76426">
        <ele>2466.3</ele>
        <time>2026-03-03T09:18:42.000Z</time>
      </trkpt>
      <trkpt lat="44.83872" lon="6.76427">
        <ele>2466.4</ele>
        <time>2026-03-03T09:18:43.000Z</time>
      </trkpt>
      <trkpt lat="44.83872" lon="6.76428">
        <ele>2466.6</ele>
        <time>2026-03-03T09:18:44.000Z</time>
      </trkpt>
      <trkpt lat="44.83872" lon="6.76428">
        <ele>2466.6</ele>
        <time>2026-03-03T09:18:45.000Z</time>
      </trkpt>
      <trkpt lat="44.83872" lon="6.76429">
        <ele>2466.6</ele>
        <time>2026-03-03T09:18:46.000Z</time>
      </trkpt>
      <trkpt lat="44.83873" lon="6.7643">
        <ele>2466.8</ele>
        <time>2026-03-03T09:18:47.000Z</time>
      </trkpt>
      <trkpt lat="44.83873" lon="6.76431">
        <ele>2466.8</ele>
        <time>2026-03-03T09:18:48.000Z</time>
      </trkpt>
      <trkpt lat="44.83873" lon="6.76432">
        <ele>2467</ele>
        <time>2026-03-03T09:18:49.000Z</time>
      </trkpt>
      <trkpt lat="44.83873" lon="6.76433">
        <ele>2467</ele>
        <time>2026-03-03T09:18:50.000Z</time>
      </trkpt>
      <trkpt lat="44.83873" lon="6.76434">
        <ele>2466.8</ele>
        <time>2026-03-03T09:18:51.000Z</time>
      </trkpt>
      <trkpt lat="44.83873" lon="6.76434">
        <ele>2467</ele>
        <time>2026-03-03T09:18:52.000Z</time>
      </trkpt>
      <trkpt lat="44.83873" lon="6.76435">
        <ele>2467.2</ele>
        <time>2026-03-03T09:18:53.000Z</time>
      </trkpt>
      <trkpt lat="44.83873" lon="6.76436">
        <ele>2467.4</ele>
        <time>2026-03-03T09:18:54.000Z</time>
      </trkpt>
      <trkpt lat="44.83873" lon="6.76436">
        <ele>2467.6</ele>
        <time>2026-03-03T09:18:55.000Z</time>
      </trkpt>
      <trkpt lat="44.83873" lon="6.76436">
        <ele>2467.8</ele>
        <time>2026-03-03T09:18:56.000Z</time>
      </trkpt>
      <trkpt lat="44.83873" lon="6.76436">
        <ele>2468.2</ele>
        <time>2026-03-03T09:18:57.000Z</time>
      </trkpt>
      <trkpt lat="44.83873" lon="6.76436">
        <ele>2468.3</ele>
        <time>2026-03-03T09:18:58.000Z</time>
      </trkpt>
      <trkpt lat="44.83873" lon="6.76437">
        <ele>2468.3</ele>
        <time>2026-03-03T09:18:59.000Z</time>
      </trkpt>
      <trkpt lat="44.83874" lon="6.76437">
        <ele>2468.5</ele>
        <time>2026-03-03T09:19:00.000Z</time>
      </trkpt>
      <trkpt lat="44.83874" lon="6.76438">
        <ele>2468.6</ele>
        <time>2026-03-03T09:19:01.000Z</time>
      </trkpt>
      <trkpt lat="44.83874" lon="6.76438">
        <ele>2468.7</ele>
        <time>2026-03-03T09:19:02.000Z</time>
      </trkpt>
      <trkpt lat="44.83874" lon="6.76439">
        <ele>2468.6</ele>
        <time>2026-03-03T09:19:03.000Z</time>
      </trkpt>
      <trkpt lat="44.83869" lon="6.76435">
        <ele>2473.9</ele>
        <time>2026-03-03T09:19:29.000Z</time>
      </trkpt>
      <trkpt lat="44.83868" lon="6.76435">
        <ele>2474.2</ele>
        <time>2026-03-03T09:19:30.000Z</time>
      </trkpt>
      <trkpt lat="44.83867" lon="6.76435">
        <ele>2474.2</ele>
        <time>2026-03-03T09:19:31.000Z</time>
      </trkpt>
      <trkpt lat="44.83866" lon="6.76434">
        <ele>2474.1</ele>
        <time>2026-03-03T09:19:32.000Z</time>
      </trkpt>
      <trkpt lat="44.83865" lon="6.76433">
        <ele>2474.3</ele>
        <time>2026-03-03T09:19:33.000Z</time>
      </trkpt>
      <trkpt lat="44.83864" lon="6.76433">
        <ele>2474.5</ele>
        <time>2026-03-03T09:19:34.000Z</time>
      </trkpt>
      <trkpt lat="44.83864" lon="6.76433">
        <ele>2474.8</ele>
        <time>2026-03-03T09:19:35.000Z</time>
      </trkpt>
      <trkpt lat="44.83863" lon="6.76432">
        <ele>2475</ele>
        <time>2026-03-03T09:19:36.000Z</time>
      </trkpt>
      <trkpt lat="44.83862" lon="6.76432">
        <ele>2475.1</ele>
        <time>2026-03-03T09:19:37.000Z</time>
      </trkpt>
      <trkpt lat="44.83862" lon="6.76432">
        <ele>2475.2</ele>
        <time>2026-03-03T09:19:38.000Z</time>
      </trkpt>
      <trkpt lat="44.83861" lon="6.76431">
        <ele>2475.1</ele>
        <time>2026-03-03T09:19:39.000Z</time>
      </trkpt>
      <trkpt lat="44.8386" lon="6.76431">
        <ele>2475.2</ele>
        <time>2026-03-03T09:19:40.000Z</time>
      </trkpt>
      <trkpt lat="44.8386" lon="6.76431">
        <ele>2475.5</ele>
        <time>2026-03-03T09:19:41.000Z</time>
      </trkpt>
      <trkpt lat="44.8386" lon="6.76431">
        <ele>2475.6</ele>
        <time>2026-03-03T09:19:42.000Z</time>
      </trkpt>
      <trkpt lat="44.8386" lon="6.76431">
        <ele>2475.5</ele>
        <time>2026-03-03T09:19:43.000Z</time>
      </trkpt>
      <trkpt lat="44.8386" lon="6.76431">
        <ele>2475.4</ele>
        <time>2026-03-03T09:19:44.000Z</time>
      </trkpt>
      <trkpt lat="44.8386" lon="6.76431">
        <ele>2475.5</ele>
        <time>2026-03-03T09:19:45.000Z</time>
      </trkpt>
      <trkpt lat="44.8386" lon="6.76431">
        <ele>2475.6</ele>
        <time>2026-03-03T09:19:46.000Z</time>
      </trkpt>
      <trkpt lat="44.8386" lon="6.7643">
        <ele>2475.4</ele>
        <time>2026-03-03T09:19:47.000Z</time>
      </trkpt>
      <trkpt lat="44.83858" lon="6.7643">
        <ele>2475.4</ele>
        <time>2026-03-03T09:19:48.000Z</time>
      </trkpt>
      <trkpt lat="44.83857" lon="6.7643">
        <ele>2475.2</ele>
        <time>2026-03-03T09:19:49.000Z</time>
      </trkpt>
      <trkpt lat="44.83856" lon="6.7643">
        <ele>2475.2</ele>
        <time>2026-03-03T09:19:50.000Z</time>
      </trkpt>
      <trkpt lat="44.83856" lon="6.7643">
        <ele>2475.2</ele>
        <time>2026-03-03T09:19:51.000Z</time>
      </trkpt>
      <trkpt lat="44.83855" lon="6.7643">
        <ele>2475.5</ele>
        <time>2026-03-03T09:19:52.000Z</time>
      </trkpt>
      <trkpt lat="44.83854" lon="6.76429">
        <ele>2475.7</ele>
        <time>2026-03-03T09:19:53.000Z</time>
      </trkpt>
      <trkpt lat="44.83854" lon="6.76429">
        <ele>2475.9</ele>
        <time>2026-03-03T09:19:54.000Z</time>
      </trkpt>
      <trkpt lat="44.83853" lon="6.76429">
        <ele>2476</ele>
        <time>2026-03-03T09:19:55.000Z</time>
      </trkpt>
      <trkpt lat="44.83853" lon="6.76429">
        <ele>2476.1</ele>
        <time>2026-03-03T09:19:56.000Z</time>
      </trkpt>
      <trkpt lat="44.83852" lon="6.76429">
        <ele>2476.3</ele>
        <time>2026-03-03T09:19:57.000Z</time>
      </trkpt>
      <trkpt lat="44.83852" lon="6.76429">
        <ele>2476.3</ele>
        <time>2026-03-03T09:19:58.000Z</time>
      </trkpt>
      <trkpt lat="44.83852" lon="6.76429">
        <ele>2476.5</ele>
        <time>2026-03-03T09:19:59.000Z</time>
      </trkpt>
      <trkpt lat="44.83852" lon="6.76429">
        <ele>2476.6</ele>
        <time>2026-03-03T09:20:00.000Z</time>
      </trkpt>
      <trkpt lat="44.83852" lon="6.76429">
        <ele>2476.7</ele>
        <time>2026-03-03T09:20:01.000Z</time>
      </trkpt>
      <trkpt lat="44.83852" lon="6.76429">
        <ele>2476.8</ele>
        <time>2026-03-03T09:20:02.000Z</time>
      </trkpt>
      <trkpt lat="44.83851" lon="6.76429">
        <ele>2477.1</ele>
        <time>2026-03-03T09:20:03.000Z</time>
      </trkpt>
      <trkpt lat="44.83851" lon="6.76428">
        <ele>2477.3</ele>
        <time>2026-03-03T09:20:04.000Z</time>
      </trkpt>
      <trkpt lat="44.83851" lon="6.76428">
        <ele>2477.4</ele>
        <time>2026-03-03T09:20:05.000Z</time>
      </trkpt>
      <trkpt lat="44.8385" lon="6.76428">
        <ele>2477.5</ele>
        <time>2026-03-03T09:20:06.000Z</time>
      </trkpt>
      <trkpt lat="44.8385" lon="6.76428">
        <ele>2477.5</ele>
        <time>2026-03-03T09:20:07.000Z</time>
      </trkpt>
      <trkpt lat="44.83849" lon="6.76427">
        <ele>2477.6</ele>
        <time>2026-03-03T09:20:08.000Z</time>
      </trkpt>
      <trkpt lat="44.83849" lon="6.76427">
        <ele>2477.7</ele>
        <time>2026-03-03T09:20:09.000Z</time>
      </trkpt>
      <trkpt lat="44.83849" lon="6.76427">
        <ele>2477.7</ele>
        <time>2026-03-03T09:20:10.000Z</time>
      </trkpt>
      <trkpt lat="44.83848" lon="6.76427">
        <ele>2477.6</ele>
        <time>2026-03-03T09:20:11.000Z</time>
      </trkpt>
      <trkpt lat="44.83848" lon="6.76427">
        <ele>2477.5</ele>
        <time>2026-03-03T09:20:12.000Z</time>
      </trkpt>
      <trkpt lat="44.83847" lon="6.76427">
        <ele>2477.6</ele>
        <time>2026-03-03T09:20:13.000Z</time>
      </trkpt>
      <trkpt lat="44.83847" lon="6.76427">
        <ele>2477.6</ele>
        <time>2026-03-03T09:20:14.000Z</time>
      </trkpt>
      <trkpt lat="44.83846" lon="6.76427">
        <ele>2477.6</ele>
        <time>2026-03-03T09:20:15.000Z</time>
      </trkpt>
      <trkpt lat="44.83846" lon="6.76427">
        <ele>2477.6</ele>
        <time>2026-03-03T09:20:16.000Z</time>
      </trkpt>
      <trkpt lat="44.83844" lon="6.76427">
        <ele>2477.7</ele>
        <time>2026-03-03T09:20:17.000Z</time>
      </trkpt>
      <trkpt lat="44.83843" lon="6.76426">
        <ele>2477.7</ele>
        <time>2026-03-03T09:20:18.000Z</time>
      </trkpt>
      <trkpt lat="44.83841" lon="6.76426">
        <ele>2477.8</ele>
        <time>2026-03-03T09:20:19.000Z</time>
      </trkpt>
      <trkpt lat="44.8384" lon="6.76427">
        <ele>2477.9</ele>
        <time>2026-03-03T09:20:20.000Z</time>
      </trkpt>
      <trkpt lat="44.83839" lon="6.76427">
        <ele>2478.1</ele>
        <time>2026-03-03T09:20:21.000Z</time>
      </trkpt>
      <trkpt lat="44.83838" lon="6.76427">
        <ele>2478.2</ele>
        <time>2026-03-03T09:20:22.000Z</time>
      </trkpt>
      <trkpt lat="44.83837" lon="6.76427">
        <ele>2478.5</ele>
        <time>2026-03-03T09:20:23.000Z</time>
      </trkpt>
      <trkpt lat="44.83837" lon="6.76427">
        <ele>2478.6</ele>
        <time>2026-03-03T09:20:24.000Z</time>
      </trkpt>
      <trkpt lat="44.83836" lon="6.76428">
        <ele>2478.7</ele>
        <time>2026-03-03T09:20:25.000Z</time>
      </trkpt>
      <trkpt lat="44.83836" lon="6.76427">
        <ele>2478.8</ele>
        <time>2026-03-03T09:20:26.000Z</time>
      </trkpt>
      <trkpt lat="44.83836" lon="6.76429">
        <ele>2481.6</ele>
        <time>2026-03-03T09:20:42.000Z</time>
      </trkpt>
      <trkpt lat="44.83837" lon="6.76429">
        <ele>2481.7</ele>
        <time>2026-03-03T09:20:43.000Z</time>
      </trkpt>
      <trkpt lat="44.83837" lon="6.7643">
        <ele>2481.8</ele>
        <time>2026-03-03T09:20:44.000Z</time>
      </trkpt>
      <trkpt lat="44.83838" lon="6.7643">
        <ele>2482</ele>
        <time>2026-03-03T09:20:45.000Z</time>
      </trkpt>
      <trkpt lat="44.83839" lon="6.76431">
        <ele>2482.2</ele>
        <time>2026-03-03T09:20:46.000Z</time>
      </trkpt>
      <trkpt lat="44.8384" lon="6.76432">
        <ele>2482.1</ele>
        <time>2026-03-03T09:20:47.000Z</time>
      </trkpt>
      <trkpt lat="44.83841" lon="6.76433">
        <ele>2482.2</ele>
        <time>2026-03-03T09:20:48.000Z</time>
      </trkpt>
      <trkpt lat="44.83841" lon="6.76434">
        <ele>2482.3</ele>
        <time>2026-03-03T09:20:49.000Z</time>
      </trkpt>
      <trkpt lat="44.83841" lon="6.76435">
        <ele>2482.5</ele>
        <time>2026-03-03T09:20:50.000Z</time>
      </trkpt>
      <trkpt lat="44.83841" lon="6.76436">
        <ele>2482.6</ele>
        <time>2026-03-03T09:20:51.000Z</time>
      </trkpt>
      <trkpt lat="44.83841" lon="6.76437">
        <ele>2482.7</ele>
        <time>2026-03-03T09:20:52.000Z</time>
      </trkpt>
      <trkpt lat="44.83841" lon="6.76437">
        <ele>2482.9</ele>
        <time>2026-03-03T09:20:53.000Z</time>
      </trkpt>
      <trkpt lat="44.83842" lon="6.76438">
        <ele>2483.1</ele>
        <time>2026-03-03T09:20:54.000Z</time>
      </trkpt>
      <trkpt lat="44.83842" lon="6.76438">
        <ele>2483.1</ele>
        <time>2026-03-03T09:20:55.000Z</time>
      </trkpt>
      <trkpt lat="44.83842" lon="6.76438">
        <ele>2483.3</ele>
        <time>2026-03-03T09:20:56.000Z</time>
      </trkpt>
      <trkpt lat="44.83842" lon="6.76439">
        <ele>2483.4</ele>
        <time>2026-03-03T09:20:57.000Z</time>
      </trkpt>
      <trkpt lat="44.83842" lon="6.76439">
        <ele>2483.4</ele>
        <time>2026-03-03T09:20:58.000Z</time>
      </trkpt>
      <trkpt lat="44.83842" lon="6.76439">
        <ele>2483.3</ele>
        <time>2026-03-03T09:20:59.000Z</time>
      </trkpt>
      <trkpt lat="44.83842" lon="6.76439">
        <ele>2483.3</ele>
        <time>2026-03-03T09:21:00.000Z</time>
      </trkpt>
      <trkpt lat="44.83842" lon="6.7644">
        <ele>2483.4</ele>
        <time>2026-03-03T09:21:01.000Z</time>
      </trkpt>
      <trkpt lat="44.83843" lon="6.7644">
        <ele>2483.5</ele>
        <time>2026-03-03T09:21:02.000Z</time>
      </trkpt>
      <trkpt lat="44.83843" lon="6.76441">
        <ele>2483.6</ele>
        <time>2026-03-03T09:21:03.000Z</time>
      </trkpt>
      <trkpt lat="44.83843" lon="6.76442">
        <ele>2483.6</ele>
        <time>2026-03-03T09:21:04.000Z</time>
      </trkpt>
      <trkpt lat="44.83844" lon="6.76443">
        <ele>2483.6</ele>
        <time>2026-03-03T09:21:05.000Z</time>
      </trkpt>
      <trkpt lat="44.83845" lon="6.76444">
        <ele>2483.6</ele>
        <time>2026-03-03T09:21:06.000Z</time>
      </trkpt>
      <trkpt lat="44.83845" lon="6.76446">
        <ele>2483.5</ele>
        <time>2026-03-03T09:21:07.000Z</time>
      </trkpt>
      <trkpt lat="44.83846" lon="6.76447">
        <ele>2483.4</ele>
        <time>2026-03-03T09:21:08.000Z</time>
      </trkpt>
      <trkpt lat="44.83846" lon="6.76448">
        <ele>2483.4</ele>
        <time>2026-03-03T09:21:09.000Z</time>
      </trkpt>
      <trkpt lat="44.83844" lon="6.76446">
        <ele>2484.7</ele>
        <time>2026-03-03T09:21:23.000Z</time>
      </trkpt>
      <trkpt lat="44.83843" lon="6.76445">
        <ele>2484.6</ele>
        <time>2026-03-03T09:21:24.000Z</time>
      </trkpt>
      <trkpt lat="44.83843" lon="6.76445">
        <ele>2484.5</ele>
        <time>2026-03-03T09:21:25.000Z</time>
      </trkpt>
      <trkpt lat="44.83842" lon="6.76445">
        <ele>2484.7</ele>
        <time>2026-03-03T09:21:26.000Z</time>
      </trkpt>
      <trkpt lat="44.83842" lon="6.76445">
        <ele>2484.6</ele>
        <time>2026-03-03T09:21:27.000Z</time>
      </trkpt>
      <trkpt lat="44.83841" lon="6.76446">
        <ele>2484.7</ele>
        <time>2026-03-03T09:21:28.000Z</time>
      </trkpt>
      <trkpt lat="44.83841" lon="6.76446">
        <ele>2484.5</ele>
        <time>2026-03-03T09:21:29.000Z</time>
      </trkpt>
      <trkpt lat="44.8384" lon="6.76446">
        <ele>2484.4</ele>
        <time>2026-03-03T09:21:30.000Z</time>
      </trkpt>
      <trkpt lat="44.83839" lon="6.76446">
        <ele>2484.4</ele>
        <time>2026-03-03T09:21:31.000Z</time>
      </trkpt>
      <trkpt lat="44.83839" lon="6.76447">
        <ele>2484.3</ele>
        <time>2026-03-03T09:21:32.000Z</time>
      </trkpt>
      <trkpt lat="44.83838" lon="6.76447">
        <ele>2484.3</ele>
        <time>2026-03-03T09:21:33.000Z</time>
      </trkpt>
      <trkpt lat="44.83837" lon="6.76447">
        <ele>2484.2</ele>
        <time>2026-03-03T09:21:34.000Z</time>
      </trkpt>
      <trkpt lat="44.83837" lon="6.76447">
        <ele>2484.2</ele>
        <time>2026-03-03T09:21:35.000Z</time>
      </trkpt>
      <trkpt lat="44.83836" lon="6.76448">
        <ele>2484.3</ele>
        <time>2026-03-03T09:21:36.000Z</time>
      </trkpt>
      <trkpt lat="44.83836" lon="6.76448">
        <ele>2484.2</ele>
        <time>2026-03-03T09:21:37.000Z</time>
      </trkpt>
      <trkpt lat="44.83835" lon="6.76448">
        <ele>2484.2</ele>
        <time>2026-03-03T09:21:38.000Z</time>
      </trkpt>
      <trkpt lat="44.83834" lon="6.76448">
        <ele>2484.1</ele>
        <time>2026-03-03T09:21:39.000Z</time>
      </trkpt>
      <trkpt lat="44.83834" lon="6.76448">
        <ele>2483.9</ele>
        <time>2026-03-03T09:21:40.000Z</time>
      </trkpt>
      <trkpt lat="44.83834" lon="6.76449">
        <ele>2484</ele>
        <time>2026-03-03T09:21:41.000Z</time>
      </trkpt>
      <trkpt lat="44.83833" lon="6.76449">
        <ele>2484</ele>
        <time>2026-03-03T09:21:42.000Z</time>
      </trkpt>
      <trkpt lat="44.83832" lon="6.7645">
        <ele>2483.9</ele>
        <time>2026-03-03T09:21:43.000Z</time>
      </trkpt>
      <trkpt lat="44.83831" lon="6.76451">
        <ele>2483.7</ele>
        <time>2026-03-03T09:21:44.000Z</time>
      </trkpt>
      <trkpt lat="44.83831" lon="6.76451">
        <ele>2483.7</ele>
        <time>2026-03-03T09:21:45.000Z</time>
      </trkpt>
      <trkpt lat="44.8383" lon="6.76452">
        <ele>2483.7</ele>
        <time>2026-03-03T09:21:46.000Z</time>
      </trkpt>
      <trkpt lat="44.8383" lon="6.76453">
        <ele>2483.8</ele>
        <time>2026-03-03T09:21:47.000Z</time>
      </trkpt>
      <trkpt lat="44.8383" lon="6.76454">
        <ele>2483.9</ele>
        <time>2026-03-03T09:21:48.000Z</time>
      </trkpt>
      <trkpt lat="44.83829" lon="6.76455">
        <ele>2483.8</ele>
        <time>2026-03-03T09:21:49.000Z</time>
      </trkpt>
      <trkpt lat="44.83829" lon="6.76456">
        <ele>2483.8</ele>
        <time>2026-03-03T09:21:50.000Z</time>
      </trkpt>
      <trkpt lat="44.8383" lon="6.76456">
        <ele>2483.9</ele>
        <time>2026-03-03T09:21:51.000Z</time>
      </trkpt>
      <trkpt lat="44.8383" lon="6.76457">
        <ele>2484</ele>
        <time>2026-03-03T09:21:52.000Z</time>
      </trkpt>
      <trkpt lat="44.8383" lon="6.76457">
        <ele>2484.5</ele>
        <time>2026-03-03T09:21:53.000Z</time>
      </trkpt>
      <trkpt lat="44.8383" lon="6.76457">
        <ele>2484.8</ele>
        <time>2026-03-03T09:21:54.000Z</time>
      </trkpt>
      <trkpt lat="44.83831" lon="6.76458">
        <ele>2485.4</ele>
        <time>2026-03-03T09:21:55.000Z</time>
      </trkpt>
      <trkpt lat="44.83831" lon="6.76458">
        <ele>2485.9</ele>
        <time>2026-03-03T09:21:56.000Z</time>
      </trkpt>
      <trkpt lat="44.83832" lon="6.76459">
        <ele>2486.4</ele>
        <time>2026-03-03T09:21:57.000Z</time>
      </trkpt>
      <trkpt lat="44.83832" lon="6.76459">
        <ele>2486.6</ele>
        <time>2026-03-03T09:21:58.000Z</time>
      </trkpt>
      <trkpt lat="44.83832" lon="6.76459">
        <ele>2486.7</ele>
        <time>2026-03-03T09:21:59.000Z</time>
      </trkpt>
      <trkpt lat="44.83832" lon="6.7646">
        <ele>2487</ele>
        <time>2026-03-03T09:22:00.000Z</time>
      </trkpt>
      <trkpt lat="44.83833" lon="6.7646">
        <ele>2487.4</ele>
        <time>2026-03-03T09:22:01.000Z</time>
      </trkpt>
      <trkpt lat="44.83833" lon="6.7646">
        <ele>2487.6</ele>
        <time>2026-03-03T09:22:02.000Z</time>
      </trkpt>
      <trkpt lat="44.83833" lon="6.76461">
        <ele>2487.9</ele>
        <time>2026-03-03T09:22:03.000Z</time>
      </trkpt>
      <trkpt lat="44.83832" lon="6.76467">
        <ele>2489.6</ele>
        <time>2026-03-03T09:22:16.000Z</time>
      </trkpt>
      <trkpt lat="44.83832" lon="6.76468">
        <ele>2489.7</ele>
        <time>2026-03-03T09:22:17.000Z</time>
      </trkpt>
      <trkpt lat="44.83831" lon="6.76469">
        <ele>2489.6</ele>
        <time>2026-03-03T09:22:18.000Z</time>
      </trkpt>
      <trkpt lat="44.83831" lon="6.7647">
        <ele>2489.6</ele>
        <time>2026-03-03T09:22:19.000Z</time>
      </trkpt>
      <trkpt lat="44.83831" lon="6.7647">
        <ele>2489.6</ele>
        <time>2026-03-03T09:22:20.000Z</time>
      </trkpt>
      <trkpt lat="44.83831" lon="6.76471">
        <ele>2489.9</ele>
        <time>2026-03-03T09:22:21.000Z</time>
      </trkpt>
      <trkpt lat="44.83831" lon="6.76471">
        <ele>2489.8</ele>
        <time>2026-03-03T09:22:22.000Z</time>
      </trkpt>
      <trkpt lat="44.83831" lon="6.76471">
        <ele>2489.6</ele>
        <time>2026-03-03T09:22:23.000Z</time>
      </trkpt>
      <trkpt lat="44.83831" lon="6.76472">
        <ele>2489.5</ele>
        <time>2026-03-03T09:22:24.000Z</time>
      </trkpt>
      <trkpt lat="44.83831" lon="6.76472">
        <ele>2489.5</ele>
        <time>2026-03-03T09:22:25.000Z</time>
      </trkpt>
      <trkpt lat="44.83831" lon="6.76472">
        <ele>2489.5</ele>
        <time>2026-03-03T09:22:26.000Z</time>
      </trkpt>
      <trkpt lat="44.83831" lon="6.76472">
        <ele>2489.6</ele>
        <time>2026-03-03T09:22:27.000Z</time>
      </trkpt>
      <trkpt lat="44.83831" lon="6.76473">
        <ele>2489.6</ele>
        <time>2026-03-03T09:22:28.000Z</time>
      </trkpt>
      <trkpt lat="44.8383" lon="6.76474">
        <ele>2489.8</ele>
        <time>2026-03-03T09:22:29.000Z</time>
      </trkpt>
      <trkpt lat="44.8383" lon="6.76474">
        <ele>2489.9</ele>
        <time>2026-03-03T09:22:30.000Z</time>
      </trkpt>
      <trkpt lat="44.83829" lon="6.76476">
        <ele>2489.8</ele>
        <time>2026-03-03T09:22:31.000Z</time>
      </trkpt>
      <trkpt lat="44.83829" lon="6.76478">
        <ele>2489.6</ele>
        <time>2026-03-03T09:22:32.000Z</time>
      </trkpt>
      <trkpt lat="44.83828" lon="6.76479">
        <ele>2489.5</ele>
        <time>2026-03-03T09:22:33.000Z</time>
      </trkpt>
      <trkpt lat="44.83827" lon="6.7648">
        <ele>2489.4</ele>
        <time>2026-03-03T09:22:34.000Z</time>
      </trkpt>
      <trkpt lat="44.83827" lon="6.76481">
        <ele>2489.5</ele>
        <time>2026-03-03T09:22:35.000Z</time>
      </trkpt>
      <trkpt lat="44.83827" lon="6.76481">
        <ele>2489.4</ele>
        <time>2026-03-03T09:22:36.000Z</time>
      </trkpt>
      <trkpt lat="44.83827" lon="6.76482">
        <ele>2489.3</ele>
        <time>2026-03-03T09:22:37.000Z</time>
      </trkpt>
      <trkpt lat="44.83826" lon="6.76482">
        <ele>2489.3</ele>
        <time>2026-03-03T09:22:38.000Z</time>
      </trkpt>
      <trkpt lat="44.83826" lon="6.76482">
        <ele>2489.2</ele>
        <time>2026-03-03T09:22:39.000Z</time>
      </trkpt>
      <trkpt lat="44.83826" lon="6.76483">
        <ele>2489.2</ele>
        <time>2026-03-03T09:22:40.000Z</time>
      </trkpt>
      <trkpt lat="44.83826" lon="6.76483">
        <ele>2489.2</ele>
        <time>2026-03-03T09:22:41.000Z</time>
      </trkpt>
      <trkpt lat="44.83825" lon="6.76484">
        <ele>2489.2</ele>
        <time>2026-03-03T09:22:42.000Z</time>
      </trkpt>
      <trkpt lat="44.83824" lon="6.76485">
        <ele>2489.2</ele>
        <time>2026-03-03T09:22:43.000Z</time>
      </trkpt>
      <trkpt lat="44.83824" lon="6.76486">
        <ele>2489.4</ele>
        <time>2026-03-03T09:22:44.000Z</time>
      </trkpt>
      <trkpt lat="44.83823" lon="6.76487">
        <ele>2489.2</ele>
        <time>2026-03-03T09:22:45.000Z</time>
      </trkpt>
      <trkpt lat="44.83823" lon="6.76488">
        <ele>2489.1</ele>
        <time>2026-03-03T09:22:46.000Z</time>
      </trkpt>
      <trkpt lat="44.83822" lon="6.76489">
        <ele>2489</ele>
        <time>2026-03-03T09:22:47.000Z</time>
      </trkpt>
      <trkpt lat="44.83822" lon="6.76489">
        <ele>2488.9</ele>
        <time>2026-03-03T09:22:48.000Z</time>
      </trkpt>
      <trkpt lat="44.83821" lon="6.7649">
        <ele>2488.9</ele>
        <time>2026-03-03T09:22:49.000Z</time>
      </trkpt>
      <trkpt lat="44.83821" lon="6.76491">
        <ele>2488.8</ele>
        <time>2026-03-03T09:22:50.000Z</time>
      </trkpt>
      <trkpt lat="44.8382" lon="6.76491">
        <ele>2488.7</ele>
        <time>2026-03-03T09:22:51.000Z</time>
      </trkpt>
      <trkpt lat="44.8382" lon="6.76492">
        <ele>2488.7</ele>
        <time>2026-03-03T09:22:52.000Z</time>
      </trkpt>
      <trkpt lat="44.8382" lon="6.76493">
        <ele>2488.7</ele>
        <time>2026-03-03T09:22:53.000Z</time>
      </trkpt>
      <trkpt lat="44.83819" lon="6.76493">
        <ele>2489.1</ele>
        <time>2026-03-03T09:22:54.000Z</time>
      </trkpt>
      <trkpt lat="44.83819" lon="6.76494">
        <ele>2489.1</ele>
        <time>2026-03-03T09:22:55.000Z</time>
      </trkpt>
      <trkpt lat="44.83819" lon="6.76495">
        <ele>2489</ele>
        <time>2026-03-03T09:22:56.000Z</time>
      </trkpt>
      <trkpt lat="44.83818" lon="6.76495">
        <ele>2488.9</ele>
        <time>2026-03-03T09:22:57.000Z</time>
      </trkpt>
      <trkpt lat="44.83818" lon="6.76496">
        <ele>2488.9</ele>
        <time>2026-03-03T09:22:58.000Z</time>
      </trkpt>
      <trkpt lat="44.83818" lon="6.76497">
        <ele>2488.7</ele>
        <time>2026-03-03T09:22:59.000Z</time>
      </trkpt>
      <trkpt lat="44.83817" lon="6.76497">
        <ele>2488.8</ele>
        <time>2026-03-03T09:23:00.000Z</time>
      </trkpt>
      <trkpt lat="44.83817" lon="6.76498">
        <ele>2488.6</ele>
        <time>2026-03-03T09:23:01.000Z</time>
      </trkpt>
      <trkpt lat="44.83816" lon="6.76499">
        <ele>2488.6</ele>
        <time>2026-03-03T09:23:02.000Z</time>
      </trkpt>
      <trkpt lat="44.83816" lon="6.76499">
        <ele>2488.9</ele>
        <time>2026-03-03T09:23:03.000Z</time>
      </trkpt>
      <trkpt lat="44.83816" lon="6.765">
        <ele>2489.2</ele>
        <time>2026-03-03T09:23:04.000Z</time>
      </trkpt>
      <trkpt lat="44.83816" lon="6.765">
        <ele>2489.7</ele>
        <time>2026-03-03T09:23:05.000Z</time>
      </trkpt>
      <trkpt lat="44.83816" lon="6.765">
        <ele>2489.8</ele>
        <time>2026-03-03T09:23:06.000Z</time>
      </trkpt>
      <trkpt lat="44.83816" lon="6.765">
        <ele>2489.8</ele>
        <time>2026-03-03T09:23:07.000Z</time>
      </trkpt>
      <trkpt lat="44.83816" lon="6.76501">
        <ele>2490.1</ele>
        <time>2026-03-03T09:23:08.000Z</time>
      </trkpt>
      <trkpt lat="44.83815" lon="6.76501">
        <ele>2490</ele>
        <time>2026-03-03T09:23:09.000Z</time>
      </trkpt>
      <trkpt lat="44.83815" lon="6.76501">
        <ele>2490.1</ele>
        <time>2026-03-03T09:23:10.000Z</time>
      </trkpt>
      <trkpt lat="44.83815" lon="6.76501">
        <ele>2490.3</ele>
        <time>2026-03-03T09:23:11.000Z</time>
      </trkpt>
      <trkpt lat="44.83815" lon="6.76502">
        <ele>2490.7</ele>
        <time>2026-03-03T09:23:12.000Z</time>
      </trkpt>
      <trkpt lat="44.83814" lon="6.76502">
        <ele>2490.8</ele>
        <time>2026-03-03T09:23:13.000Z</time>
      </trkpt>
      <trkpt lat="44.83814" lon="6.76503">
        <ele>2490.9</ele>
        <time>2026-03-03T09:23:14.000Z</time>
      </trkpt>
      <trkpt lat="44.83814" lon="6.76503">
        <ele>2490.9</ele>
        <time>2026-03-03T09:23:15.000Z</time>
      </trkpt>
      <trkpt lat="44.83814" lon="6.76503">
        <ele>2490.7</ele>
        <time>2026-03-03T09:23:16.000Z</time>
      </trkpt>
      <trkpt lat="44.83813" lon="6.76503">
        <ele>2490.7</ele>
        <time>2026-03-03T09:23:17.000Z</time>
      </trkpt>
      <trkpt lat="44.83813" lon="6.76503">
        <ele>2490.9</ele>
        <time>2026-03-03T09:23:18.000Z</time>
      </trkpt>
      <trkpt lat="44.83813" lon="6.76504">
        <ele>2490.8</ele>
        <time>2026-03-03T09:23:19.000Z</time>
      </trkpt>
      <trkpt lat="44.83813" lon="6.76504">
        <ele>2490.9</ele>
        <time>2026-03-03T09:23:20.000Z</time>
      </trkpt>
      <trkpt lat="44.83813" lon="6.76504">
        <ele>2490.7</ele>
        <time>2026-03-03T09:23:21.000Z</time>
      </trkpt>
      <trkpt lat="44.83812" lon="6.76504">
        <ele>2490.6</ele>
        <time>2026-03-03T09:23:22.000Z</time>
      </trkpt>
      <trkpt lat="44.83812" lon="6.76504">
        <ele>2490.6</ele>
        <time>2026-03-03T09:23:23.000Z</time>
      </trkpt>
      <trkpt lat="44.83811" lon="6.76505">
        <ele>2490.7</ele>
        <time>2026-03-03T09:23:24.000Z</time>
      </trkpt>
      <trkpt lat="44.83811" lon="6.76505">
        <ele>2490.4</ele>
        <time>2026-03-03T09:23:25.000Z</time>
      </trkpt>
      <trkpt lat="44.8381" lon="6.76506">
        <ele>2490.5</ele>
        <time>2026-03-03T09:23:26.000Z</time>
      </trkpt>
      <trkpt lat="44.8381" lon="6.76506">
        <ele>2490.7</ele>
        <time>2026-03-03T09:23:27.000Z</time>
      </trkpt>
      <trkpt lat="44.83809" lon="6.76506">
        <ele>2490.9</ele>
        <time>2026-03-03T09:23:28.000Z</time>
      </trkpt>
      <trkpt lat="44.83809" lon="6.76507">
        <ele>2490.8</ele>
        <time>2026-03-03T09:23:29.000Z</time>
      </trkpt>
      <trkpt lat="44.83808" lon="6.76508">
        <ele>2491.1</ele>
        <time>2026-03-03T09:23:30.000Z</time>
      </trkpt>
      <trkpt lat="44.83807" lon="6.76509">
        <ele>2491.3</ele>
        <time>2026-03-03T09:23:31.000Z</time>
      </trkpt>
      <trkpt lat="44.83807" lon="6.76509">
        <ele>2491.4</ele>
        <time>2026-03-03T09:23:32.000Z</time>
      </trkpt>
      <trkpt lat="44.83806" lon="6.7651">
        <ele>2491.6</ele>
        <time>2026-03-03T09:23:33.000Z</time>
      </trkpt>
      <trkpt lat="44.83806" lon="6.7651">
        <ele>2491.7</ele>
        <time>2026-03-03T09:23:34.000Z</time>
      </trkpt>
      <trkpt lat="44.83805" lon="6.76511">
        <ele>2491.7</ele>
        <time>2026-03-03T09:23:35.000Z</time>
      </trkpt>
      <trkpt lat="44.83804" lon="6.76511">
        <ele>2491.7</ele>
        <time>2026-03-03T09:23:36.000Z</time>
      </trkpt>
      <trkpt lat="44.83804" lon="6.76512">
        <ele>2491.8</ele>
        <time>2026-03-03T09:23:37.000Z</time>
      </trkpt>
      <trkpt lat="44.83803" lon="6.76512">
        <ele>2491.9</ele>
        <time>2026-03-03T09:23:38.000Z</time>
      </trkpt>
      <trkpt lat="44.83803" lon="6.76513">
        <ele>2492</ele>
        <time>2026-03-03T09:23:39.000Z</time>
      </trkpt>
      <trkpt lat="44.83802" lon="6.76514">
        <ele>2492.1</ele>
        <time>2026-03-03T09:23:40.000Z</time>
      </trkpt>
      <trkpt lat="44.83799" lon="6.76518">
        <ele>2493.5</ele>
        <time>2026-03-03T09:23:53.000Z</time>
      </trkpt>
      <trkpt lat="44.83799" lon="6.76518">
        <ele>2493.5</ele>
        <time>2026-03-03T09:23:54.000Z</time>
      </trkpt>
      <trkpt lat="44.83798" lon="6.76519">
        <ele>2493.7</ele>
        <time>2026-03-03T09:23:55.000Z</time>
      </trkpt>
      <trkpt lat="44.83798" lon="6.7652">
        <ele>2493.7</ele>
        <time>2026-03-03T09:23:56.000Z</time>
      </trkpt>
      <trkpt lat="44.83797" lon="6.7652">
        <ele>2493.7</ele>
        <time>2026-03-03T09:23:57.000Z</time>
      </trkpt>
      <trkpt lat="44.83796" lon="6.76521">
        <ele>2493.7</ele>
        <time>2026-03-03T09:23:58.000Z</time>
      </trkpt>
      <trkpt lat="44.83795" lon="6.76522">
        <ele>2493.7</ele>
        <time>2026-03-03T09:23:59.000Z</time>
      </trkpt>
      <trkpt lat="44.83794" lon="6.76522">
        <ele>2494</ele>
        <time>2026-03-03T09:24:00.000Z</time>
      </trkpt>
      <trkpt lat="44.83793" lon="6.76523">
        <ele>2494</ele>
        <time>2026-03-03T09:24:01.000Z</time>
      </trkpt>
      <trkpt lat="44.83793" lon="6.76524">
        <ele>2493.9</ele>
        <time>2026-03-03T09:24:02.000Z</time>
      </trkpt>
      <trkpt lat="44.83792" lon="6.76525">
        <ele>2494.3</ele>
        <time>2026-03-03T09:24:03.000Z</time>
      </trkpt>
      <trkpt lat="44.83791" lon="6.76525">
        <ele>2494.6</ele>
        <time>2026-03-03T09:24:04.000Z</time>
      </trkpt>
      <trkpt lat="44.83791" lon="6.76526">
        <ele>2495</ele>
        <time>2026-03-03T09:24:05.000Z</time>
      </trkpt>
      <trkpt lat="44.83791" lon="6.76526">
        <ele>2495.4</ele>
        <time>2026-03-03T09:24:06.000Z</time>
      </trkpt>
      <trkpt lat="44.83791" lon="6.76526">
        <ele>2496.1</ele>
        <time>2026-03-03T09:24:07.000Z</time>
      </trkpt>
      <trkpt lat="44.83792" lon="6.76526">
        <ele>2496.8</ele>
        <time>2026-03-03T09:24:08.000Z</time>
      </trkpt>
      <trkpt lat="44.83792" lon="6.76526">
        <ele>2496.8</ele>
        <time>2026-03-03T09:24:09.000Z</time>
      </trkpt>
      <trkpt lat="44.83793" lon="6.76526">
        <ele>2497.4</ele>
        <time>2026-03-03T09:24:10.000Z</time>
      </trkpt>
      <trkpt lat="44.83794" lon="6.76525">
        <ele>2498.1</ele>
        <time>2026-03-03T09:24:11.000Z</time>
      </trkpt>
      <trkpt lat="44.83794" lon="6.76526">
        <ele>2498.4</ele>
        <time>2026-03-03T09:24:12.000Z</time>
      </trkpt>
      <trkpt lat="44.83795" lon="6.76526">
        <ele>2499.1</ele>
        <time>2026-03-03T09:24:13.000Z</time>
      </trkpt>
      <trkpt lat="44.83796" lon="6.76526">
        <ele>2499.7</ele>
        <time>2026-03-03T09:24:14.000Z</time>
      </trkpt>
      <trkpt lat="44.83796" lon="6.76527">
        <ele>2500.4</ele>
        <time>2026-03-03T09:24:15.000Z</time>
      </trkpt>
      <trkpt lat="44.83797" lon="6.76527">
        <ele>2501</ele>
        <time>2026-03-03T09:24:16.000Z</time>
      </trkpt>
      <trkpt lat="44.83797" lon="6.76527">
        <ele>2501.4</ele>
        <time>2026-03-03T09:24:17.000Z</time>
      </trkpt>
      <trkpt lat="44.83798" lon="6.76528">
        <ele>2502</ele>
        <time>2026-03-03T09:24:18.000Z</time>
      </trkpt>
      <trkpt lat="44.83799" lon="6.76529">
        <ele>2502.3</ele>
        <time>2026-03-03T09:24:19.000Z</time>
      </trkpt>
      <trkpt lat="44.838" lon="6.7653">
        <ele>2502.5</ele>
        <time>2026-03-03T09:24:20.000Z</time>
      </trkpt>
      <trkpt lat="44.838" lon="6.7653">
        <ele>2502.9</ele>
        <time>2026-03-03T09:24:21.000Z</time>
      </trkpt>
      <trkpt lat="44.838" lon="6.76531">
        <ele>2503.6</ele>
        <time>2026-03-03T09:24:22.000Z</time>
      </trkpt>
      <trkpt lat="44.83801" lon="6.76532">
        <ele>2504</ele>
        <time>2026-03-03T09:24:23.000Z</time>
      </trkpt>
      <trkpt lat="44.83801" lon="6.76532">
        <ele>2504.3</ele>
        <time>2026-03-03T09:24:24.000Z</time>
      </trkpt>
      <trkpt lat="44.83801" lon="6.76533">
        <ele>2504.7</ele>
        <time>2026-03-03T09:24:25.000Z</time>
      </trkpt>
      <trkpt lat="44.83802" lon="6.76533">
        <ele>2505</ele>
        <time>2026-03-03T09:24:26.000Z</time>
      </trkpt>
      <trkpt lat="44.83802" lon="6.76534">
        <ele>2505.1</ele>
        <time>2026-03-03T09:24:27.000Z</time>
      </trkpt>
      <trkpt lat="44.83803" lon="6.76534">
        <ele>2505.5</ele>
        <time>2026-03-03T09:24:28.000Z</time>
      </trkpt>
      <trkpt lat="44.83803" lon="6.76535">
        <ele>2506</ele>
        <time>2026-03-03T09:24:29.000Z</time>
      </trkpt>
      <trkpt lat="44.83803" lon="6.76536">
        <ele>2506.3</ele>
        <time>2026-03-03T09:24:30.000Z</time>
      </trkpt>
      <trkpt lat="44.83804" lon="6.76536">
        <ele>2506.5</ele>
        <time>2026-03-03T09:24:31.000Z</time>
      </trkpt>
      <trkpt lat="44.83804" lon="6.76537">
        <ele>2506.7</ele>
        <time>2026-03-03T09:24:32.000Z</time>
      </trkpt>
      <trkpt lat="44.83804" lon="6.76537">
        <ele>2506.9</ele>
        <time>2026-03-03T09:24:33.000Z</time>
      </trkpt>
      <trkpt lat="44.83805" lon="6.76538">
        <ele>2507.1</ele>
        <time>2026-03-03T09:24:34.000Z</time>
      </trkpt>
      <trkpt lat="44.83805" lon="6.76538">
        <ele>2507.3</ele>
        <time>2026-03-03T09:24:35.000Z</time>
      </trkpt>
      <trkpt lat="44.83808" lon="6.76543">
        <ele>2509.7</ele>
        <time>2026-03-03T09:24:52.000Z</time>
      </trkpt>
      <trkpt lat="44.83809" lon="6.76545">
        <ele>2509.9</ele>
        <time>2026-03-03T09:24:53.000Z</time>
      </trkpt>
      <trkpt lat="44.83809" lon="6.76546">
        <ele>2510.1</ele>
        <time>2026-03-03T09:24:54.000Z</time>
      </trkpt>
      <trkpt lat="44.8381" lon="6.76547">
        <ele>2510.3</ele>
        <time>2026-03-03T09:24:55.000Z</time>
      </trkpt>
      <trkpt lat="44.83811" lon="6.76548">
        <ele>2510.5</ele>
        <time>2026-03-03T09:24:56.000Z</time>
      </trkpt>
      <trkpt lat="44.83811" lon="6.76549">
        <ele>2510.8</ele>
        <time>2026-03-03T09:24:57.000Z</time>
      </trkpt>
      <trkpt lat="44.83812" lon="6.7655">
        <ele>2511</ele>
        <time>2026-03-03T09:24:58.000Z</time>
      </trkpt>
      <trkpt lat="44.83812" lon="6.76551">
        <ele>2511.3</ele>
        <time>2026-03-03T09:24:59.000Z</time>
      </trkpt>
      <trkpt lat="44.83812" lon="6.76551">
        <ele>2511.5</ele>
        <time>2026-03-03T09:25:00.000Z</time>
      </trkpt>
      <trkpt lat="44.83812" lon="6.76551">
        <ele>2511.6</ele>
        <time>2026-03-03T09:25:01.000Z</time>
      </trkpt>
      <trkpt lat="44.83812" lon="6.76552">
        <ele>2511.7</ele>
        <time>2026-03-03T09:25:02.000Z</time>
      </trkpt>
      <trkpt lat="44.83812" lon="6.76552">
        <ele>2512</ele>
        <time>2026-03-03T09:25:03.000Z</time>
      </trkpt>
      <trkpt lat="44.83812" lon="6.76552">
        <ele>2512.3</ele>
        <time>2026-03-03T09:25:04.000Z</time>
      </trkpt>
      <trkpt lat="44.83812" lon="6.76552">
        <ele>2512.6</ele>
        <time>2026-03-03T09:25:05.000Z</time>
      </trkpt>
      <trkpt lat="44.83812" lon="6.76552">
        <ele>2512.6</ele>
        <time>2026-03-03T09:25:06.000Z</time>
      </trkpt>
      <trkpt lat="44.83812" lon="6.76552">
        <ele>2512.7</ele>
        <time>2026-03-03T09:25:07.000Z</time>
      </trkpt>
      <trkpt lat="44.83812" lon="6.76552">
        <ele>2513</ele>
        <time>2026-03-03T09:25:08.000Z</time>
      </trkpt>
      <trkpt lat="44.83813" lon="6.76553">
        <ele>2513.3</ele>
        <time>2026-03-03T09:25:09.000Z</time>
      </trkpt>
      <trkpt lat="44.83813" lon="6.76554">
        <ele>2513.5</ele>
        <time>2026-03-03T09:25:10.000Z</time>
      </trkpt>
      <trkpt lat="44.83814" lon="6.76555">
        <ele>2513.8</ele>
        <time>2026-03-03T09:25:11.000Z</time>
      </trkpt>
      <trkpt lat="44.83815" lon="6.76555">
        <ele>2513.8</ele>
        <time>2026-03-03T09:25:12.000Z</time>
      </trkpt>
      <trkpt lat="44.83815" lon="6.76556">
        <ele>2513.9</ele>
        <time>2026-03-03T09:25:13.000Z</time>
      </trkpt>
      <trkpt lat="44.83815" lon="6.76557">
        <ele>2514</ele>
        <time>2026-03-03T09:25:14.000Z</time>
      </trkpt>
      <trkpt lat="44.83816" lon="6.76558">
        <ele>2514</ele>
        <time>2026-03-03T09:25:15.000Z</time>
      </trkpt>
      <trkpt lat="44.83816" lon="6.76558">
        <ele>2514</ele>
        <time>2026-03-03T09:25:16.000Z</time>
      </trkpt>
      <trkpt lat="44.83816" lon="6.76559">
        <ele>2514.1</ele>
        <time>2026-03-03T09:25:17.000Z</time>
      </trkpt>
      <trkpt lat="44.83816" lon="6.7656">
        <ele>2514.3</ele>
        <time>2026-03-03T09:25:18.000Z</time>
      </trkpt>
      <trkpt lat="44.83816" lon="6.7656">
        <ele>2514.7</ele>
        <time>2026-03-03T09:25:19.000Z</time>
      </trkpt>
      <trkpt lat="44.83816" lon="6.76561">
        <ele>2514.9</ele>
        <time>2026-03-03T09:25:20.000Z</time>
      </trkpt>
      <trkpt lat="44.83816" lon="6.76562">
        <ele>2514.9</ele>
        <time>2026-03-03T09:25:21.000Z</time>
      </trkpt>
      <trkpt lat="44.83815" lon="6.76562">
        <ele>2514.7</ele>
        <time>2026-03-03T09:25:22.000Z</time>
      </trkpt>
      <trkpt lat="44.83815" lon="6.76563">
        <ele>2514.5</ele>
        <time>2026-03-03T09:25:23.000Z</time>
      </trkpt>
      <trkpt lat="44.83814" lon="6.76563">
        <ele>2514.5</ele>
        <time>2026-03-03T09:25:24.000Z</time>
      </trkpt>
      <trkpt lat="44.83814" lon="6.76563">
        <ele>2514.2</ele>
        <time>2026-03-03T09:25:25.000Z</time>
      </trkpt>
      <trkpt lat="44.83811" lon="6.76569">
        <ele>2514.2</ele>
        <time>2026-03-03T09:25:42.000Z</time>
      </trkpt>
      <trkpt lat="44.83811" lon="6.7657">
        <ele>2514.2</ele>
        <time>2026-03-03T09:25:43.000Z</time>
      </trkpt>
      <trkpt lat="44.8381" lon="6.76571">
        <ele>2514.3</ele>
        <time>2026-03-03T09:25:44.000Z</time>
      </trkpt>
      <trkpt lat="44.8381" lon="6.76572">
        <ele>2514.6</ele>
        <time>2026-03-03T09:25:45.000Z</time>
      </trkpt>
      <trkpt lat="44.83809" lon="6.76573">
        <ele>2514.7</ele>
        <time>2026-03-03T09:25:46.000Z</time>
      </trkpt>
      <trkpt lat="44.83808" lon="6.76573">
        <ele>2514.9</ele>
        <time>2026-03-03T09:25:47.000Z</time>
      </trkpt>
      <trkpt lat="44.83808" lon="6.76574">
        <ele>2515</ele>
        <time>2026-03-03T09:25:48.000Z</time>
      </trkpt>
      <trkpt lat="44.83808" lon="6.76575">
        <ele>2515.2</ele>
        <time>2026-03-03T09:25:49.000Z</time>
      </trkpt>
      <trkpt lat="44.83808" lon="6.76575">
        <ele>2515.3</ele>
        <time>2026-03-03T09:25:50.000Z</time>
      </trkpt>
      <trkpt lat="44.83807" lon="6.76576">
        <ele>2515.7</ele>
        <time>2026-03-03T09:25:51.000Z</time>
      </trkpt>
      <trkpt lat="44.83807" lon="6.76576">
        <ele>2515.8</ele>
        <time>2026-03-03T09:25:52.000Z</time>
      </trkpt>
      <trkpt lat="44.83807" lon="6.76577">
        <ele>2515.8</ele>
        <time>2026-03-03T09:25:53.000Z</time>
      </trkpt>
      <trkpt lat="44.83807" lon="6.76577">
        <ele>2515.9</ele>
        <time>2026-03-03T09:25:54.000Z</time>
      </trkpt>
      <trkpt lat="44.83807" lon="6.76577">
        <ele>2516</ele>
        <time>2026-03-03T09:25:55.000Z</time>
      </trkpt>
      <trkpt lat="44.83807" lon="6.76577">
        <ele>2516.2</ele>
        <time>2026-03-03T09:25:56.000Z</time>
      </trkpt>
      <trkpt lat="44.83807" lon="6.76577">
        <ele>2516.2</ele>
        <time>2026-03-03T09:25:57.000Z</time>
      </trkpt>
      <trkpt lat="44.83807" lon="6.76578">
        <ele>2516.4</ele>
        <time>2026-03-03T09:25:58.000Z</time>
      </trkpt>
      <trkpt lat="44.83806" lon="6.76579">
        <ele>2516.5</ele>
        <time>2026-03-03T09:25:59.000Z</time>
      </trkpt>
      <trkpt lat="44.83805" lon="6.7658">
        <ele>2516.7</ele>
        <time>2026-03-03T09:26:00.000Z</time>
      </trkpt>
      <trkpt lat="44.83805" lon="6.76581">
        <ele>2516.8</ele>
        <time>2026-03-03T09:26:01.000Z</time>
      </trkpt>
      <trkpt lat="44.83804" lon="6.76582">
        <ele>2516.8</ele>
        <time>2026-03-03T09:26:02.000Z</time>
      </trkpt>
      <trkpt lat="44.83803" lon="6.76584">
        <ele>2516.8</ele>
        <time>2026-03-03T09:26:03.000Z</time>
      </trkpt>
      <trkpt lat="44.83802" lon="6.76584">
        <ele>2516.9</ele>
        <time>2026-03-03T09:26:04.000Z</time>
      </trkpt>
      <trkpt lat="44.83802" lon="6.76585">
        <ele>2516.9</ele>
        <time>2026-03-03T09:26:05.000Z</time>
      </trkpt>
      <trkpt lat="44.83801" lon="6.76586">
        <ele>2517</ele>
        <time>2026-03-03T09:26:06.000Z</time>
      </trkpt>
      <trkpt lat="44.83801" lon="6.76586">
        <ele>2517</ele>
        <time>2026-03-03T09:26:07.000Z</time>
      </trkpt>
      <trkpt lat="44.838" lon="6.76587">
        <ele>2517</ele>
        <time>2026-03-03T09:26:08.000Z</time>
      </trkpt>
      <trkpt lat="44.838" lon="6.76587">
        <ele>2517.2</ele>
        <time>2026-03-03T09:26:09.000Z</time>
      </trkpt>
      <trkpt lat="44.838" lon="6.76587">
        <ele>2517.4</ele>
        <time>2026-03-03T09:26:10.000Z</time>
      </trkpt>
      <trkpt lat="44.83799" lon="6.76587">
        <ele>2517.4</ele>
        <time>2026-03-03T09:26:11.000Z</time>
      </trkpt>
      <trkpt lat="44.83796" lon="6.76593">
        <ele>2519.4</ele>
        <time>2026-03-03T09:26:34.000Z</time>
      </trkpt>
      <trkpt lat="44.83795" lon="6.76594">
        <ele>2519.4</ele>
        <time>2026-03-03T09:26:35.000Z</time>
      </trkpt>
      <trkpt lat="44.83795" lon="6.76596">
        <ele>2519.4</ele>
        <time>2026-03-03T09:26:36.000Z</time>
      </trkpt>
      <trkpt lat="44.83794" lon="6.76597">
        <ele>2519.5</ele>
        <time>2026-03-03T09:26:37.000Z</time>
      </trkpt>
      <trkpt lat="44.83793" lon="6.76599">
        <ele>2519.6</ele>
        <time>2026-03-03T09:26:38.000Z</time>
      </trkpt>
      <trkpt lat="44.83792" lon="6.766">
        <ele>2519.7</ele>
        <time>2026-03-03T09:26:39.000Z</time>
      </trkpt>
      <trkpt lat="44.83792" lon="6.76601">
        <ele>2519.8</ele>
        <time>2026-03-03T09:26:40.000Z</time>
      </trkpt>
      <trkpt lat="44.83792" lon="6.76601">
        <ele>2520</ele>
        <time>2026-03-03T09:26:41.000Z</time>
      </trkpt>
      <trkpt lat="44.83792" lon="6.76601">
        <ele>2520.2</ele>
        <time>2026-03-03T09:26:42.000Z</time>
      </trkpt>
      <trkpt lat="44.83792" lon="6.76602">
        <ele>2520.2</ele>
        <time>2026-03-03T09:26:43.000Z</time>
      </trkpt>
      <trkpt lat="44.83791" lon="6.76602">
        <ele>2520.1</ele>
        <time>2026-03-03T09:26:44.000Z</time>
      </trkpt>
      <trkpt lat="44.83791" lon="6.76603">
        <ele>2520.1</ele>
        <time>2026-03-03T09:26:45.000Z</time>
      </trkpt>
      <trkpt lat="44.8379" lon="6.76604">
        <ele>2520.4</ele>
        <time>2026-03-03T09:26:46.000Z</time>
      </trkpt>
      <trkpt lat="44.8379" lon="6.76604">
        <ele>2520.9</ele>
        <time>2026-03-03T09:26:47.000Z</time>
      </trkpt>
      <trkpt lat="44.8379" lon="6.76604">
        <ele>2521</ele>
        <time>2026-03-03T09:26:48.000Z</time>
      </trkpt>
      <trkpt lat="44.8379" lon="6.76604">
        <ele>2521.2</ele>
        <time>2026-03-03T09:26:49.000Z</time>
      </trkpt>
      <trkpt lat="44.8379" lon="6.76605">
        <ele>2521.2</ele>
        <time>2026-03-03T09:26:50.000Z</time>
      </trkpt>
      <trkpt lat="44.8379" lon="6.76605">
        <ele>2521.2</ele>
        <time>2026-03-03T09:26:51.000Z</time>
      </trkpt>
      <trkpt lat="44.8379" lon="6.76605">
        <ele>2521.3</ele>
        <time>2026-03-03T09:26:52.000Z</time>
      </trkpt>
      <trkpt lat="44.83789" lon="6.76606">
        <ele>2521.3</ele>
        <time>2026-03-03T09:26:53.000Z</time>
      </trkpt>
      <trkpt lat="44.83789" lon="6.76607">
        <ele>2521.3</ele>
        <time>2026-03-03T09:26:54.000Z</time>
      </trkpt>
      <trkpt lat="44.83788" lon="6.76608">
        <ele>2521.5</ele>
        <time>2026-03-03T09:26:55.000Z</time>
      </trkpt>
      <trkpt lat="44.83787" lon="6.7661">
        <ele>2521.5</ele>
        <time>2026-03-03T09:26:56.000Z</time>
      </trkpt>
      <trkpt lat="44.83786" lon="6.76612">
        <ele>2521.6</ele>
        <time>2026-03-03T09:26:57.000Z</time>
      </trkpt>
      <trkpt lat="44.83786" lon="6.76613">
        <ele>2521.6</ele>
        <time>2026-03-03T09:26:58.000Z</time>
      </trkpt>
      <trkpt lat="44.83785" lon="6.76614">
        <ele>2521.6</ele>
        <time>2026-03-03T09:26:59.000Z</time>
      </trkpt>
      <trkpt lat="44.83785" lon="6.76614">
        <ele>2521.8</ele>
        <time>2026-03-03T09:27:00.000Z</time>
      </trkpt>
      <trkpt lat="44.83784" lon="6.76615">
        <ele>2522</ele>
        <time>2026-03-03T09:27:01.000Z</time>
      </trkpt>
      <trkpt lat="44.83783" lon="6.76616">
        <ele>2522</ele>
        <time>2026-03-03T09:27:02.000Z</time>
      </trkpt>
      <trkpt lat="44.83783" lon="6.76616">
        <ele>2522</ele>
        <time>2026-03-03T09:27:03.000Z</time>
      </trkpt>
      <trkpt lat="44.83782" lon="6.76617">
        <ele>2522</ele>
        <time>2026-03-03T09:27:04.000Z</time>
      </trkpt>
      <trkpt lat="44.83782" lon="6.76618">
        <ele>2522</ele>
        <time>2026-03-03T09:27:05.000Z</time>
      </trkpt>
      <trkpt lat="44.83781" lon="6.76619">
        <ele>2522.2</ele>
        <time>2026-03-03T09:27:06.000Z</time>
      </trkpt>
      <trkpt lat="44.83781" lon="6.7662">
        <ele>2522.2</ele>
        <time>2026-03-03T09:27:07.000Z</time>
      </trkpt>
      <trkpt lat="44.8378" lon="6.76621">
        <ele>2522.1</ele>
        <time>2026-03-03T09:27:08.000Z</time>
      </trkpt>
      <trkpt lat="44.8378" lon="6.76622">
        <ele>2522</ele>
        <time>2026-03-03T09:27:09.000Z</time>
      </trkpt>
      <trkpt lat="44.83779" lon="6.76623">
        <ele>2522.1</ele>
        <time>2026-03-03T09:27:10.000Z</time>
      </trkpt>
      <trkpt lat="44.83779" lon="6.76623">
        <ele>2522.3</ele>
        <time>2026-03-03T09:27:11.000Z</time>
      </trkpt>
      <trkpt lat="44.83776" lon="6.76626">
        <ele>2524.7</ele>
        <time>2026-03-03T09:27:25.000Z</time>
      </trkpt>
      <trkpt lat="44.83775" lon="6.76626">
        <ele>2524.7</ele>
        <time>2026-03-03T09:27:26.000Z</time>
      </trkpt>
      <trkpt lat="44.83775" lon="6.76626">
        <ele>2524.6</ele>
        <time>2026-03-03T09:27:27.000Z</time>
      </trkpt>
      <trkpt lat="44.83774" lon="6.76626">
        <ele>2524.7</ele>
        <time>2026-03-03T09:27:28.000Z</time>
      </trkpt>
      <trkpt lat="44.83774" lon="6.76626">
        <ele>2524.8</ele>
        <time>2026-03-03T09:27:29.000Z</time>
      </trkpt>
      <trkpt lat="44.83773" lon="6.76626">
        <ele>2524.9</ele>
        <time>2026-03-03T09:27:30.000Z</time>
      </trkpt>
      <trkpt lat="44.83773" lon="6.76626">
        <ele>2525.1</ele>
        <time>2026-03-03T09:27:31.000Z</time>
      </trkpt>
      <trkpt lat="44.83772" lon="6.76626">
        <ele>2525</ele>
        <time>2026-03-03T09:27:32.000Z</time>
      </trkpt>
      <trkpt lat="44.83772" lon="6.76627">
        <ele>2525.3</ele>
        <time>2026-03-03T09:27:33.000Z</time>
      </trkpt>
      <trkpt lat="44.83769" lon="6.76628">
        <ele>2525.6</ele>
        <time>2026-03-03T09:27:47.000Z</time>
      </trkpt>
      <trkpt lat="44.83768" lon="6.76629">
        <ele>2525.7</ele>
        <time>2026-03-03T09:27:48.000Z</time>
      </trkpt>
      <trkpt lat="44.83767" lon="6.7663">
        <ele>2525.8</ele>
        <time>2026-03-03T09:27:49.000Z</time>
      </trkpt>
      <trkpt lat="44.83766" lon="6.76631">
        <ele>2526</ele>
        <time>2026-03-03T09:27:50.000Z</time>
      </trkpt>
      <trkpt lat="44.83765" lon="6.76632">
        <ele>2526.2</ele>
        <time>2026-03-03T09:27:51.000Z</time>
      </trkpt>
      <trkpt lat="44.83764" lon="6.76632">
        <ele>2526.3</ele>
        <time>2026-03-03T09:27:52.000Z</time>
      </trkpt>
      <trkpt lat="44.83764" lon="6.76633">
        <ele>2526.4</ele>
        <time>2026-03-03T09:27:53.000Z</time>
      </trkpt>
      <trkpt lat="44.83763" lon="6.76633">
        <ele>2526.6</ele>
        <time>2026-03-03T09:27:54.000Z</time>
      </trkpt>
      <trkpt lat="44.83762" lon="6.76634">
        <ele>2526.7</ele>
        <time>2026-03-03T09:27:55.000Z</time>
      </trkpt>
      <trkpt lat="44.83761" lon="6.76635">
        <ele>2527</ele>
        <time>2026-03-03T09:27:56.000Z</time>
      </trkpt>
      <trkpt lat="44.83761" lon="6.76636">
        <ele>2527.3</ele>
        <time>2026-03-03T09:27:57.000Z</time>
      </trkpt>
      <trkpt lat="44.83761" lon="6.76636">
        <ele>2527.9</ele>
        <time>2026-03-03T09:27:58.000Z</time>
      </trkpt>
      <trkpt lat="44.83761" lon="6.76637">
        <ele>2528.5</ele>
        <time>2026-03-03T09:27:59.000Z</time>
      </trkpt>
      <trkpt lat="44.8376" lon="6.76638">
        <ele>2528.6</ele>
        <time>2026-03-03T09:28:00.000Z</time>
      </trkpt>
      <trkpt lat="44.8376" lon="6.76639">
        <ele>2529</ele>
        <time>2026-03-03T09:28:01.000Z</time>
      </trkpt>
      <trkpt lat="44.8376" lon="6.76639">
        <ele>2529.3</ele>
        <time>2026-03-03T09:28:02.000Z</time>
      </trkpt>
      <trkpt lat="44.83759" lon="6.7664">
        <ele>2529.7</ele>
        <time>2026-03-03T09:28:03.000Z</time>
      </trkpt>
      <trkpt lat="44.83759" lon="6.76641">
        <ele>2529.9</ele>
        <time>2026-03-03T09:28:04.000Z</time>
      </trkpt>
      <trkpt lat="44.83759" lon="6.76641">
        <ele>2530.4</ele>
        <time>2026-03-03T09:28:05.000Z</time>
      </trkpt>
      <trkpt lat="44.83759" lon="6.76642">
        <ele>2530.7</ele>
        <time>2026-03-03T09:28:06.000Z</time>
      </trkpt>
      <trkpt lat="44.83758" lon="6.76643">
        <ele>2530.8</ele>
        <time>2026-03-03T09:28:07.000Z</time>
      </trkpt>
      <trkpt lat="44.83758" lon="6.76644">
        <ele>2531</ele>
        <time>2026-03-03T09:28:08.000Z</time>
      </trkpt>
      <trkpt lat="44.83757" lon="6.76644">
        <ele>2531</ele>
        <time>2026-03-03T09:28:09.000Z</time>
      </trkpt>
      <trkpt lat="44.83756" lon="6.76645">
        <ele>2531</ele>
        <time>2026-03-03T09:28:10.000Z</time>
      </trkpt>
      <trkpt lat="44.83756" lon="6.76646">
        <ele>2530.8</ele>
        <time>2026-03-03T09:28:11.000Z</time>
      </trkpt>
      <trkpt lat="44.83756" lon="6.76646">
        <ele>2530.9</ele>
        <time>2026-03-03T09:28:12.000Z</time>
      </trkpt>
      <trkpt lat="44.83755" lon="6.76646">
        <ele>2531.1</ele>
        <time>2026-03-03T09:28:13.000Z</time>
      </trkpt>
      <trkpt lat="44.83755" lon="6.76647">
        <ele>2531.3</ele>
        <time>2026-03-03T09:28:14.000Z</time>
      </trkpt>
      <trkpt lat="44.83755" lon="6.76647">
        <ele>2531.3</ele>
        <time>2026-03-03T09:28:15.000Z</time>
      </trkpt>
      <trkpt lat="44.83754" lon="6.76648">
        <ele>2531.3</ele>
        <time>2026-03-03T09:28:16.000Z</time>
      </trkpt>
      <trkpt lat="44.83754" lon="6.76648">
        <ele>2531.5</ele>
        <time>2026-03-03T09:28:17.000Z</time>
      </trkpt>
      <trkpt lat="44.83754" lon="6.76648">
        <ele>2531.8</ele>
        <time>2026-03-03T09:28:18.000Z</time>
      </trkpt>
      <trkpt lat="44.83754" lon="6.76649">
        <ele>2532.1</ele>
        <time>2026-03-03T09:28:19.000Z</time>
      </trkpt>
      <trkpt lat="44.83753" lon="6.7665">
        <ele>2532.1</ele>
        <time>2026-03-03T09:28:20.000Z</time>
      </trkpt>
      <trkpt lat="44.83753" lon="6.76651">
        <ele>2532.2</ele>
        <time>2026-03-03T09:28:21.000Z</time>
      </trkpt>
      <trkpt lat="44.83753" lon="6.76651">
        <ele>2532.3</ele>
        <time>2026-03-03T09:28:22.000Z</time>
      </trkpt>
      <trkpt lat="44.83752" lon="6.76652">
        <ele>2532.4</ele>
        <time>2026-03-03T09:28:23.000Z</time>
      </trkpt>
      <trkpt lat="44.83752" lon="6.76653">
        <ele>2532.6</ele>
        <time>2026-03-03T09:28:24.000Z</time>
      </trkpt>
      <trkpt lat="44.83753" lon="6.76652">
        <ele>2533.7</ele>
        <time>2026-03-03T09:28:25.000Z</time>
      </trkpt>
      <trkpt lat="44.83753" lon="6.76652">
        <ele>2533.9</ele>
        <time>2026-03-03T09:28:26.000Z</time>
      </trkpt>
      <trkpt lat="44.83752" lon="6.76653">
        <ele>2534.1</ele>
        <time>2026-03-03T09:28:27.000Z</time>
      </trkpt>
      <trkpt lat="44.83752" lon="6.76654">
        <ele>2534.3</ele>
        <time>2026-03-03T09:28:28.000Z</time>
      </trkpt>
      <trkpt lat="44.83751" lon="6.76654">
        <ele>2534.4</ele>
        <time>2026-03-03T09:28:29.000Z</time>
      </trkpt>
      <trkpt lat="44.83751" lon="6.76655">
        <ele>2534.7</ele>
        <time>2026-03-03T09:28:30.000Z</time>
      </trkpt>
      <trkpt lat="44.83751" lon="6.76655">
        <ele>2534.9</ele>
        <time>2026-03-03T09:28:31.000Z</time>
      </trkpt>
      <trkpt lat="44.83751" lon="6.76656">
        <ele>2535.1</ele>
        <time>2026-03-03T09:28:32.000Z</time>
      </trkpt>
      <trkpt lat="44.8375" lon="6.76657">
        <ele>2535.1</ele>
        <time>2026-03-03T09:28:33.000Z</time>
      </trkpt>
      <trkpt lat="44.8375" lon="6.76657">
        <ele>2535.1</ele>
        <time>2026-03-03T09:28:34.000Z</time>
      </trkpt>
      <trkpt lat="44.8375" lon="6.76658">
        <ele>2535.4</ele>
        <time>2026-03-03T09:28:35.000Z</time>
      </trkpt>
      <trkpt lat="44.83749" lon="6.76659">
        <ele>2535.3</ele>
        <time>2026-03-03T09:28:36.000Z</time>
      </trkpt>
      <trkpt lat="44.83749" lon="6.76658">
        <ele>2535.9</ele>
        <time>2026-03-03T09:28:37.000Z</time>
      </trkpt>
      <trkpt lat="44.83749" lon="6.76659">
        <ele>2535.9</ele>
        <time>2026-03-03T09:28:38.000Z</time>
      </trkpt>
      <trkpt lat="44.83749" lon="6.76659">
        <ele>2535.9</ele>
        <time>2026-03-03T09:28:39.000Z</time>
      </trkpt>
      <trkpt lat="44.83748" lon="6.7666">
        <ele>2535.9</ele>
        <time>2026-03-03T09:28:40.000Z</time>
      </trkpt>
      <trkpt lat="44.83748" lon="6.7666">
        <ele>2535.7</ele>
        <time>2026-03-03T09:28:41.000Z</time>
      </trkpt>
      <trkpt lat="44.83748" lon="6.76661">
        <ele>2535.8</ele>
        <time>2026-03-03T09:28:42.000Z</time>
      </trkpt>
      <trkpt lat="44.83747" lon="6.76661">
        <ele>2536.1</ele>
        <time>2026-03-03T09:28:43.000Z</time>
      </trkpt>
      <trkpt lat="44.83747" lon="6.76661">
        <ele>2536.4</ele>
        <time>2026-03-03T09:28:44.000Z</time>
      </trkpt>
      <trkpt lat="44.83744" lon="6.76666">
        <ele>2538.6</ele>
        <time>2026-03-03T09:29:05.000Z</time>
      </trkpt>
      <trkpt lat="44.83743" lon="6.76666">
        <ele>2538.6</ele>
        <time>2026-03-03T09:29:06.000Z</time>
      </trkpt>
      <trkpt lat="44.83743" lon="6.76668">
        <ele>2538.6</ele>
        <time>2026-03-03T09:29:07.000Z</time>
      </trkpt>
      <trkpt lat="44.83742" lon="6.76669">
        <ele>2538.7</ele>
        <time>2026-03-03T09:29:08.000Z</time>
      </trkpt>
      <trkpt lat="44.83741" lon="6.76669">
        <ele>2538.9</ele>
        <time>2026-03-03T09:29:09.000Z</time>
      </trkpt>
      <trkpt lat="44.8374" lon="6.7667">
        <ele>2539.1</ele>
        <time>2026-03-03T09:29:10.000Z</time>
      </trkpt>
      <trkpt lat="44.83739" lon="6.76672">
        <ele>2539.3</ele>
        <time>2026-03-03T09:29:11.000Z</time>
      </trkpt>
      <trkpt lat="44.83739" lon="6.76672">
        <ele>2539.7</ele>
        <time>2026-03-03T09:29:12.000Z</time>
      </trkpt>
      <trkpt lat="44.83738" lon="6.76673">
        <ele>2539.8</ele>
        <time>2026-03-03T09:29:13.000Z</time>
      </trkpt>
      <trkpt lat="44.83737" lon="6.76674">
        <ele>2540</ele>
        <time>2026-03-03T09:29:14.000Z</time>
      </trkpt>
      <trkpt lat="44.83737" lon="6.76675">
        <ele>2539.9</ele>
        <time>2026-03-03T09:29:15.000Z</time>
      </trkpt>
      <trkpt lat="44.83736" lon="6.76676">
        <ele>2539.9</ele>
        <time>2026-03-03T09:29:16.000Z</time>
      </trkpt>
      <trkpt lat="44.83735" lon="6.76676">
        <ele>2539.9</ele>
        <time>2026-03-03T09:29:17.000Z</time>
      </trkpt>
      <trkpt lat="44.83735" lon="6.76677">
        <ele>2540</ele>
        <time>2026-03-03T09:29:18.000Z</time>
      </trkpt>
      <trkpt lat="44.83735" lon="6.76678">
        <ele>2540.1</ele>
        <time>2026-03-03T09:29:19.000Z</time>
      </trkpt>
      <trkpt lat="44.83734" lon="6.76678">
        <ele>2540.3</ele>
        <time>2026-03-03T09:29:20.000Z</time>
      </trkpt>
      <trkpt lat="44.83734" lon="6.76679">
        <ele>2540.3</ele>
        <time>2026-03-03T09:29:21.000Z</time>
      </trkpt>
      <trkpt lat="44.83733" lon="6.7668">
        <ele>2540.6</ele>
        <time>2026-03-03T09:29:22.000Z</time>
      </trkpt>
      <trkpt lat="44.83733" lon="6.76681">
        <ele>2540.8</ele>
        <time>2026-03-03T09:29:23.000Z</time>
      </trkpt>
      <trkpt lat="44.83733" lon="6.76681">
        <ele>2541</ele>
        <time>2026-03-03T09:29:24.000Z</time>
      </trkpt>
      <trkpt lat="44.83733" lon="6.76681">
        <ele>2541</ele>
        <time>2026-03-03T09:29:25.000Z</time>
      </trkpt>
      <trkpt lat="44.83733" lon="6.76682">
        <ele>2541.1</ele>
        <time>2026-03-03T09:29:26.000Z</time>
      </trkpt>
      <trkpt lat="44.83732" lon="6.76683">
        <ele>2541.3</ele>
        <time>2026-03-03T09:29:27.000Z</time>
      </trkpt>
      <trkpt lat="44.83732" lon="6.76683">
        <ele>2541.5</ele>
        <time>2026-03-03T09:29:28.000Z</time>
      </trkpt>
      <trkpt lat="44.83731" lon="6.76684">
        <ele>2541.7</ele>
        <time>2026-03-03T09:29:29.000Z</time>
      </trkpt>
      <trkpt lat="44.83731" lon="6.76685">
        <ele>2542</ele>
        <time>2026-03-03T09:29:30.000Z</time>
      </trkpt>
      <trkpt lat="44.83733" lon="6.76689">
        <ele>2550.4</ele>
        <time>2026-03-03T09:29:58.000Z</time>
      </trkpt>
      <trkpt lat="44.83734" lon="6.7669">
        <ele>2550.4</ele>
        <time>2026-03-03T09:29:59.000Z</time>
      </trkpt>
      <trkpt lat="44.83735" lon="6.76691">
        <ele>2550.4</ele>
        <time>2026-03-03T09:30:00.000Z</time>
      </trkpt>
      <trkpt lat="44.83735" lon="6.76691">
        <ele>2550.4</ele>
        <time>2026-03-03T09:30:01.000Z</time>
      </trkpt>
      <trkpt lat="44.83736" lon="6.76692">
        <ele>2550.3</ele>
        <time>2026-03-03T09:30:02.000Z</time>
      </trkpt>
      <trkpt lat="44.83736" lon="6.76692">
        <ele>2550.3</ele>
        <time>2026-03-03T09:30:03.000Z</time>
      </trkpt>
      <trkpt lat="44.83736" lon="6.76692">
        <ele>2550.4</ele>
        <time>2026-03-03T09:30:04.000Z</time>
      </trkpt>
      <trkpt lat="44.83736" lon="6.76692">
        <ele>2550.4</ele>
        <time>2026-03-03T09:30:05.000Z</time>
      </trkpt>
      <trkpt lat="44.83736" lon="6.76692">
        <ele>2550.5</ele>
        <time>2026-03-03T09:30:06.000Z</time>
      </trkpt>
      <trkpt lat="44.83737" lon="6.76693">
        <ele>2550.7</ele>
        <time>2026-03-03T09:30:07.000Z</time>
      </trkpt>
      <trkpt lat="44.83738" lon="6.76693">
        <ele>2550.7</ele>
        <time>2026-03-03T09:30:08.000Z</time>
      </trkpt>
      <trkpt lat="44.83738" lon="6.76694">
        <ele>2550.7</ele>
        <time>2026-03-03T09:30:09.000Z</time>
      </trkpt>
      <trkpt lat="44.83739" lon="6.76694">
        <ele>2550.8</ele>
        <time>2026-03-03T09:30:10.000Z</time>
      </trkpt>
      <trkpt lat="44.83739" lon="6.76695">
        <ele>2550.7</ele>
        <time>2026-03-03T09:30:11.000Z</time>
      </trkpt>
      <trkpt lat="44.83739" lon="6.76695">
        <ele>2550.8</ele>
        <time>2026-03-03T09:30:12.000Z</time>
      </trkpt>
      <trkpt lat="44.83739" lon="6.76695">
        <ele>2550.8</ele>
        <time>2026-03-03T09:30:13.000Z</time>
      </trkpt>
      <trkpt lat="44.83739" lon="6.76695">
        <ele>2550.8</ele>
        <time>2026-03-03T09:30:14.000Z</time>
      </trkpt>
      <trkpt lat="44.83739" lon="6.76695">
        <ele>2550.9</ele>
        <time>2026-03-03T09:30:15.000Z</time>
      </trkpt>
      <trkpt lat="44.83739" lon="6.76695">
        <ele>2551</ele>
        <time>2026-03-03T09:30:16.000Z</time>
      </trkpt>
      <trkpt lat="44.8374" lon="6.76696">
        <ele>2551</ele>
        <time>2026-03-03T09:30:17.000Z</time>
      </trkpt>
      <trkpt lat="44.83741" lon="6.76696">
        <ele>2551.1</ele>
        <time>2026-03-03T09:30:18.000Z</time>
      </trkpt>
      <trkpt lat="44.83742" lon="6.76697">
        <ele>2551.2</ele>
        <time>2026-03-03T09:30:19.000Z</time>
      </trkpt>
      <trkpt lat="44.83743" lon="6.76699">
        <ele>2551.3</ele>
        <time>2026-03-03T09:30:20.000Z</time>
      </trkpt>
      <trkpt lat="44.83744" lon="6.76699">
        <ele>2551.4</ele>
        <time>2026-03-03T09:30:21.000Z</time>
      </trkpt>
      <trkpt lat="44.83744" lon="6.767">
        <ele>2551.4</ele>
        <time>2026-03-03T09:30:22.000Z</time>
      </trkpt>
      <trkpt lat="44.83745" lon="6.76701">
        <ele>2551.5</ele>
        <time>2026-03-03T09:30:23.000Z</time>
      </trkpt>
      <trkpt lat="44.83746" lon="6.76702">
        <ele>2551.7</ele>
        <time>2026-03-03T09:30:24.000Z</time>
      </trkpt>
      <trkpt lat="44.83747" lon="6.76703">
        <ele>2551.8</ele>
        <time>2026-03-03T09:30:25.000Z</time>
      </trkpt>
      <trkpt lat="44.83748" lon="6.76704">
        <ele>2552</ele>
        <time>2026-03-03T09:30:26.000Z</time>
      </trkpt>
      <trkpt lat="44.83749" lon="6.76705">
        <ele>2552</ele>
        <time>2026-03-03T09:30:27.000Z</time>
      </trkpt>
      <trkpt lat="44.8375" lon="6.76705">
        <ele>2552.1</ele>
        <time>2026-03-03T09:30:28.000Z</time>
      </trkpt>
      <trkpt lat="44.8375" lon="6.76706">
        <ele>2552.3</ele>
        <time>2026-03-03T09:30:29.000Z</time>
      </trkpt>
      <trkpt lat="44.83751" lon="6.76707">
        <ele>2552.5</ele>
        <time>2026-03-03T09:30:30.000Z</time>
      </trkpt>
      <trkpt lat="44.83753" lon="6.76709">
        <ele>2552.9</ele>
        <time>2026-03-03T09:30:31.999Z</time>
      </trkpt>
      <trkpt lat="44.83754" lon="6.7671">
        <ele>2553.3</ele>
        <time>2026-03-03T09:30:32.999Z</time>
      </trkpt>
      <trkpt lat="44.83754" lon="6.76711">
        <ele>2553.6</ele>
        <time>2026-03-03T09:30:33.999Z</time>
      </trkpt>
      <trkpt lat="44.83754" lon="6.76711">
        <ele>2554</ele>
        <time>2026-03-03T09:30:34.999Z</time>
      </trkpt>
      <trkpt lat="44.83757" lon="6.76712">
        <ele>2554.3</ele>
        <time>2026-03-03T09:30:35.999Z</time>
      </trkpt>
      <trkpt lat="44.83758" lon="6.76712">
        <ele>2554.3</ele>
        <time>2026-03-03T09:30:36.999Z</time>
      </trkpt>
      <trkpt lat="44.83759" lon="6.76713">
        <ele>2554.7</ele>
        <time>2026-03-03T09:30:37.999Z</time>
      </trkpt>
      <trkpt lat="44.8376" lon="6.76713">
        <ele>2555</ele>
        <time>2026-03-03T09:30:38.999Z</time>
      </trkpt>
      <trkpt lat="44.8376" lon="6.76714">
        <ele>2555.4</ele>
        <time>2026-03-03T09:30:39.999Z</time>
      </trkpt>
      <trkpt lat="44.83761" lon="6.76714">
        <ele>2555.9</ele>
        <time>2026-03-03T09:30:40.999Z</time>
      </trkpt>
      <trkpt lat="44.83762" lon="6.76715">
        <ele>2556.3</ele>
        <time>2026-03-03T09:30:41.999Z</time>
      </trkpt>
      <trkpt lat="44.83762" lon="6.76715">
        <ele>2556.9</ele>
        <time>2026-03-03T09:30:42.999Z</time>
      </trkpt>
      <trkpt lat="44.83763" lon="6.76715">
        <ele>2557.4</ele>
        <time>2026-03-03T09:30:43.999Z</time>
      </trkpt>
      <trkpt lat="44.83763" lon="6.76715">
        <ele>2557.6</ele>
        <time>2026-03-03T09:30:44.999Z</time>
      </trkpt>
      <trkpt lat="44.83764" lon="6.76716">
        <ele>2558.1</ele>
        <time>2026-03-03T09:30:45.999Z</time>
      </trkpt>
      <trkpt lat="44.83765" lon="6.76716">
        <ele>2558.5</ele>
        <time>2026-03-03T09:30:46.999Z</time>
      </trkpt>
      <trkpt lat="44.83766" lon="6.76717">
        <ele>2558.8</ele>
        <time>2026-03-03T09:30:47.999Z</time>
      </trkpt>
      <trkpt lat="44.83766" lon="6.76718">
        <ele>2558.9</ele>
        <time>2026-03-03T09:30:48.999Z</time>
      </trkpt>
      <trkpt lat="44.83767" lon="6.76718">
        <ele>2559</ele>
        <time>2026-03-03T09:30:49.999Z</time>
      </trkpt>
      <trkpt lat="44.83767" lon="6.76719">
        <ele>2559.1</ele>
        <time>2026-03-03T09:30:50.999Z</time>
      </trkpt>
      <trkpt lat="44.83768" lon="6.76719">
        <ele>2559.4</ele>
        <time>2026-03-03T09:30:51.999Z</time>
      </trkpt>
      <trkpt lat="44.83769" lon="6.76719">
        <ele>2559.5</ele>
        <time>2026-03-03T09:30:52.999Z</time>
      </trkpt>
      <trkpt lat="44.8377" lon="6.76719">
        <ele>2559.8</ele>
        <time>2026-03-03T09:30:53.999Z</time>
      </trkpt>
      <trkpt lat="44.8377" lon="6.7672">
        <ele>2560</ele>
        <time>2026-03-03T09:30:54.999Z</time>
      </trkpt>
      <trkpt lat="44.83771" lon="6.7672">
        <ele>2560</ele>
        <time>2026-03-03T09:30:55.999Z</time>
      </trkpt>
      <trkpt lat="44.83772" lon="6.76721">
        <ele>2560.1</ele>
        <time>2026-03-03T09:30:56.999Z</time>
      </trkpt>
      <trkpt lat="44.83773" lon="6.76721">
        <ele>2560</ele>
        <time>2026-03-03T09:30:57.999Z</time>
      </trkpt>
      <trkpt lat="44.83773" lon="6.76721">
        <ele>2559.9</ele>
        <time>2026-03-03T09:30:58.999Z</time>
      </trkpt>
      <trkpt lat="44.83773" lon="6.76721">
        <ele>2560.5</ele>
        <time>2026-03-03T09:30:59.999Z</time>
      </trkpt>
      <trkpt lat="44.83773" lon="6.76721">
        <ele>2560.9</ele>
        <time>2026-03-03T09:31:00.999Z</time>
      </trkpt>
      <trkpt lat="44.83774" lon="6.76721">
        <ele>2561.1</ele>
        <time>2026-03-03T09:31:01.999Z</time>
      </trkpt>
      <trkpt lat="44.83774" lon="6.76721">
        <ele>2561.7</ele>
        <time>2026-03-03T09:31:02.999Z</time>
      </trkpt>
      <trkpt lat="44.83774" lon="6.76721">
        <ele>2562.2</ele>
        <time>2026-03-03T09:31:03.999Z</time>
      </trkpt>
      <trkpt lat="44.83774" lon="6.76721">
        <ele>2562.5</ele>
        <time>2026-03-03T09:31:04.999Z</time>
      </trkpt>
      <trkpt lat="44.83774" lon="6.76721">
        <ele>2562.7</ele>
        <time>2026-03-03T09:31:05.999Z</time>
      </trkpt>
      <trkpt lat="44.83775" lon="6.76722">
        <ele>2562.5</ele>
        <time>2026-03-03T09:31:06.999Z</time>
      </trkpt>
      <trkpt lat="44.83776" lon="6.76722">
        <ele>2562.6</ele>
        <time>2026-03-03T09:31:07.999Z</time>
      </trkpt>
      <trkpt lat="44.83777" lon="6.76723">
        <ele>2562.8</ele>
        <time>2026-03-03T09:31:08.999Z</time>
      </trkpt>
      <trkpt lat="44.83777" lon="6.76723">
        <ele>2562.7</ele>
        <time>2026-03-03T09:31:09.999Z</time>
      </trkpt>
      <trkpt lat="44.83778" lon="6.76724">
        <ele>2562.9</ele>
        <time>2026-03-03T09:31:10.999Z</time>
      </trkpt>
      <trkpt lat="44.83778" lon="6.76724">
        <ele>2562.8</ele>
        <time>2026-03-03T09:31:11.999Z</time>
      </trkpt>
      <trkpt lat="44.83779" lon="6.76724">
        <ele>2562.7</ele>
        <time>2026-03-03T09:31:12.999Z</time>
      </trkpt>
      <trkpt lat="44.8378" lon="6.76725">
        <ele>2562.5</ele>
        <time>2026-03-03T09:31:13.999Z</time>
      </trkpt>
      <trkpt lat="44.8378" lon="6.76725">
        <ele>2562.1</ele>
        <time>2026-03-03T09:31:14.999Z</time>
      </trkpt>
      <trkpt lat="44.83781" lon="6.76725">
        <ele>2562.2</ele>
        <time>2026-03-03T09:31:15.999Z</time>
      </trkpt>
      <trkpt lat="44.83781" lon="6.76725">
        <ele>2562</ele>
        <time>2026-03-03T09:31:16.999Z</time>
      </trkpt>
      <trkpt lat="44.83782" lon="6.76725">
        <ele>2562</ele>
        <time>2026-03-03T09:31:17.999Z</time>
      </trkpt>
      <trkpt lat="44.83782" lon="6.76725">
        <ele>2562.3</ele>
        <time>2026-03-03T09:31:18.999Z</time>
      </trkpt>
      <trkpt lat="44.83782" lon="6.76725">
        <ele>2562.4</ele>
        <time>2026-03-03T09:31:19.999Z</time>
      </trkpt>
      <trkpt lat="44.83782" lon="6.76726">
        <ele>2562.3</ele>
        <time>2026-03-03T09:31:20.999Z</time>
      </trkpt>
      <trkpt lat="44.83783" lon="6.76726">
        <ele>2562.3</ele>
        <time>2026-03-03T09:31:21.999Z</time>
      </trkpt>
      <trkpt lat="44.83783" lon="6.76726">
        <ele>2562.4</ele>
        <time>2026-03-03T09:31:22.999Z</time>
      </trkpt>
      <trkpt lat="44.83783" lon="6.76727">
        <ele>2562.6</ele>
        <time>2026-03-03T09:31:23.999Z</time>
      </trkpt>
      <trkpt lat="44.83784" lon="6.76727">
        <ele>2562.8</ele>
        <time>2026-03-03T09:31:24.999Z</time>
      </trkpt>
      <trkpt lat="44.83785" lon="6.76728">
        <ele>2562.8</ele>
        <time>2026-03-03T09:31:25.999Z</time>
      </trkpt>
      <trkpt lat="44.83786" lon="6.76728">
        <ele>2562.8</ele>
        <time>2026-03-03T09:31:26.999Z</time>
      </trkpt>
      <trkpt lat="44.83786" lon="6.76729">
        <ele>2562.6</ele>
        <time>2026-03-03T09:31:27.999Z</time>
      </trkpt>
      <trkpt lat="44.83787" lon="6.76729">
        <ele>2562.8</ele>
        <time>2026-03-03T09:31:28.999Z</time>
      </trkpt>
      <trkpt lat="44.83788" lon="6.7673">
        <ele>2562.8</ele>
        <time>2026-03-03T09:31:29.999Z</time>
      </trkpt>
      <trkpt lat="44.83789" lon="6.7673">
        <ele>2562.9</ele>
        <time>2026-03-03T09:31:30.999Z</time>
      </trkpt>
      <trkpt lat="44.83789" lon="6.7673">
        <ele>2562.5</ele>
        <time>2026-03-03T09:31:31.999Z</time>
      </trkpt>
      <trkpt lat="44.8379" lon="6.76731">
        <ele>2562.2</ele>
        <time>2026-03-03T09:31:32.999Z</time>
      </trkpt>
      <trkpt lat="44.83791" lon="6.76731">
        <ele>2561.9</ele>
        <time>2026-03-03T09:31:33.999Z</time>
      </trkpt>
      <trkpt lat="44.83791" lon="6.76731">
        <ele>2561.6</ele>
        <time>2026-03-03T09:31:34.999Z</time>
      </trkpt>
      <trkpt lat="44.83792" lon="6.76731">
        <ele>2561.6</ele>
        <time>2026-03-03T09:31:35.999Z</time>
      </trkpt>
      <trkpt lat="44.83794" lon="6.7673">
        <ele>2562.1</ele>
        <time>2026-03-03T09:32:00.999Z</time>
      </trkpt>
      <trkpt lat="44.83795" lon="6.7673">
        <ele>2561.9</ele>
        <time>2026-03-03T09:32:01.999Z</time>
      </trkpt>
      <trkpt lat="44.83795" lon="6.7673">
        <ele>2561.6</ele>
        <time>2026-03-03T09:32:02.999Z</time>
      </trkpt>
      <trkpt lat="44.83796" lon="6.7673">
        <ele>2561.4</ele>
        <time>2026-03-03T09:32:03.999Z</time>
      </trkpt>
      <trkpt lat="44.83797" lon="6.7673">
        <ele>2561.5</ele>
        <time>2026-03-03T09:32:04.999Z</time>
      </trkpt>
      <trkpt lat="44.83798" lon="6.76729">
        <ele>2561.6</ele>
        <time>2026-03-03T09:32:05.999Z</time>
      </trkpt>
      <trkpt lat="44.83798" lon="6.76729">
        <ele>2561.7</ele>
        <time>2026-03-03T09:32:06.999Z</time>
      </trkpt>
      <trkpt lat="44.83798" lon="6.76728">
        <ele>2562</ele>
        <time>2026-03-03T09:32:07.999Z</time>
      </trkpt>
      <trkpt lat="44.83798" lon="6.76728">
        <ele>2562.4</ele>
        <time>2026-03-03T09:32:08.999Z</time>
      </trkpt>
      <trkpt lat="44.83798" lon="6.76728">
        <ele>2562.5</ele>
        <time>2026-03-03T09:32:09.999Z</time>
      </trkpt>
      <trkpt lat="44.83799" lon="6.76727">
        <ele>2562.6</ele>
        <time>2026-03-03T09:32:10.999Z</time>
      </trkpt>
      <trkpt lat="44.83799" lon="6.76727">
        <ele>2562.8</ele>
        <time>2026-03-03T09:32:11.999Z</time>
      </trkpt>
      <trkpt lat="44.83799" lon="6.76727">
        <ele>2563</ele>
        <time>2026-03-03T09:32:12.999Z</time>
      </trkpt>
      <trkpt lat="44.83799" lon="6.76727">
        <ele>2563</ele>
        <time>2026-03-03T09:32:13.999Z</time>
      </trkpt>
      <trkpt lat="44.838" lon="6.76727">
        <ele>2562.9</ele>
        <time>2026-03-03T09:32:14.999Z</time>
      </trkpt>
      <trkpt lat="44.838" lon="6.76727">
        <ele>2563</ele>
        <time>2026-03-03T09:32:15.999Z</time>
      </trkpt>
      <trkpt lat="44.83801" lon="6.76727">
        <ele>2562.8</ele>
        <time>2026-03-03T09:32:16.999Z</time>
      </trkpt>
      <trkpt lat="44.83802" lon="6.76726">
        <ele>2562.8</ele>
        <time>2026-03-03T09:32:17.999Z</time>
      </trkpt>
      <trkpt lat="44.83803" lon="6.76726">
        <ele>2563</ele>
        <time>2026-03-03T09:32:18.999Z</time>
      </trkpt>
      <trkpt lat="44.83804" lon="6.76726">
        <ele>2563.3</ele>
        <time>2026-03-03T09:32:19.999Z</time>
      </trkpt>
      <trkpt lat="44.83805" lon="6.76726">
        <ele>2563.1</ele>
        <time>2026-03-03T09:32:20.999Z</time>
      </trkpt>
      <trkpt lat="44.83806" lon="6.76726">
        <ele>2563</ele>
        <time>2026-03-03T09:32:21.999Z</time>
      </trkpt>
      <trkpt lat="44.83806" lon="6.76726">
        <ele>2563.1</ele>
        <time>2026-03-03T09:32:22.999Z</time>
      </trkpt>
      <trkpt lat="44.83806" lon="6.76726">
        <ele>2562.7</ele>
        <time>2026-03-03T09:32:23.999Z</time>
      </trkpt>
      <trkpt lat="44.83807" lon="6.76726">
        <ele>2562.3</ele>
        <time>2026-03-03T09:32:24.999Z</time>
      </trkpt>
      <trkpt lat="44.83807" lon="6.76726">
        <ele>2562.3</ele>
        <time>2026-03-03T09:32:25.999Z</time>
      </trkpt>
      <trkpt lat="44.83808" lon="6.76726">
        <ele>2562.6</ele>
        <time>2026-03-03T09:32:26.999Z</time>
      </trkpt>
      <trkpt lat="44.83809" lon="6.76726">
        <ele>2562.9</ele>
        <time>2026-03-03T09:32:27.999Z</time>
      </trkpt>
      <trkpt lat="44.8381" lon="6.76725">
        <ele>2562.9</ele>
        <time>2026-03-03T09:32:28.999Z</time>
      </trkpt>
      <trkpt lat="44.83811" lon="6.76725">
        <ele>2562.3</ele>
        <time>2026-03-03T09:32:29.999Z</time>
      </trkpt>
      <trkpt lat="44.83812" lon="6.76725">
        <ele>2562.3</ele>
        <time>2026-03-03T09:32:30.999Z</time>
      </trkpt>
      <trkpt lat="44.83812" lon="6.76725">
        <ele>2562.5</ele>
        <time>2026-03-03T09:32:31.999Z</time>
      </trkpt>
      <trkpt lat="44.83811" lon="6.76725">
        <ele>2563.2</ele>
        <time>2026-03-03T09:32:32.999Z</time>
      </trkpt>
      <trkpt lat="44.83811" lon="6.76725">
        <ele>2563.1</ele>
        <time>2026-03-03T09:32:33.999Z</time>
      </trkpt>
      <trkpt lat="44.83812" lon="6.76725">
        <ele>2563.3</ele>
        <time>2026-03-03T09:32:34.999Z</time>
      </trkpt>
      <trkpt lat="44.83813" lon="6.76726">
        <ele>2563.8</ele>
        <time>2026-03-03T09:32:35.999Z</time>
      </trkpt>
      <trkpt lat="44.83814" lon="6.76726">
        <ele>2564.2</ele>
        <time>2026-03-03T09:32:36.999Z</time>
      </trkpt>
      <trkpt lat="44.83814" lon="6.76726">
        <ele>2564.6</ele>
        <time>2026-03-03T09:32:37.999Z</time>
      </trkpt>
      <trkpt lat="44.83815" lon="6.76727">
        <ele>2564.8</ele>
        <time>2026-03-03T09:32:38.999Z</time>
      </trkpt>
      <trkpt lat="44.83816" lon="6.76727">
        <ele>2564.8</ele>
        <time>2026-03-03T09:32:39.999Z</time>
      </trkpt>
      <trkpt lat="44.83816" lon="6.76728">
        <ele>2564.7</ele>
        <time>2026-03-03T09:32:40.999Z</time>
      </trkpt>
      <trkpt lat="44.83816" lon="6.76728">
        <ele>2564.7</ele>
        <time>2026-03-03T09:32:41.999Z</time>
      </trkpt>
      <trkpt lat="44.83817" lon="6.76728">
        <ele>2564.6</ele>
        <time>2026-03-03T09:32:42.999Z</time>
      </trkpt>
      <trkpt lat="44.83817" lon="6.76728">
        <ele>2564.6</ele>
        <time>2026-03-03T09:32:43.999Z</time>
      </trkpt>
      <trkpt lat="44.83818" lon="6.76729">
        <ele>2564.7</ele>
        <time>2026-03-03T09:32:44.999Z</time>
      </trkpt>
      <trkpt lat="44.83822" lon="6.7673">
        <ele>2568.4</ele>
        <time>2026-03-03T09:32:57.999Z</time>
      </trkpt>
      <trkpt lat="44.83822" lon="6.7673">
        <ele>2568.6</ele>
        <time>2026-03-03T09:32:58.999Z</time>
      </trkpt>
      <trkpt lat="44.83823" lon="6.7673">
        <ele>2569.1</ele>
        <time>2026-03-03T09:32:59.999Z</time>
      </trkpt>
      <trkpt lat="44.83823" lon="6.7673">
        <ele>2569.3</ele>
        <time>2026-03-03T09:33:00.999Z</time>
      </trkpt>
      <trkpt lat="44.83823" lon="6.76731">
        <ele>2569.4</ele>
        <time>2026-03-03T09:33:01.999Z</time>
      </trkpt>
      <trkpt lat="44.83823" lon="6.7673">
        <ele>2570.1</ele>
        <time>2026-03-03T09:33:02.999Z</time>
      </trkpt>
      <trkpt lat="44.83823" lon="6.7673">
        <ele>2570.4</ele>
        <time>2026-03-03T09:33:03.999Z</time>
      </trkpt>
      <trkpt lat="44.83823" lon="6.7673">
        <ele>2570.8</ele>
        <time>2026-03-03T09:33:04.999Z</time>
      </trkpt>
      <trkpt lat="44.83824" lon="6.76731">
        <ele>2571.1</ele>
        <time>2026-03-03T09:33:05.999Z</time>
      </trkpt>
      <trkpt lat="44.83824" lon="6.76731">
        <ele>2571.4</ele>
        <time>2026-03-03T09:33:06.999Z</time>
      </trkpt>
      <trkpt lat="44.83825" lon="6.76731">
        <ele>2571.4</ele>
        <time>2026-03-03T09:33:07.999Z</time>
      </trkpt>
      <trkpt lat="44.83825" lon="6.76731">
        <ele>2571.6</ele>
        <time>2026-03-03T09:33:08.999Z</time>
      </trkpt>
      <trkpt lat="44.83826" lon="6.76731">
        <ele>2571.7</ele>
        <time>2026-03-03T09:33:09.999Z</time>
      </trkpt>
      <trkpt lat="44.83827" lon="6.76732">
        <ele>2571.6</ele>
        <time>2026-03-03T09:33:10.999Z</time>
      </trkpt>
      <trkpt lat="44.83827" lon="6.76732">
        <ele>2571.6</ele>
        <time>2026-03-03T09:33:11.999Z</time>
      </trkpt>
      <trkpt lat="44.83828" lon="6.76732">
        <ele>2571.7</ele>
        <time>2026-03-03T09:33:12.999Z</time>
      </trkpt>
      <trkpt lat="44.83828" lon="6.76733">
        <ele>2571.9</ele>
        <time>2026-03-03T09:33:13.999Z</time>
      </trkpt>
      <trkpt lat="44.83829" lon="6.76733">
        <ele>2572.2</ele>
        <time>2026-03-03T09:33:14.999Z</time>
      </trkpt>
      <trkpt lat="44.83829" lon="6.76733">
        <ele>2572.4</ele>
        <time>2026-03-03T09:33:15.999Z</time>
      </trkpt>
      <trkpt lat="44.83829" lon="6.76734">
        <ele>2572.6</ele>
        <time>2026-03-03T09:33:16.999Z</time>
      </trkpt>
      <trkpt lat="44.83829" lon="6.76734">
        <ele>2572.8</ele>
        <time>2026-03-03T09:33:17.999Z</time>
      </trkpt>
      <trkpt lat="44.83829" lon="6.76734">
        <ele>2573.2</ele>
        <time>2026-03-03T09:33:18.999Z</time>
      </trkpt>
      <trkpt lat="44.8383" lon="6.76734">
        <ele>2573.2</ele>
        <time>2026-03-03T09:33:19.999Z</time>
      </trkpt>
      <trkpt lat="44.83831" lon="6.76735">
        <ele>2573.5</ele>
        <time>2026-03-03T09:33:20.999Z</time>
      </trkpt>
      <trkpt lat="44.83832" lon="6.76735">
        <ele>2573.6</ele>
        <time>2026-03-03T09:33:21.999Z</time>
      </trkpt>
      <trkpt lat="44.83833" lon="6.76735">
        <ele>2573.8</ele>
        <time>2026-03-03T09:33:22.999Z</time>
      </trkpt>
      <trkpt lat="44.83833" lon="6.76736">
        <ele>2573.9</ele>
        <time>2026-03-03T09:33:23.999Z</time>
      </trkpt>
      <trkpt lat="44.83833" lon="6.76736">
        <ele>2574.1</ele>
        <time>2026-03-03T09:33:24.999Z</time>
      </trkpt>
      <trkpt lat="44.83833" lon="6.76736">
        <ele>2574.1</ele>
        <time>2026-03-03T09:33:25.999Z</time>
      </trkpt>
      <trkpt lat="44.83834" lon="6.76736">
        <ele>2574.2</ele>
        <time>2026-03-03T09:33:26.999Z</time>
      </trkpt>
      <trkpt lat="44.83834" lon="6.76736">
        <ele>2574.3</ele>
        <time>2026-03-03T09:33:27.999Z</time>
      </trkpt>
      <trkpt lat="44.83834" lon="6.76736">
        <ele>2574.5</ele>
        <time>2026-03-03T09:33:28.999Z</time>
      </trkpt>
      <trkpt lat="44.83835" lon="6.76737">
        <ele>2574.6</ele>
        <time>2026-03-03T09:33:29.999Z</time>
      </trkpt>
      <trkpt lat="44.83836" lon="6.76738">
        <ele>2574.5</ele>
        <time>2026-03-03T09:33:30.999Z</time>
      </trkpt>
      <trkpt lat="44.83836" lon="6.76738">
        <ele>2574.7</ele>
        <time>2026-03-03T09:33:31.999Z</time>
      </trkpt>
      <trkpt lat="44.83837" lon="6.76738">
        <ele>2574.9</ele>
        <time>2026-03-03T09:33:32.999Z</time>
      </trkpt>
      <trkpt lat="44.83837" lon="6.76739">
        <ele>2574.9</ele>
        <time>2026-03-03T09:33:33.999Z</time>
      </trkpt>
      <trkpt lat="44.83838" lon="6.76739">
        <ele>2575.1</ele>
        <time>2026-03-03T09:33:34.999Z</time>
      </trkpt>
      <trkpt lat="44.83838" lon="6.76739">
        <ele>2575.2</ele>
        <time>2026-03-03T09:33:35.999Z</time>
      </trkpt>
      <trkpt lat="44.83838" lon="6.76739">
        <ele>2575.4</ele>
        <time>2026-03-03T09:33:36.999Z</time>
      </trkpt>
      <trkpt lat="44.83839" lon="6.7674">
        <ele>2575.4</ele>
        <time>2026-03-03T09:33:37.999Z</time>
      </trkpt>
      <trkpt lat="44.83836" lon="6.76739">
        <ele>2579</ele>
        <time>2026-03-03T09:33:52.999Z</time>
      </trkpt>
      <trkpt lat="44.83835" lon="6.76739">
        <ele>2579.5</ele>
        <time>2026-03-03T09:33:53.999Z</time>
      </trkpt>
      <trkpt lat="44.83833" lon="6.76739">
        <ele>2579.6</ele>
        <time>2026-03-03T09:33:54.999Z</time>
      </trkpt>
      <trkpt lat="44.83832" lon="6.76739">
        <ele>2579.7</ele>
        <time>2026-03-03T09:33:55.999Z</time>
      </trkpt>
      <trkpt lat="44.83832" lon="6.76739">
        <ele>2580</ele>
        <time>2026-03-03T09:33:56.999Z</time>
      </trkpt>
      <trkpt lat="44.83831" lon="6.76739">
        <ele>2580</ele>
        <time>2026-03-03T09:33:57.999Z</time>
      </trkpt>
      <trkpt lat="44.83831" lon="6.76739">
        <ele>2580.2</ele>
        <time>2026-03-03T09:33:58.999Z</time>
      </trkpt>
      <trkpt lat="44.8383" lon="6.7674">
        <ele>2580.1</ele>
        <time>2026-03-03T09:33:59.999Z</time>
      </trkpt>
      <trkpt lat="44.8383" lon="6.7674">
        <ele>2580</ele>
        <time>2026-03-03T09:34:00.999Z</time>
      </trkpt>
      <trkpt lat="44.8383" lon="6.7674">
        <ele>2580</ele>
        <time>2026-03-03T09:34:01.999Z</time>
      </trkpt>
      <trkpt lat="44.83829" lon="6.7674">
        <ele>2580.2</ele>
        <time>2026-03-03T09:34:02.999Z</time>
      </trkpt>
      <trkpt lat="44.83829" lon="6.7674">
        <ele>2580.3</ele>
        <time>2026-03-03T09:34:03.999Z</time>
      </trkpt>
      <trkpt lat="44.83829" lon="6.7674">
        <ele>2580.3</ele>
        <time>2026-03-03T09:34:04.999Z</time>
      </trkpt>
      <trkpt lat="44.83829" lon="6.7674">
        <ele>2580.4</ele>
        <time>2026-03-03T09:34:05.999Z</time>
      </trkpt>
      <trkpt lat="44.83828" lon="6.7674">
        <ele>2580.4</ele>
        <time>2026-03-03T09:34:06.999Z</time>
      </trkpt>
      <trkpt lat="44.83828" lon="6.7674">
        <ele>2580.5</ele>
        <time>2026-03-03T09:34:07.999Z</time>
      </trkpt>
      <trkpt lat="44.83827" lon="6.76741">
        <ele>2580.6</ele>
        <time>2026-03-03T09:34:08.999Z</time>
      </trkpt>
      <trkpt lat="44.83827" lon="6.76741">
        <ele>2580.7</ele>
        <time>2026-03-03T09:34:09.999Z</time>
      </trkpt>
      <trkpt lat="44.83826" lon="6.76741">
        <ele>2580.8</ele>
        <time>2026-03-03T09:34:10.999Z</time>
      </trkpt>
      <trkpt lat="44.83825" lon="6.76742">
        <ele>2581</ele>
        <time>2026-03-03T09:34:11.999Z</time>
      </trkpt>
      <trkpt lat="44.83824" lon="6.76742">
        <ele>2580.9</ele>
        <time>2026-03-03T09:34:12.999Z</time>
      </trkpt>
      <trkpt lat="44.83823" lon="6.76742">
        <ele>2581.2</ele>
        <time>2026-03-03T09:34:13.999Z</time>
      </trkpt>
      <trkpt lat="44.83823" lon="6.76742">
        <ele>2581.2</ele>
        <time>2026-03-03T09:34:14.999Z</time>
      </trkpt>
      <trkpt lat="44.83822" lon="6.76743">
        <ele>2581.3</ele>
        <time>2026-03-03T09:34:15.999Z</time>
      </trkpt>
      <trkpt lat="44.83822" lon="6.76743">
        <ele>2581.5</ele>
        <time>2026-03-03T09:34:16.999Z</time>
      </trkpt>
      <trkpt lat="44.83821" lon="6.76743">
        <ele>2581.8</ele>
        <time>2026-03-03T09:34:17.999Z</time>
      </trkpt>
      <trkpt lat="44.83821" lon="6.76744">
        <ele>2582.1</ele>
        <time>2026-03-03T09:34:18.999Z</time>
      </trkpt>
      <trkpt lat="44.83821" lon="6.76744">
        <ele>2582.2</ele>
        <time>2026-03-03T09:34:19.999Z</time>
      </trkpt>
      <trkpt lat="44.8382" lon="6.76744">
        <ele>2582.4</ele>
        <time>2026-03-03T09:34:20.999Z</time>
      </trkpt>
      <trkpt lat="44.8382" lon="6.76745">
        <ele>2582.6</ele>
        <time>2026-03-03T09:34:21.999Z</time>
      </trkpt>
      <trkpt lat="44.8382" lon="6.76745">
        <ele>2582.8</ele>
        <time>2026-03-03T09:34:22.999Z</time>
      </trkpt>
      <trkpt lat="44.8382" lon="6.76745">
        <ele>2583.1</ele>
        <time>2026-03-03T09:34:23.999Z</time>
      </trkpt>
      <trkpt lat="44.8382" lon="6.76746">
        <ele>2583.2</ele>
        <time>2026-03-03T09:34:24.999Z</time>
      </trkpt>
      <trkpt lat="44.8382" lon="6.76746">
        <ele>2583.5</ele>
        <time>2026-03-03T09:34:25.999Z</time>
      </trkpt>
      <trkpt lat="44.83819" lon="6.76747">
        <ele>2583.5</ele>
        <time>2026-03-03T09:34:26.999Z</time>
      </trkpt>
      <trkpt lat="44.83819" lon="6.76748">
        <ele>2583.7</ele>
        <time>2026-03-03T09:34:27.999Z</time>
      </trkpt>
      <trkpt lat="44.83818" lon="6.76749">
        <ele>2583.8</ele>
        <time>2026-03-03T09:34:28.999Z</time>
      </trkpt>
      <trkpt lat="44.83818" lon="6.7675">
        <ele>2583.8</ele>
        <time>2026-03-03T09:34:29.999Z</time>
      </trkpt>
      <trkpt lat="44.83818" lon="6.7675">
        <ele>2583.8</ele>
        <time>2026-03-03T09:34:30.999Z</time>
      </trkpt>
      <trkpt lat="44.83818" lon="6.7675">
        <ele>2584</ele>
        <time>2026-03-03T09:34:31.999Z</time>
      </trkpt>
      <trkpt lat="44.83817" lon="6.7675">
        <ele>2584.1</ele>
        <time>2026-03-03T09:34:32.999Z</time>
      </trkpt>
      <trkpt lat="44.83817" lon="6.7675">
        <ele>2585.3</ele>
        <time>2026-03-03T09:34:33.999Z</time>
      </trkpt>
      <trkpt lat="44.83817" lon="6.76751">
        <ele>2586</ele>
        <time>2026-03-03T09:34:34.999Z</time>
      </trkpt>
      <trkpt lat="44.83817" lon="6.76752">
        <ele>2586.4</ele>
        <time>2026-03-03T09:34:35.999Z</time>
      </trkpt>
      <trkpt lat="44.83816" lon="6.76753">
        <ele>2586.9</ele>
        <time>2026-03-03T09:34:36.999Z</time>
      </trkpt>
      <trkpt lat="44.83816" lon="6.76754">
        <ele>2587.4</ele>
        <time>2026-03-03T09:34:37.999Z</time>
      </trkpt>
      <trkpt lat="44.83815" lon="6.76755">
        <ele>2587.9</ele>
        <time>2026-03-03T09:34:38.999Z</time>
      </trkpt>
      <trkpt lat="44.83815" lon="6.76756">
        <ele>2588.2</ele>
        <time>2026-03-03T09:34:39.999Z</time>
      </trkpt>
      <trkpt lat="44.83815" lon="6.76756">
        <ele>2588.6</ele>
        <time>2026-03-03T09:34:40.999Z</time>
      </trkpt>
      <trkpt lat="44.83817" lon="6.76758">
        <ele>2592.9</ele>
        <time>2026-03-03T09:35:03.999Z</time>
      </trkpt>
      <trkpt lat="44.83817" lon="6.76758">
        <ele>2593</ele>
        <time>2026-03-03T09:35:04.999Z</time>
      </trkpt>
      <trkpt lat="44.83819" lon="6.76758">
        <ele>2593.3</ele>
        <time>2026-03-03T09:35:05.999Z</time>
      </trkpt>
      <trkpt lat="44.83819" lon="6.76757">
        <ele>2593.5</ele>
        <time>2026-03-03T09:35:06.999Z</time>
      </trkpt>
      <trkpt lat="44.8382" lon="6.76757">
        <ele>2593.8</ele>
        <time>2026-03-03T09:35:07.999Z</time>
      </trkpt>
      <trkpt lat="44.83821" lon="6.76757">
        <ele>2594.1</ele>
        <time>2026-03-03T09:35:08.999Z</time>
      </trkpt>
      <trkpt lat="44.83821" lon="6.76757">
        <ele>2594.3</ele>
        <time>2026-03-03T09:35:09.999Z</time>
      </trkpt>
      <trkpt lat="44.83821" lon="6.76757">
        <ele>2594.6</ele>
        <time>2026-03-03T09:35:10.999Z</time>
      </trkpt>
      <trkpt lat="44.83821" lon="6.76757">
        <ele>2594.9</ele>
        <time>2026-03-03T09:35:11.999Z</time>
      </trkpt>
      <trkpt lat="44.83822" lon="6.76757">
        <ele>2595.1</ele>
        <time>2026-03-03T09:35:12.999Z</time>
      </trkpt>
      <trkpt lat="44.83823" lon="6.76757">
        <ele>2595.3</ele>
        <time>2026-03-03T09:35:13.999Z</time>
      </trkpt>
      <trkpt lat="44.83823" lon="6.76757">
        <ele>2595.5</ele>
        <time>2026-03-03T09:35:14.999Z</time>
      </trkpt>
      <trkpt lat="44.83823" lon="6.76757">
        <ele>2595.8</ele>
        <time>2026-03-03T09:35:15.999Z</time>
      </trkpt>
      <trkpt lat="44.83823" lon="6.76757">
        <ele>2596.1</ele>
        <time>2026-03-03T09:35:16.999Z</time>
      </trkpt>
      <trkpt lat="44.83824" lon="6.76758">
        <ele>2596.4</ele>
        <time>2026-03-03T09:35:17.999Z</time>
      </trkpt>
      <trkpt lat="44.83824" lon="6.76758">
        <ele>2596.6</ele>
        <time>2026-03-03T09:35:18.999Z</time>
      </trkpt>
      <trkpt lat="44.83825" lon="6.76758">
        <ele>2597</ele>
        <time>2026-03-03T09:35:19.999Z</time>
      </trkpt>
      <trkpt lat="44.83826" lon="6.76758">
        <ele>2597.2</ele>
        <time>2026-03-03T09:35:20.999Z</time>
      </trkpt>
      <trkpt lat="44.83826" lon="6.76758">
        <ele>2597.3</ele>
        <time>2026-03-03T09:35:21.999Z</time>
      </trkpt>
      <trkpt lat="44.83829" lon="6.76761">
        <ele>2598.9</ele>
        <time>2026-03-03T09:35:44.999Z</time>
      </trkpt>
      <trkpt lat="44.8383" lon="6.76762">
        <ele>2598.9</ele>
        <time>2026-03-03T09:35:45.999Z</time>
      </trkpt>
      <trkpt lat="44.83831" lon="6.76762">
        <ele>2599</ele>
        <time>2026-03-03T09:35:46.999Z</time>
      </trkpt>
      <trkpt lat="44.83831" lon="6.76762">
        <ele>2599.1</ele>
        <time>2026-03-03T09:35:47.999Z</time>
      </trkpt>
      <trkpt lat="44.83831" lon="6.76763">
        <ele>2598.7</ele>
        <time>2026-03-03T09:35:48.999Z</time>
      </trkpt>
      <trkpt lat="44.83833" lon="6.76767">
        <ele>2599.7</ele>
        <time>2026-03-03T09:36:30.999Z</time>
      </trkpt>
      <trkpt lat="44.83832" lon="6.76768">
        <ele>2600.1</ele>
        <time>2026-03-03T09:36:31.999Z</time>
      </trkpt>
      <trkpt lat="44.83832" lon="6.76768">
        <ele>2600.3</ele>
        <time>2026-03-03T09:36:32.999Z</time>
      </trkpt>
      <trkpt lat="44.83832" lon="6.76768">
        <ele>2600.4</ele>
        <time>2026-03-03T09:36:33.999Z</time>
      </trkpt>
      <trkpt lat="44.83831" lon="6.76768">
        <ele>2600.6</ele>
        <time>2026-03-03T09:36:34.999Z</time>
      </trkpt>
      <trkpt lat="44.83831" lon="6.76768">
        <ele>2600.6</ele>
        <time>2026-03-03T09:36:35.999Z</time>
      </trkpt>
      <trkpt lat="44.83831" lon="6.76768">
        <ele>2600.6</ele>
        <time>2026-03-03T09:36:36.999Z</time>
      </trkpt>
      <trkpt lat="44.83831" lon="6.76769">
        <ele>2600.7</ele>
        <time>2026-03-03T09:36:37.999Z</time>
      </trkpt>
      <trkpt lat="44.8383" lon="6.7677">
        <ele>2600.7</ele>
        <time>2026-03-03T09:36:38.999Z</time>
      </trkpt>
      <trkpt lat="44.83829" lon="6.76771">
        <ele>2600.7</ele>
        <time>2026-03-03T09:36:39.999Z</time>
      </trkpt>
      <trkpt lat="44.83829" lon="6.76772">
        <ele>2600.6</ele>
        <time>2026-03-03T09:36:40.999Z</time>
      </trkpt>
      <trkpt lat="44.83828" lon="6.76772">
        <ele>2600.6</ele>
        <time>2026-03-03T09:36:41.999Z</time>
      </trkpt>
      <trkpt lat="44.83828" lon="6.76773">
        <ele>2600.7</ele>
        <time>2026-03-03T09:36:42.999Z</time>
      </trkpt>
      <trkpt lat="44.83828" lon="6.76774">
        <ele>2600.7</ele>
        <time>2026-03-03T09:36:43.999Z</time>
      </trkpt>
      <trkpt lat="44.83828" lon="6.76774">
        <ele>2600.7</ele>
        <time>2026-03-03T09:36:44.999Z</time>
      </trkpt>
      <trkpt lat="44.83827" lon="6.76775">
        <ele>2600.7</ele>
        <time>2026-03-03T09:36:45.999Z</time>
      </trkpt>
      <trkpt lat="44.83827" lon="6.76776">
        <ele>2600.7</ele>
        <time>2026-03-03T09:36:46.999Z</time>
      </trkpt>
      <trkpt lat="44.83826" lon="6.76777">
        <ele>2600.6</ele>
        <time>2026-03-03T09:36:47.999Z</time>
      </trkpt>
      <trkpt lat="44.83826" lon="6.76778">
        <ele>2600.5</ele>
        <time>2026-03-03T09:36:48.999Z</time>
      </trkpt>
      <trkpt lat="44.83826" lon="6.76778">
        <ele>2600.4</ele>
        <time>2026-03-03T09:36:49.999Z</time>
      </trkpt>
      <trkpt lat="44.83825" lon="6.76779">
        <ele>2600.3</ele>
        <time>2026-03-03T09:36:50.999Z</time>
      </trkpt>
      <trkpt lat="44.83825" lon="6.7678">
        <ele>2600.2</ele>
        <time>2026-03-03T09:36:51.999Z</time>
      </trkpt>
      <trkpt lat="44.83825" lon="6.7678">
        <ele>2600.2</ele>
        <time>2026-03-03T09:36:52.999Z</time>
      </trkpt>
      <trkpt lat="44.83825" lon="6.7678">
        <ele>2600.1</ele>
        <time>2026-03-03T09:36:53.999Z</time>
      </trkpt>
      <trkpt lat="44.83824" lon="6.76781">
        <ele>2600</ele>
        <time>2026-03-03T09:36:54.999Z</time>
      </trkpt>
      <trkpt lat="44.83824" lon="6.76782">
        <ele>2600</ele>
        <time>2026-03-03T09:36:55.999Z</time>
      </trkpt>
      <trkpt lat="44.83823" lon="6.76783">
        <ele>2600.1</ele>
        <time>2026-03-03T09:36:56.999Z</time>
      </trkpt>
      <trkpt lat="44.83823" lon="6.76784">
        <ele>2600.3</ele>
        <time>2026-03-03T09:36:57.999Z</time>
      </trkpt>
      <trkpt lat="44.83823" lon="6.76784">
        <ele>2600.5</ele>
        <time>2026-03-03T09:36:58.999Z</time>
      </trkpt>
      <trkpt lat="44.83822" lon="6.76785">
        <ele>2600.6</ele>
        <time>2026-03-03T09:36:59.999Z</time>
      </trkpt>
      <trkpt lat="44.83822" lon="6.76785">
        <ele>2600.6</ele>
        <time>2026-03-03T09:37:00.999Z</time>
      </trkpt>
      <trkpt lat="44.83822" lon="6.76785">
        <ele>2600.7</ele>
        <time>2026-03-03T09:37:01.999Z</time>
      </trkpt>
      <trkpt lat="44.83822" lon="6.76786">
        <ele>2600.8</ele>
        <time>2026-03-03T09:37:02.999Z</time>
      </trkpt>
      <trkpt lat="44.83822" lon="6.76787">
        <ele>2600.9</ele>
        <time>2026-03-03T09:37:03.999Z</time>
      </trkpt>
      <trkpt lat="44.83821" lon="6.76788">
        <ele>2601.1</ele>
        <time>2026-03-03T09:37:04.999Z</time>
      </trkpt>
      <trkpt lat="44.83821" lon="6.76788">
        <ele>2601.2</ele>
        <time>2026-03-03T09:37:05.999Z</time>
      </trkpt>
      <trkpt lat="44.83821" lon="6.76788">
        <ele>2601.3</ele>
        <time>2026-03-03T09:37:06.999Z</time>
      </trkpt>
      <trkpt lat="44.83821" lon="6.76788">
        <ele>2601.3</ele>
        <time>2026-03-03T09:37:07.999Z</time>
      </trkpt>
      <trkpt lat="44.83821" lon="6.76789">
        <ele>2601.2</ele>
        <time>2026-03-03T09:37:08.999Z</time>
      </trkpt>
      <trkpt lat="44.83821" lon="6.7679">
        <ele>2601.3</ele>
        <time>2026-03-03T09:37:09.999Z</time>
      </trkpt>
      <trkpt lat="44.8382" lon="6.7679">
        <ele>2601.3</ele>
        <time>2026-03-03T09:37:10.999Z</time>
      </trkpt>
      <trkpt lat="44.8382" lon="6.76791">
        <ele>2601.2</ele>
        <time>2026-03-03T09:37:11.999Z</time>
      </trkpt>
      <trkpt lat="44.83825" lon="6.7679">
        <ele>2606.3</ele>
        <time>2026-03-03T09:37:44.999Z</time>
      </trkpt>
      <trkpt lat="44.83826" lon="6.7679">
        <ele>2606.6</ele>
        <time>2026-03-03T09:37:45.999Z</time>
      </trkpt>
      <trkpt lat="44.83827" lon="6.7679">
        <ele>2607</ele>
        <time>2026-03-03T09:37:46.999Z</time>
      </trkpt>
      <trkpt lat="44.83827" lon="6.7679">
        <ele>2607.3</ele>
        <time>2026-03-03T09:37:47.999Z</time>
      </trkpt>
      <trkpt lat="44.83828" lon="6.7679">
        <ele>2607.5</ele>
        <time>2026-03-03T09:37:48.999Z</time>
      </trkpt>
      <trkpt lat="44.83829" lon="6.7679">
        <ele>2607.6</ele>
        <time>2026-03-03T09:37:49.999Z</time>
      </trkpt>
      <trkpt lat="44.8383" lon="6.7679">
        <ele>2607.7</ele>
        <time>2026-03-03T09:37:50.999Z</time>
      </trkpt>
      <trkpt lat="44.83831" lon="6.7679">
        <ele>2608.1</ele>
        <time>2026-03-03T09:37:51.999Z</time>
      </trkpt>
      <trkpt lat="44.83831" lon="6.7679">
        <ele>2608.3</ele>
        <time>2026-03-03T09:37:52.999Z</time>
      </trkpt>
      <trkpt lat="44.83832" lon="6.76791">
        <ele>2608.4</ele>
        <time>2026-03-03T09:37:53.999Z</time>
      </trkpt>
      <trkpt lat="44.83832" lon="6.76791">
        <ele>2608.5</ele>
        <time>2026-03-03T09:37:54.999Z</time>
      </trkpt>
      <trkpt lat="44.83833" lon="6.76791">
        <ele>2608.6</ele>
        <time>2026-03-03T09:37:55.999Z</time>
      </trkpt>
      <trkpt lat="44.83833" lon="6.76791">
        <ele>2608.7</ele>
        <time>2026-03-03T09:37:56.999Z</time>
      </trkpt>
      <trkpt lat="44.83833" lon="6.76791">
        <ele>2608.7</ele>
        <time>2026-03-03T09:37:57.999Z</time>
      </trkpt>
      <trkpt lat="44.83833" lon="6.76791">
        <ele>2608.8</ele>
        <time>2026-03-03T09:37:58.999Z</time>
      </trkpt>
      <trkpt lat="44.83833" lon="6.76791">
        <ele>2608.8</ele>
        <time>2026-03-03T09:37:59.999Z</time>
      </trkpt>
      <trkpt lat="44.83834" lon="6.76792">
        <ele>2608.8</ele>
        <time>2026-03-03T09:38:00.999Z</time>
      </trkpt>
      <trkpt lat="44.83834" lon="6.76792">
        <ele>2608.8</ele>
        <time>2026-03-03T09:38:01.999Z</time>
      </trkpt>
      <trkpt lat="44.83835" lon="6.76793">
        <ele>2608.8</ele>
        <time>2026-03-03T09:38:02.999Z</time>
      </trkpt>
      <trkpt lat="44.83835" lon="6.76793">
        <ele>2608.8</ele>
        <time>2026-03-03T09:38:03.999Z</time>
      </trkpt>
      <trkpt lat="44.83835" lon="6.76793">
        <ele>2608.8</ele>
        <time>2026-03-03T09:38:04.999Z</time>
      </trkpt>
      <trkpt lat="44.83836" lon="6.76793">
        <ele>2608.9</ele>
        <time>2026-03-03T09:38:05.999Z</time>
      </trkpt>
      <trkpt lat="44.83836" lon="6.76793">
        <ele>2608.9</ele>
        <time>2026-03-03T09:38:06.999Z</time>
      </trkpt>
      <trkpt lat="44.83836" lon="6.76793">
        <ele>2609</ele>
        <time>2026-03-03T09:38:07.999Z</time>
      </trkpt>
      <trkpt lat="44.83836" lon="6.76794">
        <ele>2609.5</ele>
        <time>2026-03-03T09:38:08.999Z</time>
      </trkpt>
      <trkpt lat="44.83837" lon="6.76794">
        <ele>2610</ele>
        <time>2026-03-03T09:38:09.999Z</time>
      </trkpt>
      <trkpt lat="44.83838" lon="6.76795">
        <ele>2610.5</ele>
        <time>2026-03-03T09:38:10.999Z</time>
      </trkpt>
      <trkpt lat="44.83839" lon="6.76795">
        <ele>2610.9</ele>
        <time>2026-03-03T09:38:11.999Z</time>
      </trkpt>
      <trkpt lat="44.83841" lon="6.76796">
        <ele>2611</ele>
        <time>2026-03-03T09:38:12.999Z</time>
      </trkpt>
      <trkpt lat="44.83842" lon="6.76797">
        <ele>2611</ele>
        <time>2026-03-03T09:38:13.999Z</time>
      </trkpt>
      <trkpt lat="44.83842" lon="6.76797">
        <ele>2611.1</ele>
        <time>2026-03-03T09:38:14.999Z</time>
      </trkpt>
      <trkpt lat="44.83842" lon="6.76797">
        <ele>2611.2</ele>
        <time>2026-03-03T09:38:15.999Z</time>
      </trkpt>
      <trkpt lat="44.83843" lon="6.76797">
        <ele>2611.3</ele>
        <time>2026-03-03T09:38:16.999Z</time>
      </trkpt>
      <trkpt lat="44.83844" lon="6.76798">
        <ele>2611.7</ele>
        <time>2026-03-03T09:38:17.999Z</time>
      </trkpt>
      <trkpt lat="44.83845" lon="6.76798">
        <ele>2612.1</ele>
        <time>2026-03-03T09:38:18.999Z</time>
      </trkpt>
      <trkpt lat="44.83845" lon="6.76799">
        <ele>2612</ele>
        <time>2026-03-03T09:38:19.999Z</time>
      </trkpt>
      <trkpt lat="44.83845" lon="6.76799">
        <ele>2611.8</ele>
        <time>2026-03-03T09:38:20.999Z</time>
      </trkpt>
      <trkpt lat="44.83846" lon="6.76799">
        <ele>2611.7</ele>
        <time>2026-03-03T09:38:21.999Z</time>
      </trkpt>
      <trkpt lat="44.83846" lon="6.768">
        <ele>2611.7</ele>
        <time>2026-03-03T09:38:22.999Z</time>
      </trkpt>
      <trkpt lat="44.83847" lon="6.76801">
        <ele>2611.6</ele>
        <time>2026-03-03T09:38:23.999Z</time>
      </trkpt>
      <trkpt lat="44.83847" lon="6.76801">
        <ele>2611.6</ele>
        <time>2026-03-03T09:38:24.999Z</time>
      </trkpt>
      <trkpt lat="44.83848" lon="6.76802">
        <ele>2611.8</ele>
        <time>2026-03-03T09:38:25.999Z</time>
      </trkpt>
      <trkpt lat="44.83848" lon="6.76802">
        <ele>2612</ele>
        <time>2026-03-03T09:38:26.999Z</time>
      </trkpt>
      <trkpt lat="44.83848" lon="6.76802">
        <ele>2612.1</ele>
        <time>2026-03-03T09:38:27.999Z</time>
      </trkpt>
      <trkpt lat="44.83848" lon="6.76802">
        <ele>2612.3</ele>
        <time>2026-03-03T09:38:28.999Z</time>
      </trkpt>
      <trkpt lat="44.83848" lon="6.76802">
        <ele>2612.3</ele>
        <time>2026-03-03T09:38:29.999Z</time>
      </trkpt>
      <trkpt lat="44.83848" lon="6.76802">
        <ele>2612.2</ele>
        <time>2026-03-03T09:38:30.999Z</time>
      </trkpt>
      <trkpt lat="44.83848" lon="6.76803">
        <ele>2612.1</ele>
        <time>2026-03-03T09:38:31.999Z</time>
      </trkpt>
      <trkpt lat="44.83849" lon="6.76803">
        <ele>2612</ele>
        <time>2026-03-03T09:38:32.999Z</time>
      </trkpt>
      <trkpt lat="44.8385" lon="6.76804">
        <ele>2612</ele>
        <time>2026-03-03T09:38:33.999Z</time>
      </trkpt>
      <trkpt lat="44.83851" lon="6.76805">
        <ele>2612.2</ele>
        <time>2026-03-03T09:38:34.999Z</time>
      </trkpt>
      <trkpt lat="44.83852" lon="6.76805">
        <ele>2612.4</ele>
        <time>2026-03-03T09:38:35.999Z</time>
      </trkpt>
      <trkpt lat="44.83853" lon="6.76805">
        <ele>2611.9</ele>
        <time>2026-03-03T09:38:36.999Z</time>
      </trkpt>
      <trkpt lat="44.83853" lon="6.76806">
        <ele>2612</ele>
        <time>2026-03-03T09:38:37.999Z</time>
      </trkpt>
      <trkpt lat="44.83854" lon="6.76807">
        <ele>2612</ele>
        <time>2026-03-03T09:38:38.999Z</time>
      </trkpt>
      <trkpt lat="44.83854" lon="6.76807">
        <ele>2612.2</ele>
        <time>2026-03-03T09:38:39.999Z</time>
      </trkpt>
      <trkpt lat="44.83854" lon="6.76808">
        <ele>2612.6</ele>
        <time>2026-03-03T09:38:40.999Z</time>
      </trkpt>
      <trkpt lat="44.83854" lon="6.76808">
        <ele>2612.9</ele>
        <time>2026-03-03T09:38:41.999Z</time>
      </trkpt>
      <trkpt lat="44.83854" lon="6.76809">
        <ele>2613</ele>
        <time>2026-03-03T09:38:42.999Z</time>
      </trkpt>
      <trkpt lat="44.83855" lon="6.7681">
        <ele>2613.1</ele>
        <time>2026-03-03T09:38:43.999Z</time>
      </trkpt>
      <trkpt lat="44.83856" lon="6.76811">
        <ele>2613</ele>
        <time>2026-03-03T09:38:44.999Z</time>
      </trkpt>
      <trkpt lat="44.83856" lon="6.76812">
        <ele>2613.1</ele>
        <time>2026-03-03T09:38:45.999Z</time>
      </trkpt>
      <trkpt lat="44.83857" lon="6.76812">
        <ele>2613.1</ele>
        <time>2026-03-03T09:38:46.999Z</time>
      </trkpt>
      <trkpt lat="44.83858" lon="6.76813">
        <ele>2613.1</ele>
        <time>2026-03-03T09:38:47.999Z</time>
      </trkpt>
      <trkpt lat="44.83858" lon="6.76814">
        <ele>2612.9</ele>
        <time>2026-03-03T09:38:48.999Z</time>
      </trkpt>
      <trkpt lat="44.83859" lon="6.76815">
        <ele>2612.8</ele>
        <time>2026-03-03T09:38:49.999Z</time>
      </trkpt>
      <trkpt lat="44.83859" lon="6.76815">
        <ele>2612.9</ele>
        <time>2026-03-03T09:38:50.999Z</time>
      </trkpt>
      <trkpt lat="44.83859" lon="6.76816">
        <ele>2612.8</ele>
        <time>2026-03-03T09:38:51.999Z</time>
      </trkpt>
      <trkpt lat="44.8386" lon="6.76816">
        <ele>2612.6</ele>
        <time>2026-03-03T09:38:52.999Z</time>
      </trkpt>
      <trkpt lat="44.8386" lon="6.76816">
        <ele>2612.6</ele>
        <time>2026-03-03T09:38:53.999Z</time>
      </trkpt>
      <trkpt lat="44.8386" lon="6.76817">
        <ele>2612.8</ele>
        <time>2026-03-03T09:38:54.999Z</time>
      </trkpt>
      <trkpt lat="44.83861" lon="6.76817">
        <ele>2613</ele>
        <time>2026-03-03T09:38:55.999Z</time>
      </trkpt>
      <trkpt lat="44.83861" lon="6.76818">
        <ele>2613.3</ele>
        <time>2026-03-03T09:38:56.999Z</time>
      </trkpt>
      <trkpt lat="44.83861" lon="6.76818">
        <ele>2613.5</ele>
        <time>2026-03-03T09:38:57.999Z</time>
      </trkpt>
      <trkpt lat="44.83861" lon="6.76818">
        <ele>2621.5</ele>
        <time>2026-03-03T09:44:06.999Z</time>
      </trkpt>
      <trkpt lat="44.83861" lon="6.76818">
        <ele>2621.7</ele>
        <time>2026-03-03T09:44:07.999Z</time>
      </trkpt>
      <trkpt lat="44.83862" lon="6.76818">
        <ele>2621.6</ele>
        <time>2026-03-03T09:44:08.999Z</time>
      </trkpt>
      <trkpt lat="44.83863" lon="6.76819">
        <ele>2621.9</ele>
        <time>2026-03-03T09:44:35.999Z</time>
      </trkpt>
      <trkpt lat="44.83864" lon="6.7682">
        <ele>2621.9</ele>
        <time>2026-03-03T09:44:36.999Z</time>
      </trkpt>
      <trkpt lat="44.83864" lon="6.7682">
        <ele>2621.8</ele>
        <time>2026-03-03T09:44:37.999Z</time>
      </trkpt>
      <trkpt lat="44.83864" lon="6.7682">
        <ele>2621.9</ele>
        <time>2026-03-03T09:44:38.999Z</time>
      </trkpt>
      <trkpt lat="44.83864" lon="6.7682">
        <ele>2622.2</ele>
        <time>2026-03-03T09:44:39.999Z</time>
      </trkpt>
      <trkpt lat="44.83865" lon="6.7682">
        <ele>2622.3</ele>
        <time>2026-03-03T09:44:40.999Z</time>
      </trkpt>
      <trkpt lat="44.83865" lon="6.76821">
        <ele>2622.5</ele>
        <time>2026-03-03T09:44:41.999Z</time>
      </trkpt>
      <trkpt lat="44.83865" lon="6.76821">
        <ele>2622.7</ele>
        <time>2026-03-03T09:44:42.999Z</time>
      </trkpt>
      <trkpt lat="44.83866" lon="6.76821">
        <ele>2622.8</ele>
        <time>2026-03-03T09:44:43.999Z</time>
      </trkpt>
      <trkpt lat="44.83866" lon="6.76821">
        <ele>2623.1</ele>
        <time>2026-03-03T09:44:44.999Z</time>
      </trkpt>
      <trkpt lat="44.83867" lon="6.76821">
        <ele>2623.4</ele>
        <time>2026-03-03T09:44:45.999Z</time>
      </trkpt>
      <trkpt lat="44.83867" lon="6.76821">
        <ele>2623.8</ele>
        <time>2026-03-03T09:44:46.999Z</time>
      </trkpt>
      <trkpt lat="44.83868" lon="6.76821">
        <ele>2623.9</ele>
        <time>2026-03-03T09:44:47.999Z</time>
      </trkpt>
      <trkpt lat="44.83868" lon="6.76821">
        <ele>2623.9</ele>
        <time>2026-03-03T09:44:48.999Z</time>
      </trkpt>
      <trkpt lat="44.83867" lon="6.76824">
        <ele>2624.6</ele>
        <time>2026-03-03T09:45:03.999Z</time>
      </trkpt>
      <trkpt lat="44.83866" lon="6.76825">
        <ele>2624.6</ele>
        <time>2026-03-03T09:45:04.999Z</time>
      </trkpt>
      <trkpt lat="44.83866" lon="6.76825">
        <ele>2624.5</ele>
        <time>2026-03-03T09:45:05.999Z</time>
      </trkpt>
      <trkpt lat="44.83866" lon="6.76826">
        <ele>2624.5</ele>
        <time>2026-03-03T09:45:06.999Z</time>
      </trkpt>
      <trkpt lat="44.83864" lon="6.76826">
        <ele>2624.5</ele>
        <time>2026-03-03T09:45:07.999Z</time>
      </trkpt>
      <trkpt lat="44.83863" lon="6.76827">
        <ele>2624.5</ele>
        <time>2026-03-03T09:45:08.999Z</time>
      </trkpt>
      <trkpt lat="44.83861" lon="6.76828">
        <ele>2624.6</ele>
        <time>2026-03-03T09:45:09.999Z</time>
      </trkpt>
      <trkpt lat="44.8386" lon="6.76828">
        <ele>2624.7</ele>
        <time>2026-03-03T09:45:10.999Z</time>
      </trkpt>
      <trkpt lat="44.83859" lon="6.76829">
        <ele>2624.7</ele>
        <time>2026-03-03T09:45:11.999Z</time>
      </trkpt>
      <trkpt lat="44.83858" lon="6.76829">
        <ele>2624.7</ele>
        <time>2026-03-03T09:45:12.999Z</time>
      </trkpt>
      <trkpt lat="44.83857" lon="6.76829">
        <ele>2624.9</ele>
        <time>2026-03-03T09:45:13.999Z</time>
      </trkpt>
      <trkpt lat="44.83857" lon="6.7683">
        <ele>2625</ele>
        <time>2026-03-03T09:45:14.999Z</time>
      </trkpt>
      <trkpt lat="44.83857" lon="6.7683">
        <ele>2625.2</ele>
        <time>2026-03-03T09:45:15.999Z</time>
      </trkpt>
      <trkpt lat="44.83856" lon="6.76829">
        <ele>2625.3</ele>
        <time>2026-03-03T09:45:16.999Z</time>
      </trkpt>
      <trkpt lat="44.83855" lon="6.76829">
        <ele>2625.2</ele>
        <time>2026-03-03T09:45:17.999Z</time>
      </trkpt>
      <trkpt lat="44.83854" lon="6.76829">
        <ele>2625.2</ele>
        <time>2026-03-03T09:45:18.999Z</time>
      </trkpt>
      <trkpt lat="44.83854" lon="6.76829">
        <ele>2625.4</ele>
        <time>2026-03-03T09:45:19.999Z</time>
      </trkpt>
      <trkpt lat="44.83853" lon="6.76829">
        <ele>2625.5</ele>
        <time>2026-03-03T09:45:20.999Z</time>
      </trkpt>
      <trkpt lat="44.83853" lon="6.76829">
        <ele>2625.6</ele>
        <time>2026-03-03T09:45:21.999Z</time>
      </trkpt>
      <trkpt lat="44.83852" lon="6.76829">
        <ele>2625.8</ele>
        <time>2026-03-03T09:45:22.999Z</time>
      </trkpt>
      <trkpt lat="44.83851" lon="6.76828">
        <ele>2625.9</ele>
        <time>2026-03-03T09:45:23.999Z</time>
      </trkpt>
      <trkpt lat="44.8385" lon="6.76828">
        <ele>2626.2</ele>
        <time>2026-03-03T09:45:24.999Z</time>
      </trkpt>
      <trkpt lat="44.8385" lon="6.76828">
        <ele>2626.4</ele>
        <time>2026-03-03T09:45:25.999Z</time>
      </trkpt>
      <trkpt lat="44.8385" lon="6.76828">
        <ele>2626.6</ele>
        <time>2026-03-03T09:45:26.999Z</time>
      </trkpt>
      <trkpt lat="44.83849" lon="6.76828">
        <ele>2626.8</ele>
        <time>2026-03-03T09:45:27.999Z</time>
      </trkpt>
      <trkpt lat="44.83848" lon="6.76828">
        <ele>2627</ele>
        <time>2026-03-03T09:45:28.999Z</time>
      </trkpt>
      <trkpt lat="44.83848" lon="6.76828">
        <ele>2627.1</ele>
        <time>2026-03-03T09:45:29.999Z</time>
      </trkpt>
      <trkpt lat="44.83847" lon="6.76828">
        <ele>2627.1</ele>
        <time>2026-03-03T09:45:30.999Z</time>
      </trkpt>
      <trkpt lat="44.83847" lon="6.76828">
        <ele>2627.3</ele>
        <time>2026-03-03T09:45:31.999Z</time>
      </trkpt>
      <trkpt lat="44.83846" lon="6.76829">
        <ele>2627.5</ele>
        <time>2026-03-03T09:45:32.999Z</time>
      </trkpt>
      <trkpt lat="44.83846" lon="6.76829">
        <ele>2627.6</ele>
        <time>2026-03-03T09:45:33.999Z</time>
      </trkpt>
      <trkpt lat="44.83846" lon="6.76829">
        <ele>2627.8</ele>
        <time>2026-03-03T09:45:34.999Z</time>
      </trkpt>
      <trkpt lat="44.83846" lon="6.76829">
        <ele>2627.9</ele>
        <time>2026-03-03T09:45:35.999Z</time>
      </trkpt>
      <trkpt lat="44.83846" lon="6.76829">
        <ele>2628</ele>
        <time>2026-03-03T09:45:36.999Z</time>
      </trkpt>
      <trkpt lat="44.83845" lon="6.76829">
        <ele>2628.2</ele>
        <time>2026-03-03T09:45:37.999Z</time>
      </trkpt>
      <trkpt lat="44.83845" lon="6.76829">
        <ele>2628.3</ele>
        <time>2026-03-03T09:45:38.999Z</time>
      </trkpt>
      <trkpt lat="44.83845" lon="6.7683">
        <ele>2628.5</ele>
        <time>2026-03-03T09:45:39.999Z</time>
      </trkpt>
      <trkpt lat="44.83845" lon="6.7683">
        <ele>2628.6</ele>
        <time>2026-03-03T09:45:40.999Z</time>
      </trkpt>
      <trkpt lat="44.83844" lon="6.7683">
        <ele>2628.7</ele>
        <time>2026-03-03T09:45:41.999Z</time>
      </trkpt>
      <trkpt lat="44.83844" lon="6.7683">
        <ele>2628.7</ele>
        <time>2026-03-03T09:45:42.999Z</time>
      </trkpt>
      <trkpt lat="44.83843" lon="6.7683">
        <ele>2628.7</ele>
        <time>2026-03-03T09:45:43.999Z</time>
      </trkpt>
      <trkpt lat="44.83841" lon="6.76831">
        <ele>2628.5</ele>
        <time>2026-03-03T09:45:44.999Z</time>
      </trkpt>
      <trkpt lat="44.8384" lon="6.76831">
        <ele>2628.5</ele>
        <time>2026-03-03T09:45:45.999Z</time>
      </trkpt>
      <trkpt lat="44.83839" lon="6.76832">
        <ele>2628.6</ele>
        <time>2026-03-03T09:45:46.999Z</time>
      </trkpt>
      <trkpt lat="44.83838" lon="6.76832">
        <ele>2628.7</ele>
        <time>2026-03-03T09:45:47.999Z</time>
      </trkpt>
      <trkpt lat="44.83837" lon="6.76832">
        <ele>2628.7</ele>
        <time>2026-03-03T09:45:48.999Z</time>
      </trkpt>
      <trkpt lat="44.83837" lon="6.76833">
        <ele>2628.9</ele>
        <time>2026-03-03T09:45:49.999Z</time>
      </trkpt>
      <trkpt lat="44.83837" lon="6.76833">
        <ele>2629.2</ele>
        <time>2026-03-03T09:45:50.999Z</time>
      </trkpt>
      <trkpt lat="44.83837" lon="6.76834">
        <ele>2629.1</ele>
        <time>2026-03-03T09:45:51.999Z</time>
      </trkpt>
      <trkpt lat="44.83837" lon="6.76834">
        <ele>2629.3</ele>
        <time>2026-03-03T09:45:52.999Z</time>
      </trkpt>
      <trkpt lat="44.83836" lon="6.76834">
        <ele>2629.3</ele>
        <time>2026-03-03T09:45:53.999Z</time>
      </trkpt>
      <trkpt lat="44.83836" lon="6.76835">
        <ele>2629.4</ele>
        <time>2026-03-03T09:45:54.999Z</time>
      </trkpt>
      <trkpt lat="44.83836" lon="6.76836">
        <ele>2629.6</ele>
        <time>2026-03-03T09:45:55.999Z</time>
      </trkpt>
      <trkpt lat="44.83835" lon="6.76836">
        <ele>2629.7</ele>
        <time>2026-03-03T09:45:56.999Z</time>
      </trkpt>
      <trkpt lat="44.83834" lon="6.76837">
        <ele>2630</ele>
        <time>2026-03-03T09:45:57.999Z</time>
      </trkpt>
      <trkpt lat="44.83834" lon="6.76837">
        <ele>2630.1</ele>
        <time>2026-03-03T09:45:58.999Z</time>
      </trkpt>
      <trkpt lat="44.83833" lon="6.76837">
        <ele>2630.1</ele>
        <time>2026-03-03T09:45:59.999Z</time>
      </trkpt>
      <trkpt lat="44.83832" lon="6.76838">
        <ele>2630.3</ele>
        <time>2026-03-03T09:46:00.999Z</time>
      </trkpt>
      <trkpt lat="44.83832" lon="6.76838">
        <ele>2630.1</ele>
        <time>2026-03-03T09:46:01.999Z</time>
      </trkpt>
      <trkpt lat="44.83835" lon="6.76836">
        <ele>2632.2</ele>
        <time>2026-03-03T09:46:15.999Z</time>
      </trkpt>
      <trkpt lat="44.83836" lon="6.76836">
        <ele>2632.2</ele>
        <time>2026-03-03T09:46:16.999Z</time>
      </trkpt>
      <trkpt lat="44.83838" lon="6.76836">
        <ele>2632.2</ele>
        <time>2026-03-03T09:46:17.999Z</time>
      </trkpt>
      <trkpt lat="44.83839" lon="6.76836">
        <ele>2632.2</ele>
        <time>2026-03-03T09:46:18.999Z</time>
      </trkpt>
      <trkpt lat="44.83841" lon="6.76837">
        <ele>2632.2</ele>
        <time>2026-03-03T09:46:19.999Z</time>
      </trkpt>
      <trkpt lat="44.83842" lon="6.76837">
        <ele>2632.3</ele>
        <time>2026-03-03T09:46:20.999Z</time>
      </trkpt>
      <trkpt lat="44.83843" lon="6.76838">
        <ele>2632.3</ele>
        <time>2026-03-03T09:46:21.999Z</time>
      </trkpt>
      <trkpt lat="44.83844" lon="6.76838">
        <ele>2632.5</ele>
        <time>2026-03-03T09:46:22.999Z</time>
      </trkpt>
      <trkpt lat="44.83845" lon="6.76838">
        <ele>2632.6</ele>
        <time>2026-03-03T09:46:23.999Z</time>
      </trkpt>
      <trkpt lat="44.83846" lon="6.76839">
        <ele>2632.6</ele>
        <time>2026-03-03T09:46:24.999Z</time>
      </trkpt>
      <trkpt lat="44.83844" lon="6.76839">
        <ele>2632.2</ele>
        <time>2026-03-03T09:46:25.999Z</time>
      </trkpt>
      <trkpt lat="44.83844" lon="6.76839">
        <ele>2632.2</ele>
        <time>2026-03-03T09:46:26.999Z</time>
      </trkpt>
      <trkpt lat="44.83845" lon="6.76839">
        <ele>2632.4</ele>
        <time>2026-03-03T09:46:27.999Z</time>
      </trkpt>
      <trkpt lat="44.83845" lon="6.7684">
        <ele>2632.7</ele>
        <time>2026-03-03T09:46:28.999Z</time>
      </trkpt>
      <trkpt lat="44.83846" lon="6.7684">
        <ele>2632.9</ele>
        <time>2026-03-03T09:46:29.999Z</time>
      </trkpt>
      <trkpt lat="44.83846" lon="6.76841">
        <ele>2633</ele>
        <time>2026-03-03T09:46:30.999Z</time>
      </trkpt>
      <trkpt lat="44.83846" lon="6.76841">
        <ele>2633</ele>
        <time>2026-03-03T09:46:31.999Z</time>
      </trkpt>
      <trkpt lat="44.83846" lon="6.76842">
        <ele>2633.2</ele>
        <time>2026-03-03T09:46:32.999Z</time>
      </trkpt>
      <trkpt lat="44.83847" lon="6.76842">
        <ele>2633.4</ele>
        <time>2026-03-03T09:46:33.999Z</time>
      </trkpt>
      <trkpt lat="44.83848" lon="6.76843">
        <ele>2633.8</ele>
        <time>2026-03-03T09:46:34.999Z</time>
      </trkpt>
      <trkpt lat="44.83848" lon="6.76844">
        <ele>2633.9</ele>
        <time>2026-03-03T09:46:35.999Z</time>
      </trkpt>
      <trkpt lat="44.83849" lon="6.76844">
        <ele>2634.2</ele>
        <time>2026-03-03T09:46:36.999Z</time>
      </trkpt>
      <trkpt lat="44.83849" lon="6.76845">
        <ele>2634.4</ele>
        <time>2026-03-03T09:46:37.999Z</time>
      </trkpt>
      <trkpt lat="44.83849" lon="6.76846">
        <ele>2634.6</ele>
        <time>2026-03-03T09:46:38.999Z</time>
      </trkpt>
      <trkpt lat="44.8385" lon="6.76846">
        <ele>2635</ele>
        <time>2026-03-03T09:46:39.999Z</time>
      </trkpt>
      <trkpt lat="44.8385" lon="6.76847">
        <ele>2635.4</ele>
        <time>2026-03-03T09:46:40.999Z</time>
      </trkpt>
      <trkpt lat="44.8385" lon="6.76847">
        <ele>2635.7</ele>
        <time>2026-03-03T09:46:41.999Z</time>
      </trkpt>
      <trkpt lat="44.8385" lon="6.76847">
        <ele>2636.1</ele>
        <time>2026-03-03T09:46:42.999Z</time>
      </trkpt>
      <trkpt lat="44.83851" lon="6.76847">
        <ele>2636.3</ele>
        <time>2026-03-03T09:46:43.999Z</time>
      </trkpt>
      <trkpt lat="44.83852" lon="6.76848">
        <ele>2636.3</ele>
        <time>2026-03-03T09:46:44.999Z</time>
      </trkpt>
      <trkpt lat="44.83853" lon="6.76848">
        <ele>2636.5</ele>
        <time>2026-03-03T09:46:45.999Z</time>
      </trkpt>
      <trkpt lat="44.83853" lon="6.76849">
        <ele>2636.6</ele>
        <time>2026-03-03T09:46:46.999Z</time>
      </trkpt>
      <trkpt lat="44.83853" lon="6.7685">
        <ele>2636.9</ele>
        <time>2026-03-03T09:46:47.999Z</time>
      </trkpt>
      <trkpt lat="44.83853" lon="6.7685">
        <ele>2637</ele>
        <time>2026-03-03T09:46:48.999Z</time>
      </trkpt>
      <trkpt lat="44.83854" lon="6.76851">
        <ele>2637.1</ele>
        <time>2026-03-03T09:46:49.999Z</time>
      </trkpt>
      <trkpt lat="44.83854" lon="6.76852">
        <ele>2637.2</ele>
        <time>2026-03-03T09:46:50.999Z</time>
      </trkpt>
      <trkpt lat="44.83854" lon="6.76853">
        <ele>2637.3</ele>
        <time>2026-03-03T09:46:51.999Z</time>
      </trkpt>
      <trkpt lat="44.83854" lon="6.76853">
        <ele>2637.5</ele>
        <time>2026-03-03T09:46:52.999Z</time>
      </trkpt>
      <trkpt lat="44.83854" lon="6.76854">
        <ele>2637.6</ele>
        <time>2026-03-03T09:46:53.999Z</time>
      </trkpt>
      <trkpt lat="44.83854" lon="6.76854">
        <ele>2637.8</ele>
        <time>2026-03-03T09:46:54.999Z</time>
      </trkpt>
      <trkpt lat="44.83854" lon="6.76855">
        <ele>2637.8</ele>
        <time>2026-03-03T09:46:55.999Z</time>
      </trkpt>
      <trkpt lat="44.83855" lon="6.76855">
        <ele>2637.9</ele>
        <time>2026-03-03T09:46:56.999Z</time>
      </trkpt>
      <trkpt lat="44.83855" lon="6.76855">
        <ele>2638</ele>
        <time>2026-03-03T09:46:57.999Z</time>
      </trkpt>
      <trkpt lat="44.83855" lon="6.76856">
        <ele>2638</ele>
        <time>2026-03-03T09:46:58.999Z</time>
      </trkpt>
      <trkpt lat="44.83855" lon="6.76857">
        <ele>2638.1</ele>
        <time>2026-03-03T09:47:00.000Z</time>
      </trkpt>
      <trkpt lat="44.83855" lon="6.76858">
        <ele>2638.1</ele>
        <time>2026-03-03T09:47:01.000Z</time>
      </trkpt>
      <trkpt lat="44.83855" lon="6.76858">
        <ele>2638.2</ele>
        <time>2026-03-03T09:47:02.000Z</time>
      </trkpt>
      <trkpt lat="44.83856" lon="6.76857">
        <ele>2638.4</ele>
        <time>2026-03-03T09:47:03.000Z</time>
      </trkpt>
      <trkpt lat="44.83856" lon="6.76858">
        <ele>2638.7</ele>
        <time>2026-03-03T09:47:04.000Z</time>
      </trkpt>
      <trkpt lat="44.83856" lon="6.76858">
        <ele>2639</ele>
        <time>2026-03-03T09:47:05.000Z</time>
      </trkpt>
      <trkpt lat="44.83856" lon="6.76858">
        <ele>2639.2</ele>
        <time>2026-03-03T09:47:06.000Z</time>
      </trkpt>
      <trkpt lat="44.83857" lon="6.76859">
        <ele>2639.3</ele>
        <time>2026-03-03T09:47:07.000Z</time>
      </trkpt>
      <trkpt lat="44.83858" lon="6.7686">
        <ele>2639.4</ele>
        <time>2026-03-03T09:47:08.000Z</time>
      </trkpt>
      <trkpt lat="44.83858" lon="6.7686">
        <ele>2639.6</ele>
        <time>2026-03-03T09:47:09.000Z</time>
      </trkpt>
      <trkpt lat="44.83858" lon="6.7686">
        <ele>2639.8</ele>
        <time>2026-03-03T09:47:10.000Z</time>
      </trkpt>
      <trkpt lat="44.83858" lon="6.7686">
        <ele>2639.9</ele>
        <time>2026-03-03T09:47:11.000Z</time>
      </trkpt>
      <trkpt lat="44.83858" lon="6.76861">
        <ele>2640</ele>
        <time>2026-03-03T09:47:12.000Z</time>
      </trkpt>
      <trkpt lat="44.83859" lon="6.76861">
        <ele>2640</ele>
        <time>2026-03-03T09:47:13.000Z</time>
      </trkpt>
      <trkpt lat="44.8386" lon="6.76861">
        <ele>2640</ele>
        <time>2026-03-03T09:47:14.000Z</time>
      </trkpt>
      <trkpt lat="44.8386" lon="6.76862">
        <ele>2640</ele>
        <time>2026-03-03T09:47:15.000Z</time>
      </trkpt>
      <trkpt lat="44.83861" lon="6.76862">
        <ele>2640.1</ele>
        <time>2026-03-03T09:47:16.000Z</time>
      </trkpt>
      <trkpt lat="44.83861" lon="6.76862">
        <ele>2640.3</ele>
        <time>2026-03-03T09:47:17.000Z</time>
      </trkpt>
      <trkpt lat="44.83861" lon="6.76862">
        <ele>2640.5</ele>
        <time>2026-03-03T09:47:18.000Z</time>
      </trkpt>
      <trkpt lat="44.83861" lon="6.76862">
        <ele>2640.4</ele>
        <time>2026-03-03T09:47:19.000Z</time>
      </trkpt>
      <trkpt lat="44.83862" lon="6.76863">
        <ele>2640.5</ele>
        <time>2026-03-03T09:47:20.000Z</time>
      </trkpt>
      <trkpt lat="44.83862" lon="6.76863">
        <ele>2640.6</ele>
        <time>2026-03-03T09:47:21.000Z</time>
      </trkpt>
      <trkpt lat="44.83863" lon="6.76864">
        <ele>2640.6</ele>
        <time>2026-03-03T09:47:22.000Z</time>
      </trkpt>
      <trkpt lat="44.83864" lon="6.76864">
        <ele>2640.8</ele>
        <time>2026-03-03T09:47:23.000Z</time>
      </trkpt>
      <trkpt lat="44.83864" lon="6.76864">
        <ele>2641.1</ele>
        <time>2026-03-03T09:47:24.000Z</time>
      </trkpt>
      <trkpt lat="44.83864" lon="6.76865">
        <ele>2641.5</ele>
        <time>2026-03-03T09:47:25.000Z</time>
      </trkpt>
      <trkpt lat="44.83865" lon="6.76865">
        <ele>2641.8</ele>
        <time>2026-03-03T09:47:26.000Z</time>
      </trkpt>
      <trkpt lat="44.83865" lon="6.76865">
        <ele>2641.9</ele>
        <time>2026-03-03T09:47:27.000Z</time>
      </trkpt>
      <trkpt lat="44.83865" lon="6.76866">
        <ele>2642</ele>
        <time>2026-03-03T09:47:28.000Z</time>
      </trkpt>
      <trkpt lat="44.83866" lon="6.76866">
        <ele>2642.1</ele>
        <time>2026-03-03T09:47:29.000Z</time>
      </trkpt>
      <trkpt lat="44.83866" lon="6.76867">
        <ele>2642.4</ele>
        <time>2026-03-03T09:47:30.000Z</time>
      </trkpt>
      <trkpt lat="44.83866" lon="6.76867">
        <ele>2642.7</ele>
        <time>2026-03-03T09:47:31.000Z</time>
      </trkpt>
      <trkpt lat="44.83866" lon="6.76867">
        <ele>2642.7</ele>
        <time>2026-03-03T09:47:32.000Z</time>
      </trkpt>
      <trkpt lat="44.83866" lon="6.76867">
        <ele>2642.9</ele>
        <time>2026-03-03T09:47:33.000Z</time>
      </trkpt>
      <trkpt lat="44.83867" lon="6.76868">
        <ele>2642.8</ele>
        <time>2026-03-03T09:47:34.000Z</time>
      </trkpt>
      <trkpt lat="44.83868" lon="6.76868">
        <ele>2642.9</ele>
        <time>2026-03-03T09:47:35.000Z</time>
      </trkpt>
      <trkpt lat="44.83869" lon="6.76868">
        <ele>2643</ele>
        <time>2026-03-03T09:47:36.000Z</time>
      </trkpt>
      <trkpt lat="44.83869" lon="6.76868">
        <ele>2643.2</ele>
        <time>2026-03-03T09:47:37.000Z</time>
      </trkpt>
      <trkpt lat="44.83869" lon="6.76868">
        <ele>2643.3</ele>
        <time>2026-03-03T09:47:38.000Z</time>
      </trkpt>
      <trkpt lat="44.8387" lon="6.76869">
        <ele>2643.4</ele>
        <time>2026-03-03T09:47:39.000Z</time>
      </trkpt>
      <trkpt lat="44.8387" lon="6.76869">
        <ele>2643.3</ele>
        <time>2026-03-03T09:47:40.000Z</time>
      </trkpt>
      <trkpt lat="44.8387" lon="6.76869">
        <ele>2643.3</ele>
        <time>2026-03-03T09:47:41.000Z</time>
      </trkpt>
      <trkpt lat="44.83871" lon="6.76869">
        <ele>2643.2</ele>
        <time>2026-03-03T09:47:42.000Z</time>
      </trkpt>
      <trkpt lat="44.83871" lon="6.7687">
        <ele>2643.2</ele>
        <time>2026-03-03T09:47:43.000Z</time>
      </trkpt>
      <trkpt lat="44.83872" lon="6.76871">
        <ele>2643.2</ele>
        <time>2026-03-03T09:47:44.000Z</time>
      </trkpt>
      <trkpt lat="44.83872" lon="6.76871">
        <ele>2643.1</ele>
        <time>2026-03-03T09:47:45.000Z</time>
      </trkpt>
      <trkpt lat="44.83872" lon="6.76871">
        <ele>2643.2</ele>
        <time>2026-03-03T09:47:46.000Z</time>
      </trkpt>
      <trkpt lat="44.83873" lon="6.76871">
        <ele>2643.2</ele>
        <time>2026-03-03T09:47:47.000Z</time>
      </trkpt>
      <trkpt lat="44.83873" lon="6.76872">
        <ele>2643.3</ele>
        <time>2026-03-03T09:47:48.000Z</time>
      </trkpt>
      <trkpt lat="44.83874" lon="6.76872">
        <ele>2643.3</ele>
        <time>2026-03-03T09:47:49.000Z</time>
      </trkpt>
      <trkpt lat="44.83874" lon="6.76873">
        <ele>2643.6</ele>
        <time>2026-03-03T09:47:50.000Z</time>
      </trkpt>
      <trkpt lat="44.83874" lon="6.76873">
        <ele>2643.9</ele>
        <time>2026-03-03T09:47:51.000Z</time>
      </trkpt>
      <trkpt lat="44.83874" lon="6.76874">
        <ele>2644.1</ele>
        <time>2026-03-03T09:47:52.000Z</time>
      </trkpt>
      <trkpt lat="44.83875" lon="6.76875">
        <ele>2644.2</ele>
        <time>2026-03-03T09:47:53.000Z</time>
      </trkpt>
      <trkpt lat="44.83875" lon="6.76875">
        <ele>2644.1</ele>
        <time>2026-03-03T09:47:54.000Z</time>
      </trkpt>
      <trkpt lat="44.83871" lon="6.76875">
        <ele>2644.6</ele>
        <time>2026-03-03T09:48:07.000Z</time>
      </trkpt>
      <trkpt lat="44.83871" lon="6.76875">
        <ele>2644.5</ele>
        <time>2026-03-03T09:48:08.000Z</time>
      </trkpt>
      <trkpt lat="44.8387" lon="6.76875">
        <ele>2644.6</ele>
        <time>2026-03-03T09:48:09.000Z</time>
      </trkpt>
      <trkpt lat="44.8387" lon="6.76875">
        <ele>2644.6</ele>
        <time>2026-03-03T09:48:10.000Z</time>
      </trkpt>
      <trkpt lat="44.83869" lon="6.76876">
        <ele>2644.6</ele>
        <time>2026-03-03T09:48:11.000Z</time>
      </trkpt>
      <trkpt lat="44.83868" lon="6.76876">
        <ele>2644.6</ele>
        <time>2026-03-03T09:48:12.000Z</time>
      </trkpt>
      <trkpt lat="44.83867" lon="6.76876">
        <ele>2645</ele>
        <time>2026-03-03T09:48:13.000Z</time>
      </trkpt>
      <trkpt lat="44.83866" lon="6.76877">
        <ele>2645.4</ele>
        <time>2026-03-03T09:48:14.000Z</time>
      </trkpt>
      <trkpt lat="44.83866" lon="6.76877">
        <ele>2645.7</ele>
        <time>2026-03-03T09:48:15.000Z</time>
      </trkpt>
      <trkpt lat="44.83865" lon="6.76877">
        <ele>2646</ele>
        <time>2026-03-03T09:48:16.000Z</time>
      </trkpt>
      <trkpt lat="44.83864" lon="6.76877">
        <ele>2646.5</ele>
        <time>2026-03-03T09:48:17.000Z</time>
      </trkpt>
      <trkpt lat="44.83864" lon="6.76877">
        <ele>2646.7</ele>
        <time>2026-03-03T09:48:18.000Z</time>
      </trkpt>
      <trkpt lat="44.83864" lon="6.76878">
        <ele>2646.9</ele>
        <time>2026-03-03T09:48:19.000Z</time>
      </trkpt>
      <trkpt lat="44.83863" lon="6.76879">
        <ele>2647.2</ele>
        <time>2026-03-03T09:48:20.000Z</time>
      </trkpt>
      <trkpt lat="44.83863" lon="6.76879">
        <ele>2647.4</ele>
        <time>2026-03-03T09:48:21.000Z</time>
      </trkpt>
      <trkpt lat="44.83862" lon="6.7688">
        <ele>2647.5</ele>
        <time>2026-03-03T09:48:22.000Z</time>
      </trkpt>
      <trkpt lat="44.83862" lon="6.7688">
        <ele>2647.7</ele>
        <time>2026-03-03T09:48:23.000Z</time>
      </trkpt>
      <trkpt lat="44.83861" lon="6.7688">
        <ele>2647.9</ele>
        <time>2026-03-03T09:48:24.000Z</time>
      </trkpt>
      <trkpt lat="44.83861" lon="6.7688">
        <ele>2648.2</ele>
        <time>2026-03-03T09:48:25.000Z</time>
      </trkpt>
      <trkpt lat="44.83861" lon="6.7688">
        <ele>2648.4</ele>
        <time>2026-03-03T09:48:26.000Z</time>
      </trkpt>
      <trkpt lat="44.8386" lon="6.76881">
        <ele>2648.7</ele>
        <time>2026-03-03T09:48:27.000Z</time>
      </trkpt>
      <trkpt lat="44.8386" lon="6.76881">
        <ele>2648.9</ele>
        <time>2026-03-03T09:48:28.000Z</time>
      </trkpt>
      <trkpt lat="44.83859" lon="6.76881">
        <ele>2649</ele>
        <time>2026-03-03T09:48:29.000Z</time>
      </trkpt>
      <trkpt lat="44.83859" lon="6.76882">
        <ele>2649.1</ele>
        <time>2026-03-03T09:48:30.000Z</time>
      </trkpt>
      <trkpt lat="44.83858" lon="6.76882">
        <ele>2649.1</ele>
        <time>2026-03-03T09:48:31.000Z</time>
      </trkpt>
      <trkpt lat="44.83858" lon="6.76882">
        <ele>2649.3</ele>
        <time>2026-03-03T09:48:32.000Z</time>
      </trkpt>
      <trkpt lat="44.83857" lon="6.76883">
        <ele>2649.4</ele>
        <time>2026-03-03T09:48:33.000Z</time>
      </trkpt>
      <trkpt lat="44.83857" lon="6.76883">
        <ele>2649.6</ele>
        <time>2026-03-03T09:48:34.000Z</time>
      </trkpt>
      <trkpt lat="44.83857" lon="6.76884">
        <ele>2649.7</ele>
        <time>2026-03-03T09:48:35.000Z</time>
      </trkpt>
      <trkpt lat="44.83856" lon="6.76884">
        <ele>2650</ele>
        <time>2026-03-03T09:48:36.000Z</time>
      </trkpt>
      <trkpt lat="44.83855" lon="6.76885">
        <ele>2650.2</ele>
        <time>2026-03-03T09:48:37.000Z</time>
      </trkpt>
      <trkpt lat="44.83854" lon="6.76885">
        <ele>2650.4</ele>
        <time>2026-03-03T09:48:38.000Z</time>
      </trkpt>
      <trkpt lat="44.83854" lon="6.76885">
        <ele>2650.6</ele>
        <time>2026-03-03T09:48:39.000Z</time>
      </trkpt>
      <trkpt lat="44.83853" lon="6.76885">
        <ele>2650.8</ele>
        <time>2026-03-03T09:48:40.000Z</time>
      </trkpt>
      <trkpt lat="44.83853" lon="6.76886">
        <ele>2651</ele>
        <time>2026-03-03T09:48:41.000Z</time>
      </trkpt>
      <trkpt lat="44.83853" lon="6.76886">
        <ele>2651.1</ele>
        <time>2026-03-03T09:48:42.000Z</time>
      </trkpt>
      <trkpt lat="44.83853" lon="6.76886">
        <ele>2651.3</ele>
        <time>2026-03-03T09:48:43.000Z</time>
      </trkpt>
      <trkpt lat="44.83852" lon="6.76886">
        <ele>2651.3</ele>
        <time>2026-03-03T09:48:44.000Z</time>
      </trkpt>
      <trkpt lat="44.83852" lon="6.76887">
        <ele>2651.5</ele>
        <time>2026-03-03T09:48:45.000Z</time>
      </trkpt>
      <trkpt lat="44.83851" lon="6.76887">
        <ele>2651.6</ele>
        <time>2026-03-03T09:48:46.000Z</time>
      </trkpt>
      <trkpt lat="44.83851" lon="6.76887">
        <ele>2652</ele>
        <time>2026-03-03T09:48:47.000Z</time>
      </trkpt>
      <trkpt lat="44.8385" lon="6.76887">
        <ele>2652.4</ele>
        <time>2026-03-03T09:48:48.000Z</time>
      </trkpt>
      <trkpt lat="44.8385" lon="6.76887">
        <ele>2652.7</ele>
        <time>2026-03-03T09:48:49.000Z</time>
      </trkpt>
      <trkpt lat="44.8385" lon="6.76887">
        <ele>2652.9</ele>
        <time>2026-03-03T09:48:50.000Z</time>
      </trkpt>
      <trkpt lat="44.83849" lon="6.76888">
        <ele>2653.2</ele>
        <time>2026-03-03T09:48:51.000Z</time>
      </trkpt>
      <trkpt lat="44.83848" lon="6.76888">
        <ele>2653.4</ele>
        <time>2026-03-03T09:48:52.000Z</time>
      </trkpt>
      <trkpt lat="44.83847" lon="6.76888">
        <ele>2653.5</ele>
        <time>2026-03-03T09:48:53.000Z</time>
      </trkpt>
      <trkpt lat="44.83847" lon="6.76888">
        <ele>2653.8</ele>
        <time>2026-03-03T09:48:54.000Z</time>
      </trkpt>
      <trkpt lat="44.83846" lon="6.76888">
        <ele>2654.1</ele>
        <time>2026-03-03T09:48:55.000Z</time>
      </trkpt>
      <trkpt lat="44.83846" lon="6.76888">
        <ele>2654.2</ele>
        <time>2026-03-03T09:48:56.000Z</time>
      </trkpt>
      <trkpt lat="44.83846" lon="6.76888">
        <ele>2654.5</ele>
        <time>2026-03-03T09:48:57.000Z</time>
      </trkpt>
      <trkpt lat="44.83846" lon="6.76888">
        <ele>2654.7</ele>
        <time>2026-03-03T09:48:58.000Z</time>
      </trkpt>
      <trkpt lat="44.83845" lon="6.76889">
        <ele>2654.9</ele>
        <time>2026-03-03T09:48:59.000Z</time>
      </trkpt>
      <trkpt lat="44.83844" lon="6.76889">
        <ele>2655.1</ele>
        <time>2026-03-03T09:49:00.000Z</time>
      </trkpt>
      <trkpt lat="44.83844" lon="6.7689">
        <ele>2655.3</ele>
        <time>2026-03-03T09:49:01.000Z</time>
      </trkpt>
      <trkpt lat="44.83843" lon="6.76891">
        <ele>2655.5</ele>
        <time>2026-03-03T09:49:02.000Z</time>
      </trkpt>
      <trkpt lat="44.83843" lon="6.76891">
        <ele>2655.6</ele>
        <time>2026-03-03T09:49:03.000Z</time>
      </trkpt>
      <trkpt lat="44.83842" lon="6.76891">
        <ele>2655.6</ele>
        <time>2026-03-03T09:49:04.000Z</time>
      </trkpt>
      <trkpt lat="44.83842" lon="6.76891">
        <ele>2655.5</ele>
        <time>2026-03-03T09:49:05.000Z</time>
      </trkpt>
      <trkpt lat="44.83842" lon="6.76891">
        <ele>2655.5</ele>
        <time>2026-03-03T09:49:06.000Z</time>
      </trkpt>
      <trkpt lat="44.83841" lon="6.76891">
        <ele>2655.7</ele>
        <time>2026-03-03T09:49:07.000Z</time>
      </trkpt>
      <trkpt lat="44.83841" lon="6.76892">
        <ele>2655.9</ele>
        <time>2026-03-03T09:49:08.000Z</time>
      </trkpt>
      <trkpt lat="44.8384" lon="6.76892">
        <ele>2655.9</ele>
        <time>2026-03-03T09:49:09.000Z</time>
      </trkpt>
      <trkpt lat="44.8384" lon="6.76892">
        <ele>2655.9</ele>
        <time>2026-03-03T09:49:10.000Z</time>
      </trkpt>
      <trkpt lat="44.8384" lon="6.76893">
        <ele>2655.8</ele>
        <time>2026-03-03T09:49:11.000Z</time>
      </trkpt>
      <trkpt lat="44.8384" lon="6.76893">
        <ele>2655.7</ele>
        <time>2026-03-03T09:49:12.000Z</time>
      </trkpt>
      <trkpt lat="44.83839" lon="6.76894">
        <ele>2655.7</ele>
        <time>2026-03-03T09:49:13.000Z</time>
      </trkpt>
      <trkpt lat="44.83838" lon="6.76895">
        <ele>2655.6</ele>
        <time>2026-03-03T09:49:14.000Z</time>
      </trkpt>
      <trkpt lat="44.83837" lon="6.76895">
        <ele>2655.7</ele>
        <time>2026-03-03T09:49:15.000Z</time>
      </trkpt>
      <trkpt lat="44.83837" lon="6.76896">
        <ele>2655.7</ele>
        <time>2026-03-03T09:49:16.000Z</time>
      </trkpt>
      <trkpt lat="44.83837" lon="6.76896">
        <ele>2655.6</ele>
        <time>2026-03-03T09:49:17.000Z</time>
      </trkpt>
      <trkpt lat="44.83837" lon="6.76897">
        <ele>2655.7</ele>
        <time>2026-03-03T09:49:18.000Z</time>
      </trkpt>
      <trkpt lat="44.83836" lon="6.76898">
        <ele>2655.8</ele>
        <time>2026-03-03T09:49:19.000Z</time>
      </trkpt>
      <trkpt lat="44.83836" lon="6.76898">
        <ele>2656</ele>
        <time>2026-03-03T09:49:20.000Z</time>
      </trkpt>
      <trkpt lat="44.83837" lon="6.76899">
        <ele>2656</ele>
        <time>2026-03-03T09:49:21.000Z</time>
      </trkpt>
      <trkpt lat="44.83837" lon="6.76899">
        <ele>2656.2</ele>
        <time>2026-03-03T09:49:22.000Z</time>
      </trkpt>
      <trkpt lat="44.83837" lon="6.769">
        <ele>2656.3</ele>
        <time>2026-03-03T09:49:23.000Z</time>
      </trkpt>
      <trkpt lat="44.83838" lon="6.76901">
        <ele>2656.5</ele>
        <time>2026-03-03T09:49:24.000Z</time>
      </trkpt>
      <trkpt lat="44.83839" lon="6.76902">
        <ele>2656.6</ele>
        <time>2026-03-03T09:49:25.000Z</time>
      </trkpt>
      <trkpt lat="44.8384" lon="6.76903">
        <ele>2656.8</ele>
        <time>2026-03-03T09:49:26.000Z</time>
      </trkpt>
      <trkpt lat="44.8384" lon="6.76904">
        <ele>2657.2</ele>
        <time>2026-03-03T09:49:27.000Z</time>
      </trkpt>
      <trkpt lat="44.8384" lon="6.76905">
        <ele>2657.5</ele>
        <time>2026-03-03T09:49:28.000Z</time>
      </trkpt>
      <trkpt lat="44.8384" lon="6.76905">
        <ele>2657.9</ele>
        <time>2026-03-03T09:49:29.000Z</time>
      </trkpt>
      <trkpt lat="44.83841" lon="6.76905">
        <ele>2658.6</ele>
        <time>2026-03-03T09:49:30.000Z</time>
      </trkpt>
      <trkpt lat="44.83841" lon="6.76905">
        <ele>2658.6</ele>
        <time>2026-03-03T09:49:31.000Z</time>
      </trkpt>
      <trkpt lat="44.83841" lon="6.76905">
        <ele>2658.9</ele>
        <time>2026-03-03T09:49:32.000Z</time>
      </trkpt>
      <trkpt lat="44.83841" lon="6.76906">
        <ele>2659.3</ele>
        <time>2026-03-03T09:49:33.000Z</time>
      </trkpt>
      <trkpt lat="44.83842" lon="6.76907">
        <ele>2659.6</ele>
        <time>2026-03-03T09:49:34.000Z</time>
      </trkpt>
      <trkpt lat="44.83842" lon="6.76907">
        <ele>2659.9</ele>
        <time>2026-03-03T09:49:35.000Z</time>
      </trkpt>
      <trkpt lat="44.83843" lon="6.76908">
        <ele>2660</ele>
        <time>2026-03-03T09:49:36.000Z</time>
      </trkpt>
      <trkpt lat="44.83844" lon="6.76909">
        <ele>2660</ele>
        <time>2026-03-03T09:49:37.000Z</time>
      </trkpt>
      <trkpt lat="44.83844" lon="6.76909">
        <ele>2660.1</ele>
        <time>2026-03-03T09:49:38.000Z</time>
      </trkpt>
      <trkpt lat="44.83844" lon="6.7691">
        <ele>2660.2</ele>
        <time>2026-03-03T09:49:39.000Z</time>
      </trkpt>
      <trkpt lat="44.83845" lon="6.7691">
        <ele>2660.6</ele>
        <time>2026-03-03T09:49:40.000Z</time>
      </trkpt>
      <trkpt lat="44.83845" lon="6.76911">
        <ele>2660.9</ele>
        <time>2026-03-03T09:49:41.000Z</time>
      </trkpt>
      <trkpt lat="44.83846" lon="6.76911">
        <ele>2661.1</ele>
        <time>2026-03-03T09:49:42.000Z</time>
      </trkpt>
      <trkpt lat="44.83846" lon="6.76912">
        <ele>2661.4</ele>
        <time>2026-03-03T09:49:43.000Z</time>
      </trkpt>
      <trkpt lat="44.83846" lon="6.76912">
        <ele>2661.6</ele>
        <time>2026-03-03T09:49:44.000Z</time>
      </trkpt>
      <trkpt lat="44.83846" lon="6.76913">
        <ele>2661.5</ele>
        <time>2026-03-03T09:49:45.000Z</time>
      </trkpt>
      <trkpt lat="44.83846" lon="6.76913">
        <ele>2661.5</ele>
        <time>2026-03-03T09:49:46.000Z</time>
      </trkpt>
      <trkpt lat="44.83847" lon="6.76914">
        <ele>2661.7</ele>
        <time>2026-03-03T09:49:47.000Z</time>
      </trkpt>
      <trkpt lat="44.83847" lon="6.76914">
        <ele>2662</ele>
        <time>2026-03-03T09:49:48.000Z</time>
      </trkpt>
      <trkpt lat="44.83848" lon="6.76915">
        <ele>2662.1</ele>
        <time>2026-03-03T09:49:49.000Z</time>
      </trkpt>
      <trkpt lat="44.83848" lon="6.76915">
        <ele>2662</ele>
        <time>2026-03-03T09:49:50.000Z</time>
      </trkpt>
      <trkpt lat="44.83848" lon="6.76916">
        <ele>2662.1</ele>
        <time>2026-03-03T09:49:51.000Z</time>
      </trkpt>
      <trkpt lat="44.83849" lon="6.76916">
        <ele>2662.1</ele>
        <time>2026-03-03T09:49:52.000Z</time>
      </trkpt>
      <trkpt lat="44.83849" lon="6.76916">
        <ele>2662.1</ele>
        <time>2026-03-03T09:49:53.000Z</time>
      </trkpt>
      <trkpt lat="44.83849" lon="6.76916">
        <ele>2662.1</ele>
        <time>2026-03-03T09:49:54.000Z</time>
      </trkpt>
      <trkpt lat="44.83849" lon="6.76916">
        <ele>2662.2</ele>
        <time>2026-03-03T09:49:55.000Z</time>
      </trkpt>
      <trkpt lat="44.8385" lon="6.76916">
        <ele>2662.3</ele>
        <time>2026-03-03T09:49:56.000Z</time>
      </trkpt>
      <trkpt lat="44.8385" lon="6.76916">
        <ele>2662.5</ele>
        <time>2026-03-03T09:49:57.000Z</time>
      </trkpt>
      <trkpt lat="44.8385" lon="6.76917">
        <ele>2662.9</ele>
        <time>2026-03-03T09:49:58.000Z</time>
      </trkpt>
      <trkpt lat="44.8385" lon="6.76917">
        <ele>2662.9</ele>
        <time>2026-03-03T09:49:59.000Z</time>
      </trkpt>
      <trkpt lat="44.8385" lon="6.76917">
        <ele>2662.9</ele>
        <time>2026-03-03T09:50:00.000Z</time>
      </trkpt>
      <trkpt lat="44.83851" lon="6.76918">
        <ele>2662.9</ele>
        <time>2026-03-03T09:50:01.000Z</time>
      </trkpt>
      <trkpt lat="44.83851" lon="6.76918">
        <ele>2662.8</ele>
        <time>2026-03-03T09:50:02.000Z</time>
      </trkpt>
      <trkpt lat="44.83851" lon="6.76919">
        <ele>2662.7</ele>
        <time>2026-03-03T09:50:03.000Z</time>
      </trkpt>
      <trkpt lat="44.83852" lon="6.7692">
        <ele>2662.5</ele>
        <time>2026-03-03T09:50:04.000Z</time>
      </trkpt>
      <trkpt lat="44.83852" lon="6.76921">
        <ele>2662.4</ele>
        <time>2026-03-03T09:50:05.000Z</time>
      </trkpt>
      <trkpt lat="44.83853" lon="6.76922">
        <ele>2662.3</ele>
        <time>2026-03-03T09:50:06.000Z</time>
      </trkpt>
      <trkpt lat="44.83853" lon="6.76922">
        <ele>2662.1</ele>
        <time>2026-03-03T09:50:07.000Z</time>
      </trkpt>
      <trkpt lat="44.83854" lon="6.76923">
        <ele>2662.1</ele>
        <time>2026-03-03T09:50:08.000Z</time>
      </trkpt>
      <trkpt lat="44.83854" lon="6.76923">
        <ele>2662.3</ele>
        <time>2026-03-03T09:50:09.000Z</time>
      </trkpt>
      <trkpt lat="44.83854" lon="6.76923">
        <ele>2662.4</ele>
        <time>2026-03-03T09:50:10.000Z</time>
      </trkpt>
      <trkpt lat="44.83854" lon="6.76923">
        <ele>2662.5</ele>
        <time>2026-03-03T09:50:11.000Z</time>
      </trkpt>
      <trkpt lat="44.83854" lon="6.76924">
        <ele>2662.6</ele>
        <time>2026-03-03T09:50:12.000Z</time>
      </trkpt>
      <trkpt lat="44.83854" lon="6.76925">
        <ele>2662.7</ele>
        <time>2026-03-03T09:50:13.000Z</time>
      </trkpt>
      <trkpt lat="44.83855" lon="6.76926">
        <ele>2662.8</ele>
        <time>2026-03-03T09:50:14.000Z</time>
      </trkpt>
      <trkpt lat="44.83856" lon="6.76927">
        <ele>2662.9</ele>
        <time>2026-03-03T09:50:15.000Z</time>
      </trkpt>
      <trkpt lat="44.83857" lon="6.76928">
        <ele>2663.1</ele>
        <time>2026-03-03T09:50:16.000Z</time>
      </trkpt>
      <trkpt lat="44.83857" lon="6.76929">
        <ele>2663.3</ele>
        <time>2026-03-03T09:50:17.000Z</time>
      </trkpt>
      <trkpt lat="44.83858" lon="6.7693">
        <ele>2663.3</ele>
        <time>2026-03-03T09:50:18.000Z</time>
      </trkpt>
      <trkpt lat="44.83859" lon="6.76931">
        <ele>2663.3</ele>
        <time>2026-03-03T09:50:19.000Z</time>
      </trkpt>
      <trkpt lat="44.8386" lon="6.76932">
        <ele>2663.5</ele>
        <time>2026-03-03T09:50:20.000Z</time>
      </trkpt>
      <trkpt lat="44.8386" lon="6.76932">
        <ele>2663.7</ele>
        <time>2026-03-03T09:50:21.000Z</time>
      </trkpt>
      <trkpt lat="44.8386" lon="6.76932">
        <ele>2664.2</ele>
        <time>2026-03-03T09:50:22.000Z</time>
      </trkpt>
      <trkpt lat="44.8386" lon="6.76932">
        <ele>2664.4</ele>
        <time>2026-03-03T09:50:23.000Z</time>
      </trkpt>
      <trkpt lat="44.8386" lon="6.76933">
        <ele>2664.6</ele>
        <time>2026-03-03T09:50:24.000Z</time>
      </trkpt>
      <trkpt lat="44.8386" lon="6.76933">
        <ele>2665</ele>
        <time>2026-03-03T09:50:25.000Z</time>
      </trkpt>
      <trkpt lat="44.83861" lon="6.76933">
        <ele>2665</ele>
        <time>2026-03-03T09:50:26.000Z</time>
      </trkpt>
      <trkpt lat="44.83861" lon="6.76933">
        <ele>2665.3</ele>
        <time>2026-03-03T09:50:27.000Z</time>
      </trkpt>
      <trkpt lat="44.83861" lon="6.76934">
        <ele>2665.5</ele>
        <time>2026-03-03T09:50:28.000Z</time>
      </trkpt>
      <trkpt lat="44.83862" lon="6.76934">
        <ele>2665.6</ele>
        <time>2026-03-03T09:50:29.000Z</time>
      </trkpt>
      <trkpt lat="44.83862" lon="6.76934">
        <ele>2665.7</ele>
        <time>2026-03-03T09:50:30.000Z</time>
      </trkpt>
      <trkpt lat="44.83863" lon="6.76934">
        <ele>2666</ele>
        <time>2026-03-03T09:50:31.000Z</time>
      </trkpt>
      <trkpt lat="44.83863" lon="6.76934">
        <ele>2666.3</ele>
        <time>2026-03-03T09:50:32.000Z</time>
      </trkpt>
      <trkpt lat="44.83863" lon="6.76934">
        <ele>2666.5</ele>
        <time>2026-03-03T09:50:33.000Z</time>
      </trkpt>
      <trkpt lat="44.83864" lon="6.76934">
        <ele>2666.8</ele>
        <time>2026-03-03T09:50:34.000Z</time>
      </trkpt>
      <trkpt lat="44.83864" lon="6.76935">
        <ele>2667.1</ele>
        <time>2026-03-03T09:50:35.000Z</time>
      </trkpt>
      <trkpt lat="44.83864" lon="6.76935">
        <ele>2667.4</ele>
        <time>2026-03-03T09:50:36.000Z</time>
      </trkpt>
      <trkpt lat="44.83864" lon="6.76935">
        <ele>2667.7</ele>
        <time>2026-03-03T09:50:37.000Z</time>
      </trkpt>
      <trkpt lat="44.83865" lon="6.76935">
        <ele>2668</ele>
        <time>2026-03-03T09:50:38.000Z</time>
      </trkpt>
      <trkpt lat="44.83865" lon="6.76935">
        <ele>2668.2</ele>
        <time>2026-03-03T09:50:39.000Z</time>
      </trkpt>
      <trkpt lat="44.83866" lon="6.76935">
        <ele>2668.5</ele>
        <time>2026-03-03T09:50:40.000Z</time>
      </trkpt>
      <trkpt lat="44.83867" lon="6.76936">
        <ele>2668.7</ele>
        <time>2026-03-03T09:50:41.000Z</time>
      </trkpt>
      <trkpt lat="44.83867" lon="6.76936">
        <ele>2669</ele>
        <time>2026-03-03T09:50:42.000Z</time>
      </trkpt>
      <trkpt lat="44.83868" lon="6.76937">
        <ele>2669.1</ele>
        <time>2026-03-03T09:50:43.000Z</time>
      </trkpt>
      <trkpt lat="44.83868" lon="6.76937">
        <ele>2669.3</ele>
        <time>2026-03-03T09:50:44.000Z</time>
      </trkpt>
      <trkpt lat="44.83868" lon="6.76938">
        <ele>2669.4</ele>
        <time>2026-03-03T09:50:45.000Z</time>
      </trkpt>
      <trkpt lat="44.83869" lon="6.76938">
        <ele>2669.4</ele>
        <time>2026-03-03T09:50:46.000Z</time>
      </trkpt>
      <trkpt lat="44.8387" lon="6.76938">
        <ele>2669.4</ele>
        <time>2026-03-03T09:50:47.000Z</time>
      </trkpt>
      <trkpt lat="44.8387" lon="6.76939">
        <ele>2669.5</ele>
        <time>2026-03-03T09:50:48.000Z</time>
      </trkpt>
      <trkpt lat="44.83871" lon="6.76939">
        <ele>2669.7</ele>
        <time>2026-03-03T09:50:49.000Z</time>
      </trkpt>
      <trkpt lat="44.83871" lon="6.76939">
        <ele>2669.8</ele>
        <time>2026-03-03T09:50:50.000Z</time>
      </trkpt>
      <trkpt lat="44.83871" lon="6.76939">
        <ele>2669.9</ele>
        <time>2026-03-03T09:50:51.000Z</time>
      </trkpt>
      <trkpt lat="44.83871" lon="6.7694">
        <ele>2670</ele>
        <time>2026-03-03T09:50:52.000Z</time>
      </trkpt>
      <trkpt lat="44.83872" lon="6.7694">
        <ele>2669.9</ele>
        <time>2026-03-03T09:50:53.000Z</time>
      </trkpt>
      <trkpt lat="44.83872" lon="6.7694">
        <ele>2670.1</ele>
        <time>2026-03-03T09:50:54.000Z</time>
      </trkpt>
      <trkpt lat="44.83872" lon="6.7694">
        <ele>2670.1</ele>
        <time>2026-03-03T09:50:55.000Z</time>
      </trkpt>
      <trkpt lat="44.83872" lon="6.7694">
        <ele>2670.2</ele>
        <time>2026-03-03T09:50:56.000Z</time>
      </trkpt>
      <trkpt lat="44.83872" lon="6.7694">
        <ele>2670.3</ele>
        <time>2026-03-03T09:50:57.000Z</time>
      </trkpt>
      <trkpt lat="44.83873" lon="6.76941">
        <ele>2670.4</ele>
        <time>2026-03-03T09:50:58.000Z</time>
      </trkpt>
      <trkpt lat="44.83873" lon="6.76941">
        <ele>2670.6</ele>
        <time>2026-03-03T09:50:59.000Z</time>
      </trkpt>
      <trkpt lat="44.83873" lon="6.76942">
        <ele>2670.7</ele>
        <time>2026-03-03T09:51:00.000Z</time>
      </trkpt>
      <trkpt lat="44.83874" lon="6.76942">
        <ele>2670.9</ele>
        <time>2026-03-03T09:51:01.000Z</time>
      </trkpt>
      <trkpt lat="44.83874" lon="6.76942">
        <ele>2671.1</ele>
        <time>2026-03-03T09:51:02.000Z</time>
      </trkpt>
      <trkpt lat="44.83874" lon="6.76943">
        <ele>2671.4</ele>
        <time>2026-03-03T09:51:03.000Z</time>
      </trkpt>
      <trkpt lat="44.83875" lon="6.76943">
        <ele>2671.6</ele>
        <time>2026-03-03T09:51:04.000Z</time>
      </trkpt>
      <trkpt lat="44.83875" lon="6.76944">
        <ele>2671.8</ele>
        <time>2026-03-03T09:51:05.000Z</time>
      </trkpt>
      <trkpt lat="44.83876" lon="6.76944">
        <ele>2672</ele>
        <time>2026-03-03T09:51:06.000Z</time>
      </trkpt>
      <trkpt lat="44.83877" lon="6.76945">
        <ele>2672.1</ele>
        <time>2026-03-03T09:51:07.000Z</time>
      </trkpt>
      <trkpt lat="44.83877" lon="6.76945">
        <ele>2672.4</ele>
        <time>2026-03-03T09:51:08.000Z</time>
      </trkpt>
      <trkpt lat="44.83877" lon="6.76946">
        <ele>2672.4</ele>
        <time>2026-03-03T09:51:09.000Z</time>
      </trkpt>
      <trkpt lat="44.83878" lon="6.76946">
        <ele>2672.6</ele>
        <time>2026-03-03T09:51:10.000Z</time>
      </trkpt>
      <trkpt lat="44.83878" lon="6.76946">
        <ele>2672.7</ele>
        <time>2026-03-03T09:51:11.000Z</time>
      </trkpt>
      <trkpt lat="44.83878" lon="6.76946">
        <ele>2672.7</ele>
        <time>2026-03-03T09:51:12.000Z</time>
      </trkpt>
      <trkpt lat="44.83878" lon="6.76946">
        <ele>2672.8</ele>
        <time>2026-03-03T09:51:13.000Z</time>
      </trkpt>
      <trkpt lat="44.83878" lon="6.76947">
        <ele>2672.8</ele>
        <time>2026-03-03T09:51:14.000Z</time>
      </trkpt>
      <trkpt lat="44.83879" lon="6.76948">
        <ele>2672.8</ele>
        <time>2026-03-03T09:51:15.000Z</time>
      </trkpt>
      <trkpt lat="44.8388" lon="6.76949">
        <ele>2672.8</ele>
        <time>2026-03-03T09:51:16.000Z</time>
      </trkpt>
      <trkpt lat="44.83881" lon="6.7695">
        <ele>2672.8</ele>
        <time>2026-03-03T09:51:17.000Z</time>
      </trkpt>
      <trkpt lat="44.83882" lon="6.76951">
        <ele>2673</ele>
        <time>2026-03-03T09:51:18.000Z</time>
      </trkpt>
      <trkpt lat="44.83882" lon="6.76951">
        <ele>2673.1</ele>
        <time>2026-03-03T09:51:19.000Z</time>
      </trkpt>
      <trkpt lat="44.83882" lon="6.76951">
        <ele>2673.2</ele>
        <time>2026-03-03T09:51:20.000Z</time>
      </trkpt>
      <trkpt lat="44.83883" lon="6.76951">
        <ele>2673.5</ele>
        <time>2026-03-03T09:51:21.000Z</time>
      </trkpt>
      <trkpt lat="44.83883" lon="6.76951">
        <ele>2673.7</ele>
        <time>2026-03-03T09:51:22.000Z</time>
      </trkpt>
      <trkpt lat="44.83883" lon="6.76952">
        <ele>2673.9</ele>
        <time>2026-03-03T09:51:23.000Z</time>
      </trkpt>
      <trkpt lat="44.83884" lon="6.76952">
        <ele>2674.2</ele>
        <time>2026-03-03T09:51:24.000Z</time>
      </trkpt>
      <trkpt lat="44.83884" lon="6.76953">
        <ele>2674.3</ele>
        <time>2026-03-03T09:51:25.000Z</time>
      </trkpt>
      <trkpt lat="44.83885" lon="6.76953">
        <ele>2674.6</ele>
        <time>2026-03-03T09:51:26.000Z</time>
      </trkpt>
      <trkpt lat="44.83886" lon="6.76953">
        <ele>2674.9</ele>
        <time>2026-03-03T09:51:27.000Z</time>
      </trkpt>
      <trkpt lat="44.83887" lon="6.76954">
        <ele>2675.3</ele>
        <time>2026-03-03T09:51:28.000Z</time>
      </trkpt>
      <trkpt lat="44.83887" lon="6.76954">
        <ele>2675.5</ele>
        <time>2026-03-03T09:51:29.000Z</time>
      </trkpt>
      <trkpt lat="44.83888" lon="6.76955">
        <ele>2675.8</ele>
        <time>2026-03-03T09:51:30.000Z</time>
      </trkpt>
      <trkpt lat="44.83888" lon="6.76956">
        <ele>2676</ele>
        <time>2026-03-03T09:51:31.000Z</time>
      </trkpt>
      <trkpt lat="44.83888" lon="6.76956">
        <ele>2676</ele>
        <time>2026-03-03T09:51:32.000Z</time>
      </trkpt>
      <trkpt lat="44.83888" lon="6.76956">
        <ele>2676.1</ele>
        <time>2026-03-03T09:51:33.000Z</time>
      </trkpt>
      <trkpt lat="44.83888" lon="6.76956">
        <ele>2676.1</ele>
        <time>2026-03-03T09:51:34.000Z</time>
      </trkpt>
      <trkpt lat="44.83889" lon="6.76956">
        <ele>2676.3</ele>
        <time>2026-03-03T09:51:35.000Z</time>
      </trkpt>
      <trkpt lat="44.8389" lon="6.76957">
        <ele>2676.5</ele>
        <time>2026-03-03T09:51:36.000Z</time>
      </trkpt>
      <trkpt lat="44.83891" lon="6.76957">
        <ele>2676.6</ele>
        <time>2026-03-03T09:51:37.000Z</time>
      </trkpt>
      <trkpt lat="44.83892" lon="6.76958">
        <ele>2676.7</ele>
        <time>2026-03-03T09:51:38.000Z</time>
      </trkpt>
      <trkpt lat="44.83893" lon="6.76958">
        <ele>2676.7</ele>
        <time>2026-03-03T09:51:39.000Z</time>
      </trkpt>
      <trkpt lat="44.83893" lon="6.76958">
        <ele>2676.8</ele>
        <time>2026-03-03T09:51:40.000Z</time>
      </trkpt>
      <trkpt lat="44.83893" lon="6.76959">
        <ele>2676.7</ele>
        <time>2026-03-03T09:51:41.000Z</time>
      </trkpt>
      <trkpt lat="44.83893" lon="6.76959">
        <ele>2676.9</ele>
        <time>2026-03-03T09:51:42.000Z</time>
      </trkpt>
      <trkpt lat="44.83893" lon="6.76959">
        <ele>2676.9</ele>
        <time>2026-03-03T09:51:43.000Z</time>
      </trkpt>
      <trkpt lat="44.83893" lon="6.7696">
        <ele>2677</ele>
        <time>2026-03-03T09:51:44.000Z</time>
      </trkpt>
      <trkpt lat="44.83894" lon="6.7696">
        <ele>2677</ele>
        <time>2026-03-03T09:51:45.000Z</time>
      </trkpt>
      <trkpt lat="44.83895" lon="6.7696">
        <ele>2677.1</ele>
        <time>2026-03-03T09:51:46.000Z</time>
      </trkpt>
      <trkpt lat="44.83895" lon="6.76961">
        <ele>2677.1</ele>
        <time>2026-03-03T09:51:47.000Z</time>
      </trkpt>
      <trkpt lat="44.83896" lon="6.76962">
        <ele>2677.2</ele>
        <time>2026-03-03T09:51:48.000Z</time>
      </trkpt>
      <trkpt lat="44.83896" lon="6.76962">
        <ele>2677.3</ele>
        <time>2026-03-03T09:51:49.000Z</time>
      </trkpt>
      <trkpt lat="44.83897" lon="6.76963">
        <ele>2677.2</ele>
        <time>2026-03-03T09:51:50.000Z</time>
      </trkpt>
      <trkpt lat="44.83897" lon="6.76963">
        <ele>2677.3</ele>
        <time>2026-03-03T09:51:51.000Z</time>
      </trkpt>
      <trkpt lat="44.83898" lon="6.76963">
        <ele>2677.2</ele>
        <time>2026-03-03T09:51:52.000Z</time>
      </trkpt>
      <trkpt lat="44.83898" lon="6.76964">
        <ele>2677.2</ele>
        <time>2026-03-03T09:51:53.000Z</time>
      </trkpt>
      <trkpt lat="44.83898" lon="6.76964">
        <ele>2677.3</ele>
        <time>2026-03-03T09:51:54.000Z</time>
      </trkpt>
      <trkpt lat="44.83899" lon="6.76964">
        <ele>2677.4</ele>
        <time>2026-03-03T09:51:55.000Z</time>
      </trkpt>
      <trkpt lat="44.83899" lon="6.76965">
        <ele>2677.5</ele>
        <time>2026-03-03T09:51:56.000Z</time>
      </trkpt>
      <trkpt lat="44.83899" lon="6.76965">
        <ele>2677.7</ele>
        <time>2026-03-03T09:51:57.000Z</time>
      </trkpt>
      <trkpt lat="44.83899" lon="6.76965">
        <ele>2678</ele>
        <time>2026-03-03T09:51:58.000Z</time>
      </trkpt>
      <trkpt lat="44.839" lon="6.76966">
        <ele>2678.1</ele>
        <time>2026-03-03T09:51:59.000Z</time>
      </trkpt>
      <trkpt lat="44.839" lon="6.76966">
        <ele>2678.1</ele>
        <time>2026-03-03T09:52:00.000Z</time>
      </trkpt>
      <trkpt lat="44.83901" lon="6.76966">
        <ele>2678.2</ele>
        <time>2026-03-03T09:52:01.000Z</time>
      </trkpt>
      <trkpt lat="44.83901" lon="6.76967">
        <ele>2678.4</ele>
        <time>2026-03-03T09:52:02.000Z</time>
      </trkpt>
      <trkpt lat="44.83901" lon="6.76967">
        <ele>2678.6</ele>
        <time>2026-03-03T09:52:03.000Z</time>
      </trkpt>
      <trkpt lat="44.83901" lon="6.76967">
        <ele>2678.6</ele>
        <time>2026-03-03T09:52:04.000Z</time>
      </trkpt>
      <trkpt lat="44.83901" lon="6.76967">
        <ele>2678.7</ele>
        <time>2026-03-03T09:52:05.000Z</time>
      </trkpt>
      <trkpt lat="44.83902" lon="6.76968">
        <ele>2679</ele>
        <time>2026-03-03T09:52:06.000Z</time>
      </trkpt>
      <trkpt lat="44.83903" lon="6.76968">
        <ele>2679.3</ele>
        <time>2026-03-03T09:52:07.000Z</time>
      </trkpt>
      <trkpt lat="44.83904" lon="6.76968">
        <ele>2679.6</ele>
        <time>2026-03-03T09:52:08.000Z</time>
      </trkpt>
      <trkpt lat="44.83904" lon="6.76969">
        <ele>2679.6</ele>
        <time>2026-03-03T09:52:09.000Z</time>
      </trkpt>
      <trkpt lat="44.83905" lon="6.76969">
        <ele>2679.8</ele>
        <time>2026-03-03T09:52:10.000Z</time>
      </trkpt>
      <trkpt lat="44.83905" lon="6.7697">
        <ele>2679.9</ele>
        <time>2026-03-03T09:52:11.000Z</time>
      </trkpt>
      <trkpt lat="44.83905" lon="6.7697">
        <ele>2680.2</ele>
        <time>2026-03-03T09:52:12.000Z</time>
      </trkpt>
      <trkpt lat="44.83905" lon="6.76971">
        <ele>2680.5</ele>
        <time>2026-03-03T09:52:13.000Z</time>
      </trkpt>
      <trkpt lat="44.83905" lon="6.76971">
        <ele>2680.7</ele>
        <time>2026-03-03T09:52:14.000Z</time>
      </trkpt>
      <trkpt lat="44.83905" lon="6.76971">
        <ele>2681.1</ele>
        <time>2026-03-03T09:52:15.000Z</time>
      </trkpt>
      <trkpt lat="44.83905" lon="6.76972">
        <ele>2681.5</ele>
        <time>2026-03-03T09:52:16.000Z</time>
      </trkpt>
      <trkpt lat="44.83905" lon="6.76972">
        <ele>2681.6</ele>
        <time>2026-03-03T09:52:17.000Z</time>
      </trkpt>
      <trkpt lat="44.83904" lon="6.76973">
        <ele>2681.7</ele>
        <time>2026-03-03T09:52:18.000Z</time>
      </trkpt>
      <trkpt lat="44.83904" lon="6.76974">
        <ele>2681.7</ele>
        <time>2026-03-03T09:52:19.000Z</time>
      </trkpt>
      <trkpt lat="44.83904" lon="6.76975">
        <ele>2681.9</ele>
        <time>2026-03-03T09:52:20.000Z</time>
      </trkpt>
      <trkpt lat="44.83903" lon="6.76975">
        <ele>2682.1</ele>
        <time>2026-03-03T09:52:21.000Z</time>
      </trkpt>
      <trkpt lat="44.83903" lon="6.76975">
        <ele>2682.2</ele>
        <time>2026-03-03T09:52:22.000Z</time>
      </trkpt>
      <trkpt lat="44.83903" lon="6.76976">
        <ele>2682.1</ele>
        <time>2026-03-03T09:52:23.000Z</time>
      </trkpt>
      <trkpt lat="44.83903" lon="6.76976">
        <ele>2682.1</ele>
        <time>2026-03-03T09:52:24.000Z</time>
      </trkpt>
      <trkpt lat="44.83903" lon="6.76977">
        <ele>2682.3</ele>
        <time>2026-03-03T09:52:25.000Z</time>
      </trkpt>
      <trkpt lat="44.83903" lon="6.76977">
        <ele>2682.4</ele>
        <time>2026-03-03T09:52:26.000Z</time>
      </trkpt>
      <trkpt lat="44.83903" lon="6.76978">
        <ele>2682.4</ele>
        <time>2026-03-03T09:52:27.000Z</time>
      </trkpt>
      <trkpt lat="44.83902" lon="6.76978">
        <ele>2682.4</ele>
        <time>2026-03-03T09:52:28.000Z</time>
      </trkpt>
      <trkpt lat="44.83902" lon="6.76978">
        <ele>2682.4</ele>
        <time>2026-03-03T09:52:29.000Z</time>
      </trkpt>
      <trkpt lat="44.83902" lon="6.76979">
        <ele>2682.5</ele>
        <time>2026-03-03T09:52:30.000Z</time>
      </trkpt>
      <trkpt lat="44.83901" lon="6.76979">
        <ele>2682.7</ele>
        <time>2026-03-03T09:52:31.000Z</time>
      </trkpt>
      <trkpt lat="44.83901" lon="6.7698">
        <ele>2682.9</ele>
        <time>2026-03-03T09:52:32.000Z</time>
      </trkpt>
      <trkpt lat="44.83901" lon="6.76981">
        <ele>2682.9</ele>
        <time>2026-03-03T09:52:33.000Z</time>
      </trkpt>
      <trkpt lat="44.83901" lon="6.76982">
        <ele>2682.8</ele>
        <time>2026-03-03T09:52:34.000Z</time>
      </trkpt>
      <trkpt lat="44.839" lon="6.76983">
        <ele>2682.8</ele>
        <time>2026-03-03T09:52:35.000Z</time>
      </trkpt>
      <trkpt lat="44.839" lon="6.76984">
        <ele>2682.8</ele>
        <time>2026-03-03T09:52:36.000Z</time>
      </trkpt>
      <trkpt lat="44.83899" lon="6.76984">
        <ele>2682.9</ele>
        <time>2026-03-03T09:52:37.000Z</time>
      </trkpt>
      <trkpt lat="44.83899" lon="6.76984">
        <ele>2682.9</ele>
        <time>2026-03-03T09:52:38.000Z</time>
      </trkpt>
      <trkpt lat="44.83899" lon="6.76985">
        <ele>2683</ele>
        <time>2026-03-03T09:52:39.000Z</time>
      </trkpt>
      <trkpt lat="44.83899" lon="6.76986">
        <ele>2683.1</ele>
        <time>2026-03-03T09:52:40.000Z</time>
      </trkpt>
      <trkpt lat="44.83898" lon="6.76987">
        <ele>2683.2</ele>
        <time>2026-03-03T09:52:41.000Z</time>
      </trkpt>
      <trkpt lat="44.83898" lon="6.76987">
        <ele>2683.2</ele>
        <time>2026-03-03T09:52:42.000Z</time>
      </trkpt>
      <trkpt lat="44.83898" lon="6.76988">
        <ele>2683.2</ele>
        <time>2026-03-03T09:52:43.000Z</time>
      </trkpt>
      <trkpt lat="44.83897" lon="6.76988">
        <ele>2683.5</ele>
        <time>2026-03-03T09:52:44.000Z</time>
      </trkpt>
      <trkpt lat="44.83897" lon="6.76989">
        <ele>2683.8</ele>
        <time>2026-03-03T09:52:45.000Z</time>
      </trkpt>
      <trkpt lat="44.83896" lon="6.76989">
        <ele>2684.1</ele>
        <time>2026-03-03T09:52:46.000Z</time>
      </trkpt>
      <trkpt lat="44.83896" lon="6.76989">
        <ele>2684.3</ele>
        <time>2026-03-03T09:52:47.000Z</time>
      </trkpt>
      <trkpt lat="44.83896" lon="6.7699">
        <ele>2684.4</ele>
        <time>2026-03-03T09:52:48.000Z</time>
      </trkpt>
      <trkpt lat="44.83896" lon="6.7699">
        <ele>2684.6</ele>
        <time>2026-03-03T09:52:49.000Z</time>
      </trkpt>
      <trkpt lat="44.83895" lon="6.76991">
        <ele>2684.9</ele>
        <time>2026-03-03T09:52:50.000Z</time>
      </trkpt>
      <trkpt lat="44.83895" lon="6.76992">
        <ele>2685</ele>
        <time>2026-03-03T09:52:51.000Z</time>
      </trkpt>
      <trkpt lat="44.83894" lon="6.76993">
        <ele>2685.2</ele>
        <time>2026-03-03T09:52:52.000Z</time>
      </trkpt>
      <trkpt lat="44.83894" lon="6.76994">
        <ele>2685.2</ele>
        <time>2026-03-03T09:52:53.000Z</time>
      </trkpt>
      <trkpt lat="44.83895" lon="6.76994">
        <ele>2685.3</ele>
        <time>2026-03-03T09:52:54.000Z</time>
      </trkpt>
      <trkpt lat="44.83894" lon="6.76994">
        <ele>2685.5</ele>
        <time>2026-03-03T09:52:55.000Z</time>
      </trkpt>
      <trkpt lat="44.83894" lon="6.76994">
        <ele>2685.7</ele>
        <time>2026-03-03T09:52:56.000Z</time>
      </trkpt>
      <trkpt lat="44.83894" lon="6.76995">
        <ele>2686.1</ele>
        <time>2026-03-03T09:52:57.000Z</time>
      </trkpt>
      <trkpt lat="44.83894" lon="6.76995">
        <ele>2686.3</ele>
        <time>2026-03-03T09:52:58.000Z</time>
      </trkpt>
      <trkpt lat="44.83895" lon="6.76996">
        <ele>2686.4</ele>
        <time>2026-03-03T09:52:59.000Z</time>
      </trkpt>
      <trkpt lat="44.83895" lon="6.76997">
        <ele>2686.5</ele>
        <time>2026-03-03T09:53:00.000Z</time>
      </trkpt>
      <trkpt lat="44.83896" lon="6.76998">
        <ele>2686.5</ele>
        <time>2026-03-03T09:53:01.000Z</time>
      </trkpt>
      <trkpt lat="44.83897" lon="6.76998">
        <ele>2686.6</ele>
        <time>2026-03-03T09:53:02.000Z</time>
      </trkpt>
      <trkpt lat="44.83898" lon="6.76998">
        <ele>2686.6</ele>
        <time>2026-03-03T09:53:03.000Z</time>
      </trkpt>
      <trkpt lat="44.83898" lon="6.76999">
        <ele>2686.8</ele>
        <time>2026-03-03T09:53:04.000Z</time>
      </trkpt>
      <trkpt lat="44.83899" lon="6.76998">
        <ele>2687.2</ele>
        <time>2026-03-03T09:53:05.000Z</time>
      </trkpt>
      <trkpt lat="44.839" lon="6.76999">
        <ele>2687.4</ele>
        <time>2026-03-03T09:53:06.000Z</time>
      </trkpt>
      <trkpt lat="44.839" lon="6.76999">
        <ele>2687.7</ele>
        <time>2026-03-03T09:53:07.000Z</time>
      </trkpt>
      <trkpt lat="44.839" lon="6.76999">
        <ele>2687.9</ele>
        <time>2026-03-03T09:53:08.000Z</time>
      </trkpt>
      <trkpt lat="44.83901" lon="6.76999">
        <ele>2688.1</ele>
        <time>2026-03-03T09:53:09.000Z</time>
      </trkpt>
      <trkpt lat="44.83901" lon="6.76999">
        <ele>2688.3</ele>
        <time>2026-03-03T09:53:10.000Z</time>
      </trkpt>
      <trkpt lat="44.83902" lon="6.76999">
        <ele>2688.6</ele>
        <time>2026-03-03T09:53:11.000Z</time>
      </trkpt>
      <trkpt lat="44.83902" lon="6.76999">
        <ele>2689.1</ele>
        <time>2026-03-03T09:53:12.000Z</time>
      </trkpt>
      <trkpt lat="44.83902" lon="6.76999">
        <ele>2689.3</ele>
        <time>2026-03-03T09:53:13.000Z</time>
      </trkpt>
      <trkpt lat="44.83902" lon="6.76999">
        <ele>2689.5</ele>
        <time>2026-03-03T09:53:14.000Z</time>
      </trkpt>
      <trkpt lat="44.83902" lon="6.77">
        <ele>2689.7</ele>
        <time>2026-03-03T09:53:15.000Z</time>
      </trkpt>
      <trkpt lat="44.83903" lon="6.77">
        <ele>2689.8</ele>
        <time>2026-03-03T09:53:16.000Z</time>
      </trkpt>
      <trkpt lat="44.83903" lon="6.77001">
        <ele>2689.9</ele>
        <time>2026-03-03T09:53:17.000Z</time>
      </trkpt>
      <trkpt lat="44.83904" lon="6.77001">
        <ele>2690.1</ele>
        <time>2026-03-03T09:53:18.000Z</time>
      </trkpt>
      <trkpt lat="44.83904" lon="6.77001">
        <ele>2690.4</ele>
        <time>2026-03-03T09:53:19.000Z</time>
      </trkpt>
      <trkpt lat="44.83905" lon="6.77001">
        <ele>2690.8</ele>
        <time>2026-03-03T09:53:20.000Z</time>
      </trkpt>
      <trkpt lat="44.83905" lon="6.77001">
        <ele>2691</ele>
        <time>2026-03-03T09:53:21.000Z</time>
      </trkpt>
      <trkpt lat="44.83906" lon="6.77001">
        <ele>2691.4</ele>
        <time>2026-03-03T09:53:22.000Z</time>
      </trkpt>
      <trkpt lat="44.83907" lon="6.77001">
        <ele>2691.8</ele>
        <time>2026-03-03T09:53:23.000Z</time>
      </trkpt>
      <trkpt lat="44.83907" lon="6.77001">
        <ele>2691.9</ele>
        <time>2026-03-03T09:53:24.000Z</time>
      </trkpt>
      <trkpt lat="44.83908" lon="6.77002">
        <ele>2692</ele>
        <time>2026-03-03T09:53:25.000Z</time>
      </trkpt>
      <trkpt lat="44.83908" lon="6.77002">
        <ele>2692.2</ele>
        <time>2026-03-03T09:53:26.000Z</time>
      </trkpt>
      <trkpt lat="44.83908" lon="6.77003">
        <ele>2692.3</ele>
        <time>2026-03-03T09:53:27.000Z</time>
      </trkpt>
      <trkpt lat="44.83908" lon="6.77003">
        <ele>2692</ele>
        <time>2026-03-03T09:53:28.000Z</time>
      </trkpt>
      <trkpt lat="44.83908" lon="6.77003">
        <ele>2692.1</ele>
        <time>2026-03-03T09:53:29.000Z</time>
      </trkpt>
      <trkpt lat="44.83909" lon="6.77003">
        <ele>2692.3</ele>
        <time>2026-03-03T09:53:30.000Z</time>
      </trkpt>
      <trkpt lat="44.83909" lon="6.77004">
        <ele>2692.6</ele>
        <time>2026-03-03T09:53:31.000Z</time>
      </trkpt>
      <trkpt lat="44.8391" lon="6.77005">
        <ele>2692.7</ele>
        <time>2026-03-03T09:53:32.000Z</time>
      </trkpt>
      <trkpt lat="44.8391" lon="6.77006">
        <ele>2692.8</ele>
        <time>2026-03-03T09:53:33.000Z</time>
      </trkpt>
      <trkpt lat="44.8391" lon="6.77007">
        <ele>2692.9</ele>
        <time>2026-03-03T09:53:34.000Z</time>
      </trkpt>
      <trkpt lat="44.83909" lon="6.77007">
        <ele>2692.8</ele>
        <time>2026-03-03T09:53:35.000Z</time>
      </trkpt>
      <trkpt lat="44.83909" lon="6.77008">
        <ele>2692.9</ele>
        <time>2026-03-03T09:53:36.000Z</time>
      </trkpt>
      <trkpt lat="44.83909" lon="6.77008">
        <ele>2692.9</ele>
        <time>2026-03-03T09:53:37.000Z</time>
      </trkpt>
      <trkpt lat="44.83909" lon="6.77009">
        <ele>2692.8</ele>
        <time>2026-03-03T09:53:38.000Z</time>
      </trkpt>
      <trkpt lat="44.83909" lon="6.77009">
        <ele>2692.9</ele>
        <time>2026-03-03T09:53:39.000Z</time>
      </trkpt>
      <trkpt lat="44.83909" lon="6.77009">
        <ele>2693</ele>
        <time>2026-03-03T09:53:40.000Z</time>
      </trkpt>
      <trkpt lat="44.83909" lon="6.77009">
        <ele>2693.3</ele>
        <time>2026-03-03T09:53:41.000Z</time>
      </trkpt>
      <trkpt lat="44.83909" lon="6.7701">
        <ele>2693.5</ele>
        <time>2026-03-03T09:53:42.000Z</time>
      </trkpt>
      <trkpt lat="44.83908" lon="6.7701">
        <ele>2693.6</ele>
        <time>2026-03-03T09:53:43.000Z</time>
      </trkpt>
      <trkpt lat="44.83908" lon="6.77011">
        <ele>2693.8</ele>
        <time>2026-03-03T09:53:44.000Z</time>
      </trkpt>
      <trkpt lat="44.83907" lon="6.77012">
        <ele>2693.9</ele>
        <time>2026-03-03T09:53:45.000Z</time>
      </trkpt>
      <trkpt lat="44.83906" lon="6.77013">
        <ele>2693.9</ele>
        <time>2026-03-03T09:53:46.000Z</time>
      </trkpt>
      <trkpt lat="44.83906" lon="6.77013">
        <ele>2694</ele>
        <time>2026-03-03T09:53:47.000Z</time>
      </trkpt>
      <trkpt lat="44.83905" lon="6.77014">
        <ele>2694.1</ele>
        <time>2026-03-03T09:53:48.000Z</time>
      </trkpt>
      <trkpt lat="44.83905" lon="6.77014">
        <ele>2694.2</ele>
        <time>2026-03-03T09:53:49.000Z</time>
      </trkpt>
      <trkpt lat="44.83905" lon="6.77014">
        <ele>2694.3</ele>
        <time>2026-03-03T09:53:50.000Z</time>
      </trkpt>
      <trkpt lat="44.83904" lon="6.77015">
        <ele>2694.4</ele>
        <time>2026-03-03T09:53:51.000Z</time>
      </trkpt>
      <trkpt lat="44.83904" lon="6.77015">
        <ele>2694.4</ele>
        <time>2026-03-03T09:53:52.000Z</time>
      </trkpt>
      <trkpt lat="44.83904" lon="6.77016">
        <ele>2694.6</ele>
        <time>2026-03-03T09:53:53.000Z</time>
      </trkpt>
      <trkpt lat="44.83904" lon="6.77016">
        <ele>2694.8</ele>
        <time>2026-03-03T09:53:54.000Z</time>
      </trkpt>
      <trkpt lat="44.83903" lon="6.77017">
        <ele>2694.8</ele>
        <time>2026-03-03T09:53:55.000Z</time>
      </trkpt>
      <trkpt lat="44.83903" lon="6.77018">
        <ele>2694.9</ele>
        <time>2026-03-03T09:53:56.000Z</time>
      </trkpt>
      <trkpt lat="44.83902" lon="6.77018">
        <ele>2694.9</ele>
        <time>2026-03-03T09:53:57.000Z</time>
      </trkpt>
      <trkpt lat="44.83902" lon="6.77019">
        <ele>2694.9</ele>
        <time>2026-03-03T09:53:58.000Z</time>
      </trkpt>
      <trkpt lat="44.83901" lon="6.77019">
        <ele>2695</ele>
        <time>2026-03-03T09:53:59.000Z</time>
      </trkpt>
      <trkpt lat="44.83901" lon="6.77019">
        <ele>2695.2</ele>
        <time>2026-03-03T09:54:00.000Z</time>
      </trkpt>
      <trkpt lat="44.83901" lon="6.7702">
        <ele>2695.2</ele>
        <time>2026-03-03T09:54:01.000Z</time>
      </trkpt>
      <trkpt lat="44.83901" lon="6.7702">
        <ele>2695.3</ele>
        <time>2026-03-03T09:54:02.000Z</time>
      </trkpt>
      <trkpt lat="44.83901" lon="6.7702">
        <ele>2695.4</ele>
        <time>2026-03-03T09:54:03.000Z</time>
      </trkpt>
      <trkpt lat="44.83901" lon="6.77021">
        <ele>2695.5</ele>
        <time>2026-03-03T09:54:04.000Z</time>
      </trkpt>
      <trkpt lat="44.839" lon="6.77022">
        <ele>2695.6</ele>
        <time>2026-03-03T09:54:05.000Z</time>
      </trkpt>
      <trkpt lat="44.839" lon="6.77023">
        <ele>2695.8</ele>
        <time>2026-03-03T09:54:06.000Z</time>
      </trkpt>
      <trkpt lat="44.839" lon="6.77023">
        <ele>2695.9</ele>
        <time>2026-03-03T09:54:07.000Z</time>
      </trkpt>
      <trkpt lat="44.83899" lon="6.77023">
        <ele>2696.1</ele>
        <time>2026-03-03T09:54:08.000Z</time>
      </trkpt>
      <trkpt lat="44.83899" lon="6.77023">
        <ele>2696.4</ele>
        <time>2026-03-03T09:54:09.000Z</time>
      </trkpt>
      <trkpt lat="44.83899" lon="6.77023">
        <ele>2696.5</ele>
        <time>2026-03-03T09:54:10.000Z</time>
      </trkpt>
      <trkpt lat="44.83899" lon="6.77024">
        <ele>2696.6</ele>
        <time>2026-03-03T09:54:11.000Z</time>
      </trkpt>
      <trkpt lat="44.83898" lon="6.77024">
        <ele>2696.8</ele>
        <time>2026-03-03T09:54:12.000Z</time>
      </trkpt>
      <trkpt lat="44.83898" lon="6.77025">
        <ele>2696.8</ele>
        <time>2026-03-03T09:54:13.000Z</time>
      </trkpt>
      <trkpt lat="44.83898" lon="6.77025">
        <ele>2697</ele>
        <time>2026-03-03T09:54:14.000Z</time>
      </trkpt>
      <trkpt lat="44.83898" lon="6.77025">
        <ele>2697.2</ele>
        <time>2026-03-03T09:54:15.000Z</time>
      </trkpt>
      <trkpt lat="44.83898" lon="6.77025">
        <ele>2697.5</ele>
        <time>2026-03-03T09:54:16.000Z</time>
      </trkpt>
      <trkpt lat="44.83897" lon="6.77026">
        <ele>2697.5</ele>
        <time>2026-03-03T09:54:17.000Z</time>
      </trkpt>
      <trkpt lat="44.83897" lon="6.77027">
        <ele>2697.6</ele>
        <time>2026-03-03T09:54:18.000Z</time>
      </trkpt>
      <trkpt lat="44.83896" lon="6.77027">
        <ele>2697.8</ele>
        <time>2026-03-03T09:54:19.000Z</time>
      </trkpt>
      <trkpt lat="44.83896" lon="6.77028">
        <ele>2697.8</ele>
        <time>2026-03-03T09:54:20.000Z</time>
      </trkpt>
      <trkpt lat="44.83896" lon="6.77029">
        <ele>2697.8</ele>
        <time>2026-03-03T09:54:21.000Z</time>
      </trkpt>
      <trkpt lat="44.83895" lon="6.77029">
        <ele>2697.9</ele>
        <time>2026-03-03T09:54:22.000Z</time>
      </trkpt>
      <trkpt lat="44.83895" lon="6.7703">
        <ele>2698.1</ele>
        <time>2026-03-03T09:54:23.000Z</time>
      </trkpt>
      <trkpt lat="44.83895" lon="6.7703">
        <ele>2698</ele>
        <time>2026-03-03T09:54:24.000Z</time>
      </trkpt>
      <trkpt lat="44.83895" lon="6.7703">
        <ele>2698.1</ele>
        <time>2026-03-03T09:54:25.000Z</time>
      </trkpt>
      <trkpt lat="44.83895" lon="6.77031">
        <ele>2698.3</ele>
        <time>2026-03-03T09:54:26.000Z</time>
      </trkpt>
      <trkpt lat="44.83894" lon="6.77031">
        <ele>2698.4</ele>
        <time>2026-03-03T09:54:27.000Z</time>
      </trkpt>
      <trkpt lat="44.83894" lon="6.77031">
        <ele>2698.6</ele>
        <time>2026-03-03T09:54:28.000Z</time>
      </trkpt>
      <trkpt lat="44.83894" lon="6.77032">
        <ele>2698.8</ele>
        <time>2026-03-03T09:54:29.000Z</time>
      </trkpt>
      <trkpt lat="44.83893" lon="6.77033">
        <ele>2699</ele>
        <time>2026-03-03T09:54:30.000Z</time>
      </trkpt>
      <trkpt lat="44.83892" lon="6.77033">
        <ele>2699.1</ele>
        <time>2026-03-03T09:54:31.000Z</time>
      </trkpt>
      <trkpt lat="44.83892" lon="6.77033">
        <ele>2699.2</ele>
        <time>2026-03-03T09:54:32.000Z</time>
      </trkpt>
      <trkpt lat="44.83892" lon="6.77033">
        <ele>2699.2</ele>
        <time>2026-03-03T09:54:33.000Z</time>
      </trkpt>
      <trkpt lat="44.83892" lon="6.77033">
        <ele>2699.4</ele>
        <time>2026-03-03T09:54:34.000Z</time>
      </trkpt>
      <trkpt lat="44.83891" lon="6.77034">
        <ele>2699.4</ele>
        <time>2026-03-03T09:54:35.000Z</time>
      </trkpt>
      <trkpt lat="44.83891" lon="6.77034">
        <ele>2699.5</ele>
        <time>2026-03-03T09:54:36.000Z</time>
      </trkpt>
      <trkpt lat="44.83891" lon="6.77034">
        <ele>2699.5</ele>
        <time>2026-03-03T09:54:37.000Z</time>
      </trkpt>
      <trkpt lat="44.83891" lon="6.77035">
        <ele>2699.6</ele>
        <time>2026-03-03T09:54:38.000Z</time>
      </trkpt>
      <trkpt lat="44.8389" lon="6.77036">
        <ele>2699.7</ele>
        <time>2026-03-03T09:54:39.000Z</time>
      </trkpt>
      <trkpt lat="44.83889" lon="6.77038">
        <ele>2699.8</ele>
        <time>2026-03-03T09:54:40.000Z</time>
      </trkpt>
      <trkpt lat="44.83889" lon="6.77039">
        <ele>2699.9</ele>
        <time>2026-03-03T09:54:41.000Z</time>
      </trkpt>
      <trkpt lat="44.83889" lon="6.77039">
        <ele>2699.9</ele>
        <time>2026-03-03T09:54:42.000Z</time>
      </trkpt>
      <trkpt lat="44.83889" lon="6.7704">
        <ele>2700.1</ele>
        <time>2026-03-03T09:54:43.000Z</time>
      </trkpt>
      <trkpt lat="44.83889" lon="6.7704">
        <ele>2700.3</ele>
        <time>2026-03-03T09:54:44.000Z</time>
      </trkpt>
      <trkpt lat="44.83889" lon="6.7704">
        <ele>2700.5</ele>
        <time>2026-03-03T09:54:45.000Z</time>
      </trkpt>
      <trkpt lat="44.83889" lon="6.7704">
        <ele>2700.6</ele>
        <time>2026-03-03T09:54:46.000Z</time>
      </trkpt>
      <trkpt lat="44.83889" lon="6.7704">
        <ele>2700.9</ele>
        <time>2026-03-03T09:54:47.000Z</time>
      </trkpt>
      <trkpt lat="44.8389" lon="6.77041">
        <ele>2701</ele>
        <time>2026-03-03T09:54:48.000Z</time>
      </trkpt>
      <trkpt lat="44.8389" lon="6.7704">
        <ele>2701.2</ele>
        <time>2026-03-03T09:54:49.000Z</time>
      </trkpt>
      <trkpt lat="44.83891" lon="6.77041">
        <ele>2701.5</ele>
        <time>2026-03-03T09:54:50.000Z</time>
      </trkpt>
      <trkpt lat="44.83891" lon="6.77041">
        <ele>2702</ele>
        <time>2026-03-03T09:54:51.000Z</time>
      </trkpt>
      <trkpt lat="44.83891" lon="6.77041">
        <ele>2702.3</ele>
        <time>2026-03-03T09:54:52.000Z</time>
      </trkpt>
      <trkpt lat="44.83892" lon="6.77042">
        <ele>2702.4</ele>
        <time>2026-03-03T09:54:53.000Z</time>
      </trkpt>
      <trkpt lat="44.83892" lon="6.77042">
        <ele>2702.5</ele>
        <time>2026-03-03T09:54:54.000Z</time>
      </trkpt>
      <trkpt lat="44.83892" lon="6.77042">
        <ele>2702.6</ele>
        <time>2026-03-03T09:54:55.000Z</time>
      </trkpt>
      <trkpt lat="44.83893" lon="6.77043">
        <ele>2702.6</ele>
        <time>2026-03-03T09:54:56.000Z</time>
      </trkpt>
      <trkpt lat="44.83894" lon="6.77043">
        <ele>2702.8</ele>
        <time>2026-03-03T09:54:57.000Z</time>
      </trkpt>
      <trkpt lat="44.83894" lon="6.77043">
        <ele>2703.1</ele>
        <time>2026-03-03T09:54:58.000Z</time>
      </trkpt>
      <trkpt lat="44.83894" lon="6.77044">
        <ele>2703.1</ele>
        <time>2026-03-03T09:54:59.000Z</time>
      </trkpt>
      <trkpt lat="44.83894" lon="6.77044">
        <ele>2703.3</ele>
        <time>2026-03-03T09:55:00.000Z</time>
      </trkpt>
      <trkpt lat="44.83895" lon="6.77044">
        <ele>2703.4</ele>
        <time>2026-03-03T09:55:01.000Z</time>
      </trkpt>
      <trkpt lat="44.83896" lon="6.77044">
        <ele>2703.5</ele>
        <time>2026-03-03T09:55:02.000Z</time>
      </trkpt>
      <trkpt lat="44.83896" lon="6.77045">
        <ele>2703.8</ele>
        <time>2026-03-03T09:55:03.000Z</time>
      </trkpt>
      <trkpt lat="44.83897" lon="6.77045">
        <ele>2704.1</ele>
        <time>2026-03-03T09:55:04.000Z</time>
      </trkpt>
      <trkpt lat="44.83897" lon="6.77045">
        <ele>2704.3</ele>
        <time>2026-03-03T09:55:05.000Z</time>
      </trkpt>
      <trkpt lat="44.83898" lon="6.77046">
        <ele>2704.5</ele>
        <time>2026-03-03T09:55:06.000Z</time>
      </trkpt>
      <trkpt lat="44.83898" lon="6.77046">
        <ele>2704.7</ele>
        <time>2026-03-03T09:55:07.000Z</time>
      </trkpt>
      <trkpt lat="44.83899" lon="6.77047">
        <ele>2704.7</ele>
        <time>2026-03-03T09:55:08.000Z</time>
      </trkpt>
      <trkpt lat="44.83899" lon="6.77047">
        <ele>2704.8</ele>
        <time>2026-03-03T09:55:09.000Z</time>
      </trkpt>
      <trkpt lat="44.83899" lon="6.77047">
        <ele>2704.9</ele>
        <time>2026-03-03T09:55:10.000Z</time>
      </trkpt>
      <trkpt lat="44.83899" lon="6.77047">
        <ele>2705.1</ele>
        <time>2026-03-03T09:55:11.000Z</time>
      </trkpt>
      <trkpt lat="44.83899" lon="6.77047">
        <ele>2705.2</ele>
        <time>2026-03-03T09:55:12.000Z</time>
      </trkpt>
      <trkpt lat="44.839" lon="6.77047">
        <ele>2705.4</ele>
        <time>2026-03-03T09:55:13.000Z</time>
      </trkpt>
      <trkpt lat="44.839" lon="6.77048">
        <ele>2705.6</ele>
        <time>2026-03-03T09:55:14.000Z</time>
      </trkpt>
      <trkpt lat="44.83901" lon="6.77049">
        <ele>2705.7</ele>
        <time>2026-03-03T09:55:15.000Z</time>
      </trkpt>
      <trkpt lat="44.83902" lon="6.7705">
        <ele>2705.7</ele>
        <time>2026-03-03T09:55:16.000Z</time>
      </trkpt>
      <trkpt lat="44.83903" lon="6.7705">
        <ele>2705.7</ele>
        <time>2026-03-03T09:55:17.000Z</time>
      </trkpt>
      <trkpt lat="44.83903" lon="6.7705">
        <ele>2705.9</ele>
        <time>2026-03-03T09:55:18.000Z</time>
      </trkpt>
      <trkpt lat="44.83904" lon="6.77051">
        <ele>2706.1</ele>
        <time>2026-03-03T09:55:19.000Z</time>
      </trkpt>
      <trkpt lat="44.83904" lon="6.77051">
        <ele>2706.2</ele>
        <time>2026-03-03T09:55:20.000Z</time>
      </trkpt>
      <trkpt lat="44.83904" lon="6.77051">
        <ele>2706.3</ele>
        <time>2026-03-03T09:55:21.000Z</time>
      </trkpt>
      <trkpt lat="44.83904" lon="6.77051">
        <ele>2706.2</ele>
        <time>2026-03-03T09:55:22.000Z</time>
      </trkpt>
      <trkpt lat="44.83905" lon="6.77052">
        <ele>2706.3</ele>
        <time>2026-03-03T09:55:23.000Z</time>
      </trkpt>
      <trkpt lat="44.83905" lon="6.77052">
        <ele>2706.4</ele>
        <time>2026-03-03T09:55:24.000Z</time>
      </trkpt>
      <trkpt lat="44.83905" lon="6.77052">
        <ele>2706.6</ele>
        <time>2026-03-03T09:55:25.000Z</time>
      </trkpt>
      <trkpt lat="44.83906" lon="6.77053">
        <ele>2706.7</ele>
        <time>2026-03-03T09:55:26.000Z</time>
      </trkpt>
      <trkpt lat="44.83907" lon="6.77054">
        <ele>2706.8</ele>
        <time>2026-03-03T09:55:27.000Z</time>
      </trkpt>
      <trkpt lat="44.83908" lon="6.77055">
        <ele>2707</ele>
        <time>2026-03-03T09:55:28.000Z</time>
      </trkpt>
      <trkpt lat="44.83908" lon="6.77055">
        <ele>2707.2</ele>
        <time>2026-03-03T09:55:29.000Z</time>
      </trkpt>
      <trkpt lat="44.83908" lon="6.77055">
        <ele>2707.3</ele>
        <time>2026-03-03T09:55:30.000Z</time>
      </trkpt>
      <trkpt lat="44.83909" lon="6.77055">
        <ele>2707.6</ele>
        <time>2026-03-03T09:55:31.000Z</time>
      </trkpt>
      <trkpt lat="44.83909" lon="6.77055">
        <ele>2707.8</ele>
        <time>2026-03-03T09:55:32.000Z</time>
      </trkpt>
      <trkpt lat="44.83909" lon="6.77056">
        <ele>2708.1</ele>
        <time>2026-03-03T09:55:33.000Z</time>
      </trkpt>
      <trkpt lat="44.8391" lon="6.77056">
        <ele>2708.4</ele>
        <time>2026-03-03T09:55:34.000Z</time>
      </trkpt>
      <trkpt lat="44.8391" lon="6.77056">
        <ele>2708.6</ele>
        <time>2026-03-03T09:55:35.000Z</time>
      </trkpt>
      <trkpt lat="44.83911" lon="6.77057">
        <ele>2708.9</ele>
        <time>2026-03-03T09:55:36.000Z</time>
      </trkpt>
      <trkpt lat="44.83911" lon="6.77057">
        <ele>2709</ele>
        <time>2026-03-03T09:55:37.000Z</time>
      </trkpt>
      <trkpt lat="44.83911" lon="6.77057">
        <ele>2709.2</ele>
        <time>2026-03-03T09:55:38.000Z</time>
      </trkpt>
      <trkpt lat="44.83911" lon="6.77057">
        <ele>2709.3</ele>
        <time>2026-03-03T09:55:39.000Z</time>
      </trkpt>
      <trkpt lat="44.83912" lon="6.77058">
        <ele>2709.5</ele>
        <time>2026-03-03T09:55:40.000Z</time>
      </trkpt>
      <trkpt lat="44.83912" lon="6.77059">
        <ele>2709.6</ele>
        <time>2026-03-03T09:55:41.000Z</time>
      </trkpt>
      <trkpt lat="44.83912" lon="6.7706">
        <ele>2709.7</ele>
        <time>2026-03-03T09:55:42.000Z</time>
      </trkpt>
      <trkpt lat="44.83912" lon="6.77061">
        <ele>2709.7</ele>
        <time>2026-03-03T09:55:43.000Z</time>
      </trkpt>
      <trkpt lat="44.83913" lon="6.77061">
        <ele>2709.5</ele>
        <time>2026-03-03T09:55:44.000Z</time>
      </trkpt>
      <trkpt lat="44.83914" lon="6.77062">
        <ele>2709.5</ele>
        <time>2026-03-03T09:55:45.000Z</time>
      </trkpt>
      <trkpt lat="44.83914" lon="6.77063">
        <ele>2709.3</ele>
        <time>2026-03-03T09:55:46.000Z</time>
      </trkpt>
      <trkpt lat="44.83915" lon="6.77064">
        <ele>2709.1</ele>
        <time>2026-03-03T09:55:47.000Z</time>
      </trkpt>
      <trkpt lat="44.83915" lon="6.77064">
        <ele>2709.2</ele>
        <time>2026-03-03T09:55:48.000Z</time>
      </trkpt>
      <trkpt lat="44.83915" lon="6.77064">
        <ele>2709.2</ele>
        <time>2026-03-03T09:55:49.000Z</time>
      </trkpt>
      <trkpt lat="44.83915" lon="6.77064">
        <ele>2709</ele>
        <time>2026-03-03T09:55:50.000Z</time>
      </trkpt>
      <trkpt lat="44.83915" lon="6.77064">
        <ele>2709.1</ele>
        <time>2026-03-03T09:55:51.000Z</time>
      </trkpt>
      <trkpt lat="44.83915" lon="6.77064">
        <ele>2709.1</ele>
        <time>2026-03-03T09:55:52.000Z</time>
      </trkpt>
      <trkpt lat="44.83916" lon="6.77065">
        <ele>2709</ele>
        <time>2026-03-03T09:55:53.000Z</time>
      </trkpt>
      <trkpt lat="44.83917" lon="6.77065">
        <ele>2709</ele>
        <time>2026-03-03T09:55:54.000Z</time>
      </trkpt>
      <trkpt lat="44.83917" lon="6.77065">
        <ele>2708.8</ele>
        <time>2026-03-03T09:55:55.000Z</time>
      </trkpt>
      <trkpt lat="44.83917" lon="6.77065">
        <ele>2708.8</ele>
        <time>2026-03-03T09:55:56.000Z</time>
      </trkpt>
      <trkpt lat="44.83917" lon="6.77065">
        <ele>2708.9</ele>
        <time>2026-03-03T09:55:57.000Z</time>
      </trkpt>
      <trkpt lat="44.83917" lon="6.77065">
        <ele>2709.1</ele>
        <time>2026-03-03T09:55:58.000Z</time>
      </trkpt>
      <trkpt lat="44.83918" lon="6.77066">
        <ele>2709.3</ele>
        <time>2026-03-03T09:55:59.000Z</time>
      </trkpt>
      <trkpt lat="44.83919" lon="6.77067">
        <ele>2709.5</ele>
        <time>2026-03-03T09:56:00.000Z</time>
      </trkpt>
      <trkpt lat="44.8392" lon="6.77067">
        <ele>2709.7</ele>
        <time>2026-03-03T09:56:01.000Z</time>
      </trkpt>
      <trkpt lat="44.83921" lon="6.77068">
        <ele>2709.8</ele>
        <time>2026-03-03T09:56:02.000Z</time>
      </trkpt>
      <trkpt lat="44.83921" lon="6.77069">
        <ele>2710</ele>
        <time>2026-03-03T09:56:03.000Z</time>
      </trkpt>
      <trkpt lat="44.83921" lon="6.7707">
        <ele>2710.1</ele>
        <time>2026-03-03T09:56:04.000Z</time>
      </trkpt>
      <trkpt lat="44.83921" lon="6.7707">
        <ele>2710.1</ele>
        <time>2026-03-03T09:56:05.000Z</time>
      </trkpt>
      <trkpt lat="44.8392" lon="6.7707">
        <ele>2710.3</ele>
        <time>2026-03-03T09:56:06.000Z</time>
      </trkpt>
      <trkpt lat="44.8392" lon="6.7707">
        <ele>2710.5</ele>
        <time>2026-03-03T09:56:07.000Z</time>
      </trkpt>
      <trkpt lat="44.83921" lon="6.7707">
        <ele>2710.8</ele>
        <time>2026-03-03T09:56:08.000Z</time>
      </trkpt>
      <trkpt lat="44.8392" lon="6.7707">
        <ele>2710.9</ele>
        <time>2026-03-03T09:56:09.000Z</time>
      </trkpt>
      <trkpt lat="44.8392" lon="6.7707">
        <ele>2711</ele>
        <time>2026-03-03T09:56:10.000Z</time>
      </trkpt>
      <trkpt lat="44.8392" lon="6.77071">
        <ele>2711.1</ele>
        <time>2026-03-03T09:56:11.000Z</time>
      </trkpt>
      <trkpt lat="44.8392" lon="6.77071">
        <ele>2711.2</ele>
        <time>2026-03-03T09:56:12.000Z</time>
      </trkpt>
      <trkpt lat="44.83919" lon="6.77072">
        <ele>2711.3</ele>
        <time>2026-03-03T09:56:13.000Z</time>
      </trkpt>
      <trkpt lat="44.83919" lon="6.77072">
        <ele>2711.5</ele>
        <time>2026-03-03T09:56:14.000Z</time>
      </trkpt>
      <trkpt lat="44.83918" lon="6.77073">
        <ele>2711.7</ele>
        <time>2026-03-03T09:56:15.000Z</time>
      </trkpt>
      <trkpt lat="44.83918" lon="6.77073">
        <ele>2712</ele>
        <time>2026-03-03T09:56:16.000Z</time>
      </trkpt>
      <trkpt lat="44.83917" lon="6.77074">
        <ele>2712.2</ele>
        <time>2026-03-03T09:56:17.000Z</time>
      </trkpt>
      <trkpt lat="44.83917" lon="6.77074">
        <ele>2712.4</ele>
        <time>2026-03-03T09:56:18.000Z</time>
      </trkpt>
      <trkpt lat="44.83917" lon="6.77074">
        <ele>2712.5</ele>
        <time>2026-03-03T09:56:19.000Z</time>
      </trkpt>
      <trkpt lat="44.83917" lon="6.77075">
        <ele>2712.6</ele>
        <time>2026-03-03T09:56:20.000Z</time>
      </trkpt>
      <trkpt lat="44.83917" lon="6.77075">
        <ele>2712.6</ele>
        <time>2026-03-03T09:56:21.000Z</time>
      </trkpt>
      <trkpt lat="44.83916" lon="6.77075">
        <ele>2712.7</ele>
        <time>2026-03-03T09:56:22.000Z</time>
      </trkpt>
      <trkpt lat="44.83916" lon="6.77076">
        <ele>2712.8</ele>
        <time>2026-03-03T09:56:23.000Z</time>
      </trkpt>
      <trkpt lat="44.83916" lon="6.77076">
        <ele>2712.8</ele>
        <time>2026-03-03T09:56:24.000Z</time>
      </trkpt>
      <trkpt lat="44.83915" lon="6.77077">
        <ele>2712.9</ele>
        <time>2026-03-03T09:56:25.000Z</time>
      </trkpt>
      <trkpt lat="44.83914" lon="6.77078">
        <ele>2713.2</ele>
        <time>2026-03-03T09:56:26.000Z</time>
      </trkpt>
      <trkpt lat="44.83913" lon="6.77078">
        <ele>2713.4</ele>
        <time>2026-03-03T09:56:27.000Z</time>
      </trkpt>
      <trkpt lat="44.83913" lon="6.77079">
        <ele>2713.6</ele>
        <time>2026-03-03T09:56:28.000Z</time>
      </trkpt>
      <trkpt lat="44.83912" lon="6.77079">
        <ele>2713.7</ele>
        <time>2026-03-03T09:56:29.000Z</time>
      </trkpt>
      <trkpt lat="44.83912" lon="6.77079">
        <ele>2713.8</ele>
        <time>2026-03-03T09:56:30.000Z</time>
      </trkpt>
      <trkpt lat="44.83912" lon="6.77079">
        <ele>2714</ele>
        <time>2026-03-03T09:56:31.000Z</time>
      </trkpt>
      <trkpt lat="44.83912" lon="6.7708">
        <ele>2714.2</ele>
        <time>2026-03-03T09:56:32.000Z</time>
      </trkpt>
      <trkpt lat="44.83912" lon="6.7708">
        <ele>2714.3</ele>
        <time>2026-03-03T09:56:33.000Z</time>
      </trkpt>
      <trkpt lat="44.83912" lon="6.7708">
        <ele>2714.4</ele>
        <time>2026-03-03T09:56:34.000Z</time>
      </trkpt>
      <trkpt lat="44.83911" lon="6.77081">
        <ele>2714.5</ele>
        <time>2026-03-03T09:56:35.000Z</time>
      </trkpt>
      <trkpt lat="44.83911" lon="6.77081">
        <ele>2714.6</ele>
        <time>2026-03-03T09:56:36.000Z</time>
      </trkpt>
      <trkpt lat="44.83911" lon="6.77081">
        <ele>2714.9</ele>
        <time>2026-03-03T09:56:37.000Z</time>
      </trkpt>
      <trkpt lat="44.83911" lon="6.77081">
        <ele>2715</ele>
        <time>2026-03-03T09:56:38.000Z</time>
      </trkpt>
      <trkpt lat="44.83911" lon="6.77082">
        <ele>2715.1</ele>
        <time>2026-03-03T09:56:39.000Z</time>
      </trkpt>
      <trkpt lat="44.8391" lon="6.77083">
        <ele>2715.3</ele>
        <time>2026-03-03T09:56:40.000Z</time>
      </trkpt>
      <trkpt lat="44.83909" lon="6.77083">
        <ele>2715.5</ele>
        <time>2026-03-03T09:56:41.000Z</time>
      </trkpt>
      <trkpt lat="44.83908" lon="6.77084">
        <ele>2715.6</ele>
        <time>2026-03-03T09:56:42.000Z</time>
      </trkpt>
      <trkpt lat="44.83908" lon="6.77084">
        <ele>2715.8</ele>
        <time>2026-03-03T09:56:43.000Z</time>
      </trkpt>
      <trkpt lat="44.83907" lon="6.77084">
        <ele>2716.1</ele>
        <time>2026-03-03T09:56:44.000Z</time>
      </trkpt>
      <trkpt lat="44.83907" lon="6.77085">
        <ele>2716.2</ele>
        <time>2026-03-03T09:56:45.000Z</time>
      </trkpt>
      <trkpt lat="44.83906" lon="6.77085">
        <ele>2716.5</ele>
        <time>2026-03-03T09:56:46.000Z</time>
      </trkpt>
      <trkpt lat="44.83906" lon="6.77086">
        <ele>2716.6</ele>
        <time>2026-03-03T09:56:47.000Z</time>
      </trkpt>
      <trkpt lat="44.83905" lon="6.77086">
        <ele>2716.8</ele>
        <time>2026-03-03T09:56:48.000Z</time>
      </trkpt>
      <trkpt lat="44.83905" lon="6.77087">
        <ele>2716.9</ele>
        <time>2026-03-03T09:56:49.000Z</time>
      </trkpt>
      <trkpt lat="44.83904" lon="6.77088">
        <ele>2716.9</ele>
        <time>2026-03-03T09:56:50.000Z</time>
      </trkpt>
      <trkpt lat="44.83903" lon="6.77089">
        <ele>2717</ele>
        <time>2026-03-03T09:56:51.000Z</time>
      </trkpt>
      <trkpt lat="44.83903" lon="6.77089">
        <ele>2717.2</ele>
        <time>2026-03-03T09:56:52.000Z</time>
      </trkpt>
      <trkpt lat="44.83903" lon="6.77088">
        <ele>2717.3</ele>
        <time>2026-03-03T09:56:53.000Z</time>
      </trkpt>
      <trkpt lat="44.83903" lon="6.77088">
        <ele>2717.7</ele>
        <time>2026-03-03T09:56:54.000Z</time>
      </trkpt>
      <trkpt lat="44.83903" lon="6.77089">
        <ele>2717.6</ele>
        <time>2026-03-03T09:56:55.000Z</time>
      </trkpt>
      <trkpt lat="44.83903" lon="6.77089">
        <ele>2717.7</ele>
        <time>2026-03-03T09:56:56.000Z</time>
      </trkpt>
      <trkpt lat="44.83902" lon="6.77089">
        <ele>2717.8</ele>
        <time>2026-03-03T09:56:57.000Z</time>
      </trkpt>
      <trkpt lat="44.83902" lon="6.7709">
        <ele>2717.9</ele>
        <time>2026-03-03T09:56:58.000Z</time>
      </trkpt>
      <trkpt lat="44.83901" lon="6.7709">
        <ele>2718</ele>
        <time>2026-03-03T09:56:59.000Z</time>
      </trkpt>
      <trkpt lat="44.839" lon="6.77091">
        <ele>2718.1</ele>
        <time>2026-03-03T09:57:00.000Z</time>
      </trkpt>
      <trkpt lat="44.839" lon="6.77091">
        <ele>2718.2</ele>
        <time>2026-03-03T09:57:01.000Z</time>
      </trkpt>
      <trkpt lat="44.83896" lon="6.77094">
        <ele>2719.6</ele>
        <time>2026-03-03T09:57:15.000Z</time>
      </trkpt>
      <trkpt lat="44.83895" lon="6.77095">
        <ele>2719.8</ele>
        <time>2026-03-03T09:57:16.000Z</time>
      </trkpt>
      <trkpt lat="44.83895" lon="6.77095">
        <ele>2720.1</ele>
        <time>2026-03-03T09:57:17.000Z</time>
      </trkpt>
      <trkpt lat="44.83895" lon="6.77095">
        <ele>2720.3</ele>
        <time>2026-03-03T09:57:18.000Z</time>
      </trkpt>
      <trkpt lat="44.83894" lon="6.77096">
        <ele>2720.5</ele>
        <time>2026-03-03T09:57:19.000Z</time>
      </trkpt>
      <trkpt lat="44.83894" lon="6.77096">
        <ele>2720.6</ele>
        <time>2026-03-03T09:57:20.000Z</time>
      </trkpt>
      <trkpt lat="44.83893" lon="6.77097">
        <ele>2720.7</ele>
        <time>2026-03-03T09:57:21.000Z</time>
      </trkpt>
      <trkpt lat="44.83892" lon="6.77097">
        <ele>2720.8</ele>
        <time>2026-03-03T09:57:22.000Z</time>
      </trkpt>
      <trkpt lat="44.83892" lon="6.77097">
        <ele>2720.9</ele>
        <time>2026-03-03T09:57:23.000Z</time>
      </trkpt>
      <trkpt lat="44.83891" lon="6.77098">
        <ele>2721.1</ele>
        <time>2026-03-03T09:57:24.000Z</time>
      </trkpt>
      <trkpt lat="44.8389" lon="6.77098">
        <ele>2721.2</ele>
        <time>2026-03-03T09:57:25.000Z</time>
      </trkpt>
      <trkpt lat="44.8389" lon="6.77098">
        <ele>2721.6</ele>
        <time>2026-03-03T09:57:26.000Z</time>
      </trkpt>
      <trkpt lat="44.8389" lon="6.77099">
        <ele>2721.7</ele>
        <time>2026-03-03T09:57:27.000Z</time>
      </trkpt>
      <trkpt lat="44.8389" lon="6.77099">
        <ele>2722</ele>
        <time>2026-03-03T09:57:28.000Z</time>
      </trkpt>
      <trkpt lat="44.83889" lon="6.77099">
        <ele>2722.1</ele>
        <time>2026-03-03T09:57:29.000Z</time>
      </trkpt>
      <trkpt lat="44.83889" lon="6.77099">
        <ele>2722.2</ele>
        <time>2026-03-03T09:57:30.000Z</time>
      </trkpt>
      <trkpt lat="44.83888" lon="6.771">
        <ele>2722.2</ele>
        <time>2026-03-03T09:57:31.000Z</time>
      </trkpt>
      <trkpt lat="44.83887" lon="6.771">
        <ele>2722.2</ele>
        <time>2026-03-03T09:57:32.000Z</time>
      </trkpt>
      <trkpt lat="44.83887" lon="6.771">
        <ele>2722.4</ele>
        <time>2026-03-03T09:57:33.000Z</time>
      </trkpt>
      <trkpt lat="44.83887" lon="6.77101">
        <ele>2722.5</ele>
        <time>2026-03-03T09:57:34.000Z</time>
      </trkpt>
      <trkpt lat="44.83887" lon="6.77101">
        <ele>2722.7</ele>
        <time>2026-03-03T09:57:35.000Z</time>
      </trkpt>
      <trkpt lat="44.83887" lon="6.77101">
        <ele>2722.9</ele>
        <time>2026-03-03T09:57:36.000Z</time>
      </trkpt>
      <trkpt lat="44.83887" lon="6.77101">
        <ele>2723.1</ele>
        <time>2026-03-03T09:57:37.000Z</time>
      </trkpt>
      <trkpt lat="44.83888" lon="6.77102">
        <ele>2723.3</ele>
        <time>2026-03-03T09:57:38.000Z</time>
      </trkpt>
      <trkpt lat="44.83888" lon="6.77102">
        <ele>2723.4</ele>
        <time>2026-03-03T09:57:39.000Z</time>
      </trkpt>
      <trkpt lat="44.83889" lon="6.77102">
        <ele>2723.7</ele>
        <time>2026-03-03T09:57:40.000Z</time>
      </trkpt>
      <trkpt lat="44.83889" lon="6.77103">
        <ele>2723.9</ele>
        <time>2026-03-03T09:57:41.000Z</time>
      </trkpt>
      <trkpt lat="44.83889" lon="6.77103">
        <ele>2724</ele>
        <time>2026-03-03T09:57:42.000Z</time>
      </trkpt>
      <trkpt lat="44.83889" lon="6.77103">
        <ele>2724.1</ele>
        <time>2026-03-03T09:57:43.000Z</time>
      </trkpt>
      <trkpt lat="44.83889" lon="6.77103">
        <ele>2724.2</ele>
        <time>2026-03-03T09:57:44.000Z</time>
      </trkpt>
      <trkpt lat="44.8389" lon="6.77104">
        <ele>2724.2</ele>
        <time>2026-03-03T09:57:45.000Z</time>
      </trkpt>
      <trkpt lat="44.8389" lon="6.77104">
        <ele>2724.2</ele>
        <time>2026-03-03T09:57:46.000Z</time>
      </trkpt>
      <trkpt lat="44.8389" lon="6.77105">
        <ele>2724.2</ele>
        <time>2026-03-03T09:57:47.000Z</time>
      </trkpt>
      <trkpt lat="44.8389" lon="6.77105">
        <ele>2724.3</ele>
        <time>2026-03-03T09:57:48.000Z</time>
      </trkpt>
      <trkpt lat="44.8389" lon="6.77105">
        <ele>2724.4</ele>
        <time>2026-03-03T09:57:49.000Z</time>
      </trkpt>
      <trkpt lat="44.83891" lon="6.77105">
        <ele>2724.4</ele>
        <time>2026-03-03T09:57:50.000Z</time>
      </trkpt>
      <trkpt lat="44.83891" lon="6.77106">
        <ele>2724.4</ele>
        <time>2026-03-03T09:57:51.000Z</time>
      </trkpt>
      <trkpt lat="44.83892" lon="6.77106">
        <ele>2724.6</ele>
        <time>2026-03-03T09:57:52.000Z</time>
      </trkpt>
      <trkpt lat="44.83893" lon="6.77107">
        <ele>2724.8</ele>
        <time>2026-03-03T09:57:53.000Z</time>
      </trkpt>
      <trkpt lat="44.83893" lon="6.77108">
        <ele>2725</ele>
        <time>2026-03-03T09:57:54.000Z</time>
      </trkpt>
      <trkpt lat="44.83894" lon="6.77108">
        <ele>2725.3</ele>
        <time>2026-03-03T09:57:55.000Z</time>
      </trkpt>
      <trkpt lat="44.83894" lon="6.77108">
        <ele>2725.6</ele>
        <time>2026-03-03T09:57:56.000Z</time>
      </trkpt>
      <trkpt lat="44.83894" lon="6.77109">
        <ele>2725.8</ele>
        <time>2026-03-03T09:57:57.000Z</time>
      </trkpt>
      <trkpt lat="44.83895" lon="6.77109">
        <ele>2726.1</ele>
        <time>2026-03-03T09:57:58.000Z</time>
      </trkpt>
      <trkpt lat="44.83895" lon="6.77109">
        <ele>2726.2</ele>
        <time>2026-03-03T09:57:59.000Z</time>
      </trkpt>
      <trkpt lat="44.83895" lon="6.77109">
        <ele>2726.4</ele>
        <time>2026-03-03T09:58:00.000Z</time>
      </trkpt>
      <trkpt lat="44.83895" lon="6.7711">
        <ele>2726.5</ele>
        <time>2026-03-03T09:58:01.000Z</time>
      </trkpt>
      <trkpt lat="44.83895" lon="6.7711">
        <ele>2726.7</ele>
        <time>2026-03-03T09:58:02.000Z</time>
      </trkpt>
      <trkpt lat="44.83896" lon="6.7711">
        <ele>2726.9</ele>
        <time>2026-03-03T09:58:03.000Z</time>
      </trkpt>
      <trkpt lat="44.83896" lon="6.77111">
        <ele>2727.2</ele>
        <time>2026-03-03T09:58:04.000Z</time>
      </trkpt>
      <trkpt lat="44.83897" lon="6.77112">
        <ele>2727.4</ele>
        <time>2026-03-03T09:58:05.000Z</time>
      </trkpt>
      <trkpt lat="44.83898" lon="6.77113">
        <ele>2727.5</ele>
        <time>2026-03-03T09:58:06.000Z</time>
      </trkpt>
      <trkpt lat="44.83899" lon="6.77113">
        <ele>2727.5</ele>
        <time>2026-03-03T09:58:07.000Z</time>
      </trkpt>
      <trkpt lat="44.83899" lon="6.77114">
        <ele>2727.7</ele>
        <time>2026-03-03T09:58:08.000Z</time>
      </trkpt>
      <trkpt lat="44.83899" lon="6.77114">
        <ele>2727.9</ele>
        <time>2026-03-03T09:58:09.000Z</time>
      </trkpt>
      <trkpt lat="44.839" lon="6.77115">
        <ele>2728.1</ele>
        <time>2026-03-03T09:58:10.000Z</time>
      </trkpt>
      <trkpt lat="44.839" lon="6.77115">
        <ele>2728.2</ele>
        <time>2026-03-03T09:58:11.000Z</time>
      </trkpt>
      <trkpt lat="44.839" lon="6.77115">
        <ele>2728.2</ele>
        <time>2026-03-03T09:58:12.000Z</time>
      </trkpt>
      <trkpt lat="44.83901" lon="6.77116">
        <ele>2728.2</ele>
        <time>2026-03-03T09:58:13.000Z</time>
      </trkpt>
      <trkpt lat="44.83901" lon="6.77117">
        <ele>2728.1</ele>
        <time>2026-03-03T09:58:14.000Z</time>
      </trkpt>
      <trkpt lat="44.83902" lon="6.77118">
        <ele>2728</ele>
        <time>2026-03-03T09:58:15.000Z</time>
      </trkpt>
      <trkpt lat="44.83902" lon="6.77118">
        <ele>2728.2</ele>
        <time>2026-03-03T09:58:16.000Z</time>
      </trkpt>
      <trkpt lat="44.83903" lon="6.77118">
        <ele>2728.4</ele>
        <time>2026-03-03T09:58:17.000Z</time>
      </trkpt>
      <trkpt lat="44.83903" lon="6.77119">
        <ele>2728.4</ele>
        <time>2026-03-03T09:58:18.000Z</time>
      </trkpt>
      <trkpt lat="44.83904" lon="6.77119">
        <ele>2728.5</ele>
        <time>2026-03-03T09:58:19.000Z</time>
      </trkpt>
      <trkpt lat="44.83904" lon="6.77119">
        <ele>2728.6</ele>
        <time>2026-03-03T09:58:20.000Z</time>
      </trkpt>
      <trkpt lat="44.83905" lon="6.7712">
        <ele>2728.9</ele>
        <time>2026-03-03T09:58:21.000Z</time>
      </trkpt>
      <trkpt lat="44.83905" lon="6.7712">
        <ele>2728.6</ele>
        <time>2026-03-03T09:58:22.000Z</time>
      </trkpt>
      <trkpt lat="44.83906" lon="6.77121">
        <ele>2728.7</ele>
        <time>2026-03-03T09:58:23.000Z</time>
      </trkpt>
      <trkpt lat="44.83906" lon="6.77122">
        <ele>2729</ele>
        <time>2026-03-03T09:58:24.000Z</time>
      </trkpt>
      <trkpt lat="44.83907" lon="6.77123">
        <ele>2729</ele>
        <time>2026-03-03T09:58:25.000Z</time>
      </trkpt>
      <trkpt lat="44.83907" lon="6.77123">
        <ele>2729</ele>
        <time>2026-03-03T09:58:26.000Z</time>
      </trkpt>
      <trkpt lat="44.83907" lon="6.77123">
        <ele>2729.3</ele>
        <time>2026-03-03T09:58:27.000Z</time>
      </trkpt>
      <trkpt lat="44.83908" lon="6.77123">
        <ele>2729.5</ele>
        <time>2026-03-03T09:58:28.000Z</time>
      </trkpt>
      <trkpt lat="44.83908" lon="6.77124">
        <ele>2729.4</ele>
        <time>2026-03-03T09:58:29.000Z</time>
      </trkpt>
      <trkpt lat="44.83909" lon="6.77125">
        <ele>2729.3</ele>
        <time>2026-03-03T09:58:30.000Z</time>
      </trkpt>
      <trkpt lat="44.83909" lon="6.77126">
        <ele>2729.1</ele>
        <time>2026-03-03T09:58:31.000Z</time>
      </trkpt>
      <trkpt lat="44.8391" lon="6.77126">
        <ele>2729.1</ele>
        <time>2026-03-03T09:58:32.000Z</time>
      </trkpt>
      <trkpt lat="44.8391" lon="6.77126">
        <ele>2729.1</ele>
        <time>2026-03-03T09:58:33.000Z</time>
      </trkpt>
      <trkpt lat="44.8391" lon="6.77126">
        <ele>2729.4</ele>
        <time>2026-03-03T09:58:34.000Z</time>
      </trkpt>
      <trkpt lat="44.83911" lon="6.77127">
        <ele>2729.6</ele>
        <time>2026-03-03T09:58:35.000Z</time>
      </trkpt>
      <trkpt lat="44.83911" lon="6.77127">
        <ele>2729.8</ele>
        <time>2026-03-03T09:58:36.000Z</time>
      </trkpt>
      <trkpt lat="44.83911" lon="6.77128">
        <ele>2730</ele>
        <time>2026-03-03T09:58:37.000Z</time>
      </trkpt>
      <trkpt lat="44.83912" lon="6.77128">
        <ele>2730.1</ele>
        <time>2026-03-03T09:58:38.000Z</time>
      </trkpt>
      <trkpt lat="44.83912" lon="6.77129">
        <ele>2730.1</ele>
        <time>2026-03-03T09:58:39.000Z</time>
      </trkpt>
      <trkpt lat="44.83913" lon="6.77129">
        <ele>2730.1</ele>
        <time>2026-03-03T09:58:40.000Z</time>
      </trkpt>
      <trkpt lat="44.83913" lon="6.77129">
        <ele>2730.3</ele>
        <time>2026-03-03T09:58:41.000Z</time>
      </trkpt>
      <trkpt lat="44.83913" lon="6.77129">
        <ele>2730.5</ele>
        <time>2026-03-03T09:58:42.000Z</time>
      </trkpt>
      <trkpt lat="44.83913" lon="6.7713">
        <ele>2730.7</ele>
        <time>2026-03-03T09:58:43.000Z</time>
      </trkpt>
      <trkpt lat="44.83914" lon="6.7713">
        <ele>2730.9</ele>
        <time>2026-03-03T09:58:44.000Z</time>
      </trkpt>
      <trkpt lat="44.83914" lon="6.7713">
        <ele>2731.1</ele>
        <time>2026-03-03T09:58:45.000Z</time>
      </trkpt>
      <trkpt lat="44.83915" lon="6.7713">
        <ele>2731.2</ele>
        <time>2026-03-03T09:58:46.000Z</time>
      </trkpt>
      <trkpt lat="44.83916" lon="6.7713">
        <ele>2731.3</ele>
        <time>2026-03-03T09:58:47.000Z</time>
      </trkpt>
      <trkpt lat="44.83916" lon="6.7713">
        <ele>2731.3</ele>
        <time>2026-03-03T09:58:48.000Z</time>
      </trkpt>
      <trkpt lat="44.83917" lon="6.77131">
        <ele>2731.2</ele>
        <time>2026-03-03T09:58:49.000Z</time>
      </trkpt>
      <trkpt lat="44.83918" lon="6.77131">
        <ele>2731.2</ele>
        <time>2026-03-03T09:58:50.000Z</time>
      </trkpt>
      <trkpt lat="44.83919" lon="6.77132">
        <ele>2731.1</ele>
        <time>2026-03-03T09:58:51.000Z</time>
      </trkpt>
      <trkpt lat="44.8392" lon="6.77132">
        <ele>2731.1</ele>
        <time>2026-03-03T09:58:52.000Z</time>
      </trkpt>
      <trkpt lat="44.8392" lon="6.77133">
        <ele>2731</ele>
        <time>2026-03-03T09:58:53.000Z</time>
      </trkpt>
      <trkpt lat="44.83921" lon="6.77133">
        <ele>2731</ele>
        <time>2026-03-03T09:58:54.000Z</time>
      </trkpt>
      <trkpt lat="44.83922" lon="6.77133">
        <ele>2731</ele>
        <time>2026-03-03T09:58:55.000Z</time>
      </trkpt>
      <trkpt lat="44.83922" lon="6.77133">
        <ele>2731.1</ele>
        <time>2026-03-03T09:58:56.000Z</time>
      </trkpt>
      <trkpt lat="44.83923" lon="6.77133">
        <ele>2731.1</ele>
        <time>2026-03-03T09:58:57.000Z</time>
      </trkpt>
      <trkpt lat="44.83923" lon="6.77133">
        <ele>2731</ele>
        <time>2026-03-03T09:58:58.000Z</time>
      </trkpt>
      <trkpt lat="44.83924" lon="6.77134">
        <ele>2731</ele>
        <time>2026-03-03T09:58:59.000Z</time>
      </trkpt>
      <trkpt lat="44.83925" lon="6.77134">
        <ele>2731.1</ele>
        <time>2026-03-03T09:59:00.000Z</time>
      </trkpt>
      <trkpt lat="44.83925" lon="6.77134">
        <ele>2731.2</ele>
        <time>2026-03-03T09:59:01.000Z</time>
      </trkpt>
      <trkpt lat="44.83926" lon="6.77134">
        <ele>2731.3</ele>
        <time>2026-03-03T09:59:02.000Z</time>
      </trkpt>
      <trkpt lat="44.83926" lon="6.77134">
        <ele>2731.5</ele>
        <time>2026-03-03T09:59:03.000Z</time>
      </trkpt>
      <trkpt lat="44.83927" lon="6.77134">
        <ele>2731.6</ele>
        <time>2026-03-03T09:59:04.000Z</time>
      </trkpt>
      <trkpt lat="44.83928" lon="6.77134">
        <ele>2731.6</ele>
        <time>2026-03-03T09:59:05.000Z</time>
      </trkpt>
      <trkpt lat="44.83928" lon="6.77133">
        <ele>2731.9</ele>
        <time>2026-03-03T09:59:06.000Z</time>
      </trkpt>
      <trkpt lat="44.83929" lon="6.77133">
        <ele>2731.9</ele>
        <time>2026-03-03T09:59:07.000Z</time>
      </trkpt>
      <trkpt lat="44.8393" lon="6.77133">
        <ele>2731.7</ele>
        <time>2026-03-03T09:59:08.000Z</time>
      </trkpt>
      <trkpt lat="44.8393" lon="6.77133">
        <ele>2731.7</ele>
        <time>2026-03-03T09:59:09.000Z</time>
      </trkpt>
      <trkpt lat="44.83931" lon="6.77133">
        <ele>2731.6</ele>
        <time>2026-03-03T09:59:10.000Z</time>
      </trkpt>
      <trkpt lat="44.83931" lon="6.77133">
        <ele>2731.6</ele>
        <time>2026-03-03T09:59:11.000Z</time>
      </trkpt>
      <trkpt lat="44.83931" lon="6.77133">
        <ele>2731.6</ele>
        <time>2026-03-03T09:59:12.000Z</time>
      </trkpt>
      <trkpt lat="44.83932" lon="6.77133">
        <ele>2731.7</ele>
        <time>2026-03-03T09:59:13.000Z</time>
      </trkpt>
      <trkpt lat="44.83932" lon="6.77133">
        <ele>2732</ele>
        <time>2026-03-03T09:59:14.000Z</time>
      </trkpt>
      <trkpt lat="44.83932" lon="6.77133">
        <ele>2732</ele>
        <time>2026-03-03T09:59:15.000Z</time>
      </trkpt>
      <trkpt lat="44.83933" lon="6.77133">
        <ele>2732.2</ele>
        <time>2026-03-03T09:59:16.000Z</time>
      </trkpt>
      <trkpt lat="44.83933" lon="6.77132">
        <ele>2732.3</ele>
        <time>2026-03-03T09:59:17.000Z</time>
      </trkpt>
      <trkpt lat="44.83934" lon="6.77132">
        <ele>2732.3</ele>
        <time>2026-03-03T09:59:18.000Z</time>
      </trkpt>
      <trkpt lat="44.83934" lon="6.77131">
        <ele>2732.3</ele>
        <time>2026-03-03T09:59:19.000Z</time>
      </trkpt>
      <trkpt lat="44.83935" lon="6.77131">
        <ele>2732.3</ele>
        <time>2026-03-03T09:59:20.000Z</time>
      </trkpt>
      <trkpt lat="44.83935" lon="6.77131">
        <ele>2732.4</ele>
        <time>2026-03-03T09:59:21.000Z</time>
      </trkpt>
      <trkpt lat="44.83935" lon="6.77131">
        <ele>2732.5</ele>
        <time>2026-03-03T09:59:22.000Z</time>
      </trkpt>
      <trkpt lat="44.83936" lon="6.7713">
        <ele>2732.5</ele>
        <time>2026-03-03T09:59:23.000Z</time>
      </trkpt>
      <trkpt lat="44.83936" lon="6.77131">
        <ele>2732.6</ele>
        <time>2026-03-03T09:59:24.000Z</time>
      </trkpt>
      <trkpt lat="44.83937" lon="6.7713">
        <ele>2732.6</ele>
        <time>2026-03-03T09:59:25.000Z</time>
      </trkpt>
      <trkpt lat="44.83937" lon="6.7713">
        <ele>2732.7</ele>
        <time>2026-03-03T09:59:26.000Z</time>
      </trkpt>
      <trkpt lat="44.83938" lon="6.77129">
        <ele>2732.8</ele>
        <time>2026-03-03T09:59:27.000Z</time>
      </trkpt>
      <trkpt lat="44.83938" lon="6.77129">
        <ele>2733.3</ele>
        <time>2026-03-03T09:59:28.000Z</time>
      </trkpt>
      <trkpt lat="44.83939" lon="6.77129">
        <ele>2733.8</ele>
        <time>2026-03-03T09:59:29.000Z</time>
      </trkpt>
      <trkpt lat="44.8394" lon="6.77129">
        <ele>2734.1</ele>
        <time>2026-03-03T09:59:30.000Z</time>
      </trkpt>
      <trkpt lat="44.8394" lon="6.77129">
        <ele>2734.3</ele>
        <time>2026-03-03T09:59:31.000Z</time>
      </trkpt>
      <trkpt lat="44.83941" lon="6.77128">
        <ele>2734.4</ele>
        <time>2026-03-03T09:59:32.000Z</time>
      </trkpt>
      <trkpt lat="44.83942" lon="6.77128">
        <ele>2734.8</ele>
        <time>2026-03-03T09:59:33.000Z</time>
      </trkpt>
      <trkpt lat="44.83943" lon="6.77129">
        <ele>2735.1</ele>
        <time>2026-03-03T09:59:34.000Z</time>
      </trkpt>
      <trkpt lat="44.83944" lon="6.77129">
        <ele>2735.2</ele>
        <time>2026-03-03T09:59:35.000Z</time>
      </trkpt>
      <trkpt lat="44.83945" lon="6.77129">
        <ele>2735.4</ele>
        <time>2026-03-03T09:59:36.000Z</time>
      </trkpt>
      <trkpt lat="44.83945" lon="6.7713">
        <ele>2735.7</ele>
        <time>2026-03-03T09:59:37.000Z</time>
      </trkpt>
      <trkpt lat="44.83945" lon="6.7713">
        <ele>2735.9</ele>
        <time>2026-03-03T09:59:38.000Z</time>
      </trkpt>
      <trkpt lat="44.83946" lon="6.77131">
        <ele>2736.2</ele>
        <time>2026-03-03T09:59:39.000Z</time>
      </trkpt>
      <trkpt lat="44.83947" lon="6.77131">
        <ele>2736.5</ele>
        <time>2026-03-03T09:59:40.000Z</time>
      </trkpt>
      <trkpt lat="44.83947" lon="6.77131">
        <ele>2736.6</ele>
        <time>2026-03-03T09:59:41.000Z</time>
      </trkpt>
      <trkpt lat="44.83948" lon="6.77131">
        <ele>2736.7</ele>
        <time>2026-03-03T09:59:42.000Z</time>
      </trkpt>
      <trkpt lat="44.83948" lon="6.77133">
        <ele>2738.1</ele>
        <time>2026-03-03T10:00:09.000Z</time>
      </trkpt>
      <trkpt lat="44.83949" lon="6.77133">
        <ele>2738.5</ele>
        <time>2026-03-03T10:00:10.000Z</time>
      </trkpt>
      <trkpt lat="44.8395" lon="6.77134">
        <ele>2738.8</ele>
        <time>2026-03-03T10:00:11.000Z</time>
      </trkpt>
      <trkpt lat="44.8395" lon="6.77134">
        <ele>2739</ele>
        <time>2026-03-03T10:00:12.000Z</time>
      </trkpt>
      <trkpt lat="44.83951" lon="6.77135">
        <ele>2739.3</ele>
        <time>2026-03-03T10:00:13.000Z</time>
      </trkpt>
      <trkpt lat="44.83951" lon="6.77135">
        <ele>2739.4</ele>
        <time>2026-03-03T10:00:14.000Z</time>
      </trkpt>
      <trkpt lat="44.83951" lon="6.77135">
        <ele>2739.7</ele>
        <time>2026-03-03T10:00:15.000Z</time>
      </trkpt>
      <trkpt lat="44.83952" lon="6.77136">
        <ele>2740</ele>
        <time>2026-03-03T10:00:16.000Z</time>
      </trkpt>
      <trkpt lat="44.83952" lon="6.77136">
        <ele>2740.1</ele>
        <time>2026-03-03T10:00:17.000Z</time>
      </trkpt>
      <trkpt lat="44.83952" lon="6.77137">
        <ele>2740.2</ele>
        <time>2026-03-03T10:00:18.000Z</time>
      </trkpt>
      <trkpt lat="44.83952" lon="6.77137">
        <ele>2740.3</ele>
        <time>2026-03-03T10:00:19.000Z</time>
      </trkpt>
      <trkpt lat="44.83953" lon="6.77137">
        <ele>2740.3</ele>
        <time>2026-03-03T10:00:20.000Z</time>
      </trkpt>
      <trkpt lat="44.83953" lon="6.77137">
        <ele>2740.5</ele>
        <time>2026-03-03T10:00:21.000Z</time>
      </trkpt>
      <trkpt lat="44.83953" lon="6.77138">
        <ele>2740.6</ele>
        <time>2026-03-03T10:00:22.000Z</time>
      </trkpt>
      <trkpt lat="44.83953" lon="6.77138">
        <ele>2740.7</ele>
        <time>2026-03-03T10:00:23.000Z</time>
      </trkpt>
      <trkpt lat="44.83954" lon="6.77138">
        <ele>2740.9</ele>
        <time>2026-03-03T10:00:24.000Z</time>
      </trkpt>
      <trkpt lat="44.83954" lon="6.77138">
        <ele>2741</ele>
        <time>2026-03-03T10:00:25.000Z</time>
      </trkpt>
      <trkpt lat="44.83954" lon="6.77139">
        <ele>2741.1</ele>
        <time>2026-03-03T10:00:26.000Z</time>
      </trkpt>
      <trkpt lat="44.83954" lon="6.77139">
        <ele>2741.2</ele>
        <time>2026-03-03T10:00:27.000Z</time>
      </trkpt>
      <trkpt lat="44.83954" lon="6.77139">
        <ele>2741.3</ele>
        <time>2026-03-03T10:00:28.000Z</time>
      </trkpt>
      <trkpt lat="44.83954" lon="6.77139">
        <ele>2741.5</ele>
        <time>2026-03-03T10:00:29.000Z</time>
      </trkpt>
      <trkpt lat="44.83955" lon="6.7714">
        <ele>2741.5</ele>
        <time>2026-03-03T10:00:30.000Z</time>
      </trkpt>
      <trkpt lat="44.83955" lon="6.77141">
        <ele>2741.8</ele>
        <time>2026-03-03T10:00:31.000Z</time>
      </trkpt>
      <trkpt lat="44.83956" lon="6.77142">
        <ele>2742</ele>
        <time>2026-03-03T10:00:32.000Z</time>
      </trkpt>
      <trkpt lat="44.83957" lon="6.77143">
        <ele>2742</ele>
        <time>2026-03-03T10:00:33.000Z</time>
      </trkpt>
      <trkpt lat="44.83957" lon="6.77143">
        <ele>2742</ele>
        <time>2026-03-03T10:00:34.000Z</time>
      </trkpt>
      <trkpt lat="44.83958" lon="6.77144">
        <ele>2742.1</ele>
        <time>2026-03-03T10:00:35.000Z</time>
      </trkpt>
      <trkpt lat="44.83958" lon="6.77145">
        <ele>2742.2</ele>
        <time>2026-03-03T10:00:36.000Z</time>
      </trkpt>
      <trkpt lat="44.83958" lon="6.77145">
        <ele>2742.3</ele>
        <time>2026-03-03T10:00:37.000Z</time>
      </trkpt>
      <trkpt lat="44.83958" lon="6.77145">
        <ele>2742.4</ele>
        <time>2026-03-03T10:00:38.000Z</time>
      </trkpt>
      <trkpt lat="44.83959" lon="6.77146">
        <ele>2742.6</ele>
        <time>2026-03-03T10:00:39.000Z</time>
      </trkpt>
      <trkpt lat="44.8396" lon="6.77147">
        <ele>2742.8</ele>
        <time>2026-03-03T10:00:40.000Z</time>
      </trkpt>
      <trkpt lat="44.8396" lon="6.77147">
        <ele>2742.6</ele>
        <time>2026-03-03T10:00:41.000Z</time>
      </trkpt>
      <trkpt lat="44.8396" lon="6.77147">
        <ele>2742.6</ele>
        <time>2026-03-03T10:00:42.000Z</time>
      </trkpt>
      <trkpt lat="44.83961" lon="6.77147">
        <ele>2742.6</ele>
        <time>2026-03-03T10:00:43.000Z</time>
      </trkpt>
      <trkpt lat="44.83961" lon="6.77147">
        <ele>2743</ele>
        <time>2026-03-03T10:00:44.000Z</time>
      </trkpt>
      <trkpt lat="44.83961" lon="6.77148">
        <ele>2743.5</ele>
        <time>2026-03-03T10:00:45.000Z</time>
      </trkpt>
      <trkpt lat="44.83961" lon="6.77148">
        <ele>2743.4</ele>
        <time>2026-03-03T10:00:46.000Z</time>
      </trkpt>
      <trkpt lat="44.83961" lon="6.77149">
        <ele>2743.4</ele>
        <time>2026-03-03T10:00:47.000Z</time>
      </trkpt>
      <trkpt lat="44.83962" lon="6.7715">
        <ele>2743.4</ele>
        <time>2026-03-03T10:00:48.000Z</time>
      </trkpt>
      <trkpt lat="44.83962" lon="6.7715">
        <ele>2743.6</ele>
        <time>2026-03-03T10:00:49.000Z</time>
      </trkpt>
      <trkpt lat="44.83963" lon="6.77151">
        <ele>2743.8</ele>
        <time>2026-03-03T10:00:50.000Z</time>
      </trkpt>
      <trkpt lat="44.83963" lon="6.77151">
        <ele>2744.2</ele>
        <time>2026-03-03T10:00:51.000Z</time>
      </trkpt>
      <trkpt lat="44.83963" lon="6.77151">
        <ele>2744.4</ele>
        <time>2026-03-03T10:00:52.000Z</time>
      </trkpt>
      <trkpt lat="44.83963" lon="6.77152">
        <ele>2744.9</ele>
        <time>2026-03-03T10:00:53.000Z</time>
      </trkpt>
      <trkpt lat="44.83963" lon="6.77152">
        <ele>2745</ele>
        <time>2026-03-03T10:00:54.000Z</time>
      </trkpt>
      <trkpt lat="44.83963" lon="6.77152">
        <ele>2745</ele>
        <time>2026-03-03T10:00:55.000Z</time>
      </trkpt>
      <trkpt lat="44.83964" lon="6.77153">
        <ele>2744.9</ele>
        <time>2026-03-03T10:00:56.000Z</time>
      </trkpt>
      <trkpt lat="44.83964" lon="6.77154">
        <ele>2744.7</ele>
        <time>2026-03-03T10:00:57.000Z</time>
      </trkpt>
      <trkpt lat="44.83965" lon="6.77155">
        <ele>2744.5</ele>
        <time>2026-03-03T10:00:58.000Z</time>
      </trkpt>
      <trkpt lat="44.83965" lon="6.77155">
        <ele>2744.5</ele>
        <time>2026-03-03T10:00:59.000Z</time>
      </trkpt>
      <trkpt lat="44.83966" lon="6.77156">
        <ele>2744.5</ele>
        <time>2026-03-03T10:01:00.000Z</time>
      </trkpt>
      <trkpt lat="44.83966" lon="6.77157">
        <ele>2744.6</ele>
        <time>2026-03-03T10:01:01.000Z</time>
      </trkpt>
      <trkpt lat="44.83966" lon="6.77157">
        <ele>2744.8</ele>
        <time>2026-03-03T10:01:02.000Z</time>
      </trkpt>
      <trkpt lat="44.83966" lon="6.77158">
        <ele>2744.9</ele>
        <time>2026-03-03T10:01:03.000Z</time>
      </trkpt>
      <trkpt lat="44.83962" lon="6.77162">
        <ele>2745.5</ele>
        <time>2026-03-03T10:01:17.000Z</time>
      </trkpt>
      <trkpt lat="44.83962" lon="6.77162">
        <ele>2745.7</ele>
        <time>2026-03-03T10:01:18.000Z</time>
      </trkpt>
      <trkpt lat="44.83962" lon="6.77162">
        <ele>2745.9</ele>
        <time>2026-03-03T10:01:19.000Z</time>
      </trkpt>
      <trkpt lat="44.83962" lon="6.77163">
        <ele>2745.9</ele>
        <time>2026-03-03T10:01:20.000Z</time>
      </trkpt>
      <trkpt lat="44.83962" lon="6.77163">
        <ele>2746</ele>
        <time>2026-03-03T10:01:21.000Z</time>
      </trkpt>
      <trkpt lat="44.83961" lon="6.77163">
        <ele>2746.2</ele>
        <time>2026-03-03T10:01:22.000Z</time>
      </trkpt>
      <trkpt lat="44.83961" lon="6.77164">
        <ele>2746.3</ele>
        <time>2026-03-03T10:01:23.000Z</time>
      </trkpt>
      <trkpt lat="44.83961" lon="6.77164">
        <ele>2746.4</ele>
        <time>2026-03-03T10:01:24.000Z</time>
      </trkpt>
      <trkpt lat="44.83961" lon="6.77164">
        <ele>2746.5</ele>
        <time>2026-03-03T10:01:25.000Z</time>
      </trkpt>
      <trkpt lat="44.83961" lon="6.77164">
        <ele>2746.5</ele>
        <time>2026-03-03T10:01:26.000Z</time>
      </trkpt>
      <trkpt lat="44.83961" lon="6.77164">
        <ele>2746.6</ele>
        <time>2026-03-03T10:01:27.000Z</time>
      </trkpt>
      <trkpt lat="44.8396" lon="6.77165">
        <ele>2746.7</ele>
        <time>2026-03-03T10:01:28.000Z</time>
      </trkpt>
      <trkpt lat="44.8396" lon="6.77165">
        <ele>2746.7</ele>
        <time>2026-03-03T10:01:29.000Z</time>
      </trkpt>
      <trkpt lat="44.83959" lon="6.77166">
        <ele>2746.9</ele>
        <time>2026-03-03T10:01:30.000Z</time>
      </trkpt>
      <trkpt lat="44.83958" lon="6.77167">
        <ele>2746.9</ele>
        <time>2026-03-03T10:01:31.000Z</time>
      </trkpt>
      <trkpt lat="44.83958" lon="6.77167">
        <ele>2747.2</ele>
        <time>2026-03-03T10:01:32.000Z</time>
      </trkpt>
      <trkpt lat="44.83957" lon="6.77168">
        <ele>2747.4</ele>
        <time>2026-03-03T10:01:33.000Z</time>
      </trkpt>
      <trkpt lat="44.83957" lon="6.77168">
        <ele>2747.7</ele>
        <time>2026-03-03T10:01:34.000Z</time>
      </trkpt>
      <trkpt lat="44.83956" lon="6.77169">
        <ele>2747.8</ele>
        <time>2026-03-03T10:01:35.000Z</time>
      </trkpt>
      <trkpt lat="44.83955" lon="6.77169">
        <ele>2747.8</ele>
        <time>2026-03-03T10:01:36.000Z</time>
      </trkpt>
      <trkpt lat="44.83955" lon="6.7717">
        <ele>2747.9</ele>
        <time>2026-03-03T10:01:37.000Z</time>
      </trkpt>
      <trkpt lat="44.83955" lon="6.7717">
        <ele>2748.1</ele>
        <time>2026-03-03T10:01:38.000Z</time>
      </trkpt>
      <trkpt lat="44.83955" lon="6.7717">
        <ele>2748.4</ele>
        <time>2026-03-03T10:01:39.000Z</time>
      </trkpt>
      <trkpt lat="44.83954" lon="6.7717">
        <ele>2748.6</ele>
        <time>2026-03-03T10:01:40.000Z</time>
      </trkpt>
      <trkpt lat="44.83954" lon="6.77171">
        <ele>2748.7</ele>
        <time>2026-03-03T10:01:41.000Z</time>
      </trkpt>
      <trkpt lat="44.83953" lon="6.77172">
        <ele>2748.6</ele>
        <time>2026-03-03T10:01:42.000Z</time>
      </trkpt>
      <trkpt lat="44.83953" lon="6.77172">
        <ele>2748.6</ele>
        <time>2026-03-03T10:01:43.000Z</time>
      </trkpt>
      <trkpt lat="44.83953" lon="6.77172">
        <ele>2748.6</ele>
        <time>2026-03-03T10:01:44.000Z</time>
      </trkpt>
      <trkpt lat="44.83952" lon="6.77172">
        <ele>2748.7</ele>
        <time>2026-03-03T10:01:45.000Z</time>
      </trkpt>
      <trkpt lat="44.83952" lon="6.77173">
        <ele>2748.9</ele>
        <time>2026-03-03T10:01:46.000Z</time>
      </trkpt>
      <trkpt lat="44.83952" lon="6.77173">
        <ele>2749.2</ele>
        <time>2026-03-03T10:01:47.000Z</time>
      </trkpt>
      <trkpt lat="44.83952" lon="6.77174">
        <ele>2749.7</ele>
        <time>2026-03-03T10:01:48.000Z</time>
      </trkpt>
      <trkpt lat="44.83951" lon="6.77173">
        <ele>2749.9</ele>
        <time>2026-03-03T10:01:49.000Z</time>
      </trkpt>
      <trkpt lat="44.83951" lon="6.77173">
        <ele>2749.9</ele>
        <time>2026-03-03T10:01:50.000Z</time>
      </trkpt>
      <trkpt lat="44.8395" lon="6.77174">
        <ele>2749.9</ele>
        <time>2026-03-03T10:01:51.000Z</time>
      </trkpt>
      <trkpt lat="44.83949" lon="6.77174">
        <ele>2750.2</ele>
        <time>2026-03-03T10:01:52.000Z</time>
      </trkpt>
      <trkpt lat="44.83949" lon="6.77175">
        <ele>2750.6</ele>
        <time>2026-03-03T10:01:53.000Z</time>
      </trkpt>
      <trkpt lat="44.83949" lon="6.77175">
        <ele>2750.8</ele>
        <time>2026-03-03T10:01:54.000Z</time>
      </trkpt>
      <trkpt lat="44.83949" lon="6.77175">
        <ele>2751</ele>
        <time>2026-03-03T10:01:55.000Z</time>
      </trkpt>
      <trkpt lat="44.83949" lon="6.77175">
        <ele>2751.1</ele>
        <time>2026-03-03T10:01:56.000Z</time>
      </trkpt>
      <trkpt lat="44.83949" lon="6.77175">
        <ele>2751.2</ele>
        <time>2026-03-03T10:01:57.000Z</time>
      </trkpt>
      <trkpt lat="44.83948" lon="6.77175">
        <ele>2751.4</ele>
        <time>2026-03-03T10:01:58.000Z</time>
      </trkpt>
      <trkpt lat="44.83948" lon="6.77176">
        <ele>2751.5</ele>
        <time>2026-03-03T10:01:59.000Z</time>
      </trkpt>
      <trkpt lat="44.83948" lon="6.77176">
        <ele>2751.7</ele>
        <time>2026-03-03T10:02:00.000Z</time>
      </trkpt>
      <trkpt lat="44.83947" lon="6.77176">
        <ele>2751.8</ele>
        <time>2026-03-03T10:02:01.000Z</time>
      </trkpt>
      <trkpt lat="44.83947" lon="6.77176">
        <ele>2751.9</ele>
        <time>2026-03-03T10:02:02.000Z</time>
      </trkpt>
      <trkpt lat="44.83947" lon="6.77176">
        <ele>2752</ele>
        <time>2026-03-03T10:02:03.000Z</time>
      </trkpt>
      <trkpt lat="44.83946" lon="6.77177">
        <ele>2751.9</ele>
        <time>2026-03-03T10:02:04.000Z</time>
      </trkpt>
      <trkpt lat="44.83945" lon="6.77177">
        <ele>2751.8</ele>
        <time>2026-03-03T10:02:05.000Z</time>
      </trkpt>
      <trkpt lat="44.83945" lon="6.77178">
        <ele>2751.9</ele>
        <time>2026-03-03T10:02:06.000Z</time>
      </trkpt>
      <trkpt lat="44.83944" lon="6.77178">
        <ele>2752</ele>
        <time>2026-03-03T10:02:07.000Z</time>
      </trkpt>
      <trkpt lat="44.83944" lon="6.77179">
        <ele>2751.9</ele>
        <time>2026-03-03T10:02:08.000Z</time>
      </trkpt>
      <trkpt lat="44.83944" lon="6.77179">
        <ele>2752</ele>
        <time>2026-03-03T10:02:09.000Z</time>
      </trkpt>
      <trkpt lat="44.83944" lon="6.77179">
        <ele>2752.1</ele>
        <time>2026-03-03T10:02:10.000Z</time>
      </trkpt>
      <trkpt lat="44.83943" lon="6.7718">
        <ele>2752.1</ele>
        <time>2026-03-03T10:02:11.000Z</time>
      </trkpt>
      <trkpt lat="44.83943" lon="6.7718">
        <ele>2752.1</ele>
        <time>2026-03-03T10:02:12.000Z</time>
      </trkpt>
      <trkpt lat="44.83943" lon="6.7718">
        <ele>2752.1</ele>
        <time>2026-03-03T10:02:13.000Z</time>
      </trkpt>
      <trkpt lat="44.83943" lon="6.7718">
        <ele>2752.1</ele>
        <time>2026-03-03T10:02:14.000Z</time>
      </trkpt>
      <trkpt lat="44.83943" lon="6.7718">
        <ele>2752.1</ele>
        <time>2026-03-03T10:02:15.000Z</time>
      </trkpt>
      <trkpt lat="44.83942" lon="6.77181">
        <ele>2752.1</ele>
        <time>2026-03-03T10:02:16.000Z</time>
      </trkpt>
      <trkpt lat="44.83942" lon="6.77182">
        <ele>2752.1</ele>
        <time>2026-03-03T10:02:17.000Z</time>
      </trkpt>
      <trkpt lat="44.83942" lon="6.77182">
        <ele>2752</ele>
        <time>2026-03-03T10:02:18.000Z</time>
      </trkpt>
      <trkpt lat="44.83941" lon="6.77182">
        <ele>2752.1</ele>
        <time>2026-03-03T10:02:19.000Z</time>
      </trkpt>
      <trkpt lat="44.83941" lon="6.77183">
        <ele>2752.1</ele>
        <time>2026-03-03T10:02:20.000Z</time>
      </trkpt>
      <trkpt lat="44.83941" lon="6.77183">
        <ele>2752.3</ele>
        <time>2026-03-03T10:02:21.000Z</time>
      </trkpt>
      <trkpt lat="44.8394" lon="6.77184">
        <ele>2752.6</ele>
        <time>2026-03-03T10:02:22.000Z</time>
      </trkpt>
      <trkpt lat="44.8394" lon="6.77184">
        <ele>2752.8</ele>
        <time>2026-03-03T10:02:23.000Z</time>
      </trkpt>
      <trkpt lat="44.83939" lon="6.77185">
        <ele>2753</ele>
        <time>2026-03-03T10:02:24.000Z</time>
      </trkpt>
      <trkpt lat="44.83939" lon="6.77185">
        <ele>2753.1</ele>
        <time>2026-03-03T10:02:25.000Z</time>
      </trkpt>
      <trkpt lat="44.83939" lon="6.77185">
        <ele>2753.2</ele>
        <time>2026-03-03T10:02:26.000Z</time>
      </trkpt>
      <trkpt lat="44.83938" lon="6.77186">
        <ele>2753.3</ele>
        <time>2026-03-03T10:02:27.000Z</time>
      </trkpt>
      <trkpt lat="44.83938" lon="6.77186">
        <ele>2753.5</ele>
        <time>2026-03-03T10:02:28.000Z</time>
      </trkpt>
      <trkpt lat="44.83938" lon="6.77187">
        <ele>2753.6</ele>
        <time>2026-03-03T10:02:29.000Z</time>
      </trkpt>
      <trkpt lat="44.83937" lon="6.77187">
        <ele>2753.8</ele>
        <time>2026-03-03T10:02:30.000Z</time>
      </trkpt>
      <trkpt lat="44.83936" lon="6.77188">
        <ele>2754.2</ele>
        <time>2026-03-03T10:02:31.000Z</time>
      </trkpt>
      <trkpt lat="44.83936" lon="6.77188">
        <ele>2754.4</ele>
        <time>2026-03-03T10:02:32.000Z</time>
      </trkpt>
      <trkpt lat="44.83936" lon="6.77188">
        <ele>2754.6</ele>
        <time>2026-03-03T10:02:33.000Z</time>
      </trkpt>
      <trkpt lat="44.8394" lon="6.7719">
        <ele>2757.6</ele>
        <time>2026-03-03T10:02:47.000Z</time>
      </trkpt>
      <trkpt lat="44.83941" lon="6.7719">
        <ele>2757.5</ele>
        <time>2026-03-03T10:02:48.000Z</time>
      </trkpt>
      <trkpt lat="44.83941" lon="6.7719">
        <ele>2757.5</ele>
        <time>2026-03-03T10:02:49.000Z</time>
      </trkpt>
      <trkpt lat="44.83941" lon="6.7719">
        <ele>2757.8</ele>
        <time>2026-03-03T10:02:50.000Z</time>
      </trkpt>
      <trkpt lat="44.83941" lon="6.7719">
        <ele>2758</ele>
        <time>2026-03-03T10:02:51.000Z</time>
      </trkpt>
      <trkpt lat="44.83941" lon="6.77191">
        <ele>2758.1</ele>
        <time>2026-03-03T10:02:52.000Z</time>
      </trkpt>
      <trkpt lat="44.83942" lon="6.77191">
        <ele>2758.3</ele>
        <time>2026-03-03T10:02:53.000Z</time>
      </trkpt>
      <trkpt lat="44.83942" lon="6.77191">
        <ele>2758.4</ele>
        <time>2026-03-03T10:02:54.000Z</time>
      </trkpt>
      <trkpt lat="44.83943" lon="6.77191">
        <ele>2758.5</ele>
        <time>2026-03-03T10:02:55.000Z</time>
      </trkpt>
      <trkpt lat="44.83944" lon="6.77192">
        <ele>2758.5</ele>
        <time>2026-03-03T10:02:56.000Z</time>
      </trkpt>
      <trkpt lat="44.83945" lon="6.77192">
        <ele>2758.6</ele>
        <time>2026-03-03T10:02:57.000Z</time>
      </trkpt>
      <trkpt lat="44.83945" lon="6.77193">
        <ele>2758.8</ele>
        <time>2026-03-03T10:02:58.000Z</time>
      </trkpt>
      <trkpt lat="44.83946" lon="6.77194">
        <ele>2759.1</ele>
        <time>2026-03-03T10:02:59.000Z</time>
      </trkpt>
      <trkpt lat="44.83948" lon="6.77197">
        <ele>2760.8</ele>
        <time>2026-03-03T10:03:13.000Z</time>
      </trkpt>
      <trkpt lat="44.83949" lon="6.77199">
        <ele>2760.8</ele>
        <time>2026-03-03T10:03:14.000Z</time>
      </trkpt>
      <trkpt lat="44.83949" lon="6.77199">
        <ele>2760.9</ele>
        <time>2026-03-03T10:03:15.000Z</time>
      </trkpt>
      <trkpt lat="44.8395" lon="6.77199">
        <ele>2761.3</ele>
        <time>2026-03-03T10:03:16.000Z</time>
      </trkpt>
      <trkpt lat="44.8395" lon="6.77199">
        <ele>2761.4</ele>
        <time>2026-03-03T10:03:17.000Z</time>
      </trkpt>
      <trkpt lat="44.8395" lon="6.77199">
        <ele>2761.5</ele>
        <time>2026-03-03T10:03:18.000Z</time>
      </trkpt>
      <trkpt lat="44.83951" lon="6.772">
        <ele>2761.5</ele>
        <time>2026-03-03T10:03:19.000Z</time>
      </trkpt>
      <trkpt lat="44.83951" lon="6.77201">
        <ele>2761.6</ele>
        <time>2026-03-03T10:03:20.000Z</time>
      </trkpt>
      <trkpt lat="44.83952" lon="6.77201">
        <ele>2761.8</ele>
        <time>2026-03-03T10:03:21.000Z</time>
      </trkpt>
      <trkpt lat="44.83952" lon="6.77202">
        <ele>2761.8</ele>
        <time>2026-03-03T10:03:22.000Z</time>
      </trkpt>
      <trkpt lat="44.83953" lon="6.77202">
        <ele>2761.9</ele>
        <time>2026-03-03T10:03:23.000Z</time>
      </trkpt>
      <trkpt lat="44.83953" lon="6.77202">
        <ele>2761.9</ele>
        <time>2026-03-03T10:03:24.000Z</time>
      </trkpt>
      <trkpt lat="44.83953" lon="6.77202">
        <ele>2761.9</ele>
        <time>2026-03-03T10:03:25.000Z</time>
      </trkpt>
      <trkpt lat="44.83953" lon="6.77202">
        <ele>2761.9</ele>
        <time>2026-03-03T10:03:26.000Z</time>
      </trkpt>
      <trkpt lat="44.83953" lon="6.77203">
        <ele>2762</ele>
        <time>2026-03-03T10:03:27.000Z</time>
      </trkpt>
      <trkpt lat="44.83954" lon="6.77203">
        <ele>2762.2</ele>
        <time>2026-03-03T10:03:28.000Z</time>
      </trkpt>
      <trkpt lat="44.83954" lon="6.77203">
        <ele>2762.2</ele>
        <time>2026-03-03T10:03:29.000Z</time>
      </trkpt>
      <trkpt lat="44.83954" lon="6.77203">
        <ele>2762.5</ele>
        <time>2026-03-03T10:03:30.000Z</time>
      </trkpt>
      <trkpt lat="44.83955" lon="6.77204">
        <ele>2762.8</ele>
        <time>2026-03-03T10:03:31.999Z</time>
      </trkpt>
      <trkpt lat="44.83956" lon="6.77204">
        <ele>2762.9</ele>
        <time>2026-03-03T10:03:32.999Z</time>
      </trkpt>
      <trkpt lat="44.83956" lon="6.77205">
        <ele>2763</ele>
        <time>2026-03-03T10:03:33.999Z</time>
      </trkpt>
      <trkpt lat="44.83957" lon="6.77206">
        <ele>2763</ele>
        <time>2026-03-03T10:03:34.999Z</time>
      </trkpt>
      <trkpt lat="44.83957" lon="6.77206">
        <ele>2763.1</ele>
        <time>2026-03-03T10:03:35.999Z</time>
      </trkpt>
      <trkpt lat="44.83957" lon="6.77206">
        <ele>2763.2</ele>
        <time>2026-03-03T10:03:36.999Z</time>
      </trkpt>
      <trkpt lat="44.83958" lon="6.77207">
        <ele>2763.3</ele>
        <time>2026-03-03T10:03:37.999Z</time>
      </trkpt>
      <trkpt lat="44.83958" lon="6.77207">
        <ele>2763.4</ele>
        <time>2026-03-03T10:03:38.999Z</time>
      </trkpt>
      <trkpt lat="44.83958" lon="6.77207">
        <ele>2763.5</ele>
        <time>2026-03-03T10:03:39.999Z</time>
      </trkpt>
      <trkpt lat="44.83959" lon="6.77208">
        <ele>2763.7</ele>
        <time>2026-03-03T10:03:40.999Z</time>
      </trkpt>
      <trkpt lat="44.83959" lon="6.77208">
        <ele>2764</ele>
        <time>2026-03-03T10:03:41.999Z</time>
      </trkpt>
      <trkpt lat="44.83959" lon="6.77209">
        <ele>2764.2</ele>
        <time>2026-03-03T10:03:42.999Z</time>
      </trkpt>
      <trkpt lat="44.8396" lon="6.77209">
        <ele>2764.2</ele>
        <time>2026-03-03T10:03:43.999Z</time>
      </trkpt>
      <trkpt lat="44.83961" lon="6.7721">
        <ele>2764.3</ele>
        <time>2026-03-03T10:03:44.999Z</time>
      </trkpt>
      <trkpt lat="44.83961" lon="6.7721">
        <ele>2764.3</ele>
        <time>2026-03-03T10:03:45.999Z</time>
      </trkpt>
      <trkpt lat="44.83962" lon="6.77211">
        <ele>2764.5</ele>
        <time>2026-03-03T10:03:46.999Z</time>
      </trkpt>
      <trkpt lat="44.83962" lon="6.77211">
        <ele>2764.6</ele>
        <time>2026-03-03T10:03:47.999Z</time>
      </trkpt>
      <trkpt lat="44.83962" lon="6.77212">
        <ele>2764.7</ele>
        <time>2026-03-03T10:03:48.999Z</time>
      </trkpt>
      <trkpt lat="44.83963" lon="6.77212">
        <ele>2764.7</ele>
        <time>2026-03-03T10:03:49.999Z</time>
      </trkpt>
      <trkpt lat="44.83963" lon="6.77213">
        <ele>2764.6</ele>
        <time>2026-03-03T10:03:50.999Z</time>
      </trkpt>
      <trkpt lat="44.83963" lon="6.77213">
        <ele>2764.6</ele>
        <time>2026-03-03T10:03:51.999Z</time>
      </trkpt>
      <trkpt lat="44.83964" lon="6.77213">
        <ele>2764.6</ele>
        <time>2026-03-03T10:03:52.999Z</time>
      </trkpt>
      <trkpt lat="44.83964" lon="6.77213">
        <ele>2764.8</ele>
        <time>2026-03-03T10:03:53.999Z</time>
      </trkpt>
      <trkpt lat="44.83964" lon="6.77214">
        <ele>2765</ele>
        <time>2026-03-03T10:03:54.999Z</time>
      </trkpt>
      <trkpt lat="44.83965" lon="6.77214">
        <ele>2765</ele>
        <time>2026-03-03T10:03:55.999Z</time>
      </trkpt>
      <trkpt lat="44.83965" lon="6.77214">
        <ele>2765.1</ele>
        <time>2026-03-03T10:03:56.999Z</time>
      </trkpt>
      <trkpt lat="44.83965" lon="6.77214">
        <ele>2765.1</ele>
        <time>2026-03-03T10:03:57.999Z</time>
      </trkpt>
      <trkpt lat="44.83965" lon="6.77214">
        <ele>2765.2</ele>
        <time>2026-03-03T10:03:58.999Z</time>
      </trkpt>
      <trkpt lat="44.83966" lon="6.77215">
        <ele>2765.2</ele>
        <time>2026-03-03T10:03:59.999Z</time>
      </trkpt>
      <trkpt lat="44.83966" lon="6.77215">
        <ele>2765.3</ele>
        <time>2026-03-03T10:04:00.999Z</time>
      </trkpt>
      <trkpt lat="44.83967" lon="6.77216">
        <ele>2765.2</ele>
        <time>2026-03-03T10:04:01.999Z</time>
      </trkpt>
      <trkpt lat="44.83968" lon="6.77216">
        <ele>2765.2</ele>
        <time>2026-03-03T10:04:02.999Z</time>
      </trkpt>
      <trkpt lat="44.83968" lon="6.77217">
        <ele>2764.7</ele>
        <time>2026-03-03T10:04:03.999Z</time>
      </trkpt>
      <trkpt lat="44.83968" lon="6.77218">
        <ele>2764.7</ele>
        <time>2026-03-03T10:04:04.999Z</time>
      </trkpt>
      <trkpt lat="44.83968" lon="6.77218">
        <ele>2764.8</ele>
        <time>2026-03-03T10:04:05.999Z</time>
      </trkpt>
      <trkpt lat="44.83968" lon="6.77218">
        <ele>2764.8</ele>
        <time>2026-03-03T10:04:06.999Z</time>
      </trkpt>
      <trkpt lat="44.83969" lon="6.77218">
        <ele>2765.1</ele>
        <time>2026-03-03T10:04:07.999Z</time>
      </trkpt>
      <trkpt lat="44.83969" lon="6.77218">
        <ele>2765.6</ele>
        <time>2026-03-03T10:04:08.999Z</time>
      </trkpt>
      <trkpt lat="44.83969" lon="6.77218">
        <ele>2765.3</ele>
        <time>2026-03-03T10:04:09.999Z</time>
      </trkpt>
      <trkpt lat="44.83969" lon="6.77219">
        <ele>2765.2</ele>
        <time>2026-03-03T10:04:10.999Z</time>
      </trkpt>
      <trkpt lat="44.83969" lon="6.77219">
        <ele>2765.4</ele>
        <time>2026-03-03T10:04:11.999Z</time>
      </trkpt>
      <trkpt lat="44.8397" lon="6.7722">
        <ele>2765.5</ele>
        <time>2026-03-03T10:04:12.999Z</time>
      </trkpt>
      <trkpt lat="44.8397" lon="6.7722">
        <ele>2765.6</ele>
        <time>2026-03-03T10:04:13.999Z</time>
      </trkpt>
      <trkpt lat="44.83971" lon="6.7722">
        <ele>2765.6</ele>
        <time>2026-03-03T10:04:14.999Z</time>
      </trkpt>
      <trkpt lat="44.83972" lon="6.77221">
        <ele>2765.9</ele>
        <time>2026-03-03T10:04:15.999Z</time>
      </trkpt>
      <trkpt lat="44.83972" lon="6.77222">
        <ele>2766.1</ele>
        <time>2026-03-03T10:04:16.999Z</time>
      </trkpt>
      <trkpt lat="44.83972" lon="6.77222">
        <ele>2766.2</ele>
        <time>2026-03-03T10:04:17.999Z</time>
      </trkpt>
      <trkpt lat="44.83972" lon="6.77222">
        <ele>2766.5</ele>
        <time>2026-03-03T10:04:18.999Z</time>
      </trkpt>
      <trkpt lat="44.83973" lon="6.77223">
        <ele>2766.7</ele>
        <time>2026-03-03T10:04:19.999Z</time>
      </trkpt>
      <trkpt lat="44.83973" lon="6.77223">
        <ele>2766.8</ele>
        <time>2026-03-03T10:04:20.999Z</time>
      </trkpt>
      <trkpt lat="44.83973" lon="6.77223">
        <ele>2767</ele>
        <time>2026-03-03T10:04:21.999Z</time>
      </trkpt>
      <trkpt lat="44.83973" lon="6.77223">
        <ele>2767</ele>
        <time>2026-03-03T10:04:22.999Z</time>
      </trkpt>
      <trkpt lat="44.83974" lon="6.77223">
        <ele>2767</ele>
        <time>2026-03-03T10:04:23.999Z</time>
      </trkpt>
      <trkpt lat="44.83974" lon="6.77223">
        <ele>2766.9</ele>
        <time>2026-03-03T10:04:24.999Z</time>
      </trkpt>
      <trkpt lat="44.83974" lon="6.77223">
        <ele>2766.9</ele>
        <time>2026-03-03T10:04:25.999Z</time>
      </trkpt>
      <trkpt lat="44.83974" lon="6.77224">
        <ele>2766.9</ele>
        <time>2026-03-03T10:04:26.999Z</time>
      </trkpt>
      <trkpt lat="44.83974" lon="6.77224">
        <ele>2766.9</ele>
        <time>2026-03-03T10:04:27.999Z</time>
      </trkpt>
      <trkpt lat="44.83976" lon="6.77225">
        <ele>2766.9</ele>
        <time>2026-03-03T10:04:28.999Z</time>
      </trkpt>
      <trkpt lat="44.83976" lon="6.77225">
        <ele>2767.1</ele>
        <time>2026-03-03T10:04:29.999Z</time>
      </trkpt>
      <trkpt lat="44.83977" lon="6.77225">
        <ele>2767.4</ele>
        <time>2026-03-03T10:04:30.999Z</time>
      </trkpt>
      <trkpt lat="44.83978" lon="6.77226">
        <ele>2767.5</ele>
        <time>2026-03-03T10:04:31.999Z</time>
      </trkpt>
      <trkpt lat="44.83978" lon="6.77226">
        <ele>2767.4</ele>
        <time>2026-03-03T10:04:32.999Z</time>
      </trkpt>
      <trkpt lat="44.83978" lon="6.77226">
        <ele>2767.5</ele>
        <time>2026-03-03T10:04:33.999Z</time>
      </trkpt>
      <trkpt lat="44.83978" lon="6.77226">
        <ele>2767.5</ele>
        <time>2026-03-03T10:04:34.999Z</time>
      </trkpt>
      <trkpt lat="44.83978" lon="6.77226">
        <ele>2767.6</ele>
        <time>2026-03-03T10:04:35.999Z</time>
      </trkpt>
      <trkpt lat="44.83978" lon="6.77226">
        <ele>2767.7</ele>
        <time>2026-03-03T10:04:36.999Z</time>
      </trkpt>
      <trkpt lat="44.83979" lon="6.77226">
        <ele>2767.7</ele>
        <time>2026-03-03T10:04:37.999Z</time>
      </trkpt>
      <trkpt lat="44.83979" lon="6.77226">
        <ele>2767.7</ele>
        <time>2026-03-03T10:04:38.999Z</time>
      </trkpt>
      <trkpt lat="44.83979" lon="6.77227">
        <ele>2767.7</ele>
        <time>2026-03-03T10:04:39.999Z</time>
      </trkpt>
      <trkpt lat="44.83979" lon="6.77227">
        <ele>2767.7</ele>
        <time>2026-03-03T10:04:40.999Z</time>
      </trkpt>
      <trkpt lat="44.8398" lon="6.77227">
        <ele>2767.7</ele>
        <time>2026-03-03T10:04:41.999Z</time>
      </trkpt>
      <trkpt lat="44.83981" lon="6.77228">
        <ele>2767.7</ele>
        <time>2026-03-03T10:04:42.999Z</time>
      </trkpt>
      <trkpt lat="44.83982" lon="6.77229">
        <ele>2767.8</ele>
        <time>2026-03-03T10:04:43.999Z</time>
      </trkpt>
      <trkpt lat="44.83983" lon="6.7723">
        <ele>2767.9</ele>
        <time>2026-03-03T10:04:44.999Z</time>
      </trkpt>
      <trkpt lat="44.83984" lon="6.7723">
        <ele>2768.2</ele>
        <time>2026-03-03T10:04:45.999Z</time>
      </trkpt>
      <trkpt lat="44.83985" lon="6.7723">
        <ele>2768.5</ele>
        <time>2026-03-03T10:04:46.999Z</time>
      </trkpt>
      <trkpt lat="44.83985" lon="6.7723">
        <ele>2768.7</ele>
        <time>2026-03-03T10:04:47.999Z</time>
      </trkpt>
      <trkpt lat="44.83985" lon="6.7723">
        <ele>2768.9</ele>
        <time>2026-03-03T10:04:48.999Z</time>
      </trkpt>
      <trkpt lat="44.83985" lon="6.77231">
        <ele>2769.5</ele>
        <time>2026-03-03T10:04:49.999Z</time>
      </trkpt>
      <trkpt lat="44.83986" lon="6.77231">
        <ele>2770.1</ele>
        <time>2026-03-03T10:04:50.999Z</time>
      </trkpt>
      <trkpt lat="44.83986" lon="6.77232">
        <ele>2770.4</ele>
        <time>2026-03-03T10:04:51.999Z</time>
      </trkpt>
      <trkpt lat="44.83987" lon="6.77233">
        <ele>2770.6</ele>
        <time>2026-03-03T10:04:52.999Z</time>
      </trkpt>
      <trkpt lat="44.83994" lon="6.77239">
        <ele>2774.4</ele>
        <time>2026-03-03T10:05:20.999Z</time>
      </trkpt>
      <trkpt lat="44.83995" lon="6.7724">
        <ele>2774.5</ele>
        <time>2026-03-03T10:05:21.999Z</time>
      </trkpt>
      <trkpt lat="44.83996" lon="6.77241">
        <ele>2774.5</ele>
        <time>2026-03-03T10:05:22.999Z</time>
      </trkpt>
      <trkpt lat="44.83996" lon="6.77241">
        <ele>2774.8</ele>
        <time>2026-03-03T10:05:23.999Z</time>
      </trkpt>
      <trkpt lat="44.83996" lon="6.77241">
        <ele>2775.1</ele>
        <time>2026-03-03T10:05:24.999Z</time>
      </trkpt>
      <trkpt lat="44.83997" lon="6.77242">
        <ele>2775.3</ele>
        <time>2026-03-03T10:05:25.999Z</time>
      </trkpt>
      <trkpt lat="44.83998" lon="6.77242">
        <ele>2775.5</ele>
        <time>2026-03-03T10:05:26.999Z</time>
      </trkpt>
      <trkpt lat="44.83999" lon="6.77242">
        <ele>2775.6</ele>
        <time>2026-03-03T10:05:27.999Z</time>
      </trkpt>
      <trkpt lat="44.83999" lon="6.77243">
        <ele>2775.6</ele>
        <time>2026-03-03T10:05:28.999Z</time>
      </trkpt>
      <trkpt lat="44.84003" lon="6.77246">
        <ele>2777.4</ele>
        <time>2026-03-03T10:05:42.999Z</time>
      </trkpt>
      <trkpt lat="44.84004" lon="6.77246">
        <ele>2777.6</ele>
        <time>2026-03-03T10:05:43.999Z</time>
      </trkpt>
      <trkpt lat="44.84004" lon="6.77247">
        <ele>2777.7</ele>
        <time>2026-03-03T10:05:44.999Z</time>
      </trkpt>
      <trkpt lat="44.84005" lon="6.77247">
        <ele>2778</ele>
        <time>2026-03-03T10:05:45.999Z</time>
      </trkpt>
      <trkpt lat="44.84005" lon="6.77248">
        <ele>2778.1</ele>
        <time>2026-03-03T10:05:46.999Z</time>
      </trkpt>
      <trkpt lat="44.84005" lon="6.77248">
        <ele>2778.2</ele>
        <time>2026-03-03T10:05:47.999Z</time>
      </trkpt>
      <trkpt lat="44.84005" lon="6.77248">
        <ele>2778.4</ele>
        <time>2026-03-03T10:05:48.999Z</time>
      </trkpt>
      <trkpt lat="44.84006" lon="6.77248">
        <ele>2778.6</ele>
        <time>2026-03-03T10:05:49.999Z</time>
      </trkpt>
      <trkpt lat="44.84007" lon="6.77249">
        <ele>2778.9</ele>
        <time>2026-03-03T10:05:50.999Z</time>
      </trkpt>
      <trkpt lat="44.84008" lon="6.77249">
        <ele>2779.1</ele>
        <time>2026-03-03T10:05:51.999Z</time>
      </trkpt>
      <trkpt lat="44.84008" lon="6.7725">
        <ele>2779.3</ele>
        <time>2026-03-03T10:05:52.999Z</time>
      </trkpt>
      <trkpt lat="44.84009" lon="6.7725">
        <ele>2779.6</ele>
        <time>2026-03-03T10:05:53.999Z</time>
      </trkpt>
      <trkpt lat="44.84009" lon="6.77251">
        <ele>2779.7</ele>
        <time>2026-03-03T10:05:54.999Z</time>
      </trkpt>
      <trkpt lat="44.84009" lon="6.77251">
        <ele>2779.9</ele>
        <time>2026-03-03T10:05:55.999Z</time>
      </trkpt>
      <trkpt lat="44.84009" lon="6.77251">
        <ele>2779.9</ele>
        <time>2026-03-03T10:05:56.999Z</time>
      </trkpt>
      <trkpt lat="44.8401" lon="6.77251">
        <ele>2780</ele>
        <time>2026-03-03T10:05:57.999Z</time>
      </trkpt>
      <trkpt lat="44.8401" lon="6.77251">
        <ele>2780.1</ele>
        <time>2026-03-03T10:05:58.999Z</time>
      </trkpt>
      <trkpt lat="44.84011" lon="6.77251">
        <ele>2780.1</ele>
        <time>2026-03-03T10:05:59.999Z</time>
      </trkpt>
      <trkpt lat="44.84012" lon="6.77251">
        <ele>2780.2</ele>
        <time>2026-03-03T10:06:00.999Z</time>
      </trkpt>
      <trkpt lat="44.84012" lon="6.77251">
        <ele>2780.3</ele>
        <time>2026-03-03T10:06:01.999Z</time>
      </trkpt>
      <trkpt lat="44.84012" lon="6.77252">
        <ele>2780.5</ele>
        <time>2026-03-03T10:06:02.999Z</time>
      </trkpt>
      <trkpt lat="44.84013" lon="6.77252">
        <ele>2780.7</ele>
        <time>2026-03-03T10:06:03.999Z</time>
      </trkpt>
      <trkpt lat="44.84013" lon="6.77252">
        <ele>2780.9</ele>
        <time>2026-03-03T10:06:04.999Z</time>
      </trkpt>
      <trkpt lat="44.84013" lon="6.77252">
        <ele>2781.1</ele>
        <time>2026-03-03T10:06:05.999Z</time>
      </trkpt>
      <trkpt lat="44.84014" lon="6.77252">
        <ele>2781</ele>
        <time>2026-03-03T10:06:06.999Z</time>
      </trkpt>
      <trkpt lat="44.84014" lon="6.77252">
        <ele>2780.9</ele>
        <time>2026-03-03T10:06:07.999Z</time>
      </trkpt>
      <trkpt lat="44.84014" lon="6.77252">
        <ele>2780.8</ele>
        <time>2026-03-03T10:06:08.999Z</time>
      </trkpt>
      <trkpt lat="44.84015" lon="6.77253">
        <ele>2780.9</ele>
        <time>2026-03-03T10:06:09.999Z</time>
      </trkpt>
      <trkpt lat="44.84015" lon="6.77253">
        <ele>2781</ele>
        <time>2026-03-03T10:06:10.999Z</time>
      </trkpt>
      <trkpt lat="44.84015" lon="6.77253">
        <ele>2781.2</ele>
        <time>2026-03-03T10:06:11.999Z</time>
      </trkpt>
      <trkpt lat="44.84016" lon="6.77253">
        <ele>2781.3</ele>
        <time>2026-03-03T10:06:12.999Z</time>
      </trkpt>
      <trkpt lat="44.84016" lon="6.77254">
        <ele>2781.4</ele>
        <time>2026-03-03T10:06:13.999Z</time>
      </trkpt>
      <trkpt lat="44.84016" lon="6.77254">
        <ele>2781.4</ele>
        <time>2026-03-03T10:06:14.999Z</time>
      </trkpt>
      <trkpt lat="44.84016" lon="6.77254">
        <ele>2781.4</ele>
        <time>2026-03-03T10:06:15.999Z</time>
      </trkpt>
      <trkpt lat="44.84016" lon="6.77255">
        <ele>2781.4</ele>
        <time>2026-03-03T10:06:16.999Z</time>
      </trkpt>
      <trkpt lat="44.84016" lon="6.77256">
        <ele>2781.4</ele>
        <time>2026-03-03T10:06:17.999Z</time>
      </trkpt>
      <trkpt lat="44.84016" lon="6.77256">
        <ele>2781.5</ele>
        <time>2026-03-03T10:06:18.999Z</time>
      </trkpt>
      <trkpt lat="44.84016" lon="6.77257">
        <ele>2781.4</ele>
        <time>2026-03-03T10:06:19.999Z</time>
      </trkpt>
      <trkpt lat="44.84016" lon="6.77257">
        <ele>2781.5</ele>
        <time>2026-03-03T10:06:20.999Z</time>
      </trkpt>
      <trkpt lat="44.84016" lon="6.77257">
        <ele>2781.6</ele>
        <time>2026-03-03T10:06:21.999Z</time>
      </trkpt>
      <trkpt lat="44.84016" lon="6.77257">
        <ele>2781.6</ele>
        <time>2026-03-03T10:06:22.999Z</time>
      </trkpt>
      <trkpt lat="44.84016" lon="6.77258">
        <ele>2781.7</ele>
        <time>2026-03-03T10:06:23.999Z</time>
      </trkpt>
      <trkpt lat="44.84015" lon="6.77259">
        <ele>2781.7</ele>
        <time>2026-03-03T10:06:24.999Z</time>
      </trkpt>
      <trkpt lat="44.84015" lon="6.7726">
        <ele>2782</ele>
        <time>2026-03-03T10:06:25.999Z</time>
      </trkpt>
      <trkpt lat="44.84014" lon="6.7726">
        <ele>2782.2</ele>
        <time>2026-03-03T10:06:26.999Z</time>
      </trkpt>
      <trkpt lat="44.84014" lon="6.7726">
        <ele>2782.4</ele>
        <time>2026-03-03T10:06:27.999Z</time>
      </trkpt>
      <trkpt lat="44.84014" lon="6.7726">
        <ele>2782.5</ele>
        <time>2026-03-03T10:06:28.999Z</time>
      </trkpt>
      <trkpt lat="44.84014" lon="6.77261">
        <ele>2782.6</ele>
        <time>2026-03-03T10:06:29.999Z</time>
      </trkpt>
      <trkpt lat="44.84014" lon="6.77262">
        <ele>2782.7</ele>
        <time>2026-03-03T10:06:30.999Z</time>
      </trkpt>
      <trkpt lat="44.84013" lon="6.77263">
        <ele>2782.9</ele>
        <time>2026-03-03T10:06:31.999Z</time>
      </trkpt>
      <trkpt lat="44.84012" lon="6.77264">
        <ele>2783.1</ele>
        <time>2026-03-03T10:06:32.999Z</time>
      </trkpt>
      <trkpt lat="44.84012" lon="6.77265">
        <ele>2783.2</ele>
        <time>2026-03-03T10:06:33.999Z</time>
      </trkpt>
      <trkpt lat="44.84011" lon="6.77265">
        <ele>2783.2</ele>
        <time>2026-03-03T10:06:34.999Z</time>
      </trkpt>
      <trkpt lat="44.84011" lon="6.77266">
        <ele>2783.2</ele>
        <time>2026-03-03T10:06:35.999Z</time>
      </trkpt>
      <trkpt lat="44.8401" lon="6.77266">
        <ele>2783.1</ele>
        <time>2026-03-03T10:06:36.999Z</time>
      </trkpt>
      <trkpt lat="44.8401" lon="6.77267">
        <ele>2783.1</ele>
        <time>2026-03-03T10:06:37.999Z</time>
      </trkpt>
      <trkpt lat="44.8401" lon="6.77267">
        <ele>2783.1</ele>
        <time>2026-03-03T10:06:38.999Z</time>
      </trkpt>
      <trkpt lat="44.84009" lon="6.77267">
        <ele>2783.1</ele>
        <time>2026-03-03T10:06:39.999Z</time>
      </trkpt>
      <trkpt lat="44.84009" lon="6.77268">
        <ele>2783.1</ele>
        <time>2026-03-03T10:06:40.999Z</time>
      </trkpt>
      <trkpt lat="44.84009" lon="6.77269">
        <ele>2783.2</ele>
        <time>2026-03-03T10:06:41.999Z</time>
      </trkpt>
      <trkpt lat="44.84008" lon="6.77269">
        <ele>2783.2</ele>
        <time>2026-03-03T10:06:42.999Z</time>
      </trkpt>
      <trkpt lat="44.84007" lon="6.7727">
        <ele>2783.3</ele>
        <time>2026-03-03T10:06:43.999Z</time>
      </trkpt>
      <trkpt lat="44.84007" lon="6.7727">
        <ele>2783.5</ele>
        <time>2026-03-03T10:06:44.999Z</time>
      </trkpt>
      <trkpt lat="44.84007" lon="6.7727">
        <ele>2783.9</ele>
        <time>2026-03-03T10:06:45.999Z</time>
      </trkpt>
      <trkpt lat="44.84007" lon="6.7727">
        <ele>2784.4</ele>
        <time>2026-03-03T10:06:46.999Z</time>
      </trkpt>
      <trkpt lat="44.84007" lon="6.77271">
        <ele>2784.7</ele>
        <time>2026-03-03T10:06:47.999Z</time>
      </trkpt>
      <trkpt lat="44.84007" lon="6.77271">
        <ele>2785</ele>
        <time>2026-03-03T10:06:48.999Z</time>
      </trkpt>
      <trkpt lat="44.84007" lon="6.77271">
        <ele>2785.2</ele>
        <time>2026-03-03T10:06:49.999Z</time>
      </trkpt>
      <trkpt lat="44.84006" lon="6.77271">
        <ele>2785.3</ele>
        <time>2026-03-03T10:06:50.999Z</time>
      </trkpt>
      <trkpt lat="44.84006" lon="6.77271">
        <ele>2785.4</ele>
        <time>2026-03-03T10:06:51.999Z</time>
      </trkpt>
      <trkpt lat="44.84005" lon="6.77272">
        <ele>2785.5</ele>
        <time>2026-03-03T10:06:52.999Z</time>
      </trkpt>
      <trkpt lat="44.84005" lon="6.77272">
        <ele>2785.7</ele>
        <time>2026-03-03T10:06:53.999Z</time>
      </trkpt>
      <trkpt lat="44.84005" lon="6.77272">
        <ele>2786.1</ele>
        <time>2026-03-03T10:06:54.999Z</time>
      </trkpt>
      <trkpt lat="44.84005" lon="6.77272">
        <ele>2786.4</ele>
        <time>2026-03-03T10:06:55.999Z</time>
      </trkpt>
      <trkpt lat="44.84004" lon="6.77273">
        <ele>2786.7</ele>
        <time>2026-03-03T10:06:56.999Z</time>
      </trkpt>
      <trkpt lat="44.84004" lon="6.77273">
        <ele>2787</ele>
        <time>2026-03-03T10:06:57.999Z</time>
      </trkpt>
      <trkpt lat="44.84004" lon="6.77273">
        <ele>2787.2</ele>
        <time>2026-03-03T10:06:58.999Z</time>
      </trkpt>
      <trkpt lat="44.84003" lon="6.77274">
        <ele>2787.5</ele>
        <time>2026-03-03T10:06:59.999Z</time>
      </trkpt>
      <trkpt lat="44.84002" lon="6.77274">
        <ele>2787.8</ele>
        <time>2026-03-03T10:07:00.999Z</time>
      </trkpt>
      <trkpt lat="44.84002" lon="6.77274">
        <ele>2787.9</ele>
        <time>2026-03-03T10:07:01.999Z</time>
      </trkpt>
      <trkpt lat="44.84001" lon="6.77275">
        <ele>2788</ele>
        <time>2026-03-03T10:07:02.999Z</time>
      </trkpt>
      <trkpt lat="44.84001" lon="6.77275">
        <ele>2788.1</ele>
        <time>2026-03-03T10:07:03.999Z</time>
      </trkpt>
      <trkpt lat="44.84001" lon="6.77275">
        <ele>2788.2</ele>
        <time>2026-03-03T10:07:04.999Z</time>
      </trkpt>
      <trkpt lat="44.84001" lon="6.77275">
        <ele>2788.3</ele>
        <time>2026-03-03T10:07:05.999Z</time>
      </trkpt>
      <trkpt lat="44.84" lon="6.77276">
        <ele>2788.4</ele>
        <time>2026-03-03T10:07:06.999Z</time>
      </trkpt>
      <trkpt lat="44.84" lon="6.77276">
        <ele>2788.3</ele>
        <time>2026-03-03T10:07:07.999Z</time>
      </trkpt>
      <trkpt lat="44.84" lon="6.77277">
        <ele>2788.3</ele>
        <time>2026-03-03T10:07:08.999Z</time>
      </trkpt>
      <trkpt lat="44.84" lon="6.77277">
        <ele>2788.2</ele>
        <time>2026-03-03T10:07:09.999Z</time>
      </trkpt>
      <trkpt lat="44.84" lon="6.77277">
        <ele>2788.2</ele>
        <time>2026-03-03T10:07:10.999Z</time>
      </trkpt>
      <trkpt lat="44.83999" lon="6.77277">
        <ele>2788.1</ele>
        <time>2026-03-03T10:07:11.999Z</time>
      </trkpt>
      <trkpt lat="44.83999" lon="6.77278">
        <ele>2788</ele>
        <time>2026-03-03T10:07:12.999Z</time>
      </trkpt>
      <trkpt lat="44.83998" lon="6.77278">
        <ele>2788</ele>
        <time>2026-03-03T10:07:13.999Z</time>
      </trkpt>
      <trkpt lat="44.83997" lon="6.77279">
        <ele>2788.2</ele>
        <time>2026-03-03T10:07:14.999Z</time>
      </trkpt>
      <trkpt lat="44.83996" lon="6.7728">
        <ele>2788.3</ele>
        <time>2026-03-03T10:07:15.999Z</time>
      </trkpt>
      <trkpt lat="44.83995" lon="6.7728">
        <ele>2788.4</ele>
        <time>2026-03-03T10:07:16.999Z</time>
      </trkpt>
      <trkpt lat="44.83993" lon="6.77283">
        <ele>2790.5</ele>
        <time>2026-03-03T10:07:30.999Z</time>
      </trkpt>
      <trkpt lat="44.83992" lon="6.77283">
        <ele>2790.6</ele>
        <time>2026-03-03T10:07:31.999Z</time>
      </trkpt>
      <trkpt lat="44.83991" lon="6.77284">
        <ele>2790.7</ele>
        <time>2026-03-03T10:07:32.999Z</time>
      </trkpt>
      <trkpt lat="44.8399" lon="6.77284">
        <ele>2790.9</ele>
        <time>2026-03-03T10:07:33.999Z</time>
      </trkpt>
      <trkpt lat="44.8399" lon="6.77284">
        <ele>2791.3</ele>
        <time>2026-03-03T10:07:34.999Z</time>
      </trkpt>
      <trkpt lat="44.8399" lon="6.77284">
        <ele>2791.6</ele>
        <time>2026-03-03T10:07:35.999Z</time>
      </trkpt>
      <trkpt lat="44.8399" lon="6.77284">
        <ele>2791.7</ele>
        <time>2026-03-03T10:07:36.999Z</time>
      </trkpt>
      <trkpt lat="44.83989" lon="6.77285">
        <ele>2791.7</ele>
        <time>2026-03-03T10:07:37.999Z</time>
      </trkpt>
      <trkpt lat="44.83989" lon="6.77285">
        <ele>2791.7</ele>
        <time>2026-03-03T10:07:38.999Z</time>
      </trkpt>
      <trkpt lat="44.83989" lon="6.77285">
        <ele>2791.8</ele>
        <time>2026-03-03T10:07:39.999Z</time>
      </trkpt>
      <trkpt lat="44.83989" lon="6.77285">
        <ele>2791.9</ele>
        <time>2026-03-03T10:07:40.999Z</time>
      </trkpt>
      <trkpt lat="44.83988" lon="6.77285">
        <ele>2792</ele>
        <time>2026-03-03T10:07:41.999Z</time>
      </trkpt>
      <trkpt lat="44.83987" lon="6.77286">
        <ele>2792</ele>
        <time>2026-03-03T10:07:42.999Z</time>
      </trkpt>
      <trkpt lat="44.83986" lon="6.77287">
        <ele>2792.2</ele>
        <time>2026-03-03T10:07:43.999Z</time>
      </trkpt>
      <trkpt lat="44.83986" lon="6.77287">
        <ele>2792.5</ele>
        <time>2026-03-03T10:07:44.999Z</time>
      </trkpt>
      <trkpt lat="44.83986" lon="6.77287">
        <ele>2792.7</ele>
        <time>2026-03-03T10:07:45.999Z</time>
      </trkpt>
      <trkpt lat="44.83985" lon="6.77287">
        <ele>2792.9</ele>
        <time>2026-03-03T10:07:46.999Z</time>
      </trkpt>
      <trkpt lat="44.83985" lon="6.77288">
        <ele>2793</ele>
        <time>2026-03-03T10:07:47.999Z</time>
      </trkpt>
      <trkpt lat="44.83985" lon="6.77288">
        <ele>2793.4</ele>
        <time>2026-03-03T10:07:48.999Z</time>
      </trkpt>
      <trkpt lat="44.83984" lon="6.77288">
        <ele>2793.3</ele>
        <time>2026-03-03T10:07:49.999Z</time>
      </trkpt>
      <trkpt lat="44.83983" lon="6.77288">
        <ele>2793.4</ele>
        <time>2026-03-03T10:07:50.999Z</time>
      </trkpt>
      <trkpt lat="44.83983" lon="6.77288">
        <ele>2793.4</ele>
        <time>2026-03-03T10:07:51.999Z</time>
      </trkpt>
      <trkpt lat="44.83983" lon="6.77288">
        <ele>2793.6</ele>
        <time>2026-03-03T10:07:52.999Z</time>
      </trkpt>
      <trkpt lat="44.83983" lon="6.77288">
        <ele>2793.8</ele>
        <time>2026-03-03T10:07:53.999Z</time>
      </trkpt>
      <trkpt lat="44.83984" lon="6.77288">
        <ele>2793.9</ele>
        <time>2026-03-03T10:07:54.999Z</time>
      </trkpt>
      <trkpt lat="44.83985" lon="6.77289">
        <ele>2794.1</ele>
        <time>2026-03-03T10:07:55.999Z</time>
      </trkpt>
      <trkpt lat="44.83986" lon="6.7729">
        <ele>2794.1</ele>
        <time>2026-03-03T10:07:56.999Z</time>
      </trkpt>
      <trkpt lat="44.83987" lon="6.7729">
        <ele>2794.2</ele>
        <time>2026-03-03T10:07:57.999Z</time>
      </trkpt>
      <trkpt lat="44.83987" lon="6.7729">
        <ele>2794.2</ele>
        <time>2026-03-03T10:07:58.999Z</time>
      </trkpt>
      <trkpt lat="44.83987" lon="6.7729">
        <ele>2794.3</ele>
        <time>2026-03-03T10:07:59.999Z</time>
      </trkpt>
      <trkpt lat="44.83988" lon="6.7729">
        <ele>2794.3</ele>
        <time>2026-03-03T10:08:00.999Z</time>
      </trkpt>
      <trkpt lat="44.83988" lon="6.77291">
        <ele>2794.5</ele>
        <time>2026-03-03T10:08:01.999Z</time>
      </trkpt>
      <trkpt lat="44.83989" lon="6.77292">
        <ele>2794.6</ele>
        <time>2026-03-03T10:08:02.999Z</time>
      </trkpt>
      <trkpt lat="44.83989" lon="6.77292">
        <ele>2794.8</ele>
        <time>2026-03-03T10:08:03.999Z</time>
      </trkpt>
      <trkpt lat="44.83989" lon="6.77293">
        <ele>2794.8</ele>
        <time>2026-03-03T10:08:04.999Z</time>
      </trkpt>
      <trkpt lat="44.8399" lon="6.77293">
        <ele>2794.8</ele>
        <time>2026-03-03T10:08:05.999Z</time>
      </trkpt>
      <trkpt lat="44.8399" lon="6.77293">
        <ele>2794.6</ele>
        <time>2026-03-03T10:08:06.999Z</time>
      </trkpt>
      <trkpt lat="44.83991" lon="6.77293">
        <ele>2794.6</ele>
        <time>2026-03-03T10:08:07.999Z</time>
      </trkpt>
      <trkpt lat="44.83991" lon="6.77293">
        <ele>2794.6</ele>
        <time>2026-03-03T10:08:08.999Z</time>
      </trkpt>
      <trkpt lat="44.83992" lon="6.77294">
        <ele>2794.5</ele>
        <time>2026-03-03T10:08:09.999Z</time>
      </trkpt>
      <trkpt lat="44.83992" lon="6.77293">
        <ele>2794.5</ele>
        <time>2026-03-03T10:08:10.999Z</time>
      </trkpt>
      <trkpt lat="44.83992" lon="6.77293">
        <ele>2794.4</ele>
        <time>2026-03-03T10:08:11.999Z</time>
      </trkpt>
      <trkpt lat="44.83993" lon="6.77293">
        <ele>2794.5</ele>
        <time>2026-03-03T10:08:12.999Z</time>
      </trkpt>
      <trkpt lat="44.83993" lon="6.77294">
        <ele>2794.7</ele>
        <time>2026-03-03T10:08:13.999Z</time>
      </trkpt>
      <trkpt lat="44.83994" lon="6.77294">
        <ele>2794.9</ele>
        <time>2026-03-03T10:08:14.999Z</time>
      </trkpt>
      <trkpt lat="44.83995" lon="6.77295">
        <ele>2795.1</ele>
        <time>2026-03-03T10:08:15.999Z</time>
      </trkpt>
      <trkpt lat="44.83996" lon="6.77296">
        <ele>2795.3</ele>
        <time>2026-03-03T10:08:16.999Z</time>
      </trkpt>
      <trkpt lat="44.83996" lon="6.77296">
        <ele>2795.3</ele>
        <time>2026-03-03T10:08:17.999Z</time>
      </trkpt>
      <trkpt lat="44.83996" lon="6.77296">
        <ele>2795.2</ele>
        <time>2026-03-03T10:08:18.999Z</time>
      </trkpt>
      <trkpt lat="44.83996" lon="6.77296">
        <ele>2795.4</ele>
        <time>2026-03-03T10:08:19.999Z</time>
      </trkpt>
      <trkpt lat="44.83997" lon="6.77297">
        <ele>2795.7</ele>
        <time>2026-03-03T10:08:20.999Z</time>
      </trkpt>
      <trkpt lat="44.83997" lon="6.77297">
        <ele>2795.8</ele>
        <time>2026-03-03T10:08:21.999Z</time>
      </trkpt>
      <trkpt lat="44.83998" lon="6.77297">
        <ele>2795.9</ele>
        <time>2026-03-03T10:08:22.999Z</time>
      </trkpt>
      <trkpt lat="44.83998" lon="6.77298">
        <ele>2796.1</ele>
        <time>2026-03-03T10:08:23.999Z</time>
      </trkpt>
      <trkpt lat="44.83998" lon="6.77298">
        <ele>2796.2</ele>
        <time>2026-03-03T10:08:24.999Z</time>
      </trkpt>
      <trkpt lat="44.83998" lon="6.77299">
        <ele>2796.4</ele>
        <time>2026-03-03T10:08:25.999Z</time>
      </trkpt>
      <trkpt lat="44.83999" lon="6.77299">
        <ele>2796.3</ele>
        <time>2026-03-03T10:08:26.999Z</time>
      </trkpt>
      <trkpt lat="44.84" lon="6.77299">
        <ele>2796.4</ele>
        <time>2026-03-03T10:08:27.999Z</time>
      </trkpt>
      <trkpt lat="44.84" lon="6.77299">
        <ele>2796.4</ele>
        <time>2026-03-03T10:08:28.999Z</time>
      </trkpt>
      <trkpt lat="44.84" lon="6.773">
        <ele>2796.5</ele>
        <time>2026-03-03T10:08:29.999Z</time>
      </trkpt>
      <trkpt lat="44.84001" lon="6.773">
        <ele>2796.7</ele>
        <time>2026-03-03T10:08:30.999Z</time>
      </trkpt>
      <trkpt lat="44.84001" lon="6.773">
        <ele>2797</ele>
        <time>2026-03-03T10:08:31.999Z</time>
      </trkpt>
      <trkpt lat="44.84001" lon="6.773">
        <ele>2797.2</ele>
        <time>2026-03-03T10:08:32.999Z</time>
      </trkpt>
      <trkpt lat="44.84002" lon="6.773">
        <ele>2797.5</ele>
        <time>2026-03-03T10:08:33.999Z</time>
      </trkpt>
      <trkpt lat="44.84002" lon="6.77301">
        <ele>2797.7</ele>
        <time>2026-03-03T10:08:34.999Z</time>
      </trkpt>
      <trkpt lat="44.84003" lon="6.77301">
        <ele>2797.9</ele>
        <time>2026-03-03T10:08:35.999Z</time>
      </trkpt>
      <trkpt lat="44.84004" lon="6.77301">
        <ele>2798</ele>
        <time>2026-03-03T10:08:36.999Z</time>
      </trkpt>
      <trkpt lat="44.84004" lon="6.77302">
        <ele>2798.2</ele>
        <time>2026-03-03T10:08:37.999Z</time>
      </trkpt>
      <trkpt lat="44.84005" lon="6.77302">
        <ele>2798.4</ele>
        <time>2026-03-03T10:08:38.999Z</time>
      </trkpt>
      <trkpt lat="44.84005" lon="6.77302">
        <ele>2798.8</ele>
        <time>2026-03-03T10:08:39.999Z</time>
      </trkpt>
      <trkpt lat="44.84005" lon="6.77302">
        <ele>2799.2</ele>
        <time>2026-03-03T10:08:40.999Z</time>
      </trkpt>
      <trkpt lat="44.84005" lon="6.77302">
        <ele>2799.6</ele>
        <time>2026-03-03T10:08:41.999Z</time>
      </trkpt>
      <trkpt lat="44.84006" lon="6.77302">
        <ele>2799.6</ele>
        <time>2026-03-03T10:08:42.999Z</time>
      </trkpt>
      <trkpt lat="44.84007" lon="6.77303">
        <ele>2799.7</ele>
        <time>2026-03-03T10:08:43.999Z</time>
      </trkpt>
      <trkpt lat="44.84008" lon="6.77303">
        <ele>2799.9</ele>
        <time>2026-03-03T10:08:44.999Z</time>
      </trkpt>
      <trkpt lat="44.84008" lon="6.77304">
        <ele>2799.8</ele>
        <time>2026-03-03T10:08:45.999Z</time>
      </trkpt>
      <trkpt lat="44.84009" lon="6.77304">
        <ele>2799.9</ele>
        <time>2026-03-03T10:08:46.999Z</time>
      </trkpt>
      <trkpt lat="44.84009" lon="6.77304">
        <ele>2800.1</ele>
        <time>2026-03-03T10:08:47.999Z</time>
      </trkpt>
      <trkpt lat="44.84009" lon="6.77304">
        <ele>2800.3</ele>
        <time>2026-03-03T10:08:48.999Z</time>
      </trkpt>
      <trkpt lat="44.84009" lon="6.77304">
        <ele>2800.7</ele>
        <time>2026-03-03T10:08:49.999Z</time>
      </trkpt>
      <trkpt lat="44.8401" lon="6.77304">
        <ele>2800.6</ele>
        <time>2026-03-03T10:08:50.999Z</time>
      </trkpt>
      <trkpt lat="44.8401" lon="6.77305">
        <ele>2800.7</ele>
        <time>2026-03-03T10:08:51.999Z</time>
      </trkpt>
      <trkpt lat="44.84011" lon="6.77305">
        <ele>2800.7</ele>
        <time>2026-03-03T10:08:52.999Z</time>
      </trkpt>
      <trkpt lat="44.84012" lon="6.77305">
        <ele>2800.8</ele>
        <time>2026-03-03T10:08:53.999Z</time>
      </trkpt>
      <trkpt lat="44.84013" lon="6.77305">
        <ele>2800.7</ele>
        <time>2026-03-03T10:08:54.999Z</time>
      </trkpt>
      <trkpt lat="44.84013" lon="6.77305">
        <ele>2800.7</ele>
        <time>2026-03-03T10:08:55.999Z</time>
      </trkpt>
      <trkpt lat="44.84009" lon="6.77308">
        <ele>2800.6</ele>
        <time>2026-03-03T10:09:09.999Z</time>
      </trkpt>
      <trkpt lat="44.84009" lon="6.77309">
        <ele>2800.6</ele>
        <time>2026-03-03T10:09:10.999Z</time>
      </trkpt>
      <trkpt lat="44.84008" lon="6.77309">
        <ele>2800.8</ele>
        <time>2026-03-03T10:09:11.999Z</time>
      </trkpt>
      <trkpt lat="44.84008" lon="6.7731">
        <ele>2800.9</ele>
        <time>2026-03-03T10:09:12.999Z</time>
      </trkpt>
      <trkpt lat="44.84008" lon="6.7731">
        <ele>2801.3</ele>
        <time>2026-03-03T10:09:13.999Z</time>
      </trkpt>
      <trkpt lat="44.84007" lon="6.77311">
        <ele>2801.7</ele>
        <time>2026-03-03T10:09:14.999Z</time>
      </trkpt>
      <trkpt lat="44.84006" lon="6.77311">
        <ele>2801.6</ele>
        <time>2026-03-03T10:09:15.999Z</time>
      </trkpt>
      <trkpt lat="44.84006" lon="6.77311">
        <ele>2801.7</ele>
        <time>2026-03-03T10:09:16.999Z</time>
      </trkpt>
      <trkpt lat="44.84006" lon="6.77311">
        <ele>2801.7</ele>
        <time>2026-03-03T10:09:17.999Z</time>
      </trkpt>
      <trkpt lat="44.84005" lon="6.77311">
        <ele>2801.7</ele>
        <time>2026-03-03T10:09:18.999Z</time>
      </trkpt>
      <trkpt lat="44.84005" lon="6.77312">
        <ele>2801.7</ele>
        <time>2026-03-03T10:09:19.999Z</time>
      </trkpt>
      <trkpt lat="44.84004" lon="6.77312">
        <ele>2801.9</ele>
        <time>2026-03-03T10:09:20.999Z</time>
      </trkpt>
      <trkpt lat="44.84004" lon="6.77312">
        <ele>2802.1</ele>
        <time>2026-03-03T10:09:21.999Z</time>
      </trkpt>
      <trkpt lat="44.84003" lon="6.77313">
        <ele>2802.3</ele>
        <time>2026-03-03T10:09:22.999Z</time>
      </trkpt>
      <trkpt lat="44.84003" lon="6.77313">
        <ele>2802.4</ele>
        <time>2026-03-03T10:09:23.999Z</time>
      </trkpt>
      <trkpt lat="44.84003" lon="6.77313">
        <ele>2802.5</ele>
        <time>2026-03-03T10:09:24.999Z</time>
      </trkpt>
      <trkpt lat="44.84003" lon="6.77313">
        <ele>2802.7</ele>
        <time>2026-03-03T10:09:25.999Z</time>
      </trkpt>
      <trkpt lat="44.84002" lon="6.77314">
        <ele>2802.9</ele>
        <time>2026-03-03T10:09:26.999Z</time>
      </trkpt>
      <trkpt lat="44.84002" lon="6.77314">
        <ele>2803.1</ele>
        <time>2026-03-03T10:09:27.999Z</time>
      </trkpt>
      <trkpt lat="44.84002" lon="6.77314">
        <ele>2803.3</ele>
        <time>2026-03-03T10:09:28.999Z</time>
      </trkpt>
      <trkpt lat="44.84001" lon="6.77315">
        <ele>2803.5</ele>
        <time>2026-03-03T10:09:29.999Z</time>
      </trkpt>
      <trkpt lat="44.84001" lon="6.77315">
        <ele>2803.7</ele>
        <time>2026-03-03T10:09:30.999Z</time>
      </trkpt>
      <trkpt lat="44.84001" lon="6.77315">
        <ele>2803.9</ele>
        <time>2026-03-03T10:09:31.999Z</time>
      </trkpt>
      <trkpt lat="44.84001" lon="6.77315">
        <ele>2803.9</ele>
        <time>2026-03-03T10:09:32.999Z</time>
      </trkpt>
      <trkpt lat="44.84001" lon="6.77315">
        <ele>2804</ele>
        <time>2026-03-03T10:09:33.999Z</time>
      </trkpt>
      <trkpt lat="44.84" lon="6.77315">
        <ele>2804.1</ele>
        <time>2026-03-03T10:09:34.999Z</time>
      </trkpt>
      <trkpt lat="44.84" lon="6.77315">
        <ele>2804.4</ele>
        <time>2026-03-03T10:09:35.999Z</time>
      </trkpt>
      <trkpt lat="44.84" lon="6.77315">
        <ele>2804.6</ele>
        <time>2026-03-03T10:09:36.999Z</time>
      </trkpt>
      <trkpt lat="44.83999" lon="6.77316">
        <ele>2804.8</ele>
        <time>2026-03-03T10:09:37.999Z</time>
      </trkpt>
      <trkpt lat="44.83998" lon="6.77317">
        <ele>2804.9</ele>
        <time>2026-03-03T10:09:38.999Z</time>
      </trkpt>
      <trkpt lat="44.83998" lon="6.77318">
        <ele>2805.3</ele>
        <time>2026-03-03T10:09:39.999Z</time>
      </trkpt>
      <trkpt lat="44.83998" lon="6.77318">
        <ele>2805.6</ele>
        <time>2026-03-03T10:09:40.999Z</time>
      </trkpt>
      <trkpt lat="44.83997" lon="6.77318">
        <ele>2805.8</ele>
        <time>2026-03-03T10:09:41.999Z</time>
      </trkpt>
      <trkpt lat="44.83997" lon="6.77319">
        <ele>2806</ele>
        <time>2026-03-03T10:09:42.999Z</time>
      </trkpt>
      <trkpt lat="44.83995" lon="6.77319">
        <ele>2806.1</ele>
        <time>2026-03-03T10:09:43.999Z</time>
      </trkpt>
      <trkpt lat="44.83994" lon="6.77319">
        <ele>2806.1</ele>
        <time>2026-03-03T10:09:44.999Z</time>
      </trkpt>
      <trkpt lat="44.83994" lon="6.7732">
        <ele>2806.2</ele>
        <time>2026-03-03T10:09:45.999Z</time>
      </trkpt>
      <trkpt lat="44.83993" lon="6.7732">
        <ele>2806.2</ele>
        <time>2026-03-03T10:09:46.999Z</time>
      </trkpt>
      <trkpt lat="44.83993" lon="6.7732">
        <ele>2806.5</ele>
        <time>2026-03-03T10:09:47.999Z</time>
      </trkpt>
      <trkpt lat="44.83993" lon="6.7732">
        <ele>2806.8</ele>
        <time>2026-03-03T10:09:48.999Z</time>
      </trkpt>
      <trkpt lat="44.83993" lon="6.77321">
        <ele>2807.2</ele>
        <time>2026-03-03T10:09:49.999Z</time>
      </trkpt>
      <trkpt lat="44.83992" lon="6.77321">
        <ele>2807.5</ele>
        <time>2026-03-03T10:09:50.999Z</time>
      </trkpt>
      <trkpt lat="44.83991" lon="6.77321">
        <ele>2807.6</ele>
        <time>2026-03-03T10:09:51.999Z</time>
      </trkpt>
      <trkpt lat="44.83991" lon="6.77321">
        <ele>2807.7</ele>
        <time>2026-03-03T10:09:52.999Z</time>
      </trkpt>
      <trkpt lat="44.83991" lon="6.77321">
        <ele>2807.7</ele>
        <time>2026-03-03T10:09:53.999Z</time>
      </trkpt>
      <trkpt lat="44.8399" lon="6.77321">
        <ele>2807.7</ele>
        <time>2026-03-03T10:09:54.999Z</time>
      </trkpt>
      <trkpt lat="44.8399" lon="6.77321">
        <ele>2807.7</ele>
        <time>2026-03-03T10:09:55.999Z</time>
      </trkpt>
      <trkpt lat="44.8399" lon="6.77321">
        <ele>2807.9</ele>
        <time>2026-03-03T10:09:56.999Z</time>
      </trkpt>
      <trkpt lat="44.8399" lon="6.77322">
        <ele>2808.2</ele>
        <time>2026-03-03T10:09:57.999Z</time>
      </trkpt>
      <trkpt lat="44.8399" lon="6.77322">
        <ele>2808.5</ele>
        <time>2026-03-03T10:09:58.999Z</time>
      </trkpt>
      <trkpt lat="44.83989" lon="6.77323">
        <ele>2808.8</ele>
        <time>2026-03-03T10:09:59.999Z</time>
      </trkpt>
      <trkpt lat="44.83988" lon="6.77323">
        <ele>2808.9</ele>
        <time>2026-03-03T10:10:00.999Z</time>
      </trkpt>
      <trkpt lat="44.83987" lon="6.77323">
        <ele>2809</ele>
        <time>2026-03-03T10:10:01.999Z</time>
      </trkpt>
      <trkpt lat="44.83987" lon="6.77323">
        <ele>2809</ele>
        <time>2026-03-03T10:10:02.999Z</time>
      </trkpt>
      <trkpt lat="44.83987" lon="6.77324">
        <ele>2809</ele>
        <time>2026-03-03T10:10:03.999Z</time>
      </trkpt>
      <trkpt lat="44.83987" lon="6.77324">
        <ele>2809.2</ele>
        <time>2026-03-03T10:10:04.999Z</time>
      </trkpt>
      <trkpt lat="44.83986" lon="6.77324">
        <ele>2809.3</ele>
        <time>2026-03-03T10:10:05.999Z</time>
      </trkpt>
      <trkpt lat="44.83985" lon="6.77324">
        <ele>2809.5</ele>
        <time>2026-03-03T10:10:06.999Z</time>
      </trkpt>
      <trkpt lat="44.83985" lon="6.77325">
        <ele>2809.5</ele>
        <time>2026-03-03T10:10:07.999Z</time>
      </trkpt>
      <trkpt lat="44.83984" lon="6.77325">
        <ele>2809.5</ele>
        <time>2026-03-03T10:10:08.999Z</time>
      </trkpt>
      <trkpt lat="44.83988" lon="6.77327">
        <ele>2810.8</ele>
        <time>2026-03-03T10:10:21.999Z</time>
      </trkpt>
      <trkpt lat="44.83988" lon="6.77328">
        <ele>2810.9</ele>
        <time>2026-03-03T10:10:22.999Z</time>
      </trkpt>
      <trkpt lat="44.83988" lon="6.77328">
        <ele>2811</ele>
        <time>2026-03-03T10:10:23.999Z</time>
      </trkpt>
      <trkpt lat="44.83989" lon="6.77328">
        <ele>2811.3</ele>
        <time>2026-03-03T10:10:24.999Z</time>
      </trkpt>
      <trkpt lat="44.83989" lon="6.77328">
        <ele>2811.5</ele>
        <time>2026-03-03T10:10:25.999Z</time>
      </trkpt>
      <trkpt lat="44.83989" lon="6.77328">
        <ele>2811.7</ele>
        <time>2026-03-03T10:10:26.999Z</time>
      </trkpt>
      <trkpt lat="44.83989" lon="6.77328">
        <ele>2811.8</ele>
        <time>2026-03-03T10:10:27.999Z</time>
      </trkpt>
      <trkpt lat="44.83989" lon="6.77328">
        <ele>2811.9</ele>
        <time>2026-03-03T10:10:28.999Z</time>
      </trkpt>
      <trkpt lat="44.83989" lon="6.77329">
        <ele>2812</ele>
        <time>2026-03-03T10:10:29.999Z</time>
      </trkpt>
      <trkpt lat="44.8399" lon="6.77329">
        <ele>2812.2</ele>
        <time>2026-03-03T10:10:30.999Z</time>
      </trkpt>
      <trkpt lat="44.83991" lon="6.77329">
        <ele>2812.3</ele>
        <time>2026-03-03T10:10:31.999Z</time>
      </trkpt>
      <trkpt lat="44.83992" lon="6.7733">
        <ele>2812.5</ele>
        <time>2026-03-03T10:10:32.999Z</time>
      </trkpt>
      <trkpt lat="44.83993" lon="6.7733">
        <ele>2812.6</ele>
        <time>2026-03-03T10:10:33.999Z</time>
      </trkpt>
      <trkpt lat="44.83993" lon="6.77331">
        <ele>2812.8</ele>
        <time>2026-03-03T10:10:34.999Z</time>
      </trkpt>
      <trkpt lat="44.83993" lon="6.77331">
        <ele>2812.7</ele>
        <time>2026-03-03T10:10:35.999Z</time>
      </trkpt>
      <trkpt lat="44.83993" lon="6.77331">
        <ele>2812.8</ele>
        <time>2026-03-03T10:10:36.999Z</time>
      </trkpt>
      <trkpt lat="44.83994" lon="6.77331">
        <ele>2812.9</ele>
        <time>2026-03-03T10:10:37.999Z</time>
      </trkpt>
      <trkpt lat="44.83994" lon="6.77331">
        <ele>2813.2</ele>
        <time>2026-03-03T10:10:38.999Z</time>
      </trkpt>
      <trkpt lat="44.83995" lon="6.77331">
        <ele>2813.4</ele>
        <time>2026-03-03T10:10:39.999Z</time>
      </trkpt>
      <trkpt lat="44.83996" lon="6.77332">
        <ele>2813.7</ele>
        <time>2026-03-03T10:10:40.999Z</time>
      </trkpt>
      <trkpt lat="44.83996" lon="6.77332">
        <ele>2813.9</ele>
        <time>2026-03-03T10:10:41.999Z</time>
      </trkpt>
      <trkpt lat="44.83996" lon="6.77332">
        <ele>2814.2</ele>
        <time>2026-03-03T10:10:42.999Z</time>
      </trkpt>
      <trkpt lat="44.83997" lon="6.77333">
        <ele>2814.5</ele>
        <time>2026-03-03T10:10:43.999Z</time>
      </trkpt>
      <trkpt lat="44.83998" lon="6.77333">
        <ele>2814.4</ele>
        <time>2026-03-03T10:10:44.999Z</time>
      </trkpt>
      <trkpt lat="44.83999" lon="6.77334">
        <ele>2814.6</ele>
        <time>2026-03-03T10:10:45.999Z</time>
      </trkpt>
      <trkpt lat="44.83999" lon="6.77334">
        <ele>2814.7</ele>
        <time>2026-03-03T10:10:46.999Z</time>
      </trkpt>
      <trkpt lat="44.84" lon="6.77335">
        <ele>2814.8</ele>
        <time>2026-03-03T10:10:47.999Z</time>
      </trkpt>
      <trkpt lat="44.84001" lon="6.77335">
        <ele>2815</ele>
        <time>2026-03-03T10:10:48.999Z</time>
      </trkpt>
      <trkpt lat="44.84001" lon="6.77335">
        <ele>2815.1</ele>
        <time>2026-03-03T10:10:49.999Z</time>
      </trkpt>
      <trkpt lat="44.84001" lon="6.77336">
        <ele>2815</ele>
        <time>2026-03-03T10:10:50.999Z</time>
      </trkpt>
      <trkpt lat="44.84002" lon="6.77336">
        <ele>2814.9</ele>
        <time>2026-03-03T10:10:51.999Z</time>
      </trkpt>
      <trkpt lat="44.84002" lon="6.77336">
        <ele>2814.9</ele>
        <time>2026-03-03T10:10:52.999Z</time>
      </trkpt>
      <trkpt lat="44.84002" lon="6.77336">
        <ele>2814.9</ele>
        <time>2026-03-03T10:10:53.999Z</time>
      </trkpt>
      <trkpt lat="44.84003" lon="6.77337">
        <ele>2815</ele>
        <time>2026-03-03T10:10:54.999Z</time>
      </trkpt>
      <trkpt lat="44.84003" lon="6.77337">
        <ele>2815.1</ele>
        <time>2026-03-03T10:10:55.999Z</time>
      </trkpt>
      <trkpt lat="44.84004" lon="6.77337">
        <ele>2815.1</ele>
        <time>2026-03-03T10:10:56.999Z</time>
      </trkpt>
      <trkpt lat="44.84004" lon="6.77337">
        <ele>2815.5</ele>
        <time>2026-03-03T10:10:57.999Z</time>
      </trkpt>
      <trkpt lat="44.84004" lon="6.77337">
        <ele>2815.6</ele>
        <time>2026-03-03T10:10:58.999Z</time>
      </trkpt>
      <trkpt lat="44.84004" lon="6.77337">
        <ele>2815.6</ele>
        <time>2026-03-03T10:10:59.999Z</time>
      </trkpt>
      <trkpt lat="44.84004" lon="6.77338">
        <ele>2815.5</ele>
        <time>2026-03-03T10:11:00.999Z</time>
      </trkpt>
      <trkpt lat="44.84005" lon="6.77338">
        <ele>2815.6</ele>
        <time>2026-03-03T10:11:01.999Z</time>
      </trkpt>
      <trkpt lat="44.84006" lon="6.77338">
        <ele>2815.6</ele>
        <time>2026-03-03T10:11:02.999Z</time>
      </trkpt>
      <trkpt lat="44.84006" lon="6.77339">
        <ele>2815.7</ele>
        <time>2026-03-03T10:11:03.999Z</time>
      </trkpt>
      <trkpt lat="44.84007" lon="6.77339">
        <ele>2816</ele>
        <time>2026-03-03T10:11:04.999Z</time>
      </trkpt>
      <trkpt lat="44.84008" lon="6.77339">
        <ele>2816</ele>
        <time>2026-03-03T10:11:05.999Z</time>
      </trkpt>
      <trkpt lat="44.84009" lon="6.77339">
        <ele>2816.1</ele>
        <time>2026-03-03T10:11:06.999Z</time>
      </trkpt>
      <trkpt lat="44.84009" lon="6.7734">
        <ele>2816.1</ele>
        <time>2026-03-03T10:11:07.999Z</time>
      </trkpt>
      <trkpt lat="44.84009" lon="6.7734">
        <ele>2816.3</ele>
        <time>2026-03-03T10:11:08.999Z</time>
      </trkpt>
      <trkpt lat="44.8401" lon="6.7734">
        <ele>2816.3</ele>
        <time>2026-03-03T10:11:09.999Z</time>
      </trkpt>
      <trkpt lat="44.8401" lon="6.77341">
        <ele>2816.3</ele>
        <time>2026-03-03T10:11:10.999Z</time>
      </trkpt>
      <trkpt lat="44.84011" lon="6.77341">
        <ele>2816.3</ele>
        <time>2026-03-03T10:11:11.999Z</time>
      </trkpt>
      <trkpt lat="44.84011" lon="6.77341">
        <ele>2816.3</ele>
        <time>2026-03-03T10:11:12.999Z</time>
      </trkpt>
      <trkpt lat="44.84012" lon="6.77341">
        <ele>2816.4</ele>
        <time>2026-03-03T10:11:13.999Z</time>
      </trkpt>
      <trkpt lat="44.84013" lon="6.77342">
        <ele>2816.4</ele>
        <time>2026-03-03T10:11:14.999Z</time>
      </trkpt>
      <trkpt lat="44.84013" lon="6.77342">
        <ele>2816.5</ele>
        <time>2026-03-03T10:11:15.999Z</time>
      </trkpt>
      <trkpt lat="44.84013" lon="6.77341">
        <ele>2816.4</ele>
        <time>2026-03-03T10:11:16.999Z</time>
      </trkpt>
      <trkpt lat="44.84013" lon="6.77341">
        <ele>2816.2</ele>
        <time>2026-03-03T10:11:17.999Z</time>
      </trkpt>
      <trkpt lat="44.84014" lon="6.77342">
        <ele>2816.2</ele>
        <time>2026-03-03T10:11:18.999Z</time>
      </trkpt>
      <trkpt lat="44.84014" lon="6.77342">
        <ele>2816.3</ele>
        <time>2026-03-03T10:11:19.999Z</time>
      </trkpt>
      <trkpt lat="44.84014" lon="6.77342">
        <ele>2816.4</ele>
        <time>2026-03-03T10:11:20.999Z</time>
      </trkpt>
      <trkpt lat="44.84015" lon="6.77342">
        <ele>2816.6</ele>
        <time>2026-03-03T10:11:21.999Z</time>
      </trkpt>
      <trkpt lat="44.84015" lon="6.77342">
        <ele>2816.9</ele>
        <time>2026-03-03T10:11:22.999Z</time>
      </trkpt>
      <trkpt lat="44.84015" lon="6.77342">
        <ele>2817.1</ele>
        <time>2026-03-03T10:11:23.999Z</time>
      </trkpt>
      <trkpt lat="44.84015" lon="6.77343">
        <ele>2817.4</ele>
        <time>2026-03-03T10:11:24.999Z</time>
      </trkpt>
      <trkpt lat="44.84016" lon="6.77343">
        <ele>2817.5</ele>
        <time>2026-03-03T10:11:25.999Z</time>
      </trkpt>
      <trkpt lat="44.84016" lon="6.77343">
        <ele>2817.6</ele>
        <time>2026-03-03T10:11:26.999Z</time>
      </trkpt>
      <trkpt lat="44.84016" lon="6.77343">
        <ele>2817.9</ele>
        <time>2026-03-03T10:11:27.999Z</time>
      </trkpt>
      <trkpt lat="44.84017" lon="6.77343">
        <ele>2818.2</ele>
        <time>2026-03-03T10:11:28.999Z</time>
      </trkpt>
      <trkpt lat="44.84017" lon="6.77343">
        <ele>2818.5</ele>
        <time>2026-03-03T10:11:29.999Z</time>
      </trkpt>
      <trkpt lat="44.84017" lon="6.77343">
        <ele>2818.7</ele>
        <time>2026-03-03T10:11:30.999Z</time>
      </trkpt>
      <trkpt lat="44.84017" lon="6.77344">
        <ele>2818.9</ele>
        <time>2026-03-03T10:11:31.999Z</time>
      </trkpt>
      <trkpt lat="44.84018" lon="6.77344">
        <ele>2819</ele>
        <time>2026-03-03T10:11:32.999Z</time>
      </trkpt>
      <trkpt lat="44.84018" lon="6.77344">
        <ele>2819.1</ele>
        <time>2026-03-03T10:11:33.999Z</time>
      </trkpt>
      <trkpt lat="44.84019" lon="6.77344">
        <ele>2819.2</ele>
        <time>2026-03-03T10:11:34.999Z</time>
      </trkpt>
      <trkpt lat="44.8402" lon="6.77344">
        <ele>2819.3</ele>
        <time>2026-03-03T10:11:35.999Z</time>
      </trkpt>
      <trkpt lat="44.8402" lon="6.77345">
        <ele>2819.4</ele>
        <time>2026-03-03T10:11:36.999Z</time>
      </trkpt>
      <trkpt lat="44.84021" lon="6.77345">
        <ele>2819.7</ele>
        <time>2026-03-03T10:11:37.999Z</time>
      </trkpt>
      <trkpt lat="44.84022" lon="6.77346">
        <ele>2819.9</ele>
        <time>2026-03-03T10:11:38.999Z</time>
      </trkpt>
      <trkpt lat="44.84022" lon="6.77346">
        <ele>2820.1</ele>
        <time>2026-03-03T10:11:39.999Z</time>
      </trkpt>
      <trkpt lat="44.84023" lon="6.77346">
        <ele>2820.3</ele>
        <time>2026-03-03T10:11:40.999Z</time>
      </trkpt>
      <trkpt lat="44.84023" lon="6.77346">
        <ele>2820.5</ele>
        <time>2026-03-03T10:11:41.999Z</time>
      </trkpt>
      <trkpt lat="44.84024" lon="6.77346">
        <ele>2820.6</ele>
        <time>2026-03-03T10:11:42.999Z</time>
      </trkpt>
      <trkpt lat="44.84024" lon="6.77346">
        <ele>2820.6</ele>
        <time>2026-03-03T10:11:43.999Z</time>
      </trkpt>
      <trkpt lat="44.84025" lon="6.77346">
        <ele>2820.7</ele>
        <time>2026-03-03T10:11:44.999Z</time>
      </trkpt>
      <trkpt lat="44.84025" lon="6.77346">
        <ele>2820.9</ele>
        <time>2026-03-03T10:11:45.999Z</time>
      </trkpt>
      <trkpt lat="44.84025" lon="6.77346">
        <ele>2820.8</ele>
        <time>2026-03-03T10:11:46.999Z</time>
      </trkpt>
      <trkpt lat="44.84025" lon="6.77346">
        <ele>2820.8</ele>
        <time>2026-03-03T10:11:47.999Z</time>
      </trkpt>
      <trkpt lat="44.84026" lon="6.77346">
        <ele>2820.6</ele>
        <time>2026-03-03T10:11:48.999Z</time>
      </trkpt>
      <trkpt lat="44.84027" lon="6.77346">
        <ele>2820.6</ele>
        <time>2026-03-03T10:11:49.999Z</time>
      </trkpt>
      <trkpt lat="44.84028" lon="6.77346">
        <ele>2820.7</ele>
        <time>2026-03-03T10:11:50.999Z</time>
      </trkpt>
      <trkpt lat="44.84032" lon="6.77348">
        <ele>2823.6</ele>
        <time>2026-03-03T10:12:09.999Z</time>
      </trkpt>
      <trkpt lat="44.84033" lon="6.77349">
        <ele>2823.7</ele>
        <time>2026-03-03T10:12:10.999Z</time>
      </trkpt>
      <trkpt lat="44.84033" lon="6.77349">
        <ele>2823.8</ele>
        <time>2026-03-03T10:12:11.999Z</time>
      </trkpt>
      <trkpt lat="44.84033" lon="6.77349">
        <ele>2823.9</ele>
        <time>2026-03-03T10:12:12.999Z</time>
      </trkpt>
      <trkpt lat="44.84033" lon="6.77349">
        <ele>2824</ele>
        <time>2026-03-03T10:12:13.999Z</time>
      </trkpt>
      <trkpt lat="44.84034" lon="6.77349">
        <ele>2824.2</ele>
        <time>2026-03-03T10:12:14.999Z</time>
      </trkpt>
      <trkpt lat="44.84034" lon="6.77349">
        <ele>2824.3</ele>
        <time>2026-03-03T10:12:15.999Z</time>
      </trkpt>
      <trkpt lat="44.84035" lon="6.77349">
        <ele>2824.4</ele>
        <time>2026-03-03T10:12:16.999Z</time>
      </trkpt>
      <trkpt lat="44.84035" lon="6.7735">
        <ele>2824.6</ele>
        <time>2026-03-03T10:12:17.999Z</time>
      </trkpt>
      <trkpt lat="44.84035" lon="6.7735">
        <ele>2824.8</ele>
        <time>2026-03-03T10:12:18.999Z</time>
      </trkpt>
      <trkpt lat="44.84035" lon="6.7735">
        <ele>2825.1</ele>
        <time>2026-03-03T10:12:19.999Z</time>
      </trkpt>
      <trkpt lat="44.84036" lon="6.7735">
        <ele>2825.3</ele>
        <time>2026-03-03T10:12:20.999Z</time>
      </trkpt>
      <trkpt lat="44.84036" lon="6.7735">
        <ele>2825.4</ele>
        <time>2026-03-03T10:12:21.999Z</time>
      </trkpt>
      <trkpt lat="44.84036" lon="6.7735">
        <ele>2825.5</ele>
        <time>2026-03-03T10:12:22.999Z</time>
      </trkpt>
      <trkpt lat="44.84037" lon="6.7735">
        <ele>2825.6</ele>
        <time>2026-03-03T10:12:23.999Z</time>
      </trkpt>
      <trkpt lat="44.84037" lon="6.7735">
        <ele>2825.8</ele>
        <time>2026-03-03T10:12:24.999Z</time>
      </trkpt>
      <trkpt lat="44.84037" lon="6.7735">
        <ele>2826</ele>
        <time>2026-03-03T10:12:25.999Z</time>
      </trkpt>
      <trkpt lat="44.84037" lon="6.7735">
        <ele>2826.2</ele>
        <time>2026-03-03T10:12:26.999Z</time>
      </trkpt>
      <trkpt lat="44.84038" lon="6.77351">
        <ele>2826.5</ele>
        <time>2026-03-03T10:12:27.999Z</time>
      </trkpt>
      <trkpt lat="44.84038" lon="6.77351">
        <ele>2826.6</ele>
        <time>2026-03-03T10:12:28.999Z</time>
      </trkpt>
      <trkpt lat="44.84038" lon="6.77351">
        <ele>2826.8</ele>
        <time>2026-03-03T10:12:29.999Z</time>
      </trkpt>
      <trkpt lat="44.84039" lon="6.77351">
        <ele>2827</ele>
        <time>2026-03-03T10:12:30.999Z</time>
      </trkpt>
      <trkpt lat="44.84039" lon="6.77351">
        <ele>2827.1</ele>
        <time>2026-03-03T10:12:31.999Z</time>
      </trkpt>
      <trkpt lat="44.84039" lon="6.77351">
        <ele>2827.2</ele>
        <time>2026-03-03T10:12:32.999Z</time>
      </trkpt>
      <trkpt lat="44.8404" lon="6.77351">
        <ele>2827.2</ele>
        <time>2026-03-03T10:12:33.999Z</time>
      </trkpt>
      <trkpt lat="44.84041" lon="6.77351">
        <ele>2827.2</ele>
        <time>2026-03-03T10:12:34.999Z</time>
      </trkpt>
      <trkpt lat="44.84042" lon="6.77352">
        <ele>2827.4</ele>
        <time>2026-03-03T10:12:35.999Z</time>
      </trkpt>
      <trkpt lat="44.84042" lon="6.77352">
        <ele>2827.6</ele>
        <time>2026-03-03T10:12:36.999Z</time>
      </trkpt>
      <trkpt lat="44.84042" lon="6.77352">
        <ele>2827.8</ele>
        <time>2026-03-03T10:12:37.999Z</time>
      </trkpt>
      <trkpt lat="44.84042" lon="6.77352">
        <ele>2827.9</ele>
        <time>2026-03-03T10:12:38.999Z</time>
      </trkpt>
      <trkpt lat="44.84043" lon="6.77352">
        <ele>2828</ele>
        <time>2026-03-03T10:12:39.999Z</time>
      </trkpt>
      <trkpt lat="44.84044" lon="6.77352">
        <ele>2828</ele>
        <time>2026-03-03T10:12:40.999Z</time>
      </trkpt>
      <trkpt lat="44.84045" lon="6.77353">
        <ele>2828</ele>
        <time>2026-03-03T10:12:41.999Z</time>
      </trkpt>
      <trkpt lat="44.84045" lon="6.77353">
        <ele>2828.1</ele>
        <time>2026-03-03T10:12:42.999Z</time>
      </trkpt>
      <trkpt lat="44.84046" lon="6.77353">
        <ele>2828.3</ele>
        <time>2026-03-03T10:12:43.999Z</time>
      </trkpt>
      <trkpt lat="44.84046" lon="6.77353">
        <ele>2828.3</ele>
        <time>2026-03-03T10:12:44.999Z</time>
      </trkpt>
      <trkpt lat="44.84047" lon="6.77354">
        <ele>2828.4</ele>
        <time>2026-03-03T10:12:45.999Z</time>
      </trkpt>
      <trkpt lat="44.84048" lon="6.77354">
        <ele>2828.5</ele>
        <time>2026-03-03T10:12:46.999Z</time>
      </trkpt>
      <trkpt lat="44.84048" lon="6.77354">
        <ele>2828.6</ele>
        <time>2026-03-03T10:12:47.999Z</time>
      </trkpt>
      <trkpt lat="44.84048" lon="6.77354">
        <ele>2828.6</ele>
        <time>2026-03-03T10:12:48.999Z</time>
      </trkpt>
      <trkpt lat="44.84049" lon="6.77354">
        <ele>2828.6</ele>
        <time>2026-03-03T10:12:49.999Z</time>
      </trkpt>
      <trkpt lat="44.84049" lon="6.77353">
        <ele>2828.8</ele>
        <time>2026-03-03T10:12:50.999Z</time>
      </trkpt>
      <trkpt lat="44.84049" lon="6.77353">
        <ele>2828.8</ele>
        <time>2026-03-03T10:12:51.999Z</time>
      </trkpt>
      <trkpt lat="44.84049" lon="6.77353">
        <ele>2828.9</ele>
        <time>2026-03-03T10:12:52.999Z</time>
      </trkpt>
      <trkpt lat="44.8405" lon="6.77353">
        <ele>2829</ele>
        <time>2026-03-03T10:12:53.999Z</time>
      </trkpt>
      <trkpt lat="44.8405" lon="6.77354">
        <ele>2829.1</ele>
        <time>2026-03-03T10:12:54.999Z</time>
      </trkpt>
      <trkpt lat="44.8405" lon="6.77354">
        <ele>2829.2</ele>
        <time>2026-03-03T10:12:55.999Z</time>
      </trkpt>
      <trkpt lat="44.84051" lon="6.77354">
        <ele>2829.3</ele>
        <time>2026-03-03T10:12:56.999Z</time>
      </trkpt>
      <trkpt lat="44.84052" lon="6.77354">
        <ele>2829.4</ele>
        <time>2026-03-03T10:12:57.999Z</time>
      </trkpt>
      <trkpt lat="44.84053" lon="6.77354">
        <ele>2829.5</ele>
        <time>2026-03-03T10:12:58.999Z</time>
      </trkpt>
      <trkpt lat="44.84053" lon="6.77354">
        <ele>2829.5</ele>
        <time>2026-03-03T10:12:59.999Z</time>
      </trkpt>
      <trkpt lat="44.84053" lon="6.77354">
        <ele>2829.7</ele>
        <time>2026-03-03T10:13:00.999Z</time>
      </trkpt>
      <trkpt lat="44.84054" lon="6.77354">
        <ele>2829.8</ele>
        <time>2026-03-03T10:13:01.999Z</time>
      </trkpt>
      <trkpt lat="44.84054" lon="6.77354">
        <ele>2829.9</ele>
        <time>2026-03-03T10:13:02.999Z</time>
      </trkpt>
      <trkpt lat="44.84055" lon="6.77354">
        <ele>2830</ele>
        <time>2026-03-03T10:13:03.999Z</time>
      </trkpt>
      <trkpt lat="44.84055" lon="6.77355">
        <ele>2830</ele>
        <time>2026-03-03T10:13:04.999Z</time>
      </trkpt>
      <trkpt lat="44.84056" lon="6.77355">
        <ele>2830.2</ele>
        <time>2026-03-03T10:13:05.999Z</time>
      </trkpt>
      <trkpt lat="44.84056" lon="6.77355">
        <ele>2830.2</ele>
        <time>2026-03-03T10:13:06.999Z</time>
      </trkpt>
      <trkpt lat="44.84056" lon="6.77355">
        <ele>2830.3</ele>
        <time>2026-03-03T10:13:07.999Z</time>
      </trkpt>
      <trkpt lat="44.84057" lon="6.77355">
        <ele>2830.5</ele>
        <time>2026-03-03T10:13:08.999Z</time>
      </trkpt>
      <trkpt lat="44.84057" lon="6.77355">
        <ele>2830.6</ele>
        <time>2026-03-03T10:13:09.999Z</time>
      </trkpt>
      <trkpt lat="44.84058" lon="6.77355">
        <ele>2830.9</ele>
        <time>2026-03-03T10:13:10.999Z</time>
      </trkpt>
      <trkpt lat="44.84058" lon="6.77355">
        <ele>2831</ele>
        <time>2026-03-03T10:13:11.999Z</time>
      </trkpt>
      <trkpt lat="44.84058" lon="6.77355">
        <ele>2831.1</ele>
        <time>2026-03-03T10:13:12.999Z</time>
      </trkpt>
      <trkpt lat="44.84058" lon="6.77355">
        <ele>2831.3</ele>
        <time>2026-03-03T10:13:13.999Z</time>
      </trkpt>
      <trkpt lat="44.84058" lon="6.77355">
        <ele>2831.5</ele>
        <time>2026-03-03T10:13:14.999Z</time>
      </trkpt>
      <trkpt lat="44.84058" lon="6.77355">
        <ele>2831.8</ele>
        <time>2026-03-03T10:13:15.999Z</time>
      </trkpt>
      <trkpt lat="44.84059" lon="6.77355">
        <ele>2832</ele>
        <time>2026-03-03T10:13:16.999Z</time>
      </trkpt>
      <trkpt lat="44.84059" lon="6.77355">
        <ele>2832.3</ele>
        <time>2026-03-03T10:13:17.999Z</time>
      </trkpt>
      <trkpt lat="44.84059" lon="6.77355">
        <ele>2832.5</ele>
        <time>2026-03-03T10:13:18.999Z</time>
      </trkpt>
      <trkpt lat="44.84059" lon="6.77355">
        <ele>2832.7</ele>
        <time>2026-03-03T10:13:19.999Z</time>
      </trkpt>
      <trkpt lat="44.8406" lon="6.77355">
        <ele>2832.9</ele>
        <time>2026-03-03T10:13:20.999Z</time>
      </trkpt>
      <trkpt lat="44.84061" lon="6.77355">
        <ele>2833.2</ele>
        <time>2026-03-03T10:13:21.999Z</time>
      </trkpt>
      <trkpt lat="44.84062" lon="6.77356">
        <ele>2833.6</ele>
        <time>2026-03-03T10:13:22.999Z</time>
      </trkpt>
      <trkpt lat="44.84063" lon="6.77356">
        <ele>2833.8</ele>
        <time>2026-03-03T10:13:23.999Z</time>
      </trkpt>
      <trkpt lat="44.84063" lon="6.77356">
        <ele>2834.2</ele>
        <time>2026-03-03T10:13:24.999Z</time>
      </trkpt>
      <trkpt lat="44.84064" lon="6.77356">
        <ele>2834.5</ele>
        <time>2026-03-03T10:13:25.999Z</time>
      </trkpt>
      <trkpt lat="44.84064" lon="6.77356">
        <ele>2834.7</ele>
        <time>2026-03-03T10:13:26.999Z</time>
      </trkpt>
      <trkpt lat="44.84064" lon="6.77356">
        <ele>2834.8</ele>
        <time>2026-03-03T10:13:27.999Z</time>
      </trkpt>
      <trkpt lat="44.84065" lon="6.77356">
        <ele>2835</ele>
        <time>2026-03-03T10:13:28.999Z</time>
      </trkpt>
      <trkpt lat="44.84065" lon="6.77356">
        <ele>2835.1</ele>
        <time>2026-03-03T10:13:29.999Z</time>
      </trkpt>
      <trkpt lat="44.84066" lon="6.77355">
        <ele>2835.3</ele>
        <time>2026-03-03T10:13:30.999Z</time>
      </trkpt>
      <trkpt lat="44.84067" lon="6.77356">
        <ele>2835.4</ele>
        <time>2026-03-03T10:13:31.999Z</time>
      </trkpt>
      <trkpt lat="44.84067" lon="6.77356">
        <ele>2835.5</ele>
        <time>2026-03-03T10:13:32.999Z</time>
      </trkpt>
      <trkpt lat="44.84068" lon="6.77356">
        <ele>2835.6</ele>
        <time>2026-03-03T10:13:33.999Z</time>
      </trkpt>
      <trkpt lat="44.84068" lon="6.77356">
        <ele>2835.7</ele>
        <time>2026-03-03T10:13:34.999Z</time>
      </trkpt>
      <trkpt lat="44.84069" lon="6.77355">
        <ele>2835.8</ele>
        <time>2026-03-03T10:13:35.999Z</time>
      </trkpt>
      <trkpt lat="44.8407" lon="6.77355">
        <ele>2835.9</ele>
        <time>2026-03-03T10:13:36.999Z</time>
      </trkpt>
      <trkpt lat="44.8407" lon="6.77355">
        <ele>2836</ele>
        <time>2026-03-03T10:13:37.999Z</time>
      </trkpt>
      <trkpt lat="44.8407" lon="6.77356">
        <ele>2836.1</ele>
        <time>2026-03-03T10:13:38.999Z</time>
      </trkpt>
      <trkpt lat="44.8407" lon="6.77356">
        <ele>2836.1</ele>
        <time>2026-03-03T10:13:39.999Z</time>
      </trkpt>
      <trkpt lat="44.8407" lon="6.77356">
        <ele>2836.1</ele>
        <time>2026-03-03T10:13:40.999Z</time>
      </trkpt>
      <trkpt lat="44.8407" lon="6.77356">
        <ele>2836.2</ele>
        <time>2026-03-03T10:13:41.999Z</time>
      </trkpt>
      <trkpt lat="44.8407" lon="6.77357">
        <ele>2836.3</ele>
        <time>2026-03-03T10:13:42.999Z</time>
      </trkpt>
      <trkpt lat="44.84069" lon="6.77358">
        <ele>2836.3</ele>
        <time>2026-03-03T10:13:43.999Z</time>
      </trkpt>
      <trkpt lat="44.84068" lon="6.77359">
        <ele>2836.3</ele>
        <time>2026-03-03T10:13:44.999Z</time>
      </trkpt>
      <trkpt lat="44.84068" lon="6.7736">
        <ele>2836.3</ele>
        <time>2026-03-03T10:13:45.999Z</time>
      </trkpt>
      <trkpt lat="44.84067" lon="6.77361">
        <ele>2836.2</ele>
        <time>2026-03-03T10:13:46.999Z</time>
      </trkpt>
      <trkpt lat="44.84067" lon="6.77362">
        <ele>2836.3</ele>
        <time>2026-03-03T10:13:47.999Z</time>
      </trkpt>
      <trkpt lat="44.84067" lon="6.77362">
        <ele>2836.6</ele>
        <time>2026-03-03T10:13:48.999Z</time>
      </trkpt>
      <trkpt lat="44.84066" lon="6.77363">
        <ele>2836.9</ele>
        <time>2026-03-03T10:13:49.999Z</time>
      </trkpt>
      <trkpt lat="44.84066" lon="6.77363">
        <ele>2837.1</ele>
        <time>2026-03-03T10:13:50.999Z</time>
      </trkpt>
      <trkpt lat="44.84066" lon="6.77363">
        <ele>2837.1</ele>
        <time>2026-03-03T10:13:51.999Z</time>
      </trkpt>
      <trkpt lat="44.84066" lon="6.77364">
        <ele>2837</ele>
        <time>2026-03-03T10:13:52.999Z</time>
      </trkpt>
      <trkpt lat="44.84065" lon="6.77364">
        <ele>2836.9</ele>
        <time>2026-03-03T10:13:53.999Z</time>
      </trkpt>
      <trkpt lat="44.84065" lon="6.77365">
        <ele>2836.9</ele>
        <time>2026-03-03T10:13:54.999Z</time>
      </trkpt>
      <trkpt lat="44.84064" lon="6.77366">
        <ele>2837</ele>
        <time>2026-03-03T10:13:55.999Z</time>
      </trkpt>
      <trkpt lat="44.84064" lon="6.77366">
        <ele>2837.3</ele>
        <time>2026-03-03T10:13:56.999Z</time>
      </trkpt>
      <trkpt lat="44.84064" lon="6.77367">
        <ele>2837.5</ele>
        <time>2026-03-03T10:13:57.999Z</time>
      </trkpt>
      <trkpt lat="44.84064" lon="6.77367">
        <ele>2837.6</ele>
        <time>2026-03-03T10:13:58.999Z</time>
      </trkpt>
      <trkpt lat="44.84064" lon="6.77367">
        <ele>2837.9</ele>
        <time>2026-03-03T10:13:59.999Z</time>
      </trkpt>
      <trkpt lat="44.84064" lon="6.77368">
        <ele>2838.1</ele>
        <time>2026-03-03T10:14:00.999Z</time>
      </trkpt>
      <trkpt lat="44.84064" lon="6.77368">
        <ele>2838.2</ele>
        <time>2026-03-03T10:14:01.999Z</time>
      </trkpt>
      <trkpt lat="44.84064" lon="6.77369">
        <ele>2838.3</ele>
        <time>2026-03-03T10:14:02.999Z</time>
      </trkpt>
      <trkpt lat="44.84064" lon="6.77369">
        <ele>2838.4</ele>
        <time>2026-03-03T10:14:03.999Z</time>
      </trkpt>
      <trkpt lat="44.84063" lon="6.77369">
        <ele>2838.5</ele>
        <time>2026-03-03T10:14:04.999Z</time>
      </trkpt>
      <trkpt lat="44.84063" lon="6.7737">
        <ele>2838.7</ele>
        <time>2026-03-03T10:14:05.999Z</time>
      </trkpt>
      <trkpt lat="44.84063" lon="6.7737">
        <ele>2838.9</ele>
        <time>2026-03-03T10:14:06.999Z</time>
      </trkpt>
      <trkpt lat="44.84063" lon="6.7737">
        <ele>2839</ele>
        <time>2026-03-03T10:14:07.999Z</time>
      </trkpt>
      <trkpt lat="44.84063" lon="6.77371">
        <ele>2839.1</ele>
        <time>2026-03-03T10:14:08.999Z</time>
      </trkpt>
      <trkpt lat="44.84063" lon="6.77371">
        <ele>2839.2</ele>
        <time>2026-03-03T10:14:09.999Z</time>
      </trkpt>
      <trkpt lat="44.84063" lon="6.77372">
        <ele>2839.3</ele>
        <time>2026-03-03T10:14:10.999Z</time>
      </trkpt>
      <trkpt lat="44.84063" lon="6.77372">
        <ele>2839.3</ele>
        <time>2026-03-03T10:14:11.999Z</time>
      </trkpt>
      <trkpt lat="44.84063" lon="6.77373">
        <ele>2839.4</ele>
        <time>2026-03-03T10:14:12.999Z</time>
      </trkpt>
      <trkpt lat="44.84063" lon="6.77373">
        <ele>2839.5</ele>
        <time>2026-03-03T10:14:13.999Z</time>
      </trkpt>
      <trkpt lat="44.84062" lon="6.77373">
        <ele>2839.7</ele>
        <time>2026-03-03T10:14:14.999Z</time>
      </trkpt>
      <trkpt lat="44.84062" lon="6.77374">
        <ele>2839.8</ele>
        <time>2026-03-03T10:14:15.999Z</time>
      </trkpt>
      <trkpt lat="44.84062" lon="6.77374">
        <ele>2840</ele>
        <time>2026-03-03T10:14:16.999Z</time>
      </trkpt>
      <trkpt lat="44.84062" lon="6.77375">
        <ele>2840.2</ele>
        <time>2026-03-03T10:14:17.999Z</time>
      </trkpt>
      <trkpt lat="44.84061" lon="6.77375">
        <ele>2840.3</ele>
        <time>2026-03-03T10:14:18.999Z</time>
      </trkpt>
      <trkpt lat="44.84061" lon="6.77376">
        <ele>2840.4</ele>
        <time>2026-03-03T10:14:19.999Z</time>
      </trkpt>
      <trkpt lat="44.8406" lon="6.77377">
        <ele>2840.5</ele>
        <time>2026-03-03T10:14:20.999Z</time>
      </trkpt>
      <trkpt lat="44.8406" lon="6.77378">
        <ele>2840.7</ele>
        <time>2026-03-03T10:14:21.999Z</time>
      </trkpt>
      <trkpt lat="44.84059" lon="6.77379">
        <ele>2841</ele>
        <time>2026-03-03T10:14:22.999Z</time>
      </trkpt>
      <trkpt lat="44.84059" lon="6.77379">
        <ele>2840.9</ele>
        <time>2026-03-03T10:14:23.999Z</time>
      </trkpt>
      <trkpt lat="44.84059" lon="6.77379">
        <ele>2841.1</ele>
        <time>2026-03-03T10:14:24.999Z</time>
      </trkpt>
      <trkpt lat="44.84059" lon="6.7738">
        <ele>2841.3</ele>
        <time>2026-03-03T10:14:25.999Z</time>
      </trkpt>
      <trkpt lat="44.84058" lon="6.7738">
        <ele>2841.4</ele>
        <time>2026-03-03T10:14:26.999Z</time>
      </trkpt>
      <trkpt lat="44.84058" lon="6.77381">
        <ele>2841.6</ele>
        <time>2026-03-03T10:14:27.999Z</time>
      </trkpt>
      <trkpt lat="44.84057" lon="6.77382">
        <ele>2841.7</ele>
        <time>2026-03-03T10:14:28.999Z</time>
      </trkpt>
      <trkpt lat="44.84057" lon="6.77383">
        <ele>2841.6</ele>
        <time>2026-03-03T10:14:29.999Z</time>
      </trkpt>
      <trkpt lat="44.84057" lon="6.77383">
        <ele>2841.5</ele>
        <time>2026-03-03T10:14:30.999Z</time>
      </trkpt>
      <trkpt lat="44.84056" lon="6.77384">
        <ele>2841.4</ele>
        <time>2026-03-03T10:14:31.999Z</time>
      </trkpt>
      <trkpt lat="44.84056" lon="6.77384">
        <ele>2841.6</ele>
        <time>2026-03-03T10:14:32.999Z</time>
      </trkpt>
      <trkpt lat="44.84056" lon="6.77384">
        <ele>2841.8</ele>
        <time>2026-03-03T10:14:33.999Z</time>
      </trkpt>
      <trkpt lat="44.84055" lon="6.77384">
        <ele>2842</ele>
        <time>2026-03-03T10:14:34.999Z</time>
      </trkpt>
      <trkpt lat="44.84055" lon="6.77385">
        <ele>2842</ele>
        <time>2026-03-03T10:14:35.999Z</time>
      </trkpt>
      <trkpt lat="44.84055" lon="6.77385">
        <ele>2842.1</ele>
        <time>2026-03-03T10:14:36.999Z</time>
      </trkpt>
      <trkpt lat="44.84054" lon="6.77386">
        <ele>2842.1</ele>
        <time>2026-03-03T10:14:37.999Z</time>
      </trkpt>
      <trkpt lat="44.84053" lon="6.77388">
        <ele>2842.2</ele>
        <time>2026-03-03T10:14:38.999Z</time>
      </trkpt>
      <trkpt lat="44.84052" lon="6.77388">
        <ele>2842.4</ele>
        <time>2026-03-03T10:14:39.999Z</time>
      </trkpt>
      <trkpt lat="44.84052" lon="6.77389">
        <ele>2842.5</ele>
        <time>2026-03-03T10:14:40.999Z</time>
      </trkpt>
      <trkpt lat="44.84052" lon="6.77389">
        <ele>2842.8</ele>
        <time>2026-03-03T10:14:41.999Z</time>
      </trkpt>
      <trkpt lat="44.84052" lon="6.77389">
        <ele>2843</ele>
        <time>2026-03-03T10:14:42.999Z</time>
      </trkpt>
      <trkpt lat="44.84051" lon="6.7739">
        <ele>2843.3</ele>
        <time>2026-03-03T10:14:43.999Z</time>
      </trkpt>
      <trkpt lat="44.84051" lon="6.7739">
        <ele>2843.7</ele>
        <time>2026-03-03T10:14:44.999Z</time>
      </trkpt>
      <trkpt lat="44.84052" lon="6.7739">
        <ele>2844</ele>
        <time>2026-03-03T10:14:45.999Z</time>
      </trkpt>
      <trkpt lat="44.84052" lon="6.7739">
        <ele>2844.2</ele>
        <time>2026-03-03T10:14:46.999Z</time>
      </trkpt>
      <trkpt lat="44.84053" lon="6.7739">
        <ele>2844.4</ele>
        <time>2026-03-03T10:14:47.999Z</time>
      </trkpt>
      <trkpt lat="44.84053" lon="6.77391">
        <ele>2844.5</ele>
        <time>2026-03-03T10:14:48.999Z</time>
      </trkpt>
      <trkpt lat="44.84054" lon="6.77391">
        <ele>2844.7</ele>
        <time>2026-03-03T10:14:49.999Z</time>
      </trkpt>
      <trkpt lat="44.84054" lon="6.77391">
        <ele>2845.1</ele>
        <time>2026-03-03T10:14:50.999Z</time>
      </trkpt>
      <trkpt lat="44.84054" lon="6.77391">
        <ele>2845.2</ele>
        <time>2026-03-03T10:14:51.999Z</time>
      </trkpt>
      <trkpt lat="44.84054" lon="6.77391">
        <ele>2845.3</ele>
        <time>2026-03-03T10:14:52.999Z</time>
      </trkpt>
      <trkpt lat="44.84055" lon="6.77391">
        <ele>2845.5</ele>
        <time>2026-03-03T10:14:53.999Z</time>
      </trkpt>
      <trkpt lat="44.84055" lon="6.77391">
        <ele>2845.5</ele>
        <time>2026-03-03T10:14:54.999Z</time>
      </trkpt>
      <trkpt lat="44.84055" lon="6.77392">
        <ele>2845.7</ele>
        <time>2026-03-03T10:14:55.999Z</time>
      </trkpt>
      <trkpt lat="44.84055" lon="6.77392">
        <ele>2846.1</ele>
        <time>2026-03-03T10:14:56.999Z</time>
      </trkpt>
      <trkpt lat="44.84056" lon="6.77392">
        <ele>2846.3</ele>
        <time>2026-03-03T10:14:57.999Z</time>
      </trkpt>
      <trkpt lat="44.84056" lon="6.77392">
        <ele>2846.4</ele>
        <time>2026-03-03T10:14:58.999Z</time>
      </trkpt>
      <trkpt lat="44.84057" lon="6.77392">
        <ele>2846.3</ele>
        <time>2026-03-03T10:14:59.999Z</time>
      </trkpt>
      <trkpt lat="44.84057" lon="6.77392">
        <ele>2846.4</ele>
        <time>2026-03-03T10:15:00.999Z</time>
      </trkpt>
      <trkpt lat="44.84057" lon="6.77392">
        <ele>2846.5</ele>
        <time>2026-03-03T10:15:01.999Z</time>
      </trkpt>
      <trkpt lat="44.84057" lon="6.77392">
        <ele>2846.6</ele>
        <time>2026-03-03T10:15:02.999Z</time>
      </trkpt>
      <trkpt lat="44.84058" lon="6.77392">
        <ele>2846.7</ele>
        <time>2026-03-03T10:15:03.999Z</time>
      </trkpt>
      <trkpt lat="44.84058" lon="6.77392">
        <ele>2846.8</ele>
        <time>2026-03-03T10:15:04.999Z</time>
      </trkpt>
      <trkpt lat="44.84058" lon="6.77392">
        <ele>2846.8</ele>
        <time>2026-03-03T10:15:05.999Z</time>
      </trkpt>
      <trkpt lat="44.84058" lon="6.77392">
        <ele>2846.9</ele>
        <time>2026-03-03T10:15:06.999Z</time>
      </trkpt>
      <trkpt lat="44.84058" lon="6.77392">
        <ele>2847</ele>
        <time>2026-03-03T10:15:07.999Z</time>
      </trkpt>
      <trkpt lat="44.84059" lon="6.77392">
        <ele>2847.4</ele>
        <time>2026-03-03T10:15:08.999Z</time>
      </trkpt>
      <trkpt lat="44.8406" lon="6.77393">
        <ele>2847.7</ele>
        <time>2026-03-03T10:15:09.999Z</time>
      </trkpt>
      <trkpt lat="44.8406" lon="6.77393">
        <ele>2847.9</ele>
        <time>2026-03-03T10:15:10.999Z</time>
      </trkpt>
      <trkpt lat="44.84061" lon="6.77394">
        <ele>2848.1</ele>
        <time>2026-03-03T10:15:11.999Z</time>
      </trkpt>
      <trkpt lat="44.84061" lon="6.77394">
        <ele>2848.3</ele>
        <time>2026-03-03T10:15:12.999Z</time>
      </trkpt>
      <trkpt lat="44.84062" lon="6.77394">
        <ele>2848.5</ele>
        <time>2026-03-03T10:15:13.999Z</time>
      </trkpt>
      <trkpt lat="44.84062" lon="6.77394">
        <ele>2848.7</ele>
        <time>2026-03-03T10:15:14.999Z</time>
      </trkpt>
      <trkpt lat="44.84062" lon="6.77394">
        <ele>2848.8</ele>
        <time>2026-03-03T10:15:15.999Z</time>
      </trkpt>
      <trkpt lat="44.84063" lon="6.77394">
        <ele>2848.7</ele>
        <time>2026-03-03T10:15:16.999Z</time>
      </trkpt>
      <trkpt lat="44.84064" lon="6.77395">
        <ele>2849</ele>
        <time>2026-03-03T10:15:17.999Z</time>
      </trkpt>
      <trkpt lat="44.84064" lon="6.77395">
        <ele>2849.3</ele>
        <time>2026-03-03T10:15:18.999Z</time>
      </trkpt>
      <trkpt lat="44.84064" lon="6.77395">
        <ele>2849.5</ele>
        <time>2026-03-03T10:15:19.999Z</time>
      </trkpt>
      <trkpt lat="44.84065" lon="6.77396">
        <ele>2849.7</ele>
        <time>2026-03-03T10:15:20.999Z</time>
      </trkpt>
      <trkpt lat="44.84065" lon="6.77396">
        <ele>2849.8</ele>
        <time>2026-03-03T10:15:21.999Z</time>
      </trkpt>
      <trkpt lat="44.84066" lon="6.77396">
        <ele>2849.8</ele>
        <time>2026-03-03T10:15:22.999Z</time>
      </trkpt>
      <trkpt lat="44.84066" lon="6.77396">
        <ele>2849.9</ele>
        <time>2026-03-03T10:15:23.999Z</time>
      </trkpt>
      <trkpt lat="44.84067" lon="6.77396">
        <ele>2849.9</ele>
        <time>2026-03-03T10:15:24.999Z</time>
      </trkpt>
      <trkpt lat="44.84067" lon="6.77396">
        <ele>2850.2</ele>
        <time>2026-03-03T10:15:25.999Z</time>
      </trkpt>
      <trkpt lat="44.84067" lon="6.77396">
        <ele>2850</ele>
        <time>2026-03-03T10:15:26.999Z</time>
      </trkpt>
      <trkpt lat="44.84068" lon="6.77396">
        <ele>2850.2</ele>
        <time>2026-03-03T10:15:27.999Z</time>
      </trkpt>
      <trkpt lat="44.84069" lon="6.77397">
        <ele>2850.3</ele>
        <time>2026-03-03T10:15:28.999Z</time>
      </trkpt>
      <trkpt lat="44.84069" lon="6.77398">
        <ele>2850.4</ele>
        <time>2026-03-03T10:15:29.999Z</time>
      </trkpt>
      <trkpt lat="44.8407" lon="6.77398">
        <ele>2850.4</ele>
        <time>2026-03-03T10:15:30.999Z</time>
      </trkpt>
      <trkpt lat="44.8407" lon="6.77398">
        <ele>2850.5</ele>
        <time>2026-03-03T10:15:31.999Z</time>
      </trkpt>
      <trkpt lat="44.84071" lon="6.77398">
        <ele>2850.7</ele>
        <time>2026-03-03T10:15:32.999Z</time>
      </trkpt>
      <trkpt lat="44.84071" lon="6.77399">
        <ele>2850.8</ele>
        <time>2026-03-03T10:15:33.999Z</time>
      </trkpt>
      <trkpt lat="44.84071" lon="6.77399">
        <ele>2850.8</ele>
        <time>2026-03-03T10:15:34.999Z</time>
      </trkpt>
      <trkpt lat="44.84072" lon="6.77399">
        <ele>2850.8</ele>
        <time>2026-03-03T10:15:35.999Z</time>
      </trkpt>
      <trkpt lat="44.84073" lon="6.77399">
        <ele>2851</ele>
        <time>2026-03-03T10:15:36.999Z</time>
      </trkpt>
      <trkpt lat="44.84074" lon="6.77399">
        <ele>2851.1</ele>
        <time>2026-03-03T10:15:37.999Z</time>
      </trkpt>
      <trkpt lat="44.84074" lon="6.77399">
        <ele>2851.1</ele>
        <time>2026-03-03T10:15:38.999Z</time>
      </trkpt>
      <trkpt lat="44.84074" lon="6.774">
        <ele>2850.9</ele>
        <time>2026-03-03T10:15:39.999Z</time>
      </trkpt>
      <trkpt lat="44.84074" lon="6.774">
        <ele>2851</ele>
        <time>2026-03-03T10:15:40.999Z</time>
      </trkpt>
      <trkpt lat="44.84074" lon="6.774">
        <ele>2851.1</ele>
        <time>2026-03-03T10:15:41.999Z</time>
      </trkpt>
      <trkpt lat="44.84075" lon="6.774">
        <ele>2851.3</ele>
        <time>2026-03-03T10:15:42.999Z</time>
      </trkpt>
      <trkpt lat="44.84076" lon="6.77401">
        <ele>2851.3</ele>
        <time>2026-03-03T10:15:43.999Z</time>
      </trkpt>
      <trkpt lat="44.84077" lon="6.77401">
        <ele>2851.2</ele>
        <time>2026-03-03T10:15:44.999Z</time>
      </trkpt>
      <trkpt lat="44.84078" lon="6.77401">
        <ele>2851.2</ele>
        <time>2026-03-03T10:15:45.999Z</time>
      </trkpt>
      <trkpt lat="44.84079" lon="6.77402">
        <ele>2851.3</ele>
        <time>2026-03-03T10:15:46.999Z</time>
      </trkpt>
      <trkpt lat="44.84079" lon="6.77402">
        <ele>2851.5</ele>
        <time>2026-03-03T10:15:47.999Z</time>
      </trkpt>
      <trkpt lat="44.84079" lon="6.77402">
        <ele>2851.7</ele>
        <time>2026-03-03T10:15:48.999Z</time>
      </trkpt>
      <trkpt lat="44.84079" lon="6.77402">
        <ele>2851.7</ele>
        <time>2026-03-03T10:15:49.999Z</time>
      </trkpt>
      <trkpt lat="44.84079" lon="6.77403">
        <ele>2851.9</ele>
        <time>2026-03-03T10:15:50.999Z</time>
      </trkpt>
      <trkpt lat="44.84079" lon="6.77403">
        <ele>2852.2</ele>
        <time>2026-03-03T10:15:51.999Z</time>
      </trkpt>
      <trkpt lat="44.84076" lon="6.77407">
        <ele>2854.6</ele>
        <time>2026-03-03T10:16:22.999Z</time>
      </trkpt>
      <trkpt lat="44.84075" lon="6.77407">
        <ele>2854.5</ele>
        <time>2026-03-03T10:16:23.999Z</time>
      </trkpt>
      <trkpt lat="44.84074" lon="6.77408">
        <ele>2854.7</ele>
        <time>2026-03-03T10:16:24.999Z</time>
      </trkpt>
      <trkpt lat="44.84073" lon="6.77409">
        <ele>2855</ele>
        <time>2026-03-03T10:16:25.999Z</time>
      </trkpt>
      <trkpt lat="44.84073" lon="6.77409">
        <ele>2855</ele>
        <time>2026-03-03T10:16:26.999Z</time>
      </trkpt>
      <trkpt lat="44.84073" lon="6.7741">
        <ele>2855.3</ele>
        <time>2026-03-03T10:16:27.999Z</time>
      </trkpt>
      <trkpt lat="44.84073" lon="6.77411">
        <ele>2855.6</ele>
        <time>2026-03-03T10:16:28.999Z</time>
      </trkpt>
      <trkpt lat="44.84072" lon="6.77412">
        <ele>2856</ele>
        <time>2026-03-03T10:16:29.999Z</time>
      </trkpt>
      <trkpt lat="44.84071" lon="6.77413">
        <ele>2856.4</ele>
        <time>2026-03-03T10:16:30.999Z</time>
      </trkpt>
      <trkpt lat="44.84071" lon="6.77413">
        <ele>2856.7</ele>
        <time>2026-03-03T10:16:31.999Z</time>
      </trkpt>
      <trkpt lat="44.84071" lon="6.77413">
        <ele>2857.1</ele>
        <time>2026-03-03T10:16:32.999Z</time>
      </trkpt>
      <trkpt lat="44.84071" lon="6.77413">
        <ele>2857.5</ele>
        <time>2026-03-03T10:16:33.999Z</time>
      </trkpt>
      <trkpt lat="44.84071" lon="6.77414">
        <ele>2857.9</ele>
        <time>2026-03-03T10:16:34.999Z</time>
      </trkpt>
      <trkpt lat="44.8407" lon="6.77415">
        <ele>2858.2</ele>
        <time>2026-03-03T10:16:35.999Z</time>
      </trkpt>
      <trkpt lat="44.8407" lon="6.77415">
        <ele>2858.3</ele>
        <time>2026-03-03T10:16:36.999Z</time>
      </trkpt>
      <trkpt lat="44.84069" lon="6.77416">
        <ele>2858.5</ele>
        <time>2026-03-03T10:16:37.999Z</time>
      </trkpt>
      <trkpt lat="44.84069" lon="6.77416">
        <ele>2858.7</ele>
        <time>2026-03-03T10:16:38.999Z</time>
      </trkpt>
      <trkpt lat="44.84069" lon="6.77416">
        <ele>2859</ele>
        <time>2026-03-03T10:16:39.999Z</time>
      </trkpt>
      <trkpt lat="44.84069" lon="6.77417">
        <ele>2859.2</ele>
        <time>2026-03-03T10:16:40.999Z</time>
      </trkpt>
      <trkpt lat="44.84068" lon="6.77417">
        <ele>2859.4</ele>
        <time>2026-03-03T10:16:41.999Z</time>
      </trkpt>
      <trkpt lat="44.84068" lon="6.77419">
        <ele>2859.6</ele>
        <time>2026-03-03T10:16:42.999Z</time>
      </trkpt>
      <trkpt lat="44.84067" lon="6.77419">
        <ele>2859.6</ele>
        <time>2026-03-03T10:16:43.999Z</time>
      </trkpt>
      <trkpt lat="44.84067" lon="6.7742">
        <ele>2859.7</ele>
        <time>2026-03-03T10:16:44.999Z</time>
      </trkpt>
      <trkpt lat="44.84067" lon="6.7742">
        <ele>2859.9</ele>
        <time>2026-03-03T10:16:45.999Z</time>
      </trkpt>
      <trkpt lat="44.84066" lon="6.7742">
        <ele>2860</ele>
        <time>2026-03-03T10:16:46.999Z</time>
      </trkpt>
      <trkpt lat="44.84066" lon="6.77421">
        <ele>2860</ele>
        <time>2026-03-03T10:16:47.999Z</time>
      </trkpt>
      <trkpt lat="44.84066" lon="6.77421">
        <ele>2860.2</ele>
        <time>2026-03-03T10:16:48.999Z</time>
      </trkpt>
      <trkpt lat="44.84066" lon="6.77421">
        <ele>2860.2</ele>
        <time>2026-03-03T10:16:49.999Z</time>
      </trkpt>
      <trkpt lat="44.84066" lon="6.77422">
        <ele>2860.2</ele>
        <time>2026-03-03T10:16:50.999Z</time>
      </trkpt>
      <trkpt lat="44.84065" lon="6.77422">
        <ele>2860.1</ele>
        <time>2026-03-03T10:16:51.999Z</time>
      </trkpt>
      <trkpt lat="44.84065" lon="6.77423">
        <ele>2860.1</ele>
        <time>2026-03-03T10:16:52.999Z</time>
      </trkpt>
      <trkpt lat="44.84065" lon="6.77423">
        <ele>2860.1</ele>
        <time>2026-03-03T10:16:53.999Z</time>
      </trkpt>
      <trkpt lat="44.84065" lon="6.77423">
        <ele>2860</ele>
        <time>2026-03-03T10:16:54.999Z</time>
      </trkpt>
      <trkpt lat="44.84065" lon="6.77423">
        <ele>2860.1</ele>
        <time>2026-03-03T10:16:55.999Z</time>
      </trkpt>
      <trkpt lat="44.84065" lon="6.77424">
        <ele>2860.1</ele>
        <time>2026-03-03T10:16:56.999Z</time>
      </trkpt>
      <trkpt lat="44.84064" lon="6.77424">
        <ele>2860.1</ele>
        <time>2026-03-03T10:16:57.999Z</time>
      </trkpt>
      <trkpt lat="44.84064" lon="6.77424">
        <ele>2860.2</ele>
        <time>2026-03-03T10:16:58.999Z</time>
      </trkpt>
      <trkpt lat="44.84064" lon="6.77424">
        <ele>2860.2</ele>
        <time>2026-03-03T10:16:59.999Z</time>
      </trkpt>
      <trkpt lat="44.84064" lon="6.77424">
        <ele>2860.3</ele>
        <time>2026-03-03T10:17:00.999Z</time>
      </trkpt>
      <trkpt lat="44.84064" lon="6.77425">
        <ele>2860.3</ele>
        <time>2026-03-03T10:17:01.999Z</time>
      </trkpt>
      <trkpt lat="44.84064" lon="6.77425">
        <ele>2860.3</ele>
        <time>2026-03-03T10:17:02.999Z</time>
      </trkpt>
      <trkpt lat="44.84063" lon="6.77425">
        <ele>2860.3</ele>
        <time>2026-03-03T10:17:03.999Z</time>
      </trkpt>
      <trkpt lat="44.84063" lon="6.77426">
        <ele>2860.3</ele>
        <time>2026-03-03T10:17:04.999Z</time>
      </trkpt>
      <trkpt lat="44.84063" lon="6.77426">
        <ele>2860.1</ele>
        <time>2026-03-03T10:17:05.999Z</time>
      </trkpt>
      <trkpt lat="44.84065" lon="6.77428">
        <ele>2861.6</ele>
        <time>2026-03-03T10:17:19.999Z</time>
      </trkpt>
      <trkpt lat="44.84065" lon="6.77428">
        <ele>2861.7</ele>
        <time>2026-03-03T10:17:20.999Z</time>
      </trkpt>
      <trkpt lat="44.84066" lon="6.77429">
        <ele>2861.7</ele>
        <time>2026-03-03T10:17:21.999Z</time>
      </trkpt>
      <trkpt lat="44.84067" lon="6.77429">
        <ele>2861.6</ele>
        <time>2026-03-03T10:17:22.999Z</time>
      </trkpt>
      <trkpt lat="44.84067" lon="6.77429">
        <ele>2861.7</ele>
        <time>2026-03-03T10:17:23.999Z</time>
      </trkpt>
      <trkpt lat="44.84068" lon="6.7743">
        <ele>2861.6</ele>
        <time>2026-03-03T10:17:24.999Z</time>
      </trkpt>
      <trkpt lat="44.84069" lon="6.7743">
        <ele>2861.8</ele>
        <time>2026-03-03T10:17:25.999Z</time>
      </trkpt>
      <trkpt lat="44.84069" lon="6.77431">
        <ele>2862</ele>
        <time>2026-03-03T10:17:26.999Z</time>
      </trkpt>
      <trkpt lat="44.8407" lon="6.77431">
        <ele>2862.2</ele>
        <time>2026-03-03T10:17:27.999Z</time>
      </trkpt>
      <trkpt lat="44.8407" lon="6.77431">
        <ele>2862.5</ele>
        <time>2026-03-03T10:17:28.999Z</time>
      </trkpt>
      <trkpt lat="44.8407" lon="6.77431">
        <ele>2862.7</ele>
        <time>2026-03-03T10:17:29.999Z</time>
      </trkpt>
      <trkpt lat="44.8407" lon="6.77431">
        <ele>2862.9</ele>
        <time>2026-03-03T10:17:30.999Z</time>
      </trkpt>
      <trkpt lat="44.84071" lon="6.77431">
        <ele>2863.1</ele>
        <time>2026-03-03T10:17:31.999Z</time>
      </trkpt>
      <trkpt lat="44.84071" lon="6.77432">
        <ele>2863.3</ele>
        <time>2026-03-03T10:17:32.999Z</time>
      </trkpt>
      <trkpt lat="44.84071" lon="6.77432">
        <ele>2863.5</ele>
        <time>2026-03-03T10:17:33.999Z</time>
      </trkpt>
      <trkpt lat="44.84072" lon="6.77432">
        <ele>2863.7</ele>
        <time>2026-03-03T10:17:34.999Z</time>
      </trkpt>
      <trkpt lat="44.84073" lon="6.77432">
        <ele>2863.9</ele>
        <time>2026-03-03T10:17:35.999Z</time>
      </trkpt>
      <trkpt lat="44.84074" lon="6.77432">
        <ele>2864</ele>
        <time>2026-03-03T10:17:36.999Z</time>
      </trkpt>
      <trkpt lat="44.84074" lon="6.77432">
        <ele>2864.3</ele>
        <time>2026-03-03T10:17:37.999Z</time>
      </trkpt>
      <trkpt lat="44.84075" lon="6.77432">
        <ele>2864.3</ele>
        <time>2026-03-03T10:17:38.999Z</time>
      </trkpt>
      <trkpt lat="44.84075" lon="6.77433">
        <ele>2864.6</ele>
        <time>2026-03-03T10:17:39.999Z</time>
      </trkpt>
      <trkpt lat="44.84075" lon="6.77433">
        <ele>2864.9</ele>
        <time>2026-03-03T10:17:40.999Z</time>
      </trkpt>
      <trkpt lat="44.84075" lon="6.77433">
        <ele>2865.2</ele>
        <time>2026-03-03T10:17:41.999Z</time>
      </trkpt>
      <trkpt lat="44.84076" lon="6.77433">
        <ele>2865.4</ele>
        <time>2026-03-03T10:17:42.999Z</time>
      </trkpt>
      <trkpt lat="44.84076" lon="6.77434">
        <ele>2865.6</ele>
        <time>2026-03-03T10:17:43.999Z</time>
      </trkpt>
      <trkpt lat="44.84077" lon="6.77435">
        <ele>2865.7</ele>
        <time>2026-03-03T10:17:44.999Z</time>
      </trkpt>
      <trkpt lat="44.84078" lon="6.77435">
        <ele>2865.7</ele>
        <time>2026-03-03T10:17:45.999Z</time>
      </trkpt>
      <trkpt lat="44.84078" lon="6.77435">
        <ele>2865.6</ele>
        <time>2026-03-03T10:17:46.999Z</time>
      </trkpt>
      <trkpt lat="44.84078" lon="6.77435">
        <ele>2865.7</ele>
        <time>2026-03-03T10:17:47.999Z</time>
      </trkpt>
      <trkpt lat="44.84079" lon="6.77435">
        <ele>2865.9</ele>
        <time>2026-03-03T10:17:48.999Z</time>
      </trkpt>
      <trkpt lat="44.84079" lon="6.77435">
        <ele>2865.9</ele>
        <time>2026-03-03T10:17:49.999Z</time>
      </trkpt>
      <trkpt lat="44.84079" lon="6.77436">
        <ele>2866.1</ele>
        <time>2026-03-03T10:17:50.999Z</time>
      </trkpt>
      <trkpt lat="44.84079" lon="6.77436">
        <ele>2866.2</ele>
        <time>2026-03-03T10:17:51.999Z</time>
      </trkpt>
      <trkpt lat="44.8408" lon="6.77436">
        <ele>2866.4</ele>
        <time>2026-03-03T10:17:52.999Z</time>
      </trkpt>
      <trkpt lat="44.84081" lon="6.77436">
        <ele>2866.6</ele>
        <time>2026-03-03T10:17:53.999Z</time>
      </trkpt>
      <trkpt lat="44.84081" lon="6.77436">
        <ele>2866.8</ele>
        <time>2026-03-03T10:17:54.999Z</time>
      </trkpt>
      <trkpt lat="44.8408" lon="6.77438">
        <ele>2867.6</ele>
        <time>2026-03-03T10:18:09.999Z</time>
      </trkpt>
      <trkpt lat="44.8408" lon="6.77438">
        <ele>2867.8</ele>
        <time>2026-03-03T10:18:10.999Z</time>
      </trkpt>
      <trkpt lat="44.8408" lon="6.77438">
        <ele>2867.8</ele>
        <time>2026-03-03T10:18:11.999Z</time>
      </trkpt>
      <trkpt lat="44.8408" lon="6.77439">
        <ele>2867.8</ele>
        <time>2026-03-03T10:18:12.999Z</time>
      </trkpt>
      <trkpt lat="44.8408" lon="6.77439">
        <ele>2867.9</ele>
        <time>2026-03-03T10:18:13.999Z</time>
      </trkpt>
      <trkpt lat="44.8408" lon="6.77439">
        <ele>2868</ele>
        <time>2026-03-03T10:18:14.999Z</time>
      </trkpt>
      <trkpt lat="44.8408" lon="6.77439">
        <ele>2868.2</ele>
        <time>2026-03-03T10:18:15.999Z</time>
      </trkpt>
      <trkpt lat="44.8408" lon="6.77439">
        <ele>2868.2</ele>
        <time>2026-03-03T10:18:16.999Z</time>
      </trkpt>
      <trkpt lat="44.84079" lon="6.7744">
        <ele>2868.4</ele>
        <time>2026-03-03T10:18:17.999Z</time>
      </trkpt>
      <trkpt lat="44.84079" lon="6.77441">
        <ele>2868.4</ele>
        <time>2026-03-03T10:18:18.999Z</time>
      </trkpt>
      <trkpt lat="44.84079" lon="6.77441">
        <ele>2868.5</ele>
        <time>2026-03-03T10:18:19.999Z</time>
      </trkpt>
      <trkpt lat="44.84079" lon="6.77441">
        <ele>2868.7</ele>
        <time>2026-03-03T10:18:20.999Z</time>
      </trkpt>
      <trkpt lat="44.84078" lon="6.77442">
        <ele>2868.8</ele>
        <time>2026-03-03T10:18:21.999Z</time>
      </trkpt>
      <trkpt lat="44.84078" lon="6.77442">
        <ele>2868.9</ele>
        <time>2026-03-03T10:18:22.999Z</time>
      </trkpt>
      <trkpt lat="44.84078" lon="6.77442">
        <ele>2869</ele>
        <time>2026-03-03T10:18:23.999Z</time>
      </trkpt>
      <trkpt lat="44.84078" lon="6.77443">
        <ele>2869.1</ele>
        <time>2026-03-03T10:18:24.999Z</time>
      </trkpt>
      <trkpt lat="44.84078" lon="6.77443">
        <ele>2869.2</ele>
        <time>2026-03-03T10:18:25.999Z</time>
      </trkpt>
      <trkpt lat="44.84078" lon="6.77444">
        <ele>2869.2</ele>
        <time>2026-03-03T10:18:26.999Z</time>
      </trkpt>
      <trkpt lat="44.84077" lon="6.77444">
        <ele>2869.4</ele>
        <time>2026-03-03T10:18:27.999Z</time>
      </trkpt>
      <trkpt lat="44.84077" lon="6.77445">
        <ele>2869.5</ele>
        <time>2026-03-03T10:18:28.999Z</time>
      </trkpt>
      <trkpt lat="44.84077" lon="6.77445">
        <ele>2869.6</ele>
        <time>2026-03-03T10:18:29.999Z</time>
      </trkpt>
      <trkpt lat="44.84077" lon="6.77446">
        <ele>2869.6</ele>
        <time>2026-03-03T10:18:30.999Z</time>
      </trkpt>
      <trkpt lat="44.84077" lon="6.77446">
        <ele>2869.7</ele>
        <time>2026-03-03T10:18:31.999Z</time>
      </trkpt>
      <trkpt lat="44.84076" lon="6.77446">
        <ele>2869.8</ele>
        <time>2026-03-03T10:18:32.999Z</time>
      </trkpt>
      <trkpt lat="44.84076" lon="6.77447">
        <ele>2870</ele>
        <time>2026-03-03T10:18:33.999Z</time>
      </trkpt>
      <trkpt lat="44.84076" lon="6.77447">
        <ele>2870.3</ele>
        <time>2026-03-03T10:18:34.999Z</time>
      </trkpt>
      <trkpt lat="44.84075" lon="6.77448">
        <ele>2870.6</ele>
        <time>2026-03-03T10:18:35.999Z</time>
      </trkpt>
      <trkpt lat="44.84075" lon="6.77448">
        <ele>2870.9</ele>
        <time>2026-03-03T10:18:36.999Z</time>
      </trkpt>
      <trkpt lat="44.84075" lon="6.77448">
        <ele>2871.3</ele>
        <time>2026-03-03T10:18:37.999Z</time>
      </trkpt>
      <trkpt lat="44.84075" lon="6.77449">
        <ele>2871.5</ele>
        <time>2026-03-03T10:18:38.999Z</time>
      </trkpt>
      <trkpt lat="44.84074" lon="6.77449">
        <ele>2871.6</ele>
        <time>2026-03-03T10:18:39.999Z</time>
      </trkpt>
      <trkpt lat="44.84074" lon="6.7745">
        <ele>2871.7</ele>
        <time>2026-03-03T10:18:40.999Z</time>
      </trkpt>
      <trkpt lat="44.84073" lon="6.77451">
        <ele>2872</ele>
        <time>2026-03-03T10:18:41.999Z</time>
      </trkpt>
      <trkpt lat="44.84072" lon="6.77452">
        <ele>2872.2</ele>
        <time>2026-03-03T10:18:42.999Z</time>
      </trkpt>
      <trkpt lat="44.84072" lon="6.77452">
        <ele>2872.4</ele>
        <time>2026-03-03T10:18:43.999Z</time>
      </trkpt>
      <trkpt lat="44.84072" lon="6.77452">
        <ele>2872.6</ele>
        <time>2026-03-03T10:18:44.999Z</time>
      </trkpt>
      <trkpt lat="44.84072" lon="6.77453">
        <ele>2872.8</ele>
        <time>2026-03-03T10:18:45.999Z</time>
      </trkpt>
      <trkpt lat="44.84071" lon="6.77453">
        <ele>2873</ele>
        <time>2026-03-03T10:18:46.999Z</time>
      </trkpt>
      <trkpt lat="44.84071" lon="6.77453">
        <ele>2873.2</ele>
        <time>2026-03-03T10:18:47.999Z</time>
      </trkpt>
      <trkpt lat="44.84071" lon="6.77454">
        <ele>2873.4</ele>
        <time>2026-03-03T10:18:48.999Z</time>
      </trkpt>
      <trkpt lat="44.84071" lon="6.77454">
        <ele>2873.5</ele>
        <time>2026-03-03T10:18:49.999Z</time>
      </trkpt>
      <trkpt lat="44.84071" lon="6.77454">
        <ele>2873.6</ele>
        <time>2026-03-03T10:18:50.999Z</time>
      </trkpt>
      <trkpt lat="44.84071" lon="6.77454">
        <ele>2873.8</ele>
        <time>2026-03-03T10:18:51.999Z</time>
      </trkpt>
      <trkpt lat="44.8407" lon="6.77454">
        <ele>2874</ele>
        <time>2026-03-03T10:18:52.999Z</time>
      </trkpt>
      <trkpt lat="44.8407" lon="6.77455">
        <ele>2874.1</ele>
        <time>2026-03-03T10:18:53.999Z</time>
      </trkpt>
      <trkpt lat="44.84069" lon="6.77456">
        <ele>2874.2</ele>
        <time>2026-03-03T10:18:54.999Z</time>
      </trkpt>
      <trkpt lat="44.84067" lon="6.77457">
        <ele>2874.3</ele>
        <time>2026-03-03T10:18:55.999Z</time>
      </trkpt>
      <trkpt lat="44.84066" lon="6.77457">
        <ele>2874.4</ele>
        <time>2026-03-03T10:18:56.999Z</time>
      </trkpt>
      <trkpt lat="44.84065" lon="6.77457">
        <ele>2874.4</ele>
        <time>2026-03-03T10:18:57.999Z</time>
      </trkpt>
      <trkpt lat="44.84065" lon="6.77457">
        <ele>2874.5</ele>
        <time>2026-03-03T10:18:58.999Z</time>
      </trkpt>
      <trkpt lat="44.84064" lon="6.77458">
        <ele>2874.7</ele>
        <time>2026-03-03T10:18:59.999Z</time>
      </trkpt>
      <trkpt lat="44.84064" lon="6.77458">
        <ele>2874.6</ele>
        <time>2026-03-03T10:19:00.999Z</time>
      </trkpt>
      <trkpt lat="44.84064" lon="6.77459">
        <ele>2874.7</ele>
        <time>2026-03-03T10:19:01.999Z</time>
      </trkpt>
      <trkpt lat="44.84064" lon="6.77459">
        <ele>2874.8</ele>
        <time>2026-03-03T10:19:02.999Z</time>
      </trkpt>
      <trkpt lat="44.84064" lon="6.77459">
        <ele>2875</ele>
        <time>2026-03-03T10:19:03.999Z</time>
      </trkpt>
      <trkpt lat="44.84064" lon="6.77459">
        <ele>2875.3</ele>
        <time>2026-03-03T10:19:04.999Z</time>
      </trkpt>
      <trkpt lat="44.84064" lon="6.77459">
        <ele>2875.5</ele>
        <time>2026-03-03T10:19:05.999Z</time>
      </trkpt>
      <trkpt lat="44.84063" lon="6.7746">
        <ele>2875.7</ele>
        <time>2026-03-03T10:19:06.999Z</time>
      </trkpt>
      <trkpt lat="44.84063" lon="6.7746">
        <ele>2875.9</ele>
        <time>2026-03-03T10:19:07.999Z</time>
      </trkpt>
      <trkpt lat="44.84062" lon="6.77461">
        <ele>2875.9</ele>
        <time>2026-03-03T10:19:08.999Z</time>
      </trkpt>
      <trkpt lat="44.84061" lon="6.77462">
        <ele>2876.1</ele>
        <time>2026-03-03T10:19:09.999Z</time>
      </trkpt>
      <trkpt lat="44.84061" lon="6.77462">
        <ele>2876.2</ele>
        <time>2026-03-03T10:19:10.999Z</time>
      </trkpt>
      <trkpt lat="44.84064" lon="6.77464">
        <ele>2878.6</ele>
        <time>2026-03-03T10:19:31.999Z</time>
      </trkpt>
      <trkpt lat="44.84064" lon="6.77465">
        <ele>2878.6</ele>
        <time>2026-03-03T10:19:32.999Z</time>
      </trkpt>
      <trkpt lat="44.84065" lon="6.77465">
        <ele>2878.6</ele>
        <time>2026-03-03T10:19:33.999Z</time>
      </trkpt>
      <trkpt lat="44.84066" lon="6.77465">
        <ele>2878.7</ele>
        <time>2026-03-03T10:19:34.999Z</time>
      </trkpt>
      <trkpt lat="44.84067" lon="6.77465">
        <ele>2878.8</ele>
        <time>2026-03-03T10:19:35.999Z</time>
      </trkpt>
      <trkpt lat="44.84067" lon="6.77466">
        <ele>2878.9</ele>
        <time>2026-03-03T10:19:36.999Z</time>
      </trkpt>
      <trkpt lat="44.84068" lon="6.77466">
        <ele>2879</ele>
        <time>2026-03-03T10:19:37.999Z</time>
      </trkpt>
      <trkpt lat="44.84068" lon="6.77467">
        <ele>2879</ele>
        <time>2026-03-03T10:19:38.999Z</time>
      </trkpt>
      <trkpt lat="44.84069" lon="6.77469">
        <ele>2879</ele>
        <time>2026-03-03T10:19:39.999Z</time>
      </trkpt>
      <trkpt lat="44.8407" lon="6.77469">
        <ele>2878.9</ele>
        <time>2026-03-03T10:19:40.999Z</time>
      </trkpt>
      <trkpt lat="44.8407" lon="6.7747">
        <ele>2879</ele>
        <time>2026-03-03T10:19:41.999Z</time>
      </trkpt>
      <trkpt lat="44.8407" lon="6.7747">
        <ele>2879.1</ele>
        <time>2026-03-03T10:19:42.999Z</time>
      </trkpt>
      <trkpt lat="44.8407" lon="6.77471">
        <ele>2879.2</ele>
        <time>2026-03-03T10:19:44.000Z</time>
      </trkpt>
      <trkpt lat="44.84071" lon="6.77472">
        <ele>2879.2</ele>
        <time>2026-03-03T10:19:45.000Z</time>
      </trkpt>
      <trkpt lat="44.84071" lon="6.77472">
        <ele>2879</ele>
        <time>2026-03-03T10:19:46.000Z</time>
      </trkpt>
      <trkpt lat="44.84072" lon="6.77473">
        <ele>2879.2</ele>
        <time>2026-03-03T10:19:47.000Z</time>
      </trkpt>
      <trkpt lat="44.84072" lon="6.77473">
        <ele>2879.5</ele>
        <time>2026-03-03T10:19:48.000Z</time>
      </trkpt>
      <trkpt lat="44.84072" lon="6.77474">
        <ele>2879.7</ele>
        <time>2026-03-03T10:19:49.000Z</time>
      </trkpt>
      <trkpt lat="44.84073" lon="6.77474">
        <ele>2879.7</ele>
        <time>2026-03-03T10:19:50.000Z</time>
      </trkpt>
      <trkpt lat="44.84074" lon="6.77475">
        <ele>2879.6</ele>
        <time>2026-03-03T10:19:51.000Z</time>
      </trkpt>
      <trkpt lat="44.84074" lon="6.77475">
        <ele>2879.9</ele>
        <time>2026-03-03T10:19:52.000Z</time>
      </trkpt>
      <trkpt lat="44.84074" lon="6.77475">
        <ele>2880.1</ele>
        <time>2026-03-03T10:19:53.000Z</time>
      </trkpt>
      <trkpt lat="44.84074" lon="6.77475">
        <ele>2880.1</ele>
        <time>2026-03-03T10:19:54.000Z</time>
      </trkpt>
      <trkpt lat="44.84075" lon="6.77475">
        <ele>2880.4</ele>
        <time>2026-03-03T10:19:55.000Z</time>
      </trkpt>
      <trkpt lat="44.84075" lon="6.77475">
        <ele>2880.7</ele>
        <time>2026-03-03T10:19:56.000Z</time>
      </trkpt>
      <trkpt lat="44.84075" lon="6.77476">
        <ele>2880.8</ele>
        <time>2026-03-03T10:19:57.000Z</time>
      </trkpt>
      <trkpt lat="44.84076" lon="6.77476">
        <ele>2880.9</ele>
        <time>2026-03-03T10:19:58.000Z</time>
      </trkpt>
      <trkpt lat="44.84077" lon="6.77476">
        <ele>2881</ele>
        <time>2026-03-03T10:19:59.000Z</time>
      </trkpt>
      <trkpt lat="44.84077" lon="6.77476">
        <ele>2881.2</ele>
        <time>2026-03-03T10:20:00.000Z</time>
      </trkpt>
      <trkpt lat="44.84078" lon="6.77476">
        <ele>2881.1</ele>
        <time>2026-03-03T10:20:01.000Z</time>
      </trkpt>
      <trkpt lat="44.84078" lon="6.77476">
        <ele>2881.2</ele>
        <time>2026-03-03T10:20:02.000Z</time>
      </trkpt>
      <trkpt lat="44.84078" lon="6.77476">
        <ele>2881.3</ele>
        <time>2026-03-03T10:20:03.000Z</time>
      </trkpt>
      <trkpt lat="44.84078" lon="6.77476">
        <ele>2881.4</ele>
        <time>2026-03-03T10:20:04.000Z</time>
      </trkpt>
      <trkpt lat="44.84079" lon="6.77476">
        <ele>2881.6</ele>
        <time>2026-03-03T10:20:05.000Z</time>
      </trkpt>
      <trkpt lat="44.84079" lon="6.77476">
        <ele>2881.8</ele>
        <time>2026-03-03T10:20:06.000Z</time>
      </trkpt>
      <trkpt lat="44.8408" lon="6.77476">
        <ele>2882.1</ele>
        <time>2026-03-03T10:20:07.000Z</time>
      </trkpt>
      <trkpt lat="44.8408" lon="6.77477">
        <ele>2882.3</ele>
        <time>2026-03-03T10:20:08.000Z</time>
      </trkpt>
      <trkpt lat="44.8408" lon="6.77477">
        <ele>2882.6</ele>
        <time>2026-03-03T10:20:09.000Z</time>
      </trkpt>
      <trkpt lat="44.84081" lon="6.77477">
        <ele>2882.9</ele>
        <time>2026-03-03T10:20:10.000Z</time>
      </trkpt>
      <trkpt lat="44.84081" lon="6.77476">
        <ele>2883.1</ele>
        <time>2026-03-03T10:20:11.000Z</time>
      </trkpt>
      <trkpt lat="44.84082" lon="6.77476">
        <ele>2883.3</ele>
        <time>2026-03-03T10:20:12.000Z</time>
      </trkpt>
      <trkpt lat="44.84083" lon="6.77476">
        <ele>2883.7</ele>
        <time>2026-03-03T10:20:13.000Z</time>
      </trkpt>
      <trkpt lat="44.84084" lon="6.77476">
        <ele>2883.9</ele>
        <time>2026-03-03T10:20:14.000Z</time>
      </trkpt>
      <trkpt lat="44.84085" lon="6.77477">
        <ele>2884</ele>
        <time>2026-03-03T10:20:15.000Z</time>
      </trkpt>
      <trkpt lat="44.84086" lon="6.77476">
        <ele>2884.2</ele>
        <time>2026-03-03T10:20:16.000Z</time>
      </trkpt>
      <trkpt lat="44.84087" lon="6.77476">
        <ele>2884.3</ele>
        <time>2026-03-03T10:20:17.000Z</time>
      </trkpt>
      <trkpt lat="44.84087" lon="6.77476">
        <ele>2884.3</ele>
        <time>2026-03-03T10:20:18.000Z</time>
      </trkpt>
      <trkpt lat="44.84087" lon="6.77475">
        <ele>2884.3</ele>
        <time>2026-03-03T10:20:19.000Z</time>
      </trkpt>
      <trkpt lat="44.84088" lon="6.77475">
        <ele>2884.6</ele>
        <time>2026-03-03T10:20:20.000Z</time>
      </trkpt>
      <trkpt lat="44.84088" lon="6.77475">
        <ele>2884.7</ele>
        <time>2026-03-03T10:20:21.000Z</time>
      </trkpt>
      <trkpt lat="44.84088" lon="6.77475">
        <ele>2884.7</ele>
        <time>2026-03-03T10:20:22.000Z</time>
      </trkpt>
      <trkpt lat="44.84089" lon="6.77475">
        <ele>2884.9</ele>
        <time>2026-03-03T10:20:23.000Z</time>
      </trkpt>
      <trkpt lat="44.8409" lon="6.77476">
        <ele>2887</ele>
        <time>2026-03-03T10:20:41.000Z</time>
      </trkpt>
      <trkpt lat="44.84089" lon="6.77477">
        <ele>2887.2</ele>
        <time>2026-03-03T10:20:42.000Z</time>
      </trkpt>
      <trkpt lat="44.8409" lon="6.77477">
        <ele>2887.2</ele>
        <time>2026-03-03T10:20:43.000Z</time>
      </trkpt>
      <trkpt lat="44.8409" lon="6.77478">
        <ele>2887.3</ele>
        <time>2026-03-03T10:20:44.000Z</time>
      </trkpt>
      <trkpt lat="44.8409" lon="6.77478">
        <ele>2887.4</ele>
        <time>2026-03-03T10:20:45.000Z</time>
      </trkpt>
      <trkpt lat="44.8409" lon="6.77479">
        <ele>2887.5</ele>
        <time>2026-03-03T10:20:46.000Z</time>
      </trkpt>
      <trkpt lat="44.84094" lon="6.77501">
        <ele>2894.1</ele>
        <time>2026-03-03T10:26:13.000Z</time>
      </trkpt>
      <trkpt lat="44.84093" lon="6.77502">
        <ele>2894.1</ele>
        <time>2026-03-03T10:26:14.000Z</time>
      </trkpt>
      <trkpt lat="44.84093" lon="6.77503">
        <ele>2894.3</ele>
        <time>2026-03-03T10:26:15.000Z</time>
      </trkpt>
      <trkpt lat="44.84093" lon="6.77503">
        <ele>2894.3</ele>
        <time>2026-03-03T10:26:16.000Z</time>
      </trkpt>
      <trkpt lat="44.84093" lon="6.77504">
        <ele>2894.5</ele>
        <time>2026-03-03T10:26:17.000Z</time>
      </trkpt>
      <trkpt lat="44.84093" lon="6.77504">
        <ele>2894.6</ele>
        <time>2026-03-03T10:26:18.000Z</time>
      </trkpt>
      <trkpt lat="44.84093" lon="6.77504">
        <ele>2894.8</ele>
        <time>2026-03-03T10:26:19.000Z</time>
      </trkpt>
      <trkpt lat="44.84093" lon="6.77504">
        <ele>2895</ele>
        <time>2026-03-03T10:26:20.000Z</time>
      </trkpt>
      <trkpt lat="44.84092" lon="6.77505">
        <ele>2895.2</ele>
        <time>2026-03-03T10:26:21.000Z</time>
      </trkpt>
      <trkpt lat="44.84092" lon="6.77505">
        <ele>2895.3</ele>
        <time>2026-03-03T10:26:22.000Z</time>
      </trkpt>
      <trkpt lat="44.84092" lon="6.77506">
        <ele>2895.4</ele>
        <time>2026-03-03T10:26:23.000Z</time>
      </trkpt>
      <trkpt lat="44.84092" lon="6.77507">
        <ele>2895.5</ele>
        <time>2026-03-03T10:26:24.000Z</time>
      </trkpt>
      <trkpt lat="44.84091" lon="6.77507">
        <ele>2895.5</ele>
        <time>2026-03-03T10:26:25.000Z</time>
      </trkpt>
      <trkpt lat="44.84091" lon="6.77508">
        <ele>2895.6</ele>
        <time>2026-03-03T10:26:26.000Z</time>
      </trkpt>
      <trkpt lat="44.84091" lon="6.77508">
        <ele>2895.6</ele>
        <time>2026-03-03T10:26:27.000Z</time>
      </trkpt>
      <trkpt lat="44.84091" lon="6.77508">
        <ele>2895.6</ele>
        <time>2026-03-03T10:26:28.000Z</time>
      </trkpt>
      <trkpt lat="44.84091" lon="6.77509">
        <ele>2895.7</ele>
        <time>2026-03-03T10:26:29.000Z</time>
      </trkpt>
      <trkpt lat="44.84091" lon="6.77509">
        <ele>2895.7</ele>
        <time>2026-03-03T10:26:30.000Z</time>
      </trkpt>
      <trkpt lat="44.84091" lon="6.7751">
        <ele>2895.9</ele>
        <time>2026-03-03T10:26:31.000Z</time>
      </trkpt>
      <trkpt lat="44.84091" lon="6.77511">
        <ele>2896</ele>
        <time>2026-03-03T10:26:32.000Z</time>
      </trkpt>
      <trkpt lat="44.8409" lon="6.77511">
        <ele>2896.2</ele>
        <time>2026-03-03T10:26:33.000Z</time>
      </trkpt>
      <trkpt lat="44.8409" lon="6.77512">
        <ele>2896.2</ele>
        <time>2026-03-03T10:26:34.000Z</time>
      </trkpt>
      <trkpt lat="44.8409" lon="6.77513">
        <ele>2896.3</ele>
        <time>2026-03-03T10:26:35.000Z</time>
      </trkpt>
      <trkpt lat="44.8409" lon="6.77513">
        <ele>2896.4</ele>
        <time>2026-03-03T10:26:36.000Z</time>
      </trkpt>
      <trkpt lat="44.8409" lon="6.77513">
        <ele>2896.5</ele>
        <time>2026-03-03T10:26:37.000Z</time>
      </trkpt>
      <trkpt lat="44.8409" lon="6.77514">
        <ele>2896.7</ele>
        <time>2026-03-03T10:26:38.000Z</time>
      </trkpt>
      <trkpt lat="44.8409" lon="6.77514">
        <ele>2896.7</ele>
        <time>2026-03-03T10:26:39.000Z</time>
      </trkpt>
      <trkpt lat="44.8409" lon="6.77515">
        <ele>2896.8</ele>
        <time>2026-03-03T10:26:40.000Z</time>
      </trkpt>
      <trkpt lat="44.8409" lon="6.77515">
        <ele>2896.8</ele>
        <time>2026-03-03T10:26:41.000Z</time>
      </trkpt>
      <trkpt lat="44.8409" lon="6.77516">
        <ele>2896.8</ele>
        <time>2026-03-03T10:26:42.000Z</time>
      </trkpt>
      <trkpt lat="44.8409" lon="6.77516">
        <ele>2896.9</ele>
        <time>2026-03-03T10:26:43.000Z</time>
      </trkpt>
      <trkpt lat="44.8409" lon="6.77517">
        <ele>2897</ele>
        <time>2026-03-03T10:26:44.000Z</time>
      </trkpt>
      <trkpt lat="44.8409" lon="6.77517">
        <ele>2897.3</ele>
        <time>2026-03-03T10:26:45.000Z</time>
      </trkpt>
      <trkpt lat="44.84089" lon="6.77517">
        <ele>2897.5</ele>
        <time>2026-03-03T10:26:46.000Z</time>
      </trkpt>
      <trkpt lat="44.84089" lon="6.77518">
        <ele>2897.6</ele>
        <time>2026-03-03T10:26:47.000Z</time>
      </trkpt>
      <trkpt lat="44.84089" lon="6.77519">
        <ele>2897.7</ele>
        <time>2026-03-03T10:26:48.000Z</time>
      </trkpt>
      <trkpt lat="44.84089" lon="6.77519">
        <ele>2897.8</ele>
        <time>2026-03-03T10:26:49.000Z</time>
      </trkpt>
      <trkpt lat="44.84089" lon="6.7752">
        <ele>2897.9</ele>
        <time>2026-03-03T10:26:50.000Z</time>
      </trkpt>
      <trkpt lat="44.84089" lon="6.7752">
        <ele>2898</ele>
        <time>2026-03-03T10:26:51.000Z</time>
      </trkpt>
      <trkpt lat="44.84089" lon="6.7752">
        <ele>2897.9</ele>
        <time>2026-03-03T10:26:52.000Z</time>
      </trkpt>
      <trkpt lat="44.84089" lon="6.77521">
        <ele>2898</ele>
        <time>2026-03-03T10:26:53.000Z</time>
      </trkpt>
      <trkpt lat="44.84089" lon="6.77522">
        <ele>2898</ele>
        <time>2026-03-03T10:26:54.000Z</time>
      </trkpt>
      <trkpt lat="44.84089" lon="6.77523">
        <ele>2897.9</ele>
        <time>2026-03-03T10:26:55.000Z</time>
      </trkpt>
      <trkpt lat="44.84089" lon="6.77524">
        <ele>2898</ele>
        <time>2026-03-03T10:26:56.000Z</time>
      </trkpt>
      <trkpt lat="44.84088" lon="6.77524">
        <ele>2898.2</ele>
        <time>2026-03-03T10:26:57.000Z</time>
      </trkpt>
      <trkpt lat="44.84088" lon="6.77525">
        <ele>2898.4</ele>
        <time>2026-03-03T10:26:58.000Z</time>
      </trkpt>
      <trkpt lat="44.84088" lon="6.77525">
        <ele>2898.5</ele>
        <time>2026-03-03T10:26:59.000Z</time>
      </trkpt>
      <trkpt lat="44.84088" lon="6.77526">
        <ele>2898.7</ele>
        <time>2026-03-03T10:27:00.000Z</time>
      </trkpt>
      <trkpt lat="44.84088" lon="6.77528">
        <ele>2899.1</ele>
        <time>2026-03-03T10:27:01.000Z</time>
      </trkpt>
      <trkpt lat="44.84087" lon="6.77528">
        <ele>2899.3</ele>
        <time>2026-03-03T10:27:02.000Z</time>
      </trkpt>
      <trkpt lat="44.84087" lon="6.77529">
        <ele>2899.5</ele>
        <time>2026-03-03T10:27:03.000Z</time>
      </trkpt>
      <trkpt lat="44.84087" lon="6.77529">
        <ele>2899.8</ele>
        <time>2026-03-03T10:27:04.000Z</time>
      </trkpt>
      <trkpt lat="44.84087" lon="6.7753">
        <ele>2900</ele>
        <time>2026-03-03T10:27:05.000Z</time>
      </trkpt>
      <trkpt lat="44.84087" lon="6.7753">
        <ele>2900.2</ele>
        <time>2026-03-03T10:27:06.000Z</time>
      </trkpt>
      <trkpt lat="44.84087" lon="6.77531">
        <ele>2900.3</ele>
        <time>2026-03-03T10:27:07.000Z</time>
      </trkpt>
      <trkpt lat="44.84087" lon="6.77531">
        <ele>2900.5</ele>
        <time>2026-03-03T10:27:08.000Z</time>
      </trkpt>
      <trkpt lat="44.84087" lon="6.77532">
        <ele>2900.7</ele>
        <time>2026-03-03T10:27:09.000Z</time>
      </trkpt>
      <trkpt lat="44.84087" lon="6.77532">
        <ele>2900.8</ele>
        <time>2026-03-03T10:27:10.000Z</time>
      </trkpt>
      <trkpt lat="44.84087" lon="6.77533">
        <ele>2901</ele>
        <time>2026-03-03T10:27:11.000Z</time>
      </trkpt>
      <trkpt lat="44.84087" lon="6.77534">
        <ele>2901.1</ele>
        <time>2026-03-03T10:27:12.000Z</time>
      </trkpt>
      <trkpt lat="44.84086" lon="6.77535">
        <ele>2901.2</ele>
        <time>2026-03-03T10:27:13.000Z</time>
      </trkpt>
      <trkpt lat="44.84086" lon="6.77536">
        <ele>2901.4</ele>
        <time>2026-03-03T10:27:14.000Z</time>
      </trkpt>
      <trkpt lat="44.84086" lon="6.77537">
        <ele>2901.4</ele>
        <time>2026-03-03T10:27:15.000Z</time>
      </trkpt>
      <trkpt lat="44.84086" lon="6.77537">
        <ele>2901.2</ele>
        <time>2026-03-03T10:27:16.000Z</time>
      </trkpt>
      <trkpt lat="44.84086" lon="6.77538">
        <ele>2901.3</ele>
        <time>2026-03-03T10:27:17.000Z</time>
      </trkpt>
      <trkpt lat="44.84086" lon="6.77539">
        <ele>2901.4</ele>
        <time>2026-03-03T10:27:18.000Z</time>
      </trkpt>
      <trkpt lat="44.84086" lon="6.7754">
        <ele>2901.4</ele>
        <time>2026-03-03T10:27:19.000Z</time>
      </trkpt>
      <trkpt lat="44.84086" lon="6.7754">
        <ele>2901.5</ele>
        <time>2026-03-03T10:27:20.000Z</time>
      </trkpt>
      <trkpt lat="44.84086" lon="6.77541">
        <ele>2901.5</ele>
        <time>2026-03-03T10:27:21.000Z</time>
      </trkpt>
      <trkpt lat="44.84086" lon="6.77542">
        <ele>2901.5</ele>
        <time>2026-03-03T10:27:22.000Z</time>
      </trkpt>
      <trkpt lat="44.84085" lon="6.77542">
        <ele>2901.4</ele>
        <time>2026-03-03T10:27:23.000Z</time>
      </trkpt>
      <trkpt lat="44.84085" lon="6.77542">
        <ele>2901.5</ele>
        <time>2026-03-03T10:27:24.000Z</time>
      </trkpt>
      <trkpt lat="44.84085" lon="6.77543">
        <ele>2901.4</ele>
        <time>2026-03-03T10:27:25.000Z</time>
      </trkpt>
      <trkpt lat="44.84084" lon="6.77544">
        <ele>2901.4</ele>
        <time>2026-03-03T10:27:26.000Z</time>
      </trkpt>
      <trkpt lat="44.84084" lon="6.77545">
        <ele>2901.5</ele>
        <time>2026-03-03T10:27:27.000Z</time>
      </trkpt>
      <trkpt lat="44.84084" lon="6.77545">
        <ele>2901.5</ele>
        <time>2026-03-03T10:27:28.000Z</time>
      </trkpt>
      <trkpt lat="44.84083" lon="6.77545">
        <ele>2901.6</ele>
        <time>2026-03-03T10:27:29.000Z</time>
      </trkpt>
      <trkpt lat="44.84083" lon="6.77546">
        <ele>2901.7</ele>
        <time>2026-03-03T10:27:30.000Z</time>
      </trkpt>
      <trkpt lat="44.84083" lon="6.77546">
        <ele>2901.9</ele>
        <time>2026-03-03T10:27:31.000Z</time>
      </trkpt>
      <trkpt lat="44.84078" lon="6.77542">
        <ele>2904.7</ele>
        <time>2026-03-03T10:27:50.000Z</time>
      </trkpt>
      <trkpt lat="44.84077" lon="6.77542">
        <ele>2905</ele>
        <time>2026-03-03T10:27:51.000Z</time>
      </trkpt>
      <trkpt lat="44.84077" lon="6.77542">
        <ele>2905.3</ele>
        <time>2026-03-03T10:27:52.000Z</time>
      </trkpt>
      <trkpt lat="44.84077" lon="6.77542">
        <ele>2905.6</ele>
        <time>2026-03-03T10:27:53.000Z</time>
      </trkpt>
      <trkpt lat="44.84076" lon="6.77542">
        <ele>2905.9</ele>
        <time>2026-03-03T10:27:54.000Z</time>
      </trkpt>
      <trkpt lat="44.84076" lon="6.77542">
        <ele>2906.1</ele>
        <time>2026-03-03T10:27:55.000Z</time>
      </trkpt>
      <trkpt lat="44.84076" lon="6.77542">
        <ele>2906.3</ele>
        <time>2026-03-03T10:27:56.000Z</time>
      </trkpt>
      <trkpt lat="44.84076" lon="6.77542">
        <ele>2906.6</ele>
        <time>2026-03-03T10:27:57.000Z</time>
      </trkpt>
      <trkpt lat="44.84075" lon="6.77542">
        <ele>2906.9</ele>
        <time>2026-03-03T10:27:58.000Z</time>
      </trkpt>
      <trkpt lat="44.84075" lon="6.77542">
        <ele>2907.2</ele>
        <time>2026-03-03T10:27:59.000Z</time>
      </trkpt>
      <trkpt lat="44.84075" lon="6.77541">
        <ele>2907.5</ele>
        <time>2026-03-03T10:28:00.000Z</time>
      </trkpt>
      <trkpt lat="44.84074" lon="6.77541">
        <ele>2907.7</ele>
        <time>2026-03-03T10:28:01.000Z</time>
      </trkpt>
      <trkpt lat="44.84073" lon="6.77541">
        <ele>2907.8</ele>
        <time>2026-03-03T10:28:02.000Z</time>
      </trkpt>
      <trkpt lat="44.84072" lon="6.7754">
        <ele>2908</ele>
        <time>2026-03-03T10:28:03.000Z</time>
      </trkpt>
      <trkpt lat="44.84071" lon="6.7754">
        <ele>2908.1</ele>
        <time>2026-03-03T10:28:04.000Z</time>
      </trkpt>
      <trkpt lat="44.84069" lon="6.77548">
        <ele>2910.4</ele>
        <time>2026-03-03T10:28:31.000Z</time>
      </trkpt>
      <trkpt lat="44.84069" lon="6.7755">
        <ele>2910.4</ele>
        <time>2026-03-03T10:28:32.000Z</time>
      </trkpt>
      <trkpt lat="44.84069" lon="6.77551">
        <ele>2910.3</ele>
        <time>2026-03-03T10:28:33.000Z</time>
      </trkpt>
      <trkpt lat="44.84069" lon="6.77552">
        <ele>2910.5</ele>
        <time>2026-03-03T10:28:34.000Z</time>
      </trkpt>
      <trkpt lat="44.84069" lon="6.77552">
        <ele>2910.8</ele>
        <time>2026-03-03T10:28:35.000Z</time>
      </trkpt>
      <trkpt lat="44.84069" lon="6.77552">
        <ele>2911.1</ele>
        <time>2026-03-03T10:28:36.000Z</time>
      </trkpt>
      <trkpt lat="44.84069" lon="6.77553">
        <ele>2911.1</ele>
        <time>2026-03-03T10:28:37.000Z</time>
      </trkpt>
      <trkpt lat="44.84069" lon="6.77554">
        <ele>2911.2</ele>
        <time>2026-03-03T10:28:38.000Z</time>
      </trkpt>
      <trkpt lat="44.84069" lon="6.77554">
        <ele>2911.3</ele>
        <time>2026-03-03T10:28:39.000Z</time>
      </trkpt>
      <trkpt lat="44.84069" lon="6.77554">
        <ele>2911.3</ele>
        <time>2026-03-03T10:28:40.000Z</time>
      </trkpt>
      <trkpt lat="44.84069" lon="6.77555">
        <ele>2911.4</ele>
        <time>2026-03-03T10:28:41.000Z</time>
      </trkpt>
      <trkpt lat="44.84069" lon="6.77555">
        <ele>2911.5</ele>
        <time>2026-03-03T10:28:42.000Z</time>
      </trkpt>
      <trkpt lat="44.84069" lon="6.77556">
        <ele>2911.7</ele>
        <time>2026-03-03T10:28:43.000Z</time>
      </trkpt>
      <trkpt lat="44.84069" lon="6.77556">
        <ele>2911.9</ele>
        <time>2026-03-03T10:28:44.000Z</time>
      </trkpt>
      <trkpt lat="44.84069" lon="6.77557">
        <ele>2911.9</ele>
        <time>2026-03-03T10:28:45.000Z</time>
      </trkpt>
      <trkpt lat="44.84069" lon="6.77557">
        <ele>2912</ele>
        <time>2026-03-03T10:28:46.000Z</time>
      </trkpt>
      <trkpt lat="44.84069" lon="6.77557">
        <ele>2911.9</ele>
        <time>2026-03-03T10:28:47.000Z</time>
      </trkpt>
      <trkpt lat="44.84069" lon="6.77558">
        <ele>2912</ele>
        <time>2026-03-03T10:28:48.000Z</time>
      </trkpt>
      <trkpt lat="44.84069" lon="6.77558">
        <ele>2912</ele>
        <time>2026-03-03T10:28:49.000Z</time>
      </trkpt>
      <trkpt lat="44.84069" lon="6.77559">
        <ele>2912.2</ele>
        <time>2026-03-03T10:28:50.000Z</time>
      </trkpt>
      <trkpt lat="44.84069" lon="6.77559">
        <ele>2912.4</ele>
        <time>2026-03-03T10:28:51.000Z</time>
      </trkpt>
      <trkpt lat="44.84069" lon="6.77559">
        <ele>2912.6</ele>
        <time>2026-03-03T10:28:52.000Z</time>
      </trkpt>
      <trkpt lat="44.84069" lon="6.7756">
        <ele>2912.7</ele>
        <time>2026-03-03T10:28:53.000Z</time>
      </trkpt>
      <trkpt lat="44.84069" lon="6.77561">
        <ele>2912.8</ele>
        <time>2026-03-03T10:28:54.000Z</time>
      </trkpt>
      <trkpt lat="44.84069" lon="6.77561">
        <ele>2912.8</ele>
        <time>2026-03-03T10:28:55.000Z</time>
      </trkpt>
      <trkpt lat="44.84068" lon="6.77562">
        <ele>2912.9</ele>
        <time>2026-03-03T10:28:56.000Z</time>
      </trkpt>
      <trkpt lat="44.84068" lon="6.77562">
        <ele>2913</ele>
        <time>2026-03-03T10:28:57.000Z</time>
      </trkpt>
      <trkpt lat="44.84068" lon="6.77563">
        <ele>2913.1</ele>
        <time>2026-03-03T10:28:58.000Z</time>
      </trkpt>
      <trkpt lat="44.84068" lon="6.77563">
        <ele>2913.4</ele>
        <time>2026-03-03T10:28:59.000Z</time>
      </trkpt>
      <trkpt lat="44.84067" lon="6.77565">
        <ele>2913.6</ele>
        <time>2026-03-03T10:29:00.000Z</time>
      </trkpt>
      <trkpt lat="44.84066" lon="6.77566">
        <ele>2913.6</ele>
        <time>2026-03-03T10:29:01.000Z</time>
      </trkpt>
      <trkpt lat="44.84066" lon="6.77566">
        <ele>2913.7</ele>
        <time>2026-03-03T10:29:02.000Z</time>
      </trkpt>
      <trkpt lat="44.84066" lon="6.77566">
        <ele>2913.7</ele>
        <time>2026-03-03T10:29:03.000Z</time>
      </trkpt>
      <trkpt lat="44.84065" lon="6.77566">
        <ele>2913.9</ele>
        <time>2026-03-03T10:29:04.000Z</time>
      </trkpt>
      <trkpt lat="44.84065" lon="6.77566">
        <ele>2914</ele>
        <time>2026-03-03T10:29:05.000Z</time>
      </trkpt>
      <trkpt lat="44.84064" lon="6.77566">
        <ele>2914.3</ele>
        <time>2026-03-03T10:29:06.000Z</time>
      </trkpt>
      <trkpt lat="44.84063" lon="6.77565">
        <ele>2914.4</ele>
        <time>2026-03-03T10:29:07.000Z</time>
      </trkpt>
      <trkpt lat="44.84062" lon="6.77565">
        <ele>2914.6</ele>
        <time>2026-03-03T10:29:08.000Z</time>
      </trkpt>
      <trkpt lat="44.84061" lon="6.77564">
        <ele>2914.7</ele>
        <time>2026-03-03T10:29:09.000Z</time>
      </trkpt>
      <trkpt lat="44.8406" lon="6.77565">
        <ele>2914.8</ele>
        <time>2026-03-03T10:29:10.000Z</time>
      </trkpt>
      <trkpt lat="44.84056" lon="6.77561">
        <ele>2918.8</ele>
        <time>2026-03-03T10:29:29.000Z</time>
      </trkpt>
      <trkpt lat="44.84055" lon="6.7756">
        <ele>2918.9</ele>
        <time>2026-03-03T10:29:30.000Z</time>
      </trkpt>
      <trkpt lat="44.84055" lon="6.7756">
        <ele>2918.9</ele>
        <time>2026-03-03T10:29:31.000Z</time>
      </trkpt>
      <trkpt lat="44.84054" lon="6.7756">
        <ele>2919.1</ele>
        <time>2026-03-03T10:29:32.000Z</time>
      </trkpt>
      <trkpt lat="44.84054" lon="6.7756">
        <ele>2919.2</ele>
        <time>2026-03-03T10:29:33.000Z</time>
      </trkpt>
      <trkpt lat="44.84053" lon="6.77559">
        <ele>2919.4</ele>
        <time>2026-03-03T10:29:34.000Z</time>
      </trkpt>
      <trkpt lat="44.84052" lon="6.77559">
        <ele>2919.5</ele>
        <time>2026-03-03T10:29:35.000Z</time>
      </trkpt>
      <trkpt lat="44.84051" lon="6.77558">
        <ele>2919.6</ele>
        <time>2026-03-03T10:29:36.000Z</time>
      </trkpt>
      <trkpt lat="44.84046" lon="6.77558">
        <ele>2922.1</ele>
        <time>2026-03-03T10:30:01.000Z</time>
      </trkpt>
      <trkpt lat="44.84045" lon="6.77558">
        <ele>2922.3</ele>
        <time>2026-03-03T10:30:02.000Z</time>
      </trkpt>
      <trkpt lat="44.84045" lon="6.77558">
        <ele>2922.4</ele>
        <time>2026-03-03T10:30:03.000Z</time>
      </trkpt>
      <trkpt lat="44.84045" lon="6.77559">
        <ele>2922.4</ele>
        <time>2026-03-03T10:30:04.000Z</time>
      </trkpt>
      <trkpt lat="44.84044" lon="6.77559">
        <ele>2922.4</ele>
        <time>2026-03-03T10:30:05.000Z</time>
      </trkpt>
      <trkpt lat="44.84044" lon="6.77559">
        <ele>2922.5</ele>
        <time>2026-03-03T10:30:06.000Z</time>
      </trkpt>
      <trkpt lat="44.84044" lon="6.7756">
        <ele>2922.6</ele>
        <time>2026-03-03T10:30:07.000Z</time>
      </trkpt>
      <trkpt lat="44.84044" lon="6.7756">
        <ele>2922.7</ele>
        <time>2026-03-03T10:30:08.000Z</time>
      </trkpt>
      <trkpt lat="44.84044" lon="6.7756">
        <ele>2923</ele>
        <time>2026-03-03T10:30:09.000Z</time>
      </trkpt>
      <trkpt lat="44.84044" lon="6.7756">
        <ele>2923.2</ele>
        <time>2026-03-03T10:30:10.000Z</time>
      </trkpt>
      <trkpt lat="44.84043" lon="6.77561">
        <ele>2923.4</ele>
        <time>2026-03-03T10:30:11.000Z</time>
      </trkpt>
      <trkpt lat="44.84043" lon="6.77562">
        <ele>2923.6</ele>
        <time>2026-03-03T10:30:12.000Z</time>
      </trkpt>
      <trkpt lat="44.84043" lon="6.77562">
        <ele>2923.8</ele>
        <time>2026-03-03T10:30:13.000Z</time>
      </trkpt>
      <trkpt lat="44.84043" lon="6.77563">
        <ele>2924.1</ele>
        <time>2026-03-03T10:30:14.000Z</time>
      </trkpt>
      <trkpt lat="44.84043" lon="6.77563">
        <ele>2924.3</ele>
        <time>2026-03-03T10:30:15.000Z</time>
      </trkpt>
      <trkpt lat="44.84042" lon="6.77563">
        <ele>2924.5</ele>
        <time>2026-03-03T10:30:16.000Z</time>
      </trkpt>
      <trkpt lat="44.84043" lon="6.77564">
        <ele>2924.6</ele>
        <time>2026-03-03T10:30:17.000Z</time>
      </trkpt>
      <trkpt lat="44.84043" lon="6.77564">
        <ele>2924.9</ele>
        <time>2026-03-03T10:30:18.000Z</time>
      </trkpt>
      <trkpt lat="44.84043" lon="6.77564">
        <ele>2925.1</ele>
        <time>2026-03-03T10:30:19.000Z</time>
      </trkpt>
      <trkpt lat="44.84043" lon="6.77565">
        <ele>2925.4</ele>
        <time>2026-03-03T10:30:20.000Z</time>
      </trkpt>
      <trkpt lat="44.84043" lon="6.77565">
        <ele>2925.4</ele>
        <time>2026-03-03T10:30:21.000Z</time>
      </trkpt>
      <trkpt lat="44.84043" lon="6.77566">
        <ele>2925.5</ele>
        <time>2026-03-03T10:30:22.000Z</time>
      </trkpt>
      <trkpt lat="44.84042" lon="6.77566">
        <ele>2925.6</ele>
        <time>2026-03-03T10:30:23.000Z</time>
      </trkpt>
      <trkpt lat="44.84042" lon="6.77567">
        <ele>2925.7</ele>
        <time>2026-03-03T10:30:24.000Z</time>
      </trkpt>
      <trkpt lat="44.84042" lon="6.77567">
        <ele>2925.9</ele>
        <time>2026-03-03T10:30:25.000Z</time>
      </trkpt>
      <trkpt lat="44.84042" lon="6.77567">
        <ele>2925.9</ele>
        <time>2026-03-03T10:30:26.000Z</time>
      </trkpt>
      <trkpt lat="44.84042" lon="6.77568">
        <ele>2926</ele>
        <time>2026-03-03T10:30:27.000Z</time>
      </trkpt>
      <trkpt lat="44.84042" lon="6.77568">
        <ele>2926.2</ele>
        <time>2026-03-03T10:30:28.000Z</time>
      </trkpt>
      <trkpt lat="44.84042" lon="6.77569">
        <ele>2926.5</ele>
        <time>2026-03-03T10:30:29.000Z</time>
      </trkpt>
      <trkpt lat="44.84042" lon="6.7757">
        <ele>2926.5</ele>
        <time>2026-03-03T10:30:30.000Z</time>
      </trkpt>
      <trkpt lat="44.84042" lon="6.7757">
        <ele>2926.7</ele>
        <time>2026-03-03T10:30:31.000Z</time>
      </trkpt>
      <trkpt lat="44.84042" lon="6.77571">
        <ele>2926.8</ele>
        <time>2026-03-03T10:30:32.000Z</time>
      </trkpt>
      <trkpt lat="44.84042" lon="6.77572">
        <ele>2926.8</ele>
        <time>2026-03-03T10:30:33.000Z</time>
      </trkpt>
      <trkpt lat="44.84042" lon="6.77573">
        <ele>2926.9</ele>
        <time>2026-03-03T10:30:34.000Z</time>
      </trkpt>
      <trkpt lat="44.84042" lon="6.77575">
        <ele>2926.7</ele>
        <time>2026-03-03T10:30:35.000Z</time>
      </trkpt>
      <trkpt lat="44.84041" lon="6.77576">
        <ele>2926.9</ele>
        <time>2026-03-03T10:30:36.000Z</time>
      </trkpt>
      <trkpt lat="44.84041" lon="6.77577">
        <ele>2927</ele>
        <time>2026-03-03T10:30:37.000Z</time>
      </trkpt>
      <trkpt lat="44.84041" lon="6.77578">
        <ele>2927.2</ele>
        <time>2026-03-03T10:30:38.000Z</time>
      </trkpt>
      <trkpt lat="44.84041" lon="6.77578">
        <ele>2927.3</ele>
        <time>2026-03-03T10:30:39.000Z</time>
      </trkpt>
      <trkpt lat="44.84041" lon="6.77579">
        <ele>2927.4</ele>
        <time>2026-03-03T10:30:40.000Z</time>
      </trkpt>
      <trkpt lat="44.84041" lon="6.7758">
        <ele>2927.5</ele>
        <time>2026-03-03T10:30:41.000Z</time>
      </trkpt>
      <trkpt lat="44.84041" lon="6.77582">
        <ele>2927.6</ele>
        <time>2026-03-03T10:30:42.000Z</time>
      </trkpt>
      <trkpt lat="44.8404" lon="6.77583">
        <ele>2927.6</ele>
        <time>2026-03-03T10:30:43.000Z</time>
      </trkpt>
      <trkpt lat="44.8404" lon="6.77583">
        <ele>2927.7</ele>
        <time>2026-03-03T10:30:44.000Z</time>
      </trkpt>
      <trkpt lat="44.8404" lon="6.77584">
        <ele>2927.7</ele>
        <time>2026-03-03T10:30:45.000Z</time>
      </trkpt>
      <trkpt lat="44.8404" lon="6.77584">
        <ele>2927.8</ele>
        <time>2026-03-03T10:30:46.000Z</time>
      </trkpt>
      <trkpt lat="44.8404" lon="6.77585">
        <ele>2927.8</ele>
        <time>2026-03-03T10:30:47.000Z</time>
      </trkpt>
      <trkpt lat="44.8404" lon="6.77585">
        <ele>2927.9</ele>
        <time>2026-03-03T10:30:48.000Z</time>
      </trkpt>
      <trkpt lat="44.8404" lon="6.77586">
        <ele>2928</ele>
        <time>2026-03-03T10:30:49.000Z</time>
      </trkpt>
      <trkpt lat="44.8404" lon="6.77587">
        <ele>2928</ele>
        <time>2026-03-03T10:30:50.000Z</time>
      </trkpt>
      <trkpt lat="44.8404" lon="6.77588">
        <ele>2927.9</ele>
        <time>2026-03-03T10:30:51.000Z</time>
      </trkpt>
      <trkpt lat="44.84039" lon="6.77587">
        <ele>2928</ele>
        <time>2026-03-03T10:30:52.000Z</time>
      </trkpt>
      <trkpt lat="44.84039" lon="6.77588">
        <ele>2928.3</ele>
        <time>2026-03-03T10:30:53.000Z</time>
      </trkpt>
      <trkpt lat="44.84039" lon="6.77588">
        <ele>2928.5</ele>
        <time>2026-03-03T10:30:54.000Z</time>
      </trkpt>
      <trkpt lat="44.84039" lon="6.77589">
        <ele>2928.7</ele>
        <time>2026-03-03T10:30:55.000Z</time>
      </trkpt>
      <trkpt lat="44.84039" lon="6.77589">
        <ele>2928.8</ele>
        <time>2026-03-03T10:30:56.000Z</time>
      </trkpt>
      <trkpt lat="44.84039" lon="6.7759">
        <ele>2928.9</ele>
        <time>2026-03-03T10:30:57.000Z</time>
      </trkpt>
      <trkpt lat="44.84039" lon="6.7759">
        <ele>2929</ele>
        <time>2026-03-03T10:30:58.000Z</time>
      </trkpt>
      <trkpt lat="44.84039" lon="6.77591">
        <ele>2929</ele>
        <time>2026-03-03T10:30:59.000Z</time>
      </trkpt>
      <trkpt lat="44.84038" lon="6.77596">
        <ele>2930.1</ele>
        <time>2026-03-03T10:31:15.000Z</time>
      </trkpt>
      <trkpt lat="44.84038" lon="6.77597">
        <ele>2930.1</ele>
        <time>2026-03-03T10:31:16.000Z</time>
      </trkpt>
      <trkpt lat="44.84037" lon="6.77599">
        <ele>2930.1</ele>
        <time>2026-03-03T10:31:17.000Z</time>
      </trkpt>
      <trkpt lat="44.84036" lon="6.776">
        <ele>2930.1</ele>
        <time>2026-03-03T10:31:18.000Z</time>
      </trkpt>
      <trkpt lat="44.84037" lon="6.77602">
        <ele>2930.2</ele>
        <time>2026-03-03T10:31:19.000Z</time>
      </trkpt>
      <trkpt lat="44.84037" lon="6.77602">
        <ele>2930.4</ele>
        <time>2026-03-03T10:31:20.000Z</time>
      </trkpt>
      <trkpt lat="44.84037" lon="6.77602">
        <ele>2930.6</ele>
        <time>2026-03-03T10:31:21.000Z</time>
      </trkpt>
      <trkpt lat="44.84036" lon="6.77603">
        <ele>2930.8</ele>
        <time>2026-03-03T10:31:22.000Z</time>
      </trkpt>
      <trkpt lat="44.84036" lon="6.77604">
        <ele>2930.9</ele>
        <time>2026-03-03T10:31:23.000Z</time>
      </trkpt>
      <trkpt lat="44.84036" lon="6.77606">
        <ele>2931.1</ele>
        <time>2026-03-03T10:31:24.000Z</time>
      </trkpt>
      <trkpt lat="44.84037" lon="6.77607">
        <ele>2931.3</ele>
        <time>2026-03-03T10:31:25.000Z</time>
      </trkpt>
      <trkpt lat="44.84037" lon="6.77608">
        <ele>2931.6</ele>
        <time>2026-03-03T10:31:26.000Z</time>
      </trkpt>
      <trkpt lat="44.84037" lon="6.77609">
        <ele>2931.8</ele>
        <time>2026-03-03T10:31:27.000Z</time>
      </trkpt>
      <trkpt lat="44.84037" lon="6.77609">
        <ele>2932</ele>
        <time>2026-03-03T10:31:28.000Z</time>
      </trkpt>
      <trkpt lat="44.84037" lon="6.7761">
        <ele>2932.1</ele>
        <time>2026-03-03T10:31:29.000Z</time>
      </trkpt>
      <trkpt lat="44.84037" lon="6.77611">
        <ele>2932.2</ele>
        <time>2026-03-03T10:31:30.000Z</time>
      </trkpt>
      <trkpt lat="44.84037" lon="6.77611">
        <ele>2932.3</ele>
        <time>2026-03-03T10:31:31.000Z</time>
      </trkpt>
      <trkpt lat="44.84038" lon="6.77613">
        <ele>2932.4</ele>
        <time>2026-03-03T10:31:32.000Z</time>
      </trkpt>
      <trkpt lat="44.84038" lon="6.77614">
        <ele>2932.5</ele>
        <time>2026-03-03T10:31:33.000Z</time>
      </trkpt>
      <trkpt lat="44.84038" lon="6.77615">
        <ele>2932.8</ele>
        <time>2026-03-03T10:31:34.000Z</time>
      </trkpt>
      <trkpt lat="44.84038" lon="6.77616">
        <ele>2933</ele>
        <time>2026-03-03T10:31:35.000Z</time>
      </trkpt>
      <trkpt lat="44.84038" lon="6.77616">
        <ele>2933.1</ele>
        <time>2026-03-03T10:31:36.000Z</time>
      </trkpt>
      <trkpt lat="44.84036" lon="6.77621">
        <ele>2935.5</ele>
        <time>2026-03-03T10:32:06.000Z</time>
      </trkpt>
      <trkpt lat="44.84036" lon="6.77622">
        <ele>2935.5</ele>
        <time>2026-03-03T10:32:07.000Z</time>
      </trkpt>
      <trkpt lat="44.84036" lon="6.77622">
        <ele>2935.5</ele>
        <time>2026-03-03T10:32:08.000Z</time>
      </trkpt>
      <trkpt lat="44.84036" lon="6.77627">
        <ele>2936.7</ele>
        <time>2026-03-03T10:32:31.000Z</time>
      </trkpt>
      <trkpt lat="44.84036" lon="6.77628">
        <ele>2936.7</ele>
        <time>2026-03-03T10:32:32.000Z</time>
      </trkpt>
      <trkpt lat="44.84035" lon="6.77628">
        <ele>2936.9</ele>
        <time>2026-03-03T10:32:33.000Z</time>
      </trkpt>
      <trkpt lat="44.84033" lon="6.77642">
        <ele>2939.8</ele>
        <time>2026-03-03T10:33:30.000Z</time>
      </trkpt>
      <trkpt lat="44.84033" lon="6.77643">
        <ele>2940.1</ele>
        <time>2026-03-03T10:33:31.000Z</time>
      </trkpt>
      <trkpt lat="44.84033" lon="6.77643">
        <ele>2940.4</ele>
        <time>2026-03-03T10:33:32.000Z</time>
      </trkpt>
      <trkpt lat="44.84033" lon="6.77644">
        <ele>2940.6</ele>
        <time>2026-03-03T10:33:33.000Z</time>
      </trkpt>
      <trkpt lat="44.84033" lon="6.77644">
        <ele>2940.7</ele>
        <time>2026-03-03T10:33:34.000Z</time>
      </trkpt>
      <trkpt lat="44.84033" lon="6.77644">
        <ele>2940.7</ele>
        <time>2026-03-03T10:33:35.000Z</time>
      </trkpt>
      <trkpt lat="44.84033" lon="6.77644">
        <ele>2940.7</ele>
        <time>2026-03-03T10:33:36.000Z</time>
      </trkpt>
      <trkpt lat="44.84033" lon="6.77645">
        <ele>2940.9</ele>
        <time>2026-03-03T10:33:37.000Z</time>
      </trkpt>
      <trkpt lat="44.84033" lon="6.77645">
        <ele>2941.1</ele>
        <time>2026-03-03T10:33:38.000Z</time>
      </trkpt>
      <trkpt lat="44.84033" lon="6.77646">
        <ele>2941.3</ele>
        <time>2026-03-03T10:33:39.000Z</time>
      </trkpt>
      <trkpt lat="44.84033" lon="6.77646">
        <ele>2941.4</ele>
        <time>2026-03-03T10:33:40.000Z</time>
      </trkpt>
      <trkpt lat="44.84032" lon="6.77646">
        <ele>2941.5</ele>
        <time>2026-03-03T10:33:41.000Z</time>
      </trkpt>
      <trkpt lat="44.84032" lon="6.77647">
        <ele>2941.6</ele>
        <time>2026-03-03T10:33:42.000Z</time>
      </trkpt>
      <trkpt lat="44.84032" lon="6.77648">
        <ele>2941.6</ele>
        <time>2026-03-03T10:33:43.000Z</time>
      </trkpt>
      <trkpt lat="44.84032" lon="6.77648">
        <ele>2941.6</ele>
        <time>2026-03-03T10:33:44.000Z</time>
      </trkpt>
      <trkpt lat="44.84032" lon="6.77648">
        <ele>2941.8</ele>
        <time>2026-03-03T10:33:45.000Z</time>
      </trkpt>
      <trkpt lat="44.84032" lon="6.77649">
        <ele>2941.9</ele>
        <time>2026-03-03T10:33:46.000Z</time>
      </trkpt>
      <trkpt lat="44.84032" lon="6.77649">
        <ele>2942</ele>
        <time>2026-03-03T10:33:47.000Z</time>
      </trkpt>
      <trkpt lat="44.84032" lon="6.77649">
        <ele>2942.1</ele>
        <time>2026-03-03T10:33:48.000Z</time>
      </trkpt>
      <trkpt lat="44.84032" lon="6.7765">
        <ele>2942.1</ele>
        <time>2026-03-03T10:33:49.000Z</time>
      </trkpt>
      <trkpt lat="44.84032" lon="6.7765">
        <ele>2942.2</ele>
        <time>2026-03-03T10:33:50.000Z</time>
      </trkpt>
      <trkpt lat="44.84032" lon="6.77651">
        <ele>2942.3</ele>
        <time>2026-03-03T10:33:51.000Z</time>
      </trkpt>
      <trkpt lat="44.84032" lon="6.77651">
        <ele>2942.4</ele>
        <time>2026-03-03T10:33:52.000Z</time>
      </trkpt>
      <trkpt lat="44.84031" lon="6.77652">
        <ele>2942.6</ele>
        <time>2026-03-03T10:33:53.000Z</time>
      </trkpt>
      <trkpt lat="44.84031" lon="6.77652">
        <ele>2942.8</ele>
        <time>2026-03-03T10:33:54.000Z</time>
      </trkpt>
      <trkpt lat="44.84031" lon="6.77653">
        <ele>2942.9</ele>
        <time>2026-03-03T10:33:55.000Z</time>
      </trkpt>
      <trkpt lat="44.84031" lon="6.77653">
        <ele>2943.1</ele>
        <time>2026-03-03T10:33:56.000Z</time>
      </trkpt>
      <trkpt lat="44.84031" lon="6.77653">
        <ele>2943.2</ele>
        <time>2026-03-03T10:33:57.000Z</time>
      </trkpt>
      <trkpt lat="44.84031" lon="6.77654">
        <ele>2943.4</ele>
        <time>2026-03-03T10:33:58.000Z</time>
      </trkpt>
      <trkpt lat="44.8403" lon="6.77654">
        <ele>2943.6</ele>
        <time>2026-03-03T10:33:59.000Z</time>
      </trkpt>
      <trkpt lat="44.8403" lon="6.77655">
        <ele>2943.8</ele>
        <time>2026-03-03T10:34:00.000Z</time>
      </trkpt>
      <trkpt lat="44.8403" lon="6.77655">
        <ele>2944</ele>
        <time>2026-03-03T10:34:01.000Z</time>
      </trkpt>
      <trkpt lat="44.8403" lon="6.77655">
        <ele>2944.2</ele>
        <time>2026-03-03T10:34:02.000Z</time>
      </trkpt>
      <trkpt lat="44.8403" lon="6.77656">
        <ele>2944.3</ele>
        <time>2026-03-03T10:34:03.000Z</time>
      </trkpt>
      <trkpt lat="44.8403" lon="6.77656">
        <ele>2944.4</ele>
        <time>2026-03-03T10:34:04.000Z</time>
      </trkpt>
      <trkpt lat="44.8403" lon="6.77657">
        <ele>2944.5</ele>
        <time>2026-03-03T10:34:05.000Z</time>
      </trkpt>
      <trkpt lat="44.8403" lon="6.77658">
        <ele>2944.5</ele>
        <time>2026-03-03T10:34:06.000Z</time>
      </trkpt>
      <trkpt lat="44.8403" lon="6.77658">
        <ele>2944.7</ele>
        <time>2026-03-03T10:34:07.000Z</time>
      </trkpt>
      <trkpt lat="44.84028" lon="6.77665">
        <ele>2946.9</ele>
        <time>2026-03-03T10:34:25.000Z</time>
      </trkpt>
      <trkpt lat="44.84028" lon="6.77666">
        <ele>2946.9</ele>
        <time>2026-03-03T10:34:26.000Z</time>
      </trkpt>
      <trkpt lat="44.84028" lon="6.77666">
        <ele>2947</ele>
        <time>2026-03-03T10:34:27.000Z</time>
      </trkpt>
      <trkpt lat="44.84028" lon="6.77667">
        <ele>2947.2</ele>
        <time>2026-03-03T10:34:28.000Z</time>
      </trkpt>
      <trkpt lat="44.84028" lon="6.77667">
        <ele>2947.3</ele>
        <time>2026-03-03T10:34:29.000Z</time>
      </trkpt>
      <trkpt lat="44.84027" lon="6.77668">
        <ele>2947.5</ele>
        <time>2026-03-03T10:34:30.000Z</time>
      </trkpt>
      <trkpt lat="44.84027" lon="6.77668">
        <ele>2947.6</ele>
        <time>2026-03-03T10:34:31.000Z</time>
      </trkpt>
      <trkpt lat="44.84027" lon="6.77669">
        <ele>2947.7</ele>
        <time>2026-03-03T10:34:32.000Z</time>
      </trkpt>
      <trkpt lat="44.84027" lon="6.77669">
        <ele>2947.9</ele>
        <time>2026-03-03T10:34:33.000Z</time>
      </trkpt>
      <trkpt lat="44.84027" lon="6.7767">
        <ele>2947.9</ele>
        <time>2026-03-03T10:34:34.000Z</time>
      </trkpt>
      <trkpt lat="44.84026" lon="6.77675">
        <ele>2950.4</ele>
        <time>2026-03-03T10:34:48.000Z</time>
      </trkpt>
      <trkpt lat="44.84025" lon="6.77676">
        <ele>2950.6</ele>
        <time>2026-03-03T10:34:49.000Z</time>
      </trkpt>
      <trkpt lat="44.84025" lon="6.77677">
        <ele>2950.7</ele>
        <time>2026-03-03T10:34:50.000Z</time>
      </trkpt>
      <trkpt lat="44.84025" lon="6.77677">
        <ele>2950.9</ele>
        <time>2026-03-03T10:34:51.000Z</time>
      </trkpt>
      <trkpt lat="44.84025" lon="6.77678">
        <ele>2950.9</ele>
        <time>2026-03-03T10:34:52.000Z</time>
      </trkpt>
      <trkpt lat="44.84025" lon="6.77679">
        <ele>2950.9</ele>
        <time>2026-03-03T10:34:53.000Z</time>
      </trkpt>
      <trkpt lat="44.84025" lon="6.77679">
        <ele>2951</ele>
        <time>2026-03-03T10:34:54.000Z</time>
      </trkpt>
      <trkpt lat="44.84024" lon="6.7768">
        <ele>2951</ele>
        <time>2026-03-03T10:34:55.000Z</time>
      </trkpt>
      <trkpt lat="44.84024" lon="6.7768">
        <ele>2951.1</ele>
        <time>2026-03-03T10:34:56.000Z</time>
      </trkpt>
      <trkpt lat="44.84024" lon="6.77681">
        <ele>2951.3</ele>
        <time>2026-03-03T10:34:57.000Z</time>
      </trkpt>
      <trkpt lat="44.84021" lon="6.7768">
        <ele>2953.4</ele>
        <time>2026-03-03T10:35:27.999Z</time>
      </trkpt>
      <trkpt lat="44.8402" lon="6.77679">
        <ele>2953.5</ele>
        <time>2026-03-03T10:35:28.999Z</time>
      </trkpt>
      <trkpt lat="44.8402" lon="6.77679">
        <ele>2953.4</ele>
        <time>2026-03-03T10:35:29.999Z</time>
      </trkpt>
      <trkpt lat="44.8402" lon="6.77678">
        <ele>2953.5</ele>
        <time>2026-03-03T10:35:30.999Z</time>
      </trkpt>
      <trkpt lat="44.84019" lon="6.77678">
        <ele>2953.6</ele>
        <time>2026-03-03T10:35:31.999Z</time>
      </trkpt>
      <trkpt lat="44.84018" lon="6.77677">
        <ele>2953.7</ele>
        <time>2026-03-03T10:35:32.999Z</time>
      </trkpt>
      <trkpt lat="44.84018" lon="6.77676">
        <ele>2953.9</ele>
        <time>2026-03-03T10:35:33.999Z</time>
      </trkpt>
      <trkpt lat="44.84017" lon="6.77676">
        <ele>2953.9</ele>
        <time>2026-03-03T10:35:34.999Z</time>
      </trkpt>
      <trkpt lat="44.84013" lon="6.7767">
        <ele>2954.5</ele>
        <time>2026-03-03T10:36:03.999Z</time>
      </trkpt>
      <trkpt lat="44.84012" lon="6.7767">
        <ele>2954.5</ele>
        <time>2026-03-03T10:36:04.999Z</time>
      </trkpt>
      <trkpt lat="44.84011" lon="6.7767">
        <ele>2954.8</ele>
        <time>2026-03-03T10:36:05.999Z</time>
      </trkpt>
      <trkpt lat="44.84009" lon="6.77677">
        <ele>2958.6</ele>
        <time>2026-03-03T10:36:25.999Z</time>
      </trkpt>
      <trkpt lat="44.84009" lon="6.77678">
        <ele>2958.7</ele>
        <time>2026-03-03T10:36:26.999Z</time>
      </trkpt>
      <trkpt lat="44.8401" lon="6.7768">
        <ele>2958.7</ele>
        <time>2026-03-03T10:36:27.999Z</time>
      </trkpt>
      <trkpt lat="44.8401" lon="6.7768">
        <ele>2958.9</ele>
        <time>2026-03-03T10:36:28.999Z</time>
      </trkpt>
      <trkpt lat="44.8401" lon="6.77681">
        <ele>2959.1</ele>
        <time>2026-03-03T10:36:29.999Z</time>
      </trkpt>
      <trkpt lat="44.8401" lon="6.77682">
        <ele>2959.3</ele>
        <time>2026-03-03T10:36:30.999Z</time>
      </trkpt>
      <trkpt lat="44.8401" lon="6.77683">
        <ele>2959.4</ele>
        <time>2026-03-03T10:36:31.999Z</time>
      </trkpt>
      <trkpt lat="44.8401" lon="6.77683">
        <ele>2959.5</ele>
        <time>2026-03-03T10:36:32.999Z</time>
      </trkpt>
      <trkpt lat="44.8401" lon="6.77684">
        <ele>2959.6</ele>
        <time>2026-03-03T10:36:33.999Z</time>
      </trkpt>
      <trkpt lat="44.8401" lon="6.77685">
        <ele>2959.8</ele>
        <time>2026-03-03T10:36:34.999Z</time>
      </trkpt>
      <trkpt lat="44.84009" lon="6.77686">
        <ele>2960</ele>
        <time>2026-03-03T10:36:35.999Z</time>
      </trkpt>
      <trkpt lat="44.8401" lon="6.77687">
        <ele>2960</ele>
        <time>2026-03-03T10:36:36.999Z</time>
      </trkpt>
      <trkpt lat="44.8401" lon="6.77687">
        <ele>2960</ele>
        <time>2026-03-03T10:36:37.999Z</time>
      </trkpt>
      <trkpt lat="44.8401" lon="6.77688">
        <ele>2960</ele>
        <time>2026-03-03T10:36:38.999Z</time>
      </trkpt>
      <trkpt lat="44.8401" lon="6.77689">
        <ele>2960.2</ele>
        <time>2026-03-03T10:36:39.999Z</time>
      </trkpt>
      <trkpt lat="44.84009" lon="6.77689">
        <ele>2960.6</ele>
        <time>2026-03-03T10:36:40.999Z</time>
      </trkpt>
      <trkpt lat="44.84009" lon="6.7769">
        <ele>2960.8</ele>
        <time>2026-03-03T10:36:41.999Z</time>
      </trkpt>
      <trkpt lat="44.8401" lon="6.7769">
        <ele>2961</ele>
        <time>2026-03-03T10:36:42.999Z</time>
      </trkpt>
      <trkpt lat="44.8401" lon="6.77691">
        <ele>2961.1</ele>
        <time>2026-03-03T10:36:43.999Z</time>
      </trkpt>
      <trkpt lat="44.8401" lon="6.77692">
        <ele>2961.3</ele>
        <time>2026-03-03T10:36:44.999Z</time>
      </trkpt>
      <trkpt lat="44.8401" lon="6.77693">
        <ele>2961.5</ele>
        <time>2026-03-03T10:36:45.999Z</time>
      </trkpt>
      <trkpt lat="44.8401" lon="6.77693">
        <ele>2961.4</ele>
        <time>2026-03-03T10:36:46.999Z</time>
      </trkpt>
      <trkpt lat="44.8401" lon="6.77693">
        <ele>2961.7</ele>
        <time>2026-03-03T10:36:47.999Z</time>
      </trkpt>
      <trkpt lat="44.8401" lon="6.77694">
        <ele>2961.9</ele>
        <time>2026-03-03T10:36:48.999Z</time>
      </trkpt>
      <trkpt lat="44.8401" lon="6.77695">
        <ele>2962</ele>
        <time>2026-03-03T10:36:49.999Z</time>
      </trkpt>
      <trkpt lat="44.84009" lon="6.77696">
        <ele>2962.3</ele>
        <time>2026-03-03T10:36:50.999Z</time>
      </trkpt>
      <trkpt lat="44.84009" lon="6.77697">
        <ele>2962.5</ele>
        <time>2026-03-03T10:36:51.999Z</time>
      </trkpt>
      <trkpt lat="44.84009" lon="6.77697">
        <ele>2962.7</ele>
        <time>2026-03-03T10:36:52.999Z</time>
      </trkpt>
      <trkpt lat="44.84009" lon="6.77697">
        <ele>2963.1</ele>
        <time>2026-03-03T10:36:53.999Z</time>
      </trkpt>
      <trkpt lat="44.84009" lon="6.77698">
        <ele>2963.1</ele>
        <time>2026-03-03T10:36:54.999Z</time>
      </trkpt>
      <trkpt lat="44.84009" lon="6.77698">
        <ele>2963.3</ele>
        <time>2026-03-03T10:36:55.999Z</time>
      </trkpt>
      <trkpt lat="44.84009" lon="6.77699">
        <ele>2963.4</ele>
        <time>2026-03-03T10:36:56.999Z</time>
      </trkpt>
      <trkpt lat="44.84009" lon="6.77699">
        <ele>2963.6</ele>
        <time>2026-03-03T10:36:57.999Z</time>
      </trkpt>
      <trkpt lat="44.84009" lon="6.77699">
        <ele>2963.8</ele>
        <time>2026-03-03T10:36:58.999Z</time>
      </trkpt>
      <trkpt lat="44.84009" lon="6.777">
        <ele>2963.9</ele>
        <time>2026-03-03T10:36:59.999Z</time>
      </trkpt>
      <trkpt lat="44.84009" lon="6.777">
        <ele>2964</ele>
        <time>2026-03-03T10:37:00.999Z</time>
      </trkpt>
      <trkpt lat="44.84009" lon="6.77701">
        <ele>2964.1</ele>
        <time>2026-03-03T10:37:01.999Z</time>
      </trkpt>
      <trkpt lat="44.84009" lon="6.77703">
        <ele>2964.2</ele>
        <time>2026-03-03T10:37:02.999Z</time>
      </trkpt>
      <trkpt lat="44.84009" lon="6.77704">
        <ele>2964.2</ele>
        <time>2026-03-03T10:37:03.999Z</time>
      </trkpt>
      <trkpt lat="44.84009" lon="6.77705">
        <ele>2964.3</ele>
        <time>2026-03-03T10:37:04.999Z</time>
      </trkpt>
      <trkpt lat="44.84009" lon="6.77705">
        <ele>2964.5</ele>
        <time>2026-03-03T10:37:05.999Z</time>
      </trkpt>
      <trkpt lat="44.84009" lon="6.77706">
        <ele>2964.5</ele>
        <time>2026-03-03T10:37:06.999Z</time>
      </trkpt>
      <trkpt lat="44.84009" lon="6.77707">
        <ele>2964.6</ele>
        <time>2026-03-03T10:37:07.999Z</time>
      </trkpt>
      <trkpt lat="44.84009" lon="6.77708">
        <ele>2964.7</ele>
        <time>2026-03-03T10:37:08.999Z</time>
      </trkpt>
      <trkpt lat="44.84009" lon="6.77709">
        <ele>2964.8</ele>
        <time>2026-03-03T10:37:09.999Z</time>
      </trkpt>
      <trkpt lat="44.84009" lon="6.7771">
        <ele>2964.7</ele>
        <time>2026-03-03T10:37:10.999Z</time>
      </trkpt>
      <trkpt lat="44.84009" lon="6.7771">
        <ele>2964.8</ele>
        <time>2026-03-03T10:37:11.999Z</time>
      </trkpt>
      <trkpt lat="44.84009" lon="6.77715">
        <ele>2965.9</ele>
        <time>2026-03-03T10:37:38.999Z</time>
      </trkpt>
      <trkpt lat="44.84009" lon="6.77716">
        <ele>2966.1</ele>
        <time>2026-03-03T10:37:39.999Z</time>
      </trkpt>
      <trkpt lat="44.84009" lon="6.77716">
        <ele>2966.1</ele>
        <time>2026-03-03T10:37:40.999Z</time>
      </trkpt>
      <trkpt lat="44.84008" lon="6.77717">
        <ele>2966.1</ele>
        <time>2026-03-03T10:37:41.999Z</time>
      </trkpt>
      <trkpt lat="44.84008" lon="6.77717">
        <ele>2966.1</ele>
        <time>2026-03-03T10:37:42.999Z</time>
      </trkpt>
      <trkpt lat="44.84008" lon="6.77718">
        <ele>2966.3</ele>
        <time>2026-03-03T10:37:43.999Z</time>
      </trkpt>
      <trkpt lat="44.84008" lon="6.77718">
        <ele>2966.4</ele>
        <time>2026-03-03T10:37:44.999Z</time>
      </trkpt>
      <trkpt lat="44.84008" lon="6.77719">
        <ele>2966.6</ele>
        <time>2026-03-03T10:37:45.999Z</time>
      </trkpt>
      <trkpt lat="44.84008" lon="6.77719">
        <ele>2966.6</ele>
        <time>2026-03-03T10:37:46.999Z</time>
      </trkpt>
      <trkpt lat="44.84008" lon="6.77721">
        <ele>2966.8</ele>
        <time>2026-03-03T10:37:47.999Z</time>
      </trkpt>
      <trkpt lat="44.84008" lon="6.77723">
        <ele>2966.8</ele>
        <time>2026-03-03T10:37:48.999Z</time>
      </trkpt>
      <trkpt lat="44.84008" lon="6.77725">
        <ele>2966.9</ele>
        <time>2026-03-03T10:37:49.999Z</time>
      </trkpt>
      <trkpt lat="44.84008" lon="6.77726">
        <ele>2967</ele>
        <time>2026-03-03T10:37:50.999Z</time>
      </trkpt>
      <trkpt lat="44.84008" lon="6.77727">
        <ele>2967.2</ele>
        <time>2026-03-03T10:37:51.999Z</time>
      </trkpt>
      <trkpt lat="44.84008" lon="6.77728">
        <ele>2967.5</ele>
        <time>2026-03-03T10:37:52.999Z</time>
      </trkpt>
      <trkpt lat="44.84008" lon="6.77729">
        <ele>2967.5</ele>
        <time>2026-03-03T10:37:53.999Z</time>
      </trkpt>
      <trkpt lat="44.84008" lon="6.7773">
        <ele>2967.7</ele>
        <time>2026-03-03T10:37:54.999Z</time>
      </trkpt>
      <trkpt lat="44.84008" lon="6.77731">
        <ele>2967.8</ele>
        <time>2026-03-03T10:37:55.999Z</time>
      </trkpt>
      <trkpt lat="44.84008" lon="6.77733">
        <ele>2967.8</ele>
        <time>2026-03-03T10:37:56.999Z</time>
      </trkpt>
      <trkpt lat="44.84007" lon="6.77733">
        <ele>2967.9</ele>
        <time>2026-03-03T10:37:57.999Z</time>
      </trkpt>
      <trkpt lat="44.84008" lon="6.77734">
        <ele>2968.3</ele>
        <time>2026-03-03T10:37:58.999Z</time>
      </trkpt>
      <trkpt lat="44.84007" lon="6.77734">
        <ele>2968.4</ele>
        <time>2026-03-03T10:37:59.999Z</time>
      </trkpt>
      <trkpt lat="44.84007" lon="6.77735">
        <ele>2968.6</ele>
        <time>2026-03-03T10:38:00.999Z</time>
      </trkpt>
      <trkpt lat="44.84007" lon="6.77736">
        <ele>2968.7</ele>
        <time>2026-03-03T10:38:01.999Z</time>
      </trkpt>
      <trkpt lat="44.84007" lon="6.77736">
        <ele>2968.9</ele>
        <time>2026-03-03T10:38:02.999Z</time>
      </trkpt>
      <trkpt lat="44.84007" lon="6.77737">
        <ele>2969.1</ele>
        <time>2026-03-03T10:38:03.999Z</time>
      </trkpt>
      <trkpt lat="44.84007" lon="6.77738">
        <ele>2969.2</ele>
        <time>2026-03-03T10:38:04.999Z</time>
      </trkpt>
      <trkpt lat="44.84007" lon="6.77739">
        <ele>2969.3</ele>
        <time>2026-03-03T10:38:05.999Z</time>
      </trkpt>
      <trkpt lat="44.84007" lon="6.77739">
        <ele>2969.3</ele>
        <time>2026-03-03T10:38:06.999Z</time>
      </trkpt>
      <trkpt lat="44.84007" lon="6.7774">
        <ele>2969.4</ele>
        <time>2026-03-03T10:38:07.999Z</time>
      </trkpt>
      <trkpt lat="44.84006" lon="6.7774">
        <ele>2969.4</ele>
        <time>2026-03-03T10:38:08.999Z</time>
      </trkpt>
      <trkpt lat="44.84006" lon="6.7774">
        <ele>2969.4</ele>
        <time>2026-03-03T10:38:09.999Z</time>
      </trkpt>
      <trkpt lat="44.84006" lon="6.77741">
        <ele>2969.4</ele>
        <time>2026-03-03T10:38:10.999Z</time>
      </trkpt>
      <trkpt lat="44.84006" lon="6.77741">
        <ele>2969.4</ele>
        <time>2026-03-03T10:38:11.999Z</time>
      </trkpt>
      <trkpt lat="44.84006" lon="6.77741">
        <ele>2969.4</ele>
        <time>2026-03-03T10:38:12.999Z</time>
      </trkpt>
      <trkpt lat="44.84006" lon="6.77742">
        <ele>2969.4</ele>
        <time>2026-03-03T10:38:13.999Z</time>
      </trkpt>
      <trkpt lat="44.84006" lon="6.77743">
        <ele>2969.5</ele>
        <time>2026-03-03T10:38:14.999Z</time>
      </trkpt>
      <trkpt lat="44.84007" lon="6.77744">
        <ele>2969.5</ele>
        <time>2026-03-03T10:38:15.999Z</time>
      </trkpt>
      <trkpt lat="44.84006" lon="6.77745">
        <ele>2969.4</ele>
        <time>2026-03-03T10:38:16.999Z</time>
      </trkpt>
      <trkpt lat="44.84006" lon="6.77745">
        <ele>2969.5</ele>
        <time>2026-03-03T10:38:17.999Z</time>
      </trkpt>
      <trkpt lat="44.84006" lon="6.77746">
        <ele>2969.7</ele>
        <time>2026-03-03T10:38:18.999Z</time>
      </trkpt>
      <trkpt lat="44.84006" lon="6.77747">
        <ele>2969.7</ele>
        <time>2026-03-03T10:38:19.999Z</time>
      </trkpt>
      <trkpt lat="44.84006" lon="6.77747">
        <ele>2970</ele>
        <time>2026-03-03T10:38:20.999Z</time>
      </trkpt>
      <trkpt lat="44.84006" lon="6.77747">
        <ele>2970.3</ele>
        <time>2026-03-03T10:38:21.999Z</time>
      </trkpt>
      <trkpt lat="44.84006" lon="6.77748">
        <ele>2970.4</ele>
        <time>2026-03-03T10:38:22.999Z</time>
      </trkpt>
      <trkpt lat="44.84006" lon="6.77749">
        <ele>2970.5</ele>
        <time>2026-03-03T10:38:23.999Z</time>
      </trkpt>
      <trkpt lat="44.84005" lon="6.7775">
        <ele>2970.5</ele>
        <time>2026-03-03T10:38:24.999Z</time>
      </trkpt>
      <trkpt lat="44.84005" lon="6.77751">
        <ele>2970.5</ele>
        <time>2026-03-03T10:38:25.999Z</time>
      </trkpt>
      <trkpt lat="44.84005" lon="6.77752">
        <ele>2970.5</ele>
        <time>2026-03-03T10:38:26.999Z</time>
      </trkpt>
      <trkpt lat="44.84004" lon="6.77752">
        <ele>2970.7</ele>
        <time>2026-03-03T10:38:27.999Z</time>
      </trkpt>
      <trkpt lat="44.84004" lon="6.77753">
        <ele>2970.8</ele>
        <time>2026-03-03T10:38:28.999Z</time>
      </trkpt>
      <trkpt lat="44.84004" lon="6.77753">
        <ele>2971</ele>
        <time>2026-03-03T10:38:29.999Z</time>
      </trkpt>
      <trkpt lat="44.84003" lon="6.77751">
        <ele>2971.7</ele>
        <time>2026-03-03T10:38:45.999Z</time>
      </trkpt>
      <trkpt lat="44.84003" lon="6.77751">
        <ele>2971.9</ele>
        <time>2026-03-03T10:38:46.999Z</time>
      </trkpt>
      <trkpt lat="44.84003" lon="6.7775">
        <ele>2972.2</ele>
        <time>2026-03-03T10:38:47.999Z</time>
      </trkpt>
      <trkpt lat="44.84003" lon="6.7775">
        <ele>2972.3</ele>
        <time>2026-03-03T10:38:48.999Z</time>
      </trkpt>
      <trkpt lat="44.84003" lon="6.7775">
        <ele>2972.3</ele>
        <time>2026-03-03T10:38:49.999Z</time>
      </trkpt>
      <trkpt lat="44.84002" lon="6.7775">
        <ele>2972.4</ele>
        <time>2026-03-03T10:38:50.999Z</time>
      </trkpt>
      <trkpt lat="44.84002" lon="6.77749">
        <ele>2972.6</ele>
        <time>2026-03-03T10:38:51.999Z</time>
      </trkpt>
      <trkpt lat="44.84002" lon="6.77748">
        <ele>2972.6</ele>
        <time>2026-03-03T10:38:52.999Z</time>
      </trkpt>
      <trkpt lat="44.84002" lon="6.77747">
        <ele>2972.5</ele>
        <time>2026-03-03T10:38:53.999Z</time>
      </trkpt>
      <trkpt lat="44.84001" lon="6.77746">
        <ele>2972.7</ele>
        <time>2026-03-03T10:38:54.999Z</time>
      </trkpt>
      <trkpt lat="44.84001" lon="6.77745">
        <ele>2972.9</ele>
        <time>2026-03-03T10:38:55.999Z</time>
      </trkpt>
      <trkpt lat="44.84" lon="6.77744">
        <ele>2973.1</ele>
        <time>2026-03-03T10:38:56.999Z</time>
      </trkpt>
      <trkpt lat="44.84" lon="6.77743">
        <ele>2973.2</ele>
        <time>2026-03-03T10:38:57.999Z</time>
      </trkpt>
      <trkpt lat="44.83999" lon="6.77741">
        <ele>2973.1</ele>
        <time>2026-03-03T10:38:58.999Z</time>
      </trkpt>
      <trkpt lat="44.83999" lon="6.77741">
        <ele>2973.1</ele>
        <time>2026-03-03T10:38:59.999Z</time>
      </trkpt>
      <trkpt lat="44.83999" lon="6.77741">
        <ele>2973.2</ele>
        <time>2026-03-03T10:39:00.999Z</time>
      </trkpt>
      <trkpt lat="44.83999" lon="6.7774">
        <ele>2973.3</ele>
        <time>2026-03-03T10:39:01.999Z</time>
      </trkpt>
      <trkpt lat="44.83999" lon="6.7774">
        <ele>2973.4</ele>
        <time>2026-03-03T10:39:02.999Z</time>
      </trkpt>
      <trkpt lat="44.83998" lon="6.77739">
        <ele>2973.8</ele>
        <time>2026-03-03T10:39:03.999Z</time>
      </trkpt>
      <trkpt lat="44.83997" lon="6.77739">
        <ele>2973.9</ele>
        <time>2026-03-03T10:39:04.999Z</time>
      </trkpt>
      <trkpt lat="44.83997" lon="6.77738">
        <ele>2973.9</ele>
        <time>2026-03-03T10:39:05.999Z</time>
      </trkpt>
      <trkpt lat="44.83997" lon="6.77737">
        <ele>2973.9</ele>
        <time>2026-03-03T10:39:06.999Z</time>
      </trkpt>
      <trkpt lat="44.83997" lon="6.77736">
        <ele>2973.9</ele>
        <time>2026-03-03T10:39:07.999Z</time>
      </trkpt>
      <trkpt lat="44.83997" lon="6.77736">
        <ele>2974.1</ele>
        <time>2026-03-03T10:39:08.999Z</time>
      </trkpt>
      <trkpt lat="44.83997" lon="6.77735">
        <ele>2974.3</ele>
        <time>2026-03-03T10:39:09.999Z</time>
      </trkpt>
      <trkpt lat="44.83997" lon="6.77735">
        <ele>2974.4</ele>
        <time>2026-03-03T10:39:10.999Z</time>
      </trkpt>
      <trkpt lat="44.83997" lon="6.77735">
        <ele>2974.3</ele>
        <time>2026-03-03T10:39:11.999Z</time>
      </trkpt>
      <trkpt lat="44.83997" lon="6.77735">
        <ele>2974.5</ele>
        <time>2026-03-03T10:39:12.999Z</time>
      </trkpt>
      <trkpt lat="44.83997" lon="6.77734">
        <ele>2974.7</ele>
        <time>2026-03-03T10:39:13.999Z</time>
      </trkpt>
      <trkpt lat="44.83996" lon="6.77733">
        <ele>2974.8</ele>
        <time>2026-03-03T10:39:14.999Z</time>
      </trkpt>
      <trkpt lat="44.83996" lon="6.77733">
        <ele>2974.9</ele>
        <time>2026-03-03T10:39:15.999Z</time>
      </trkpt>
      <trkpt lat="44.83995" lon="6.77736">
        <ele>2977.9</ele>
        <time>2026-03-03T10:39:29.999Z</time>
      </trkpt>
      <trkpt lat="44.83995" lon="6.77737">
        <ele>2978.1</ele>
        <time>2026-03-03T10:39:30.999Z</time>
      </trkpt>
      <trkpt lat="44.83995" lon="6.77737">
        <ele>2978.3</ele>
        <time>2026-03-03T10:39:31.999Z</time>
      </trkpt>
      <trkpt lat="44.83995" lon="6.77739">
        <ele>2978.5</ele>
        <time>2026-03-03T10:39:32.999Z</time>
      </trkpt>
      <trkpt lat="44.83995" lon="6.77741">
        <ele>2978.4</ele>
        <time>2026-03-03T10:39:33.999Z</time>
      </trkpt>
      <trkpt lat="44.83994" lon="6.77742">
        <ele>2978.5</ele>
        <time>2026-03-03T10:39:34.999Z</time>
      </trkpt>
      <trkpt lat="44.83994" lon="6.77742">
        <ele>2978.7</ele>
        <time>2026-03-03T10:39:35.999Z</time>
      </trkpt>
      <trkpt lat="44.83994" lon="6.77742">
        <ele>2979</ele>
        <time>2026-03-03T10:39:36.999Z</time>
      </trkpt>
      <trkpt lat="44.83994" lon="6.77743">
        <ele>2979.2</ele>
        <time>2026-03-03T10:39:37.999Z</time>
      </trkpt>
      <trkpt lat="44.83994" lon="6.77743">
        <ele>2979.4</ele>
        <time>2026-03-03T10:39:38.999Z</time>
      </trkpt>
      <trkpt lat="44.83994" lon="6.77744">
        <ele>2979.6</ele>
        <time>2026-03-03T10:39:39.999Z</time>
      </trkpt>
      <trkpt lat="44.83993" lon="6.77745">
        <ele>2979.7</ele>
        <time>2026-03-03T10:39:40.999Z</time>
      </trkpt>
      <trkpt lat="44.83993" lon="6.77746">
        <ele>2979.7</ele>
        <time>2026-03-03T10:39:41.999Z</time>
      </trkpt>
      <trkpt lat="44.83993" lon="6.77747">
        <ele>2979.7</ele>
        <time>2026-03-03T10:39:42.999Z</time>
      </trkpt>
      <trkpt lat="44.83992" lon="6.77747">
        <ele>2979.9</ele>
        <time>2026-03-03T10:39:43.999Z</time>
      </trkpt>
      <trkpt lat="44.83992" lon="6.77748">
        <ele>2980</ele>
        <time>2026-03-03T10:39:44.999Z</time>
      </trkpt>
      <trkpt lat="44.83992" lon="6.77748">
        <ele>2980</ele>
        <time>2026-03-03T10:39:45.999Z</time>
      </trkpt>
      <trkpt lat="44.83992" lon="6.77748">
        <ele>2979.8</ele>
        <time>2026-03-03T10:39:46.999Z</time>
      </trkpt>
      <trkpt lat="44.83992" lon="6.77749">
        <ele>2979.8</ele>
        <time>2026-03-03T10:39:47.999Z</time>
      </trkpt>
      <trkpt lat="44.83992" lon="6.77749">
        <ele>2979.8</ele>
        <time>2026-03-03T10:39:48.999Z</time>
      </trkpt>
      <trkpt lat="44.83992" lon="6.77749">
        <ele>2979.9</ele>
        <time>2026-03-03T10:39:49.999Z</time>
      </trkpt>
      <trkpt lat="44.83992" lon="6.77749">
        <ele>2980.1</ele>
        <time>2026-03-03T10:39:50.999Z</time>
      </trkpt>
      <trkpt lat="44.83992" lon="6.77751">
        <ele>2980.1</ele>
        <time>2026-03-03T10:39:51.999Z</time>
      </trkpt>
      <trkpt lat="44.83991" lon="6.77753">
        <ele>2980.1</ele>
        <time>2026-03-03T10:39:52.999Z</time>
      </trkpt>
      <trkpt lat="44.83991" lon="6.77754">
        <ele>2980.1</ele>
        <time>2026-03-03T10:39:53.999Z</time>
      </trkpt>
      <trkpt lat="44.8399" lon="6.77755">
        <ele>2980</ele>
        <time>2026-03-03T10:39:54.999Z</time>
      </trkpt>
      <trkpt lat="44.8399" lon="6.77755">
        <ele>2980.1</ele>
        <time>2026-03-03T10:39:55.999Z</time>
      </trkpt>
      <trkpt lat="44.8399" lon="6.77756">
        <ele>2980.6</ele>
        <time>2026-03-03T10:39:56.999Z</time>
      </trkpt>
      <trkpt lat="44.8399" lon="6.77756">
        <ele>2980.4</ele>
        <time>2026-03-03T10:39:57.999Z</time>
      </trkpt>
      <trkpt lat="44.83989" lon="6.77757">
        <ele>2980.5</ele>
        <time>2026-03-03T10:39:58.999Z</time>
      </trkpt>
      <trkpt lat="44.83989" lon="6.77758">
        <ele>2980.4</ele>
        <time>2026-03-03T10:39:59.999Z</time>
      </trkpt>
      <trkpt lat="44.83989" lon="6.77758">
        <ele>2980.1</ele>
        <time>2026-03-03T10:40:00.999Z</time>
      </trkpt>
      <trkpt lat="44.83989" lon="6.77759">
        <ele>2980.1</ele>
        <time>2026-03-03T10:40:01.999Z</time>
      </trkpt>
      <trkpt lat="44.83989" lon="6.77759">
        <ele>2980.3</ele>
        <time>2026-03-03T10:40:02.999Z</time>
      </trkpt>
      <trkpt lat="44.83989" lon="6.7776">
        <ele>2980.5</ele>
        <time>2026-03-03T10:40:03.999Z</time>
      </trkpt>
      <trkpt lat="44.83989" lon="6.7776">
        <ele>2980.6</ele>
        <time>2026-03-03T10:40:04.999Z</time>
      </trkpt>
      <trkpt lat="44.83988" lon="6.77761">
        <ele>2980.9</ele>
        <time>2026-03-03T10:40:05.999Z</time>
      </trkpt>
      <trkpt lat="44.83988" lon="6.77761">
        <ele>2981.2</ele>
        <time>2026-03-03T10:40:06.999Z</time>
      </trkpt>
      <trkpt lat="44.83988" lon="6.77761">
        <ele>2981.4</ele>
        <time>2026-03-03T10:40:07.999Z</time>
      </trkpt>
      <trkpt lat="44.83988" lon="6.77761">
        <ele>2981.6</ele>
        <time>2026-03-03T10:40:08.999Z</time>
      </trkpt>
      <trkpt lat="44.83988" lon="6.77761">
        <ele>2981.6</ele>
        <time>2026-03-03T10:40:09.999Z</time>
      </trkpt>
      <trkpt lat="44.83987" lon="6.77762">
        <ele>2981.7</ele>
        <time>2026-03-03T10:40:10.999Z</time>
      </trkpt>
      <trkpt lat="44.83987" lon="6.77763">
        <ele>2981.8</ele>
        <time>2026-03-03T10:40:11.999Z</time>
      </trkpt>
      <trkpt lat="44.83986" lon="6.77763">
        <ele>2981.9</ele>
        <time>2026-03-03T10:40:12.999Z</time>
      </trkpt>
      <trkpt lat="44.83986" lon="6.77764">
        <ele>2982</ele>
        <time>2026-03-03T10:40:13.999Z</time>
      </trkpt>
      <trkpt lat="44.83985" lon="6.77765">
        <ele>2982</ele>
        <time>2026-03-03T10:40:14.999Z</time>
      </trkpt>
      <trkpt lat="44.83985" lon="6.77766">
        <ele>2981.9</ele>
        <time>2026-03-03T10:40:15.999Z</time>
      </trkpt>
      <trkpt lat="44.83985" lon="6.77767">
        <ele>2981.8</ele>
        <time>2026-03-03T10:40:16.999Z</time>
      </trkpt>
      <trkpt lat="44.83985" lon="6.77767">
        <ele>2981.9</ele>
        <time>2026-03-03T10:40:17.999Z</time>
      </trkpt>
      <trkpt lat="44.83985" lon="6.77767">
        <ele>2982.1</ele>
        <time>2026-03-03T10:40:18.999Z</time>
      </trkpt>
      <trkpt lat="44.83985" lon="6.77768">
        <ele>2982</ele>
        <time>2026-03-03T10:40:19.999Z</time>
      </trkpt>
      <trkpt lat="44.83984" lon="6.77769">
        <ele>2982</ele>
        <time>2026-03-03T10:40:20.999Z</time>
      </trkpt>
      <trkpt lat="44.83984" lon="6.7777">
        <ele>2982</ele>
        <time>2026-03-03T10:40:21.999Z</time>
      </trkpt>
      <trkpt lat="44.83983" lon="6.7777">
        <ele>2982.1</ele>
        <time>2026-03-03T10:40:22.999Z</time>
      </trkpt>
      <trkpt lat="44.83983" lon="6.77771">
        <ele>2982.2</ele>
        <time>2026-03-03T10:40:23.999Z</time>
      </trkpt>
      <trkpt lat="44.83983" lon="6.7777">
        <ele>2982.6</ele>
        <time>2026-03-03T10:40:24.999Z</time>
      </trkpt>
      <trkpt lat="44.83983" lon="6.7777">
        <ele>2982.9</ele>
        <time>2026-03-03T10:40:25.999Z</time>
      </trkpt>
      <trkpt lat="44.83983" lon="6.77771">
        <ele>2982.8</ele>
        <time>2026-03-03T10:40:26.999Z</time>
      </trkpt>
      <trkpt lat="44.83983" lon="6.77772">
        <ele>2982.7</ele>
        <time>2026-03-03T10:40:27.999Z</time>
      </trkpt>
      <trkpt lat="44.83983" lon="6.77772">
        <ele>2982.7</ele>
        <time>2026-03-03T10:40:28.999Z</time>
      </trkpt>
      <trkpt lat="44.83983" lon="6.77773">
        <ele>2982.5</ele>
        <time>2026-03-03T10:40:29.999Z</time>
      </trkpt>
      <trkpt lat="44.83983" lon="6.77774">
        <ele>2982.6</ele>
        <time>2026-03-03T10:40:30.999Z</time>
      </trkpt>
      <trkpt lat="44.83982" lon="6.77774">
        <ele>2982.6</ele>
        <time>2026-03-03T10:40:31.999Z</time>
      </trkpt>
      <trkpt lat="44.83982" lon="6.77774">
        <ele>2982.7</ele>
        <time>2026-03-03T10:40:32.999Z</time>
      </trkpt>
      <trkpt lat="44.83982" lon="6.77775">
        <ele>2982.8</ele>
        <time>2026-03-03T10:40:33.999Z</time>
      </trkpt>
      <trkpt lat="44.83982" lon="6.77776">
        <ele>2982.9</ele>
        <time>2026-03-03T10:40:34.999Z</time>
      </trkpt>
      <trkpt lat="44.83982" lon="6.77777">
        <ele>2983</ele>
        <time>2026-03-03T10:40:35.999Z</time>
      </trkpt>
      <trkpt lat="44.83982" lon="6.77777">
        <ele>2983.1</ele>
        <time>2026-03-03T10:40:36.999Z</time>
      </trkpt>
      <trkpt lat="44.83982" lon="6.77778">
        <ele>2983.2</ele>
        <time>2026-03-03T10:40:37.999Z</time>
      </trkpt>
      <trkpt lat="44.83982" lon="6.77778">
        <ele>2983.4</ele>
        <time>2026-03-03T10:40:38.999Z</time>
      </trkpt>
      <trkpt lat="44.83982" lon="6.77779">
        <ele>2983.6</ele>
        <time>2026-03-03T10:40:39.999Z</time>
      </trkpt>
      <trkpt lat="44.83981" lon="6.7778">
        <ele>2983.8</ele>
        <time>2026-03-03T10:40:40.999Z</time>
      </trkpt>
      <trkpt lat="44.83981" lon="6.77781">
        <ele>2984</ele>
        <time>2026-03-03T10:40:41.999Z</time>
      </trkpt>
      <trkpt lat="44.8398" lon="6.77782">
        <ele>2984.3</ele>
        <time>2026-03-03T10:40:42.999Z</time>
      </trkpt>
      <trkpt lat="44.83979" lon="6.77783">
        <ele>2984.4</ele>
        <time>2026-03-03T10:40:43.999Z</time>
      </trkpt>
      <trkpt lat="44.83979" lon="6.77784">
        <ele>2984.5</ele>
        <time>2026-03-03T10:40:44.999Z</time>
      </trkpt>
      <trkpt lat="44.83979" lon="6.77784">
        <ele>2984.6</ele>
        <time>2026-03-03T10:40:45.999Z</time>
      </trkpt>
      <trkpt lat="44.83978" lon="6.77784">
        <ele>2984.7</ele>
        <time>2026-03-03T10:40:46.999Z</time>
      </trkpt>
      <trkpt lat="44.83977" lon="6.77789">
        <ele>2986.7</ele>
        <time>2026-03-03T10:41:00.999Z</time>
      </trkpt>
      <trkpt lat="44.83977" lon="6.7779">
        <ele>2986.9</ele>
        <time>2026-03-03T10:41:01.999Z</time>
      </trkpt>
      <trkpt lat="44.83976" lon="6.7779">
        <ele>2987</ele>
        <time>2026-03-03T10:41:02.999Z</time>
      </trkpt>
      <trkpt lat="44.83972" lon="6.77787">
        <ele>2991.1</ele>
        <time>2026-03-03T10:41:30.999Z</time>
      </trkpt>
      <trkpt lat="44.83971" lon="6.77786">
        <ele>2991.3</ele>
        <time>2026-03-03T10:41:31.999Z</time>
      </trkpt>
      <trkpt lat="44.83971" lon="6.77785">
        <ele>2991.4</ele>
        <time>2026-03-03T10:41:32.999Z</time>
      </trkpt>
      <trkpt lat="44.83968" lon="6.77781">
        <ele>2992.6</ele>
        <time>2026-03-03T10:41:57.999Z</time>
      </trkpt>
      <trkpt lat="44.83968" lon="6.77781">
        <ele>2992.6</ele>
        <time>2026-03-03T10:41:58.999Z</time>
      </trkpt>
      <trkpt lat="44.83968" lon="6.77781">
        <ele>2992.7</ele>
        <time>2026-03-03T10:41:59.999Z</time>
      </trkpt>
      <trkpt lat="44.83968" lon="6.7778">
        <ele>2992.7</ele>
        <time>2026-03-03T10:42:00.999Z</time>
      </trkpt>
      <trkpt lat="44.83968" lon="6.7778">
        <ele>2992.7</ele>
        <time>2026-03-03T10:42:01.999Z</time>
      </trkpt>
      <trkpt lat="44.83967" lon="6.7778">
        <ele>2992.6</ele>
        <time>2026-03-03T10:42:02.999Z</time>
      </trkpt>
      <trkpt lat="44.83967" lon="6.7778">
        <ele>2992.7</ele>
        <time>2026-03-03T10:42:03.999Z</time>
      </trkpt>
      <trkpt lat="44.83967" lon="6.77779">
        <ele>2992.8</ele>
        <time>2026-03-03T10:42:04.999Z</time>
      </trkpt>
      <trkpt lat="44.83967" lon="6.77779">
        <ele>2992.9</ele>
        <time>2026-03-03T10:42:05.999Z</time>
      </trkpt>
      <trkpt lat="44.83967" lon="6.77779">
        <ele>2993.1</ele>
        <time>2026-03-03T10:42:06.999Z</time>
      </trkpt>
      <trkpt lat="44.83966" lon="6.77779">
        <ele>2993.4</ele>
        <time>2026-03-03T10:42:07.999Z</time>
      </trkpt>
      <trkpt lat="44.83965" lon="6.77777">
        <ele>2993.5</ele>
        <time>2026-03-03T10:42:08.999Z</time>
      </trkpt>
      <trkpt lat="44.83964" lon="6.77776">
        <ele>2993.6</ele>
        <time>2026-03-03T10:42:09.999Z</time>
      </trkpt>
      <trkpt lat="44.83964" lon="6.77775">
        <ele>2993.7</ele>
        <time>2026-03-03T10:42:10.999Z</time>
      </trkpt>
      <trkpt lat="44.83963" lon="6.77775">
        <ele>2994</ele>
        <time>2026-03-03T10:42:11.999Z</time>
      </trkpt>
      <trkpt lat="44.8396" lon="6.77772">
        <ele>2997</ele>
        <time>2026-03-03T10:42:28.999Z</time>
      </trkpt>
      <trkpt lat="44.8396" lon="6.77772">
        <ele>2997</ele>
        <time>2026-03-03T10:42:29.999Z</time>
      </trkpt>
      <trkpt lat="44.8396" lon="6.77772">
        <ele>2997.1</ele>
        <time>2026-03-03T10:42:30.999Z</time>
      </trkpt>
      <trkpt lat="44.8396" lon="6.77771">
        <ele>2997.2</ele>
        <time>2026-03-03T10:42:31.999Z</time>
      </trkpt>
      <trkpt lat="44.8396" lon="6.77771">
        <ele>2997.4</ele>
        <time>2026-03-03T10:42:32.999Z</time>
      </trkpt>
      <trkpt lat="44.83959" lon="6.77771">
        <ele>2997.5</ele>
        <time>2026-03-03T10:42:33.999Z</time>
      </trkpt>
      <trkpt lat="44.83959" lon="6.77771">
        <ele>2997.7</ele>
        <time>2026-03-03T10:42:34.999Z</time>
      </trkpt>
      <trkpt lat="44.83959" lon="6.7777">
        <ele>2997.9</ele>
        <time>2026-03-03T10:42:35.999Z</time>
      </trkpt>
      <trkpt lat="44.83959" lon="6.7777">
        <ele>2998</ele>
        <time>2026-03-03T10:42:36.999Z</time>
      </trkpt>
      <trkpt lat="44.83958" lon="6.7777">
        <ele>2998</ele>
        <time>2026-03-03T10:42:37.999Z</time>
      </trkpt>
      <trkpt lat="44.83958" lon="6.77769">
        <ele>2998</ele>
        <time>2026-03-03T10:42:38.999Z</time>
      </trkpt>
      <trkpt lat="44.83958" lon="6.77768">
        <ele>2997.8</ele>
        <time>2026-03-03T10:42:39.999Z</time>
      </trkpt>
      <trkpt lat="44.83958" lon="6.77768">
        <ele>2997.8</ele>
        <time>2026-03-03T10:42:40.999Z</time>
      </trkpt>
      <trkpt lat="44.83957" lon="6.77768">
        <ele>2997.9</ele>
        <time>2026-03-03T10:42:41.999Z</time>
      </trkpt>
      <trkpt lat="44.83957" lon="6.77768">
        <ele>2997.9</ele>
        <time>2026-03-03T10:42:42.999Z</time>
      </trkpt>
      <trkpt lat="44.83957" lon="6.77767">
        <ele>2998</ele>
        <time>2026-03-03T10:42:43.999Z</time>
      </trkpt>
      <trkpt lat="44.83957" lon="6.77767">
        <ele>2998.1</ele>
        <time>2026-03-03T10:42:44.999Z</time>
      </trkpt>
      <trkpt lat="44.83957" lon="6.77767">
        <ele>2998.1</ele>
        <time>2026-03-03T10:42:45.999Z</time>
      </trkpt>
      <trkpt lat="44.83957" lon="6.77766">
        <ele>2998</ele>
        <time>2026-03-03T10:42:46.999Z</time>
      </trkpt>
      <trkpt lat="44.83956" lon="6.77766">
        <ele>2998.1</ele>
        <time>2026-03-03T10:42:47.999Z</time>
      </trkpt>
      <trkpt lat="44.83956" lon="6.77765">
        <ele>2998</ele>
        <time>2026-03-03T10:42:48.999Z</time>
      </trkpt>
      <trkpt lat="44.83956" lon="6.77765">
        <ele>2998.2</ele>
        <time>2026-03-03T10:42:49.999Z</time>
      </trkpt>
      <trkpt lat="44.83955" lon="6.77764">
        <ele>2998.3</ele>
        <time>2026-03-03T10:42:50.999Z</time>
      </trkpt>
      <trkpt lat="44.83955" lon="6.77764">
        <ele>2998.3</ele>
        <time>2026-03-03T10:42:51.999Z</time>
      </trkpt>
      <trkpt lat="44.83955" lon="6.77763">
        <ele>2998.4</ele>
        <time>2026-03-03T10:42:52.999Z</time>
      </trkpt>
      <trkpt lat="44.83955" lon="6.77763">
        <ele>2998.4</ele>
        <time>2026-03-03T10:42:53.999Z</time>
      </trkpt>
      <trkpt lat="44.83954" lon="6.77762">
        <ele>2998.5</ele>
        <time>2026-03-03T10:42:54.999Z</time>
      </trkpt>
      <trkpt lat="44.83954" lon="6.77762">
        <ele>2998.7</ele>
        <time>2026-03-03T10:42:55.999Z</time>
      </trkpt>
      <trkpt lat="44.83954" lon="6.77761">
        <ele>2998.7</ele>
        <time>2026-03-03T10:42:56.999Z</time>
      </trkpt>
      <trkpt lat="44.83954" lon="6.7776">
        <ele>2998.6</ele>
        <time>2026-03-03T10:42:57.999Z</time>
      </trkpt>
      <trkpt lat="44.83953" lon="6.7776">
        <ele>2998.5</ele>
        <time>2026-03-03T10:42:58.999Z</time>
      </trkpt>
      <trkpt lat="44.83953" lon="6.7776">
        <ele>2998.5</ele>
        <time>2026-03-03T10:42:59.999Z</time>
      </trkpt>
      <trkpt lat="44.83953" lon="6.77759">
        <ele>2998.4</ele>
        <time>2026-03-03T10:43:00.999Z</time>
      </trkpt>
      <trkpt lat="44.83953" lon="6.77759">
        <ele>2998.6</ele>
        <time>2026-03-03T10:43:01.999Z</time>
      </trkpt>
      <trkpt lat="44.83953" lon="6.77759">
        <ele>2998.7</ele>
        <time>2026-03-03T10:43:02.999Z</time>
      </trkpt>
      <trkpt lat="44.83952" lon="6.77758">
        <ele>2998.8</ele>
        <time>2026-03-03T10:43:03.999Z</time>
      </trkpt>
      <trkpt lat="44.83952" lon="6.77757">
        <ele>2999</ele>
        <time>2026-03-03T10:43:04.999Z</time>
      </trkpt>
      <trkpt lat="44.83952" lon="6.77757">
        <ele>2999.2</ele>
        <time>2026-03-03T10:43:05.999Z</time>
      </trkpt>
      <trkpt lat="44.83952" lon="6.77757">
        <ele>2999.4</ele>
        <time>2026-03-03T10:43:06.999Z</time>
      </trkpt>
      <trkpt lat="44.83952" lon="6.77756">
        <ele>2999.6</ele>
        <time>2026-03-03T10:43:07.999Z</time>
      </trkpt>
      <trkpt lat="44.83952" lon="6.77756">
        <ele>2999.7</ele>
        <time>2026-03-03T10:43:08.999Z</time>
      </trkpt>
      <trkpt lat="44.83952" lon="6.77756">
        <ele>2999.7</ele>
        <time>2026-03-03T10:43:09.999Z</time>
      </trkpt>
      <trkpt lat="44.83951" lon="6.77755">
        <ele>3000.1</ele>
        <time>2026-03-03T10:43:10.999Z</time>
      </trkpt>
      <trkpt lat="44.83951" lon="6.77755">
        <ele>3000.3</ele>
        <time>2026-03-03T10:43:11.999Z</time>
      </trkpt>
      <trkpt lat="44.83951" lon="6.77754">
        <ele>3000.4</ele>
        <time>2026-03-03T10:43:12.999Z</time>
      </trkpt>
      <trkpt lat="44.83947" lon="6.77748">
        <ele>3002.2</ele>
        <time>2026-03-03T10:43:31.999Z</time>
      </trkpt>
      <trkpt lat="44.83946" lon="6.77747">
        <ele>3002.4</ele>
        <time>2026-03-03T10:43:32.999Z</time>
      </trkpt>
      <trkpt lat="44.83945" lon="6.77745">
        <ele>3002.6</ele>
        <time>2026-03-03T10:43:33.999Z</time>
      </trkpt>
      <trkpt lat="44.83945" lon="6.77745">
        <ele>3002.8</ele>
        <time>2026-03-03T10:43:34.999Z</time>
      </trkpt>
      <trkpt lat="44.83945" lon="6.77745">
        <ele>3003</ele>
        <time>2026-03-03T10:43:35.999Z</time>
      </trkpt>
      <trkpt lat="44.83945" lon="6.77744">
        <ele>3003.1</ele>
        <time>2026-03-03T10:43:36.999Z</time>
      </trkpt>
      <trkpt lat="44.83944" lon="6.77744">
        <ele>3003.3</ele>
        <time>2026-03-03T10:43:37.999Z</time>
      </trkpt>
      <trkpt lat="44.83944" lon="6.77743">
        <ele>3003.4</ele>
        <time>2026-03-03T10:43:38.999Z</time>
      </trkpt>
      <trkpt lat="44.83942" lon="6.77739">
        <ele>3004.8</ele>
        <time>2026-03-03T10:43:52.999Z</time>
      </trkpt>
      <trkpt lat="44.83941" lon="6.77737">
        <ele>3004.9</ele>
        <time>2026-03-03T10:43:53.999Z</time>
      </trkpt>
      <trkpt lat="44.83941" lon="6.77736">
        <ele>3005.2</ele>
        <time>2026-03-03T10:43:54.999Z</time>
      </trkpt>
      <trkpt lat="44.8394" lon="6.77735">
        <ele>3005.2</ele>
        <time>2026-03-03T10:43:55.999Z</time>
      </trkpt>
      <trkpt lat="44.8394" lon="6.77735">
        <ele>3005.4</ele>
        <time>2026-03-03T10:43:56.999Z</time>
      </trkpt>
      <trkpt lat="44.8394" lon="6.77734">
        <ele>3005.5</ele>
        <time>2026-03-03T10:43:57.999Z</time>
      </trkpt>
      <trkpt lat="44.8394" lon="6.77734">
        <ele>3005.7</ele>
        <time>2026-03-03T10:43:58.999Z</time>
      </trkpt>
      <trkpt lat="44.8394" lon="6.77734">
        <ele>3006</ele>
        <time>2026-03-03T10:43:59.999Z</time>
      </trkpt>
      <trkpt lat="44.8394" lon="6.77733">
        <ele>3006.3</ele>
        <time>2026-03-03T10:44:00.999Z</time>
      </trkpt>
      <trkpt lat="44.83939" lon="6.77733">
        <ele>3006.6</ele>
        <time>2026-03-03T10:44:01.999Z</time>
      </trkpt>
      <trkpt lat="44.83939" lon="6.77732">
        <ele>3006.8</ele>
        <time>2026-03-03T10:44:02.999Z</time>
      </trkpt>
      <trkpt lat="44.83939" lon="6.77731">
        <ele>3006.9</ele>
        <time>2026-03-03T10:44:03.999Z</time>
      </trkpt>
      <trkpt lat="44.83939" lon="6.77731">
        <ele>3007.1</ele>
        <time>2026-03-03T10:44:04.999Z</time>
      </trkpt>
      <trkpt lat="44.83939" lon="6.77731">
        <ele>3007.1</ele>
        <time>2026-03-03T10:44:05.999Z</time>
      </trkpt>
      <trkpt lat="44.83939" lon="6.77731">
        <ele>3007.4</ele>
        <time>2026-03-03T10:44:06.999Z</time>
      </trkpt>
      <trkpt lat="44.83939" lon="6.77731">
        <ele>3007.6</ele>
        <time>2026-03-03T10:44:07.999Z</time>
      </trkpt>
      <trkpt lat="44.83938" lon="6.7773">
        <ele>3007.7</ele>
        <time>2026-03-03T10:44:08.999Z</time>
      </trkpt>
      <trkpt lat="44.83938" lon="6.7773">
        <ele>3007.8</ele>
        <time>2026-03-03T10:44:09.999Z</time>
      </trkpt>
      <trkpt lat="44.83938" lon="6.77729">
        <ele>3007.8</ele>
        <time>2026-03-03T10:44:10.999Z</time>
      </trkpt>
      <trkpt lat="44.83933" lon="6.77723">
        <ele>3009.1</ele>
        <time>2026-03-03T10:44:23.999Z</time>
      </trkpt>
      <trkpt lat="44.83932" lon="6.77722">
        <ele>3009.3</ele>
        <time>2026-03-03T10:44:24.999Z</time>
      </trkpt>
      <trkpt lat="44.83931" lon="6.77722">
        <ele>3009.5</ele>
        <time>2026-03-03T10:44:25.999Z</time>
      </trkpt>
      <trkpt lat="44.8393" lon="6.77721">
        <ele>3009.6</ele>
        <time>2026-03-03T10:44:26.999Z</time>
      </trkpt>
      <trkpt lat="44.8393" lon="6.7772">
        <ele>3009.8</ele>
        <time>2026-03-03T10:44:27.999Z</time>
      </trkpt>
      <trkpt lat="44.83929" lon="6.7772">
        <ele>3009.8</ele>
        <time>2026-03-03T10:44:28.999Z</time>
      </trkpt>
      <trkpt lat="44.83929" lon="6.7772">
        <ele>3010</ele>
        <time>2026-03-03T10:44:29.999Z</time>
      </trkpt>
      <trkpt lat="44.83929" lon="6.77719">
        <ele>3010.1</ele>
        <time>2026-03-03T10:44:30.999Z</time>
      </trkpt>
      <trkpt lat="44.83928" lon="6.77718">
        <ele>3010.2</ele>
        <time>2026-03-03T10:44:31.999Z</time>
      </trkpt>
      <trkpt lat="44.83927" lon="6.77718">
        <ele>3010.3</ele>
        <time>2026-03-03T10:44:32.999Z</time>
      </trkpt>
      <trkpt lat="44.83927" lon="6.77717">
        <ele>3010.6</ele>
        <time>2026-03-03T10:44:33.999Z</time>
      </trkpt>
      <trkpt lat="44.83927" lon="6.77717">
        <ele>3010.8</ele>
        <time>2026-03-03T10:44:34.999Z</time>
      </trkpt>
      <trkpt lat="44.83927" lon="6.77717">
        <ele>3011</ele>
        <time>2026-03-03T10:44:35.999Z</time>
      </trkpt>
      <trkpt lat="44.83927" lon="6.77717">
        <ele>3011.2</ele>
        <time>2026-03-03T10:44:36.999Z</time>
      </trkpt>
      <trkpt lat="44.83927" lon="6.77716">
        <ele>3011.2</ele>
        <time>2026-03-03T10:44:37.999Z</time>
      </trkpt>
      <trkpt lat="44.83926" lon="6.77715">
        <ele>3011.2</ele>
        <time>2026-03-03T10:44:38.999Z</time>
      </trkpt>
      <trkpt lat="44.83926" lon="6.77715">
        <ele>3011.3</ele>
        <time>2026-03-03T10:44:39.999Z</time>
      </trkpt>
      <trkpt lat="44.83926" lon="6.77714">
        <ele>3011.5</ele>
        <time>2026-03-03T10:44:40.999Z</time>
      </trkpt>
      <trkpt lat="44.83925" lon="6.77713">
        <ele>3011.7</ele>
        <time>2026-03-03T10:44:41.999Z</time>
      </trkpt>
      <trkpt lat="44.83925" lon="6.77713">
        <ele>3011.7</ele>
        <time>2026-03-03T10:44:42.999Z</time>
      </trkpt>
      <trkpt lat="44.83925" lon="6.77713">
        <ele>3011.8</ele>
        <time>2026-03-03T10:44:43.999Z</time>
      </trkpt>
      <trkpt lat="44.83925" lon="6.77712">
        <ele>3011.8</ele>
        <time>2026-03-03T10:44:44.999Z</time>
      </trkpt>
      <trkpt lat="44.83924" lon="6.77711">
        <ele>3011.8</ele>
        <time>2026-03-03T10:44:45.999Z</time>
      </trkpt>
      <trkpt lat="44.83924" lon="6.7771">
        <ele>3011.9</ele>
        <time>2026-03-03T10:44:46.999Z</time>
      </trkpt>
      <trkpt lat="44.83924" lon="6.7771">
        <ele>3012</ele>
        <time>2026-03-03T10:44:47.999Z</time>
      </trkpt>
      <trkpt lat="44.83923" lon="6.77709">
        <ele>3012.1</ele>
        <time>2026-03-03T10:44:48.999Z</time>
      </trkpt>
      <trkpt lat="44.83923" lon="6.77709">
        <ele>3012.3</ele>
        <time>2026-03-03T10:44:49.999Z</time>
      </trkpt>
      <trkpt lat="44.83923" lon="6.77708">
        <ele>3012.3</ele>
        <time>2026-03-03T10:44:50.999Z</time>
      </trkpt>
      <trkpt lat="44.83923" lon="6.77708">
        <ele>3012.3</ele>
        <time>2026-03-03T10:44:51.999Z</time>
      </trkpt>
      <trkpt lat="44.83923" lon="6.77708">
        <ele>3012.4</ele>
        <time>2026-03-03T10:44:52.999Z</time>
      </trkpt>
      <trkpt lat="44.83923" lon="6.77708">
        <ele>3012.6</ele>
        <time>2026-03-03T10:44:53.999Z</time>
      </trkpt>
      <trkpt lat="44.83922" lon="6.77707">
        <ele>3012.7</ele>
        <time>2026-03-03T10:44:54.999Z</time>
      </trkpt>
      <trkpt lat="44.83922" lon="6.77706">
        <ele>3012.7</ele>
        <time>2026-03-03T10:44:55.999Z</time>
      </trkpt>
      <trkpt lat="44.83922" lon="6.77705">
        <ele>3012.8</ele>
        <time>2026-03-03T10:44:56.999Z</time>
      </trkpt>
      <trkpt lat="44.83922" lon="6.77705">
        <ele>3012.9</ele>
        <time>2026-03-03T10:44:57.999Z</time>
      </trkpt>
      <trkpt lat="44.83922" lon="6.77705">
        <ele>3013</ele>
        <time>2026-03-03T10:44:58.999Z</time>
      </trkpt>
      <trkpt lat="44.83922" lon="6.77705">
        <ele>3013.1</ele>
        <time>2026-03-03T10:44:59.999Z</time>
      </trkpt>
      <trkpt lat="44.83922" lon="6.77705">
        <ele>3013.1</ele>
        <time>2026-03-03T10:45:00.999Z</time>
      </trkpt>
      <trkpt lat="44.83922" lon="6.77705">
        <ele>3013.5</ele>
        <time>2026-03-03T10:45:01.999Z</time>
      </trkpt>
      <trkpt lat="44.83922" lon="6.77705">
        <ele>3013.7</ele>
        <time>2026-03-03T10:45:02.999Z</time>
      </trkpt>
      <trkpt lat="44.83922" lon="6.77704">
        <ele>3013.9</ele>
        <time>2026-03-03T10:45:03.999Z</time>
      </trkpt>
      <trkpt lat="44.83921" lon="6.77703">
        <ele>3014.2</ele>
        <time>2026-03-03T10:45:04.999Z</time>
      </trkpt>
      <trkpt lat="44.83921" lon="6.77702">
        <ele>3014.2</ele>
        <time>2026-03-03T10:45:05.999Z</time>
      </trkpt>
      <trkpt lat="44.8392" lon="6.77701">
        <ele>3014.3</ele>
        <time>2026-03-03T10:45:06.999Z</time>
      </trkpt>
      <trkpt lat="44.8392" lon="6.777">
        <ele>3014.6</ele>
        <time>2026-03-03T10:45:07.999Z</time>
      </trkpt>
      <trkpt lat="44.8392" lon="6.77699">
        <ele>3014.5</ele>
        <time>2026-03-03T10:45:08.999Z</time>
      </trkpt>
      <trkpt lat="44.83919" lon="6.77698">
        <ele>3014.5</ele>
        <time>2026-03-03T10:45:09.999Z</time>
      </trkpt>
      <trkpt lat="44.83919" lon="6.77697">
        <ele>3014.5</ele>
        <time>2026-03-03T10:45:10.999Z</time>
      </trkpt>
      <trkpt lat="44.83919" lon="6.77697">
        <ele>3014.7</ele>
        <time>2026-03-03T10:45:11.999Z</time>
      </trkpt>
      <trkpt lat="44.83915" lon="6.7769">
        <ele>3019.7</ele>
        <time>2026-03-03T10:45:57.999Z</time>
      </trkpt>
      <trkpt lat="44.83914" lon="6.77689">
        <ele>3019.7</ele>
        <time>2026-03-03T10:45:58.999Z</time>
      </trkpt>
      <trkpt lat="44.83913" lon="6.77688">
        <ele>3019.6</ele>
        <time>2026-03-03T10:45:59.999Z</time>
      </trkpt>
      <trkpt lat="44.83912" lon="6.77687">
        <ele>3019.6</ele>
        <time>2026-03-03T10:46:00.999Z</time>
      </trkpt>
      <trkpt lat="44.83912" lon="6.77687">
        <ele>3019.8</ele>
        <time>2026-03-03T10:46:01.999Z</time>
      </trkpt>
      <trkpt lat="44.83912" lon="6.77687">
        <ele>3020</ele>
        <time>2026-03-03T10:46:02.999Z</time>
      </trkpt>
      <trkpt lat="44.83911" lon="6.77687">
        <ele>3020.1</ele>
        <time>2026-03-03T10:46:03.999Z</time>
      </trkpt>
      <trkpt lat="44.83911" lon="6.77686">
        <ele>3020.2</ele>
        <time>2026-03-03T10:46:04.999Z</time>
      </trkpt>
      <trkpt lat="44.8391" lon="6.77686">
        <ele>3020.1</ele>
        <time>2026-03-03T10:46:05.999Z</time>
      </trkpt>
      <trkpt lat="44.83909" lon="6.77685">
        <ele>3020.3</ele>
        <time>2026-03-03T10:46:06.999Z</time>
      </trkpt>
      <trkpt lat="44.83908" lon="6.77684">
        <ele>3020.5</ele>
        <time>2026-03-03T10:46:07.999Z</time>
      </trkpt>
      <trkpt lat="44.83907" lon="6.77684">
        <ele>3020.8</ele>
        <time>2026-03-03T10:46:08.999Z</time>
      </trkpt>
      <trkpt lat="44.83907" lon="6.77683">
        <ele>3020.7</ele>
        <time>2026-03-03T10:46:09.999Z</time>
      </trkpt>
      <trkpt lat="44.83906" lon="6.77683">
        <ele>3020.7</ele>
        <time>2026-03-03T10:46:10.999Z</time>
      </trkpt>
      <trkpt lat="44.83905" lon="6.77682">
        <ele>3020.8</ele>
        <time>2026-03-03T10:46:11.999Z</time>
      </trkpt>
      <trkpt lat="44.83904" lon="6.77682">
        <ele>3020.9</ele>
        <time>2026-03-03T10:46:12.999Z</time>
      </trkpt>
      <trkpt lat="44.83904" lon="6.77682">
        <ele>3021</ele>
        <time>2026-03-03T10:46:13.999Z</time>
      </trkpt>
      <trkpt lat="44.83903" lon="6.77682">
        <ele>3021.2</ele>
        <time>2026-03-03T10:46:14.999Z</time>
      </trkpt>
      <trkpt lat="44.83902" lon="6.77682">
        <ele>3021.4</ele>
        <time>2026-03-03T10:46:15.999Z</time>
      </trkpt>
      <trkpt lat="44.83901" lon="6.77682">
        <ele>3021.4</ele>
        <time>2026-03-03T10:46:16.999Z</time>
      </trkpt>
      <trkpt lat="44.83901" lon="6.77682">
        <ele>3021.4</ele>
        <time>2026-03-03T10:46:17.999Z</time>
      </trkpt>
      <trkpt lat="44.839" lon="6.77681">
        <ele>3021.4</ele>
        <time>2026-03-03T10:46:18.999Z</time>
      </trkpt>
      <trkpt lat="44.83899" lon="6.77681">
        <ele>3021.5</ele>
        <time>2026-03-03T10:46:19.999Z</time>
      </trkpt>
      <trkpt lat="44.83898" lon="6.7768">
        <ele>3021.6</ele>
        <time>2026-03-03T10:46:20.999Z</time>
      </trkpt>
      <trkpt lat="44.83898" lon="6.7768">
        <ele>3021.6</ele>
        <time>2026-03-03T10:46:21.999Z</time>
      </trkpt>
      <trkpt lat="44.83898" lon="6.77679">
        <ele>3021.8</ele>
        <time>2026-03-03T10:46:22.999Z</time>
      </trkpt>
      <trkpt lat="44.83897" lon="6.77679">
        <ele>3022</ele>
        <time>2026-03-03T10:46:23.999Z</time>
      </trkpt>
      <trkpt lat="44.83896" lon="6.77679">
        <ele>3022.3</ele>
        <time>2026-03-03T10:46:24.999Z</time>
      </trkpt>
      <trkpt lat="44.83895" lon="6.77678">
        <ele>3022.2</ele>
        <time>2026-03-03T10:46:25.999Z</time>
      </trkpt>
      <trkpt lat="44.83895" lon="6.77678">
        <ele>3022.2</ele>
        <time>2026-03-03T10:46:26.999Z</time>
      </trkpt>
      <trkpt lat="44.83894" lon="6.77678">
        <ele>3022.4</ele>
        <time>2026-03-03T10:46:27.999Z</time>
      </trkpt>
      <trkpt lat="44.83893" lon="6.77678">
        <ele>3022.7</ele>
        <time>2026-03-03T10:46:28.999Z</time>
      </trkpt>
      <trkpt lat="44.83893" lon="6.77678">
        <ele>3022.9</ele>
        <time>2026-03-03T10:46:29.999Z</time>
      </trkpt>
      <trkpt lat="44.83892" lon="6.77678">
        <ele>3022.9</ele>
        <time>2026-03-03T10:46:30.999Z</time>
      </trkpt>
      <trkpt lat="44.83892" lon="6.77678">
        <ele>3023.2</ele>
        <time>2026-03-03T10:46:31.999Z</time>
      </trkpt>
      <trkpt lat="44.83892" lon="6.77678">
        <ele>3023</ele>
        <time>2026-03-03T10:46:32.999Z</time>
      </trkpt>
      <trkpt lat="44.83891" lon="6.77678">
        <ele>3023</ele>
        <time>2026-03-03T10:46:33.999Z</time>
      </trkpt>
      <trkpt lat="44.8389" lon="6.77678">
        <ele>3023</ele>
        <time>2026-03-03T10:46:34.999Z</time>
      </trkpt>
      <trkpt lat="44.8389" lon="6.77678">
        <ele>3023</ele>
        <time>2026-03-03T10:46:35.999Z</time>
      </trkpt>
      <trkpt lat="44.83889" lon="6.77677">
        <ele>3023.1</ele>
        <time>2026-03-03T10:46:36.999Z</time>
      </trkpt>
      <trkpt lat="44.83889" lon="6.77677">
        <ele>3023.1</ele>
        <time>2026-03-03T10:46:37.999Z</time>
      </trkpt>
      <trkpt lat="44.83889" lon="6.77677">
        <ele>3023.1</ele>
        <time>2026-03-03T10:46:38.999Z</time>
      </trkpt>
      <trkpt lat="44.83888" lon="6.77677">
        <ele>3023</ele>
        <time>2026-03-03T10:46:39.999Z</time>
      </trkpt>
      <trkpt lat="44.83888" lon="6.77676">
        <ele>3022.9</ele>
        <time>2026-03-03T10:46:40.999Z</time>
      </trkpt>
      <trkpt lat="44.83888" lon="6.77676">
        <ele>3022.8</ele>
        <time>2026-03-03T10:46:41.999Z</time>
      </trkpt>
      <trkpt lat="44.83888" lon="6.77676">
        <ele>3022.7</ele>
        <time>2026-03-03T10:46:42.999Z</time>
      </trkpt>
      <trkpt lat="44.83887" lon="6.77676">
        <ele>3022.6</ele>
        <time>2026-03-03T10:46:43.999Z</time>
      </trkpt>
      <trkpt lat="44.83887" lon="6.77676">
        <ele>3022.6</ele>
        <time>2026-03-03T10:46:44.999Z</time>
      </trkpt>
      <trkpt lat="44.83886" lon="6.77676">
        <ele>3022.7</ele>
        <time>2026-03-03T10:46:45.999Z</time>
      </trkpt>
      <trkpt lat="44.83885" lon="6.77676">
        <ele>3022.7</ele>
        <time>2026-03-03T10:46:46.999Z</time>
      </trkpt>
      <trkpt lat="44.83885" lon="6.77675">
        <ele>3022.7</ele>
        <time>2026-03-03T10:46:47.999Z</time>
      </trkpt>
      <trkpt lat="44.83884" lon="6.77675">
        <ele>3022.9</ele>
        <time>2026-03-03T10:46:48.999Z</time>
      </trkpt>
      <trkpt lat="44.83884" lon="6.77674">
        <ele>3023.1</ele>
        <time>2026-03-03T10:46:49.999Z</time>
      </trkpt>
      <trkpt lat="44.83883" lon="6.77674">
        <ele>3023.2</ele>
        <time>2026-03-03T10:46:50.999Z</time>
      </trkpt>
      <trkpt lat="44.83882" lon="6.77674">
        <ele>3023.5</ele>
        <time>2026-03-03T10:46:51.999Z</time>
      </trkpt>
      <trkpt lat="44.83882" lon="6.77673">
        <ele>3023.7</ele>
        <time>2026-03-03T10:46:52.999Z</time>
      </trkpt>
      <trkpt lat="44.83881" lon="6.77673">
        <ele>3023.9</ele>
        <time>2026-03-03T10:46:53.999Z</time>
      </trkpt>
      <trkpt lat="44.8388" lon="6.77673">
        <ele>3024</ele>
        <time>2026-03-03T10:46:54.999Z</time>
      </trkpt>
      <trkpt lat="44.8388" lon="6.77673">
        <ele>3024.2</ele>
        <time>2026-03-03T10:46:55.999Z</time>
      </trkpt>
      <trkpt lat="44.83879" lon="6.77673">
        <ele>3024.2</ele>
        <time>2026-03-03T10:46:56.999Z</time>
      </trkpt>
      <trkpt lat="44.83879" lon="6.77673">
        <ele>3024.5</ele>
        <time>2026-03-03T10:46:57.999Z</time>
      </trkpt>
      <trkpt lat="44.83878" lon="6.77672">
        <ele>3024.5</ele>
        <time>2026-03-03T10:46:58.999Z</time>
      </trkpt>
      <trkpt lat="44.83878" lon="6.77672">
        <ele>3024.7</ele>
        <time>2026-03-03T10:46:59.999Z</time>
      </trkpt>
      <trkpt lat="44.83877" lon="6.77672">
        <ele>3024.6</ele>
        <time>2026-03-03T10:47:00.999Z</time>
      </trkpt>
      <trkpt lat="44.83876" lon="6.77672">
        <ele>3024.6</ele>
        <time>2026-03-03T10:47:01.999Z</time>
      </trkpt>
      <trkpt lat="44.83876" lon="6.77671">
        <ele>3024.4</ele>
        <time>2026-03-03T10:47:02.999Z</time>
      </trkpt>
      <trkpt lat="44.83875" lon="6.77671">
        <ele>3024.1</ele>
        <time>2026-03-03T10:47:03.999Z</time>
      </trkpt>
      <trkpt lat="44.83875" lon="6.77671">
        <ele>3024</ele>
        <time>2026-03-03T10:47:04.999Z</time>
      </trkpt>
      <trkpt lat="44.83875" lon="6.77671">
        <ele>3023.9</ele>
        <time>2026-03-03T10:47:05.999Z</time>
      </trkpt>
      <trkpt lat="44.83874" lon="6.7767">
        <ele>3023.6</ele>
        <time>2026-03-03T10:47:06.999Z</time>
      </trkpt>
      <trkpt lat="44.83874" lon="6.7767">
        <ele>3023.4</ele>
        <time>2026-03-03T10:47:07.999Z</time>
      </trkpt>
      <trkpt lat="44.83873" lon="6.77669">
        <ele>3023.2</ele>
        <time>2026-03-03T10:47:08.999Z</time>
      </trkpt>
      <trkpt lat="44.83873" lon="6.77669">
        <ele>3023.2</ele>
        <time>2026-03-03T10:47:09.999Z</time>
      </trkpt>
      <trkpt lat="44.83872" lon="6.77668">
        <ele>3023.1</ele>
        <time>2026-03-03T10:47:10.999Z</time>
      </trkpt>
      <trkpt lat="44.83872" lon="6.77668">
        <ele>3023.2</ele>
        <time>2026-03-03T10:47:11.999Z</time>
      </trkpt>
      <trkpt lat="44.83871" lon="6.77667">
        <ele>3023.1</ele>
        <time>2026-03-03T10:47:12.999Z</time>
      </trkpt>
      <trkpt lat="44.8387" lon="6.77667">
        <ele>3022.9</ele>
        <time>2026-03-03T10:47:13.999Z</time>
      </trkpt>
      <trkpt lat="44.83869" lon="6.77667">
        <ele>3022.8</ele>
        <time>2026-03-03T10:47:14.999Z</time>
      </trkpt>
      <trkpt lat="44.83869" lon="6.77666">
        <ele>3022.7</ele>
        <time>2026-03-03T10:47:15.999Z</time>
      </trkpt>
      <trkpt lat="44.83868" lon="6.77666">
        <ele>3022.8</ele>
        <time>2026-03-03T10:47:16.999Z</time>
      </trkpt>
      <trkpt lat="44.83868" lon="6.77666">
        <ele>3022.8</ele>
        <time>2026-03-03T10:47:17.999Z</time>
      </trkpt>
      <trkpt lat="44.83867" lon="6.77665">
        <ele>3022.7</ele>
        <time>2026-03-03T10:47:18.999Z</time>
      </trkpt>
      <trkpt lat="44.83867" lon="6.77665">
        <ele>3022.8</ele>
        <time>2026-03-03T10:47:19.999Z</time>
      </trkpt>
      <trkpt lat="44.83867" lon="6.77665">
        <ele>3022.6</ele>
        <time>2026-03-03T10:47:20.999Z</time>
      </trkpt>
      <trkpt lat="44.83866" lon="6.77665">
        <ele>3022.5</ele>
        <time>2026-03-03T10:47:21.999Z</time>
      </trkpt>
      <trkpt lat="44.83865" lon="6.77665">
        <ele>3022.6</ele>
        <time>2026-03-03T10:47:22.999Z</time>
      </trkpt>
      <trkpt lat="44.83865" lon="6.77665">
        <ele>3022.7</ele>
        <time>2026-03-03T10:47:23.999Z</time>
      </trkpt>
      <trkpt lat="44.83865" lon="6.77664">
        <ele>3023.2</ele>
        <time>2026-03-03T10:47:24.999Z</time>
      </trkpt>
      <trkpt lat="44.83865" lon="6.77664">
        <ele>3023.3</ele>
        <time>2026-03-03T10:47:25.999Z</time>
      </trkpt>
      <trkpt lat="44.83864" lon="6.77663">
        <ele>3023.2</ele>
        <time>2026-03-03T10:47:26.999Z</time>
      </trkpt>
      <trkpt lat="44.83864" lon="6.77663">
        <ele>3022.9</ele>
        <time>2026-03-03T10:47:27.999Z</time>
      </trkpt>
      <trkpt lat="44.83864" lon="6.77663">
        <ele>3022.8</ele>
        <time>2026-03-03T10:47:28.999Z</time>
      </trkpt>
      <trkpt lat="44.83863" lon="6.77663">
        <ele>3022.8</ele>
        <time>2026-03-03T10:47:29.999Z</time>
      </trkpt>
      <trkpt lat="44.83863" lon="6.77663">
        <ele>3022.8</ele>
        <time>2026-03-03T10:47:30.999Z</time>
      </trkpt>
      <trkpt lat="44.83863" lon="6.77663">
        <ele>3022.8</ele>
        <time>2026-03-03T10:47:31.999Z</time>
      </trkpt>
      <trkpt lat="44.83863" lon="6.77663">
        <ele>3022.8</ele>
        <time>2026-03-03T10:47:32.999Z</time>
      </trkpt>
      <trkpt lat="44.83863" lon="6.77663">
        <ele>3022.8</ele>
        <time>2026-03-03T10:47:33.999Z</time>
      </trkpt>
      <trkpt lat="44.83863" lon="6.77663">
        <ele>3022.8</ele>
        <time>2026-03-03T10:47:34.999Z</time>
      </trkpt>
      <trkpt lat="44.83862" lon="6.77663">
        <ele>3022.6</ele>
        <time>2026-03-03T10:47:35.999Z</time>
      </trkpt>
      <trkpt lat="44.83861" lon="6.77663">
        <ele>3022.5</ele>
        <time>2026-03-03T10:47:36.999Z</time>
      </trkpt>
      <trkpt lat="44.8386" lon="6.77663">
        <ele>3022.4</ele>
        <time>2026-03-03T10:47:37.999Z</time>
      </trkpt>
      <trkpt lat="44.83859" lon="6.77663">
        <ele>3022.3</ele>
        <time>2026-03-03T10:47:38.999Z</time>
      </trkpt>
      <trkpt lat="44.83858" lon="6.77663">
        <ele>3022.3</ele>
        <time>2026-03-03T10:47:39.999Z</time>
      </trkpt>
      <trkpt lat="44.83858" lon="6.77663">
        <ele>3022.3</ele>
        <time>2026-03-03T10:47:40.999Z</time>
      </trkpt>
      <trkpt lat="44.83857" lon="6.77663">
        <ele>3022.5</ele>
        <time>2026-03-03T10:47:41.999Z</time>
      </trkpt>
      <trkpt lat="44.83857" lon="6.77663">
        <ele>3022.5</ele>
        <time>2026-03-03T10:47:42.999Z</time>
      </trkpt>
      <trkpt lat="44.83857" lon="6.77663">
        <ele>3022.4</ele>
        <time>2026-03-03T10:47:43.999Z</time>
      </trkpt>
      <trkpt lat="44.83857" lon="6.77663">
        <ele>3022.5</ele>
        <time>2026-03-03T10:47:44.999Z</time>
      </trkpt>
      <trkpt lat="44.83857" lon="6.77663">
        <ele>3022.5</ele>
        <time>2026-03-03T10:47:45.999Z</time>
      </trkpt>
      <trkpt lat="44.83857" lon="6.77663">
        <ele>3022.6</ele>
        <time>2026-03-03T10:47:46.999Z</time>
      </trkpt>
      <trkpt lat="44.83856" lon="6.77663">
        <ele>3022.5</ele>
        <time>2026-03-03T10:47:47.999Z</time>
      </trkpt>
      <trkpt lat="44.83856" lon="6.77663">
        <ele>3022.4</ele>
        <time>2026-03-03T10:47:48.999Z</time>
      </trkpt>
      <trkpt lat="44.83855" lon="6.77663">
        <ele>3022.5</ele>
        <time>2026-03-03T10:47:49.999Z</time>
      </trkpt>
      <trkpt lat="44.83855" lon="6.77662">
        <ele>3022.6</ele>
        <time>2026-03-03T10:47:50.999Z</time>
      </trkpt>
      <trkpt lat="44.83855" lon="6.77662">
        <ele>3022.7</ele>
        <time>2026-03-03T10:47:51.999Z</time>
      </trkpt>
      <trkpt lat="44.83854" lon="6.77663">
        <ele>3023</ele>
        <time>2026-03-03T10:47:52.999Z</time>
      </trkpt>
      <trkpt lat="44.83854" lon="6.77663">
        <ele>3023.1</ele>
        <time>2026-03-03T10:47:53.999Z</time>
      </trkpt>
      <trkpt lat="44.83854" lon="6.77663">
        <ele>3023.2</ele>
        <time>2026-03-03T10:47:54.999Z</time>
      </trkpt>
      <trkpt lat="44.83853" lon="6.77663">
        <ele>3023.1</ele>
        <time>2026-03-03T10:47:55.999Z</time>
      </trkpt>
      <trkpt lat="44.83852" lon="6.77663">
        <ele>3022.9</ele>
        <time>2026-03-03T10:47:56.999Z</time>
      </trkpt>
      <trkpt lat="44.83851" lon="6.77663">
        <ele>3022.8</ele>
        <time>2026-03-03T10:47:57.999Z</time>
      </trkpt>
      <trkpt lat="44.83851" lon="6.77663">
        <ele>3022.8</ele>
        <time>2026-03-03T10:47:58.999Z</time>
      </trkpt>
      <trkpt lat="44.83831" lon="6.77678">
        <ele>3035.8</ele>
        <time>2026-03-03T10:51:27.000Z</time>
      </trkpt>
      <trkpt lat="44.83831" lon="6.77678">
        <ele>3035.8</ele>
        <time>2026-03-03T10:51:28.000Z</time>
      </trkpt>
      <trkpt lat="44.83832" lon="6.77678">
        <ele>3036.4</ele>
        <time>2026-03-03T10:51:29.000Z</time>
      </trkpt>
    </trkseg>
  </trk>
</gpx>